<?xml version="1.0" encoding="UTF-8" standalone="no" ?>
<gpx xmlns="http://www.topografix.com/GPX/1/1" xmlns:xsi="http://www.w3.org/2001/XMLSchema-instance" xsi:schemaLocation="http://www.topografix.com/GPX/1/1 http://www.topografix.com/GPX/1/1/gpx.xsd" version="1.1" creator="VisuGPX - https://www.visugpx.com">
  <metadata>
    <name>Mtp_Murviel_23012021</name>
  </metadata>
  <trk>
    <name><![CDATA[Mtp_Murviel_23012021_1]]></name>
    <trkseg>
      <trkpt lat="43.61144" lon="3.87729">
        <ele>47</ele>
        <time>2021-01-23T11:36:05Z</time>
      </trkpt>
      <trkpt lat="43.61139" lon="3.8773">
        <ele>47</ele>
        <time>2021-01-23T11:36:44Z</time>
      </trkpt>
      <trkpt lat="43.6114" lon="3.87729">
        <ele>47</ele>
        <time>2021-01-23T11:36:45Z</time>
      </trkpt>
      <trkpt lat="43.61141" lon="3.87727">
        <ele>47</ele>
        <time>2021-01-23T11:36:47Z</time>
      </trkpt>
      <trkpt lat="43.61143" lon="3.8773">
        <ele>105</ele>
        <time>2021-01-23T11:36:55Z</time>
      </trkpt>
      <trkpt lat="43.61143" lon="3.87732">
        <ele>47</ele>
        <time>2021-01-23T11:37:00Z</time>
      </trkpt>
      <trkpt lat="43.61143" lon="3.87735">
        <ele>47</ele>
        <time>2021-01-23T11:37:07Z</time>
      </trkpt>
      <trkpt lat="43.61141" lon="3.87736">
        <ele>47</ele>
        <time>2021-01-23T11:37:11Z</time>
      </trkpt>
      <trkpt lat="43.61139" lon="3.87736">
        <ele>47</ele>
        <time>2021-01-23T11:37:15Z</time>
      </trkpt>
      <trkpt lat="43.61139" lon="3.87732">
        <ele>47</ele>
        <time>2021-01-23T11:37:18Z</time>
      </trkpt>
      <trkpt lat="43.6114" lon="3.8773">
        <ele>47</ele>
        <time>2021-01-23T11:37:21Z</time>
      </trkpt>
      <trkpt lat="43.61139" lon="3.87725">
        <ele>98</ele>
        <time>2021-01-23T11:37:46Z</time>
      </trkpt>
      <trkpt lat="43.61137" lon="3.87723">
        <ele>47</ele>
        <time>2021-01-23T11:37:48Z</time>
      </trkpt>
      <trkpt lat="43.61135" lon="3.87724">
        <ele>47</ele>
        <time>2021-01-23T11:37:49Z</time>
      </trkpt>
      <trkpt lat="43.61132" lon="3.87722">
        <ele>47</ele>
        <time>2021-01-23T11:37:51Z</time>
      </trkpt>
      <trkpt lat="43.6113" lon="3.87719">
        <ele>47.1</ele>
        <time>2021-01-23T11:37:53Z</time>
      </trkpt>
      <trkpt lat="43.61128" lon="3.87718">
        <ele>47.1</ele>
        <time>2021-01-23T11:37:54Z</time>
      </trkpt>
      <trkpt lat="43.61126" lon="3.87717">
        <ele>47.1</ele>
        <time>2021-01-23T11:37:55Z</time>
      </trkpt>
      <trkpt lat="43.61123" lon="3.87719">
        <ele>47</ele>
        <time>2021-01-23T11:37:57Z</time>
      </trkpt>
      <trkpt lat="43.61121" lon="3.87721">
        <ele>47</ele>
        <time>2021-01-23T11:37:58Z</time>
      </trkpt>
      <trkpt lat="43.61112" lon="3.87727">
        <ele>47</ele>
        <time>2021-01-23T11:38:01Z</time>
      </trkpt>
      <trkpt lat="43.611" lon="3.87731">
        <ele>46.5</ele>
        <time>2021-01-23T11:38:05Z</time>
      </trkpt>
      <trkpt lat="43.6109" lon="3.8772">
        <ele>46.2</ele>
        <time>2021-01-23T11:38:08Z</time>
      </trkpt>
      <trkpt lat="43.61083" lon="3.87704">
        <ele>46</ele>
        <time>2021-01-23T11:38:11Z</time>
      </trkpt>
      <trkpt lat="43.61082" lon="3.87699">
        <ele>46</ele>
        <time>2021-01-23T11:38:12Z</time>
      </trkpt>
      <trkpt lat="43.61082" lon="3.87695">
        <ele>46</ele>
        <time>2021-01-23T11:38:13Z</time>
      </trkpt>
      <trkpt lat="43.61082" lon="3.87684">
        <ele>46.7</ele>
        <time>2021-01-23T11:38:18Z</time>
      </trkpt>
      <trkpt lat="43.61081" lon="3.87681">
        <ele>46.9</ele>
        <time>2021-01-23T11:38:19Z</time>
      </trkpt>
      <trkpt lat="43.61081" lon="3.87678">
        <ele>47.1</ele>
        <time>2021-01-23T11:38:20Z</time>
      </trkpt>
      <trkpt lat="43.6108" lon="3.87674">
        <ele>47.3</ele>
        <time>2021-01-23T11:38:21Z</time>
      </trkpt>
      <trkpt lat="43.61079" lon="3.87669">
        <ele>47.5</ele>
        <time>2021-01-23T11:38:23Z</time>
      </trkpt>
      <trkpt lat="43.61076" lon="3.87667">
        <ele>47.5</ele>
        <time>2021-01-23T11:38:25Z</time>
      </trkpt>
      <trkpt lat="43.61072" lon="3.87666">
        <ele>74</ele>
        <time>2021-01-23T11:38:26Z</time>
      </trkpt>
      <trkpt lat="43.61069" lon="3.87664">
        <ele>47</ele>
        <time>2021-01-23T11:38:27Z</time>
      </trkpt>
      <trkpt lat="43.61066" lon="3.87663">
        <ele>46.8</ele>
        <time>2021-01-23T11:38:28Z</time>
      </trkpt>
      <trkpt lat="43.6106" lon="3.8766">
        <ele>46.5</ele>
        <time>2021-01-23T11:38:30Z</time>
      </trkpt>
      <trkpt lat="43.61057" lon="3.87659">
        <ele>46.4</ele>
        <time>2021-01-23T11:38:31Z</time>
      </trkpt>
      <trkpt lat="43.61054" lon="3.87658">
        <ele>46.3</ele>
        <time>2021-01-23T11:38:32Z</time>
      </trkpt>
      <trkpt lat="43.61051" lon="3.87657">
        <ele>46.3</ele>
        <time>2021-01-23T11:38:33Z</time>
      </trkpt>
      <trkpt lat="43.61049" lon="3.87656">
        <ele>46.3</ele>
        <time>2021-01-23T11:38:34Z</time>
      </trkpt>
      <trkpt lat="43.61047" lon="3.87655">
        <ele>46.3</ele>
        <time>2021-01-23T11:38:35Z</time>
      </trkpt>
      <trkpt lat="43.61045" lon="3.87653">
        <ele>64</ele>
        <time>2021-01-23T11:38:36Z</time>
      </trkpt>
      <trkpt lat="43.61043" lon="3.87651">
        <ele>46.3</ele>
        <time>2021-01-23T11:38:37Z</time>
      </trkpt>
      <trkpt lat="43.6104" lon="3.87649">
        <ele>46.3</ele>
        <time>2021-01-23T11:38:38Z</time>
      </trkpt>
      <trkpt lat="43.61038" lon="3.87646">
        <ele>46.3</ele>
        <time>2021-01-23T11:38:39Z</time>
      </trkpt>
      <trkpt lat="43.61035" lon="3.87644">
        <ele>46.2</ele>
        <time>2021-01-23T11:38:40Z</time>
      </trkpt>
      <trkpt lat="43.61032" lon="3.87642">
        <ele>46.1</ele>
        <time>2021-01-23T11:38:41Z</time>
      </trkpt>
      <trkpt lat="43.61029" lon="3.8764">
        <ele>46</ele>
        <time>2021-01-23T11:38:42Z</time>
      </trkpt>
      <trkpt lat="43.61019" lon="3.87638">
        <ele>65</ele>
        <time>2021-01-23T11:38:46Z</time>
      </trkpt>
      <trkpt lat="43.61015" lon="3.87639">
        <ele>45.5</ele>
        <time>2021-01-23T11:38:48Z</time>
      </trkpt>
      <trkpt lat="43.61008" lon="3.8763">
        <ele>45.5</ele>
        <time>2021-01-23T11:38:52Z</time>
      </trkpt>
      <trkpt lat="43.61007" lon="3.87619">
        <ele>45.8</ele>
        <time>2021-01-23T11:38:55Z</time>
      </trkpt>
      <trkpt lat="43.61007" lon="3.87615">
        <ele>64</ele>
        <time>2021-01-23T11:38:56Z</time>
      </trkpt>
      <trkpt lat="43.61005" lon="3.87611">
        <ele>46</ele>
        <time>2021-01-23T11:38:57Z</time>
      </trkpt>
      <trkpt lat="43.61003" lon="3.87607">
        <ele>45.9</ele>
        <time>2021-01-23T11:38:58Z</time>
      </trkpt>
      <trkpt lat="43.61001" lon="3.87602">
        <ele>45.7</ele>
        <time>2021-01-23T11:38:59Z</time>
      </trkpt>
      <trkpt lat="43.60999" lon="3.87598">
        <ele>45.5</ele>
        <time>2021-01-23T11:39:00Z</time>
      </trkpt>
      <trkpt lat="43.60997" lon="3.87595">
        <ele>45.4</ele>
        <time>2021-01-23T11:39:01Z</time>
      </trkpt>
      <trkpt lat="43.60996" lon="3.87591">
        <ele>45.2</ele>
        <time>2021-01-23T11:39:02Z</time>
      </trkpt>
      <trkpt lat="43.60994" lon="3.87587">
        <ele>44.9</ele>
        <time>2021-01-23T11:39:03Z</time>
      </trkpt>
      <trkpt lat="43.60993" lon="3.87584">
        <ele>44.8</ele>
        <time>2021-01-23T11:39:04Z</time>
      </trkpt>
      <trkpt lat="43.60992" lon="3.87581">
        <ele>44.7</ele>
        <time>2021-01-23T11:39:05Z</time>
      </trkpt>
      <trkpt lat="43.60991" lon="3.87578">
        <ele>64</ele>
        <time>2021-01-23T11:39:06Z</time>
      </trkpt>
      <trkpt lat="43.6099" lon="3.87575">
        <ele>44.6</ele>
        <time>2021-01-23T11:39:07Z</time>
      </trkpt>
      <trkpt lat="43.60989" lon="3.87572">
        <ele>44.5</ele>
        <time>2021-01-23T11:39:09Z</time>
      </trkpt>
      <trkpt lat="43.60989" lon="3.87569">
        <ele>44.5</ele>
        <time>2021-01-23T11:39:12Z</time>
      </trkpt>
      <trkpt lat="43.60989" lon="3.87565">
        <ele>44.5</ele>
        <time>2021-01-23T11:39:15Z</time>
      </trkpt>
      <trkpt lat="43.60988" lon="3.87562">
        <ele>63</ele>
        <time>2021-01-23T11:39:16Z</time>
      </trkpt>
      <trkpt lat="43.60987" lon="3.8756">
        <ele>44.2</ele>
        <time>2021-01-23T11:39:17Z</time>
      </trkpt>
      <trkpt lat="43.60986" lon="3.87557">
        <ele>44</ele>
        <time>2021-01-23T11:39:18Z</time>
      </trkpt>
      <trkpt lat="43.60984" lon="3.87554">
        <ele>43.7</ele>
        <time>2021-01-23T11:39:19Z</time>
      </trkpt>
      <trkpt lat="43.60982" lon="3.8755">
        <ele>43.4</ele>
        <time>2021-01-23T11:39:20Z</time>
      </trkpt>
      <trkpt lat="43.6098" lon="3.87545">
        <ele>43.1</ele>
        <time>2021-01-23T11:39:21Z</time>
      </trkpt>
      <trkpt lat="43.60978" lon="3.87541">
        <ele>42.8</ele>
        <time>2021-01-23T11:39:22Z</time>
      </trkpt>
      <trkpt lat="43.60975" lon="3.87537">
        <ele>42.4</ele>
        <time>2021-01-23T11:39:23Z</time>
      </trkpt>
      <trkpt lat="43.60973" lon="3.87532">
        <ele>42.1</ele>
        <time>2021-01-23T11:39:24Z</time>
      </trkpt>
      <trkpt lat="43.60969" lon="3.87527">
        <ele>41.8</ele>
        <time>2021-01-23T11:39:25Z</time>
      </trkpt>
      <trkpt lat="43.60966" lon="3.87522">
        <ele>62</ele>
        <time>2021-01-23T11:39:26Z</time>
      </trkpt>
      <trkpt lat="43.60963" lon="3.87518">
        <ele>41.5</ele>
        <time>2021-01-23T11:39:27Z</time>
      </trkpt>
      <trkpt lat="43.6096" lon="3.87514">
        <ele>41.2</ele>
        <time>2021-01-23T11:39:28Z</time>
      </trkpt>
      <trkpt lat="43.60957" lon="3.87509">
        <ele>40.8</ele>
        <time>2021-01-23T11:39:29Z</time>
      </trkpt>
      <trkpt lat="43.60954" lon="3.87503">
        <ele>40.4</ele>
        <time>2021-01-23T11:39:30Z</time>
      </trkpt>
      <trkpt lat="43.60951" lon="3.87499">
        <ele>40</ele>
        <time>2021-01-23T11:39:31Z</time>
      </trkpt>
      <trkpt lat="43.60948" lon="3.87495">
        <ele>39.5</ele>
        <time>2021-01-23T11:39:32Z</time>
      </trkpt>
      <trkpt lat="43.60945" lon="3.8749">
        <ele>39.1</ele>
        <time>2021-01-23T11:39:33Z</time>
      </trkpt>
      <trkpt lat="43.60942" lon="3.87484">
        <ele>38.9</ele>
        <time>2021-01-23T11:39:34Z</time>
      </trkpt>
      <trkpt lat="43.60938" lon="3.87479">
        <ele>38.6</ele>
        <time>2021-01-23T11:39:35Z</time>
      </trkpt>
      <trkpt lat="43.60934" lon="3.87473">
        <ele>60</ele>
        <time>2021-01-23T11:39:36Z</time>
      </trkpt>
      <trkpt lat="43.60931" lon="3.87467">
        <ele>37.8</ele>
        <time>2021-01-23T11:39:37Z</time>
      </trkpt>
      <trkpt lat="43.60928" lon="3.87459">
        <ele>37.3</ele>
        <time>2021-01-23T11:39:38Z</time>
      </trkpt>
      <trkpt lat="43.60926" lon="3.87452">
        <ele>36.9</ele>
        <time>2021-01-23T11:39:39Z</time>
      </trkpt>
      <trkpt lat="43.60924" lon="3.87446">
        <ele>36.6</ele>
        <time>2021-01-23T11:39:40Z</time>
      </trkpt>
      <trkpt lat="43.60922" lon="3.87439">
        <ele>36.4</ele>
        <time>2021-01-23T11:39:41Z</time>
      </trkpt>
      <trkpt lat="43.6092" lon="3.87433">
        <ele>36.2</ele>
        <time>2021-01-23T11:39:42Z</time>
      </trkpt>
      <trkpt lat="43.60917" lon="3.87426">
        <ele>36</ele>
        <time>2021-01-23T11:39:43Z</time>
      </trkpt>
      <trkpt lat="43.60914" lon="3.8742">
        <ele>35.9</ele>
        <time>2021-01-23T11:39:44Z</time>
      </trkpt>
      <trkpt lat="43.60911" lon="3.87413">
        <ele>35.8</ele>
        <time>2021-01-23T11:39:45Z</time>
      </trkpt>
      <trkpt lat="43.60909" lon="3.87406">
        <ele>58</ele>
        <time>2021-01-23T11:39:46Z</time>
      </trkpt>
      <trkpt lat="43.60907" lon="3.87399">
        <ele>35.4</ele>
        <time>2021-01-23T11:39:47Z</time>
      </trkpt>
      <trkpt lat="43.60905" lon="3.87393">
        <ele>35.2</ele>
        <time>2021-01-23T11:39:48Z</time>
      </trkpt>
      <trkpt lat="43.60902" lon="3.87387">
        <ele>34.9</ele>
        <time>2021-01-23T11:39:49Z</time>
      </trkpt>
      <trkpt lat="43.609" lon="3.87379">
        <ele>34.8</ele>
        <time>2021-01-23T11:39:50Z</time>
      </trkpt>
      <trkpt lat="43.60897" lon="3.87372">
        <ele>34.6</ele>
        <time>2021-01-23T11:39:51Z</time>
      </trkpt>
      <trkpt lat="43.60895" lon="3.87367">
        <ele>34.4</ele>
        <time>2021-01-23T11:39:52Z</time>
      </trkpt>
      <trkpt lat="43.60893" lon="3.87362">
        <ele>34.3</ele>
        <time>2021-01-23T11:39:53Z</time>
      </trkpt>
      <trkpt lat="43.60891" lon="3.87358">
        <ele>34.2</ele>
        <time>2021-01-23T11:39:54Z</time>
      </trkpt>
      <trkpt lat="43.6089" lon="3.87355">
        <ele>34.3</ele>
        <time>2021-01-23T11:39:55Z</time>
      </trkpt>
      <trkpt lat="43.60888" lon="3.87352">
        <ele>34.3</ele>
        <time>2021-01-23T11:39:57Z</time>
      </trkpt>
      <trkpt lat="43.60886" lon="3.87351">
        <ele>34.2</ele>
        <time>2021-01-23T11:39:59Z</time>
      </trkpt>
      <trkpt lat="43.60883" lon="3.8735">
        <ele>34.1</ele>
        <time>2021-01-23T11:40:01Z</time>
      </trkpt>
      <trkpt lat="43.6088" lon="3.87347">
        <ele>34</ele>
        <time>2021-01-23T11:40:03Z</time>
      </trkpt>
      <trkpt lat="43.60878" lon="3.87346">
        <ele>33.9</ele>
        <time>2021-01-23T11:40:04Z</time>
      </trkpt>
      <trkpt lat="43.60876" lon="3.87344">
        <ele>33.9</ele>
        <time>2021-01-23T11:40:05Z</time>
      </trkpt>
      <trkpt lat="43.60875" lon="3.87341">
        <ele>33.9</ele>
        <time>2021-01-23T11:40:07Z</time>
      </trkpt>
      <trkpt lat="43.60874" lon="3.87338">
        <ele>33.9</ele>
        <time>2021-01-23T11:40:10Z</time>
      </trkpt>
      <trkpt lat="43.60873" lon="3.87335">
        <ele>33.8</ele>
        <time>2021-01-23T11:40:11Z</time>
      </trkpt>
      <trkpt lat="43.60872" lon="3.87333">
        <ele>33.8</ele>
        <time>2021-01-23T11:40:12Z</time>
      </trkpt>
      <trkpt lat="43.60871" lon="3.87329">
        <ele>33.7</ele>
        <time>2021-01-23T11:40:14Z</time>
      </trkpt>
      <trkpt lat="43.6087" lon="3.87326">
        <ele>33.6</ele>
        <time>2021-01-23T11:40:15Z</time>
      </trkpt>
      <trkpt lat="43.60869" lon="3.87323">
        <ele>51</ele>
        <time>2021-01-23T11:40:16Z</time>
      </trkpt>
      <trkpt lat="43.60867" lon="3.8732">
        <ele>33.3</ele>
        <time>2021-01-23T11:40:17Z</time>
      </trkpt>
      <trkpt lat="43.60866" lon="3.87318">
        <ele>33.3</ele>
        <time>2021-01-23T11:40:18Z</time>
      </trkpt>
      <trkpt lat="43.60865" lon="3.87315">
        <ele>33.2</ele>
        <time>2021-01-23T11:40:19Z</time>
      </trkpt>
      <trkpt lat="43.60863" lon="3.87312">
        <ele>33.1</ele>
        <time>2021-01-23T11:40:20Z</time>
      </trkpt>
      <trkpt lat="43.60862" lon="3.8731">
        <ele>33</ele>
        <time>2021-01-23T11:40:21Z</time>
      </trkpt>
      <trkpt lat="43.6086" lon="3.87307">
        <ele>33</ele>
        <time>2021-01-23T11:40:22Z</time>
      </trkpt>
      <trkpt lat="43.60859" lon="3.87306">
        <ele>33</ele>
        <time>2021-01-23T11:40:23Z</time>
      </trkpt>
      <trkpt lat="43.60857" lon="3.87303">
        <ele>33.1</ele>
        <time>2021-01-23T11:40:24Z</time>
      </trkpt>
      <trkpt lat="43.60857" lon="3.87299">
        <ele>33.2</ele>
        <time>2021-01-23T11:40:25Z</time>
      </trkpt>
      <trkpt lat="43.60855" lon="3.87294">
        <ele>49</ele>
        <time>2021-01-23T11:40:26Z</time>
      </trkpt>
      <trkpt lat="43.60854" lon="3.8729">
        <ele>33.4</ele>
        <time>2021-01-23T11:40:27Z</time>
      </trkpt>
      <trkpt lat="43.60853" lon="3.87286">
        <ele>33.5</ele>
        <time>2021-01-23T11:40:28Z</time>
      </trkpt>
      <trkpt lat="43.60852" lon="3.87282">
        <ele>33.6</ele>
        <time>2021-01-23T11:40:29Z</time>
      </trkpt>
      <trkpt lat="43.6085" lon="3.87277">
        <ele>33.6</ele>
        <time>2021-01-23T11:40:30Z</time>
      </trkpt>
      <trkpt lat="43.60849" lon="3.87272">
        <ele>33.8</ele>
        <time>2021-01-23T11:40:31Z</time>
      </trkpt>
      <trkpt lat="43.60849" lon="3.87267">
        <ele>34</ele>
        <time>2021-01-23T11:40:32Z</time>
      </trkpt>
      <trkpt lat="43.60847" lon="3.87263">
        <ele>34</ele>
        <time>2021-01-23T11:40:33Z</time>
      </trkpt>
      <trkpt lat="43.60846" lon="3.87259">
        <ele>34.1</ele>
        <time>2021-01-23T11:40:34Z</time>
      </trkpt>
      <trkpt lat="43.60844" lon="3.87255">
        <ele>34.2</ele>
        <time>2021-01-23T11:40:35Z</time>
      </trkpt>
      <trkpt lat="43.60843" lon="3.8725">
        <ele>46</ele>
        <time>2021-01-23T11:40:36Z</time>
      </trkpt>
      <trkpt lat="43.60841" lon="3.87246">
        <ele>34.2</ele>
        <time>2021-01-23T11:40:37Z</time>
      </trkpt>
      <trkpt lat="43.6084" lon="3.87242">
        <ele>34.2</ele>
        <time>2021-01-23T11:40:38Z</time>
      </trkpt>
      <trkpt lat="43.60839" lon="3.87238">
        <ele>34.1</ele>
        <time>2021-01-23T11:40:39Z</time>
      </trkpt>
      <trkpt lat="43.60837" lon="3.87234">
        <ele>34.1</ele>
        <time>2021-01-23T11:40:40Z</time>
      </trkpt>
      <trkpt lat="43.60837" lon="3.8723">
        <ele>34</ele>
        <time>2021-01-23T11:40:41Z</time>
      </trkpt>
      <trkpt lat="43.60836" lon="3.87225">
        <ele>34</ele>
        <time>2021-01-23T11:40:42Z</time>
      </trkpt>
      <trkpt lat="43.60835" lon="3.87221">
        <ele>34</ele>
        <time>2021-01-23T11:40:43Z</time>
      </trkpt>
      <trkpt lat="43.60834" lon="3.87216">
        <ele>34</ele>
        <time>2021-01-23T11:40:44Z</time>
      </trkpt>
      <trkpt lat="43.60833" lon="3.87209">
        <ele>34</ele>
        <time>2021-01-23T11:40:45Z</time>
      </trkpt>
      <trkpt lat="43.60832" lon="3.87203">
        <ele>34</ele>
        <time>2021-01-23T11:40:46Z</time>
      </trkpt>
      <trkpt lat="43.60831" lon="3.87198">
        <ele>44</ele>
        <time>2021-01-23T11:40:47Z</time>
      </trkpt>
      <trkpt lat="43.60831" lon="3.87192">
        <ele>33.9</ele>
        <time>2021-01-23T11:40:48Z</time>
      </trkpt>
      <trkpt lat="43.60831" lon="3.87187">
        <ele>33.7</ele>
        <time>2021-01-23T11:40:49Z</time>
      </trkpt>
      <trkpt lat="43.60831" lon="3.87181">
        <ele>33.5</ele>
        <time>2021-01-23T11:40:50Z</time>
      </trkpt>
      <trkpt lat="43.60831" lon="3.87176">
        <ele>33.3</ele>
        <time>2021-01-23T11:40:51Z</time>
      </trkpt>
      <trkpt lat="43.60832" lon="3.8717">
        <ele>33.1</ele>
        <time>2021-01-23T11:40:52Z</time>
      </trkpt>
      <trkpt lat="43.60832" lon="3.87165">
        <ele>33</ele>
        <time>2021-01-23T11:40:53Z</time>
      </trkpt>
      <trkpt lat="43.60832" lon="3.87159">
        <ele>33</ele>
        <time>2021-01-23T11:40:54Z</time>
      </trkpt>
      <trkpt lat="43.60833" lon="3.87154">
        <ele>33</ele>
        <time>2021-01-23T11:40:55Z</time>
      </trkpt>
      <trkpt lat="43.60833" lon="3.87148">
        <ele>42</ele>
        <time>2021-01-23T11:40:56Z</time>
      </trkpt>
      <trkpt lat="43.60833" lon="3.87142">
        <ele>33</ele>
        <time>2021-01-23T11:40:57Z</time>
      </trkpt>
      <trkpt lat="43.60833" lon="3.87137">
        <ele>33</ele>
        <time>2021-01-23T11:40:58Z</time>
      </trkpt>
      <trkpt lat="43.60833" lon="3.87131">
        <ele>33</ele>
        <time>2021-01-23T11:40:59Z</time>
      </trkpt>
      <trkpt lat="43.60832" lon="3.87125">
        <ele>33</ele>
        <time>2021-01-23T11:41:00Z</time>
      </trkpt>
      <trkpt lat="43.60832" lon="3.8712">
        <ele>33</ele>
        <time>2021-01-23T11:41:01Z</time>
      </trkpt>
      <trkpt lat="43.60831" lon="3.87114">
        <ele>32.9</ele>
        <time>2021-01-23T11:41:02Z</time>
      </trkpt>
      <trkpt lat="43.60833" lon="3.87109">
        <ele>32.9</ele>
        <time>2021-01-23T11:41:03Z</time>
      </trkpt>
      <trkpt lat="43.60833" lon="3.87103">
        <ele>32.7</ele>
        <time>2021-01-23T11:41:04Z</time>
      </trkpt>
      <trkpt lat="43.60834" lon="3.87097">
        <ele>32.5</ele>
        <time>2021-01-23T11:41:05Z</time>
      </trkpt>
      <trkpt lat="43.60833" lon="3.87091">
        <ele>42</ele>
        <time>2021-01-23T11:41:06Z</time>
      </trkpt>
      <trkpt lat="43.60834" lon="3.87085">
        <ele>32.1</ele>
        <time>2021-01-23T11:41:07Z</time>
      </trkpt>
      <trkpt lat="43.60835" lon="3.87079">
        <ele>32.1</ele>
        <time>2021-01-23T11:41:08Z</time>
      </trkpt>
      <trkpt lat="43.60835" lon="3.87062">
        <ele>32.1</ele>
        <time>2021-01-23T11:41:11Z</time>
      </trkpt>
      <trkpt lat="43.60837" lon="3.87056">
        <ele>32.3</ele>
        <time>2021-01-23T11:41:12Z</time>
      </trkpt>
      <trkpt lat="43.60838" lon="3.87051">
        <ele>32.3</ele>
        <time>2021-01-23T11:41:13Z</time>
      </trkpt>
      <trkpt lat="43.60839" lon="3.87045">
        <ele>32.4</ele>
        <time>2021-01-23T11:41:14Z</time>
      </trkpt>
      <trkpt lat="43.60839" lon="3.8704">
        <ele>32.4</ele>
        <time>2021-01-23T11:41:15Z</time>
      </trkpt>
      <trkpt lat="43.60841" lon="3.87029">
        <ele>43</ele>
        <time>2021-01-23T11:41:16Z</time>
      </trkpt>
      <trkpt lat="43.60841" lon="3.87024">
        <ele>32.7</ele>
        <time>2021-01-23T11:41:17Z</time>
      </trkpt>
      <trkpt lat="43.60841" lon="3.87019">
        <ele>32.8</ele>
        <time>2021-01-23T11:41:18Z</time>
      </trkpt>
      <trkpt lat="43.60842" lon="3.87013">
        <ele>33</ele>
        <time>2021-01-23T11:41:19Z</time>
      </trkpt>
      <trkpt lat="43.60842" lon="3.87008">
        <ele>33.1</ele>
        <time>2021-01-23T11:41:20Z</time>
      </trkpt>
      <trkpt lat="43.60843" lon="3.87003">
        <ele>33.3</ele>
        <time>2021-01-23T11:41:21Z</time>
      </trkpt>
      <trkpt lat="43.60843" lon="3.86998">
        <ele>33.3</ele>
        <time>2021-01-23T11:41:22Z</time>
      </trkpt>
      <trkpt lat="43.60842" lon="3.86995">
        <ele>33.3</ele>
        <time>2021-01-23T11:41:23Z</time>
      </trkpt>
      <trkpt lat="43.60843" lon="3.86993">
        <ele>33.3</ele>
        <time>2021-01-23T11:41:24Z</time>
      </trkpt>
      <trkpt lat="43.60842" lon="3.8699">
        <ele>44</ele>
        <time>2021-01-23T11:41:26Z</time>
      </trkpt>
      <trkpt lat="43.60842" lon="3.86987">
        <ele>33.2</ele>
        <time>2021-01-23T11:41:27Z</time>
      </trkpt>
      <trkpt lat="43.60841" lon="3.86984">
        <ele>33.1</ele>
        <time>2021-01-23T11:41:29Z</time>
      </trkpt>
      <trkpt lat="43.60842" lon="3.86981">
        <ele>33.1</ele>
        <time>2021-01-23T11:41:31Z</time>
      </trkpt>
      <trkpt lat="43.60842" lon="3.86978">
        <ele>33.1</ele>
        <time>2021-01-23T11:41:32Z</time>
      </trkpt>
      <trkpt lat="43.60842" lon="3.86974">
        <ele>33</ele>
        <time>2021-01-23T11:41:33Z</time>
      </trkpt>
      <trkpt lat="43.60843" lon="3.8697">
        <ele>32.9</ele>
        <time>2021-01-23T11:41:34Z</time>
      </trkpt>
      <trkpt lat="43.60844" lon="3.86966">
        <ele>32.9</ele>
        <time>2021-01-23T11:41:35Z</time>
      </trkpt>
      <trkpt lat="43.60845" lon="3.86962">
        <ele>43</ele>
        <time>2021-01-23T11:41:36Z</time>
      </trkpt>
      <trkpt lat="43.60845" lon="3.86958">
        <ele>32.7</ele>
        <time>2021-01-23T11:41:37Z</time>
      </trkpt>
      <trkpt lat="43.60846" lon="3.86954">
        <ele>32.6</ele>
        <time>2021-01-23T11:41:38Z</time>
      </trkpt>
      <trkpt lat="43.60846" lon="3.86951">
        <ele>32.6</ele>
        <time>2021-01-23T11:41:39Z</time>
      </trkpt>
      <trkpt lat="43.60846" lon="3.86947">
        <ele>32.5</ele>
        <time>2021-01-23T11:41:40Z</time>
      </trkpt>
      <trkpt lat="43.60846" lon="3.86943">
        <ele>32.4</ele>
        <time>2021-01-23T11:41:41Z</time>
      </trkpt>
      <trkpt lat="43.60845" lon="3.86939">
        <ele>32.3</ele>
        <time>2021-01-23T11:41:42Z</time>
      </trkpt>
      <trkpt lat="43.60844" lon="3.86935">
        <ele>32.3</ele>
        <time>2021-01-23T11:41:43Z</time>
      </trkpt>
      <trkpt lat="43.60842" lon="3.8693">
        <ele>32.1</ele>
        <time>2021-01-23T11:41:44Z</time>
      </trkpt>
      <trkpt lat="43.60841" lon="3.86926">
        <ele>32.1</ele>
        <time>2021-01-23T11:41:45Z</time>
      </trkpt>
      <trkpt lat="43.6084" lon="3.86921">
        <ele>42</ele>
        <time>2021-01-23T11:41:46Z</time>
      </trkpt>
      <trkpt lat="43.60839" lon="3.86917">
        <ele>32</ele>
        <time>2021-01-23T11:41:47Z</time>
      </trkpt>
      <trkpt lat="43.60838" lon="3.86913">
        <ele>32</ele>
        <time>2021-01-23T11:41:48Z</time>
      </trkpt>
      <trkpt lat="43.60837" lon="3.86909">
        <ele>32</ele>
        <time>2021-01-23T11:41:49Z</time>
      </trkpt>
      <trkpt lat="43.60835" lon="3.86904">
        <ele>32</ele>
        <time>2021-01-23T11:41:50Z</time>
      </trkpt>
      <trkpt lat="43.60835" lon="3.869">
        <ele>32</ele>
        <time>2021-01-23T11:41:51Z</time>
      </trkpt>
      <trkpt lat="43.60836" lon="3.86895">
        <ele>32</ele>
        <time>2021-01-23T11:41:52Z</time>
      </trkpt>
      <trkpt lat="43.60838" lon="3.86891">
        <ele>32</ele>
        <time>2021-01-23T11:41:53Z</time>
      </trkpt>
      <trkpt lat="43.6084" lon="3.86887">
        <ele>32</ele>
        <time>2021-01-23T11:41:54Z</time>
      </trkpt>
      <trkpt lat="43.60841" lon="3.86882">
        <ele>32</ele>
        <time>2021-01-23T11:41:55Z</time>
      </trkpt>
      <trkpt lat="43.60842" lon="3.86878">
        <ele>41</ele>
        <time>2021-01-23T11:41:56Z</time>
      </trkpt>
      <trkpt lat="43.60844" lon="3.86874">
        <ele>32</ele>
        <time>2021-01-23T11:41:57Z</time>
      </trkpt>
      <trkpt lat="43.60845" lon="3.86869">
        <ele>32</ele>
        <time>2021-01-23T11:41:58Z</time>
      </trkpt>
      <trkpt lat="43.60846" lon="3.86865">
        <ele>32</ele>
        <time>2021-01-23T11:41:59Z</time>
      </trkpt>
      <trkpt lat="43.60847" lon="3.86861">
        <ele>32</ele>
        <time>2021-01-23T11:42:00Z</time>
      </trkpt>
      <trkpt lat="43.60848" lon="3.86856">
        <ele>32.2</ele>
        <time>2021-01-23T11:42:01Z</time>
      </trkpt>
      <trkpt lat="43.60849" lon="3.86852">
        <ele>32.3</ele>
        <time>2021-01-23T11:42:02Z</time>
      </trkpt>
      <trkpt lat="43.60851" lon="3.86848">
        <ele>32.5</ele>
        <time>2021-01-23T11:42:03Z</time>
      </trkpt>
      <trkpt lat="43.60852" lon="3.86844">
        <ele>32.6</ele>
        <time>2021-01-23T11:42:04Z</time>
      </trkpt>
      <trkpt lat="43.60853" lon="3.86839">
        <ele>32.8</ele>
        <time>2021-01-23T11:42:05Z</time>
      </trkpt>
      <trkpt lat="43.60858" lon="3.86835">
        <ele>41</ele>
        <time>2021-01-23T11:42:06Z</time>
      </trkpt>
      <trkpt lat="43.6086" lon="3.8683">
        <ele>33</ele>
        <time>2021-01-23T11:42:07Z</time>
      </trkpt>
      <trkpt lat="43.60862" lon="3.86824">
        <ele>33</ele>
        <time>2021-01-23T11:42:08Z</time>
      </trkpt>
      <trkpt lat="43.60865" lon="3.86819">
        <ele>33.1</ele>
        <time>2021-01-23T11:42:09Z</time>
      </trkpt>
      <trkpt lat="43.60866" lon="3.86814">
        <ele>33.1</ele>
        <time>2021-01-23T11:42:10Z</time>
      </trkpt>
      <trkpt lat="43.60868" lon="3.86809">
        <ele>33</ele>
        <time>2021-01-23T11:42:11Z</time>
      </trkpt>
      <trkpt lat="43.60868" lon="3.86804">
        <ele>33</ele>
        <time>2021-01-23T11:42:12Z</time>
      </trkpt>
      <trkpt lat="43.60869" lon="3.868">
        <ele>33</ele>
        <time>2021-01-23T11:42:13Z</time>
      </trkpt>
      <trkpt lat="43.6087" lon="3.86795">
        <ele>33</ele>
        <time>2021-01-23T11:42:14Z</time>
      </trkpt>
      <trkpt lat="43.6087" lon="3.8679">
        <ele>33</ele>
        <time>2021-01-23T11:42:15Z</time>
      </trkpt>
      <trkpt lat="43.60872" lon="3.86785">
        <ele>41</ele>
        <time>2021-01-23T11:42:16Z</time>
      </trkpt>
      <trkpt lat="43.60874" lon="3.8678">
        <ele>33</ele>
        <time>2021-01-23T11:42:17Z</time>
      </trkpt>
      <trkpt lat="43.60875" lon="3.86775">
        <ele>33</ele>
        <time>2021-01-23T11:42:18Z</time>
      </trkpt>
      <trkpt lat="43.60878" lon="3.86771">
        <ele>33</ele>
        <time>2021-01-23T11:42:19Z</time>
      </trkpt>
      <trkpt lat="43.6088" lon="3.86766">
        <ele>33</ele>
        <time>2021-01-23T11:42:20Z</time>
      </trkpt>
      <trkpt lat="43.60881" lon="3.86761">
        <ele>33</ele>
        <time>2021-01-23T11:42:21Z</time>
      </trkpt>
      <trkpt lat="43.60883" lon="3.86756">
        <ele>33</ele>
        <time>2021-01-23T11:42:22Z</time>
      </trkpt>
      <trkpt lat="43.60885" lon="3.86751">
        <ele>33</ele>
        <time>2021-01-23T11:42:23Z</time>
      </trkpt>
      <trkpt lat="43.60886" lon="3.86746">
        <ele>33</ele>
        <time>2021-01-23T11:42:24Z</time>
      </trkpt>
      <trkpt lat="43.60888" lon="3.86741">
        <ele>33</ele>
        <time>2021-01-23T11:42:25Z</time>
      </trkpt>
      <trkpt lat="43.6089" lon="3.86736">
        <ele>41</ele>
        <time>2021-01-23T11:42:26Z</time>
      </trkpt>
      <trkpt lat="43.60892" lon="3.86731">
        <ele>33</ele>
        <time>2021-01-23T11:42:27Z</time>
      </trkpt>
      <trkpt lat="43.60893" lon="3.86727">
        <ele>33</ele>
        <time>2021-01-23T11:42:28Z</time>
      </trkpt>
      <trkpt lat="43.60895" lon="3.86722">
        <ele>33</ele>
        <time>2021-01-23T11:42:29Z</time>
      </trkpt>
      <trkpt lat="43.60896" lon="3.86717">
        <ele>33</ele>
        <time>2021-01-23T11:42:30Z</time>
      </trkpt>
      <trkpt lat="43.60898" lon="3.86713">
        <ele>33.1</ele>
        <time>2021-01-23T11:42:31Z</time>
      </trkpt>
      <trkpt lat="43.609" lon="3.86709">
        <ele>33.2</ele>
        <time>2021-01-23T11:42:32Z</time>
      </trkpt>
      <trkpt lat="43.60902" lon="3.86705">
        <ele>33.3</ele>
        <time>2021-01-23T11:42:33Z</time>
      </trkpt>
      <trkpt lat="43.60904" lon="3.86701">
        <ele>33.4</ele>
        <time>2021-01-23T11:42:34Z</time>
      </trkpt>
      <trkpt lat="43.60906" lon="3.86698">
        <ele>33.5</ele>
        <time>2021-01-23T11:42:35Z</time>
      </trkpt>
      <trkpt lat="43.60908" lon="3.86696">
        <ele>40</ele>
        <time>2021-01-23T11:42:36Z</time>
      </trkpt>
      <trkpt lat="43.6091" lon="3.86693">
        <ele>33.8</ele>
        <time>2021-01-23T11:42:37Z</time>
      </trkpt>
      <trkpt lat="43.60912" lon="3.86689">
        <ele>33.9</ele>
        <time>2021-01-23T11:42:39Z</time>
      </trkpt>
      <trkpt lat="43.60912" lon="3.86686">
        <ele>33.9</ele>
        <time>2021-01-23T11:42:40Z</time>
      </trkpt>
      <trkpt lat="43.60912" lon="3.86682">
        <ele>33.9</ele>
        <time>2021-01-23T11:42:41Z</time>
      </trkpt>
      <trkpt lat="43.60911" lon="3.86677">
        <ele>33.9</ele>
        <time>2021-01-23T11:42:42Z</time>
      </trkpt>
      <trkpt lat="43.60911" lon="3.86673">
        <ele>34</ele>
        <time>2021-01-23T11:42:43Z</time>
      </trkpt>
      <trkpt lat="43.6091" lon="3.86668">
        <ele>34</ele>
        <time>2021-01-23T11:42:44Z</time>
      </trkpt>
      <trkpt lat="43.6091" lon="3.86664">
        <ele>34</ele>
        <time>2021-01-23T11:42:45Z</time>
      </trkpt>
      <trkpt lat="43.60911" lon="3.86659">
        <ele>41</ele>
        <time>2021-01-23T11:42:46Z</time>
      </trkpt>
      <trkpt lat="43.60913" lon="3.86655">
        <ele>34.1</ele>
        <time>2021-01-23T11:42:47Z</time>
      </trkpt>
      <trkpt lat="43.60915" lon="3.8665">
        <ele>34</ele>
        <time>2021-01-23T11:42:48Z</time>
      </trkpt>
      <trkpt lat="43.60916" lon="3.86645">
        <ele>34</ele>
        <time>2021-01-23T11:42:49Z</time>
      </trkpt>
      <trkpt lat="43.60916" lon="3.8664">
        <ele>34</ele>
        <time>2021-01-23T11:42:50Z</time>
      </trkpt>
      <trkpt lat="43.60916" lon="3.86636">
        <ele>34.1</ele>
        <time>2021-01-23T11:42:51Z</time>
      </trkpt>
      <trkpt lat="43.60917" lon="3.86632">
        <ele>34.3</ele>
        <time>2021-01-23T11:42:52Z</time>
      </trkpt>
      <trkpt lat="43.60918" lon="3.86628">
        <ele>34.4</ele>
        <time>2021-01-23T11:42:53Z</time>
      </trkpt>
      <trkpt lat="43.60918" lon="3.86624">
        <ele>34.6</ele>
        <time>2021-01-23T11:42:54Z</time>
      </trkpt>
      <trkpt lat="43.60921" lon="3.8661">
        <ele>35</ele>
        <time>2021-01-23T11:42:57Z</time>
      </trkpt>
      <trkpt lat="43.60923" lon="3.86605">
        <ele>35</ele>
        <time>2021-01-23T11:42:58Z</time>
      </trkpt>
      <trkpt lat="43.60923" lon="3.86599">
        <ele>35</ele>
        <time>2021-01-23T11:42:59Z</time>
      </trkpt>
      <trkpt lat="43.60925" lon="3.86594">
        <ele>35</ele>
        <time>2021-01-23T11:43:00Z</time>
      </trkpt>
      <trkpt lat="43.60925" lon="3.86589">
        <ele>35</ele>
        <time>2021-01-23T11:43:01Z</time>
      </trkpt>
      <trkpt lat="43.60926" lon="3.86584">
        <ele>35</ele>
        <time>2021-01-23T11:43:02Z</time>
      </trkpt>
      <trkpt lat="43.60929" lon="3.8658">
        <ele>35.1</ele>
        <time>2021-01-23T11:43:03Z</time>
      </trkpt>
      <trkpt lat="43.6093" lon="3.86575">
        <ele>35.3</ele>
        <time>2021-01-23T11:43:04Z</time>
      </trkpt>
      <trkpt lat="43.60933" lon="3.8657">
        <ele>35.5</ele>
        <time>2021-01-23T11:43:05Z</time>
      </trkpt>
      <trkpt lat="43.60935" lon="3.86565">
        <ele>40</ele>
        <time>2021-01-23T11:43:06Z</time>
      </trkpt>
      <trkpt lat="43.60937" lon="3.8656">
        <ele>35.8</ele>
        <time>2021-01-23T11:43:07Z</time>
      </trkpt>
      <trkpt lat="43.60938" lon="3.86555">
        <ele>36</ele>
        <time>2021-01-23T11:43:08Z</time>
      </trkpt>
      <trkpt lat="43.60939" lon="3.86551">
        <ele>36</ele>
        <time>2021-01-23T11:43:09Z</time>
      </trkpt>
      <trkpt lat="43.6094" lon="3.86546">
        <ele>36</ele>
        <time>2021-01-23T11:43:10Z</time>
      </trkpt>
      <trkpt lat="43.60941" lon="3.86541">
        <ele>36</ele>
        <time>2021-01-23T11:43:11Z</time>
      </trkpt>
      <trkpt lat="43.60942" lon="3.86537">
        <ele>36</ele>
        <time>2021-01-23T11:43:12Z</time>
      </trkpt>
      <trkpt lat="43.60943" lon="3.86532">
        <ele>36</ele>
        <time>2021-01-23T11:43:13Z</time>
      </trkpt>
      <trkpt lat="43.60944" lon="3.86528">
        <ele>36</ele>
        <time>2021-01-23T11:43:14Z</time>
      </trkpt>
      <trkpt lat="43.60945" lon="3.86523">
        <ele>36.2</ele>
        <time>2021-01-23T11:43:15Z</time>
      </trkpt>
      <trkpt lat="43.60946" lon="3.86518">
        <ele>40</ele>
        <time>2021-01-23T11:43:16Z</time>
      </trkpt>
      <trkpt lat="43.60947" lon="3.86513">
        <ele>36.6</ele>
        <time>2021-01-23T11:43:17Z</time>
      </trkpt>
      <trkpt lat="43.60948" lon="3.86509">
        <ele>36.7</ele>
        <time>2021-01-23T11:43:18Z</time>
      </trkpt>
      <trkpt lat="43.60949" lon="3.86504">
        <ele>36.9</ele>
        <time>2021-01-23T11:43:19Z</time>
      </trkpt>
      <trkpt lat="43.60949" lon="3.865">
        <ele>37</ele>
        <time>2021-01-23T11:43:20Z</time>
      </trkpt>
      <trkpt lat="43.6095" lon="3.86496">
        <ele>37</ele>
        <time>2021-01-23T11:43:21Z</time>
      </trkpt>
      <trkpt lat="43.60951" lon="3.86492">
        <ele>37.1</ele>
        <time>2021-01-23T11:43:22Z</time>
      </trkpt>
      <trkpt lat="43.60952" lon="3.86487">
        <ele>37.1</ele>
        <time>2021-01-23T11:43:23Z</time>
      </trkpt>
      <trkpt lat="43.60953" lon="3.86484">
        <ele>37.2</ele>
        <time>2021-01-23T11:43:24Z</time>
      </trkpt>
      <trkpt lat="43.60953" lon="3.8648">
        <ele>37.2</ele>
        <time>2021-01-23T11:43:25Z</time>
      </trkpt>
      <trkpt lat="43.60954" lon="3.86476">
        <ele>41</ele>
        <time>2021-01-23T11:43:26Z</time>
      </trkpt>
      <trkpt lat="43.60955" lon="3.86472">
        <ele>37.4</ele>
        <time>2021-01-23T11:43:27Z</time>
      </trkpt>
      <trkpt lat="43.60955" lon="3.86469">
        <ele>37.4</ele>
        <time>2021-01-23T11:43:28Z</time>
      </trkpt>
      <trkpt lat="43.60956" lon="3.86466">
        <ele>37.4</ele>
        <time>2021-01-23T11:43:29Z</time>
      </trkpt>
      <trkpt lat="43.60957" lon="3.86463">
        <ele>37.5</ele>
        <time>2021-01-23T11:43:31Z</time>
      </trkpt>
      <trkpt lat="43.60958" lon="3.86458">
        <ele>37.5</ele>
        <time>2021-01-23T11:43:33Z</time>
      </trkpt>
      <trkpt lat="43.60959" lon="3.86455">
        <ele>37.5</ele>
        <time>2021-01-23T11:43:34Z</time>
      </trkpt>
      <trkpt lat="43.60959" lon="3.86452">
        <ele>37.5</ele>
        <time>2021-01-23T11:43:35Z</time>
      </trkpt>
      <trkpt lat="43.60959" lon="3.86448">
        <ele>43</ele>
        <time>2021-01-23T11:43:36Z</time>
      </trkpt>
      <trkpt lat="43.6096" lon="3.86445">
        <ele>37.6</ele>
        <time>2021-01-23T11:43:37Z</time>
      </trkpt>
      <trkpt lat="43.6096" lon="3.86441">
        <ele>37.7</ele>
        <time>2021-01-23T11:43:38Z</time>
      </trkpt>
      <trkpt lat="43.60961" lon="3.86438">
        <ele>37.8</ele>
        <time>2021-01-23T11:43:39Z</time>
      </trkpt>
      <trkpt lat="43.60962" lon="3.86434">
        <ele>38</ele>
        <time>2021-01-23T11:43:40Z</time>
      </trkpt>
      <trkpt lat="43.60962" lon="3.8643">
        <ele>38.2</ele>
        <time>2021-01-23T11:43:41Z</time>
      </trkpt>
      <trkpt lat="43.60963" lon="3.86427">
        <ele>38.3</ele>
        <time>2021-01-23T11:43:42Z</time>
      </trkpt>
      <trkpt lat="43.60964" lon="3.86423">
        <ele>38.5</ele>
        <time>2021-01-23T11:43:43Z</time>
      </trkpt>
      <trkpt lat="43.60965" lon="3.86419">
        <ele>38.7</ele>
        <time>2021-01-23T11:43:44Z</time>
      </trkpt>
      <trkpt lat="43.60965" lon="3.86416">
        <ele>38.8</ele>
        <time>2021-01-23T11:43:45Z</time>
      </trkpt>
      <trkpt lat="43.60966" lon="3.86412">
        <ele>45</ele>
        <time>2021-01-23T11:43:46Z</time>
      </trkpt>
      <trkpt lat="43.60966" lon="3.86408">
        <ele>39</ele>
        <time>2021-01-23T11:43:47Z</time>
      </trkpt>
      <trkpt lat="43.60967" lon="3.86405">
        <ele>39.2</ele>
        <time>2021-01-23T11:43:48Z</time>
      </trkpt>
      <trkpt lat="43.60967" lon="3.86401">
        <ele>39.3</ele>
        <time>2021-01-23T11:43:49Z</time>
      </trkpt>
      <trkpt lat="43.60968" lon="3.86398">
        <ele>39.4</ele>
        <time>2021-01-23T11:43:50Z</time>
      </trkpt>
      <trkpt lat="43.60968" lon="3.86394">
        <ele>39.5</ele>
        <time>2021-01-23T11:43:51Z</time>
      </trkpt>
      <trkpt lat="43.60969" lon="3.86391">
        <ele>39.7</ele>
        <time>2021-01-23T11:43:52Z</time>
      </trkpt>
      <trkpt lat="43.60969" lon="3.86388">
        <ele>39.8</ele>
        <time>2021-01-23T11:43:53Z</time>
      </trkpt>
      <trkpt lat="43.6097" lon="3.86385">
        <ele>39.8</ele>
        <time>2021-01-23T11:43:54Z</time>
      </trkpt>
      <trkpt lat="43.6097" lon="3.86382">
        <ele>39.8</ele>
        <time>2021-01-23T11:43:55Z</time>
      </trkpt>
      <trkpt lat="43.60971" lon="3.86379">
        <ele>46</ele>
        <time>2021-01-23T11:43:56Z</time>
      </trkpt>
      <trkpt lat="43.60971" lon="3.86376">
        <ele>39.9</ele>
        <time>2021-01-23T11:43:57Z</time>
      </trkpt>
      <trkpt lat="43.60971" lon="3.86372">
        <ele>39.9</ele>
        <time>2021-01-23T11:43:58Z</time>
      </trkpt>
      <trkpt lat="43.60972" lon="3.86369">
        <ele>40</ele>
        <time>2021-01-23T11:43:59Z</time>
      </trkpt>
      <trkpt lat="43.60972" lon="3.86365">
        <ele>40</ele>
        <time>2021-01-23T11:44:00Z</time>
      </trkpt>
      <trkpt lat="43.60972" lon="3.86362">
        <ele>40</ele>
        <time>2021-01-23T11:44:01Z</time>
      </trkpt>
      <trkpt lat="43.60973" lon="3.86358">
        <ele>40.1</ele>
        <time>2021-01-23T11:44:02Z</time>
      </trkpt>
      <trkpt lat="43.60974" lon="3.86354">
        <ele>40.3</ele>
        <time>2021-01-23T11:44:03Z</time>
      </trkpt>
      <trkpt lat="43.60974" lon="3.8635">
        <ele>40.4</ele>
        <time>2021-01-23T11:44:04Z</time>
      </trkpt>
      <trkpt lat="43.60974" lon="3.86346">
        <ele>40.5</ele>
        <time>2021-01-23T11:44:05Z</time>
      </trkpt>
      <trkpt lat="43.60974" lon="3.86342">
        <ele>47</ele>
        <time>2021-01-23T11:44:06Z</time>
      </trkpt>
      <trkpt lat="43.60974" lon="3.86338">
        <ele>40.8</ele>
        <time>2021-01-23T11:44:07Z</time>
      </trkpt>
      <trkpt lat="43.60975" lon="3.86335">
        <ele>40.9</ele>
        <time>2021-01-23T11:44:08Z</time>
      </trkpt>
      <trkpt lat="43.60975" lon="3.86331">
        <ele>41.2</ele>
        <time>2021-01-23T11:44:09Z</time>
      </trkpt>
      <trkpt lat="43.60977" lon="3.86328">
        <ele>41.4</ele>
        <time>2021-01-23T11:44:10Z</time>
      </trkpt>
      <trkpt lat="43.60978" lon="3.86325">
        <ele>41.6</ele>
        <time>2021-01-23T11:44:11Z</time>
      </trkpt>
      <trkpt lat="43.60979" lon="3.86321">
        <ele>41.9</ele>
        <time>2021-01-23T11:44:12Z</time>
      </trkpt>
      <trkpt lat="43.60981" lon="3.86318">
        <ele>42.1</ele>
        <time>2021-01-23T11:44:13Z</time>
      </trkpt>
      <trkpt lat="43.60981" lon="3.86314">
        <ele>42.4</ele>
        <time>2021-01-23T11:44:14Z</time>
      </trkpt>
      <trkpt lat="43.60982" lon="3.86311">
        <ele>42.6</ele>
        <time>2021-01-23T11:44:15Z</time>
      </trkpt>
      <trkpt lat="43.60982" lon="3.86308">
        <ele>48</ele>
        <time>2021-01-23T11:44:16Z</time>
      </trkpt>
      <trkpt lat="43.60982" lon="3.86304">
        <ele>43.1</ele>
        <time>2021-01-23T11:44:17Z</time>
      </trkpt>
      <trkpt lat="43.60982" lon="3.863">
        <ele>43.3</ele>
        <time>2021-01-23T11:44:18Z</time>
      </trkpt>
      <trkpt lat="43.60983" lon="3.86297">
        <ele>43.4</ele>
        <time>2021-01-23T11:44:19Z</time>
      </trkpt>
      <trkpt lat="43.60983" lon="3.86294">
        <ele>43.6</ele>
        <time>2021-01-23T11:44:20Z</time>
      </trkpt>
      <trkpt lat="43.60984" lon="3.8629">
        <ele>43.8</ele>
        <time>2021-01-23T11:44:21Z</time>
      </trkpt>
      <trkpt lat="43.60984" lon="3.86287">
        <ele>44</ele>
        <time>2021-01-23T11:44:22Z</time>
      </trkpt>
      <trkpt lat="43.60985" lon="3.86283">
        <ele>44.2</ele>
        <time>2021-01-23T11:44:23Z</time>
      </trkpt>
      <trkpt lat="43.60985" lon="3.8628">
        <ele>44.3</ele>
        <time>2021-01-23T11:44:24Z</time>
      </trkpt>
      <trkpt lat="43.60985" lon="3.86276">
        <ele>44.5</ele>
        <time>2021-01-23T11:44:25Z</time>
      </trkpt>
      <trkpt lat="43.60986" lon="3.86273">
        <ele>49</ele>
        <time>2021-01-23T11:44:26Z</time>
      </trkpt>
      <trkpt lat="43.60987" lon="3.86266">
        <ele>44.7</ele>
        <time>2021-01-23T11:44:27Z</time>
      </trkpt>
      <trkpt lat="43.60988" lon="3.86263">
        <ele>44.7</ele>
        <time>2021-01-23T11:44:28Z</time>
      </trkpt>
      <trkpt lat="43.60988" lon="3.8626">
        <ele>44.8</ele>
        <time>2021-01-23T11:44:29Z</time>
      </trkpt>
      <trkpt lat="43.60989" lon="3.86257">
        <ele>44.7</ele>
        <time>2021-01-23T11:44:30Z</time>
      </trkpt>
      <trkpt lat="43.60989" lon="3.86253">
        <ele>44.8</ele>
        <time>2021-01-23T11:44:31Z</time>
      </trkpt>
      <trkpt lat="43.6099" lon="3.8625">
        <ele>44.7</ele>
        <time>2021-01-23T11:44:32Z</time>
      </trkpt>
      <trkpt lat="43.6099" lon="3.86247">
        <ele>44.9</ele>
        <time>2021-01-23T11:44:33Z</time>
      </trkpt>
      <trkpt lat="43.60991" lon="3.86244">
        <ele>44.9</ele>
        <time>2021-01-23T11:44:34Z</time>
      </trkpt>
      <trkpt lat="43.60991" lon="3.8624">
        <ele>45.1</ele>
        <time>2021-01-23T11:44:35Z</time>
      </trkpt>
      <trkpt lat="43.60991" lon="3.86237">
        <ele>45.3</ele>
        <time>2021-01-23T11:44:37Z</time>
      </trkpt>
      <trkpt lat="43.60992" lon="3.86234">
        <ele>45.4</ele>
        <time>2021-01-23T11:44:38Z</time>
      </trkpt>
      <trkpt lat="43.60992" lon="3.8623">
        <ele>45.6</ele>
        <time>2021-01-23T11:44:39Z</time>
      </trkpt>
      <trkpt lat="43.60992" lon="3.86227">
        <ele>45.8</ele>
        <time>2021-01-23T11:44:40Z</time>
      </trkpt>
      <trkpt lat="43.60992" lon="3.86224">
        <ele>45.9</ele>
        <time>2021-01-23T11:44:41Z</time>
      </trkpt>
      <trkpt lat="43.60991" lon="3.8622">
        <ele>46.1</ele>
        <time>2021-01-23T11:44:42Z</time>
      </trkpt>
      <trkpt lat="43.60991" lon="3.86217">
        <ele>46.3</ele>
        <time>2021-01-23T11:44:43Z</time>
      </trkpt>
      <trkpt lat="43.60991" lon="3.86214">
        <ele>46.5</ele>
        <time>2021-01-23T11:44:44Z</time>
      </trkpt>
      <trkpt lat="43.60991" lon="3.86211">
        <ele>46.7</ele>
        <time>2021-01-23T11:44:45Z</time>
      </trkpt>
      <trkpt lat="43.60992" lon="3.86208">
        <ele>52</ele>
        <time>2021-01-23T11:44:46Z</time>
      </trkpt>
      <trkpt lat="43.60992" lon="3.86204">
        <ele>47</ele>
        <time>2021-01-23T11:44:47Z</time>
      </trkpt>
      <trkpt lat="43.60993" lon="3.86201">
        <ele>47.1</ele>
        <time>2021-01-23T11:44:48Z</time>
      </trkpt>
      <trkpt lat="43.60994" lon="3.86198">
        <ele>47.2</ele>
        <time>2021-01-23T11:44:49Z</time>
      </trkpt>
      <trkpt lat="43.60994" lon="3.86195">
        <ele>47.4</ele>
        <time>2021-01-23T11:44:50Z</time>
      </trkpt>
      <trkpt lat="43.60995" lon="3.86192">
        <ele>47.5</ele>
        <time>2021-01-23T11:44:51Z</time>
      </trkpt>
      <trkpt lat="43.60995" lon="3.86188">
        <ele>47.6</ele>
        <time>2021-01-23T11:44:52Z</time>
      </trkpt>
      <trkpt lat="43.60995" lon="3.86185">
        <ele>47.8</ele>
        <time>2021-01-23T11:44:53Z</time>
      </trkpt>
      <trkpt lat="43.60996" lon="3.86182">
        <ele>47.8</ele>
        <time>2021-01-23T11:44:54Z</time>
      </trkpt>
      <trkpt lat="43.60996" lon="3.86178">
        <ele>48</ele>
        <time>2021-01-23T11:44:55Z</time>
      </trkpt>
      <trkpt lat="43.60997" lon="3.86175">
        <ele>51</ele>
        <time>2021-01-23T11:44:56Z</time>
      </trkpt>
      <trkpt lat="43.60997" lon="3.86172">
        <ele>48.1</ele>
        <time>2021-01-23T11:44:57Z</time>
      </trkpt>
      <trkpt lat="43.60998" lon="3.86169">
        <ele>48.1</ele>
        <time>2021-01-23T11:44:58Z</time>
      </trkpt>
      <trkpt lat="43.60998" lon="3.86165">
        <ele>48.3</ele>
        <time>2021-01-23T11:44:59Z</time>
      </trkpt>
      <trkpt lat="43.60999" lon="3.86162">
        <ele>48.3</ele>
        <time>2021-01-23T11:45:00Z</time>
      </trkpt>
      <trkpt lat="43.60999" lon="3.86159">
        <ele>48.4</ele>
        <time>2021-01-23T11:45:01Z</time>
      </trkpt>
      <trkpt lat="43.61" lon="3.86156">
        <ele>48.4</ele>
        <time>2021-01-23T11:45:02Z</time>
      </trkpt>
      <trkpt lat="43.61" lon="3.86152">
        <ele>48.5</ele>
        <time>2021-01-23T11:45:03Z</time>
      </trkpt>
      <trkpt lat="43.61001" lon="3.86149">
        <ele>48.6</ele>
        <time>2021-01-23T11:45:04Z</time>
      </trkpt>
      <trkpt lat="43.61002" lon="3.86146">
        <ele>48.7</ele>
        <time>2021-01-23T11:45:05Z</time>
      </trkpt>
      <trkpt lat="43.61002" lon="3.86142">
        <ele>52</ele>
        <time>2021-01-23T11:45:06Z</time>
      </trkpt>
      <trkpt lat="43.61003" lon="3.86139">
        <ele>49</ele>
        <time>2021-01-23T11:45:07Z</time>
      </trkpt>
      <trkpt lat="43.61003" lon="3.86136">
        <ele>49.1</ele>
        <time>2021-01-23T11:45:08Z</time>
      </trkpt>
      <trkpt lat="43.61004" lon="3.86133">
        <ele>49.2</ele>
        <time>2021-01-23T11:45:09Z</time>
      </trkpt>
      <trkpt lat="43.61004" lon="3.8613">
        <ele>49.4</ele>
        <time>2021-01-23T11:45:10Z</time>
      </trkpt>
      <trkpt lat="43.61005" lon="3.86127">
        <ele>49.5</ele>
        <time>2021-01-23T11:45:11Z</time>
      </trkpt>
      <trkpt lat="43.61006" lon="3.86124">
        <ele>49.7</ele>
        <time>2021-01-23T11:45:12Z</time>
      </trkpt>
      <trkpt lat="43.61006" lon="3.86121">
        <ele>49.8</ele>
        <time>2021-01-23T11:45:13Z</time>
      </trkpt>
      <trkpt lat="43.61007" lon="3.86118">
        <ele>49.9</ele>
        <time>2021-01-23T11:45:14Z</time>
      </trkpt>
      <trkpt lat="43.61008" lon="3.86114">
        <ele>50.2</ele>
        <time>2021-01-23T11:45:15Z</time>
      </trkpt>
      <trkpt lat="43.61008" lon="3.86111">
        <ele>53</ele>
        <time>2021-01-23T11:45:16Z</time>
      </trkpt>
      <trkpt lat="43.61008" lon="3.86108">
        <ele>50.6</ele>
        <time>2021-01-23T11:45:17Z</time>
      </trkpt>
      <trkpt lat="43.61008" lon="3.86104">
        <ele>51.1</ele>
        <time>2021-01-23T11:45:18Z</time>
      </trkpt>
      <trkpt lat="43.61008" lon="3.86101">
        <ele>51.4</ele>
        <time>2021-01-23T11:45:19Z</time>
      </trkpt>
      <trkpt lat="43.61009" lon="3.86098">
        <ele>51.7</ele>
        <time>2021-01-23T11:45:20Z</time>
      </trkpt>
      <trkpt lat="43.61009" lon="3.86095">
        <ele>52.1</ele>
        <time>2021-01-23T11:45:21Z</time>
      </trkpt>
      <trkpt lat="43.61009" lon="3.86091">
        <ele>52.5</ele>
        <time>2021-01-23T11:45:22Z</time>
      </trkpt>
      <trkpt lat="43.6101" lon="3.86088">
        <ele>52.9</ele>
        <time>2021-01-23T11:45:23Z</time>
      </trkpt>
      <trkpt lat="43.6101" lon="3.86084">
        <ele>53.3</ele>
        <time>2021-01-23T11:45:24Z</time>
      </trkpt>
      <trkpt lat="43.6101" lon="3.86081">
        <ele>53.5</ele>
        <time>2021-01-23T11:45:25Z</time>
      </trkpt>
      <trkpt lat="43.61011" lon="3.86078">
        <ele>54</ele>
        <time>2021-01-23T11:45:26Z</time>
      </trkpt>
      <trkpt lat="43.61011" lon="3.86075">
        <ele>53.9</ele>
        <time>2021-01-23T11:45:27Z</time>
      </trkpt>
      <trkpt lat="43.61012" lon="3.86071">
        <ele>54.1</ele>
        <time>2021-01-23T11:45:28Z</time>
      </trkpt>
      <trkpt lat="43.61012" lon="3.86068">
        <ele>54.3</ele>
        <time>2021-01-23T11:45:29Z</time>
      </trkpt>
      <trkpt lat="43.61013" lon="3.86065">
        <ele>54.5</ele>
        <time>2021-01-23T11:45:30Z</time>
      </trkpt>
      <trkpt lat="43.61014" lon="3.86061">
        <ele>54.7</ele>
        <time>2021-01-23T11:45:31Z</time>
      </trkpt>
      <trkpt lat="43.61014" lon="3.86058">
        <ele>54.9</ele>
        <time>2021-01-23T11:45:32Z</time>
      </trkpt>
      <trkpt lat="43.61015" lon="3.86055">
        <ele>55</ele>
        <time>2021-01-23T11:45:33Z</time>
      </trkpt>
      <trkpt lat="43.61015" lon="3.86051">
        <ele>54.9</ele>
        <time>2021-01-23T11:45:34Z</time>
      </trkpt>
      <trkpt lat="43.61015" lon="3.86048">
        <ele>54.9</ele>
        <time>2021-01-23T11:45:35Z</time>
      </trkpt>
      <trkpt lat="43.61016" lon="3.86045">
        <ele>56</ele>
        <time>2021-01-23T11:45:36Z</time>
      </trkpt>
      <trkpt lat="43.61016" lon="3.86042">
        <ele>54.7</ele>
        <time>2021-01-23T11:45:37Z</time>
      </trkpt>
      <trkpt lat="43.61017" lon="3.86039">
        <ele>54.6</ele>
        <time>2021-01-23T11:45:38Z</time>
      </trkpt>
      <trkpt lat="43.61017" lon="3.86036">
        <ele>54.6</ele>
        <time>2021-01-23T11:45:39Z</time>
      </trkpt>
      <trkpt lat="43.61017" lon="3.86032">
        <ele>54.5</ele>
        <time>2021-01-23T11:45:40Z</time>
      </trkpt>
      <trkpt lat="43.61018" lon="3.86029">
        <ele>54.4</ele>
        <time>2021-01-23T11:45:41Z</time>
      </trkpt>
      <trkpt lat="43.61018" lon="3.86026">
        <ele>54.5</ele>
        <time>2021-01-23T11:45:42Z</time>
      </trkpt>
      <trkpt lat="43.61018" lon="3.86023">
        <ele>54.9</ele>
        <time>2021-01-23T11:45:43Z</time>
      </trkpt>
      <trkpt lat="43.61019" lon="3.8602">
        <ele>55.2</ele>
        <time>2021-01-23T11:45:44Z</time>
      </trkpt>
      <trkpt lat="43.61019" lon="3.86017">
        <ele>55.5</ele>
        <time>2021-01-23T11:45:45Z</time>
      </trkpt>
      <trkpt lat="43.61019" lon="3.86013">
        <ele>57</ele>
        <time>2021-01-23T11:45:46Z</time>
      </trkpt>
      <trkpt lat="43.6102" lon="3.8601">
        <ele>56.2</ele>
        <time>2021-01-23T11:45:47Z</time>
      </trkpt>
      <trkpt lat="43.6102" lon="3.86007">
        <ele>56.5</ele>
        <time>2021-01-23T11:45:48Z</time>
      </trkpt>
      <trkpt lat="43.6102" lon="3.86003">
        <ele>57</ele>
        <time>2021-01-23T11:45:49Z</time>
      </trkpt>
      <trkpt lat="43.6102" lon="3.86">
        <ele>57.3</ele>
        <time>2021-01-23T11:45:50Z</time>
      </trkpt>
      <trkpt lat="43.61021" lon="3.85997">
        <ele>57.2</ele>
        <time>2021-01-23T11:45:51Z</time>
      </trkpt>
      <trkpt lat="43.61021" lon="3.85993">
        <ele>57.2</ele>
        <time>2021-01-23T11:45:52Z</time>
      </trkpt>
      <trkpt lat="43.61022" lon="3.85989">
        <ele>57.2</ele>
        <time>2021-01-23T11:45:53Z</time>
      </trkpt>
      <trkpt lat="43.61022" lon="3.85986">
        <ele>57.2</ele>
        <time>2021-01-23T11:45:54Z</time>
      </trkpt>
      <trkpt lat="43.61023" lon="3.85982">
        <ele>57.2</ele>
        <time>2021-01-23T11:45:55Z</time>
      </trkpt>
      <trkpt lat="43.61023" lon="3.85979">
        <ele>58</ele>
        <time>2021-01-23T11:45:56Z</time>
      </trkpt>
      <trkpt lat="43.61024" lon="3.85972">
        <ele>57.1</ele>
        <time>2021-01-23T11:45:57Z</time>
      </trkpt>
      <trkpt lat="43.61025" lon="3.85969">
        <ele>57.1</ele>
        <time>2021-01-23T11:45:58Z</time>
      </trkpt>
      <trkpt lat="43.61026" lon="3.85966">
        <ele>57.1</ele>
        <time>2021-01-23T11:45:59Z</time>
      </trkpt>
      <trkpt lat="43.61026" lon="3.85962">
        <ele>57.1</ele>
        <time>2021-01-23T11:46:00Z</time>
      </trkpt>
      <trkpt lat="43.61027" lon="3.85959">
        <ele>57</ele>
        <time>2021-01-23T11:46:01Z</time>
      </trkpt>
      <trkpt lat="43.61027" lon="3.85955">
        <ele>57</ele>
        <time>2021-01-23T11:46:02Z</time>
      </trkpt>
      <trkpt lat="43.61028" lon="3.85952">
        <ele>57</ele>
        <time>2021-01-23T11:46:03Z</time>
      </trkpt>
      <trkpt lat="43.61028" lon="3.85949">
        <ele>57</ele>
        <time>2021-01-23T11:46:04Z</time>
      </trkpt>
      <trkpt lat="43.61029" lon="3.85946">
        <ele>57.1</ele>
        <time>2021-01-23T11:46:05Z</time>
      </trkpt>
      <trkpt lat="43.6103" lon="3.85942">
        <ele>57.2</ele>
        <time>2021-01-23T11:46:07Z</time>
      </trkpt>
      <trkpt lat="43.6103" lon="3.85939">
        <ele>57.2</ele>
        <time>2021-01-23T11:46:08Z</time>
      </trkpt>
      <trkpt lat="43.61031" lon="3.85936">
        <ele>57.3</ele>
        <time>2021-01-23T11:46:09Z</time>
      </trkpt>
      <trkpt lat="43.61031" lon="3.85933">
        <ele>57.3</ele>
        <time>2021-01-23T11:46:10Z</time>
      </trkpt>
      <trkpt lat="43.61032" lon="3.85929">
        <ele>57.5</ele>
        <time>2021-01-23T11:46:11Z</time>
      </trkpt>
      <trkpt lat="43.61032" lon="3.85926">
        <ele>57.5</ele>
        <time>2021-01-23T11:46:12Z</time>
      </trkpt>
      <trkpt lat="43.61033" lon="3.85923">
        <ele>57.6</ele>
        <time>2021-01-23T11:46:13Z</time>
      </trkpt>
      <trkpt lat="43.61034" lon="3.8592">
        <ele>57.7</ele>
        <time>2021-01-23T11:46:14Z</time>
      </trkpt>
      <trkpt lat="43.61034" lon="3.85916">
        <ele>57.7</ele>
        <time>2021-01-23T11:46:15Z</time>
      </trkpt>
      <trkpt lat="43.61035" lon="3.85913">
        <ele>62</ele>
        <time>2021-01-23T11:46:16Z</time>
      </trkpt>
      <trkpt lat="43.61035" lon="3.85909">
        <ele>58.2</ele>
        <time>2021-01-23T11:46:17Z</time>
      </trkpt>
      <trkpt lat="43.61036" lon="3.85906">
        <ele>58.4</ele>
        <time>2021-01-23T11:46:18Z</time>
      </trkpt>
      <trkpt lat="43.61037" lon="3.85903">
        <ele>58.7</ele>
        <time>2021-01-23T11:46:19Z</time>
      </trkpt>
      <trkpt lat="43.61037" lon="3.85899">
        <ele>58.8</ele>
        <time>2021-01-23T11:46:20Z</time>
      </trkpt>
      <trkpt lat="43.61038" lon="3.85896">
        <ele>59</ele>
        <time>2021-01-23T11:46:21Z</time>
      </trkpt>
      <trkpt lat="43.61039" lon="3.85892">
        <ele>59.3</ele>
        <time>2021-01-23T11:46:22Z</time>
      </trkpt>
      <trkpt lat="43.6104" lon="3.85888">
        <ele>59.4</ele>
        <time>2021-01-23T11:46:23Z</time>
      </trkpt>
      <trkpt lat="43.6104" lon="3.85884">
        <ele>59.4</ele>
        <time>2021-01-23T11:46:24Z</time>
      </trkpt>
      <trkpt lat="43.61041" lon="3.85881">
        <ele>59.3</ele>
        <time>2021-01-23T11:46:25Z</time>
      </trkpt>
      <trkpt lat="43.61042" lon="3.85877">
        <ele>62</ele>
        <time>2021-01-23T11:46:26Z</time>
      </trkpt>
      <trkpt lat="43.61043" lon="3.85873">
        <ele>59.2</ele>
        <time>2021-01-23T11:46:27Z</time>
      </trkpt>
      <trkpt lat="43.61044" lon="3.85869">
        <ele>59.2</ele>
        <time>2021-01-23T11:46:28Z</time>
      </trkpt>
      <trkpt lat="43.61045" lon="3.85865">
        <ele>59.1</ele>
        <time>2021-01-23T11:46:29Z</time>
      </trkpt>
      <trkpt lat="43.61045" lon="3.85861">
        <ele>59</ele>
        <time>2021-01-23T11:46:30Z</time>
      </trkpt>
      <trkpt lat="43.61046" lon="3.85857">
        <ele>59.1</ele>
        <time>2021-01-23T11:46:31Z</time>
      </trkpt>
      <trkpt lat="43.61047" lon="3.85853">
        <ele>59.3</ele>
        <time>2021-01-23T11:46:32Z</time>
      </trkpt>
      <trkpt lat="43.61048" lon="3.8585">
        <ele>59.4</ele>
        <time>2021-01-23T11:46:33Z</time>
      </trkpt>
      <trkpt lat="43.61049" lon="3.85846">
        <ele>59.5</ele>
        <time>2021-01-23T11:46:34Z</time>
      </trkpt>
      <trkpt lat="43.6105" lon="3.85843">
        <ele>59.7</ele>
        <time>2021-01-23T11:46:35Z</time>
      </trkpt>
      <trkpt lat="43.6105" lon="3.85839">
        <ele>63</ele>
        <time>2021-01-23T11:46:36Z</time>
      </trkpt>
      <trkpt lat="43.61049" lon="3.85835">
        <ele>59.9</ele>
        <time>2021-01-23T11:46:37Z</time>
      </trkpt>
      <trkpt lat="43.61048" lon="3.85831">
        <ele>60.1</ele>
        <time>2021-01-23T11:46:38Z</time>
      </trkpt>
      <trkpt lat="43.61047" lon="3.85827">
        <ele>60.2</ele>
        <time>2021-01-23T11:46:39Z</time>
      </trkpt>
      <trkpt lat="43.61047" lon="3.85823">
        <ele>60.4</ele>
        <time>2021-01-23T11:46:40Z</time>
      </trkpt>
      <trkpt lat="43.61047" lon="3.85819">
        <ele>60.5</ele>
        <time>2021-01-23T11:46:41Z</time>
      </trkpt>
      <trkpt lat="43.61047" lon="3.85815">
        <ele>60.7</ele>
        <time>2021-01-23T11:46:42Z</time>
      </trkpt>
      <trkpt lat="43.61047" lon="3.85812">
        <ele>60.8</ele>
        <time>2021-01-23T11:46:43Z</time>
      </trkpt>
      <trkpt lat="43.61048" lon="3.85808">
        <ele>60.9</ele>
        <time>2021-01-23T11:46:44Z</time>
      </trkpt>
      <trkpt lat="43.61048" lon="3.85804">
        <ele>61</ele>
        <time>2021-01-23T11:46:45Z</time>
      </trkpt>
      <trkpt lat="43.61048" lon="3.858">
        <ele>64</ele>
        <time>2021-01-23T11:46:46Z</time>
      </trkpt>
      <trkpt lat="43.61048" lon="3.85796">
        <ele>61</ele>
        <time>2021-01-23T11:46:47Z</time>
      </trkpt>
      <trkpt lat="43.61049" lon="3.85792">
        <ele>61</ele>
        <time>2021-01-23T11:46:48Z</time>
      </trkpt>
      <trkpt lat="43.61049" lon="3.85788">
        <ele>61</ele>
        <time>2021-01-23T11:46:49Z</time>
      </trkpt>
      <trkpt lat="43.6105" lon="3.85784">
        <ele>61</ele>
        <time>2021-01-23T11:46:50Z</time>
      </trkpt>
      <trkpt lat="43.6105" lon="3.8578">
        <ele>61</ele>
        <time>2021-01-23T11:46:51Z</time>
      </trkpt>
      <trkpt lat="43.6105" lon="3.85775">
        <ele>60.9</ele>
        <time>2021-01-23T11:46:52Z</time>
      </trkpt>
      <trkpt lat="43.6105" lon="3.85771">
        <ele>60.9</ele>
        <time>2021-01-23T11:46:53Z</time>
      </trkpt>
      <trkpt lat="43.6105" lon="3.85766">
        <ele>60.7</ele>
        <time>2021-01-23T11:46:54Z</time>
      </trkpt>
      <trkpt lat="43.6105" lon="3.85762">
        <ele>60.7</ele>
        <time>2021-01-23T11:46:55Z</time>
      </trkpt>
      <trkpt lat="43.6105" lon="3.85757">
        <ele>65</ele>
        <time>2021-01-23T11:46:56Z</time>
      </trkpt>
      <trkpt lat="43.6105" lon="3.85752">
        <ele>60.4</ele>
        <time>2021-01-23T11:46:57Z</time>
      </trkpt>
      <trkpt lat="43.61049" lon="3.85747">
        <ele>60.4</ele>
        <time>2021-01-23T11:46:58Z</time>
      </trkpt>
      <trkpt lat="43.61049" lon="3.85742">
        <ele>60.4</ele>
        <time>2021-01-23T11:46:59Z</time>
      </trkpt>
      <trkpt lat="43.61049" lon="3.85737">
        <ele>60.4</ele>
        <time>2021-01-23T11:47:00Z</time>
      </trkpt>
      <trkpt lat="43.61048" lon="3.85732">
        <ele>60.4</ele>
        <time>2021-01-23T11:47:01Z</time>
      </trkpt>
      <trkpt lat="43.61048" lon="3.85727">
        <ele>60.3</ele>
        <time>2021-01-23T11:47:02Z</time>
      </trkpt>
      <trkpt lat="43.61047" lon="3.85723">
        <ele>60.3</ele>
        <time>2021-01-23T11:47:03Z</time>
      </trkpt>
      <trkpt lat="43.61047" lon="3.85718">
        <ele>60.5</ele>
        <time>2021-01-23T11:47:04Z</time>
      </trkpt>
      <trkpt lat="43.61046" lon="3.85713">
        <ele>60.8</ele>
        <time>2021-01-23T11:47:05Z</time>
      </trkpt>
      <trkpt lat="43.61046" lon="3.85707">
        <ele>66</ele>
        <time>2021-01-23T11:47:06Z</time>
      </trkpt>
      <trkpt lat="43.61046" lon="3.85702">
        <ele>61.3</ele>
        <time>2021-01-23T11:47:07Z</time>
      </trkpt>
      <trkpt lat="43.61046" lon="3.85697">
        <ele>61.5</ele>
        <time>2021-01-23T11:47:08Z</time>
      </trkpt>
      <trkpt lat="43.61045" lon="3.85692">
        <ele>61.5</ele>
        <time>2021-01-23T11:47:09Z</time>
      </trkpt>
      <trkpt lat="43.61045" lon="3.85686">
        <ele>61.2</ele>
        <time>2021-01-23T11:47:10Z</time>
      </trkpt>
      <trkpt lat="43.61044" lon="3.85681">
        <ele>60.9</ele>
        <time>2021-01-23T11:47:11Z</time>
      </trkpt>
      <trkpt lat="43.61043" lon="3.85675">
        <ele>60.7</ele>
        <time>2021-01-23T11:47:12Z</time>
      </trkpt>
      <trkpt lat="43.61043" lon="3.8567">
        <ele>60.5</ele>
        <time>2021-01-23T11:47:13Z</time>
      </trkpt>
      <trkpt lat="43.61042" lon="3.85664">
        <ele>60.4</ele>
        <time>2021-01-23T11:47:14Z</time>
      </trkpt>
      <trkpt lat="43.61042" lon="3.85658">
        <ele>60.3</ele>
        <time>2021-01-23T11:47:15Z</time>
      </trkpt>
      <trkpt lat="43.61042" lon="3.85652">
        <ele>67</ele>
        <time>2021-01-23T11:47:16Z</time>
      </trkpt>
      <trkpt lat="43.61041" lon="3.85647">
        <ele>60.2</ele>
        <time>2021-01-23T11:47:17Z</time>
      </trkpt>
      <trkpt lat="43.6104" lon="3.85641">
        <ele>60.3</ele>
        <time>2021-01-23T11:47:18Z</time>
      </trkpt>
      <trkpt lat="43.6104" lon="3.85636">
        <ele>60.1</ele>
        <time>2021-01-23T11:47:19Z</time>
      </trkpt>
      <trkpt lat="43.61039" lon="3.8563">
        <ele>60</ele>
        <time>2021-01-23T11:47:20Z</time>
      </trkpt>
      <trkpt lat="43.61038" lon="3.85625">
        <ele>59.9</ele>
        <time>2021-01-23T11:47:21Z</time>
      </trkpt>
      <trkpt lat="43.61037" lon="3.85619">
        <ele>59.7</ele>
        <time>2021-01-23T11:47:22Z</time>
      </trkpt>
      <trkpt lat="43.61037" lon="3.85613">
        <ele>59.4</ele>
        <time>2021-01-23T11:47:23Z</time>
      </trkpt>
      <trkpt lat="43.61036" lon="3.85608">
        <ele>59.4</ele>
        <time>2021-01-23T11:47:24Z</time>
      </trkpt>
      <trkpt lat="43.61035" lon="3.85602">
        <ele>59.5</ele>
        <time>2021-01-23T11:47:25Z</time>
      </trkpt>
      <trkpt lat="43.61034" lon="3.85597">
        <ele>67</ele>
        <time>2021-01-23T11:47:26Z</time>
      </trkpt>
      <trkpt lat="43.61033" lon="3.85591">
        <ele>59.6</ele>
        <time>2021-01-23T11:47:27Z</time>
      </trkpt>
      <trkpt lat="43.61032" lon="3.85586">
        <ele>59.7</ele>
        <time>2021-01-23T11:47:28Z</time>
      </trkpt>
      <trkpt lat="43.61031" lon="3.85581">
        <ele>59.7</ele>
        <time>2021-01-23T11:47:29Z</time>
      </trkpt>
      <trkpt lat="43.61031" lon="3.85575">
        <ele>59.7</ele>
        <time>2021-01-23T11:47:30Z</time>
      </trkpt>
      <trkpt lat="43.6103" lon="3.8557">
        <ele>59.8</ele>
        <time>2021-01-23T11:47:31Z</time>
      </trkpt>
      <trkpt lat="43.61029" lon="3.85565">
        <ele>59.9</ele>
        <time>2021-01-23T11:47:32Z</time>
      </trkpt>
      <trkpt lat="43.61029" lon="3.8556">
        <ele>59.8</ele>
        <time>2021-01-23T11:47:33Z</time>
      </trkpt>
      <trkpt lat="43.61028" lon="3.85555">
        <ele>60</ele>
        <time>2021-01-23T11:47:34Z</time>
      </trkpt>
      <trkpt lat="43.61027" lon="3.8555">
        <ele>60.1</ele>
        <time>2021-01-23T11:47:35Z</time>
      </trkpt>
      <trkpt lat="43.61027" lon="3.85545">
        <ele>67</ele>
        <time>2021-01-23T11:47:36Z</time>
      </trkpt>
      <trkpt lat="43.61026" lon="3.85535">
        <ele>60.2</ele>
        <time>2021-01-23T11:47:37Z</time>
      </trkpt>
      <trkpt lat="43.61025" lon="3.8553">
        <ele>60.3</ele>
        <time>2021-01-23T11:47:38Z</time>
      </trkpt>
      <trkpt lat="43.61024" lon="3.8552">
        <ele>60.4</ele>
        <time>2021-01-23T11:47:40Z</time>
      </trkpt>
      <trkpt lat="43.61023" lon="3.85515">
        <ele>60.6</ele>
        <time>2021-01-23T11:47:41Z</time>
      </trkpt>
      <trkpt lat="43.61022" lon="3.8551">
        <ele>60.8</ele>
        <time>2021-01-23T11:47:42Z</time>
      </trkpt>
      <trkpt lat="43.61021" lon="3.85501">
        <ele>61</ele>
        <time>2021-01-23T11:47:44Z</time>
      </trkpt>
      <trkpt lat="43.6102" lon="3.85496">
        <ele>61.2</ele>
        <time>2021-01-23T11:47:45Z</time>
      </trkpt>
      <trkpt lat="43.6102" lon="3.85491">
        <ele>61.4</ele>
        <time>2021-01-23T11:47:47Z</time>
      </trkpt>
      <trkpt lat="43.61019" lon="3.85486">
        <ele>61.6</ele>
        <time>2021-01-23T11:47:48Z</time>
      </trkpt>
      <trkpt lat="43.61019" lon="3.85481">
        <ele>61.7</ele>
        <time>2021-01-23T11:47:49Z</time>
      </trkpt>
      <trkpt lat="43.61018" lon="3.85476">
        <ele>62</ele>
        <time>2021-01-23T11:47:50Z</time>
      </trkpt>
      <trkpt lat="43.61018" lon="3.8547">
        <ele>62.1</ele>
        <time>2021-01-23T11:47:51Z</time>
      </trkpt>
      <trkpt lat="43.61017" lon="3.85465">
        <ele>62.2</ele>
        <time>2021-01-23T11:47:52Z</time>
      </trkpt>
      <trkpt lat="43.61017" lon="3.8546">
        <ele>62.2</ele>
        <time>2021-01-23T11:47:53Z</time>
      </trkpt>
      <trkpt lat="43.61016" lon="3.85455">
        <ele>62.3</ele>
        <time>2021-01-23T11:47:54Z</time>
      </trkpt>
      <trkpt lat="43.61015" lon="3.8545">
        <ele>62.4</ele>
        <time>2021-01-23T11:47:55Z</time>
      </trkpt>
      <trkpt lat="43.61015" lon="3.85445">
        <ele>68</ele>
        <time>2021-01-23T11:47:56Z</time>
      </trkpt>
      <trkpt lat="43.61014" lon="3.8544">
        <ele>62.5</ele>
        <time>2021-01-23T11:47:57Z</time>
      </trkpt>
      <trkpt lat="43.61013" lon="3.85434">
        <ele>62.6</ele>
        <time>2021-01-23T11:47:58Z</time>
      </trkpt>
      <trkpt lat="43.61013" lon="3.85429">
        <ele>62.6</ele>
        <time>2021-01-23T11:47:59Z</time>
      </trkpt>
      <trkpt lat="43.61012" lon="3.85424">
        <ele>62.7</ele>
        <time>2021-01-23T11:48:00Z</time>
      </trkpt>
      <trkpt lat="43.61012" lon="3.85419">
        <ele>62.7</ele>
        <time>2021-01-23T11:48:01Z</time>
      </trkpt>
      <trkpt lat="43.61011" lon="3.85414">
        <ele>62.9</ele>
        <time>2021-01-23T11:48:02Z</time>
      </trkpt>
      <trkpt lat="43.61011" lon="3.85409">
        <ele>62.9</ele>
        <time>2021-01-23T11:48:03Z</time>
      </trkpt>
      <trkpt lat="43.61011" lon="3.85404">
        <ele>63</ele>
        <time>2021-01-23T11:48:04Z</time>
      </trkpt>
      <trkpt lat="43.6101" lon="3.85399">
        <ele>63.1</ele>
        <time>2021-01-23T11:48:05Z</time>
      </trkpt>
      <trkpt lat="43.6101" lon="3.85394">
        <ele>69</ele>
        <time>2021-01-23T11:48:06Z</time>
      </trkpt>
      <trkpt lat="43.6101" lon="3.8539">
        <ele>63.3</ele>
        <time>2021-01-23T11:48:07Z</time>
      </trkpt>
      <trkpt lat="43.6101" lon="3.85385">
        <ele>63.2</ele>
        <time>2021-01-23T11:48:08Z</time>
      </trkpt>
      <trkpt lat="43.6101" lon="3.8538">
        <ele>63.1</ele>
        <time>2021-01-23T11:48:09Z</time>
      </trkpt>
      <trkpt lat="43.6101" lon="3.85375">
        <ele>63</ele>
        <time>2021-01-23T11:48:10Z</time>
      </trkpt>
      <trkpt lat="43.6101" lon="3.85371">
        <ele>62.9</ele>
        <time>2021-01-23T11:48:11Z</time>
      </trkpt>
      <trkpt lat="43.6101" lon="3.85367">
        <ele>62.8</ele>
        <time>2021-01-23T11:48:12Z</time>
      </trkpt>
      <trkpt lat="43.6101" lon="3.85362">
        <ele>62.7</ele>
        <time>2021-01-23T11:48:13Z</time>
      </trkpt>
      <trkpt lat="43.6101" lon="3.85358">
        <ele>62.7</ele>
        <time>2021-01-23T11:48:14Z</time>
      </trkpt>
      <trkpt lat="43.6101" lon="3.85354">
        <ele>62.8</ele>
        <time>2021-01-23T11:48:15Z</time>
      </trkpt>
      <trkpt lat="43.6101" lon="3.8535">
        <ele>69</ele>
        <time>2021-01-23T11:48:16Z</time>
      </trkpt>
      <trkpt lat="43.6101" lon="3.85347">
        <ele>63</ele>
        <time>2021-01-23T11:48:17Z</time>
      </trkpt>
      <trkpt lat="43.6101" lon="3.85343">
        <ele>63.1</ele>
        <time>2021-01-23T11:48:18Z</time>
      </trkpt>
      <trkpt lat="43.6101" lon="3.8534">
        <ele>63.1</ele>
        <time>2021-01-23T11:48:19Z</time>
      </trkpt>
      <trkpt lat="43.6101" lon="3.85337">
        <ele>63.2</ele>
        <time>2021-01-23T11:48:20Z</time>
      </trkpt>
      <trkpt lat="43.6101" lon="3.85333">
        <ele>63.3</ele>
        <time>2021-01-23T11:48:22Z</time>
      </trkpt>
      <trkpt lat="43.6101" lon="3.85329">
        <ele>63.4</ele>
        <time>2021-01-23T11:48:24Z</time>
      </trkpt>
      <trkpt lat="43.6101" lon="3.85326">
        <ele>63.4</ele>
        <time>2021-01-23T11:48:25Z</time>
      </trkpt>
      <trkpt lat="43.61009" lon="3.85323">
        <ele>69</ele>
        <time>2021-01-23T11:48:26Z</time>
      </trkpt>
      <trkpt lat="43.61009" lon="3.85319">
        <ele>63.7</ele>
        <time>2021-01-23T11:48:27Z</time>
      </trkpt>
      <trkpt lat="43.6101" lon="3.85315">
        <ele>63.7</ele>
        <time>2021-01-23T11:48:28Z</time>
      </trkpt>
      <trkpt lat="43.61011" lon="3.85311">
        <ele>63.7</ele>
        <time>2021-01-23T11:48:29Z</time>
      </trkpt>
      <trkpt lat="43.61011" lon="3.85307">
        <ele>63.8</ele>
        <time>2021-01-23T11:48:30Z</time>
      </trkpt>
      <trkpt lat="43.61011" lon="3.85303">
        <ele>63.8</ele>
        <time>2021-01-23T11:48:31Z</time>
      </trkpt>
      <trkpt lat="43.61012" lon="3.85298">
        <ele>63.7</ele>
        <time>2021-01-23T11:48:32Z</time>
      </trkpt>
      <trkpt lat="43.61012" lon="3.85294">
        <ele>63.7</ele>
        <time>2021-01-23T11:48:33Z</time>
      </trkpt>
      <trkpt lat="43.61012" lon="3.85289">
        <ele>63.7</ele>
        <time>2021-01-23T11:48:34Z</time>
      </trkpt>
      <trkpt lat="43.61013" lon="3.85285">
        <ele>63.6</ele>
        <time>2021-01-23T11:48:35Z</time>
      </trkpt>
      <trkpt lat="43.61013" lon="3.8528">
        <ele>69</ele>
        <time>2021-01-23T11:48:36Z</time>
      </trkpt>
      <trkpt lat="43.61013" lon="3.85275">
        <ele>63.6</ele>
        <time>2021-01-23T11:48:37Z</time>
      </trkpt>
      <trkpt lat="43.61013" lon="3.85271">
        <ele>63.7</ele>
        <time>2021-01-23T11:48:38Z</time>
      </trkpt>
      <trkpt lat="43.61013" lon="3.85266">
        <ele>63.8</ele>
        <time>2021-01-23T11:48:39Z</time>
      </trkpt>
      <trkpt lat="43.61013" lon="3.85261">
        <ele>63.9</ele>
        <time>2021-01-23T11:48:40Z</time>
      </trkpt>
      <trkpt lat="43.61013" lon="3.85257">
        <ele>63.9</ele>
        <time>2021-01-23T11:48:41Z</time>
      </trkpt>
      <trkpt lat="43.61013" lon="3.85252">
        <ele>64</ele>
        <time>2021-01-23T11:48:42Z</time>
      </trkpt>
      <trkpt lat="43.61014" lon="3.85247">
        <ele>64</ele>
        <time>2021-01-23T11:48:43Z</time>
      </trkpt>
      <trkpt lat="43.61014" lon="3.85243">
        <ele>64</ele>
        <time>2021-01-23T11:48:44Z</time>
      </trkpt>
      <trkpt lat="43.61014" lon="3.85238">
        <ele>64</ele>
        <time>2021-01-23T11:48:45Z</time>
      </trkpt>
      <trkpt lat="43.61014" lon="3.85234">
        <ele>69</ele>
        <time>2021-01-23T11:48:46Z</time>
      </trkpt>
      <trkpt lat="43.61015" lon="3.85229">
        <ele>64</ele>
        <time>2021-01-23T11:48:47Z</time>
      </trkpt>
      <trkpt lat="43.61015" lon="3.85225">
        <ele>64</ele>
        <time>2021-01-23T11:48:48Z</time>
      </trkpt>
      <trkpt lat="43.61016" lon="3.8522">
        <ele>64.1</ele>
        <time>2021-01-23T11:48:49Z</time>
      </trkpt>
      <trkpt lat="43.61016" lon="3.85216">
        <ele>64.2</ele>
        <time>2021-01-23T11:48:50Z</time>
      </trkpt>
      <trkpt lat="43.61017" lon="3.85211">
        <ele>64.3</ele>
        <time>2021-01-23T11:48:51Z</time>
      </trkpt>
      <trkpt lat="43.61017" lon="3.85207">
        <ele>64.4</ele>
        <time>2021-01-23T11:48:52Z</time>
      </trkpt>
      <trkpt lat="43.61017" lon="3.85202">
        <ele>64.6</ele>
        <time>2021-01-23T11:48:53Z</time>
      </trkpt>
      <trkpt lat="43.61018" lon="3.85197">
        <ele>64.6</ele>
        <time>2021-01-23T11:48:54Z</time>
      </trkpt>
      <trkpt lat="43.61018" lon="3.85192">
        <ele>64.7</ele>
        <time>2021-01-23T11:48:55Z</time>
      </trkpt>
      <trkpt lat="43.61019" lon="3.85184">
        <ele>70</ele>
        <time>2021-01-23T11:48:56Z</time>
      </trkpt>
      <trkpt lat="43.6102" lon="3.85179">
        <ele>64.6</ele>
        <time>2021-01-23T11:48:57Z</time>
      </trkpt>
      <trkpt lat="43.6102" lon="3.85175">
        <ele>64.6</ele>
        <time>2021-01-23T11:48:58Z</time>
      </trkpt>
      <trkpt lat="43.61021" lon="3.8517">
        <ele>64.5</ele>
        <time>2021-01-23T11:48:59Z</time>
      </trkpt>
      <trkpt lat="43.61021" lon="3.85165">
        <ele>64.5</ele>
        <time>2021-01-23T11:49:00Z</time>
      </trkpt>
      <trkpt lat="43.61022" lon="3.8516">
        <ele>64.4</ele>
        <time>2021-01-23T11:49:01Z</time>
      </trkpt>
      <trkpt lat="43.61022" lon="3.85156">
        <ele>64.3</ele>
        <time>2021-01-23T11:49:02Z</time>
      </trkpt>
      <trkpt lat="43.61022" lon="3.85151">
        <ele>64.3</ele>
        <time>2021-01-23T11:49:03Z</time>
      </trkpt>
      <trkpt lat="43.61023" lon="3.85143">
        <ele>64.2</ele>
        <time>2021-01-23T11:49:05Z</time>
      </trkpt>
      <trkpt lat="43.61022" lon="3.85138">
        <ele>64.2</ele>
        <time>2021-01-23T11:49:07Z</time>
      </trkpt>
      <trkpt lat="43.61023" lon="3.85134">
        <ele>64.2</ele>
        <time>2021-01-23T11:49:08Z</time>
      </trkpt>
      <trkpt lat="43.61023" lon="3.85129">
        <ele>64.2</ele>
        <time>2021-01-23T11:49:09Z</time>
      </trkpt>
      <trkpt lat="43.61024" lon="3.85124">
        <ele>64.1</ele>
        <time>2021-01-23T11:49:10Z</time>
      </trkpt>
      <trkpt lat="43.61024" lon="3.8512">
        <ele>64.1</ele>
        <time>2021-01-23T11:49:11Z</time>
      </trkpt>
      <trkpt lat="43.61025" lon="3.85115">
        <ele>64.1</ele>
        <time>2021-01-23T11:49:12Z</time>
      </trkpt>
      <trkpt lat="43.61026" lon="3.8511">
        <ele>64.1</ele>
        <time>2021-01-23T11:49:13Z</time>
      </trkpt>
      <trkpt lat="43.61027" lon="3.85106">
        <ele>64.2</ele>
        <time>2021-01-23T11:49:14Z</time>
      </trkpt>
      <trkpt lat="43.61028" lon="3.85102">
        <ele>64.3</ele>
        <time>2021-01-23T11:49:15Z</time>
      </trkpt>
      <trkpt lat="43.61029" lon="3.85099">
        <ele>73</ele>
        <time>2021-01-23T11:49:16Z</time>
      </trkpt>
      <trkpt lat="43.61029" lon="3.85096">
        <ele>64.6</ele>
        <time>2021-01-23T11:49:17Z</time>
      </trkpt>
      <trkpt lat="43.61029" lon="3.85093">
        <ele>64.7</ele>
        <time>2021-01-23T11:49:18Z</time>
      </trkpt>
      <trkpt lat="43.61029" lon="3.85089">
        <ele>64.8</ele>
        <time>2021-01-23T11:49:19Z</time>
      </trkpt>
      <trkpt lat="43.6103" lon="3.85086">
        <ele>65</ele>
        <time>2021-01-23T11:49:20Z</time>
      </trkpt>
      <trkpt lat="43.61031" lon="3.85082">
        <ele>65.2</ele>
        <time>2021-01-23T11:49:21Z</time>
      </trkpt>
      <trkpt lat="43.61032" lon="3.85077">
        <ele>65.3</ele>
        <time>2021-01-23T11:49:22Z</time>
      </trkpt>
      <trkpt lat="43.61032" lon="3.85073">
        <ele>65.4</ele>
        <time>2021-01-23T11:49:23Z</time>
      </trkpt>
      <trkpt lat="43.61033" lon="3.85068">
        <ele>65.5</ele>
        <time>2021-01-23T11:49:24Z</time>
      </trkpt>
      <trkpt lat="43.61033" lon="3.85064">
        <ele>65.6</ele>
        <time>2021-01-23T11:49:25Z</time>
      </trkpt>
      <trkpt lat="43.61034" lon="3.85059">
        <ele>73</ele>
        <time>2021-01-23T11:49:26Z</time>
      </trkpt>
      <trkpt lat="43.61034" lon="3.85054">
        <ele>65.8</ele>
        <time>2021-01-23T11:49:27Z</time>
      </trkpt>
      <trkpt lat="43.61035" lon="3.85049">
        <ele>65.7</ele>
        <time>2021-01-23T11:49:28Z</time>
      </trkpt>
      <trkpt lat="43.61035" lon="3.85045">
        <ele>65.7</ele>
        <time>2021-01-23T11:49:29Z</time>
      </trkpt>
      <trkpt lat="43.61036" lon="3.8504">
        <ele>65.7</ele>
        <time>2021-01-23T11:49:30Z</time>
      </trkpt>
      <trkpt lat="43.61037" lon="3.85035">
        <ele>65.7</ele>
        <time>2021-01-23T11:49:31Z</time>
      </trkpt>
      <trkpt lat="43.61037" lon="3.85031">
        <ele>65.7</ele>
        <time>2021-01-23T11:49:32Z</time>
      </trkpt>
      <trkpt lat="43.61038" lon="3.85026">
        <ele>65.7</ele>
        <time>2021-01-23T11:49:33Z</time>
      </trkpt>
      <trkpt lat="43.61038" lon="3.85021">
        <ele>65.8</ele>
        <time>2021-01-23T11:49:34Z</time>
      </trkpt>
      <trkpt lat="43.61039" lon="3.85017">
        <ele>65.8</ele>
        <time>2021-01-23T11:49:35Z</time>
      </trkpt>
      <trkpt lat="43.61039" lon="3.85012">
        <ele>72</ele>
        <time>2021-01-23T11:49:36Z</time>
      </trkpt>
      <trkpt lat="43.6104" lon="3.85008">
        <ele>66</ele>
        <time>2021-01-23T11:49:37Z</time>
      </trkpt>
      <trkpt lat="43.61041" lon="3.85003">
        <ele>66</ele>
        <time>2021-01-23T11:49:38Z</time>
      </trkpt>
      <trkpt lat="43.61042" lon="3.84999">
        <ele>66</ele>
        <time>2021-01-23T11:49:39Z</time>
      </trkpt>
      <trkpt lat="43.61043" lon="3.84994">
        <ele>65.9</ele>
        <time>2021-01-23T11:49:40Z</time>
      </trkpt>
      <trkpt lat="43.61044" lon="3.8499">
        <ele>65.9</ele>
        <time>2021-01-23T11:49:41Z</time>
      </trkpt>
      <trkpt lat="43.61044" lon="3.84986">
        <ele>65.9</ele>
        <time>2021-01-23T11:49:42Z</time>
      </trkpt>
      <trkpt lat="43.61045" lon="3.84982">
        <ele>65.9</ele>
        <time>2021-01-23T11:49:43Z</time>
      </trkpt>
      <trkpt lat="43.61045" lon="3.84977">
        <ele>66</ele>
        <time>2021-01-23T11:49:44Z</time>
      </trkpt>
      <trkpt lat="43.61044" lon="3.84974">
        <ele>66</ele>
        <time>2021-01-23T11:49:45Z</time>
      </trkpt>
      <trkpt lat="43.61042" lon="3.8497">
        <ele>71</ele>
        <time>2021-01-23T11:49:46Z</time>
      </trkpt>
      <trkpt lat="43.6104" lon="3.84968">
        <ele>66</ele>
        <time>2021-01-23T11:49:47Z</time>
      </trkpt>
      <trkpt lat="43.61037" lon="3.84965">
        <ele>66</ele>
        <time>2021-01-23T11:49:48Z</time>
      </trkpt>
      <trkpt lat="43.61033" lon="3.84963">
        <ele>66</ele>
        <time>2021-01-23T11:49:49Z</time>
      </trkpt>
      <trkpt lat="43.6103" lon="3.84961">
        <ele>66</ele>
        <time>2021-01-23T11:49:50Z</time>
      </trkpt>
      <trkpt lat="43.61027" lon="3.84959">
        <ele>66</ele>
        <time>2021-01-23T11:49:51Z</time>
      </trkpt>
      <trkpt lat="43.61023" lon="3.84956">
        <ele>66.1</ele>
        <time>2021-01-23T11:49:52Z</time>
      </trkpt>
      <trkpt lat="43.6102" lon="3.84954">
        <ele>66.1</ele>
        <time>2021-01-23T11:49:53Z</time>
      </trkpt>
      <trkpt lat="43.61017" lon="3.84952">
        <ele>66.1</ele>
        <time>2021-01-23T11:49:54Z</time>
      </trkpt>
      <trkpt lat="43.61014" lon="3.84949">
        <ele>66.1</ele>
        <time>2021-01-23T11:49:55Z</time>
      </trkpt>
      <trkpt lat="43.61011" lon="3.84947">
        <ele>69</ele>
        <time>2021-01-23T11:49:56Z</time>
      </trkpt>
      <trkpt lat="43.61008" lon="3.84945">
        <ele>66</ele>
        <time>2021-01-23T11:49:57Z</time>
      </trkpt>
      <trkpt lat="43.61005" lon="3.84943">
        <ele>66.1</ele>
        <time>2021-01-23T11:49:58Z</time>
      </trkpt>
      <trkpt lat="43.61002" lon="3.84941">
        <ele>66.1</ele>
        <time>2021-01-23T11:49:59Z</time>
      </trkpt>
      <trkpt lat="43.60999" lon="3.84938">
        <ele>66.3</ele>
        <time>2021-01-23T11:50:00Z</time>
      </trkpt>
      <trkpt lat="43.60997" lon="3.84936">
        <ele>66.5</ele>
        <time>2021-01-23T11:50:01Z</time>
      </trkpt>
      <trkpt lat="43.60994" lon="3.84935">
        <ele>66.6</ele>
        <time>2021-01-23T11:50:02Z</time>
      </trkpt>
      <trkpt lat="43.6099" lon="3.84933">
        <ele>66.8</ele>
        <time>2021-01-23T11:50:03Z</time>
      </trkpt>
      <trkpt lat="43.60987" lon="3.84931">
        <ele>67</ele>
        <time>2021-01-23T11:50:04Z</time>
      </trkpt>
      <trkpt lat="43.60984" lon="3.8493">
        <ele>67.1</ele>
        <time>2021-01-23T11:50:05Z</time>
      </trkpt>
      <trkpt lat="43.60981" lon="3.84929">
        <ele>69</ele>
        <time>2021-01-23T11:50:06Z</time>
      </trkpt>
      <trkpt lat="43.60978" lon="3.84927">
        <ele>67.2</ele>
        <time>2021-01-23T11:50:07Z</time>
      </trkpt>
      <trkpt lat="43.60975" lon="3.84925">
        <ele>67.2</ele>
        <time>2021-01-23T11:50:08Z</time>
      </trkpt>
      <trkpt lat="43.60973" lon="3.84923">
        <ele>67.2</ele>
        <time>2021-01-23T11:50:09Z</time>
      </trkpt>
      <trkpt lat="43.6097" lon="3.8492">
        <ele>67.2</ele>
        <time>2021-01-23T11:50:10Z</time>
      </trkpt>
      <trkpt lat="43.60968" lon="3.84917">
        <ele>67.2</ele>
        <time>2021-01-23T11:50:11Z</time>
      </trkpt>
      <trkpt lat="43.60965" lon="3.84913">
        <ele>67.4</ele>
        <time>2021-01-23T11:50:12Z</time>
      </trkpt>
      <trkpt lat="43.60963" lon="3.8491">
        <ele>67.5</ele>
        <time>2021-01-23T11:50:13Z</time>
      </trkpt>
      <trkpt lat="43.6096" lon="3.84907">
        <ele>67.6</ele>
        <time>2021-01-23T11:50:14Z</time>
      </trkpt>
      <trkpt lat="43.60958" lon="3.84903">
        <ele>67.8</ele>
        <time>2021-01-23T11:50:15Z</time>
      </trkpt>
      <trkpt lat="43.60956" lon="3.84899">
        <ele>69</ele>
        <time>2021-01-23T11:50:16Z</time>
      </trkpt>
      <trkpt lat="43.60954" lon="3.84894">
        <ele>67.9</ele>
        <time>2021-01-23T11:50:17Z</time>
      </trkpt>
      <trkpt lat="43.60952" lon="3.8489">
        <ele>68</ele>
        <time>2021-01-23T11:50:18Z</time>
      </trkpt>
      <trkpt lat="43.60951" lon="3.84886">
        <ele>67.9</ele>
        <time>2021-01-23T11:50:19Z</time>
      </trkpt>
      <trkpt lat="43.6095" lon="3.84881">
        <ele>67.8</ele>
        <time>2021-01-23T11:50:20Z</time>
      </trkpt>
      <trkpt lat="43.60948" lon="3.84877">
        <ele>67.6</ele>
        <time>2021-01-23T11:50:21Z</time>
      </trkpt>
      <trkpt lat="43.60947" lon="3.84873">
        <ele>67.5</ele>
        <time>2021-01-23T11:50:22Z</time>
      </trkpt>
      <trkpt lat="43.60945" lon="3.84869">
        <ele>67.3</ele>
        <time>2021-01-23T11:50:23Z</time>
      </trkpt>
      <trkpt lat="43.60943" lon="3.84865">
        <ele>67.1</ele>
        <time>2021-01-23T11:50:24Z</time>
      </trkpt>
      <trkpt lat="43.60941" lon="3.84861">
        <ele>67</ele>
        <time>2021-01-23T11:50:25Z</time>
      </trkpt>
      <trkpt lat="43.6094" lon="3.84857">
        <ele>70</ele>
        <time>2021-01-23T11:50:26Z</time>
      </trkpt>
      <trkpt lat="43.60938" lon="3.84853">
        <ele>67.1</ele>
        <time>2021-01-23T11:50:27Z</time>
      </trkpt>
      <trkpt lat="43.60936" lon="3.84849">
        <ele>67.1</ele>
        <time>2021-01-23T11:50:28Z</time>
      </trkpt>
      <trkpt lat="43.60934" lon="3.84845">
        <ele>67.2</ele>
        <time>2021-01-23T11:50:29Z</time>
      </trkpt>
      <trkpt lat="43.60931" lon="3.84841">
        <ele>67.4</ele>
        <time>2021-01-23T11:50:30Z</time>
      </trkpt>
      <trkpt lat="43.60929" lon="3.84837">
        <ele>67.5</ele>
        <time>2021-01-23T11:50:31Z</time>
      </trkpt>
      <trkpt lat="43.60927" lon="3.84833">
        <ele>67.6</ele>
        <time>2021-01-23T11:50:32Z</time>
      </trkpt>
      <trkpt lat="43.60925" lon="3.8483">
        <ele>67.6</ele>
        <time>2021-01-23T11:50:33Z</time>
      </trkpt>
      <trkpt lat="43.60923" lon="3.84826">
        <ele>67.6</ele>
        <time>2021-01-23T11:50:34Z</time>
      </trkpt>
      <trkpt lat="43.6092" lon="3.84822">
        <ele>67.5</ele>
        <time>2021-01-23T11:50:35Z</time>
      </trkpt>
      <trkpt lat="43.60918" lon="3.84819">
        <ele>70</ele>
        <time>2021-01-23T11:50:36Z</time>
      </trkpt>
      <trkpt lat="43.60916" lon="3.84815">
        <ele>67.4</ele>
        <time>2021-01-23T11:50:37Z</time>
      </trkpt>
      <trkpt lat="43.60914" lon="3.84812">
        <ele>67.3</ele>
        <time>2021-01-23T11:50:38Z</time>
      </trkpt>
      <trkpt lat="43.60912" lon="3.84808">
        <ele>67.2</ele>
        <time>2021-01-23T11:50:39Z</time>
      </trkpt>
      <trkpt lat="43.60909" lon="3.84805">
        <ele>67.3</ele>
        <time>2021-01-23T11:50:40Z</time>
      </trkpt>
      <trkpt lat="43.60907" lon="3.84801">
        <ele>67.4</ele>
        <time>2021-01-23T11:50:41Z</time>
      </trkpt>
      <trkpt lat="43.60905" lon="3.84798">
        <ele>67.5</ele>
        <time>2021-01-23T11:50:42Z</time>
      </trkpt>
      <trkpt lat="43.60902" lon="3.84794">
        <ele>67.5</ele>
        <time>2021-01-23T11:50:43Z</time>
      </trkpt>
      <trkpt lat="43.609" lon="3.8479">
        <ele>67.5</ele>
        <time>2021-01-23T11:50:44Z</time>
      </trkpt>
      <trkpt lat="43.60899" lon="3.84786">
        <ele>67.4</ele>
        <time>2021-01-23T11:50:45Z</time>
      </trkpt>
      <trkpt lat="43.60897" lon="3.84778">
        <ele>71</ele>
        <time>2021-01-23T11:50:46Z</time>
      </trkpt>
      <trkpt lat="43.60896" lon="3.84774">
        <ele>67.3</ele>
        <time>2021-01-23T11:50:47Z</time>
      </trkpt>
      <trkpt lat="43.60896" lon="3.84769">
        <ele>67.3</ele>
        <time>2021-01-23T11:50:48Z</time>
      </trkpt>
      <trkpt lat="43.60895" lon="3.84765">
        <ele>67.2</ele>
        <time>2021-01-23T11:50:49Z</time>
      </trkpt>
      <trkpt lat="43.60894" lon="3.84761">
        <ele>67.2</ele>
        <time>2021-01-23T11:50:50Z</time>
      </trkpt>
      <trkpt lat="43.60892" lon="3.84757">
        <ele>67.1</ele>
        <time>2021-01-23T11:50:51Z</time>
      </trkpt>
      <trkpt lat="43.6089" lon="3.84754">
        <ele>67</ele>
        <time>2021-01-23T11:50:52Z</time>
      </trkpt>
      <trkpt lat="43.60888" lon="3.8475">
        <ele>67</ele>
        <time>2021-01-23T11:50:53Z</time>
      </trkpt>
      <trkpt lat="43.60888" lon="3.84745">
        <ele>67</ele>
        <time>2021-01-23T11:50:54Z</time>
      </trkpt>
      <trkpt lat="43.60888" lon="3.8474">
        <ele>67</ele>
        <time>2021-01-23T11:50:55Z</time>
      </trkpt>
      <trkpt lat="43.60888" lon="3.84734">
        <ele>67</ele>
        <time>2021-01-23T11:50:57Z</time>
      </trkpt>
      <trkpt lat="43.60888" lon="3.84729">
        <ele>67</ele>
        <time>2021-01-23T11:50:58Z</time>
      </trkpt>
      <trkpt lat="43.60889" lon="3.84723">
        <ele>67</ele>
        <time>2021-01-23T11:50:59Z</time>
      </trkpt>
      <trkpt lat="43.60889" lon="3.84717">
        <ele>66.8</ele>
        <time>2021-01-23T11:51:00Z</time>
      </trkpt>
      <trkpt lat="43.60889" lon="3.8471">
        <ele>66.6</ele>
        <time>2021-01-23T11:51:01Z</time>
      </trkpt>
      <trkpt lat="43.6089" lon="3.84704">
        <ele>66.4</ele>
        <time>2021-01-23T11:51:02Z</time>
      </trkpt>
      <trkpt lat="43.6089" lon="3.84698">
        <ele>66.2</ele>
        <time>2021-01-23T11:51:03Z</time>
      </trkpt>
      <trkpt lat="43.6089" lon="3.84691">
        <ele>66.1</ele>
        <time>2021-01-23T11:51:04Z</time>
      </trkpt>
      <trkpt lat="43.6089" lon="3.84685">
        <ele>66.1</ele>
        <time>2021-01-23T11:51:05Z</time>
      </trkpt>
      <trkpt lat="43.6089" lon="3.84673">
        <ele>70</ele>
        <time>2021-01-23T11:51:06Z</time>
      </trkpt>
      <trkpt lat="43.6089" lon="3.84667">
        <ele>66</ele>
        <time>2021-01-23T11:51:07Z</time>
      </trkpt>
      <trkpt lat="43.6089" lon="3.84662">
        <ele>66</ele>
        <time>2021-01-23T11:51:08Z</time>
      </trkpt>
      <trkpt lat="43.6089" lon="3.84656">
        <ele>66</ele>
        <time>2021-01-23T11:51:09Z</time>
      </trkpt>
      <trkpt lat="43.6089" lon="3.84644">
        <ele>66</ele>
        <time>2021-01-23T11:51:11Z</time>
      </trkpt>
      <trkpt lat="43.6089" lon="3.84638">
        <ele>66</ele>
        <time>2021-01-23T11:51:12Z</time>
      </trkpt>
      <trkpt lat="43.60891" lon="3.84632">
        <ele>65.8</ele>
        <time>2021-01-23T11:51:13Z</time>
      </trkpt>
      <trkpt lat="43.60892" lon="3.8462">
        <ele>65.4</ele>
        <time>2021-01-23T11:51:15Z</time>
      </trkpt>
      <trkpt lat="43.60893" lon="3.84614">
        <ele>65.2</ele>
        <time>2021-01-23T11:51:17Z</time>
      </trkpt>
      <trkpt lat="43.60895" lon="3.84607">
        <ele>65.1</ele>
        <time>2021-01-23T11:51:18Z</time>
      </trkpt>
      <trkpt lat="43.60897" lon="3.84601">
        <ele>64.9</ele>
        <time>2021-01-23T11:51:19Z</time>
      </trkpt>
      <trkpt lat="43.60898" lon="3.84594">
        <ele>64.7</ele>
        <time>2021-01-23T11:51:20Z</time>
      </trkpt>
      <trkpt lat="43.60898" lon="3.84587">
        <ele>64.5</ele>
        <time>2021-01-23T11:51:21Z</time>
      </trkpt>
      <trkpt lat="43.60898" lon="3.8458">
        <ele>64.3</ele>
        <time>2021-01-23T11:51:22Z</time>
      </trkpt>
      <trkpt lat="43.60898" lon="3.84573">
        <ele>64.3</ele>
        <time>2021-01-23T11:51:23Z</time>
      </trkpt>
      <trkpt lat="43.60898" lon="3.84566">
        <ele>64.3</ele>
        <time>2021-01-23T11:51:24Z</time>
      </trkpt>
      <trkpt lat="43.60898" lon="3.84559">
        <ele>64.3</ele>
        <time>2021-01-23T11:51:25Z</time>
      </trkpt>
      <trkpt lat="43.60897" lon="3.84551">
        <ele>68</ele>
        <time>2021-01-23T11:51:26Z</time>
      </trkpt>
      <trkpt lat="43.60897" lon="3.84544">
        <ele>64</ele>
        <time>2021-01-23T11:51:27Z</time>
      </trkpt>
      <trkpt lat="43.60897" lon="3.84536">
        <ele>63.8</ele>
        <time>2021-01-23T11:51:28Z</time>
      </trkpt>
      <trkpt lat="43.60896" lon="3.84528">
        <ele>63.5</ele>
        <time>2021-01-23T11:51:29Z</time>
      </trkpt>
      <trkpt lat="43.60896" lon="3.84521">
        <ele>63.4</ele>
        <time>2021-01-23T11:51:30Z</time>
      </trkpt>
      <trkpt lat="43.60895" lon="3.84513">
        <ele>63.3</ele>
        <time>2021-01-23T11:51:31Z</time>
      </trkpt>
      <trkpt lat="43.60894" lon="3.84506">
        <ele>63.2</ele>
        <time>2021-01-23T11:51:32Z</time>
      </trkpt>
      <trkpt lat="43.60893" lon="3.84498">
        <ele>63.1</ele>
        <time>2021-01-23T11:51:33Z</time>
      </trkpt>
      <trkpt lat="43.60893" lon="3.8449">
        <ele>63.1</ele>
        <time>2021-01-23T11:51:34Z</time>
      </trkpt>
      <trkpt lat="43.60893" lon="3.84482">
        <ele>63.1</ele>
        <time>2021-01-23T11:51:35Z</time>
      </trkpt>
      <trkpt lat="43.60893" lon="3.84474">
        <ele>67</ele>
        <time>2021-01-23T11:51:36Z</time>
      </trkpt>
      <trkpt lat="43.60893" lon="3.84466">
        <ele>62.8</ele>
        <time>2021-01-23T11:51:37Z</time>
      </trkpt>
      <trkpt lat="43.60893" lon="3.84458">
        <ele>62.6</ele>
        <time>2021-01-23T11:51:38Z</time>
      </trkpt>
      <trkpt lat="43.60894" lon="3.8445">
        <ele>62.3</ele>
        <time>2021-01-23T11:51:39Z</time>
      </trkpt>
      <trkpt lat="43.60895" lon="3.84442">
        <ele>62.2</ele>
        <time>2021-01-23T11:51:40Z</time>
      </trkpt>
      <trkpt lat="43.60896" lon="3.84434">
        <ele>62.2</ele>
        <time>2021-01-23T11:51:41Z</time>
      </trkpt>
      <trkpt lat="43.60897" lon="3.84426">
        <ele>62.1</ele>
        <time>2021-01-23T11:51:42Z</time>
      </trkpt>
      <trkpt lat="43.60897" lon="3.84417">
        <ele>62</ele>
        <time>2021-01-23T11:51:43Z</time>
      </trkpt>
      <trkpt lat="43.60898" lon="3.84409">
        <ele>62</ele>
        <time>2021-01-23T11:51:44Z</time>
      </trkpt>
      <trkpt lat="43.60898" lon="3.84401">
        <ele>62</ele>
        <time>2021-01-23T11:51:45Z</time>
      </trkpt>
      <trkpt lat="43.60898" lon="3.84384">
        <ele>65</ele>
        <time>2021-01-23T11:51:46Z</time>
      </trkpt>
      <trkpt lat="43.60897" lon="3.84376">
        <ele>61.5</ele>
        <time>2021-01-23T11:51:47Z</time>
      </trkpt>
      <trkpt lat="43.60897" lon="3.84368">
        <ele>61.2</ele>
        <time>2021-01-23T11:51:48Z</time>
      </trkpt>
      <trkpt lat="43.60897" lon="3.84359">
        <ele>61</ele>
        <time>2021-01-23T11:51:49Z</time>
      </trkpt>
      <trkpt lat="43.60897" lon="3.8435">
        <ele>61</ele>
        <time>2021-01-23T11:51:50Z</time>
      </trkpt>
      <trkpt lat="43.60897" lon="3.84342">
        <ele>61</ele>
        <time>2021-01-23T11:51:51Z</time>
      </trkpt>
      <trkpt lat="43.60898" lon="3.84333">
        <ele>61</ele>
        <time>2021-01-23T11:51:52Z</time>
      </trkpt>
      <trkpt lat="43.60898" lon="3.84325">
        <ele>61</ele>
        <time>2021-01-23T11:51:53Z</time>
      </trkpt>
      <trkpt lat="43.609" lon="3.84309">
        <ele>61</ele>
        <time>2021-01-23T11:51:55Z</time>
      </trkpt>
      <trkpt lat="43.60901" lon="3.84301">
        <ele>60.9</ele>
        <time>2021-01-23T11:51:57Z</time>
      </trkpt>
      <trkpt lat="43.60901" lon="3.84293">
        <ele>60.7</ele>
        <time>2021-01-23T11:51:58Z</time>
      </trkpt>
      <trkpt lat="43.60902" lon="3.84285">
        <ele>60.6</ele>
        <time>2021-01-23T11:51:59Z</time>
      </trkpt>
      <trkpt lat="43.60902" lon="3.84277">
        <ele>60.5</ele>
        <time>2021-01-23T11:52:00Z</time>
      </trkpt>
      <trkpt lat="43.60902" lon="3.84269">
        <ele>60.3</ele>
        <time>2021-01-23T11:52:01Z</time>
      </trkpt>
      <trkpt lat="43.60903" lon="3.84262">
        <ele>60.2</ele>
        <time>2021-01-23T11:52:02Z</time>
      </trkpt>
      <trkpt lat="43.60903" lon="3.84254">
        <ele>60.1</ele>
        <time>2021-01-23T11:52:03Z</time>
      </trkpt>
      <trkpt lat="43.60902" lon="3.84246">
        <ele>59.9</ele>
        <time>2021-01-23T11:52:04Z</time>
      </trkpt>
      <trkpt lat="43.60901" lon="3.84238">
        <ele>59.8</ele>
        <time>2021-01-23T11:52:05Z</time>
      </trkpt>
      <trkpt lat="43.60901" lon="3.84231">
        <ele>63</ele>
        <time>2021-01-23T11:52:06Z</time>
      </trkpt>
      <trkpt lat="43.609" lon="3.84223">
        <ele>59.6</ele>
        <time>2021-01-23T11:52:07Z</time>
      </trkpt>
      <trkpt lat="43.609" lon="3.84216">
        <ele>59.7</ele>
        <time>2021-01-23T11:52:08Z</time>
      </trkpt>
      <trkpt lat="43.60899" lon="3.84208">
        <ele>59.8</ele>
        <time>2021-01-23T11:52:09Z</time>
      </trkpt>
      <trkpt lat="43.60899" lon="3.84201">
        <ele>59.9</ele>
        <time>2021-01-23T11:52:10Z</time>
      </trkpt>
      <trkpt lat="43.60899" lon="3.84195">
        <ele>60</ele>
        <time>2021-01-23T11:52:11Z</time>
      </trkpt>
      <trkpt lat="43.60898" lon="3.84188">
        <ele>60</ele>
        <time>2021-01-23T11:52:12Z</time>
      </trkpt>
      <trkpt lat="43.60898" lon="3.84182">
        <ele>60</ele>
        <time>2021-01-23T11:52:13Z</time>
      </trkpt>
      <trkpt lat="43.60898" lon="3.84175">
        <ele>60</ele>
        <time>2021-01-23T11:52:14Z</time>
      </trkpt>
      <trkpt lat="43.60898" lon="3.84168">
        <ele>60</ele>
        <time>2021-01-23T11:52:15Z</time>
      </trkpt>
      <trkpt lat="43.60898" lon="3.84162">
        <ele>63</ele>
        <time>2021-01-23T11:52:16Z</time>
      </trkpt>
      <trkpt lat="43.60898" lon="3.84155">
        <ele>59.6</ele>
        <time>2021-01-23T11:52:17Z</time>
      </trkpt>
      <trkpt lat="43.609" lon="3.84148">
        <ele>59.3</ele>
        <time>2021-01-23T11:52:18Z</time>
      </trkpt>
      <trkpt lat="43.60901" lon="3.84142">
        <ele>59.1</ele>
        <time>2021-01-23T11:52:19Z</time>
      </trkpt>
      <trkpt lat="43.60902" lon="3.84135">
        <ele>59</ele>
        <time>2021-01-23T11:52:20Z</time>
      </trkpt>
      <trkpt lat="43.60903" lon="3.84129">
        <ele>59</ele>
        <time>2021-01-23T11:52:21Z</time>
      </trkpt>
      <trkpt lat="43.60905" lon="3.84123">
        <ele>59</ele>
        <time>2021-01-23T11:52:22Z</time>
      </trkpt>
      <trkpt lat="43.60907" lon="3.84116">
        <ele>59</ele>
        <time>2021-01-23T11:52:23Z</time>
      </trkpt>
      <trkpt lat="43.60908" lon="3.8411">
        <ele>59</ele>
        <time>2021-01-23T11:52:24Z</time>
      </trkpt>
      <trkpt lat="43.60909" lon="3.84103">
        <ele>59</ele>
        <time>2021-01-23T11:52:25Z</time>
      </trkpt>
      <trkpt lat="43.60911" lon="3.84097">
        <ele>63</ele>
        <time>2021-01-23T11:52:26Z</time>
      </trkpt>
      <trkpt lat="43.60912" lon="3.8409">
        <ele>59</ele>
        <time>2021-01-23T11:52:27Z</time>
      </trkpt>
      <trkpt lat="43.60914" lon="3.84084">
        <ele>59</ele>
        <time>2021-01-23T11:52:28Z</time>
      </trkpt>
      <trkpt lat="43.60915" lon="3.84077">
        <ele>59</ele>
        <time>2021-01-23T11:52:29Z</time>
      </trkpt>
      <trkpt lat="43.60916" lon="3.8407">
        <ele>59</ele>
        <time>2021-01-23T11:52:30Z</time>
      </trkpt>
      <trkpt lat="43.60918" lon="3.84063">
        <ele>59</ele>
        <time>2021-01-23T11:52:31Z</time>
      </trkpt>
      <trkpt lat="43.6092" lon="3.84056">
        <ele>58.9</ele>
        <time>2021-01-23T11:52:32Z</time>
      </trkpt>
      <trkpt lat="43.60922" lon="3.8405">
        <ele>58.8</ele>
        <time>2021-01-23T11:52:33Z</time>
      </trkpt>
      <trkpt lat="43.60924" lon="3.84044">
        <ele>58.8</ele>
        <time>2021-01-23T11:52:34Z</time>
      </trkpt>
      <trkpt lat="43.60927" lon="3.84038">
        <ele>58.9</ele>
        <time>2021-01-23T11:52:35Z</time>
      </trkpt>
      <trkpt lat="43.60929" lon="3.84032">
        <ele>63</ele>
        <time>2021-01-23T11:52:36Z</time>
      </trkpt>
      <trkpt lat="43.60931" lon="3.84026">
        <ele>59</ele>
        <time>2021-01-23T11:52:37Z</time>
      </trkpt>
      <trkpt lat="43.60933" lon="3.84019">
        <ele>59.1</ele>
        <time>2021-01-23T11:52:38Z</time>
      </trkpt>
      <trkpt lat="43.60933" lon="3.84012">
        <ele>59.2</ele>
        <time>2021-01-23T11:52:39Z</time>
      </trkpt>
      <trkpt lat="43.60933" lon="3.84005">
        <ele>59.3</ele>
        <time>2021-01-23T11:52:40Z</time>
      </trkpt>
      <trkpt lat="43.60933" lon="3.83998">
        <ele>59.4</ele>
        <time>2021-01-23T11:52:41Z</time>
      </trkpt>
      <trkpt lat="43.60933" lon="3.83992">
        <ele>59.4</ele>
        <time>2021-01-23T11:52:42Z</time>
      </trkpt>
      <trkpt lat="43.60934" lon="3.83985">
        <ele>59.4</ele>
        <time>2021-01-23T11:52:43Z</time>
      </trkpt>
      <trkpt lat="43.60934" lon="3.83978">
        <ele>59.4</ele>
        <time>2021-01-23T11:52:44Z</time>
      </trkpt>
      <trkpt lat="43.60935" lon="3.83972">
        <ele>59.3</ele>
        <time>2021-01-23T11:52:45Z</time>
      </trkpt>
      <trkpt lat="43.60937" lon="3.83966">
        <ele>62</ele>
        <time>2021-01-23T11:52:46Z</time>
      </trkpt>
      <trkpt lat="43.60938" lon="3.8396">
        <ele>59.2</ele>
        <time>2021-01-23T11:52:47Z</time>
      </trkpt>
      <trkpt lat="43.60939" lon="3.83954">
        <ele>59.2</ele>
        <time>2021-01-23T11:52:48Z</time>
      </trkpt>
      <trkpt lat="43.6094" lon="3.83948">
        <ele>59.2</ele>
        <time>2021-01-23T11:52:49Z</time>
      </trkpt>
      <trkpt lat="43.60941" lon="3.83942">
        <ele>59.1</ele>
        <time>2021-01-23T11:52:50Z</time>
      </trkpt>
      <trkpt lat="43.60942" lon="3.83936">
        <ele>59.1</ele>
        <time>2021-01-23T11:52:51Z</time>
      </trkpt>
      <trkpt lat="43.60944" lon="3.8393">
        <ele>59</ele>
        <time>2021-01-23T11:52:52Z</time>
      </trkpt>
      <trkpt lat="43.60945" lon="3.83924">
        <ele>59</ele>
        <time>2021-01-23T11:52:53Z</time>
      </trkpt>
      <trkpt lat="43.60946" lon="3.83919">
        <ele>59.2</ele>
        <time>2021-01-23T11:52:54Z</time>
      </trkpt>
      <trkpt lat="43.60947" lon="3.83913">
        <ele>59.4</ele>
        <time>2021-01-23T11:52:55Z</time>
      </trkpt>
      <trkpt lat="43.6095" lon="3.83901">
        <ele>62</ele>
        <time>2021-01-23T11:52:56Z</time>
      </trkpt>
      <trkpt lat="43.60951" lon="3.83895">
        <ele>60.7</ele>
        <time>2021-01-23T11:52:57Z</time>
      </trkpt>
      <trkpt lat="43.60952" lon="3.83889">
        <ele>61.1</ele>
        <time>2021-01-23T11:52:58Z</time>
      </trkpt>
      <trkpt lat="43.60953" lon="3.83883">
        <ele>61.3</ele>
        <time>2021-01-23T11:52:59Z</time>
      </trkpt>
      <trkpt lat="43.60954" lon="3.83877">
        <ele>61.5</ele>
        <time>2021-01-23T11:53:00Z</time>
      </trkpt>
      <trkpt lat="43.60955" lon="3.83872">
        <ele>61.8</ele>
        <time>2021-01-23T11:53:01Z</time>
      </trkpt>
      <trkpt lat="43.60956" lon="3.83867">
        <ele>62</ele>
        <time>2021-01-23T11:53:02Z</time>
      </trkpt>
      <trkpt lat="43.60957" lon="3.83861">
        <ele>62.3</ele>
        <time>2021-01-23T11:53:03Z</time>
      </trkpt>
      <trkpt lat="43.60959" lon="3.83856">
        <ele>62.1</ele>
        <time>2021-01-23T11:53:04Z</time>
      </trkpt>
      <trkpt lat="43.6096" lon="3.83851">
        <ele>61.8</ele>
        <time>2021-01-23T11:53:05Z</time>
      </trkpt>
      <trkpt lat="43.60961" lon="3.83845">
        <ele>61.3</ele>
        <time>2021-01-23T11:53:07Z</time>
      </trkpt>
      <trkpt lat="43.60962" lon="3.8384">
        <ele>60.8</ele>
        <time>2021-01-23T11:53:08Z</time>
      </trkpt>
      <trkpt lat="43.60963" lon="3.83834">
        <ele>60.1</ele>
        <time>2021-01-23T11:53:09Z</time>
      </trkpt>
      <trkpt lat="43.60964" lon="3.83829">
        <ele>60</ele>
        <time>2021-01-23T11:53:10Z</time>
      </trkpt>
      <trkpt lat="43.60965" lon="3.83823">
        <ele>60</ele>
        <time>2021-01-23T11:53:11Z</time>
      </trkpt>
      <trkpt lat="43.60966" lon="3.83818">
        <ele>60</ele>
        <time>2021-01-23T11:53:12Z</time>
      </trkpt>
      <trkpt lat="43.60967" lon="3.83812">
        <ele>60</ele>
        <time>2021-01-23T11:53:13Z</time>
      </trkpt>
      <trkpt lat="43.60968" lon="3.83806">
        <ele>60</ele>
        <time>2021-01-23T11:53:14Z</time>
      </trkpt>
      <trkpt lat="43.6097" lon="3.83801">
        <ele>59.8</ele>
        <time>2021-01-23T11:53:15Z</time>
      </trkpt>
      <trkpt lat="43.60971" lon="3.83795">
        <ele>63</ele>
        <time>2021-01-23T11:53:16Z</time>
      </trkpt>
      <trkpt lat="43.60972" lon="3.8379">
        <ele>59.4</ele>
        <time>2021-01-23T11:53:17Z</time>
      </trkpt>
      <trkpt lat="43.60973" lon="3.83784">
        <ele>59.2</ele>
        <time>2021-01-23T11:53:18Z</time>
      </trkpt>
      <trkpt lat="43.60974" lon="3.83778">
        <ele>59.1</ele>
        <time>2021-01-23T11:53:19Z</time>
      </trkpt>
      <trkpt lat="43.60974" lon="3.83773">
        <ele>59.2</ele>
        <time>2021-01-23T11:53:20Z</time>
      </trkpt>
      <trkpt lat="43.60975" lon="3.83767">
        <ele>59.4</ele>
        <time>2021-01-23T11:53:21Z</time>
      </trkpt>
      <trkpt lat="43.60974" lon="3.83762">
        <ele>59.6</ele>
        <time>2021-01-23T11:53:22Z</time>
      </trkpt>
      <trkpt lat="43.60974" lon="3.83757">
        <ele>59.8</ele>
        <time>2021-01-23T11:53:23Z</time>
      </trkpt>
      <trkpt lat="43.60974" lon="3.83751">
        <ele>60</ele>
        <time>2021-01-23T11:53:24Z</time>
      </trkpt>
      <trkpt lat="43.60975" lon="3.83746">
        <ele>60</ele>
        <time>2021-01-23T11:53:25Z</time>
      </trkpt>
      <trkpt lat="43.60976" lon="3.83741">
        <ele>62</ele>
        <time>2021-01-23T11:53:26Z</time>
      </trkpt>
      <trkpt lat="43.60978" lon="3.83736">
        <ele>60</ele>
        <time>2021-01-23T11:53:27Z</time>
      </trkpt>
      <trkpt lat="43.60979" lon="3.83731">
        <ele>60</ele>
        <time>2021-01-23T11:53:28Z</time>
      </trkpt>
      <trkpt lat="43.6098" lon="3.83726">
        <ele>60</ele>
        <time>2021-01-23T11:53:29Z</time>
      </trkpt>
      <trkpt lat="43.60982" lon="3.8372">
        <ele>60</ele>
        <time>2021-01-23T11:53:30Z</time>
      </trkpt>
      <trkpt lat="43.60983" lon="3.83715">
        <ele>60</ele>
        <time>2021-01-23T11:53:31Z</time>
      </trkpt>
      <trkpt lat="43.60984" lon="3.8371">
        <ele>60</ele>
        <time>2021-01-23T11:53:32Z</time>
      </trkpt>
      <trkpt lat="43.60985" lon="3.83705">
        <ele>60</ele>
        <time>2021-01-23T11:53:33Z</time>
      </trkpt>
      <trkpt lat="43.60987" lon="3.837">
        <ele>60</ele>
        <time>2021-01-23T11:53:34Z</time>
      </trkpt>
      <trkpt lat="43.60988" lon="3.83694">
        <ele>60</ele>
        <time>2021-01-23T11:53:35Z</time>
      </trkpt>
      <trkpt lat="43.60989" lon="3.83689">
        <ele>62</ele>
        <time>2021-01-23T11:53:36Z</time>
      </trkpt>
      <trkpt lat="43.60991" lon="3.83684">
        <ele>60</ele>
        <time>2021-01-23T11:53:37Z</time>
      </trkpt>
      <trkpt lat="43.60992" lon="3.83678">
        <ele>60</ele>
        <time>2021-01-23T11:53:38Z</time>
      </trkpt>
      <trkpt lat="43.60993" lon="3.83673">
        <ele>60</ele>
        <time>2021-01-23T11:53:39Z</time>
      </trkpt>
      <trkpt lat="43.60994" lon="3.83667">
        <ele>60</ele>
        <time>2021-01-23T11:53:40Z</time>
      </trkpt>
      <trkpt lat="43.60995" lon="3.83661">
        <ele>60</ele>
        <time>2021-01-23T11:53:41Z</time>
      </trkpt>
      <trkpt lat="43.60996" lon="3.83656">
        <ele>60.1</ele>
        <time>2021-01-23T11:53:42Z</time>
      </trkpt>
      <trkpt lat="43.60997" lon="3.8365">
        <ele>60.1</ele>
        <time>2021-01-23T11:53:43Z</time>
      </trkpt>
      <trkpt lat="43.60998" lon="3.83645">
        <ele>60.1</ele>
        <time>2021-01-23T11:53:44Z</time>
      </trkpt>
      <trkpt lat="43.60999" lon="3.8364">
        <ele>60</ele>
        <time>2021-01-23T11:53:45Z</time>
      </trkpt>
      <trkpt lat="43.61001" lon="3.83635">
        <ele>62</ele>
        <time>2021-01-23T11:53:46Z</time>
      </trkpt>
      <trkpt lat="43.61002" lon="3.83629">
        <ele>60</ele>
        <time>2021-01-23T11:53:47Z</time>
      </trkpt>
      <trkpt lat="43.61003" lon="3.83624">
        <ele>60</ele>
        <time>2021-01-23T11:53:48Z</time>
      </trkpt>
      <trkpt lat="43.61005" lon="3.83618">
        <ele>60</ele>
        <time>2021-01-23T11:53:49Z</time>
      </trkpt>
      <trkpt lat="43.61006" lon="3.83613">
        <ele>60</ele>
        <time>2021-01-23T11:53:50Z</time>
      </trkpt>
      <trkpt lat="43.61007" lon="3.83608">
        <ele>60</ele>
        <time>2021-01-23T11:53:51Z</time>
      </trkpt>
      <trkpt lat="43.61008" lon="3.83602">
        <ele>60</ele>
        <time>2021-01-23T11:53:52Z</time>
      </trkpt>
      <trkpt lat="43.6101" lon="3.83597">
        <ele>60</ele>
        <time>2021-01-23T11:53:53Z</time>
      </trkpt>
      <trkpt lat="43.61011" lon="3.83591">
        <ele>60</ele>
        <time>2021-01-23T11:53:54Z</time>
      </trkpt>
      <trkpt lat="43.61012" lon="3.83586">
        <ele>60</ele>
        <time>2021-01-23T11:53:55Z</time>
      </trkpt>
      <trkpt lat="43.61014" lon="3.83575">
        <ele>61</ele>
        <time>2021-01-23T11:53:56Z</time>
      </trkpt>
      <trkpt lat="43.61015" lon="3.8357">
        <ele>60</ele>
        <time>2021-01-23T11:53:57Z</time>
      </trkpt>
      <trkpt lat="43.61016" lon="3.83565">
        <ele>60</ele>
        <time>2021-01-23T11:53:58Z</time>
      </trkpt>
      <trkpt lat="43.61017" lon="3.83559">
        <ele>60</ele>
        <time>2021-01-23T11:53:59Z</time>
      </trkpt>
      <trkpt lat="43.61018" lon="3.83554">
        <ele>60</ele>
        <time>2021-01-23T11:54:00Z</time>
      </trkpt>
      <trkpt lat="43.6102" lon="3.83549">
        <ele>60.1</ele>
        <time>2021-01-23T11:54:01Z</time>
      </trkpt>
      <trkpt lat="43.61021" lon="3.83544">
        <ele>60.1</ele>
        <time>2021-01-23T11:54:02Z</time>
      </trkpt>
      <trkpt lat="43.61022" lon="3.83539">
        <ele>60.1</ele>
        <time>2021-01-23T11:54:03Z</time>
      </trkpt>
      <trkpt lat="43.61023" lon="3.83533">
        <ele>60.1</ele>
        <time>2021-01-23T11:54:04Z</time>
      </trkpt>
      <trkpt lat="43.61024" lon="3.83529">
        <ele>60.1</ele>
        <time>2021-01-23T11:54:05Z</time>
      </trkpt>
      <trkpt lat="43.61025" lon="3.83524">
        <ele>60.1</ele>
        <time>2021-01-23T11:54:07Z</time>
      </trkpt>
      <trkpt lat="43.61026" lon="3.83519">
        <ele>60.1</ele>
        <time>2021-01-23T11:54:08Z</time>
      </trkpt>
      <trkpt lat="43.61027" lon="3.83513">
        <ele>60</ele>
        <time>2021-01-23T11:54:09Z</time>
      </trkpt>
      <trkpt lat="43.61028" lon="3.83508">
        <ele>60</ele>
        <time>2021-01-23T11:54:10Z</time>
      </trkpt>
      <trkpt lat="43.61029" lon="3.83502">
        <ele>60</ele>
        <time>2021-01-23T11:54:11Z</time>
      </trkpt>
      <trkpt lat="43.61031" lon="3.83496">
        <ele>60</ele>
        <time>2021-01-23T11:54:12Z</time>
      </trkpt>
      <trkpt lat="43.61032" lon="3.8349">
        <ele>60</ele>
        <time>2021-01-23T11:54:13Z</time>
      </trkpt>
      <trkpt lat="43.61033" lon="3.83484">
        <ele>60</ele>
        <time>2021-01-23T11:54:14Z</time>
      </trkpt>
      <trkpt lat="43.61034" lon="3.83479">
        <ele>60</ele>
        <time>2021-01-23T11:54:15Z</time>
      </trkpt>
      <trkpt lat="43.61037" lon="3.83468">
        <ele>62</ele>
        <time>2021-01-23T11:54:16Z</time>
      </trkpt>
      <trkpt lat="43.61038" lon="3.83462">
        <ele>60</ele>
        <time>2021-01-23T11:54:17Z</time>
      </trkpt>
      <trkpt lat="43.61039" lon="3.83457">
        <ele>60</ele>
        <time>2021-01-23T11:54:18Z</time>
      </trkpt>
      <trkpt lat="43.6104" lon="3.83452">
        <ele>60</ele>
        <time>2021-01-23T11:54:19Z</time>
      </trkpt>
      <trkpt lat="43.61043" lon="3.83448">
        <ele>60</ele>
        <time>2021-01-23T11:54:20Z</time>
      </trkpt>
      <trkpt lat="43.61047" lon="3.83447">
        <ele>60</ele>
        <time>2021-01-23T11:54:21Z</time>
      </trkpt>
      <trkpt lat="43.61051" lon="3.83446">
        <ele>60</ele>
        <time>2021-01-23T11:54:22Z</time>
      </trkpt>
      <trkpt lat="43.61054" lon="3.83443">
        <ele>60</ele>
        <time>2021-01-23T11:54:23Z</time>
      </trkpt>
      <trkpt lat="43.61056" lon="3.83439">
        <ele>60</ele>
        <time>2021-01-23T11:54:24Z</time>
      </trkpt>
      <trkpt lat="43.61058" lon="3.83435">
        <ele>60.1</ele>
        <time>2021-01-23T11:54:25Z</time>
      </trkpt>
      <trkpt lat="43.61059" lon="3.83432">
        <ele>60.1</ele>
        <time>2021-01-23T11:54:27Z</time>
      </trkpt>
      <trkpt lat="43.6106" lon="3.83428">
        <ele>60.2</ele>
        <time>2021-01-23T11:54:28Z</time>
      </trkpt>
      <trkpt lat="43.61061" lon="3.83424">
        <ele>60.2</ele>
        <time>2021-01-23T11:54:29Z</time>
      </trkpt>
      <trkpt lat="43.61062" lon="3.8342">
        <ele>60.2</ele>
        <time>2021-01-23T11:54:30Z</time>
      </trkpt>
      <trkpt lat="43.61063" lon="3.83416">
        <ele>60.3</ele>
        <time>2021-01-23T11:54:31Z</time>
      </trkpt>
      <trkpt lat="43.61064" lon="3.83412">
        <ele>60.3</ele>
        <time>2021-01-23T11:54:32Z</time>
      </trkpt>
      <trkpt lat="43.61065" lon="3.83407">
        <ele>60.3</ele>
        <time>2021-01-23T11:54:33Z</time>
      </trkpt>
      <trkpt lat="43.61067" lon="3.83402">
        <ele>60.4</ele>
        <time>2021-01-23T11:54:34Z</time>
      </trkpt>
      <trkpt lat="43.61068" lon="3.83397">
        <ele>60.4</ele>
        <time>2021-01-23T11:54:35Z</time>
      </trkpt>
      <trkpt lat="43.6107" lon="3.83392">
        <ele>63</ele>
        <time>2021-01-23T11:54:36Z</time>
      </trkpt>
      <trkpt lat="43.61071" lon="3.83386">
        <ele>60.6</ele>
        <time>2021-01-23T11:54:37Z</time>
      </trkpt>
      <trkpt lat="43.61072" lon="3.83381">
        <ele>60.6</ele>
        <time>2021-01-23T11:54:38Z</time>
      </trkpt>
      <trkpt lat="43.61073" lon="3.83376">
        <ele>60.6</ele>
        <time>2021-01-23T11:54:39Z</time>
      </trkpt>
      <trkpt lat="43.61074" lon="3.83371">
        <ele>60.7</ele>
        <time>2021-01-23T11:54:40Z</time>
      </trkpt>
      <trkpt lat="43.61075" lon="3.83366">
        <ele>60.7</ele>
        <time>2021-01-23T11:54:41Z</time>
      </trkpt>
      <trkpt lat="43.61077" lon="3.8336">
        <ele>60.8</ele>
        <time>2021-01-23T11:54:42Z</time>
      </trkpt>
      <trkpt lat="43.61078" lon="3.83355">
        <ele>60.8</ele>
        <time>2021-01-23T11:54:43Z</time>
      </trkpt>
      <trkpt lat="43.6108" lon="3.8335">
        <ele>60.9</ele>
        <time>2021-01-23T11:54:44Z</time>
      </trkpt>
      <trkpt lat="43.61081" lon="3.83346">
        <ele>60.9</ele>
        <time>2021-01-23T11:54:45Z</time>
      </trkpt>
      <trkpt lat="43.61083" lon="3.8334">
        <ele>63</ele>
        <time>2021-01-23T11:54:46Z</time>
      </trkpt>
      <trkpt lat="43.61084" lon="3.83335">
        <ele>61</ele>
        <time>2021-01-23T11:54:47Z</time>
      </trkpt>
      <trkpt lat="43.61086" lon="3.83329">
        <ele>61.1</ele>
        <time>2021-01-23T11:54:48Z</time>
      </trkpt>
      <trkpt lat="43.61088" lon="3.83323">
        <ele>61.2</ele>
        <time>2021-01-23T11:54:49Z</time>
      </trkpt>
      <trkpt lat="43.61089" lon="3.83317">
        <ele>61.3</ele>
        <time>2021-01-23T11:54:50Z</time>
      </trkpt>
      <trkpt lat="43.61091" lon="3.8331">
        <ele>61.5</ele>
        <time>2021-01-23T11:54:51Z</time>
      </trkpt>
      <trkpt lat="43.61092" lon="3.83304">
        <ele>61.6</ele>
        <time>2021-01-23T11:54:52Z</time>
      </trkpt>
      <trkpt lat="43.61094" lon="3.83298">
        <ele>61.4</ele>
        <time>2021-01-23T11:54:53Z</time>
      </trkpt>
      <trkpt lat="43.61096" lon="3.83292">
        <ele>61.2</ele>
        <time>2021-01-23T11:54:54Z</time>
      </trkpt>
      <trkpt lat="43.61098" lon="3.83286">
        <ele>61</ele>
        <time>2021-01-23T11:54:55Z</time>
      </trkpt>
      <trkpt lat="43.611" lon="3.8328">
        <ele>64</ele>
        <time>2021-01-23T11:54:56Z</time>
      </trkpt>
      <trkpt lat="43.61102" lon="3.83274">
        <ele>60.7</ele>
        <time>2021-01-23T11:54:57Z</time>
      </trkpt>
      <trkpt lat="43.61105" lon="3.83268">
        <ele>60.8</ele>
        <time>2021-01-23T11:54:58Z</time>
      </trkpt>
      <trkpt lat="43.61107" lon="3.83262">
        <ele>60.9</ele>
        <time>2021-01-23T11:54:59Z</time>
      </trkpt>
      <trkpt lat="43.61109" lon="3.83256">
        <ele>60.9</ele>
        <time>2021-01-23T11:55:00Z</time>
      </trkpt>
      <trkpt lat="43.61111" lon="3.8325">
        <ele>61</ele>
        <time>2021-01-23T11:55:01Z</time>
      </trkpt>
      <trkpt lat="43.61112" lon="3.83244">
        <ele>60.8</ele>
        <time>2021-01-23T11:55:02Z</time>
      </trkpt>
      <trkpt lat="43.61114" lon="3.83237">
        <ele>60.6</ele>
        <time>2021-01-23T11:55:03Z</time>
      </trkpt>
      <trkpt lat="43.61116" lon="3.83231">
        <ele>60.5</ele>
        <time>2021-01-23T11:55:04Z</time>
      </trkpt>
      <trkpt lat="43.61118" lon="3.83224">
        <ele>60.3</ele>
        <time>2021-01-23T11:55:05Z</time>
      </trkpt>
      <trkpt lat="43.6112" lon="3.83217">
        <ele>64</ele>
        <time>2021-01-23T11:55:06Z</time>
      </trkpt>
      <trkpt lat="43.61121" lon="3.8321">
        <ele>60.4</ele>
        <time>2021-01-23T11:55:07Z</time>
      </trkpt>
      <trkpt lat="43.61124" lon="3.83204">
        <ele>60.5</ele>
        <time>2021-01-23T11:55:08Z</time>
      </trkpt>
      <trkpt lat="43.61126" lon="3.83198">
        <ele>60.5</ele>
        <time>2021-01-23T11:55:09Z</time>
      </trkpt>
      <trkpt lat="43.61128" lon="3.83191">
        <ele>60.5</ele>
        <time>2021-01-23T11:55:10Z</time>
      </trkpt>
      <trkpt lat="43.6113" lon="3.83185">
        <ele>60.3</ele>
        <time>2021-01-23T11:55:11Z</time>
      </trkpt>
      <trkpt lat="43.61133" lon="3.83179">
        <ele>60</ele>
        <time>2021-01-23T11:55:12Z</time>
      </trkpt>
      <trkpt lat="43.61134" lon="3.83172">
        <ele>59.6</ele>
        <time>2021-01-23T11:55:13Z</time>
      </trkpt>
      <trkpt lat="43.61135" lon="3.83166">
        <ele>59.3</ele>
        <time>2021-01-23T11:55:14Z</time>
      </trkpt>
      <trkpt lat="43.61137" lon="3.8316">
        <ele>59.1</ele>
        <time>2021-01-23T11:55:15Z</time>
      </trkpt>
      <trkpt lat="43.61138" lon="3.83153">
        <ele>65</ele>
        <time>2021-01-23T11:55:16Z</time>
      </trkpt>
      <trkpt lat="43.61139" lon="3.83147">
        <ele>59</ele>
        <time>2021-01-23T11:55:17Z</time>
      </trkpt>
      <trkpt lat="43.6114" lon="3.83141">
        <ele>59</ele>
        <time>2021-01-23T11:55:18Z</time>
      </trkpt>
      <trkpt lat="43.61141" lon="3.83136">
        <ele>59.1</ele>
        <time>2021-01-23T11:55:19Z</time>
      </trkpt>
      <trkpt lat="43.61142" lon="3.8313">
        <ele>59.1</ele>
        <time>2021-01-23T11:55:20Z</time>
      </trkpt>
      <trkpt lat="43.61143" lon="3.83124">
        <ele>59.1</ele>
        <time>2021-01-23T11:55:21Z</time>
      </trkpt>
      <trkpt lat="43.61145" lon="3.83118">
        <ele>59.1</ele>
        <time>2021-01-23T11:55:22Z</time>
      </trkpt>
      <trkpt lat="43.61147" lon="3.83112">
        <ele>59</ele>
        <time>2021-01-23T11:55:23Z</time>
      </trkpt>
      <trkpt lat="43.61148" lon="3.83105">
        <ele>59</ele>
        <time>2021-01-23T11:55:24Z</time>
      </trkpt>
      <trkpt lat="43.61149" lon="3.83099">
        <ele>59</ele>
        <time>2021-01-23T11:55:25Z</time>
      </trkpt>
      <trkpt lat="43.61151" lon="3.83093">
        <ele>65</ele>
        <time>2021-01-23T11:55:26Z</time>
      </trkpt>
      <trkpt lat="43.61152" lon="3.83087">
        <ele>59</ele>
        <time>2021-01-23T11:55:27Z</time>
      </trkpt>
      <trkpt lat="43.61154" lon="3.83081">
        <ele>59</ele>
        <time>2021-01-23T11:55:28Z</time>
      </trkpt>
      <trkpt lat="43.61155" lon="3.83075">
        <ele>58.8</ele>
        <time>2021-01-23T11:55:29Z</time>
      </trkpt>
      <trkpt lat="43.61157" lon="3.83069">
        <ele>58.7</ele>
        <time>2021-01-23T11:55:30Z</time>
      </trkpt>
      <trkpt lat="43.61159" lon="3.83063">
        <ele>58.5</ele>
        <time>2021-01-23T11:55:31Z</time>
      </trkpt>
      <trkpt lat="43.61161" lon="3.83057">
        <ele>58.2</ele>
        <time>2021-01-23T11:55:32Z</time>
      </trkpt>
      <trkpt lat="43.61162" lon="3.83052">
        <ele>58.1</ele>
        <time>2021-01-23T11:55:33Z</time>
      </trkpt>
      <trkpt lat="43.61164" lon="3.83046">
        <ele>57.8</ele>
        <time>2021-01-23T11:55:34Z</time>
      </trkpt>
      <trkpt lat="43.61165" lon="3.8304">
        <ele>57.5</ele>
        <time>2021-01-23T11:55:35Z</time>
      </trkpt>
      <trkpt lat="43.61166" lon="3.83035">
        <ele>65</ele>
        <time>2021-01-23T11:55:36Z</time>
      </trkpt>
      <trkpt lat="43.61168" lon="3.83029">
        <ele>57.1</ele>
        <time>2021-01-23T11:55:37Z</time>
      </trkpt>
      <trkpt lat="43.61169" lon="3.83024">
        <ele>57.2</ele>
        <time>2021-01-23T11:55:38Z</time>
      </trkpt>
      <trkpt lat="43.61171" lon="3.83018">
        <ele>57.4</ele>
        <time>2021-01-23T11:55:39Z</time>
      </trkpt>
      <trkpt lat="43.61173" lon="3.83013">
        <ele>57.5</ele>
        <time>2021-01-23T11:55:40Z</time>
      </trkpt>
      <trkpt lat="43.61175" lon="3.83008">
        <ele>57.6</ele>
        <time>2021-01-23T11:55:41Z</time>
      </trkpt>
      <trkpt lat="43.61177" lon="3.83004">
        <ele>57.6</ele>
        <time>2021-01-23T11:55:42Z</time>
      </trkpt>
      <trkpt lat="43.61179" lon="3.82999">
        <ele>57.5</ele>
        <time>2021-01-23T11:55:43Z</time>
      </trkpt>
      <trkpt lat="43.6118" lon="3.82994">
        <ele>57.4</ele>
        <time>2021-01-23T11:55:44Z</time>
      </trkpt>
      <trkpt lat="43.61182" lon="3.8299">
        <ele>57.3</ele>
        <time>2021-01-23T11:55:45Z</time>
      </trkpt>
      <trkpt lat="43.61184" lon="3.82985">
        <ele>64</ele>
        <time>2021-01-23T11:55:46Z</time>
      </trkpt>
      <trkpt lat="43.61186" lon="3.82981">
        <ele>57.1</ele>
        <time>2021-01-23T11:55:47Z</time>
      </trkpt>
      <trkpt lat="43.61188" lon="3.82977">
        <ele>57</ele>
        <time>2021-01-23T11:55:48Z</time>
      </trkpt>
      <trkpt lat="43.6119" lon="3.82972">
        <ele>57</ele>
        <time>2021-01-23T11:55:49Z</time>
      </trkpt>
      <trkpt lat="43.61191" lon="3.82966">
        <ele>57</ele>
        <time>2021-01-23T11:55:50Z</time>
      </trkpt>
      <trkpt lat="43.61191" lon="3.82961">
        <ele>57</ele>
        <time>2021-01-23T11:55:51Z</time>
      </trkpt>
      <trkpt lat="43.6119" lon="3.82956">
        <ele>57</ele>
        <time>2021-01-23T11:55:52Z</time>
      </trkpt>
      <trkpt lat="43.61189" lon="3.8295">
        <ele>57</ele>
        <time>2021-01-23T11:55:53Z</time>
      </trkpt>
      <trkpt lat="43.61189" lon="3.82945">
        <ele>57</ele>
        <time>2021-01-23T11:55:54Z</time>
      </trkpt>
      <trkpt lat="43.61189" lon="3.8294">
        <ele>57</ele>
        <time>2021-01-23T11:55:55Z</time>
      </trkpt>
      <trkpt lat="43.61189" lon="3.82935">
        <ele>63</ele>
        <time>2021-01-23T11:55:56Z</time>
      </trkpt>
      <trkpt lat="43.61188" lon="3.82931">
        <ele>57</ele>
        <time>2021-01-23T11:55:57Z</time>
      </trkpt>
      <trkpt lat="43.61188" lon="3.82926">
        <ele>57</ele>
        <time>2021-01-23T11:55:58Z</time>
      </trkpt>
      <trkpt lat="43.61187" lon="3.82921">
        <ele>57</ele>
        <time>2021-01-23T11:55:59Z</time>
      </trkpt>
      <trkpt lat="43.61186" lon="3.82916">
        <ele>57</ele>
        <time>2021-01-23T11:56:00Z</time>
      </trkpt>
      <trkpt lat="43.61186" lon="3.82911">
        <ele>56.9</ele>
        <time>2021-01-23T11:56:01Z</time>
      </trkpt>
      <trkpt lat="43.61184" lon="3.82906">
        <ele>56.8</ele>
        <time>2021-01-23T11:56:02Z</time>
      </trkpt>
      <trkpt lat="43.61183" lon="3.829">
        <ele>56.6</ele>
        <time>2021-01-23T11:56:03Z</time>
      </trkpt>
      <trkpt lat="43.61182" lon="3.82895">
        <ele>56.6</ele>
        <time>2021-01-23T11:56:04Z</time>
      </trkpt>
      <trkpt lat="43.6118" lon="3.8289">
        <ele>56.5</ele>
        <time>2021-01-23T11:56:05Z</time>
      </trkpt>
      <trkpt lat="43.61178" lon="3.82879">
        <ele>62</ele>
        <time>2021-01-23T11:56:06Z</time>
      </trkpt>
      <trkpt lat="43.61177" lon="3.82874">
        <ele>56.6</ele>
        <time>2021-01-23T11:56:07Z</time>
      </trkpt>
      <trkpt lat="43.61175" lon="3.82868">
        <ele>56.7</ele>
        <time>2021-01-23T11:56:08Z</time>
      </trkpt>
      <trkpt lat="43.61174" lon="3.82863">
        <ele>56.7</ele>
        <time>2021-01-23T11:56:09Z</time>
      </trkpt>
      <trkpt lat="43.61171" lon="3.82852">
        <ele>56.5</ele>
        <time>2021-01-23T11:56:11Z</time>
      </trkpt>
      <trkpt lat="43.6117" lon="3.82847">
        <ele>56.4</ele>
        <time>2021-01-23T11:56:12Z</time>
      </trkpt>
      <trkpt lat="43.61169" lon="3.82843">
        <ele>56.3</ele>
        <time>2021-01-23T11:56:13Z</time>
      </trkpt>
      <trkpt lat="43.61167" lon="3.82838">
        <ele>56.2</ele>
        <time>2021-01-23T11:56:14Z</time>
      </trkpt>
      <trkpt lat="43.61166" lon="3.82833">
        <ele>56</ele>
        <time>2021-01-23T11:56:15Z</time>
      </trkpt>
      <trkpt lat="43.61165" lon="3.82828">
        <ele>56.1</ele>
        <time>2021-01-23T11:56:17Z</time>
      </trkpt>
      <trkpt lat="43.61163" lon="3.82823">
        <ele>56.1</ele>
        <time>2021-01-23T11:56:18Z</time>
      </trkpt>
      <trkpt lat="43.61163" lon="3.82818">
        <ele>56.1</ele>
        <time>2021-01-23T11:56:19Z</time>
      </trkpt>
      <trkpt lat="43.61162" lon="3.82812">
        <ele>56.2</ele>
        <time>2021-01-23T11:56:20Z</time>
      </trkpt>
      <trkpt lat="43.61162" lon="3.82807">
        <ele>56.2</ele>
        <time>2021-01-23T11:56:21Z</time>
      </trkpt>
      <trkpt lat="43.61162" lon="3.82802">
        <ele>56.1</ele>
        <time>2021-01-23T11:56:22Z</time>
      </trkpt>
      <trkpt lat="43.61162" lon="3.82797">
        <ele>55.9</ele>
        <time>2021-01-23T11:56:23Z</time>
      </trkpt>
      <trkpt lat="43.61163" lon="3.82793">
        <ele>55.7</ele>
        <time>2021-01-23T11:56:24Z</time>
      </trkpt>
      <trkpt lat="43.61163" lon="3.82788">
        <ele>55.6</ele>
        <time>2021-01-23T11:56:25Z</time>
      </trkpt>
      <trkpt lat="43.61164" lon="3.82784">
        <ele>59</ele>
        <time>2021-01-23T11:56:26Z</time>
      </trkpt>
      <trkpt lat="43.61166" lon="3.82779">
        <ele>55.1</ele>
        <time>2021-01-23T11:56:27Z</time>
      </trkpt>
      <trkpt lat="43.61167" lon="3.82776">
        <ele>55.1</ele>
        <time>2021-01-23T11:56:28Z</time>
      </trkpt>
      <trkpt lat="43.61169" lon="3.82772">
        <ele>55.2</ele>
        <time>2021-01-23T11:56:29Z</time>
      </trkpt>
      <trkpt lat="43.6117" lon="3.82769">
        <ele>55.3</ele>
        <time>2021-01-23T11:56:30Z</time>
      </trkpt>
      <trkpt lat="43.61172" lon="3.82766">
        <ele>55.3</ele>
        <time>2021-01-23T11:56:31Z</time>
      </trkpt>
      <trkpt lat="43.61173" lon="3.82763">
        <ele>55.4</ele>
        <time>2021-01-23T11:56:32Z</time>
      </trkpt>
      <trkpt lat="43.61174" lon="3.8276">
        <ele>55.5</ele>
        <time>2021-01-23T11:56:33Z</time>
      </trkpt>
      <trkpt lat="43.61173" lon="3.82756">
        <ele>55.6</ele>
        <time>2021-01-23T11:56:35Z</time>
      </trkpt>
      <trkpt lat="43.61171" lon="3.82756">
        <ele>55.7</ele>
        <time>2021-01-23T11:56:37Z</time>
      </trkpt>
      <trkpt lat="43.6117" lon="3.82759">
        <ele>55.6</ele>
        <time>2021-01-23T11:56:39Z</time>
      </trkpt>
      <trkpt lat="43.61168" lon="3.82763">
        <ele>55.5</ele>
        <time>2021-01-23T11:56:41Z</time>
      </trkpt>
      <trkpt lat="43.61167" lon="3.82766">
        <ele>55.4</ele>
        <time>2021-01-23T11:56:43Z</time>
      </trkpt>
      <trkpt lat="43.61167" lon="3.8277">
        <ele>55.3</ele>
        <time>2021-01-23T11:56:45Z</time>
      </trkpt>
      <trkpt lat="43.61168" lon="3.82773">
        <ele>55.2</ele>
        <time>2021-01-23T11:56:47Z</time>
      </trkpt>
      <trkpt lat="43.61171" lon="3.82772">
        <ele>55.2</ele>
        <time>2021-01-23T11:56:49Z</time>
      </trkpt>
      <trkpt lat="43.61173" lon="3.8277">
        <ele>55.2</ele>
        <time>2021-01-23T11:56:50Z</time>
      </trkpt>
      <trkpt lat="43.61174" lon="3.82766">
        <ele>55.3</ele>
        <time>2021-01-23T11:56:52Z</time>
      </trkpt>
      <trkpt lat="43.61174" lon="3.82763">
        <ele>55.4</ele>
        <time>2021-01-23T11:56:53Z</time>
      </trkpt>
      <trkpt lat="43.61173" lon="3.8276">
        <ele>55.5</ele>
        <time>2021-01-23T11:56:55Z</time>
      </trkpt>
      <trkpt lat="43.6117" lon="3.82761">
        <ele>55.5</ele>
        <time>2021-01-23T11:56:57Z</time>
      </trkpt>
      <trkpt lat="43.61168" lon="3.82765">
        <ele>55.4</ele>
        <time>2021-01-23T11:56:59Z</time>
      </trkpt>
      <trkpt lat="43.61168" lon="3.82768">
        <ele>55.3</ele>
        <time>2021-01-23T11:57:00Z</time>
      </trkpt>
      <trkpt lat="43.61167" lon="3.82772">
        <ele>55.2</ele>
        <time>2021-01-23T11:57:01Z</time>
      </trkpt>
      <trkpt lat="43.61165" lon="3.82776">
        <ele>55.2</ele>
        <time>2021-01-23T11:57:02Z</time>
      </trkpt>
      <trkpt lat="43.61164" lon="3.82781">
        <ele>55.3</ele>
        <time>2021-01-23T11:57:03Z</time>
      </trkpt>
      <trkpt lat="43.61164" lon="3.82786">
        <ele>55.5</ele>
        <time>2021-01-23T11:57:04Z</time>
      </trkpt>
      <trkpt lat="43.61162" lon="3.82791">
        <ele>55.7</ele>
        <time>2021-01-23T11:57:05Z</time>
      </trkpt>
      <trkpt lat="43.61161" lon="3.82802">
        <ele>57</ele>
        <time>2021-01-23T11:57:06Z</time>
      </trkpt>
      <trkpt lat="43.6116" lon="3.82807">
        <ele>56.2</ele>
        <time>2021-01-23T11:57:07Z</time>
      </trkpt>
      <trkpt lat="43.6116" lon="3.82812">
        <ele>56.2</ele>
        <time>2021-01-23T11:57:08Z</time>
      </trkpt>
      <trkpt lat="43.61161" lon="3.82817">
        <ele>56.2</ele>
        <time>2021-01-23T11:57:09Z</time>
      </trkpt>
      <trkpt lat="43.61161" lon="3.82821">
        <ele>56.2</ele>
        <time>2021-01-23T11:57:10Z</time>
      </trkpt>
      <trkpt lat="43.61162" lon="3.82825">
        <ele>56.2</ele>
        <time>2021-01-23T11:57:11Z</time>
      </trkpt>
      <trkpt lat="43.61162" lon="3.82828">
        <ele>56.2</ele>
        <time>2021-01-23T11:57:12Z</time>
      </trkpt>
      <trkpt lat="43.61163" lon="3.82831">
        <ele>56.1</ele>
        <time>2021-01-23T11:57:13Z</time>
      </trkpt>
      <trkpt lat="43.61165" lon="3.82832">
        <ele>56.1</ele>
        <time>2021-01-23T11:57:14Z</time>
      </trkpt>
      <trkpt lat="43.61167" lon="3.8283">
        <ele>56</ele>
        <time>2021-01-23T11:57:17Z</time>
      </trkpt>
      <trkpt lat="43.61166" lon="3.82828">
        <ele>56</ele>
        <time>2021-01-23T11:57:18Z</time>
      </trkpt>
      <trkpt lat="43.61166" lon="3.82824">
        <ele>56</ele>
        <time>2021-01-23T11:57:19Z</time>
      </trkpt>
      <trkpt lat="43.61165" lon="3.8282">
        <ele>56.1</ele>
        <time>2021-01-23T11:57:20Z</time>
      </trkpt>
      <trkpt lat="43.61165" lon="3.82816">
        <ele>56.1</ele>
        <time>2021-01-23T11:57:21Z</time>
      </trkpt>
      <trkpt lat="43.61164" lon="3.82812">
        <ele>56.1</ele>
        <time>2021-01-23T11:57:22Z</time>
      </trkpt>
      <trkpt lat="43.61164" lon="3.82808">
        <ele>56.1</ele>
        <time>2021-01-23T11:57:23Z</time>
      </trkpt>
      <trkpt lat="43.61164" lon="3.82803">
        <ele>56</ele>
        <time>2021-01-23T11:57:24Z</time>
      </trkpt>
      <trkpt lat="43.61165" lon="3.82799">
        <ele>55.8</ele>
        <time>2021-01-23T11:57:25Z</time>
      </trkpt>
      <trkpt lat="43.61166" lon="3.82795">
        <ele>57</ele>
        <time>2021-01-23T11:57:26Z</time>
      </trkpt>
      <trkpt lat="43.61167" lon="3.82791">
        <ele>55.5</ele>
        <time>2021-01-23T11:57:27Z</time>
      </trkpt>
      <trkpt lat="43.61168" lon="3.82786">
        <ele>55.3</ele>
        <time>2021-01-23T11:57:28Z</time>
      </trkpt>
      <trkpt lat="43.61168" lon="3.82782">
        <ele>55.1</ele>
        <time>2021-01-23T11:57:29Z</time>
      </trkpt>
      <trkpt lat="43.61168" lon="3.82778">
        <ele>55</ele>
        <time>2021-01-23T11:57:30Z</time>
      </trkpt>
      <trkpt lat="43.61169" lon="3.82774">
        <ele>55.1</ele>
        <time>2021-01-23T11:57:31Z</time>
      </trkpt>
      <trkpt lat="43.6117" lon="3.8277">
        <ele>55.2</ele>
        <time>2021-01-23T11:57:32Z</time>
      </trkpt>
      <trkpt lat="43.61171" lon="3.82768">
        <ele>55.3</ele>
        <time>2021-01-23T11:57:33Z</time>
      </trkpt>
      <trkpt lat="43.61173" lon="3.82766">
        <ele>55.3</ele>
        <time>2021-01-23T11:57:34Z</time>
      </trkpt>
      <trkpt lat="43.61174" lon="3.82763">
        <ele>55.4</ele>
        <time>2021-01-23T11:57:35Z</time>
      </trkpt>
      <trkpt lat="43.61174" lon="3.82759">
        <ele>55.5</ele>
        <time>2021-01-23T11:57:37Z</time>
      </trkpt>
      <trkpt lat="43.61171" lon="3.8276">
        <ele>55.5</ele>
        <time>2021-01-23T11:57:39Z</time>
      </trkpt>
      <trkpt lat="43.61169" lon="3.82762">
        <ele>55.5</ele>
        <time>2021-01-23T11:57:41Z</time>
      </trkpt>
      <trkpt lat="43.61168" lon="3.82766">
        <ele>55.4</ele>
        <time>2021-01-23T11:57:43Z</time>
      </trkpt>
      <trkpt lat="43.61167" lon="3.82769">
        <ele>55.3</ele>
        <time>2021-01-23T11:57:45Z</time>
      </trkpt>
      <trkpt lat="43.61166" lon="3.82773">
        <ele>55.2</ele>
        <time>2021-01-23T11:57:47Z</time>
      </trkpt>
      <trkpt lat="43.61167" lon="3.82776">
        <ele>55.1</ele>
        <time>2021-01-23T11:57:49Z</time>
      </trkpt>
      <trkpt lat="43.61169" lon="3.82776">
        <ele>55.1</ele>
        <time>2021-01-23T11:57:51Z</time>
      </trkpt>
      <trkpt lat="43.6117" lon="3.82773">
        <ele>55.2</ele>
        <time>2021-01-23T11:57:53Z</time>
      </trkpt>
      <trkpt lat="43.61172" lon="3.82769">
        <ele>55.3</ele>
        <time>2021-01-23T11:57:55Z</time>
      </trkpt>
      <trkpt lat="43.61174" lon="3.82765">
        <ele>55.3</ele>
        <time>2021-01-23T11:57:57Z</time>
      </trkpt>
      <trkpt lat="43.61174" lon="3.82762">
        <ele>55.4</ele>
        <time>2021-01-23T11:57:59Z</time>
      </trkpt>
      <trkpt lat="43.61173" lon="3.8276">
        <ele>55.5</ele>
        <time>2021-01-23T11:58:01Z</time>
      </trkpt>
      <trkpt lat="43.61171" lon="3.82759">
        <ele>55.6</ele>
        <time>2021-01-23T11:58:03Z</time>
      </trkpt>
      <trkpt lat="43.6117" lon="3.82762">
        <ele>55.5</ele>
        <time>2021-01-23T11:58:05Z</time>
      </trkpt>
      <trkpt lat="43.61168" lon="3.82766">
        <ele>55.4</ele>
        <time>2021-01-23T11:58:07Z</time>
      </trkpt>
      <trkpt lat="43.61167" lon="3.82769">
        <ele>55.3</ele>
        <time>2021-01-23T11:58:09Z</time>
      </trkpt>
      <trkpt lat="43.61168" lon="3.82773">
        <ele>55.2</ele>
        <time>2021-01-23T11:58:11Z</time>
      </trkpt>
      <trkpt lat="43.61172" lon="3.82773">
        <ele>55.1</ele>
        <time>2021-01-23T11:58:13Z</time>
      </trkpt>
      <trkpt lat="43.61173" lon="3.82772">
        <ele>55.2</ele>
        <time>2021-01-23T11:58:14Z</time>
      </trkpt>
      <trkpt lat="43.61175" lon="3.8277">
        <ele>55.2</ele>
        <time>2021-01-23T11:58:15Z</time>
      </trkpt>
      <trkpt lat="43.61176" lon="3.82767">
        <ele>56</ele>
        <time>2021-01-23T11:58:16Z</time>
      </trkpt>
      <trkpt lat="43.61176" lon="3.82765">
        <ele>55.3</ele>
        <time>2021-01-23T11:58:17Z</time>
      </trkpt>
      <trkpt lat="43.61176" lon="3.82761">
        <ele>55.4</ele>
        <time>2021-01-23T11:58:19Z</time>
      </trkpt>
      <trkpt lat="43.61173" lon="3.8276">
        <ele>55.5</ele>
        <time>2021-01-23T11:58:21Z</time>
      </trkpt>
      <trkpt lat="43.61171" lon="3.82762">
        <ele>55.5</ele>
        <time>2021-01-23T11:58:23Z</time>
      </trkpt>
      <trkpt lat="43.61169" lon="3.82765">
        <ele>55.4</ele>
        <time>2021-01-23T11:58:25Z</time>
      </trkpt>
      <trkpt lat="43.61168" lon="3.82767">
        <ele>55.4</ele>
        <time>2021-01-23T11:58:27Z</time>
      </trkpt>
      <trkpt lat="43.61168" lon="3.82771">
        <ele>55.2</ele>
        <time>2021-01-23T11:58:29Z</time>
      </trkpt>
      <trkpt lat="43.61167" lon="3.82774">
        <ele>55.1</ele>
        <time>2021-01-23T11:58:31Z</time>
      </trkpt>
      <trkpt lat="43.6117" lon="3.82776">
        <ele>55.1</ele>
        <time>2021-01-23T11:58:33Z</time>
      </trkpt>
      <trkpt lat="43.61171" lon="3.82772">
        <ele>55.2</ele>
        <time>2021-01-23T11:58:35Z</time>
      </trkpt>
      <trkpt lat="43.6117" lon="3.82768">
        <ele>55.3</ele>
        <time>2021-01-23T11:58:37Z</time>
      </trkpt>
      <trkpt lat="43.61169" lon="3.82765">
        <ele>55.4</ele>
        <time>2021-01-23T11:58:38Z</time>
      </trkpt>
      <trkpt lat="43.6117" lon="3.82763">
        <ele>55.5</ele>
        <time>2021-01-23T11:58:39Z</time>
      </trkpt>
      <trkpt lat="43.61171" lon="3.8276">
        <ele>55.5</ele>
        <time>2021-01-23T11:58:40Z</time>
      </trkpt>
      <trkpt lat="43.61172" lon="3.8276">
        <ele>55.5</ele>
        <time>2021-01-23T11:58:41Z</time>
      </trkpt>
      <trkpt lat="43.61174" lon="3.82762">
        <ele>55.4</ele>
        <time>2021-01-23T11:58:42Z</time>
      </trkpt>
      <trkpt lat="43.61175" lon="3.82766">
        <ele>55.3</ele>
        <time>2021-01-23T11:58:43Z</time>
      </trkpt>
      <trkpt lat="43.61174" lon="3.82769">
        <ele>55.2</ele>
        <time>2021-01-23T11:58:44Z</time>
      </trkpt>
      <trkpt lat="43.61172" lon="3.82771">
        <ele>55.2</ele>
        <time>2021-01-23T11:58:45Z</time>
      </trkpt>
      <trkpt lat="43.6117" lon="3.82772">
        <ele>56</ele>
        <time>2021-01-23T11:58:46Z</time>
      </trkpt>
      <trkpt lat="43.61168" lon="3.82771">
        <ele>55.2</ele>
        <time>2021-01-23T11:58:47Z</time>
      </trkpt>
      <trkpt lat="43.61168" lon="3.82768">
        <ele>55.3</ele>
        <time>2021-01-23T11:58:48Z</time>
      </trkpt>
      <trkpt lat="43.61168" lon="3.82765">
        <ele>55.4</ele>
        <time>2021-01-23T11:58:49Z</time>
      </trkpt>
      <trkpt lat="43.6117" lon="3.82761">
        <ele>55.5</ele>
        <time>2021-01-23T11:58:51Z</time>
      </trkpt>
      <trkpt lat="43.61172" lon="3.8276">
        <ele>55.5</ele>
        <time>2021-01-23T11:58:52Z</time>
      </trkpt>
      <trkpt lat="43.61175" lon="3.82761">
        <ele>55.4</ele>
        <time>2021-01-23T11:58:53Z</time>
      </trkpt>
      <trkpt lat="43.61176" lon="3.82763">
        <ele>55.4</ele>
        <time>2021-01-23T11:58:54Z</time>
      </trkpt>
      <trkpt lat="43.61176" lon="3.82767">
        <ele>55.3</ele>
        <time>2021-01-23T11:58:55Z</time>
      </trkpt>
      <trkpt lat="43.61175" lon="3.8277">
        <ele>56</ele>
        <time>2021-01-23T11:58:56Z</time>
      </trkpt>
      <trkpt lat="43.61173" lon="3.82771">
        <ele>55.2</ele>
        <time>2021-01-23T11:58:57Z</time>
      </trkpt>
      <trkpt lat="43.61171" lon="3.82771">
        <ele>55.2</ele>
        <time>2021-01-23T11:58:58Z</time>
      </trkpt>
      <trkpt lat="43.61169" lon="3.82769">
        <ele>55.3</ele>
        <time>2021-01-23T11:58:59Z</time>
      </trkpt>
      <trkpt lat="43.61168" lon="3.82767">
        <ele>55.4</ele>
        <time>2021-01-23T11:59:00Z</time>
      </trkpt>
      <trkpt lat="43.6117" lon="3.82765">
        <ele>55.4</ele>
        <time>2021-01-23T11:59:01Z</time>
      </trkpt>
      <trkpt lat="43.61171" lon="3.82764">
        <ele>55.4</ele>
        <time>2021-01-23T11:59:02Z</time>
      </trkpt>
      <trkpt lat="43.61173" lon="3.8276">
        <ele>55.5</ele>
        <time>2021-01-23T11:59:04Z</time>
      </trkpt>
      <trkpt lat="43.61171" lon="3.8276">
        <ele>56</ele>
        <time>2021-01-23T11:59:06Z</time>
      </trkpt>
      <trkpt lat="43.61171" lon="3.82764">
        <ele>55.4</ele>
        <time>2021-01-23T11:59:08Z</time>
      </trkpt>
      <trkpt lat="43.61173" lon="3.82767">
        <ele>55.3</ele>
        <time>2021-01-23T11:59:09Z</time>
      </trkpt>
      <trkpt lat="43.61173" lon="3.8277">
        <ele>55.2</ele>
        <time>2021-01-23T11:59:10Z</time>
      </trkpt>
      <trkpt lat="43.61172" lon="3.82772">
        <ele>55.2</ele>
        <time>2021-01-23T11:59:11Z</time>
      </trkpt>
      <trkpt lat="43.6117" lon="3.82774">
        <ele>55.1</ele>
        <time>2021-01-23T11:59:12Z</time>
      </trkpt>
      <trkpt lat="43.61168" lon="3.82775">
        <ele>55.1</ele>
        <time>2021-01-23T11:59:13Z</time>
      </trkpt>
      <trkpt lat="43.61166" lon="3.82776">
        <ele>55.1</ele>
        <time>2021-01-23T11:59:14Z</time>
      </trkpt>
      <trkpt lat="43.61165" lon="3.8278">
        <ele>56</ele>
        <time>2021-01-23T11:59:16Z</time>
      </trkpt>
      <trkpt lat="43.61168" lon="3.8278">
        <ele>55.1</ele>
        <time>2021-01-23T11:59:18Z</time>
      </trkpt>
      <trkpt lat="43.61169" lon="3.82778">
        <ele>55</ele>
        <time>2021-01-23T11:59:19Z</time>
      </trkpt>
      <trkpt lat="43.6117" lon="3.82774">
        <ele>55.1</ele>
        <time>2021-01-23T11:59:20Z</time>
      </trkpt>
      <trkpt lat="43.61172" lon="3.82771">
        <ele>55.2</ele>
        <time>2021-01-23T11:59:21Z</time>
      </trkpt>
      <trkpt lat="43.61173" lon="3.82768">
        <ele>55.3</ele>
        <time>2021-01-23T11:59:22Z</time>
      </trkpt>
      <trkpt lat="43.61174" lon="3.82764">
        <ele>55.4</ele>
        <time>2021-01-23T11:59:23Z</time>
      </trkpt>
      <trkpt lat="43.61173" lon="3.82761">
        <ele>55.5</ele>
        <time>2021-01-23T11:59:24Z</time>
      </trkpt>
      <trkpt lat="43.61172" lon="3.82758">
        <ele>55.6</ele>
        <time>2021-01-23T11:59:25Z</time>
      </trkpt>
      <trkpt lat="43.61171" lon="3.82745">
        <ele>57</ele>
        <time>2021-01-23T12:00:15Z</time>
      </trkpt>
      <trkpt lat="43.61172" lon="3.82741">
        <ele>55.5</ele>
        <time>2021-01-23T12:00:16Z</time>
      </trkpt>
      <trkpt lat="43.61173" lon="3.82736">
        <ele>55.3</ele>
        <time>2021-01-23T12:00:17Z</time>
      </trkpt>
      <trkpt lat="43.61174" lon="3.82731">
        <ele>55.1</ele>
        <time>2021-01-23T12:00:18Z</time>
      </trkpt>
      <trkpt lat="43.61175" lon="3.82726">
        <ele>54.8</ele>
        <time>2021-01-23T12:00:19Z</time>
      </trkpt>
      <trkpt lat="43.61176" lon="3.82721">
        <ele>54.7</ele>
        <time>2021-01-23T12:00:20Z</time>
      </trkpt>
      <trkpt lat="43.61177" lon="3.82715">
        <ele>54.7</ele>
        <time>2021-01-23T12:00:21Z</time>
      </trkpt>
      <trkpt lat="43.61178" lon="3.8271">
        <ele>54.8</ele>
        <time>2021-01-23T12:00:22Z</time>
      </trkpt>
      <trkpt lat="43.6118" lon="3.82705">
        <ele>54.8</ele>
        <time>2021-01-23T12:00:23Z</time>
      </trkpt>
      <trkpt lat="43.6118" lon="3.827">
        <ele>58</ele>
        <time>2021-01-23T12:00:24Z</time>
      </trkpt>
      <trkpt lat="43.6118" lon="3.82695">
        <ele>55</ele>
        <time>2021-01-23T12:00:25Z</time>
      </trkpt>
      <trkpt lat="43.61181" lon="3.8269">
        <ele>54.9</ele>
        <time>2021-01-23T12:00:26Z</time>
      </trkpt>
      <trkpt lat="43.61182" lon="3.82685">
        <ele>54.8</ele>
        <time>2021-01-23T12:00:27Z</time>
      </trkpt>
      <trkpt lat="43.61183" lon="3.8268">
        <ele>54.8</ele>
        <time>2021-01-23T12:00:28Z</time>
      </trkpt>
      <trkpt lat="43.61184" lon="3.82676">
        <ele>54.8</ele>
        <time>2021-01-23T12:00:29Z</time>
      </trkpt>
      <trkpt lat="43.61185" lon="3.82671">
        <ele>54.7</ele>
        <time>2021-01-23T12:00:30Z</time>
      </trkpt>
      <trkpt lat="43.61186" lon="3.82666">
        <ele>54.7</ele>
        <time>2021-01-23T12:00:31Z</time>
      </trkpt>
      <trkpt lat="43.61187" lon="3.82661">
        <ele>54.7</ele>
        <time>2021-01-23T12:00:32Z</time>
      </trkpt>
      <trkpt lat="43.61188" lon="3.82655">
        <ele>54.8</ele>
        <time>2021-01-23T12:00:33Z</time>
      </trkpt>
      <trkpt lat="43.61189" lon="3.8265">
        <ele>59</ele>
        <time>2021-01-23T12:00:34Z</time>
      </trkpt>
      <trkpt lat="43.6119" lon="3.82639">
        <ele>54.8</ele>
        <time>2021-01-23T12:00:35Z</time>
      </trkpt>
      <trkpt lat="43.61191" lon="3.82634">
        <ele>54.9</ele>
        <time>2021-01-23T12:00:36Z</time>
      </trkpt>
      <trkpt lat="43.61191" lon="3.82628">
        <ele>54.9</ele>
        <time>2021-01-23T12:00:37Z</time>
      </trkpt>
      <trkpt lat="43.61192" lon="3.82623">
        <ele>54.9</ele>
        <time>2021-01-23T12:00:38Z</time>
      </trkpt>
      <trkpt lat="43.61193" lon="3.82618">
        <ele>54.9</ele>
        <time>2021-01-23T12:00:39Z</time>
      </trkpt>
      <trkpt lat="43.61193" lon="3.82612">
        <ele>54.9</ele>
        <time>2021-01-23T12:00:40Z</time>
      </trkpt>
      <trkpt lat="43.61193" lon="3.82607">
        <ele>54.8</ele>
        <time>2021-01-23T12:00:41Z</time>
      </trkpt>
      <trkpt lat="43.61194" lon="3.82602">
        <ele>54.7</ele>
        <time>2021-01-23T12:00:42Z</time>
      </trkpt>
      <trkpt lat="43.61195" lon="3.82597">
        <ele>54.5</ele>
        <time>2021-01-23T12:00:43Z</time>
      </trkpt>
      <trkpt lat="43.61195" lon="3.82592">
        <ele>54.3</ele>
        <time>2021-01-23T12:00:45Z</time>
      </trkpt>
      <trkpt lat="43.61197" lon="3.82587">
        <ele>54.3</ele>
        <time>2021-01-23T12:00:46Z</time>
      </trkpt>
      <trkpt lat="43.61198" lon="3.82582">
        <ele>54.2</ele>
        <time>2021-01-23T12:00:47Z</time>
      </trkpt>
      <trkpt lat="43.61199" lon="3.82576">
        <ele>54.1</ele>
        <time>2021-01-23T12:00:48Z</time>
      </trkpt>
      <trkpt lat="43.612" lon="3.82571">
        <ele>54</ele>
        <time>2021-01-23T12:00:49Z</time>
      </trkpt>
      <trkpt lat="43.61201" lon="3.82566">
        <ele>54</ele>
        <time>2021-01-23T12:00:50Z</time>
      </trkpt>
      <trkpt lat="43.61202" lon="3.82561">
        <ele>54</ele>
        <time>2021-01-23T12:00:51Z</time>
      </trkpt>
      <trkpt lat="43.61203" lon="3.82556">
        <ele>53.9</ele>
        <time>2021-01-23T12:00:52Z</time>
      </trkpt>
      <trkpt lat="43.61204" lon="3.82551">
        <ele>53.6</ele>
        <time>2021-01-23T12:00:53Z</time>
      </trkpt>
      <trkpt lat="43.61206" lon="3.82548">
        <ele>59</ele>
        <time>2021-01-23T12:00:54Z</time>
      </trkpt>
      <trkpt lat="43.61209" lon="3.82545">
        <ele>53.6</ele>
        <time>2021-01-23T12:00:55Z</time>
      </trkpt>
      <trkpt lat="43.61211" lon="3.82542">
        <ele>53.5</ele>
        <time>2021-01-23T12:00:56Z</time>
      </trkpt>
      <trkpt lat="43.61214" lon="3.8254">
        <ele>53.6</ele>
        <time>2021-01-23T12:00:57Z</time>
      </trkpt>
      <trkpt lat="43.61217" lon="3.82538">
        <ele>53.7</ele>
        <time>2021-01-23T12:00:58Z</time>
      </trkpt>
      <trkpt lat="43.6122" lon="3.82537">
        <ele>53.8</ele>
        <time>2021-01-23T12:00:59Z</time>
      </trkpt>
      <trkpt lat="43.61222" lon="3.82536">
        <ele>53.9</ele>
        <time>2021-01-23T12:01:00Z</time>
      </trkpt>
      <trkpt lat="43.61226" lon="3.82535">
        <ele>53.7</ele>
        <time>2021-01-23T12:01:01Z</time>
      </trkpt>
      <trkpt lat="43.61229" lon="3.82533">
        <ele>53.5</ele>
        <time>2021-01-23T12:01:02Z</time>
      </trkpt>
      <trkpt lat="43.61233" lon="3.82531">
        <ele>53.3</ele>
        <time>2021-01-23T12:01:03Z</time>
      </trkpt>
      <trkpt lat="43.61236" lon="3.82529">
        <ele>58</ele>
        <time>2021-01-23T12:01:04Z</time>
      </trkpt>
      <trkpt lat="43.61238" lon="3.82527">
        <ele>52.9</ele>
        <time>2021-01-23T12:01:05Z</time>
      </trkpt>
      <trkpt lat="43.61241" lon="3.82525">
        <ele>52.6</ele>
        <time>2021-01-23T12:01:06Z</time>
      </trkpt>
      <trkpt lat="43.61244" lon="3.82524">
        <ele>52.5</ele>
        <time>2021-01-23T12:01:07Z</time>
      </trkpt>
      <trkpt lat="43.61247" lon="3.82523">
        <ele>52.3</ele>
        <time>2021-01-23T12:01:08Z</time>
      </trkpt>
      <trkpt lat="43.6125" lon="3.82521">
        <ele>52</ele>
        <time>2021-01-23T12:01:09Z</time>
      </trkpt>
      <trkpt lat="43.61255" lon="3.82519">
        <ele>51.9</ele>
        <time>2021-01-23T12:01:10Z</time>
      </trkpt>
      <trkpt lat="43.61258" lon="3.82516">
        <ele>51.7</ele>
        <time>2021-01-23T12:01:11Z</time>
      </trkpt>
      <trkpt lat="43.61263" lon="3.82511">
        <ele>51.4</ele>
        <time>2021-01-23T12:01:12Z</time>
      </trkpt>
      <trkpt lat="43.61266" lon="3.82507">
        <ele>51.3</ele>
        <time>2021-01-23T12:01:13Z</time>
      </trkpt>
      <trkpt lat="43.6127" lon="3.82504">
        <ele>58</ele>
        <time>2021-01-23T12:01:14Z</time>
      </trkpt>
      <trkpt lat="43.61274" lon="3.825">
        <ele>51.6</ele>
        <time>2021-01-23T12:01:15Z</time>
      </trkpt>
      <trkpt lat="43.61278" lon="3.82496">
        <ele>51.1</ele>
        <time>2021-01-23T12:01:16Z</time>
      </trkpt>
      <trkpt lat="43.61282" lon="3.82492">
        <ele>50.4</ele>
        <time>2021-01-23T12:01:17Z</time>
      </trkpt>
      <trkpt lat="43.61286" lon="3.82487">
        <ele>49.7</ele>
        <time>2021-01-23T12:01:18Z</time>
      </trkpt>
      <trkpt lat="43.61289" lon="3.82483">
        <ele>49.4</ele>
        <time>2021-01-23T12:01:19Z</time>
      </trkpt>
      <trkpt lat="43.61292" lon="3.82478">
        <ele>49.2</ele>
        <time>2021-01-23T12:01:20Z</time>
      </trkpt>
      <trkpt lat="43.61295" lon="3.82472">
        <ele>49.1</ele>
        <time>2021-01-23T12:01:21Z</time>
      </trkpt>
      <trkpt lat="43.61298" lon="3.82467">
        <ele>49.5</ele>
        <time>2021-01-23T12:01:22Z</time>
      </trkpt>
      <trkpt lat="43.613" lon="3.82463">
        <ele>49.9</ele>
        <time>2021-01-23T12:01:23Z</time>
      </trkpt>
      <trkpt lat="43.61303" lon="3.82457">
        <ele>57</ele>
        <time>2021-01-23T12:01:24Z</time>
      </trkpt>
      <trkpt lat="43.61306" lon="3.82452">
        <ele>51</ele>
        <time>2021-01-23T12:01:25Z</time>
      </trkpt>
      <trkpt lat="43.61308" lon="3.82446">
        <ele>50.9</ele>
        <time>2021-01-23T12:01:26Z</time>
      </trkpt>
      <trkpt lat="43.6131" lon="3.8244">
        <ele>50.6</ele>
        <time>2021-01-23T12:01:27Z</time>
      </trkpt>
      <trkpt lat="43.61311" lon="3.82434">
        <ele>50.3</ele>
        <time>2021-01-23T12:01:28Z</time>
      </trkpt>
      <trkpt lat="43.61312" lon="3.82428">
        <ele>50</ele>
        <time>2021-01-23T12:01:29Z</time>
      </trkpt>
      <trkpt lat="43.61313" lon="3.82422">
        <ele>49.8</ele>
        <time>2021-01-23T12:01:30Z</time>
      </trkpt>
      <trkpt lat="43.61313" lon="3.82416">
        <ele>49.5</ele>
        <time>2021-01-23T12:01:31Z</time>
      </trkpt>
      <trkpt lat="43.61314" lon="3.8241">
        <ele>49.5</ele>
        <time>2021-01-23T12:01:32Z</time>
      </trkpt>
      <trkpt lat="43.61315" lon="3.82404">
        <ele>49.5</ele>
        <time>2021-01-23T12:01:33Z</time>
      </trkpt>
      <trkpt lat="43.61315" lon="3.82399">
        <ele>57</ele>
        <time>2021-01-23T12:01:34Z</time>
      </trkpt>
      <trkpt lat="43.61315" lon="3.82393">
        <ele>49.4</ele>
        <time>2021-01-23T12:01:35Z</time>
      </trkpt>
      <trkpt lat="43.61314" lon="3.82387">
        <ele>49.5</ele>
        <time>2021-01-23T12:01:36Z</time>
      </trkpt>
      <trkpt lat="43.61313" lon="3.82381">
        <ele>49.9</ele>
        <time>2021-01-23T12:01:37Z</time>
      </trkpt>
      <trkpt lat="43.61313" lon="3.82374">
        <ele>50.5</ele>
        <time>2021-01-23T12:01:38Z</time>
      </trkpt>
      <trkpt lat="43.61312" lon="3.82367">
        <ele>51</ele>
        <time>2021-01-23T12:01:39Z</time>
      </trkpt>
      <trkpt lat="43.6131" lon="3.8236">
        <ele>51.3</ele>
        <time>2021-01-23T12:01:40Z</time>
      </trkpt>
      <trkpt lat="43.61309" lon="3.82353">
        <ele>51.3</ele>
        <time>2021-01-23T12:01:41Z</time>
      </trkpt>
      <trkpt lat="43.61309" lon="3.82348">
        <ele>51.3</ele>
        <time>2021-01-23T12:01:42Z</time>
      </trkpt>
      <trkpt lat="43.61308" lon="3.82343">
        <ele>51.2</ele>
        <time>2021-01-23T12:01:43Z</time>
      </trkpt>
      <trkpt lat="43.61308" lon="3.82338">
        <ele>57</ele>
        <time>2021-01-23T12:01:44Z</time>
      </trkpt>
      <trkpt lat="43.61308" lon="3.82333">
        <ele>51.2</ele>
        <time>2021-01-23T12:01:45Z</time>
      </trkpt>
      <trkpt lat="43.61309" lon="3.82328">
        <ele>50.9</ele>
        <time>2021-01-23T12:01:46Z</time>
      </trkpt>
      <trkpt lat="43.61311" lon="3.82322">
        <ele>50.6</ele>
        <time>2021-01-23T12:01:47Z</time>
      </trkpt>
      <trkpt lat="43.61313" lon="3.82317">
        <ele>50.5</ele>
        <time>2021-01-23T12:01:48Z</time>
      </trkpt>
      <trkpt lat="43.61316" lon="3.82312">
        <ele>50.7</ele>
        <time>2021-01-23T12:01:49Z</time>
      </trkpt>
      <trkpt lat="43.61319" lon="3.82308">
        <ele>51</ele>
        <time>2021-01-23T12:01:50Z</time>
      </trkpt>
      <trkpt lat="43.61323" lon="3.82305">
        <ele>51.6</ele>
        <time>2021-01-23T12:01:51Z</time>
      </trkpt>
      <trkpt lat="43.61326" lon="3.82302">
        <ele>51.6</ele>
        <time>2021-01-23T12:01:52Z</time>
      </trkpt>
      <trkpt lat="43.61329" lon="3.823">
        <ele>51.7</ele>
        <time>2021-01-23T12:01:53Z</time>
      </trkpt>
      <trkpt lat="43.61332" lon="3.82298">
        <ele>56</ele>
        <time>2021-01-23T12:01:54Z</time>
      </trkpt>
      <trkpt lat="43.61335" lon="3.82296">
        <ele>51.6</ele>
        <time>2021-01-23T12:01:55Z</time>
      </trkpt>
      <trkpt lat="43.61338" lon="3.82293">
        <ele>50.8</ele>
        <time>2021-01-23T12:01:56Z</time>
      </trkpt>
      <trkpt lat="43.61341" lon="3.8229">
        <ele>50.1</ele>
        <time>2021-01-23T12:01:57Z</time>
      </trkpt>
      <trkpt lat="43.61345" lon="3.82285">
        <ele>49.2</ele>
        <time>2021-01-23T12:01:58Z</time>
      </trkpt>
      <trkpt lat="43.61349" lon="3.82281">
        <ele>48.7</ele>
        <time>2021-01-23T12:01:59Z</time>
      </trkpt>
      <trkpt lat="43.61354" lon="3.82277">
        <ele>48.3</ele>
        <time>2021-01-23T12:02:00Z</time>
      </trkpt>
      <trkpt lat="43.61358" lon="3.82274">
        <ele>48</ele>
        <time>2021-01-23T12:02:01Z</time>
      </trkpt>
      <trkpt lat="43.61364" lon="3.82271">
        <ele>47.4</ele>
        <time>2021-01-23T12:02:02Z</time>
      </trkpt>
      <trkpt lat="43.61369" lon="3.82267">
        <ele>46.5</ele>
        <time>2021-01-23T12:02:03Z</time>
      </trkpt>
      <trkpt lat="43.61375" lon="3.82265">
        <ele>54</ele>
        <time>2021-01-23T12:02:04Z</time>
      </trkpt>
      <trkpt lat="43.61381" lon="3.82263">
        <ele>45.9</ele>
        <time>2021-01-23T12:02:05Z</time>
      </trkpt>
      <trkpt lat="43.61387" lon="3.82261">
        <ele>45.8</ele>
        <time>2021-01-23T12:02:06Z</time>
      </trkpt>
      <trkpt lat="43.61393" lon="3.82259">
        <ele>45.6</ele>
        <time>2021-01-23T12:02:07Z</time>
      </trkpt>
      <trkpt lat="43.61398" lon="3.82255">
        <ele>45.3</ele>
        <time>2021-01-23T12:02:08Z</time>
      </trkpt>
      <trkpt lat="43.61404" lon="3.8225">
        <ele>45</ele>
        <time>2021-01-23T12:02:09Z</time>
      </trkpt>
      <trkpt lat="43.61409" lon="3.82246">
        <ele>44.7</ele>
        <time>2021-01-23T12:02:10Z</time>
      </trkpt>
      <trkpt lat="43.61413" lon="3.82242">
        <ele>44.4</ele>
        <time>2021-01-23T12:02:11Z</time>
      </trkpt>
      <trkpt lat="43.61418" lon="3.82239">
        <ele>44.2</ele>
        <time>2021-01-23T12:02:12Z</time>
      </trkpt>
      <trkpt lat="43.61423" lon="3.82235">
        <ele>43.9</ele>
        <time>2021-01-23T12:02:13Z</time>
      </trkpt>
      <trkpt lat="43.61427" lon="3.82232">
        <ele>52</ele>
        <time>2021-01-23T12:02:14Z</time>
      </trkpt>
      <trkpt lat="43.61436" lon="3.82227">
        <ele>43.3</ele>
        <time>2021-01-23T12:02:15Z</time>
      </trkpt>
      <trkpt lat="43.61441" lon="3.82224">
        <ele>43.1</ele>
        <time>2021-01-23T12:02:16Z</time>
      </trkpt>
      <trkpt lat="43.61446" lon="3.82221">
        <ele>43.1</ele>
        <time>2021-01-23T12:02:17Z</time>
      </trkpt>
      <trkpt lat="43.61452" lon="3.82218">
        <ele>43.2</ele>
        <time>2021-01-23T12:02:18Z</time>
      </trkpt>
      <trkpt lat="43.61459" lon="3.82215">
        <ele>43.4</ele>
        <time>2021-01-23T12:02:19Z</time>
      </trkpt>
      <trkpt lat="43.61465" lon="3.82212">
        <ele>43.5</ele>
        <time>2021-01-23T12:02:20Z</time>
      </trkpt>
      <trkpt lat="43.61471" lon="3.8221">
        <ele>43.5</ele>
        <time>2021-01-23T12:02:21Z</time>
      </trkpt>
      <trkpt lat="43.61476" lon="3.82209">
        <ele>43.6</ele>
        <time>2021-01-23T12:02:22Z</time>
      </trkpt>
      <trkpt lat="43.61481" lon="3.82208">
        <ele>43.6</ele>
        <time>2021-01-23T12:02:23Z</time>
      </trkpt>
      <trkpt lat="43.61486" lon="3.82207">
        <ele>43.7</ele>
        <time>2021-01-23T12:02:25Z</time>
      </trkpt>
      <trkpt lat="43.6149" lon="3.82207">
        <ele>43.8</ele>
        <time>2021-01-23T12:02:26Z</time>
      </trkpt>
      <trkpt lat="43.61494" lon="3.82207">
        <ele>43.9</ele>
        <time>2021-01-23T12:02:27Z</time>
      </trkpt>
      <trkpt lat="43.61498" lon="3.82207">
        <ele>44</ele>
        <time>2021-01-23T12:02:28Z</time>
      </trkpt>
      <trkpt lat="43.61502" lon="3.82207">
        <ele>44</ele>
        <time>2021-01-23T12:02:29Z</time>
      </trkpt>
      <trkpt lat="43.61505" lon="3.82208">
        <ele>44.1</ele>
        <time>2021-01-23T12:02:30Z</time>
      </trkpt>
      <trkpt lat="43.61509" lon="3.82207">
        <ele>44.1</ele>
        <time>2021-01-23T12:02:31Z</time>
      </trkpt>
      <trkpt lat="43.61512" lon="3.82206">
        <ele>44.2</ele>
        <time>2021-01-23T12:02:32Z</time>
      </trkpt>
      <trkpt lat="43.61514" lon="3.82204">
        <ele>44.2</ele>
        <time>2021-01-23T12:02:33Z</time>
      </trkpt>
      <trkpt lat="43.61517" lon="3.82201">
        <ele>48</ele>
        <time>2021-01-23T12:02:34Z</time>
      </trkpt>
      <trkpt lat="43.61519" lon="3.82197">
        <ele>44.1</ele>
        <time>2021-01-23T12:02:35Z</time>
      </trkpt>
      <trkpt lat="43.6152" lon="3.82194">
        <ele>44</ele>
        <time>2021-01-23T12:02:36Z</time>
      </trkpt>
      <trkpt lat="43.61521" lon="3.82189">
        <ele>43.8</ele>
        <time>2021-01-23T12:02:37Z</time>
      </trkpt>
      <trkpt lat="43.61522" lon="3.82184">
        <ele>43.6</ele>
        <time>2021-01-23T12:02:38Z</time>
      </trkpt>
      <trkpt lat="43.61522" lon="3.82179">
        <ele>43.4</ele>
        <time>2021-01-23T12:02:39Z</time>
      </trkpt>
      <trkpt lat="43.61522" lon="3.82174">
        <ele>43.3</ele>
        <time>2021-01-23T12:02:40Z</time>
      </trkpt>
      <trkpt lat="43.61523" lon="3.82169">
        <ele>43.1</ele>
        <time>2021-01-23T12:02:41Z</time>
      </trkpt>
      <trkpt lat="43.61523" lon="3.82163">
        <ele>42.9</ele>
        <time>2021-01-23T12:02:42Z</time>
      </trkpt>
      <trkpt lat="43.61524" lon="3.82157">
        <ele>42.8</ele>
        <time>2021-01-23T12:02:43Z</time>
      </trkpt>
      <trkpt lat="43.61525" lon="3.82152">
        <ele>47</ele>
        <time>2021-01-23T12:02:44Z</time>
      </trkpt>
      <trkpt lat="43.61525" lon="3.82146">
        <ele>42.5</ele>
        <time>2021-01-23T12:02:45Z</time>
      </trkpt>
      <trkpt lat="43.61526" lon="3.8214">
        <ele>42.2</ele>
        <time>2021-01-23T12:02:46Z</time>
      </trkpt>
      <trkpt lat="43.61527" lon="3.82134">
        <ele>42.1</ele>
        <time>2021-01-23T12:02:47Z</time>
      </trkpt>
      <trkpt lat="43.61527" lon="3.82129">
        <ele>42.1</ele>
        <time>2021-01-23T12:02:48Z</time>
      </trkpt>
      <trkpt lat="43.61528" lon="3.82123">
        <ele>42</ele>
        <time>2021-01-23T12:02:49Z</time>
      </trkpt>
      <trkpt lat="43.61528" lon="3.82118">
        <ele>42</ele>
        <time>2021-01-23T12:02:50Z</time>
      </trkpt>
      <trkpt lat="43.61529" lon="3.82113">
        <ele>42</ele>
        <time>2021-01-23T12:02:51Z</time>
      </trkpt>
      <trkpt lat="43.6153" lon="3.82109">
        <ele>42</ele>
        <time>2021-01-23T12:02:52Z</time>
      </trkpt>
      <trkpt lat="43.61531" lon="3.82104">
        <ele>42.1</ele>
        <time>2021-01-23T12:02:53Z</time>
      </trkpt>
      <trkpt lat="43.61531" lon="3.82098">
        <ele>46</ele>
        <time>2021-01-23T12:02:54Z</time>
      </trkpt>
      <trkpt lat="43.61531" lon="3.82092">
        <ele>42.2</ele>
        <time>2021-01-23T12:02:55Z</time>
      </trkpt>
      <trkpt lat="43.61531" lon="3.82086">
        <ele>42.3</ele>
        <time>2021-01-23T12:02:56Z</time>
      </trkpt>
      <trkpt lat="43.61532" lon="3.8208">
        <ele>42.3</ele>
        <time>2021-01-23T12:02:57Z</time>
      </trkpt>
      <trkpt lat="43.61533" lon="3.82073">
        <ele>42.1</ele>
        <time>2021-01-23T12:02:58Z</time>
      </trkpt>
      <trkpt lat="43.61534" lon="3.82066">
        <ele>41.8</ele>
        <time>2021-01-23T12:02:59Z</time>
      </trkpt>
      <trkpt lat="43.61535" lon="3.82059">
        <ele>41.4</ele>
        <time>2021-01-23T12:03:00Z</time>
      </trkpt>
      <trkpt lat="43.61536" lon="3.82052">
        <ele>41.1</ele>
        <time>2021-01-23T12:03:01Z</time>
      </trkpt>
      <trkpt lat="43.61536" lon="3.82045">
        <ele>40.8</ele>
        <time>2021-01-23T12:03:02Z</time>
      </trkpt>
      <trkpt lat="43.61537" lon="3.82038">
        <ele>40.5</ele>
        <time>2021-01-23T12:03:03Z</time>
      </trkpt>
      <trkpt lat="43.61537" lon="3.82032">
        <ele>45</ele>
        <time>2021-01-23T12:03:04Z</time>
      </trkpt>
      <trkpt lat="43.61537" lon="3.82026">
        <ele>39.9</ele>
        <time>2021-01-23T12:03:05Z</time>
      </trkpt>
      <trkpt lat="43.61537" lon="3.8202">
        <ele>39.7</ele>
        <time>2021-01-23T12:03:06Z</time>
      </trkpt>
      <trkpt lat="43.61538" lon="3.82015">
        <ele>39.5</ele>
        <time>2021-01-23T12:03:07Z</time>
      </trkpt>
      <trkpt lat="43.61539" lon="3.82009">
        <ele>39.3</ele>
        <time>2021-01-23T12:03:08Z</time>
      </trkpt>
      <trkpt lat="43.6154" lon="3.82003">
        <ele>39.1</ele>
        <time>2021-01-23T12:03:09Z</time>
      </trkpt>
      <trkpt lat="43.61541" lon="3.81997">
        <ele>38.9</ele>
        <time>2021-01-23T12:03:10Z</time>
      </trkpt>
      <trkpt lat="43.61542" lon="3.81991">
        <ele>38.7</ele>
        <time>2021-01-23T12:03:11Z</time>
      </trkpt>
      <trkpt lat="43.61542" lon="3.81984">
        <ele>38.4</ele>
        <time>2021-01-23T12:03:12Z</time>
      </trkpt>
      <trkpt lat="43.61543" lon="3.81978">
        <ele>38.3</ele>
        <time>2021-01-23T12:03:13Z</time>
      </trkpt>
      <trkpt lat="43.61544" lon="3.81972">
        <ele>43</ele>
        <time>2021-01-23T12:03:14Z</time>
      </trkpt>
      <trkpt lat="43.61544" lon="3.81965">
        <ele>37.8</ele>
        <time>2021-01-23T12:03:15Z</time>
      </trkpt>
      <trkpt lat="43.61545" lon="3.81959">
        <ele>37.6</ele>
        <time>2021-01-23T12:03:16Z</time>
      </trkpt>
      <trkpt lat="43.61547" lon="3.81954">
        <ele>37.5</ele>
        <time>2021-01-23T12:03:17Z</time>
      </trkpt>
      <trkpt lat="43.61548" lon="3.81948">
        <ele>37.3</ele>
        <time>2021-01-23T12:03:18Z</time>
      </trkpt>
      <trkpt lat="43.61549" lon="3.81942">
        <ele>37.3</ele>
        <time>2021-01-23T12:03:19Z</time>
      </trkpt>
      <trkpt lat="43.6155" lon="3.81936">
        <ele>37.4</ele>
        <time>2021-01-23T12:03:20Z</time>
      </trkpt>
      <trkpt lat="43.61551" lon="3.81931">
        <ele>37.5</ele>
        <time>2021-01-23T12:03:21Z</time>
      </trkpt>
      <trkpt lat="43.61552" lon="3.81926">
        <ele>37.6</ele>
        <time>2021-01-23T12:03:22Z</time>
      </trkpt>
      <trkpt lat="43.61553" lon="3.8192">
        <ele>37.7</ele>
        <time>2021-01-23T12:03:23Z</time>
      </trkpt>
      <trkpt lat="43.61553" lon="3.81914">
        <ele>42</ele>
        <time>2021-01-23T12:03:24Z</time>
      </trkpt>
      <trkpt lat="43.61554" lon="3.81908">
        <ele>37.8</ele>
        <time>2021-01-23T12:03:25Z</time>
      </trkpt>
      <trkpt lat="43.61554" lon="3.81901">
        <ele>37.8</ele>
        <time>2021-01-23T12:03:26Z</time>
      </trkpt>
      <trkpt lat="43.61554" lon="3.81895">
        <ele>37.8</ele>
        <time>2021-01-23T12:03:27Z</time>
      </trkpt>
      <trkpt lat="43.61555" lon="3.81889">
        <ele>37.9</ele>
        <time>2021-01-23T12:03:28Z</time>
      </trkpt>
      <trkpt lat="43.61555" lon="3.81883">
        <ele>37.7</ele>
        <time>2021-01-23T12:03:29Z</time>
      </trkpt>
      <trkpt lat="43.61555" lon="3.81877">
        <ele>37.5</ele>
        <time>2021-01-23T12:03:30Z</time>
      </trkpt>
      <trkpt lat="43.61555" lon="3.81871">
        <ele>37.3</ele>
        <time>2021-01-23T12:03:31Z</time>
      </trkpt>
      <trkpt lat="43.61554" lon="3.81866">
        <ele>37</ele>
        <time>2021-01-23T12:03:32Z</time>
      </trkpt>
      <trkpt lat="43.61553" lon="3.8186">
        <ele>36.8</ele>
        <time>2021-01-23T12:03:33Z</time>
      </trkpt>
      <trkpt lat="43.61552" lon="3.81854">
        <ele>41</ele>
        <time>2021-01-23T12:03:34Z</time>
      </trkpt>
      <trkpt lat="43.61551" lon="3.81849">
        <ele>36.9</ele>
        <time>2021-01-23T12:03:35Z</time>
      </trkpt>
      <trkpt lat="43.61549" lon="3.81843">
        <ele>36.9</ele>
        <time>2021-01-23T12:03:36Z</time>
      </trkpt>
      <trkpt lat="43.61548" lon="3.81839">
        <ele>37</ele>
        <time>2021-01-23T12:03:37Z</time>
      </trkpt>
      <trkpt lat="43.61548" lon="3.81836">
        <ele>37.1</ele>
        <time>2021-01-23T12:03:38Z</time>
      </trkpt>
      <trkpt lat="43.61547" lon="3.81834">
        <ele>37.1</ele>
        <time>2021-01-23T12:03:39Z</time>
      </trkpt>
      <trkpt lat="43.61548" lon="3.81829">
        <ele>37.2</ele>
        <time>2021-01-23T12:03:41Z</time>
      </trkpt>
      <trkpt lat="43.61551" lon="3.81828">
        <ele>37.4</ele>
        <time>2021-01-23T12:03:42Z</time>
      </trkpt>
      <trkpt lat="43.61554" lon="3.81826">
        <ele>37.6</ele>
        <time>2021-01-23T12:03:43Z</time>
      </trkpt>
      <trkpt lat="43.61558" lon="3.8182">
        <ele>40</ele>
        <time>2021-01-23T12:03:44Z</time>
      </trkpt>
      <trkpt lat="43.61557" lon="3.81815">
        <ele>37.3</ele>
        <time>2021-01-23T12:03:45Z</time>
      </trkpt>
      <trkpt lat="43.61556" lon="3.8181">
        <ele>37.1</ele>
        <time>2021-01-23T12:03:46Z</time>
      </trkpt>
      <trkpt lat="43.61555" lon="3.81805">
        <ele>37</ele>
        <time>2021-01-23T12:03:47Z</time>
      </trkpt>
      <trkpt lat="43.61553" lon="3.818">
        <ele>36.7</ele>
        <time>2021-01-23T12:03:48Z</time>
      </trkpt>
      <trkpt lat="43.61552" lon="3.81795">
        <ele>36.4</ele>
        <time>2021-01-23T12:03:49Z</time>
      </trkpt>
      <trkpt lat="43.6155" lon="3.81791">
        <ele>36.3</ele>
        <time>2021-01-23T12:03:50Z</time>
      </trkpt>
      <trkpt lat="43.61549" lon="3.81785">
        <ele>36</ele>
        <time>2021-01-23T12:03:51Z</time>
      </trkpt>
      <trkpt lat="43.61547" lon="3.8178">
        <ele>36</ele>
        <time>2021-01-23T12:03:52Z</time>
      </trkpt>
      <trkpt lat="43.61546" lon="3.81775">
        <ele>40</ele>
        <time>2021-01-23T12:03:54Z</time>
      </trkpt>
      <trkpt lat="43.61544" lon="3.8177">
        <ele>36.1</ele>
        <time>2021-01-23T12:03:55Z</time>
      </trkpt>
      <trkpt lat="43.61543" lon="3.81765">
        <ele>36.1</ele>
        <time>2021-01-23T12:03:56Z</time>
      </trkpt>
      <trkpt lat="43.61541" lon="3.8176">
        <ele>36.3</ele>
        <time>2021-01-23T12:03:57Z</time>
      </trkpt>
      <trkpt lat="43.6154" lon="3.81755">
        <ele>36.3</ele>
        <time>2021-01-23T12:03:58Z</time>
      </trkpt>
      <trkpt lat="43.61538" lon="3.8175">
        <ele>36.5</ele>
        <time>2021-01-23T12:03:59Z</time>
      </trkpt>
      <trkpt lat="43.61537" lon="3.81745">
        <ele>35.9</ele>
        <time>2021-01-23T12:04:00Z</time>
      </trkpt>
      <trkpt lat="43.61536" lon="3.81741">
        <ele>35.4</ele>
        <time>2021-01-23T12:04:01Z</time>
      </trkpt>
      <trkpt lat="43.61534" lon="3.81736">
        <ele>34.6</ele>
        <time>2021-01-23T12:04:02Z</time>
      </trkpt>
      <trkpt lat="43.61533" lon="3.81731">
        <ele>33.8</ele>
        <time>2021-01-23T12:04:03Z</time>
      </trkpt>
      <trkpt lat="43.61532" lon="3.81726">
        <ele>41</ele>
        <time>2021-01-23T12:04:04Z</time>
      </trkpt>
      <trkpt lat="43.61531" lon="3.81721">
        <ele>32.2</ele>
        <time>2021-01-23T12:04:05Z</time>
      </trkpt>
      <trkpt lat="43.61529" lon="3.81716">
        <ele>32.3</ele>
        <time>2021-01-23T12:04:06Z</time>
      </trkpt>
      <trkpt lat="43.61528" lon="3.81711">
        <ele>32.4</ele>
        <time>2021-01-23T12:04:07Z</time>
      </trkpt>
      <trkpt lat="43.61526" lon="3.81706">
        <ele>32.6</ele>
        <time>2021-01-23T12:04:08Z</time>
      </trkpt>
      <trkpt lat="43.61525" lon="3.81701">
        <ele>32.7</ele>
        <time>2021-01-23T12:04:09Z</time>
      </trkpt>
      <trkpt lat="43.61523" lon="3.81695">
        <ele>33</ele>
        <time>2021-01-23T12:04:10Z</time>
      </trkpt>
      <trkpt lat="43.61522" lon="3.8169">
        <ele>33.3</ele>
        <time>2021-01-23T12:04:11Z</time>
      </trkpt>
      <trkpt lat="43.6152" lon="3.81684">
        <ele>33.8</ele>
        <time>2021-01-23T12:04:12Z</time>
      </trkpt>
      <trkpt lat="43.61518" lon="3.81679">
        <ele>34.3</ele>
        <time>2021-01-23T12:04:13Z</time>
      </trkpt>
      <trkpt lat="43.61517" lon="3.81673">
        <ele>41</ele>
        <time>2021-01-23T12:04:14Z</time>
      </trkpt>
      <trkpt lat="43.61515" lon="3.81667">
        <ele>35.8</ele>
        <time>2021-01-23T12:04:15Z</time>
      </trkpt>
      <trkpt lat="43.61514" lon="3.81661">
        <ele>36.2</ele>
        <time>2021-01-23T12:04:16Z</time>
      </trkpt>
      <trkpt lat="43.61512" lon="3.81655">
        <ele>36.6</ele>
        <time>2021-01-23T12:04:17Z</time>
      </trkpt>
      <trkpt lat="43.6151" lon="3.81649">
        <ele>37</ele>
        <time>2021-01-23T12:04:18Z</time>
      </trkpt>
      <trkpt lat="43.61509" lon="3.81643">
        <ele>37.3</ele>
        <time>2021-01-23T12:04:19Z</time>
      </trkpt>
      <trkpt lat="43.61507" lon="3.81637">
        <ele>37.5</ele>
        <time>2021-01-23T12:04:20Z</time>
      </trkpt>
      <trkpt lat="43.61506" lon="3.81631">
        <ele>37.8</ele>
        <time>2021-01-23T12:04:21Z</time>
      </trkpt>
      <trkpt lat="43.61504" lon="3.81625">
        <ele>37.9</ele>
        <time>2021-01-23T12:04:22Z</time>
      </trkpt>
      <trkpt lat="43.61503" lon="3.81619">
        <ele>38</ele>
        <time>2021-01-23T12:04:23Z</time>
      </trkpt>
      <trkpt lat="43.61501" lon="3.81613">
        <ele>40</ele>
        <time>2021-01-23T12:04:24Z</time>
      </trkpt>
      <trkpt lat="43.61499" lon="3.81607">
        <ele>37.9</ele>
        <time>2021-01-23T12:04:25Z</time>
      </trkpt>
      <trkpt lat="43.61498" lon="3.81602">
        <ele>37.9</ele>
        <time>2021-01-23T12:04:26Z</time>
      </trkpt>
      <trkpt lat="43.61497" lon="3.81596">
        <ele>37.9</ele>
        <time>2021-01-23T12:04:27Z</time>
      </trkpt>
      <trkpt lat="43.61496" lon="3.8159">
        <ele>37.9</ele>
        <time>2021-01-23T12:04:28Z</time>
      </trkpt>
      <trkpt lat="43.61495" lon="3.81583">
        <ele>38</ele>
        <time>2021-01-23T12:04:29Z</time>
      </trkpt>
      <trkpt lat="43.61494" lon="3.81577">
        <ele>38.4</ele>
        <time>2021-01-23T12:04:30Z</time>
      </trkpt>
      <trkpt lat="43.61493" lon="3.81571">
        <ele>38.7</ele>
        <time>2021-01-23T12:04:31Z</time>
      </trkpt>
      <trkpt lat="43.61493" lon="3.81566">
        <ele>38.9</ele>
        <time>2021-01-23T12:04:32Z</time>
      </trkpt>
      <trkpt lat="43.61493" lon="3.81561">
        <ele>39.2</ele>
        <time>2021-01-23T12:04:33Z</time>
      </trkpt>
      <trkpt lat="43.61492" lon="3.81556">
        <ele>41</ele>
        <time>2021-01-23T12:04:34Z</time>
      </trkpt>
      <trkpt lat="43.61491" lon="3.81551">
        <ele>39.4</ele>
        <time>2021-01-23T12:04:35Z</time>
      </trkpt>
      <trkpt lat="43.6149" lon="3.81547">
        <ele>39.4</ele>
        <time>2021-01-23T12:04:36Z</time>
      </trkpt>
      <trkpt lat="43.61489" lon="3.81542">
        <ele>39.4</ele>
        <time>2021-01-23T12:04:37Z</time>
      </trkpt>
      <trkpt lat="43.61488" lon="3.81538">
        <ele>39.4</ele>
        <time>2021-01-23T12:04:38Z</time>
      </trkpt>
      <trkpt lat="43.61487" lon="3.81534">
        <ele>39.4</ele>
        <time>2021-01-23T12:04:39Z</time>
      </trkpt>
      <trkpt lat="43.61486" lon="3.8153">
        <ele>39.5</ele>
        <time>2021-01-23T12:04:40Z</time>
      </trkpt>
      <trkpt lat="43.61486" lon="3.81526">
        <ele>39.7</ele>
        <time>2021-01-23T12:04:41Z</time>
      </trkpt>
      <trkpt lat="43.61487" lon="3.81522">
        <ele>40</ele>
        <time>2021-01-23T12:04:42Z</time>
      </trkpt>
      <trkpt lat="43.61487" lon="3.81519">
        <ele>40.3</ele>
        <time>2021-01-23T12:04:43Z</time>
      </trkpt>
      <trkpt lat="43.61487" lon="3.81515">
        <ele>42</ele>
        <time>2021-01-23T12:04:44Z</time>
      </trkpt>
      <trkpt lat="43.61486" lon="3.81512">
        <ele>40.9</ele>
        <time>2021-01-23T12:04:45Z</time>
      </trkpt>
      <trkpt lat="43.61484" lon="3.8151">
        <ele>41.2</ele>
        <time>2021-01-23T12:04:46Z</time>
      </trkpt>
      <trkpt lat="43.61482" lon="3.81511">
        <ele>41.1</ele>
        <time>2021-01-23T12:04:47Z</time>
      </trkpt>
      <trkpt lat="43.61479" lon="3.81513">
        <ele>41</ele>
        <time>2021-01-23T12:04:48Z</time>
      </trkpt>
      <trkpt lat="43.61477" lon="3.81515">
        <ele>40.8</ele>
        <time>2021-01-23T12:04:49Z</time>
      </trkpt>
      <trkpt lat="43.61475" lon="3.81516">
        <ele>40.7</ele>
        <time>2021-01-23T12:04:50Z</time>
      </trkpt>
      <trkpt lat="43.61471" lon="3.81517">
        <ele>40.5</ele>
        <time>2021-01-23T12:04:52Z</time>
      </trkpt>
      <trkpt lat="43.6147" lon="3.81515">
        <ele>40.7</ele>
        <time>2021-01-23T12:04:53Z</time>
      </trkpt>
      <trkpt lat="43.61468" lon="3.81512">
        <ele>41</ele>
        <time>2021-01-23T12:04:54Z</time>
      </trkpt>
      <trkpt lat="43.61467" lon="3.81508">
        <ele>41.4</ele>
        <time>2021-01-23T12:04:55Z</time>
      </trkpt>
      <trkpt lat="43.61466" lon="3.81504">
        <ele>41.8</ele>
        <time>2021-01-23T12:04:56Z</time>
      </trkpt>
      <trkpt lat="43.61464" lon="3.81499">
        <ele>42.1</ele>
        <time>2021-01-23T12:04:57Z</time>
      </trkpt>
      <trkpt lat="43.61463" lon="3.81495">
        <ele>42.1</ele>
        <time>2021-01-23T12:04:58Z</time>
      </trkpt>
      <trkpt lat="43.61462" lon="3.81491">
        <ele>42.1</ele>
        <time>2021-01-23T12:04:59Z</time>
      </trkpt>
      <trkpt lat="43.6146" lon="3.81487">
        <ele>41.9</ele>
        <time>2021-01-23T12:05:00Z</time>
      </trkpt>
      <trkpt lat="43.61458" lon="3.81483">
        <ele>41.8</ele>
        <time>2021-01-23T12:05:01Z</time>
      </trkpt>
      <trkpt lat="43.61457" lon="3.81479">
        <ele>41.7</ele>
        <time>2021-01-23T12:05:02Z</time>
      </trkpt>
      <trkpt lat="43.61455" lon="3.81474">
        <ele>41.5</ele>
        <time>2021-01-23T12:05:03Z</time>
      </trkpt>
      <trkpt lat="43.61453" lon="3.8147">
        <ele>42</ele>
        <time>2021-01-23T12:05:04Z</time>
      </trkpt>
      <trkpt lat="43.61452" lon="3.81465">
        <ele>41.3</ele>
        <time>2021-01-23T12:05:05Z</time>
      </trkpt>
      <trkpt lat="43.61451" lon="3.81461">
        <ele>41.3</ele>
        <time>2021-01-23T12:05:06Z</time>
      </trkpt>
      <trkpt lat="43.61449" lon="3.81456">
        <ele>41.2</ele>
        <time>2021-01-23T12:05:07Z</time>
      </trkpt>
      <trkpt lat="43.61448" lon="3.81452">
        <ele>41.2</ele>
        <time>2021-01-23T12:05:08Z</time>
      </trkpt>
      <trkpt lat="43.61447" lon="3.81447">
        <ele>41.3</ele>
        <time>2021-01-23T12:05:09Z</time>
      </trkpt>
      <trkpt lat="43.61445" lon="3.81443">
        <ele>41.2</ele>
        <time>2021-01-23T12:05:10Z</time>
      </trkpt>
      <trkpt lat="43.61444" lon="3.81438">
        <ele>41.7</ele>
        <time>2021-01-23T12:05:11Z</time>
      </trkpt>
      <trkpt lat="43.61443" lon="3.81434">
        <ele>42.1</ele>
        <time>2021-01-23T12:05:12Z</time>
      </trkpt>
      <trkpt lat="43.61442" lon="3.81429">
        <ele>42.5</ele>
        <time>2021-01-23T12:05:13Z</time>
      </trkpt>
      <trkpt lat="43.61441" lon="3.81425">
        <ele>42</ele>
        <time>2021-01-23T12:05:14Z</time>
      </trkpt>
      <trkpt lat="43.6144" lon="3.81421">
        <ele>43.1</ele>
        <time>2021-01-23T12:05:15Z</time>
      </trkpt>
      <trkpt lat="43.61438" lon="3.81416">
        <ele>43.3</ele>
        <time>2021-01-23T12:05:16Z</time>
      </trkpt>
      <trkpt lat="43.61437" lon="3.81412">
        <ele>43.4</ele>
        <time>2021-01-23T12:05:17Z</time>
      </trkpt>
      <trkpt lat="43.61435" lon="3.81408">
        <ele>43.3</ele>
        <time>2021-01-23T12:05:18Z</time>
      </trkpt>
      <trkpt lat="43.61434" lon="3.81404">
        <ele>43.3</ele>
        <time>2021-01-23T12:05:19Z</time>
      </trkpt>
      <trkpt lat="43.61432" lon="3.81399">
        <ele>43.3</ele>
        <time>2021-01-23T12:05:20Z</time>
      </trkpt>
      <trkpt lat="43.61431" lon="3.81395">
        <ele>43.3</ele>
        <time>2021-01-23T12:05:21Z</time>
      </trkpt>
      <trkpt lat="43.6143" lon="3.8139">
        <ele>43.4</ele>
        <time>2021-01-23T12:05:22Z</time>
      </trkpt>
      <trkpt lat="43.61429" lon="3.81385">
        <ele>43.4</ele>
        <time>2021-01-23T12:05:23Z</time>
      </trkpt>
      <trkpt lat="43.61429" lon="3.81381">
        <ele>44</ele>
        <time>2021-01-23T12:05:24Z</time>
      </trkpt>
      <trkpt lat="43.61427" lon="3.81376">
        <ele>43.4</ele>
        <time>2021-01-23T12:05:25Z</time>
      </trkpt>
      <trkpt lat="43.61426" lon="3.81371">
        <ele>43.4</ele>
        <time>2021-01-23T12:05:26Z</time>
      </trkpt>
      <trkpt lat="43.61425" lon="3.81367">
        <ele>43.5</ele>
        <time>2021-01-23T12:05:27Z</time>
      </trkpt>
      <trkpt lat="43.61424" lon="3.81362">
        <ele>43.5</ele>
        <time>2021-01-23T12:05:28Z</time>
      </trkpt>
      <trkpt lat="43.61423" lon="3.81357">
        <ele>43.6</ele>
        <time>2021-01-23T12:05:29Z</time>
      </trkpt>
      <trkpt lat="43.61422" lon="3.81353">
        <ele>43.7</ele>
        <time>2021-01-23T12:05:30Z</time>
      </trkpt>
      <trkpt lat="43.61421" lon="3.81349">
        <ele>43.7</ele>
        <time>2021-01-23T12:05:31Z</time>
      </trkpt>
      <trkpt lat="43.6142" lon="3.81345">
        <ele>43.8</ele>
        <time>2021-01-23T12:05:32Z</time>
      </trkpt>
      <trkpt lat="43.6142" lon="3.81341">
        <ele>44</ele>
        <time>2021-01-23T12:05:33Z</time>
      </trkpt>
      <trkpt lat="43.61419" lon="3.81337">
        <ele>45</ele>
        <time>2021-01-23T12:05:34Z</time>
      </trkpt>
      <trkpt lat="43.61418" lon="3.81333">
        <ele>44.1</ele>
        <time>2021-01-23T12:05:35Z</time>
      </trkpt>
      <trkpt lat="43.61416" lon="3.81328">
        <ele>44.2</ele>
        <time>2021-01-23T12:05:36Z</time>
      </trkpt>
      <trkpt lat="43.61415" lon="3.81323">
        <ele>44.3</ele>
        <time>2021-01-23T12:05:37Z</time>
      </trkpt>
      <trkpt lat="43.61414" lon="3.81318">
        <ele>44.5</ele>
        <time>2021-01-23T12:05:38Z</time>
      </trkpt>
      <trkpt lat="43.61412" lon="3.81314">
        <ele>44.5</ele>
        <time>2021-01-23T12:05:39Z</time>
      </trkpt>
      <trkpt lat="43.61411" lon="3.81309">
        <ele>44.7</ele>
        <time>2021-01-23T12:05:40Z</time>
      </trkpt>
      <trkpt lat="43.6141" lon="3.81304">
        <ele>44.8</ele>
        <time>2021-01-23T12:05:41Z</time>
      </trkpt>
      <trkpt lat="43.61409" lon="3.81299">
        <ele>45</ele>
        <time>2021-01-23T12:05:42Z</time>
      </trkpt>
      <trkpt lat="43.61408" lon="3.81294">
        <ele>45.1</ele>
        <time>2021-01-23T12:05:43Z</time>
      </trkpt>
      <trkpt lat="43.61407" lon="3.81289">
        <ele>45</ele>
        <time>2021-01-23T12:05:44Z</time>
      </trkpt>
      <trkpt lat="43.61407" lon="3.81285">
        <ele>45.4</ele>
        <time>2021-01-23T12:05:45Z</time>
      </trkpt>
      <trkpt lat="43.61406" lon="3.8128">
        <ele>45.5</ele>
        <time>2021-01-23T12:05:46Z</time>
      </trkpt>
      <trkpt lat="43.61406" lon="3.81276">
        <ele>45.7</ele>
        <time>2021-01-23T12:05:47Z</time>
      </trkpt>
      <trkpt lat="43.61405" lon="3.81271">
        <ele>45.8</ele>
        <time>2021-01-23T12:05:48Z</time>
      </trkpt>
      <trkpt lat="43.61405" lon="3.81267">
        <ele>46</ele>
        <time>2021-01-23T12:05:49Z</time>
      </trkpt>
      <trkpt lat="43.61404" lon="3.81262">
        <ele>46.1</ele>
        <time>2021-01-23T12:05:50Z</time>
      </trkpt>
      <trkpt lat="43.61404" lon="3.81258">
        <ele>46.3</ele>
        <time>2021-01-23T12:05:51Z</time>
      </trkpt>
      <trkpt lat="43.61404" lon="3.81253">
        <ele>46.4</ele>
        <time>2021-01-23T12:05:52Z</time>
      </trkpt>
      <trkpt lat="43.61404" lon="3.81249">
        <ele>46.6</ele>
        <time>2021-01-23T12:05:53Z</time>
      </trkpt>
      <trkpt lat="43.61404" lon="3.81244">
        <ele>48</ele>
        <time>2021-01-23T12:05:54Z</time>
      </trkpt>
      <trkpt lat="43.61404" lon="3.8124">
        <ele>46.7</ele>
        <time>2021-01-23T12:05:55Z</time>
      </trkpt>
      <trkpt lat="43.61404" lon="3.81236">
        <ele>46.8</ele>
        <time>2021-01-23T12:05:56Z</time>
      </trkpt>
      <trkpt lat="43.61404" lon="3.81231">
        <ele>46.9</ele>
        <time>2021-01-23T12:05:57Z</time>
      </trkpt>
      <trkpt lat="43.61404" lon="3.81227">
        <ele>47</ele>
        <time>2021-01-23T12:05:58Z</time>
      </trkpt>
      <trkpt lat="43.61404" lon="3.81222">
        <ele>47.1</ele>
        <time>2021-01-23T12:05:59Z</time>
      </trkpt>
      <trkpt lat="43.61403" lon="3.81218">
        <ele>47.1</ele>
        <time>2021-01-23T12:06:00Z</time>
      </trkpt>
      <trkpt lat="43.61403" lon="3.81214">
        <ele>47.2</ele>
        <time>2021-01-23T12:06:01Z</time>
      </trkpt>
      <trkpt lat="43.61403" lon="3.81209">
        <ele>47.3</ele>
        <time>2021-01-23T12:06:02Z</time>
      </trkpt>
      <trkpt lat="43.61403" lon="3.81204">
        <ele>47.3</ele>
        <time>2021-01-23T12:06:03Z</time>
      </trkpt>
      <trkpt lat="43.61403" lon="3.812">
        <ele>49</ele>
        <time>2021-01-23T12:06:04Z</time>
      </trkpt>
      <trkpt lat="43.61403" lon="3.81196">
        <ele>47.5</ele>
        <time>2021-01-23T12:06:05Z</time>
      </trkpt>
      <trkpt lat="43.61403" lon="3.81191">
        <ele>47.6</ele>
        <time>2021-01-23T12:06:06Z</time>
      </trkpt>
      <trkpt lat="43.61404" lon="3.81187">
        <ele>47.7</ele>
        <time>2021-01-23T12:06:07Z</time>
      </trkpt>
      <trkpt lat="43.61404" lon="3.81183">
        <ele>47.8</ele>
        <time>2021-01-23T12:06:08Z</time>
      </trkpt>
      <trkpt lat="43.61404" lon="3.81178">
        <ele>47.9</ele>
        <time>2021-01-23T12:06:09Z</time>
      </trkpt>
      <trkpt lat="43.61404" lon="3.81174">
        <ele>47.9</ele>
        <time>2021-01-23T12:06:10Z</time>
      </trkpt>
      <trkpt lat="43.61404" lon="3.8117">
        <ele>48</ele>
        <time>2021-01-23T12:06:11Z</time>
      </trkpt>
      <trkpt lat="43.61405" lon="3.81165">
        <ele>48.2</ele>
        <time>2021-01-23T12:06:12Z</time>
      </trkpt>
      <trkpt lat="43.61405" lon="3.81161">
        <ele>48.4</ele>
        <time>2021-01-23T12:06:13Z</time>
      </trkpt>
      <trkpt lat="43.61405" lon="3.81157">
        <ele>50</ele>
        <time>2021-01-23T12:06:14Z</time>
      </trkpt>
      <trkpt lat="43.61405" lon="3.81152">
        <ele>48.7</ele>
        <time>2021-01-23T12:06:15Z</time>
      </trkpt>
      <trkpt lat="43.61405" lon="3.81148">
        <ele>48.8</ele>
        <time>2021-01-23T12:06:16Z</time>
      </trkpt>
      <trkpt lat="43.61405" lon="3.81144">
        <ele>49</ele>
        <time>2021-01-23T12:06:17Z</time>
      </trkpt>
      <trkpt lat="43.61405" lon="3.8114">
        <ele>49.1</ele>
        <time>2021-01-23T12:06:18Z</time>
      </trkpt>
      <trkpt lat="43.61405" lon="3.81135">
        <ele>49.2</ele>
        <time>2021-01-23T12:06:19Z</time>
      </trkpt>
      <trkpt lat="43.61405" lon="3.81131">
        <ele>49.3</ele>
        <time>2021-01-23T12:06:20Z</time>
      </trkpt>
      <trkpt lat="43.61404" lon="3.81127">
        <ele>49.3</ele>
        <time>2021-01-23T12:06:21Z</time>
      </trkpt>
      <trkpt lat="43.61404" lon="3.81123">
        <ele>49.3</ele>
        <time>2021-01-23T12:06:22Z</time>
      </trkpt>
      <trkpt lat="43.61404" lon="3.81118">
        <ele>49.4</ele>
        <time>2021-01-23T12:06:23Z</time>
      </trkpt>
      <trkpt lat="43.61403" lon="3.81114">
        <ele>51</ele>
        <time>2021-01-23T12:06:24Z</time>
      </trkpt>
      <trkpt lat="43.61403" lon="3.8111">
        <ele>49.5</ele>
        <time>2021-01-23T12:06:25Z</time>
      </trkpt>
      <trkpt lat="43.61403" lon="3.81105">
        <ele>49.5</ele>
        <time>2021-01-23T12:06:26Z</time>
      </trkpt>
      <trkpt lat="43.61403" lon="3.81101">
        <ele>49.5</ele>
        <time>2021-01-23T12:06:27Z</time>
      </trkpt>
      <trkpt lat="43.61404" lon="3.81096">
        <ele>49.5</ele>
        <time>2021-01-23T12:06:28Z</time>
      </trkpt>
      <trkpt lat="43.61404" lon="3.81092">
        <ele>49.5</ele>
        <time>2021-01-23T12:06:29Z</time>
      </trkpt>
      <trkpt lat="43.61405" lon="3.81088">
        <ele>49.6</ele>
        <time>2021-01-23T12:06:30Z</time>
      </trkpt>
      <trkpt lat="43.61406" lon="3.81084">
        <ele>49.6</ele>
        <time>2021-01-23T12:06:31Z</time>
      </trkpt>
      <trkpt lat="43.61408" lon="3.8108">
        <ele>49.8</ele>
        <time>2021-01-23T12:06:32Z</time>
      </trkpt>
      <trkpt lat="43.61409" lon="3.81077">
        <ele>50</ele>
        <time>2021-01-23T12:06:33Z</time>
      </trkpt>
      <trkpt lat="43.61411" lon="3.81074">
        <ele>53</ele>
        <time>2021-01-23T12:06:34Z</time>
      </trkpt>
      <trkpt lat="43.61413" lon="3.81072">
        <ele>50.3</ele>
        <time>2021-01-23T12:06:35Z</time>
      </trkpt>
      <trkpt lat="43.61415" lon="3.8107">
        <ele>50.4</ele>
        <time>2021-01-23T12:06:36Z</time>
      </trkpt>
      <trkpt lat="43.61417" lon="3.81068">
        <ele>50.6</ele>
        <time>2021-01-23T12:06:37Z</time>
      </trkpt>
      <trkpt lat="43.61418" lon="3.81066">
        <ele>50.7</ele>
        <time>2021-01-23T12:06:38Z</time>
      </trkpt>
      <trkpt lat="43.61417" lon="3.81063">
        <ele>50.7</ele>
        <time>2021-01-23T12:06:39Z</time>
      </trkpt>
      <trkpt lat="43.61416" lon="3.81059">
        <ele>50.9</ele>
        <time>2021-01-23T12:06:40Z</time>
      </trkpt>
      <trkpt lat="43.61414" lon="3.81056">
        <ele>50.9</ele>
        <time>2021-01-23T12:06:41Z</time>
      </trkpt>
      <trkpt lat="43.61412" lon="3.81054">
        <ele>50.9</ele>
        <time>2021-01-23T12:06:42Z</time>
      </trkpt>
      <trkpt lat="43.61409" lon="3.81051">
        <ele>50.9</ele>
        <time>2021-01-23T12:06:43Z</time>
      </trkpt>
      <trkpt lat="43.61406" lon="3.81049">
        <ele>53</ele>
        <time>2021-01-23T12:06:44Z</time>
      </trkpt>
      <trkpt lat="43.61403" lon="3.81045">
        <ele>50.9</ele>
        <time>2021-01-23T12:06:45Z</time>
      </trkpt>
      <trkpt lat="43.61401" lon="3.81042">
        <ele>50.9</ele>
        <time>2021-01-23T12:06:46Z</time>
      </trkpt>
      <trkpt lat="43.61399" lon="3.81037">
        <ele>51</ele>
        <time>2021-01-23T12:06:47Z</time>
      </trkpt>
      <trkpt lat="43.61398" lon="3.81033">
        <ele>51.1</ele>
        <time>2021-01-23T12:06:48Z</time>
      </trkpt>
      <trkpt lat="43.61397" lon="3.81028">
        <ele>51.3</ele>
        <time>2021-01-23T12:06:49Z</time>
      </trkpt>
      <trkpt lat="43.61397" lon="3.81023">
        <ele>51.3</ele>
        <time>2021-01-23T12:06:50Z</time>
      </trkpt>
      <trkpt lat="43.61396" lon="3.81019">
        <ele>51.3</ele>
        <time>2021-01-23T12:06:51Z</time>
      </trkpt>
      <trkpt lat="43.61396" lon="3.81014">
        <ele>51.4</ele>
        <time>2021-01-23T12:06:52Z</time>
      </trkpt>
      <trkpt lat="43.61395" lon="3.81009">
        <ele>51.4</ele>
        <time>2021-01-23T12:06:53Z</time>
      </trkpt>
      <trkpt lat="43.61395" lon="3.81004">
        <ele>53</ele>
        <time>2021-01-23T12:06:54Z</time>
      </trkpt>
      <trkpt lat="43.61394" lon="3.80995">
        <ele>51.5</ele>
        <time>2021-01-23T12:06:55Z</time>
      </trkpt>
      <trkpt lat="43.61394" lon="3.80986">
        <ele>51.9</ele>
        <time>2021-01-23T12:06:57Z</time>
      </trkpt>
      <trkpt lat="43.61393" lon="3.80981">
        <ele>52</ele>
        <time>2021-01-23T12:06:58Z</time>
      </trkpt>
      <trkpt lat="43.61393" lon="3.80977">
        <ele>52.1</ele>
        <time>2021-01-23T12:06:59Z</time>
      </trkpt>
      <trkpt lat="43.61393" lon="3.80972">
        <ele>52.3</ele>
        <time>2021-01-23T12:07:00Z</time>
      </trkpt>
      <trkpt lat="43.61391" lon="3.80967">
        <ele>52.3</ele>
        <time>2021-01-23T12:07:01Z</time>
      </trkpt>
      <trkpt lat="43.61391" lon="3.80962">
        <ele>52.5</ele>
        <time>2021-01-23T12:07:02Z</time>
      </trkpt>
      <trkpt lat="43.6139" lon="3.80957">
        <ele>52.6</ele>
        <time>2021-01-23T12:07:03Z</time>
      </trkpt>
      <trkpt lat="43.61389" lon="3.80953">
        <ele>52.7</ele>
        <time>2021-01-23T12:07:05Z</time>
      </trkpt>
      <trkpt lat="43.61388" lon="3.80948">
        <ele>52.9</ele>
        <time>2021-01-23T12:07:06Z</time>
      </trkpt>
      <trkpt lat="43.61388" lon="3.80944">
        <ele>53</ele>
        <time>2021-01-23T12:07:07Z</time>
      </trkpt>
      <trkpt lat="43.61387" lon="3.80939">
        <ele>53.2</ele>
        <time>2021-01-23T12:07:08Z</time>
      </trkpt>
      <trkpt lat="43.61387" lon="3.80934">
        <ele>53.4</ele>
        <time>2021-01-23T12:07:09Z</time>
      </trkpt>
      <trkpt lat="43.61386" lon="3.80929">
        <ele>53.5</ele>
        <time>2021-01-23T12:07:10Z</time>
      </trkpt>
      <trkpt lat="43.61386" lon="3.80925">
        <ele>53.6</ele>
        <time>2021-01-23T12:07:11Z</time>
      </trkpt>
      <trkpt lat="43.61385" lon="3.8092">
        <ele>53.8</ele>
        <time>2021-01-23T12:07:12Z</time>
      </trkpt>
      <trkpt lat="43.61384" lon="3.80915">
        <ele>53.9</ele>
        <time>2021-01-23T12:07:13Z</time>
      </trkpt>
      <trkpt lat="43.61384" lon="3.8091">
        <ele>55</ele>
        <time>2021-01-23T12:07:14Z</time>
      </trkpt>
      <trkpt lat="43.61383" lon="3.80906">
        <ele>54.2</ele>
        <time>2021-01-23T12:07:15Z</time>
      </trkpt>
      <trkpt lat="43.61383" lon="3.80901">
        <ele>54.4</ele>
        <time>2021-01-23T12:07:16Z</time>
      </trkpt>
      <trkpt lat="43.61382" lon="3.80896">
        <ele>54.5</ele>
        <time>2021-01-23T12:07:17Z</time>
      </trkpt>
      <trkpt lat="43.61382" lon="3.80892">
        <ele>54.6</ele>
        <time>2021-01-23T12:07:18Z</time>
      </trkpt>
      <trkpt lat="43.61382" lon="3.80887">
        <ele>54.8</ele>
        <time>2021-01-23T12:07:19Z</time>
      </trkpt>
      <trkpt lat="43.61381" lon="3.80882">
        <ele>54.8</ele>
        <time>2021-01-23T12:07:20Z</time>
      </trkpt>
      <trkpt lat="43.61381" lon="3.80878">
        <ele>54.9</ele>
        <time>2021-01-23T12:07:21Z</time>
      </trkpt>
      <trkpt lat="43.61381" lon="3.80873">
        <ele>55</ele>
        <time>2021-01-23T12:07:22Z</time>
      </trkpt>
      <trkpt lat="43.61381" lon="3.80868">
        <ele>55</ele>
        <time>2021-01-23T12:07:23Z</time>
      </trkpt>
      <trkpt lat="43.6138" lon="3.80863">
        <ele>57</ele>
        <time>2021-01-23T12:07:24Z</time>
      </trkpt>
      <trkpt lat="43.6138" lon="3.80858">
        <ele>54.9</ele>
        <time>2021-01-23T12:07:25Z</time>
      </trkpt>
      <trkpt lat="43.6138" lon="3.80853">
        <ele>54.7</ele>
        <time>2021-01-23T12:07:26Z</time>
      </trkpt>
      <trkpt lat="43.61379" lon="3.80847">
        <ele>54.4</ele>
        <time>2021-01-23T12:07:27Z</time>
      </trkpt>
      <trkpt lat="43.61379" lon="3.80842">
        <ele>54.2</ele>
        <time>2021-01-23T12:07:28Z</time>
      </trkpt>
      <trkpt lat="43.61379" lon="3.80837">
        <ele>54.1</ele>
        <time>2021-01-23T12:07:29Z</time>
      </trkpt>
      <trkpt lat="43.61379" lon="3.80832">
        <ele>54</ele>
        <time>2021-01-23T12:07:30Z</time>
      </trkpt>
      <trkpt lat="43.61379" lon="3.80827">
        <ele>54.1</ele>
        <time>2021-01-23T12:07:31Z</time>
      </trkpt>
      <trkpt lat="43.61378" lon="3.80821">
        <ele>54.1</ele>
        <time>2021-01-23T12:07:32Z</time>
      </trkpt>
      <trkpt lat="43.61378" lon="3.80816">
        <ele>54.2</ele>
        <time>2021-01-23T12:07:33Z</time>
      </trkpt>
      <trkpt lat="43.61378" lon="3.80811">
        <ele>57</ele>
        <time>2021-01-23T12:07:34Z</time>
      </trkpt>
      <trkpt lat="43.61378" lon="3.80805">
        <ele>54.4</ele>
        <time>2021-01-23T12:07:35Z</time>
      </trkpt>
      <trkpt lat="43.61377" lon="3.808">
        <ele>54.3</ele>
        <time>2021-01-23T12:07:36Z</time>
      </trkpt>
      <trkpt lat="43.61377" lon="3.80795">
        <ele>54.3</ele>
        <time>2021-01-23T12:07:37Z</time>
      </trkpt>
      <trkpt lat="43.61377" lon="3.8079">
        <ele>54.3</ele>
        <time>2021-01-23T12:07:38Z</time>
      </trkpt>
      <trkpt lat="43.61377" lon="3.80784">
        <ele>54.3</ele>
        <time>2021-01-23T12:07:39Z</time>
      </trkpt>
      <trkpt lat="43.61377" lon="3.80779">
        <ele>54.3</ele>
        <time>2021-01-23T12:07:40Z</time>
      </trkpt>
      <trkpt lat="43.61378" lon="3.80774">
        <ele>54.4</ele>
        <time>2021-01-23T12:07:41Z</time>
      </trkpt>
      <trkpt lat="43.61378" lon="3.80769">
        <ele>54.4</ele>
        <time>2021-01-23T12:07:42Z</time>
      </trkpt>
      <trkpt lat="43.61378" lon="3.80764">
        <ele>54.3</ele>
        <time>2021-01-23T12:07:43Z</time>
      </trkpt>
      <trkpt lat="43.61378" lon="3.80759">
        <ele>58</ele>
        <time>2021-01-23T12:07:44Z</time>
      </trkpt>
      <trkpt lat="43.61379" lon="3.80754">
        <ele>54.3</ele>
        <time>2021-01-23T12:07:45Z</time>
      </trkpt>
      <trkpt lat="43.61379" lon="3.80749">
        <ele>54.3</ele>
        <time>2021-01-23T12:07:46Z</time>
      </trkpt>
      <trkpt lat="43.6138" lon="3.80744">
        <ele>54.4</ele>
        <time>2021-01-23T12:07:47Z</time>
      </trkpt>
      <trkpt lat="43.6138" lon="3.80739">
        <ele>54.4</ele>
        <time>2021-01-23T12:07:48Z</time>
      </trkpt>
      <trkpt lat="43.61381" lon="3.80733">
        <ele>54.4</ele>
        <time>2021-01-23T12:07:49Z</time>
      </trkpt>
      <trkpt lat="43.61381" lon="3.80728">
        <ele>54.4</ele>
        <time>2021-01-23T12:07:50Z</time>
      </trkpt>
      <trkpt lat="43.61382" lon="3.80723">
        <ele>54.5</ele>
        <time>2021-01-23T12:07:51Z</time>
      </trkpt>
      <trkpt lat="43.61382" lon="3.80718">
        <ele>54.5</ele>
        <time>2021-01-23T12:07:52Z</time>
      </trkpt>
      <trkpt lat="43.61383" lon="3.80713">
        <ele>54.6</ele>
        <time>2021-01-23T12:07:53Z</time>
      </trkpt>
      <trkpt lat="43.61384" lon="3.80708">
        <ele>59</ele>
        <time>2021-01-23T12:07:54Z</time>
      </trkpt>
      <trkpt lat="43.61384" lon="3.80703">
        <ele>54.6</ele>
        <time>2021-01-23T12:07:55Z</time>
      </trkpt>
      <trkpt lat="43.61385" lon="3.80697">
        <ele>54.7</ele>
        <time>2021-01-23T12:07:56Z</time>
      </trkpt>
      <trkpt lat="43.61386" lon="3.80692">
        <ele>54.8</ele>
        <time>2021-01-23T12:07:57Z</time>
      </trkpt>
      <trkpt lat="43.61387" lon="3.80687">
        <ele>54.8</ele>
        <time>2021-01-23T12:07:58Z</time>
      </trkpt>
      <trkpt lat="43.61388" lon="3.80682">
        <ele>54.9</ele>
        <time>2021-01-23T12:07:59Z</time>
      </trkpt>
      <trkpt lat="43.61388" lon="3.80677">
        <ele>54.9</ele>
        <time>2021-01-23T12:08:00Z</time>
      </trkpt>
      <trkpt lat="43.61389" lon="3.80672">
        <ele>55</ele>
        <time>2021-01-23T12:08:01Z</time>
      </trkpt>
      <trkpt lat="43.61389" lon="3.80667">
        <ele>55</ele>
        <time>2021-01-23T12:08:02Z</time>
      </trkpt>
      <trkpt lat="43.61389" lon="3.80661">
        <ele>55</ele>
        <time>2021-01-23T12:08:03Z</time>
      </trkpt>
      <trkpt lat="43.61389" lon="3.80656">
        <ele>59</ele>
        <time>2021-01-23T12:08:04Z</time>
      </trkpt>
      <trkpt lat="43.61389" lon="3.80651">
        <ele>55</ele>
        <time>2021-01-23T12:08:05Z</time>
      </trkpt>
      <trkpt lat="43.61389" lon="3.80645">
        <ele>55</ele>
        <time>2021-01-23T12:08:06Z</time>
      </trkpt>
      <trkpt lat="43.61389" lon="3.8064">
        <ele>55</ele>
        <time>2021-01-23T12:08:07Z</time>
      </trkpt>
      <trkpt lat="43.61389" lon="3.80635">
        <ele>55.1</ele>
        <time>2021-01-23T12:08:08Z</time>
      </trkpt>
      <trkpt lat="43.61389" lon="3.8063">
        <ele>55.3</ele>
        <time>2021-01-23T12:08:09Z</time>
      </trkpt>
      <trkpt lat="43.61391" lon="3.80626">
        <ele>55.5</ele>
        <time>2021-01-23T12:08:10Z</time>
      </trkpt>
      <trkpt lat="43.61392" lon="3.80621">
        <ele>55.8</ele>
        <time>2021-01-23T12:08:11Z</time>
      </trkpt>
      <trkpt lat="43.61394" lon="3.80616">
        <ele>56</ele>
        <time>2021-01-23T12:08:12Z</time>
      </trkpt>
      <trkpt lat="43.61395" lon="3.80611">
        <ele>56.2</ele>
        <time>2021-01-23T12:08:13Z</time>
      </trkpt>
      <trkpt lat="43.61396" lon="3.80606">
        <ele>60</ele>
        <time>2021-01-23T12:08:14Z</time>
      </trkpt>
      <trkpt lat="43.61396" lon="3.80601">
        <ele>56.3</ele>
        <time>2021-01-23T12:08:15Z</time>
      </trkpt>
      <trkpt lat="43.61395" lon="3.80596">
        <ele>56.2</ele>
        <time>2021-01-23T12:08:16Z</time>
      </trkpt>
      <trkpt lat="43.61394" lon="3.80591">
        <ele>56.2</ele>
        <time>2021-01-23T12:08:17Z</time>
      </trkpt>
      <trkpt lat="43.61394" lon="3.80586">
        <ele>56.2</ele>
        <time>2021-01-23T12:08:18Z</time>
      </trkpt>
      <trkpt lat="43.61394" lon="3.80581">
        <ele>56.3</ele>
        <time>2021-01-23T12:08:19Z</time>
      </trkpt>
      <trkpt lat="43.61394" lon="3.80577">
        <ele>56.4</ele>
        <time>2021-01-23T12:08:20Z</time>
      </trkpt>
      <trkpt lat="43.61394" lon="3.80572">
        <ele>56.5</ele>
        <time>2021-01-23T12:08:21Z</time>
      </trkpt>
      <trkpt lat="43.61395" lon="3.80567">
        <ele>56.7</ele>
        <time>2021-01-23T12:08:22Z</time>
      </trkpt>
      <trkpt lat="43.61396" lon="3.80563">
        <ele>56.8</ele>
        <time>2021-01-23T12:08:23Z</time>
      </trkpt>
      <trkpt lat="43.61397" lon="3.80559">
        <ele>61</ele>
        <time>2021-01-23T12:08:24Z</time>
      </trkpt>
      <trkpt lat="43.61397" lon="3.80554">
        <ele>57</ele>
        <time>2021-01-23T12:08:25Z</time>
      </trkpt>
      <trkpt lat="43.61398" lon="3.8055">
        <ele>57.1</ele>
        <time>2021-01-23T12:08:26Z</time>
      </trkpt>
      <trkpt lat="43.61398" lon="3.80546">
        <ele>57.2</ele>
        <time>2021-01-23T12:08:27Z</time>
      </trkpt>
      <trkpt lat="43.61399" lon="3.80541">
        <ele>57.3</ele>
        <time>2021-01-23T12:08:28Z</time>
      </trkpt>
      <trkpt lat="43.61399" lon="3.80537">
        <ele>57.4</ele>
        <time>2021-01-23T12:08:29Z</time>
      </trkpt>
      <trkpt lat="43.614" lon="3.80533">
        <ele>57.5</ele>
        <time>2021-01-23T12:08:30Z</time>
      </trkpt>
      <trkpt lat="43.61401" lon="3.80529">
        <ele>57.5</ele>
        <time>2021-01-23T12:08:31Z</time>
      </trkpt>
      <trkpt lat="43.61401" lon="3.80524">
        <ele>57.6</ele>
        <time>2021-01-23T12:08:32Z</time>
      </trkpt>
      <trkpt lat="43.61401" lon="3.8052">
        <ele>57.7</ele>
        <time>2021-01-23T12:08:33Z</time>
      </trkpt>
      <trkpt lat="43.61402" lon="3.80515">
        <ele>61</ele>
        <time>2021-01-23T12:08:34Z</time>
      </trkpt>
      <trkpt lat="43.61402" lon="3.8051">
        <ele>57.8</ele>
        <time>2021-01-23T12:08:35Z</time>
      </trkpt>
      <trkpt lat="43.61403" lon="3.80505">
        <ele>57.9</ele>
        <time>2021-01-23T12:08:36Z</time>
      </trkpt>
      <trkpt lat="43.61403" lon="3.80499">
        <ele>58</ele>
        <time>2021-01-23T12:08:37Z</time>
      </trkpt>
      <trkpt lat="43.61404" lon="3.80494">
        <ele>58</ele>
        <time>2021-01-23T12:08:38Z</time>
      </trkpt>
      <trkpt lat="43.61404" lon="3.80489">
        <ele>58</ele>
        <time>2021-01-23T12:08:39Z</time>
      </trkpt>
      <trkpt lat="43.61404" lon="3.80484">
        <ele>58</ele>
        <time>2021-01-23T12:08:40Z</time>
      </trkpt>
      <trkpt lat="43.61405" lon="3.80478">
        <ele>58</ele>
        <time>2021-01-23T12:08:41Z</time>
      </trkpt>
      <trkpt lat="43.61406" lon="3.80473">
        <ele>58</ele>
        <time>2021-01-23T12:08:42Z</time>
      </trkpt>
      <trkpt lat="43.61406" lon="3.80468">
        <ele>58.1</ele>
        <time>2021-01-23T12:08:43Z</time>
      </trkpt>
      <trkpt lat="43.61406" lon="3.80463">
        <ele>61</ele>
        <time>2021-01-23T12:08:44Z</time>
      </trkpt>
      <trkpt lat="43.61406" lon="3.80458">
        <ele>58.2</ele>
        <time>2021-01-23T12:08:45Z</time>
      </trkpt>
      <trkpt lat="43.61405" lon="3.80453">
        <ele>58.3</ele>
        <time>2021-01-23T12:08:46Z</time>
      </trkpt>
      <trkpt lat="43.61405" lon="3.80448">
        <ele>58.4</ele>
        <time>2021-01-23T12:08:47Z</time>
      </trkpt>
      <trkpt lat="43.61404" lon="3.80444">
        <ele>58.5</ele>
        <time>2021-01-23T12:08:48Z</time>
      </trkpt>
      <trkpt lat="43.61404" lon="3.80439">
        <ele>58.5</ele>
        <time>2021-01-23T12:08:49Z</time>
      </trkpt>
      <trkpt lat="43.61405" lon="3.80434">
        <ele>58.6</ele>
        <time>2021-01-23T12:08:50Z</time>
      </trkpt>
      <trkpt lat="43.61405" lon="3.8043">
        <ele>58.6</ele>
        <time>2021-01-23T12:08:51Z</time>
      </trkpt>
      <trkpt lat="43.61406" lon="3.80425">
        <ele>58.7</ele>
        <time>2021-01-23T12:08:52Z</time>
      </trkpt>
      <trkpt lat="43.61406" lon="3.8042">
        <ele>58.7</ele>
        <time>2021-01-23T12:08:53Z</time>
      </trkpt>
      <trkpt lat="43.61407" lon="3.80409">
        <ele>63</ele>
        <time>2021-01-23T12:08:54Z</time>
      </trkpt>
      <trkpt lat="43.61408" lon="3.80404">
        <ele>59.1</ele>
        <time>2021-01-23T12:08:55Z</time>
      </trkpt>
      <trkpt lat="43.61409" lon="3.80399">
        <ele>59.2</ele>
        <time>2021-01-23T12:08:56Z</time>
      </trkpt>
      <trkpt lat="43.61409" lon="3.80394">
        <ele>59.4</ele>
        <time>2021-01-23T12:08:57Z</time>
      </trkpt>
      <trkpt lat="43.6141" lon="3.80389">
        <ele>59.5</ele>
        <time>2021-01-23T12:08:58Z</time>
      </trkpt>
      <trkpt lat="43.6141" lon="3.80385">
        <ele>59.6</ele>
        <time>2021-01-23T12:08:59Z</time>
      </trkpt>
      <trkpt lat="43.61409" lon="3.8038">
        <ele>59.9</ele>
        <time>2021-01-23T12:09:00Z</time>
      </trkpt>
      <trkpt lat="43.61407" lon="3.80377">
        <ele>60.1</ele>
        <time>2021-01-23T12:09:01Z</time>
      </trkpt>
      <trkpt lat="43.61406" lon="3.80368">
        <ele>60.5</ele>
        <time>2021-01-23T12:09:03Z</time>
      </trkpt>
      <trkpt lat="43.61407" lon="3.80363">
        <ele>64</ele>
        <time>2021-01-23T12:09:05Z</time>
      </trkpt>
      <trkpt lat="43.61407" lon="3.80358">
        <ele>60.7</ele>
        <time>2021-01-23T12:09:06Z</time>
      </trkpt>
      <trkpt lat="43.61407" lon="3.80354">
        <ele>60.7</ele>
        <time>2021-01-23T12:09:07Z</time>
      </trkpt>
      <trkpt lat="43.61408" lon="3.80349">
        <ele>60.6</ele>
        <time>2021-01-23T12:09:08Z</time>
      </trkpt>
      <trkpt lat="43.61408" lon="3.80344">
        <ele>60.6</ele>
        <time>2021-01-23T12:09:09Z</time>
      </trkpt>
      <trkpt lat="43.61409" lon="3.8034">
        <ele>60.6</ele>
        <time>2021-01-23T12:09:10Z</time>
      </trkpt>
      <trkpt lat="43.61409" lon="3.80335">
        <ele>60.6</ele>
        <time>2021-01-23T12:09:11Z</time>
      </trkpt>
      <trkpt lat="43.61409" lon="3.8033">
        <ele>60.6</ele>
        <time>2021-01-23T12:09:12Z</time>
      </trkpt>
      <trkpt lat="43.6141" lon="3.80326">
        <ele>60.7</ele>
        <time>2021-01-23T12:09:13Z</time>
      </trkpt>
      <trkpt lat="43.6141" lon="3.80321">
        <ele>65</ele>
        <time>2021-01-23T12:09:14Z</time>
      </trkpt>
      <trkpt lat="43.6141" lon="3.80316">
        <ele>61</ele>
        <time>2021-01-23T12:09:15Z</time>
      </trkpt>
      <trkpt lat="43.61411" lon="3.80311">
        <ele>61</ele>
        <time>2021-01-23T12:09:16Z</time>
      </trkpt>
      <trkpt lat="43.61411" lon="3.80307">
        <ele>61.2</ele>
        <time>2021-01-23T12:09:17Z</time>
      </trkpt>
      <trkpt lat="43.61411" lon="3.80302">
        <ele>61.2</ele>
        <time>2021-01-23T12:09:18Z</time>
      </trkpt>
      <trkpt lat="43.61412" lon="3.80297">
        <ele>61.2</ele>
        <time>2021-01-23T12:09:19Z</time>
      </trkpt>
      <trkpt lat="43.61412" lon="3.80292">
        <ele>61.2</ele>
        <time>2021-01-23T12:09:20Z</time>
      </trkpt>
      <trkpt lat="43.61413" lon="3.80288">
        <ele>61.2</ele>
        <time>2021-01-23T12:09:21Z</time>
      </trkpt>
      <trkpt lat="43.61413" lon="3.80283">
        <ele>61.2</ele>
        <time>2021-01-23T12:09:22Z</time>
      </trkpt>
      <trkpt lat="43.61413" lon="3.80278">
        <ele>61.3</ele>
        <time>2021-01-23T12:09:23Z</time>
      </trkpt>
      <trkpt lat="43.61414" lon="3.80269">
        <ele>66</ele>
        <time>2021-01-23T12:09:24Z</time>
      </trkpt>
      <trkpt lat="43.61414" lon="3.80264">
        <ele>61.6</ele>
        <time>2021-01-23T12:09:25Z</time>
      </trkpt>
      <trkpt lat="43.61415" lon="3.80259">
        <ele>61.8</ele>
        <time>2021-01-23T12:09:26Z</time>
      </trkpt>
      <trkpt lat="43.61415" lon="3.80255">
        <ele>61.9</ele>
        <time>2021-01-23T12:09:27Z</time>
      </trkpt>
      <trkpt lat="43.61416" lon="3.8025">
        <ele>62</ele>
        <time>2021-01-23T12:09:28Z</time>
      </trkpt>
      <trkpt lat="43.61416" lon="3.80245">
        <ele>62.2</ele>
        <time>2021-01-23T12:09:29Z</time>
      </trkpt>
      <trkpt lat="43.61417" lon="3.80241">
        <ele>62.3</ele>
        <time>2021-01-23T12:09:30Z</time>
      </trkpt>
      <trkpt lat="43.61418" lon="3.80236">
        <ele>62.5</ele>
        <time>2021-01-23T12:09:31Z</time>
      </trkpt>
      <trkpt lat="43.6142" lon="3.80227">
        <ele>62.7</ele>
        <time>2021-01-23T12:09:33Z</time>
      </trkpt>
      <trkpt lat="43.61421" lon="3.80223">
        <ele>62.8</ele>
        <time>2021-01-23T12:09:35Z</time>
      </trkpt>
      <trkpt lat="43.61422" lon="3.80218">
        <ele>62.8</ele>
        <time>2021-01-23T12:09:36Z</time>
      </trkpt>
      <trkpt lat="43.61422" lon="3.80213">
        <ele>62.9</ele>
        <time>2021-01-23T12:09:37Z</time>
      </trkpt>
      <trkpt lat="43.61423" lon="3.80209">
        <ele>62.9</ele>
        <time>2021-01-23T12:09:38Z</time>
      </trkpt>
      <trkpt lat="43.61424" lon="3.80204">
        <ele>62.9</ele>
        <time>2021-01-23T12:09:39Z</time>
      </trkpt>
      <trkpt lat="43.61425" lon="3.80199">
        <ele>63</ele>
        <time>2021-01-23T12:09:40Z</time>
      </trkpt>
      <trkpt lat="43.61426" lon="3.80195">
        <ele>63</ele>
        <time>2021-01-23T12:09:41Z</time>
      </trkpt>
      <trkpt lat="43.61427" lon="3.8019">
        <ele>63.2</ele>
        <time>2021-01-23T12:09:42Z</time>
      </trkpt>
      <trkpt lat="43.61428" lon="3.80185">
        <ele>63.3</ele>
        <time>2021-01-23T12:09:43Z</time>
      </trkpt>
      <trkpt lat="43.61429" lon="3.8018">
        <ele>69</ele>
        <time>2021-01-23T12:09:44Z</time>
      </trkpt>
      <trkpt lat="43.61429" lon="3.80176">
        <ele>63.7</ele>
        <time>2021-01-23T12:09:45Z</time>
      </trkpt>
      <trkpt lat="43.6143" lon="3.80171">
        <ele>63.8</ele>
        <time>2021-01-23T12:09:46Z</time>
      </trkpt>
      <trkpt lat="43.61431" lon="3.80166">
        <ele>64</ele>
        <time>2021-01-23T12:09:47Z</time>
      </trkpt>
      <trkpt lat="43.61432" lon="3.80161">
        <ele>64</ele>
        <time>2021-01-23T12:09:48Z</time>
      </trkpt>
      <trkpt lat="43.61433" lon="3.80157">
        <ele>64</ele>
        <time>2021-01-23T12:09:49Z</time>
      </trkpt>
      <trkpt lat="43.61434" lon="3.80152">
        <ele>64</ele>
        <time>2021-01-23T12:09:50Z</time>
      </trkpt>
      <trkpt lat="43.61435" lon="3.80147">
        <ele>64</ele>
        <time>2021-01-23T12:09:51Z</time>
      </trkpt>
      <trkpt lat="43.61436" lon="3.80143">
        <ele>64</ele>
        <time>2021-01-23T12:09:52Z</time>
      </trkpt>
      <trkpt lat="43.61437" lon="3.80138">
        <ele>64</ele>
        <time>2021-01-23T12:09:53Z</time>
      </trkpt>
      <trkpt lat="43.61437" lon="3.80134">
        <ele>70</ele>
        <time>2021-01-23T12:09:54Z</time>
      </trkpt>
      <trkpt lat="43.61438" lon="3.80129">
        <ele>64.3</ele>
        <time>2021-01-23T12:09:55Z</time>
      </trkpt>
      <trkpt lat="43.61439" lon="3.80125">
        <ele>64.4</ele>
        <time>2021-01-23T12:09:56Z</time>
      </trkpt>
      <trkpt lat="43.6144" lon="3.8012">
        <ele>64.6</ele>
        <time>2021-01-23T12:09:57Z</time>
      </trkpt>
      <trkpt lat="43.61442" lon="3.80116">
        <ele>64.8</ele>
        <time>2021-01-23T12:09:58Z</time>
      </trkpt>
      <trkpt lat="43.61443" lon="3.80111">
        <ele>64.9</ele>
        <time>2021-01-23T12:09:59Z</time>
      </trkpt>
      <trkpt lat="43.61444" lon="3.80107">
        <ele>65</ele>
        <time>2021-01-23T12:10:00Z</time>
      </trkpt>
      <trkpt lat="43.61445" lon="3.80102">
        <ele>65</ele>
        <time>2021-01-23T12:10:01Z</time>
      </trkpt>
      <trkpt lat="43.61446" lon="3.80098">
        <ele>65</ele>
        <time>2021-01-23T12:10:02Z</time>
      </trkpt>
      <trkpt lat="43.61447" lon="3.80093">
        <ele>65.1</ele>
        <time>2021-01-23T12:10:03Z</time>
      </trkpt>
      <trkpt lat="43.61448" lon="3.80089">
        <ele>65.1</ele>
        <time>2021-01-23T12:10:04Z</time>
      </trkpt>
      <trkpt lat="43.61449" lon="3.80081">
        <ele>70</ele>
        <time>2021-01-23T12:10:05Z</time>
      </trkpt>
      <trkpt lat="43.6145" lon="3.80076">
        <ele>65.4</ele>
        <time>2021-01-23T12:10:06Z</time>
      </trkpt>
      <trkpt lat="43.61451" lon="3.80072">
        <ele>65.5</ele>
        <time>2021-01-23T12:10:07Z</time>
      </trkpt>
      <trkpt lat="43.61452" lon="3.80068">
        <ele>65.7</ele>
        <time>2021-01-23T12:10:08Z</time>
      </trkpt>
      <trkpt lat="43.61454" lon="3.80064">
        <ele>65.8</ele>
        <time>2021-01-23T12:10:09Z</time>
      </trkpt>
      <trkpt lat="43.61456" lon="3.80061">
        <ele>65.9</ele>
        <time>2021-01-23T12:10:10Z</time>
      </trkpt>
      <trkpt lat="43.61458" lon="3.80058">
        <ele>66</ele>
        <time>2021-01-23T12:10:11Z</time>
      </trkpt>
      <trkpt lat="43.61462" lon="3.80057">
        <ele>66</ele>
        <time>2021-01-23T12:10:13Z</time>
      </trkpt>
      <trkpt lat="43.61465" lon="3.80057">
        <ele>66</ele>
        <time>2021-01-23T12:10:16Z</time>
      </trkpt>
      <trkpt lat="43.61467" lon="3.80054">
        <ele>66</ele>
        <time>2021-01-23T12:10:17Z</time>
      </trkpt>
      <trkpt lat="43.61468" lon="3.80051">
        <ele>66.1</ele>
        <time>2021-01-23T12:10:18Z</time>
      </trkpt>
      <trkpt lat="43.61467" lon="3.80047">
        <ele>66.3</ele>
        <time>2021-01-23T12:10:19Z</time>
      </trkpt>
      <trkpt lat="43.61466" lon="3.80043">
        <ele>66.4</ele>
        <time>2021-01-23T12:10:20Z</time>
      </trkpt>
      <trkpt lat="43.61463" lon="3.80039">
        <ele>66.4</ele>
        <time>2021-01-23T12:10:21Z</time>
      </trkpt>
      <trkpt lat="43.6146" lon="3.80036">
        <ele>66.4</ele>
        <time>2021-01-23T12:10:22Z</time>
      </trkpt>
      <trkpt lat="43.61458" lon="3.80033">
        <ele>66.4</ele>
        <time>2021-01-23T12:10:23Z</time>
      </trkpt>
      <trkpt lat="43.61455" lon="3.80031">
        <ele>69</ele>
        <time>2021-01-23T12:10:24Z</time>
      </trkpt>
      <trkpt lat="43.61452" lon="3.8003">
        <ele>66.3</ele>
        <time>2021-01-23T12:10:25Z</time>
      </trkpt>
      <trkpt lat="43.61448" lon="3.8003">
        <ele>66.1</ele>
        <time>2021-01-23T12:10:26Z</time>
      </trkpt>
      <trkpt lat="43.61445" lon="3.80028">
        <ele>66</ele>
        <time>2021-01-23T12:10:27Z</time>
      </trkpt>
      <trkpt lat="43.61441" lon="3.80026">
        <ele>65.8</ele>
        <time>2021-01-23T12:10:28Z</time>
      </trkpt>
      <trkpt lat="43.61438" lon="3.80021">
        <ele>65.5</ele>
        <time>2021-01-23T12:10:29Z</time>
      </trkpt>
      <trkpt lat="43.61435" lon="3.80016">
        <ele>65.3</ele>
        <time>2021-01-23T12:10:30Z</time>
      </trkpt>
      <trkpt lat="43.61433" lon="3.80009">
        <ele>65.2</ele>
        <time>2021-01-23T12:10:31Z</time>
      </trkpt>
      <trkpt lat="43.61431" lon="3.80001">
        <ele>65</ele>
        <time>2021-01-23T12:10:32Z</time>
      </trkpt>
      <trkpt lat="43.6143" lon="3.79993">
        <ele>64.7</ele>
        <time>2021-01-23T12:10:33Z</time>
      </trkpt>
      <trkpt lat="43.61427" lon="3.79984">
        <ele>65</ele>
        <time>2021-01-23T12:10:34Z</time>
      </trkpt>
      <trkpt lat="43.61424" lon="3.79976">
        <ele>63.3</ele>
        <time>2021-01-23T12:10:35Z</time>
      </trkpt>
      <trkpt lat="43.61421" lon="3.79966">
        <ele>62.6</ele>
        <time>2021-01-23T12:10:36Z</time>
      </trkpt>
      <trkpt lat="43.61417" lon="3.79957">
        <ele>62</ele>
        <time>2021-01-23T12:10:37Z</time>
      </trkpt>
      <trkpt lat="43.61414" lon="3.79948">
        <ele>62.3</ele>
        <time>2021-01-23T12:10:38Z</time>
      </trkpt>
      <trkpt lat="43.6141" lon="3.79939">
        <ele>63.1</ele>
        <time>2021-01-23T12:10:39Z</time>
      </trkpt>
      <trkpt lat="43.61406" lon="3.79931">
        <ele>63.7</ele>
        <time>2021-01-23T12:10:40Z</time>
      </trkpt>
      <trkpt lat="43.61403" lon="3.79923">
        <ele>63.9</ele>
        <time>2021-01-23T12:10:41Z</time>
      </trkpt>
      <trkpt lat="43.614" lon="3.79917">
        <ele>63.8</ele>
        <time>2021-01-23T12:10:42Z</time>
      </trkpt>
      <trkpt lat="43.61397" lon="3.79911">
        <ele>63.5</ele>
        <time>2021-01-23T12:10:43Z</time>
      </trkpt>
      <trkpt lat="43.61395" lon="3.79906">
        <ele>64</ele>
        <time>2021-01-23T12:10:44Z</time>
      </trkpt>
      <trkpt lat="43.61393" lon="3.79902">
        <ele>63.1</ele>
        <time>2021-01-23T12:10:45Z</time>
      </trkpt>
      <trkpt lat="43.61391" lon="3.79898">
        <ele>63</ele>
        <time>2021-01-23T12:10:46Z</time>
      </trkpt>
      <trkpt lat="43.61389" lon="3.79894">
        <ele>63</ele>
        <time>2021-01-23T12:10:47Z</time>
      </trkpt>
      <trkpt lat="43.61387" lon="3.79891">
        <ele>63.1</ele>
        <time>2021-01-23T12:10:48Z</time>
      </trkpt>
      <trkpt lat="43.61385" lon="3.79888">
        <ele>63.1</ele>
        <time>2021-01-23T12:10:49Z</time>
      </trkpt>
      <trkpt lat="43.61384" lon="3.79883">
        <ele>63</ele>
        <time>2021-01-23T12:10:50Z</time>
      </trkpt>
      <trkpt lat="43.61384" lon="3.79878">
        <ele>62.9</ele>
        <time>2021-01-23T12:10:51Z</time>
      </trkpt>
      <trkpt lat="43.61385" lon="3.79873">
        <ele>62.6</ele>
        <time>2021-01-23T12:10:52Z</time>
      </trkpt>
      <trkpt lat="43.61385" lon="3.79868">
        <ele>62.5</ele>
        <time>2021-01-23T12:10:53Z</time>
      </trkpt>
      <trkpt lat="43.61386" lon="3.79863">
        <ele>65</ele>
        <time>2021-01-23T12:10:54Z</time>
      </trkpt>
      <trkpt lat="43.61388" lon="3.79858">
        <ele>62.1</ele>
        <time>2021-01-23T12:10:55Z</time>
      </trkpt>
      <trkpt lat="43.6139" lon="3.79852">
        <ele>62</ele>
        <time>2021-01-23T12:10:56Z</time>
      </trkpt>
      <trkpt lat="43.61392" lon="3.79847">
        <ele>61.9</ele>
        <time>2021-01-23T12:10:57Z</time>
      </trkpt>
      <trkpt lat="43.61394" lon="3.79841">
        <ele>61.9</ele>
        <time>2021-01-23T12:10:58Z</time>
      </trkpt>
      <trkpt lat="43.61396" lon="3.79835">
        <ele>61.8</ele>
        <time>2021-01-23T12:10:59Z</time>
      </trkpt>
      <trkpt lat="43.61396" lon="3.79829">
        <ele>61.6</ele>
        <time>2021-01-23T12:11:00Z</time>
      </trkpt>
      <trkpt lat="43.61397" lon="3.79822">
        <ele>61.3</ele>
        <time>2021-01-23T12:11:01Z</time>
      </trkpt>
      <trkpt lat="43.61397" lon="3.79815">
        <ele>61</ele>
        <time>2021-01-23T12:11:02Z</time>
      </trkpt>
      <trkpt lat="43.61398" lon="3.79808">
        <ele>60.8</ele>
        <time>2021-01-23T12:11:03Z</time>
      </trkpt>
      <trkpt lat="43.61398" lon="3.798">
        <ele>64</ele>
        <time>2021-01-23T12:11:04Z</time>
      </trkpt>
      <trkpt lat="43.61399" lon="3.79792">
        <ele>60.3</ele>
        <time>2021-01-23T12:11:05Z</time>
      </trkpt>
      <trkpt lat="43.61401" lon="3.79784">
        <ele>60.1</ele>
        <time>2021-01-23T12:11:06Z</time>
      </trkpt>
      <trkpt lat="43.61403" lon="3.79776">
        <ele>59.9</ele>
        <time>2021-01-23T12:11:07Z</time>
      </trkpt>
      <trkpt lat="43.61405" lon="3.79768">
        <ele>59.4</ele>
        <time>2021-01-23T12:11:08Z</time>
      </trkpt>
      <trkpt lat="43.61407" lon="3.79759">
        <ele>58.9</ele>
        <time>2021-01-23T12:11:09Z</time>
      </trkpt>
      <trkpt lat="43.61409" lon="3.79751">
        <ele>58.3</ele>
        <time>2021-01-23T12:11:10Z</time>
      </trkpt>
      <trkpt lat="43.61412" lon="3.79742">
        <ele>57.9</ele>
        <time>2021-01-23T12:11:11Z</time>
      </trkpt>
      <trkpt lat="43.61414" lon="3.79734">
        <ele>57.5</ele>
        <time>2021-01-23T12:11:12Z</time>
      </trkpt>
      <trkpt lat="43.61417" lon="3.79726">
        <ele>57.1</ele>
        <time>2021-01-23T12:11:13Z</time>
      </trkpt>
      <trkpt lat="43.6142" lon="3.79717">
        <ele>62</ele>
        <time>2021-01-23T12:11:14Z</time>
      </trkpt>
      <trkpt lat="43.61422" lon="3.79709">
        <ele>57.2</ele>
        <time>2021-01-23T12:11:15Z</time>
      </trkpt>
      <trkpt lat="43.61425" lon="3.797">
        <ele>57.3</ele>
        <time>2021-01-23T12:11:16Z</time>
      </trkpt>
      <trkpt lat="43.61428" lon="3.7969">
        <ele>57.1</ele>
        <time>2021-01-23T12:11:17Z</time>
      </trkpt>
      <trkpt lat="43.61431" lon="3.79681">
        <ele>56.5</ele>
        <time>2021-01-23T12:11:18Z</time>
      </trkpt>
      <trkpt lat="43.61434" lon="3.79672">
        <ele>56</ele>
        <time>2021-01-23T12:11:19Z</time>
      </trkpt>
      <trkpt lat="43.61437" lon="3.79662">
        <ele>55.4</ele>
        <time>2021-01-23T12:11:20Z</time>
      </trkpt>
      <trkpt lat="43.6144" lon="3.79653">
        <ele>54.9</ele>
        <time>2021-01-23T12:11:21Z</time>
      </trkpt>
      <trkpt lat="43.61442" lon="3.79644">
        <ele>54.3</ele>
        <time>2021-01-23T12:11:22Z</time>
      </trkpt>
      <trkpt lat="43.61444" lon="3.79635">
        <ele>53.8</ele>
        <time>2021-01-23T12:11:23Z</time>
      </trkpt>
      <trkpt lat="43.61446" lon="3.79626">
        <ele>60</ele>
        <time>2021-01-23T12:11:24Z</time>
      </trkpt>
      <trkpt lat="43.61447" lon="3.79616">
        <ele>53.3</ele>
        <time>2021-01-23T12:11:25Z</time>
      </trkpt>
      <trkpt lat="43.61449" lon="3.79607">
        <ele>53.2</ele>
        <time>2021-01-23T12:11:26Z</time>
      </trkpt>
      <trkpt lat="43.6145" lon="3.79598">
        <ele>53.2</ele>
        <time>2021-01-23T12:11:27Z</time>
      </trkpt>
      <trkpt lat="43.61451" lon="3.79589">
        <ele>53.2</ele>
        <time>2021-01-23T12:11:28Z</time>
      </trkpt>
      <trkpt lat="43.61451" lon="3.79581">
        <ele>53.2</ele>
        <time>2021-01-23T12:11:29Z</time>
      </trkpt>
      <trkpt lat="43.61452" lon="3.79572">
        <ele>52.9</ele>
        <time>2021-01-23T12:11:30Z</time>
      </trkpt>
      <trkpt lat="43.61453" lon="3.79563">
        <ele>52.6</ele>
        <time>2021-01-23T12:11:31Z</time>
      </trkpt>
      <trkpt lat="43.61454" lon="3.79554">
        <ele>52.3</ele>
        <time>2021-01-23T12:11:32Z</time>
      </trkpt>
      <trkpt lat="43.61454" lon="3.79546">
        <ele>52.3</ele>
        <time>2021-01-23T12:11:33Z</time>
      </trkpt>
      <trkpt lat="43.61454" lon="3.79537">
        <ele>56</ele>
        <time>2021-01-23T12:11:34Z</time>
      </trkpt>
      <trkpt lat="43.61455" lon="3.79528">
        <ele>52.4</ele>
        <time>2021-01-23T12:11:35Z</time>
      </trkpt>
      <trkpt lat="43.61455" lon="3.7952">
        <ele>52.4</ele>
        <time>2021-01-23T12:11:36Z</time>
      </trkpt>
      <trkpt lat="43.61456" lon="3.79511">
        <ele>52.4</ele>
        <time>2021-01-23T12:11:37Z</time>
      </trkpt>
      <trkpt lat="43.61457" lon="3.79503">
        <ele>52.5</ele>
        <time>2021-01-23T12:11:38Z</time>
      </trkpt>
      <trkpt lat="43.61457" lon="3.79495">
        <ele>52.5</ele>
        <time>2021-01-23T12:11:39Z</time>
      </trkpt>
      <trkpt lat="43.61458" lon="3.79487">
        <ele>52.5</ele>
        <time>2021-01-23T12:11:40Z</time>
      </trkpt>
      <trkpt lat="43.61458" lon="3.79479">
        <ele>52.5</ele>
        <time>2021-01-23T12:11:41Z</time>
      </trkpt>
      <trkpt lat="43.61459" lon="3.79472">
        <ele>52.5</ele>
        <time>2021-01-23T12:11:42Z</time>
      </trkpt>
      <trkpt lat="43.6146" lon="3.79464">
        <ele>52.4</ele>
        <time>2021-01-23T12:11:43Z</time>
      </trkpt>
      <trkpt lat="43.61461" lon="3.79456">
        <ele>56</ele>
        <time>2021-01-23T12:11:44Z</time>
      </trkpt>
      <trkpt lat="43.61462" lon="3.79449">
        <ele>52.3</ele>
        <time>2021-01-23T12:11:45Z</time>
      </trkpt>
      <trkpt lat="43.61462" lon="3.79442">
        <ele>52.3</ele>
        <time>2021-01-23T12:11:46Z</time>
      </trkpt>
      <trkpt lat="43.61463" lon="3.79435">
        <ele>52.6</ele>
        <time>2021-01-23T12:11:47Z</time>
      </trkpt>
      <trkpt lat="43.61464" lon="3.79428">
        <ele>52.8</ele>
        <time>2021-01-23T12:11:48Z</time>
      </trkpt>
      <trkpt lat="43.61465" lon="3.7942">
        <ele>52.9</ele>
        <time>2021-01-23T12:11:49Z</time>
      </trkpt>
      <trkpt lat="43.61466" lon="3.79413">
        <ele>52.9</ele>
        <time>2021-01-23T12:11:50Z</time>
      </trkpt>
      <trkpt lat="43.61467" lon="3.79406">
        <ele>52.8</ele>
        <time>2021-01-23T12:11:51Z</time>
      </trkpt>
      <trkpt lat="43.61469" lon="3.79399">
        <ele>52.5</ele>
        <time>2021-01-23T12:11:52Z</time>
      </trkpt>
      <trkpt lat="43.61471" lon="3.79391">
        <ele>52.2</ele>
        <time>2021-01-23T12:11:53Z</time>
      </trkpt>
      <trkpt lat="43.61474" lon="3.79377">
        <ele>56</ele>
        <time>2021-01-23T12:11:54Z</time>
      </trkpt>
      <trkpt lat="43.61476" lon="3.7937">
        <ele>52.3</ele>
        <time>2021-01-23T12:11:55Z</time>
      </trkpt>
      <trkpt lat="43.61478" lon="3.79363">
        <ele>52.4</ele>
        <time>2021-01-23T12:11:56Z</time>
      </trkpt>
      <trkpt lat="43.6148" lon="3.79356">
        <ele>52.7</ele>
        <time>2021-01-23T12:11:57Z</time>
      </trkpt>
      <trkpt lat="43.61482" lon="3.7935">
        <ele>53</ele>
        <time>2021-01-23T12:11:58Z</time>
      </trkpt>
      <trkpt lat="43.61485" lon="3.79343">
        <ele>53.3</ele>
        <time>2021-01-23T12:11:59Z</time>
      </trkpt>
      <trkpt lat="43.61487" lon="3.79336">
        <ele>53.5</ele>
        <time>2021-01-23T12:12:00Z</time>
      </trkpt>
      <trkpt lat="43.61489" lon="3.7933">
        <ele>53.7</ele>
        <time>2021-01-23T12:12:01Z</time>
      </trkpt>
      <trkpt lat="43.61491" lon="3.79323">
        <ele>53.8</ele>
        <time>2021-01-23T12:12:02Z</time>
      </trkpt>
      <trkpt lat="43.61493" lon="3.79316">
        <ele>53.9</ele>
        <time>2021-01-23T12:12:03Z</time>
      </trkpt>
      <trkpt lat="43.61495" lon="3.7931">
        <ele>54</ele>
        <time>2021-01-23T12:12:05Z</time>
      </trkpt>
      <trkpt lat="43.61497" lon="3.79304">
        <ele>54</ele>
        <time>2021-01-23T12:12:06Z</time>
      </trkpt>
      <trkpt lat="43.61499" lon="3.79298">
        <ele>53.7</ele>
        <time>2021-01-23T12:12:07Z</time>
      </trkpt>
      <trkpt lat="43.61501" lon="3.79292">
        <ele>53.6</ele>
        <time>2021-01-23T12:12:08Z</time>
      </trkpt>
      <trkpt lat="43.61502" lon="3.79286">
        <ele>53.5</ele>
        <time>2021-01-23T12:12:09Z</time>
      </trkpt>
      <trkpt lat="43.61504" lon="3.7928">
        <ele>53.5</ele>
        <time>2021-01-23T12:12:10Z</time>
      </trkpt>
      <trkpt lat="43.61506" lon="3.79274">
        <ele>53.7</ele>
        <time>2021-01-23T12:12:11Z</time>
      </trkpt>
      <trkpt lat="43.61508" lon="3.79268">
        <ele>54</ele>
        <time>2021-01-23T12:12:12Z</time>
      </trkpt>
      <trkpt lat="43.6151" lon="3.79262">
        <ele>54.2</ele>
        <time>2021-01-23T12:12:13Z</time>
      </trkpt>
      <trkpt lat="43.61511" lon="3.79256">
        <ele>56</ele>
        <time>2021-01-23T12:12:14Z</time>
      </trkpt>
      <trkpt lat="43.61513" lon="3.7925">
        <ele>54.5</ele>
        <time>2021-01-23T12:12:15Z</time>
      </trkpt>
      <trkpt lat="43.61515" lon="3.79244">
        <ele>54.9</ele>
        <time>2021-01-23T12:12:16Z</time>
      </trkpt>
      <trkpt lat="43.61516" lon="3.79238">
        <ele>55.2</ele>
        <time>2021-01-23T12:12:17Z</time>
      </trkpt>
      <trkpt lat="43.61518" lon="3.79231">
        <ele>55.6</ele>
        <time>2021-01-23T12:12:18Z</time>
      </trkpt>
      <trkpt lat="43.61519" lon="3.79225">
        <ele>55.9</ele>
        <time>2021-01-23T12:12:19Z</time>
      </trkpt>
      <trkpt lat="43.61521" lon="3.79219">
        <ele>55.9</ele>
        <time>2021-01-23T12:12:20Z</time>
      </trkpt>
      <trkpt lat="43.61522" lon="3.79213">
        <ele>55.5</ele>
        <time>2021-01-23T12:12:21Z</time>
      </trkpt>
      <trkpt lat="43.61524" lon="3.79207">
        <ele>55.1</ele>
        <time>2021-01-23T12:12:22Z</time>
      </trkpt>
      <trkpt lat="43.61526" lon="3.79202">
        <ele>54.7</ele>
        <time>2021-01-23T12:12:23Z</time>
      </trkpt>
      <trkpt lat="43.61528" lon="3.79196">
        <ele>57</ele>
        <time>2021-01-23T12:12:24Z</time>
      </trkpt>
      <trkpt lat="43.61529" lon="3.7919">
        <ele>54.1</ele>
        <time>2021-01-23T12:12:25Z</time>
      </trkpt>
      <trkpt lat="43.61531" lon="3.79185">
        <ele>54.3</ele>
        <time>2021-01-23T12:12:26Z</time>
      </trkpt>
      <trkpt lat="43.61532" lon="3.79179">
        <ele>54.5</ele>
        <time>2021-01-23T12:12:27Z</time>
      </trkpt>
      <trkpt lat="43.61534" lon="3.79174">
        <ele>54.7</ele>
        <time>2021-01-23T12:12:28Z</time>
      </trkpt>
      <trkpt lat="43.61536" lon="3.79168">
        <ele>54.9</ele>
        <time>2021-01-23T12:12:29Z</time>
      </trkpt>
      <trkpt lat="43.61537" lon="3.79163">
        <ele>55.2</ele>
        <time>2021-01-23T12:12:30Z</time>
      </trkpt>
      <trkpt lat="43.61539" lon="3.79158">
        <ele>55.6</ele>
        <time>2021-01-23T12:12:31Z</time>
      </trkpt>
      <trkpt lat="43.61541" lon="3.79153">
        <ele>55.9</ele>
        <time>2021-01-23T12:12:32Z</time>
      </trkpt>
      <trkpt lat="43.61543" lon="3.79148">
        <ele>56.3</ele>
        <time>2021-01-23T12:12:33Z</time>
      </trkpt>
      <trkpt lat="43.61544" lon="3.79143">
        <ele>58</ele>
        <time>2021-01-23T12:12:34Z</time>
      </trkpt>
      <trkpt lat="43.61544" lon="3.79138">
        <ele>56.6</ele>
        <time>2021-01-23T12:12:35Z</time>
      </trkpt>
      <trkpt lat="43.61545" lon="3.79132">
        <ele>56.5</ele>
        <time>2021-01-23T12:12:36Z</time>
      </trkpt>
      <trkpt lat="43.61546" lon="3.79127">
        <ele>56.4</ele>
        <time>2021-01-23T12:12:37Z</time>
      </trkpt>
      <trkpt lat="43.61547" lon="3.79122">
        <ele>56.2</ele>
        <time>2021-01-23T12:12:38Z</time>
      </trkpt>
      <trkpt lat="43.61548" lon="3.79117">
        <ele>56</ele>
        <time>2021-01-23T12:12:39Z</time>
      </trkpt>
      <trkpt lat="43.61549" lon="3.79111">
        <ele>55.7</ele>
        <time>2021-01-23T12:12:40Z</time>
      </trkpt>
      <trkpt lat="43.6155" lon="3.79106">
        <ele>55.8</ele>
        <time>2021-01-23T12:12:41Z</time>
      </trkpt>
      <trkpt lat="43.61551" lon="3.79101">
        <ele>55.9</ele>
        <time>2021-01-23T12:12:42Z</time>
      </trkpt>
      <trkpt lat="43.61552" lon="3.79096">
        <ele>56</ele>
        <time>2021-01-23T12:12:43Z</time>
      </trkpt>
      <trkpt lat="43.61553" lon="3.79091">
        <ele>59</ele>
        <time>2021-01-23T12:12:44Z</time>
      </trkpt>
      <trkpt lat="43.61554" lon="3.79087">
        <ele>56.1</ele>
        <time>2021-01-23T12:12:45Z</time>
      </trkpt>
      <trkpt lat="43.61555" lon="3.79082">
        <ele>56.2</ele>
        <time>2021-01-23T12:12:46Z</time>
      </trkpt>
      <trkpt lat="43.61556" lon="3.79078">
        <ele>56.4</ele>
        <time>2021-01-23T12:12:47Z</time>
      </trkpt>
      <trkpt lat="43.61556" lon="3.79073">
        <ele>56.7</ele>
        <time>2021-01-23T12:12:48Z</time>
      </trkpt>
      <trkpt lat="43.61557" lon="3.79069">
        <ele>57</ele>
        <time>2021-01-23T12:12:49Z</time>
      </trkpt>
      <trkpt lat="43.61558" lon="3.79065">
        <ele>57.2</ele>
        <time>2021-01-23T12:12:50Z</time>
      </trkpt>
      <trkpt lat="43.61559" lon="3.79061">
        <ele>57.4</ele>
        <time>2021-01-23T12:12:51Z</time>
      </trkpt>
      <trkpt lat="43.6156" lon="3.79057">
        <ele>57.6</ele>
        <time>2021-01-23T12:12:52Z</time>
      </trkpt>
      <trkpt lat="43.61561" lon="3.79054">
        <ele>57.7</ele>
        <time>2021-01-23T12:12:53Z</time>
      </trkpt>
      <trkpt lat="43.61562" lon="3.7905">
        <ele>61</ele>
        <time>2021-01-23T12:12:54Z</time>
      </trkpt>
      <trkpt lat="43.61562" lon="3.79046">
        <ele>58.1</ele>
        <time>2021-01-23T12:12:55Z</time>
      </trkpt>
      <trkpt lat="43.61563" lon="3.79042">
        <ele>58.2</ele>
        <time>2021-01-23T12:12:56Z</time>
      </trkpt>
      <trkpt lat="43.61564" lon="3.79038">
        <ele>58.3</ele>
        <time>2021-01-23T12:12:57Z</time>
      </trkpt>
      <trkpt lat="43.61565" lon="3.79034">
        <ele>58.3</ele>
        <time>2021-01-23T12:12:58Z</time>
      </trkpt>
      <trkpt lat="43.61565" lon="3.7903">
        <ele>58.5</ele>
        <time>2021-01-23T12:12:59Z</time>
      </trkpt>
      <trkpt lat="43.61566" lon="3.79025">
        <ele>58.5</ele>
        <time>2021-01-23T12:13:00Z</time>
      </trkpt>
      <trkpt lat="43.61566" lon="3.79021">
        <ele>58.6</ele>
        <time>2021-01-23T12:13:01Z</time>
      </trkpt>
      <trkpt lat="43.61566" lon="3.79017">
        <ele>58.6</ele>
        <time>2021-01-23T12:13:02Z</time>
      </trkpt>
      <trkpt lat="43.61566" lon="3.79013">
        <ele>58.7</ele>
        <time>2021-01-23T12:13:03Z</time>
      </trkpt>
      <trkpt lat="43.61566" lon="3.79008">
        <ele>61</ele>
        <time>2021-01-23T12:13:04Z</time>
      </trkpt>
      <trkpt lat="43.61566" lon="3.79004">
        <ele>58.8</ele>
        <time>2021-01-23T12:13:05Z</time>
      </trkpt>
      <trkpt lat="43.61566" lon="3.79">
        <ele>58.9</ele>
        <time>2021-01-23T12:13:06Z</time>
      </trkpt>
      <trkpt lat="43.61566" lon="3.78995">
        <ele>58.8</ele>
        <time>2021-01-23T12:13:07Z</time>
      </trkpt>
      <trkpt lat="43.61566" lon="3.78991">
        <ele>58.8</ele>
        <time>2021-01-23T12:13:08Z</time>
      </trkpt>
      <trkpt lat="43.61567" lon="3.78986">
        <ele>58.6</ele>
        <time>2021-01-23T12:13:09Z</time>
      </trkpt>
      <trkpt lat="43.61566" lon="3.78981">
        <ele>58.6</ele>
        <time>2021-01-23T12:13:10Z</time>
      </trkpt>
      <trkpt lat="43.61566" lon="3.78976">
        <ele>58.5</ele>
        <time>2021-01-23T12:13:11Z</time>
      </trkpt>
      <trkpt lat="43.61566" lon="3.78971">
        <ele>58.5</ele>
        <time>2021-01-23T12:13:12Z</time>
      </trkpt>
      <trkpt lat="43.61565" lon="3.78966">
        <ele>58.6</ele>
        <time>2021-01-23T12:13:13Z</time>
      </trkpt>
      <trkpt lat="43.61565" lon="3.78961">
        <ele>62</ele>
        <time>2021-01-23T12:13:14Z</time>
      </trkpt>
      <trkpt lat="43.61565" lon="3.78951">
        <ele>58.7</ele>
        <time>2021-01-23T12:13:15Z</time>
      </trkpt>
      <trkpt lat="43.61565" lon="3.78945">
        <ele>58.7</ele>
        <time>2021-01-23T12:13:16Z</time>
      </trkpt>
      <trkpt lat="43.61564" lon="3.78941">
        <ele>58.6</ele>
        <time>2021-01-23T12:13:17Z</time>
      </trkpt>
      <trkpt lat="43.61562" lon="3.78936">
        <ele>58.3</ele>
        <time>2021-01-23T12:13:18Z</time>
      </trkpt>
      <trkpt lat="43.6156" lon="3.78932">
        <ele>57.9</ele>
        <time>2021-01-23T12:13:19Z</time>
      </trkpt>
      <trkpt lat="43.6156" lon="3.78921">
        <ele>57.1</ele>
        <time>2021-01-23T12:13:21Z</time>
      </trkpt>
      <trkpt lat="43.61561" lon="3.78916">
        <ele>57</ele>
        <time>2021-01-23T12:13:22Z</time>
      </trkpt>
      <trkpt lat="43.61561" lon="3.78912">
        <ele>57.3</ele>
        <time>2021-01-23T12:13:23Z</time>
      </trkpt>
      <trkpt lat="43.6156" lon="3.78908">
        <ele>57.5</ele>
        <time>2021-01-23T12:13:25Z</time>
      </trkpt>
      <trkpt lat="43.61559" lon="3.78905">
        <ele>57.5</ele>
        <time>2021-01-23T12:13:26Z</time>
      </trkpt>
      <trkpt lat="43.61557" lon="3.78901">
        <ele>57.4</ele>
        <time>2021-01-23T12:13:27Z</time>
      </trkpt>
      <trkpt lat="43.61555" lon="3.78897">
        <ele>57.5</ele>
        <time>2021-01-23T12:13:28Z</time>
      </trkpt>
      <trkpt lat="43.61553" lon="3.78893">
        <ele>57.8</ele>
        <time>2021-01-23T12:13:29Z</time>
      </trkpt>
      <trkpt lat="43.61551" lon="3.78889">
        <ele>58</ele>
        <time>2021-01-23T12:13:30Z</time>
      </trkpt>
      <trkpt lat="43.6155" lon="3.78884">
        <ele>58.3</ele>
        <time>2021-01-23T12:13:31Z</time>
      </trkpt>
      <trkpt lat="43.61549" lon="3.7888">
        <ele>58.5</ele>
        <time>2021-01-23T12:13:32Z</time>
      </trkpt>
      <trkpt lat="43.61549" lon="3.78876">
        <ele>58.7</ele>
        <time>2021-01-23T12:13:33Z</time>
      </trkpt>
      <trkpt lat="43.61548" lon="3.78872">
        <ele>61</ele>
        <time>2021-01-23T12:13:34Z</time>
      </trkpt>
      <trkpt lat="43.61548" lon="3.78868">
        <ele>59.1</ele>
        <time>2021-01-23T12:13:35Z</time>
      </trkpt>
      <trkpt lat="43.61548" lon="3.78864">
        <ele>59.3</ele>
        <time>2021-01-23T12:13:36Z</time>
      </trkpt>
      <trkpt lat="43.61548" lon="3.7886">
        <ele>59.5</ele>
        <time>2021-01-23T12:13:37Z</time>
      </trkpt>
      <trkpt lat="43.61548" lon="3.78856">
        <ele>59.7</ele>
        <time>2021-01-23T12:13:38Z</time>
      </trkpt>
      <trkpt lat="43.61547" lon="3.78852">
        <ele>59.8</ele>
        <time>2021-01-23T12:13:39Z</time>
      </trkpt>
      <trkpt lat="43.61547" lon="3.78848">
        <ele>60</ele>
        <time>2021-01-23T12:13:40Z</time>
      </trkpt>
      <trkpt lat="43.61547" lon="3.78844">
        <ele>60.2</ele>
        <time>2021-01-23T12:13:41Z</time>
      </trkpt>
      <trkpt lat="43.61547" lon="3.7884">
        <ele>60.4</ele>
        <time>2021-01-23T12:13:42Z</time>
      </trkpt>
      <trkpt lat="43.61547" lon="3.78837">
        <ele>60.6</ele>
        <time>2021-01-23T12:13:43Z</time>
      </trkpt>
      <trkpt lat="43.61547" lon="3.78833">
        <ele>62</ele>
        <time>2021-01-23T12:13:44Z</time>
      </trkpt>
      <trkpt lat="43.61547" lon="3.78828">
        <ele>60.5</ele>
        <time>2021-01-23T12:13:45Z</time>
      </trkpt>
      <trkpt lat="43.61546" lon="3.78824">
        <ele>60.2</ele>
        <time>2021-01-23T12:13:46Z</time>
      </trkpt>
      <trkpt lat="43.61547" lon="3.7882">
        <ele>60.1</ele>
        <time>2021-01-23T12:13:47Z</time>
      </trkpt>
      <trkpt lat="43.61547" lon="3.78815">
        <ele>59.9</ele>
        <time>2021-01-23T12:13:48Z</time>
      </trkpt>
      <trkpt lat="43.61548" lon="3.78811">
        <ele>59.7</ele>
        <time>2021-01-23T12:13:49Z</time>
      </trkpt>
      <trkpt lat="43.61549" lon="3.78806">
        <ele>59.6</ele>
        <time>2021-01-23T12:13:50Z</time>
      </trkpt>
      <trkpt lat="43.61551" lon="3.78801">
        <ele>59.5</ele>
        <time>2021-01-23T12:13:51Z</time>
      </trkpt>
      <trkpt lat="43.61553" lon="3.78797">
        <ele>59.4</ele>
        <time>2021-01-23T12:13:52Z</time>
      </trkpt>
      <trkpt lat="43.61555" lon="3.78793">
        <ele>59.1</ele>
        <time>2021-01-23T12:13:53Z</time>
      </trkpt>
      <trkpt lat="43.61558" lon="3.78789">
        <ele>63</ele>
        <time>2021-01-23T12:13:54Z</time>
      </trkpt>
      <trkpt lat="43.6156" lon="3.78785">
        <ele>59</ele>
        <time>2021-01-23T12:13:55Z</time>
      </trkpt>
      <trkpt lat="43.61563" lon="3.78781">
        <ele>58.9</ele>
        <time>2021-01-23T12:13:56Z</time>
      </trkpt>
      <trkpt lat="43.61566" lon="3.78776">
        <ele>58.9</ele>
        <time>2021-01-23T12:13:57Z</time>
      </trkpt>
      <trkpt lat="43.61569" lon="3.78771">
        <ele>59.5</ele>
        <time>2021-01-23T12:13:58Z</time>
      </trkpt>
      <trkpt lat="43.61572" lon="3.78766">
        <ele>59.8</ele>
        <time>2021-01-23T12:13:59Z</time>
      </trkpt>
      <trkpt lat="43.61574" lon="3.78761">
        <ele>59.9</ele>
        <time>2021-01-23T12:14:00Z</time>
      </trkpt>
      <trkpt lat="43.61577" lon="3.78757">
        <ele>59.8</ele>
        <time>2021-01-23T12:14:01Z</time>
      </trkpt>
      <trkpt lat="43.61578" lon="3.78754">
        <ele>59.7</ele>
        <time>2021-01-23T12:14:02Z</time>
      </trkpt>
      <trkpt lat="43.6158" lon="3.78752">
        <ele>59.5</ele>
        <time>2021-01-23T12:14:03Z</time>
      </trkpt>
      <trkpt lat="43.61582" lon="3.78749">
        <ele>63</ele>
        <time>2021-01-23T12:14:04Z</time>
      </trkpt>
      <trkpt lat="43.61583" lon="3.78746">
        <ele>59.8</ele>
        <time>2021-01-23T12:14:05Z</time>
      </trkpt>
      <trkpt lat="43.61585" lon="3.78744">
        <ele>60.1</ele>
        <time>2021-01-23T12:14:06Z</time>
      </trkpt>
      <trkpt lat="43.61587" lon="3.78742">
        <ele>60.4</ele>
        <time>2021-01-23T12:14:07Z</time>
      </trkpt>
      <trkpt lat="43.61589" lon="3.78741">
        <ele>60.5</ele>
        <time>2021-01-23T12:14:08Z</time>
      </trkpt>
      <trkpt lat="43.6159" lon="3.78738">
        <ele>61</ele>
        <time>2021-01-23T12:14:09Z</time>
      </trkpt>
      <trkpt lat="43.61591" lon="3.78736">
        <ele>61.2</ele>
        <time>2021-01-23T12:14:10Z</time>
      </trkpt>
      <trkpt lat="43.61592" lon="3.78733">
        <ele>61.7</ele>
        <time>2021-01-23T12:14:11Z</time>
      </trkpt>
      <trkpt lat="43.61593" lon="3.78731">
        <ele>61.9</ele>
        <time>2021-01-23T12:14:12Z</time>
      </trkpt>
      <trkpt lat="43.61595" lon="3.78729">
        <ele>62.1</ele>
        <time>2021-01-23T12:14:13Z</time>
      </trkpt>
      <trkpt lat="43.61596" lon="3.78727">
        <ele>63</ele>
        <time>2021-01-23T12:14:14Z</time>
      </trkpt>
      <trkpt lat="43.61598" lon="3.78725">
        <ele>62.5</ele>
        <time>2021-01-23T12:14:15Z</time>
      </trkpt>
      <trkpt lat="43.616" lon="3.78723">
        <ele>62.7</ele>
        <time>2021-01-23T12:14:16Z</time>
      </trkpt>
      <trkpt lat="43.61601" lon="3.78721">
        <ele>62.8</ele>
        <time>2021-01-23T12:14:17Z</time>
      </trkpt>
      <trkpt lat="43.61602" lon="3.78719">
        <ele>63</ele>
        <time>2021-01-23T12:14:18Z</time>
      </trkpt>
      <trkpt lat="43.61604" lon="3.78717">
        <ele>63</ele>
        <time>2021-01-23T12:14:19Z</time>
      </trkpt>
      <trkpt lat="43.61605" lon="3.78715">
        <ele>63.1</ele>
        <time>2021-01-23T12:14:20Z</time>
      </trkpt>
      <trkpt lat="43.61607" lon="3.78713">
        <ele>63.1</ele>
        <time>2021-01-23T12:14:21Z</time>
      </trkpt>
      <trkpt lat="43.61608" lon="3.78711">
        <ele>63.1</ele>
        <time>2021-01-23T12:14:22Z</time>
      </trkpt>
      <trkpt lat="43.6161" lon="3.78709">
        <ele>63.1</ele>
        <time>2021-01-23T12:14:23Z</time>
      </trkpt>
      <trkpt lat="43.61611" lon="3.78707">
        <ele>64</ele>
        <time>2021-01-23T12:14:24Z</time>
      </trkpt>
      <trkpt lat="43.61612" lon="3.78705">
        <ele>63.2</ele>
        <time>2021-01-23T12:14:25Z</time>
      </trkpt>
      <trkpt lat="43.61614" lon="3.78703">
        <ele>63.3</ele>
        <time>2021-01-23T12:14:26Z</time>
      </trkpt>
      <trkpt lat="43.61616" lon="3.78699">
        <ele>63.5</ele>
        <time>2021-01-23T12:14:28Z</time>
      </trkpt>
      <trkpt lat="43.61617" lon="3.78697">
        <ele>63.6</ele>
        <time>2021-01-23T12:14:29Z</time>
      </trkpt>
      <trkpt lat="43.61619" lon="3.78695">
        <ele>63.7</ele>
        <time>2021-01-23T12:14:30Z</time>
      </trkpt>
      <trkpt lat="43.6162" lon="3.78693">
        <ele>63.9</ele>
        <time>2021-01-23T12:14:31Z</time>
      </trkpt>
      <trkpt lat="43.61621" lon="3.78691">
        <ele>64.2</ele>
        <time>2021-01-23T12:14:32Z</time>
      </trkpt>
      <trkpt lat="43.61624" lon="3.78688">
        <ele>66</ele>
        <time>2021-01-23T12:14:34Z</time>
      </trkpt>
      <trkpt lat="43.61625" lon="3.78686">
        <ele>64.7</ele>
        <time>2021-01-23T12:14:35Z</time>
      </trkpt>
      <trkpt lat="43.61626" lon="3.78684">
        <ele>64.9</ele>
        <time>2021-01-23T12:14:36Z</time>
      </trkpt>
      <trkpt lat="43.61628" lon="3.78682">
        <ele>65.1</ele>
        <time>2021-01-23T12:14:37Z</time>
      </trkpt>
      <trkpt lat="43.6163" lon="3.78679">
        <ele>65.3</ele>
        <time>2021-01-23T12:14:39Z</time>
      </trkpt>
      <trkpt lat="43.61632" lon="3.78675">
        <ele>65.7</ele>
        <time>2021-01-23T12:14:41Z</time>
      </trkpt>
      <trkpt lat="43.61635" lon="3.78671">
        <ele>65.9</ele>
        <time>2021-01-23T12:14:43Z</time>
      </trkpt>
      <trkpt lat="43.61636" lon="3.7867">
        <ele>68</ele>
        <time>2021-01-23T12:14:44Z</time>
      </trkpt>
      <trkpt lat="43.61637" lon="3.78668">
        <ele>66.1</ele>
        <time>2021-01-23T12:14:45Z</time>
      </trkpt>
      <trkpt lat="43.6164" lon="3.78665">
        <ele>66.2</ele>
        <time>2021-01-23T12:14:47Z</time>
      </trkpt>
      <trkpt lat="43.61642" lon="3.78664">
        <ele>66.2</ele>
        <time>2021-01-23T12:14:49Z</time>
      </trkpt>
      <trkpt lat="43.61644" lon="3.78661">
        <ele>66.4</ele>
        <time>2021-01-23T12:14:51Z</time>
      </trkpt>
      <trkpt lat="43.61644" lon="3.78658">
        <ele>66.9</ele>
        <time>2021-01-23T12:14:53Z</time>
      </trkpt>
      <trkpt lat="43.61644" lon="3.78653">
        <ele>68</ele>
        <time>2021-01-23T12:14:54Z</time>
      </trkpt>
      <trkpt lat="43.61644" lon="3.78649">
        <ele>68.2</ele>
        <time>2021-01-23T12:14:56Z</time>
      </trkpt>
      <trkpt lat="43.61646" lon="3.78645">
        <ele>68.6</ele>
        <time>2021-01-23T12:14:58Z</time>
      </trkpt>
      <trkpt lat="43.61648" lon="3.78641">
        <ele>69</ele>
        <time>2021-01-23T12:15:00Z</time>
      </trkpt>
      <trkpt lat="43.61651" lon="3.78639">
        <ele>69.1</ele>
        <time>2021-01-23T12:15:02Z</time>
      </trkpt>
      <trkpt lat="43.61653" lon="3.78636">
        <ele>69.3</ele>
        <time>2021-01-23T12:15:05Z</time>
      </trkpt>
      <trkpt lat="43.61656" lon="3.78633">
        <ele>69.4</ele>
        <time>2021-01-23T12:15:07Z</time>
      </trkpt>
      <trkpt lat="43.61658" lon="3.7863">
        <ele>69.6</ele>
        <time>2021-01-23T12:15:09Z</time>
      </trkpt>
      <trkpt lat="43.6166" lon="3.78627">
        <ele>69.8</ele>
        <time>2021-01-23T12:15:11Z</time>
      </trkpt>
      <trkpt lat="43.61663" lon="3.78623">
        <ele>70</ele>
        <time>2021-01-23T12:15:13Z</time>
      </trkpt>
      <trkpt lat="43.61665" lon="3.7862">
        <ele>70.2</ele>
        <time>2021-01-23T12:15:15Z</time>
      </trkpt>
      <trkpt lat="43.61667" lon="3.78618">
        <ele>70.2</ele>
        <time>2021-01-23T12:15:17Z</time>
      </trkpt>
      <trkpt lat="43.61669" lon="3.78615">
        <ele>70.5</ele>
        <time>2021-01-23T12:15:19Z</time>
      </trkpt>
      <trkpt lat="43.6167" lon="3.78612">
        <ele>70.8</ele>
        <time>2021-01-23T12:15:21Z</time>
      </trkpt>
      <trkpt lat="43.61672" lon="3.7861">
        <ele>71</ele>
        <time>2021-01-23T12:15:23Z</time>
      </trkpt>
      <trkpt lat="43.61673" lon="3.78607">
        <ele>73</ele>
        <time>2021-01-23T12:15:24Z</time>
      </trkpt>
      <trkpt lat="43.61674" lon="3.78604">
        <ele>71.7</ele>
        <time>2021-01-23T12:15:26Z</time>
      </trkpt>
      <trkpt lat="43.61675" lon="3.78601">
        <ele>72</ele>
        <time>2021-01-23T12:15:29Z</time>
      </trkpt>
      <trkpt lat="43.61677" lon="3.78597">
        <ele>72.5</ele>
        <time>2021-01-23T12:15:30Z</time>
      </trkpt>
      <trkpt lat="43.61677" lon="3.78594">
        <ele>72.9</ele>
        <time>2021-01-23T12:15:32Z</time>
      </trkpt>
      <trkpt lat="43.61679" lon="3.7859">
        <ele>74</ele>
        <time>2021-01-23T12:15:34Z</time>
      </trkpt>
      <trkpt lat="43.6168" lon="3.78587">
        <ele>73.6</ele>
        <time>2021-01-23T12:15:36Z</time>
      </trkpt>
      <trkpt lat="43.61682" lon="3.78583">
        <ele>73.9</ele>
        <time>2021-01-23T12:15:38Z</time>
      </trkpt>
      <trkpt lat="43.61684" lon="3.78579">
        <ele>74.2</ele>
        <time>2021-01-23T12:15:40Z</time>
      </trkpt>
      <trkpt lat="43.61686" lon="3.78576">
        <ele>74.3</ele>
        <time>2021-01-23T12:15:42Z</time>
      </trkpt>
      <trkpt lat="43.61688" lon="3.78573">
        <ele>74.5</ele>
        <time>2021-01-23T12:15:45Z</time>
      </trkpt>
      <trkpt lat="43.61691" lon="3.78569">
        <ele>74.7</ele>
        <time>2021-01-23T12:15:47Z</time>
      </trkpt>
      <trkpt lat="43.61693" lon="3.78566">
        <ele>74.9</ele>
        <time>2021-01-23T12:15:49Z</time>
      </trkpt>
      <trkpt lat="43.61694" lon="3.78562">
        <ele>75.3</ele>
        <time>2021-01-23T12:15:51Z</time>
      </trkpt>
      <trkpt lat="43.61696" lon="3.78558">
        <ele>75.7</ele>
        <time>2021-01-23T12:15:53Z</time>
      </trkpt>
      <trkpt lat="43.61697" lon="3.78554">
        <ele>76.1</ele>
        <time>2021-01-23T12:15:55Z</time>
      </trkpt>
      <trkpt lat="43.61699" lon="3.7855">
        <ele>76.4</ele>
        <time>2021-01-23T12:15:57Z</time>
      </trkpt>
      <trkpt lat="43.61701" lon="3.78547">
        <ele>76.6</ele>
        <time>2021-01-23T12:15:59Z</time>
      </trkpt>
      <trkpt lat="43.61703" lon="3.78543">
        <ele>76.9</ele>
        <time>2021-01-23T12:16:01Z</time>
      </trkpt>
      <trkpt lat="43.61705" lon="3.7854">
        <ele>77.1</ele>
        <time>2021-01-23T12:16:03Z</time>
      </trkpt>
      <trkpt lat="43.61707" lon="3.78536">
        <ele>77.4</ele>
        <time>2021-01-23T12:16:05Z</time>
      </trkpt>
      <trkpt lat="43.6171" lon="3.78534">
        <ele>77.6</ele>
        <time>2021-01-23T12:16:07Z</time>
      </trkpt>
      <trkpt lat="43.61711" lon="3.78529">
        <ele>77.9</ele>
        <time>2021-01-23T12:16:09Z</time>
      </trkpt>
      <trkpt lat="43.61712" lon="3.78527">
        <ele>78.1</ele>
        <time>2021-01-23T12:16:10Z</time>
      </trkpt>
      <trkpt lat="43.61712" lon="3.78522">
        <ele>78.5</ele>
        <time>2021-01-23T12:16:12Z</time>
      </trkpt>
      <trkpt lat="43.61713" lon="3.78518">
        <ele>79</ele>
        <time>2021-01-23T12:16:14Z</time>
      </trkpt>
      <trkpt lat="43.61714" lon="3.78515">
        <ele>79.1</ele>
        <time>2021-01-23T12:16:15Z</time>
      </trkpt>
      <trkpt lat="43.61714" lon="3.78513">
        <ele>79.2</ele>
        <time>2021-01-23T12:16:16Z</time>
      </trkpt>
      <trkpt lat="43.61715" lon="3.78511">
        <ele>79.4</ele>
        <time>2021-01-23T12:16:17Z</time>
      </trkpt>
      <trkpt lat="43.61716" lon="3.78508">
        <ele>79.6</ele>
        <time>2021-01-23T12:16:18Z</time>
      </trkpt>
      <trkpt lat="43.61717" lon="3.78506">
        <ele>79.7</ele>
        <time>2021-01-23T12:16:19Z</time>
      </trkpt>
      <trkpt lat="43.61718" lon="3.78504">
        <ele>79.8</ele>
        <time>2021-01-23T12:16:20Z</time>
      </trkpt>
      <trkpt lat="43.61719" lon="3.78502">
        <ele>80</ele>
        <time>2021-01-23T12:16:21Z</time>
      </trkpt>
      <trkpt lat="43.6172" lon="3.78499">
        <ele>80.1</ele>
        <time>2021-01-23T12:16:22Z</time>
      </trkpt>
      <trkpt lat="43.61721" lon="3.78497">
        <ele>80.2</ele>
        <time>2021-01-23T12:16:23Z</time>
      </trkpt>
      <trkpt lat="43.61722" lon="3.78492">
        <ele>80</ele>
        <time>2021-01-23T12:16:24Z</time>
      </trkpt>
      <trkpt lat="43.61723" lon="3.78489">
        <ele>80.4</ele>
        <time>2021-01-23T12:16:25Z</time>
      </trkpt>
      <trkpt lat="43.61724" lon="3.78486">
        <ele>80.4</ele>
        <time>2021-01-23T12:16:26Z</time>
      </trkpt>
      <trkpt lat="43.61724" lon="3.78483">
        <ele>80.5</ele>
        <time>2021-01-23T12:16:27Z</time>
      </trkpt>
      <trkpt lat="43.61725" lon="3.7848">
        <ele>80.5</ele>
        <time>2021-01-23T12:16:28Z</time>
      </trkpt>
      <trkpt lat="43.61726" lon="3.78476">
        <ele>80.6</ele>
        <time>2021-01-23T12:16:29Z</time>
      </trkpt>
      <trkpt lat="43.61727" lon="3.78473">
        <ele>80.6</ele>
        <time>2021-01-23T12:16:30Z</time>
      </trkpt>
      <trkpt lat="43.61727" lon="3.78469">
        <ele>80.8</ele>
        <time>2021-01-23T12:16:31Z</time>
      </trkpt>
      <trkpt lat="43.61727" lon="3.78466">
        <ele>80.8</ele>
        <time>2021-01-23T12:16:32Z</time>
      </trkpt>
      <trkpt lat="43.61728" lon="3.78462">
        <ele>82</ele>
        <time>2021-01-23T12:16:34Z</time>
      </trkpt>
      <trkpt lat="43.61728" lon="3.78458">
        <ele>81</ele>
        <time>2021-01-23T12:16:35Z</time>
      </trkpt>
      <trkpt lat="43.61728" lon="3.78455">
        <ele>81.1</ele>
        <time>2021-01-23T12:16:36Z</time>
      </trkpt>
      <trkpt lat="43.61728" lon="3.78451">
        <ele>81.2</ele>
        <time>2021-01-23T12:16:37Z</time>
      </trkpt>
      <trkpt lat="43.61728" lon="3.78448">
        <ele>81.3</ele>
        <time>2021-01-23T12:16:38Z</time>
      </trkpt>
      <trkpt lat="43.61727" lon="3.78444">
        <ele>81.5</ele>
        <time>2021-01-23T12:16:39Z</time>
      </trkpt>
      <trkpt lat="43.61727" lon="3.7844">
        <ele>81.4</ele>
        <time>2021-01-23T12:16:40Z</time>
      </trkpt>
      <trkpt lat="43.61727" lon="3.78436">
        <ele>81.4</ele>
        <time>2021-01-23T12:16:41Z</time>
      </trkpt>
      <trkpt lat="43.61727" lon="3.78432">
        <ele>81.3</ele>
        <time>2021-01-23T12:16:42Z</time>
      </trkpt>
      <trkpt lat="43.61727" lon="3.78427">
        <ele>81.3</ele>
        <time>2021-01-23T12:16:43Z</time>
      </trkpt>
      <trkpt lat="43.61727" lon="3.78423">
        <ele>82</ele>
        <time>2021-01-23T12:16:44Z</time>
      </trkpt>
      <trkpt lat="43.61726" lon="3.78418">
        <ele>81.3</ele>
        <time>2021-01-23T12:16:45Z</time>
      </trkpt>
      <trkpt lat="43.61726" lon="3.78414">
        <ele>81.1</ele>
        <time>2021-01-23T12:16:46Z</time>
      </trkpt>
      <trkpt lat="43.61725" lon="3.78409">
        <ele>81</ele>
        <time>2021-01-23T12:16:47Z</time>
      </trkpt>
      <trkpt lat="43.61724" lon="3.78405">
        <ele>80.9</ele>
        <time>2021-01-23T12:16:48Z</time>
      </trkpt>
      <trkpt lat="43.61724" lon="3.78401">
        <ele>80.6</ele>
        <time>2021-01-23T12:16:49Z</time>
      </trkpt>
      <trkpt lat="43.61723" lon="3.78396">
        <ele>80.4</ele>
        <time>2021-01-23T12:16:50Z</time>
      </trkpt>
      <trkpt lat="43.61721" lon="3.78391">
        <ele>80.2</ele>
        <time>2021-01-23T12:16:51Z</time>
      </trkpt>
      <trkpt lat="43.6172" lon="3.78386">
        <ele>80.1</ele>
        <time>2021-01-23T12:16:52Z</time>
      </trkpt>
      <trkpt lat="43.61718" lon="3.78381">
        <ele>80</ele>
        <time>2021-01-23T12:16:53Z</time>
      </trkpt>
      <trkpt lat="43.61717" lon="3.78375">
        <ele>82</ele>
        <time>2021-01-23T12:16:54Z</time>
      </trkpt>
      <trkpt lat="43.61716" lon="3.78369">
        <ele>79.7</ele>
        <time>2021-01-23T12:16:55Z</time>
      </trkpt>
      <trkpt lat="43.61714" lon="3.78363">
        <ele>79.7</ele>
        <time>2021-01-23T12:16:56Z</time>
      </trkpt>
      <trkpt lat="43.61714" lon="3.78357">
        <ele>79.6</ele>
        <time>2021-01-23T12:16:57Z</time>
      </trkpt>
      <trkpt lat="43.61713" lon="3.78351">
        <ele>79.8</ele>
        <time>2021-01-23T12:16:58Z</time>
      </trkpt>
      <trkpt lat="43.61713" lon="3.78345">
        <ele>79.9</ele>
        <time>2021-01-23T12:16:59Z</time>
      </trkpt>
      <trkpt lat="43.61714" lon="3.78339">
        <ele>79.8</ele>
        <time>2021-01-23T12:17:00Z</time>
      </trkpt>
      <trkpt lat="43.61714" lon="3.78334">
        <ele>79.9</ele>
        <time>2021-01-23T12:17:01Z</time>
      </trkpt>
      <trkpt lat="43.61714" lon="3.78329">
        <ele>80</ele>
        <time>2021-01-23T12:17:02Z</time>
      </trkpt>
      <trkpt lat="43.61714" lon="3.78325">
        <ele>80.1</ele>
        <time>2021-01-23T12:17:03Z</time>
      </trkpt>
      <trkpt lat="43.61715" lon="3.78321">
        <ele>81</ele>
        <time>2021-01-23T12:17:04Z</time>
      </trkpt>
      <trkpt lat="43.61715" lon="3.78317">
        <ele>80.2</ele>
        <time>2021-01-23T12:17:05Z</time>
      </trkpt>
      <trkpt lat="43.61716" lon="3.78313">
        <ele>80.2</ele>
        <time>2021-01-23T12:17:06Z</time>
      </trkpt>
      <trkpt lat="43.61716" lon="3.78309">
        <ele>80.4</ele>
        <time>2021-01-23T12:17:07Z</time>
      </trkpt>
      <trkpt lat="43.61717" lon="3.78306">
        <ele>80.4</ele>
        <time>2021-01-23T12:17:08Z</time>
      </trkpt>
      <trkpt lat="43.61717" lon="3.78302">
        <ele>80.5</ele>
        <time>2021-01-23T12:17:09Z</time>
      </trkpt>
      <trkpt lat="43.61718" lon="3.78299">
        <ele>80.6</ele>
        <time>2021-01-23T12:17:10Z</time>
      </trkpt>
      <trkpt lat="43.61718" lon="3.78295">
        <ele>80.7</ele>
        <time>2021-01-23T12:17:11Z</time>
      </trkpt>
      <trkpt lat="43.61718" lon="3.78291">
        <ele>80.9</ele>
        <time>2021-01-23T12:17:12Z</time>
      </trkpt>
      <trkpt lat="43.61719" lon="3.78288">
        <ele>80.9</ele>
        <time>2021-01-23T12:17:13Z</time>
      </trkpt>
      <trkpt lat="43.61719" lon="3.78284">
        <ele>82</ele>
        <time>2021-01-23T12:17:14Z</time>
      </trkpt>
      <trkpt lat="43.6172" lon="3.7828">
        <ele>81.2</ele>
        <time>2021-01-23T12:17:15Z</time>
      </trkpt>
      <trkpt lat="43.61721" lon="3.78277">
        <ele>81.2</ele>
        <time>2021-01-23T12:17:16Z</time>
      </trkpt>
      <trkpt lat="43.61722" lon="3.78273">
        <ele>81.4</ele>
        <time>2021-01-23T12:17:17Z</time>
      </trkpt>
      <trkpt lat="43.61723" lon="3.7827">
        <ele>81.5</ele>
        <time>2021-01-23T12:17:18Z</time>
      </trkpt>
      <trkpt lat="43.61724" lon="3.78267">
        <ele>81.6</ele>
        <time>2021-01-23T12:17:19Z</time>
      </trkpt>
      <trkpt lat="43.61724" lon="3.78263">
        <ele>81.9</ele>
        <time>2021-01-23T12:17:20Z</time>
      </trkpt>
      <trkpt lat="43.61725" lon="3.7826">
        <ele>82</ele>
        <time>2021-01-23T12:17:21Z</time>
      </trkpt>
      <trkpt lat="43.61725" lon="3.78256">
        <ele>82.3</ele>
        <time>2021-01-23T12:17:22Z</time>
      </trkpt>
      <trkpt lat="43.61726" lon="3.78253">
        <ele>82.4</ele>
        <time>2021-01-23T12:17:23Z</time>
      </trkpt>
      <trkpt lat="43.61726" lon="3.78249">
        <ele>84</ele>
        <time>2021-01-23T12:17:24Z</time>
      </trkpt>
      <trkpt lat="43.61727" lon="3.78246">
        <ele>82.7</ele>
        <time>2021-01-23T12:17:25Z</time>
      </trkpt>
      <trkpt lat="43.61728" lon="3.78242">
        <ele>82.9</ele>
        <time>2021-01-23T12:17:26Z</time>
      </trkpt>
      <trkpt lat="43.61729" lon="3.78239">
        <ele>83</ele>
        <time>2021-01-23T12:17:27Z</time>
      </trkpt>
      <trkpt lat="43.6173" lon="3.78235">
        <ele>83.1</ele>
        <time>2021-01-23T12:17:28Z</time>
      </trkpt>
      <trkpt lat="43.6173" lon="3.78232">
        <ele>83.3</ele>
        <time>2021-01-23T12:17:29Z</time>
      </trkpt>
      <trkpt lat="43.61731" lon="3.78228">
        <ele>83.4</ele>
        <time>2021-01-23T12:17:30Z</time>
      </trkpt>
      <trkpt lat="43.61732" lon="3.78224">
        <ele>83.5</ele>
        <time>2021-01-23T12:17:31Z</time>
      </trkpt>
      <trkpt lat="43.61733" lon="3.7822">
        <ele>83.5</ele>
        <time>2021-01-23T12:17:32Z</time>
      </trkpt>
      <trkpt lat="43.61734" lon="3.78216">
        <ele>83.4</ele>
        <time>2021-01-23T12:17:33Z</time>
      </trkpt>
      <trkpt lat="43.61735" lon="3.78213">
        <ele>85</ele>
        <time>2021-01-23T12:17:34Z</time>
      </trkpt>
      <trkpt lat="43.61736" lon="3.78209">
        <ele>83.3</ele>
        <time>2021-01-23T12:17:35Z</time>
      </trkpt>
      <trkpt lat="43.61737" lon="3.78205">
        <ele>83.2</ele>
        <time>2021-01-23T12:17:36Z</time>
      </trkpt>
      <trkpt lat="43.61738" lon="3.78201">
        <ele>83.2</ele>
        <time>2021-01-23T12:17:37Z</time>
      </trkpt>
      <trkpt lat="43.61739" lon="3.78197">
        <ele>83.1</ele>
        <time>2021-01-23T12:17:38Z</time>
      </trkpt>
      <trkpt lat="43.6174" lon="3.78193">
        <ele>83.2</ele>
        <time>2021-01-23T12:17:39Z</time>
      </trkpt>
      <trkpt lat="43.6174" lon="3.7819">
        <ele>83.3</ele>
        <time>2021-01-23T12:17:40Z</time>
      </trkpt>
      <trkpt lat="43.61741" lon="3.78186">
        <ele>83.5</ele>
        <time>2021-01-23T12:17:41Z</time>
      </trkpt>
      <trkpt lat="43.61742" lon="3.78182">
        <ele>83.6</ele>
        <time>2021-01-23T12:17:42Z</time>
      </trkpt>
      <trkpt lat="43.61743" lon="3.78178">
        <ele>83.8</ele>
        <time>2021-01-23T12:17:43Z</time>
      </trkpt>
      <trkpt lat="43.61743" lon="3.78174">
        <ele>85</ele>
        <time>2021-01-23T12:17:44Z</time>
      </trkpt>
      <trkpt lat="43.61744" lon="3.7817">
        <ele>84.2</ele>
        <time>2021-01-23T12:17:45Z</time>
      </trkpt>
      <trkpt lat="43.61745" lon="3.78167">
        <ele>84.3</ele>
        <time>2021-01-23T12:17:46Z</time>
      </trkpt>
      <trkpt lat="43.61746" lon="3.78163">
        <ele>84.5</ele>
        <time>2021-01-23T12:17:47Z</time>
      </trkpt>
      <trkpt lat="43.61747" lon="3.78159">
        <ele>84.6</ele>
        <time>2021-01-23T12:17:48Z</time>
      </trkpt>
      <trkpt lat="43.61748" lon="3.78156">
        <ele>84.6</ele>
        <time>2021-01-23T12:17:49Z</time>
      </trkpt>
      <trkpt lat="43.61749" lon="3.78152">
        <ele>84.6</ele>
        <time>2021-01-23T12:17:50Z</time>
      </trkpt>
      <trkpt lat="43.6175" lon="3.78148">
        <ele>84.7</ele>
        <time>2021-01-23T12:17:51Z</time>
      </trkpt>
      <trkpt lat="43.6175" lon="3.78144">
        <ele>84.8</ele>
        <time>2021-01-23T12:17:52Z</time>
      </trkpt>
      <trkpt lat="43.61752" lon="3.7814">
        <ele>84.7</ele>
        <time>2021-01-23T12:17:53Z</time>
      </trkpt>
      <trkpt lat="43.61753" lon="3.78136">
        <ele>86</ele>
        <time>2021-01-23T12:17:54Z</time>
      </trkpt>
      <trkpt lat="43.61754" lon="3.78132">
        <ele>84.9</ele>
        <time>2021-01-23T12:17:55Z</time>
      </trkpt>
      <trkpt lat="43.61755" lon="3.78129">
        <ele>85</ele>
        <time>2021-01-23T12:17:56Z</time>
      </trkpt>
      <trkpt lat="43.61756" lon="3.78125">
        <ele>85.1</ele>
        <time>2021-01-23T12:17:57Z</time>
      </trkpt>
      <trkpt lat="43.61757" lon="3.78121">
        <ele>85.3</ele>
        <time>2021-01-23T12:17:58Z</time>
      </trkpt>
      <trkpt lat="43.61759" lon="3.78118">
        <ele>85.2</ele>
        <time>2021-01-23T12:17:59Z</time>
      </trkpt>
      <trkpt lat="43.61761" lon="3.78114">
        <ele>85.2</ele>
        <time>2021-01-23T12:18:00Z</time>
      </trkpt>
      <trkpt lat="43.61762" lon="3.7811">
        <ele>85.3</ele>
        <time>2021-01-23T12:18:01Z</time>
      </trkpt>
      <trkpt lat="43.61764" lon="3.78107">
        <ele>85.3</ele>
        <time>2021-01-23T12:18:02Z</time>
      </trkpt>
      <trkpt lat="43.61766" lon="3.78103">
        <ele>85.3</ele>
        <time>2021-01-23T12:18:03Z</time>
      </trkpt>
      <trkpt lat="43.61767" lon="3.781">
        <ele>87</ele>
        <time>2021-01-23T12:18:04Z</time>
      </trkpt>
      <trkpt lat="43.61769" lon="3.78096">
        <ele>85.6</ele>
        <time>2021-01-23T12:18:05Z</time>
      </trkpt>
      <trkpt lat="43.61771" lon="3.78092">
        <ele>85.7</ele>
        <time>2021-01-23T12:18:06Z</time>
      </trkpt>
      <trkpt lat="43.61772" lon="3.78088">
        <ele>86</ele>
        <time>2021-01-23T12:18:07Z</time>
      </trkpt>
      <trkpt lat="43.61774" lon="3.78085">
        <ele>86.1</ele>
        <time>2021-01-23T12:18:08Z</time>
      </trkpt>
      <trkpt lat="43.61777" lon="3.78082">
        <ele>86.2</ele>
        <time>2021-01-23T12:18:09Z</time>
      </trkpt>
      <trkpt lat="43.61779" lon="3.78079">
        <ele>86.2</ele>
        <time>2021-01-23T12:18:10Z</time>
      </trkpt>
      <trkpt lat="43.61782" lon="3.78077">
        <ele>86</ele>
        <time>2021-01-23T12:18:11Z</time>
      </trkpt>
      <trkpt lat="43.61784" lon="3.78074">
        <ele>86</ele>
        <time>2021-01-23T12:18:12Z</time>
      </trkpt>
      <trkpt lat="43.61787" lon="3.78071">
        <ele>85.9</ele>
        <time>2021-01-23T12:18:13Z</time>
      </trkpt>
      <trkpt lat="43.6179" lon="3.78068">
        <ele>87</ele>
        <time>2021-01-23T12:18:14Z</time>
      </trkpt>
      <trkpt lat="43.61792" lon="3.78066">
        <ele>85.7</ele>
        <time>2021-01-23T12:18:15Z</time>
      </trkpt>
      <trkpt lat="43.61795" lon="3.78063">
        <ele>85.6</ele>
        <time>2021-01-23T12:18:16Z</time>
      </trkpt>
      <trkpt lat="43.61798" lon="3.78061">
        <ele>85.4</ele>
        <time>2021-01-23T12:18:17Z</time>
      </trkpt>
      <trkpt lat="43.618" lon="3.78058">
        <ele>85.4</ele>
        <time>2021-01-23T12:18:18Z</time>
      </trkpt>
      <trkpt lat="43.61803" lon="3.78055">
        <ele>85.3</ele>
        <time>2021-01-23T12:18:19Z</time>
      </trkpt>
      <trkpt lat="43.61806" lon="3.78051">
        <ele>85.3</ele>
        <time>2021-01-23T12:18:20Z</time>
      </trkpt>
      <trkpt lat="43.61808" lon="3.78048">
        <ele>85.4</ele>
        <time>2021-01-23T12:18:21Z</time>
      </trkpt>
      <trkpt lat="43.61811" lon="3.78044">
        <ele>85.4</ele>
        <time>2021-01-23T12:18:22Z</time>
      </trkpt>
      <trkpt lat="43.61813" lon="3.7804">
        <ele>85.6</ele>
        <time>2021-01-23T12:18:23Z</time>
      </trkpt>
      <trkpt lat="43.61816" lon="3.78037">
        <ele>87</ele>
        <time>2021-01-23T12:18:24Z</time>
      </trkpt>
      <trkpt lat="43.61818" lon="3.78033">
        <ele>85.7</ele>
        <time>2021-01-23T12:18:25Z</time>
      </trkpt>
      <trkpt lat="43.6182" lon="3.78029">
        <ele>85.9</ele>
        <time>2021-01-23T12:18:26Z</time>
      </trkpt>
      <trkpt lat="43.61822" lon="3.78025">
        <ele>86</ele>
        <time>2021-01-23T12:18:27Z</time>
      </trkpt>
      <trkpt lat="43.61823" lon="3.7802">
        <ele>86.2</ele>
        <time>2021-01-23T12:18:28Z</time>
      </trkpt>
      <trkpt lat="43.61824" lon="3.78016">
        <ele>86.4</ele>
        <time>2021-01-23T12:18:29Z</time>
      </trkpt>
      <trkpt lat="43.61825" lon="3.78012">
        <ele>86.6</ele>
        <time>2021-01-23T12:18:30Z</time>
      </trkpt>
      <trkpt lat="43.61827" lon="3.78008">
        <ele>86.7</ele>
        <time>2021-01-23T12:18:31Z</time>
      </trkpt>
      <trkpt lat="43.61828" lon="3.78004">
        <ele>86.9</ele>
        <time>2021-01-23T12:18:32Z</time>
      </trkpt>
      <trkpt lat="43.61829" lon="3.78001">
        <ele>87.1</ele>
        <time>2021-01-23T12:18:33Z</time>
      </trkpt>
      <trkpt lat="43.6183" lon="3.77997">
        <ele>88</ele>
        <time>2021-01-23T12:18:34Z</time>
      </trkpt>
      <trkpt lat="43.61831" lon="3.77993">
        <ele>87.4</ele>
        <time>2021-01-23T12:18:35Z</time>
      </trkpt>
      <trkpt lat="43.61832" lon="3.77989">
        <ele>87.5</ele>
        <time>2021-01-23T12:18:36Z</time>
      </trkpt>
      <trkpt lat="43.61833" lon="3.77985">
        <ele>87.6</ele>
        <time>2021-01-23T12:18:37Z</time>
      </trkpt>
      <trkpt lat="43.61833" lon="3.77981">
        <ele>87.7</ele>
        <time>2021-01-23T12:18:38Z</time>
      </trkpt>
      <trkpt lat="43.61834" lon="3.77976">
        <ele>87.9</ele>
        <time>2021-01-23T12:18:39Z</time>
      </trkpt>
      <trkpt lat="43.61835" lon="3.77972">
        <ele>88</ele>
        <time>2021-01-23T12:18:40Z</time>
      </trkpt>
      <trkpt lat="43.61835" lon="3.77968">
        <ele>88.3</ele>
        <time>2021-01-23T12:18:41Z</time>
      </trkpt>
      <trkpt lat="43.61835" lon="3.77965">
        <ele>88.5</ele>
        <time>2021-01-23T12:18:42Z</time>
      </trkpt>
      <trkpt lat="43.61836" lon="3.77961">
        <ele>88.8</ele>
        <time>2021-01-23T12:18:43Z</time>
      </trkpt>
      <trkpt lat="43.61837" lon="3.77957">
        <ele>89</ele>
        <time>2021-01-23T12:18:44Z</time>
      </trkpt>
      <trkpt lat="43.61837" lon="3.77954">
        <ele>89.2</ele>
        <time>2021-01-23T12:18:45Z</time>
      </trkpt>
      <trkpt lat="43.61837" lon="3.7795">
        <ele>89.5</ele>
        <time>2021-01-23T12:18:46Z</time>
      </trkpt>
      <trkpt lat="43.61837" lon="3.77946">
        <ele>89.8</ele>
        <time>2021-01-23T12:18:47Z</time>
      </trkpt>
      <trkpt lat="43.61837" lon="3.77942">
        <ele>89.9</ele>
        <time>2021-01-23T12:18:48Z</time>
      </trkpt>
      <trkpt lat="43.61837" lon="3.77938">
        <ele>90.1</ele>
        <time>2021-01-23T12:18:49Z</time>
      </trkpt>
      <trkpt lat="43.61837" lon="3.77935">
        <ele>90.2</ele>
        <time>2021-01-23T12:18:50Z</time>
      </trkpt>
      <trkpt lat="43.61837" lon="3.77931">
        <ele>90.3</ele>
        <time>2021-01-23T12:18:51Z</time>
      </trkpt>
      <trkpt lat="43.61837" lon="3.77927">
        <ele>90.4</ele>
        <time>2021-01-23T12:18:52Z</time>
      </trkpt>
      <trkpt lat="43.61837" lon="3.77923">
        <ele>90.5</ele>
        <time>2021-01-23T12:18:53Z</time>
      </trkpt>
      <trkpt lat="43.61837" lon="3.7792">
        <ele>90</ele>
        <time>2021-01-23T12:18:54Z</time>
      </trkpt>
      <trkpt lat="43.61837" lon="3.77916">
        <ele>90.7</ele>
        <time>2021-01-23T12:18:55Z</time>
      </trkpt>
      <trkpt lat="43.61837" lon="3.77913">
        <ele>90.8</ele>
        <time>2021-01-23T12:18:56Z</time>
      </trkpt>
      <trkpt lat="43.61837" lon="3.77909">
        <ele>90.8</ele>
        <time>2021-01-23T12:18:57Z</time>
      </trkpt>
      <trkpt lat="43.61837" lon="3.77905">
        <ele>90.8</ele>
        <time>2021-01-23T12:18:58Z</time>
      </trkpt>
      <trkpt lat="43.61837" lon="3.77902">
        <ele>90.8</ele>
        <time>2021-01-23T12:18:59Z</time>
      </trkpt>
      <trkpt lat="43.61837" lon="3.77898">
        <ele>90.8</ele>
        <time>2021-01-23T12:19:00Z</time>
      </trkpt>
      <trkpt lat="43.61837" lon="3.77894">
        <ele>90.8</ele>
        <time>2021-01-23T12:19:01Z</time>
      </trkpt>
      <trkpt lat="43.61837" lon="3.7789">
        <ele>90.9</ele>
        <time>2021-01-23T12:19:02Z</time>
      </trkpt>
      <trkpt lat="43.61837" lon="3.77887">
        <ele>90.9</ele>
        <time>2021-01-23T12:19:03Z</time>
      </trkpt>
      <trkpt lat="43.61837" lon="3.77883">
        <ele>91</ele>
        <time>2021-01-23T12:19:04Z</time>
      </trkpt>
      <trkpt lat="43.61836" lon="3.7788">
        <ele>90.9</ele>
        <time>2021-01-23T12:19:05Z</time>
      </trkpt>
      <trkpt lat="43.61836" lon="3.77876">
        <ele>90.9</ele>
        <time>2021-01-23T12:19:06Z</time>
      </trkpt>
      <trkpt lat="43.61836" lon="3.77874">
        <ele>90.9</ele>
        <time>2021-01-23T12:19:07Z</time>
      </trkpt>
      <trkpt lat="43.61835" lon="3.77871">
        <ele>90.9</ele>
        <time>2021-01-23T12:19:08Z</time>
      </trkpt>
      <trkpt lat="43.61834" lon="3.77869">
        <ele>91</ele>
        <time>2021-01-23T12:19:09Z</time>
      </trkpt>
      <trkpt lat="43.61832" lon="3.77865">
        <ele>91.1</ele>
        <time>2021-01-23T12:19:11Z</time>
      </trkpt>
      <trkpt lat="43.61829" lon="3.77864">
        <ele>91.5</ele>
        <time>2021-01-23T12:19:13Z</time>
      </trkpt>
      <trkpt lat="43.61827" lon="3.77865">
        <ele>92</ele>
        <time>2021-01-23T12:19:14Z</time>
      </trkpt>
      <trkpt lat="43.61825" lon="3.77865">
        <ele>91.9</ele>
        <time>2021-01-23T12:19:15Z</time>
      </trkpt>
      <trkpt lat="43.61823" lon="3.77865">
        <ele>92.1</ele>
        <time>2021-01-23T12:19:16Z</time>
      </trkpt>
      <trkpt lat="43.61821" lon="3.77865">
        <ele>92.3</ele>
        <time>2021-01-23T12:19:17Z</time>
      </trkpt>
      <trkpt lat="43.6182" lon="3.77865">
        <ele>92.4</ele>
        <time>2021-01-23T12:19:18Z</time>
      </trkpt>
      <trkpt lat="43.61818" lon="3.77864">
        <ele>92.6</ele>
        <time>2021-01-23T12:19:19Z</time>
      </trkpt>
      <trkpt lat="43.61816" lon="3.77864">
        <ele>92.8</ele>
        <time>2021-01-23T12:19:20Z</time>
      </trkpt>
      <trkpt lat="43.61814" lon="3.77863">
        <ele>93</ele>
        <time>2021-01-23T12:19:21Z</time>
      </trkpt>
      <trkpt lat="43.61812" lon="3.77863">
        <ele>93.3</ele>
        <time>2021-01-23T12:19:22Z</time>
      </trkpt>
      <trkpt lat="43.6181" lon="3.77862">
        <ele>93.5</ele>
        <time>2021-01-23T12:19:23Z</time>
      </trkpt>
      <trkpt lat="43.61808" lon="3.77862">
        <ele>94</ele>
        <time>2021-01-23T12:19:24Z</time>
      </trkpt>
      <trkpt lat="43.61806" lon="3.77863">
        <ele>93.9</ele>
        <time>2021-01-23T12:19:25Z</time>
      </trkpt>
      <trkpt lat="43.61804" lon="3.77863">
        <ele>94</ele>
        <time>2021-01-23T12:19:26Z</time>
      </trkpt>
      <trkpt lat="43.61802" lon="3.77863">
        <ele>94.1</ele>
        <time>2021-01-23T12:19:27Z</time>
      </trkpt>
      <trkpt lat="43.61799" lon="3.77862">
        <ele>94.2</ele>
        <time>2021-01-23T12:19:28Z</time>
      </trkpt>
      <trkpt lat="43.61797" lon="3.77861">
        <ele>94.3</ele>
        <time>2021-01-23T12:19:29Z</time>
      </trkpt>
      <trkpt lat="43.61796" lon="3.77858">
        <ele>94.5</ele>
        <time>2021-01-23T12:19:30Z</time>
      </trkpt>
      <trkpt lat="43.61795" lon="3.77855">
        <ele>94.7</ele>
        <time>2021-01-23T12:19:31Z</time>
      </trkpt>
      <trkpt lat="43.61794" lon="3.77852">
        <ele>95</ele>
        <time>2021-01-23T12:19:32Z</time>
      </trkpt>
      <trkpt lat="43.61793" lon="3.77849">
        <ele>95.2</ele>
        <time>2021-01-23T12:19:33Z</time>
      </trkpt>
      <trkpt lat="43.61792" lon="3.77846">
        <ele>95</ele>
        <time>2021-01-23T12:19:34Z</time>
      </trkpt>
      <trkpt lat="43.61791" lon="3.7784">
        <ele>96.1</ele>
        <time>2021-01-23T12:19:35Z</time>
      </trkpt>
      <trkpt lat="43.61791" lon="3.77837">
        <ele>96.3</ele>
        <time>2021-01-23T12:19:36Z</time>
      </trkpt>
      <trkpt lat="43.61792" lon="3.77833">
        <ele>96.4</ele>
        <time>2021-01-23T12:19:37Z</time>
      </trkpt>
      <trkpt lat="43.61792" lon="3.7783">
        <ele>96.5</ele>
        <time>2021-01-23T12:19:38Z</time>
      </trkpt>
      <trkpt lat="43.61793" lon="3.77827">
        <ele>96.4</ele>
        <time>2021-01-23T12:19:39Z</time>
      </trkpt>
      <trkpt lat="43.61794" lon="3.77823">
        <ele>96.3</ele>
        <time>2021-01-23T12:19:40Z</time>
      </trkpt>
      <trkpt lat="43.61795" lon="3.7782">
        <ele>96.2</ele>
        <time>2021-01-23T12:19:41Z</time>
      </trkpt>
      <trkpt lat="43.61796" lon="3.77816">
        <ele>96.1</ele>
        <time>2021-01-23T12:19:42Z</time>
      </trkpt>
      <trkpt lat="43.61797" lon="3.77813">
        <ele>96</ele>
        <time>2021-01-23T12:19:43Z</time>
      </trkpt>
      <trkpt lat="43.61797" lon="3.77809">
        <ele>96.1</ele>
        <time>2021-01-23T12:19:45Z</time>
      </trkpt>
      <trkpt lat="43.61798" lon="3.77806">
        <ele>96.1</ele>
        <time>2021-01-23T12:19:46Z</time>
      </trkpt>
      <trkpt lat="43.61799" lon="3.77802">
        <ele>96</ele>
        <time>2021-01-23T12:19:47Z</time>
      </trkpt>
      <trkpt lat="43.618" lon="3.77799">
        <ele>96</ele>
        <time>2021-01-23T12:19:48Z</time>
      </trkpt>
      <trkpt lat="43.618" lon="3.77795">
        <ele>96.1</ele>
        <time>2021-01-23T12:19:49Z</time>
      </trkpt>
      <trkpt lat="43.61801" lon="3.77792">
        <ele>96.1</ele>
        <time>2021-01-23T12:19:50Z</time>
      </trkpt>
      <trkpt lat="43.61802" lon="3.77788">
        <ele>96.1</ele>
        <time>2021-01-23T12:19:51Z</time>
      </trkpt>
      <trkpt lat="43.61803" lon="3.77785">
        <ele>96</ele>
        <time>2021-01-23T12:19:52Z</time>
      </trkpt>
      <trkpt lat="43.61804" lon="3.77781">
        <ele>96.1</ele>
        <time>2021-01-23T12:19:53Z</time>
      </trkpt>
      <trkpt lat="43.61805" lon="3.77778">
        <ele>97</ele>
        <time>2021-01-23T12:19:54Z</time>
      </trkpt>
      <trkpt lat="43.61806" lon="3.77775">
        <ele>96.1</ele>
        <time>2021-01-23T12:19:55Z</time>
      </trkpt>
      <trkpt lat="43.61806" lon="3.77771">
        <ele>96.2</ele>
        <time>2021-01-23T12:19:56Z</time>
      </trkpt>
      <trkpt lat="43.61807" lon="3.77767">
        <ele>96.2</ele>
        <time>2021-01-23T12:19:57Z</time>
      </trkpt>
      <trkpt lat="43.61808" lon="3.77764">
        <ele>96.2</ele>
        <time>2021-01-23T12:19:58Z</time>
      </trkpt>
      <trkpt lat="43.61809" lon="3.7776">
        <ele>96.3</ele>
        <time>2021-01-23T12:19:59Z</time>
      </trkpt>
      <trkpt lat="43.6181" lon="3.77757">
        <ele>96.3</ele>
        <time>2021-01-23T12:20:00Z</time>
      </trkpt>
      <trkpt lat="43.61811" lon="3.77753">
        <ele>96.3</ele>
        <time>2021-01-23T12:20:01Z</time>
      </trkpt>
      <trkpt lat="43.61812" lon="3.7775">
        <ele>96.3</ele>
        <time>2021-01-23T12:20:02Z</time>
      </trkpt>
      <trkpt lat="43.61812" lon="3.77746">
        <ele>96.4</ele>
        <time>2021-01-23T12:20:03Z</time>
      </trkpt>
      <trkpt lat="43.61813" lon="3.77743">
        <ele>98</ele>
        <time>2021-01-23T12:20:04Z</time>
      </trkpt>
      <trkpt lat="43.61814" lon="3.77739">
        <ele>96.5</ele>
        <time>2021-01-23T12:20:05Z</time>
      </trkpt>
      <trkpt lat="43.61815" lon="3.77736">
        <ele>96.5</ele>
        <time>2021-01-23T12:20:06Z</time>
      </trkpt>
      <trkpt lat="43.61815" lon="3.77732">
        <ele>96.6</ele>
        <time>2021-01-23T12:20:07Z</time>
      </trkpt>
      <trkpt lat="43.61816" lon="3.77728">
        <ele>96.7</ele>
        <time>2021-01-23T12:20:08Z</time>
      </trkpt>
      <trkpt lat="43.61817" lon="3.77725">
        <ele>96.7</ele>
        <time>2021-01-23T12:20:09Z</time>
      </trkpt>
      <trkpt lat="43.61818" lon="3.77722">
        <ele>96.7</ele>
        <time>2021-01-23T12:20:10Z</time>
      </trkpt>
      <trkpt lat="43.61819" lon="3.77718">
        <ele>96.8</ele>
        <time>2021-01-23T12:20:11Z</time>
      </trkpt>
      <trkpt lat="43.61821" lon="3.77715">
        <ele>96.7</ele>
        <time>2021-01-23T12:20:12Z</time>
      </trkpt>
      <trkpt lat="43.61822" lon="3.77712">
        <ele>96.8</ele>
        <time>2021-01-23T12:20:13Z</time>
      </trkpt>
      <trkpt lat="43.61823" lon="3.77709">
        <ele>99</ele>
        <time>2021-01-23T12:20:14Z</time>
      </trkpt>
      <trkpt lat="43.61824" lon="3.77705">
        <ele>97</ele>
        <time>2021-01-23T12:20:15Z</time>
      </trkpt>
      <trkpt lat="43.61825" lon="3.77702">
        <ele>97.1</ele>
        <time>2021-01-23T12:20:16Z</time>
      </trkpt>
      <trkpt lat="43.61826" lon="3.77698">
        <ele>97.3</ele>
        <time>2021-01-23T12:20:17Z</time>
      </trkpt>
      <trkpt lat="43.61827" lon="3.77695">
        <ele>97.4</ele>
        <time>2021-01-23T12:20:18Z</time>
      </trkpt>
      <trkpt lat="43.61828" lon="3.77691">
        <ele>97.5</ele>
        <time>2021-01-23T12:20:19Z</time>
      </trkpt>
      <trkpt lat="43.61829" lon="3.77688">
        <ele>97.5</ele>
        <time>2021-01-23T12:20:20Z</time>
      </trkpt>
      <trkpt lat="43.6183" lon="3.77684">
        <ele>97.6</ele>
        <time>2021-01-23T12:20:21Z</time>
      </trkpt>
      <trkpt lat="43.61831" lon="3.77681">
        <ele>97.7</ele>
        <time>2021-01-23T12:20:22Z</time>
      </trkpt>
      <trkpt lat="43.61831" lon="3.77677">
        <ele>97.8</ele>
        <time>2021-01-23T12:20:23Z</time>
      </trkpt>
      <trkpt lat="43.61831" lon="3.77673">
        <ele>101</ele>
        <time>2021-01-23T12:20:24Z</time>
      </trkpt>
      <trkpt lat="43.61832" lon="3.7767">
        <ele>98</ele>
        <time>2021-01-23T12:20:25Z</time>
      </trkpt>
      <trkpt lat="43.61833" lon="3.77666">
        <ele>98</ele>
        <time>2021-01-23T12:20:26Z</time>
      </trkpt>
      <trkpt lat="43.61833" lon="3.77662">
        <ele>98</ele>
        <time>2021-01-23T12:20:27Z</time>
      </trkpt>
      <trkpt lat="43.61835" lon="3.77659">
        <ele>97.8</ele>
        <time>2021-01-23T12:20:28Z</time>
      </trkpt>
      <trkpt lat="43.61836" lon="3.77656">
        <ele>97.7</ele>
        <time>2021-01-23T12:20:29Z</time>
      </trkpt>
      <trkpt lat="43.61838" lon="3.77653">
        <ele>97.6</ele>
        <time>2021-01-23T12:20:30Z</time>
      </trkpt>
      <trkpt lat="43.61839" lon="3.7765">
        <ele>97.5</ele>
        <time>2021-01-23T12:20:31Z</time>
      </trkpt>
      <trkpt lat="43.6184" lon="3.77647">
        <ele>97.4</ele>
        <time>2021-01-23T12:20:32Z</time>
      </trkpt>
      <trkpt lat="43.61841" lon="3.77644">
        <ele>97.4</ele>
        <time>2021-01-23T12:20:33Z</time>
      </trkpt>
      <trkpt lat="43.61842" lon="3.77641">
        <ele>102</ele>
        <time>2021-01-23T12:20:34Z</time>
      </trkpt>
      <trkpt lat="43.61843" lon="3.77637">
        <ele>97.4</ele>
        <time>2021-01-23T12:20:35Z</time>
      </trkpt>
      <trkpt lat="43.61844" lon="3.77634">
        <ele>97.5</ele>
        <time>2021-01-23T12:20:36Z</time>
      </trkpt>
      <trkpt lat="43.61845" lon="3.77631">
        <ele>97.6</ele>
        <time>2021-01-23T12:20:37Z</time>
      </trkpt>
      <trkpt lat="43.61846" lon="3.77628">
        <ele>97.7</ele>
        <time>2021-01-23T12:20:38Z</time>
      </trkpt>
      <trkpt lat="43.61847" lon="3.77625">
        <ele>97.8</ele>
        <time>2021-01-23T12:20:39Z</time>
      </trkpt>
      <trkpt lat="43.61848" lon="3.77622">
        <ele>97.8</ele>
        <time>2021-01-23T12:20:40Z</time>
      </trkpt>
      <trkpt lat="43.61849" lon="3.77618">
        <ele>98</ele>
        <time>2021-01-23T12:20:41Z</time>
      </trkpt>
      <trkpt lat="43.6185" lon="3.77615">
        <ele>98</ele>
        <time>2021-01-23T12:20:42Z</time>
      </trkpt>
      <trkpt lat="43.61851" lon="3.77611">
        <ele>98.1</ele>
        <time>2021-01-23T12:20:43Z</time>
      </trkpt>
      <trkpt lat="43.61851" lon="3.77608">
        <ele>102</ele>
        <time>2021-01-23T12:20:44Z</time>
      </trkpt>
      <trkpt lat="43.61852" lon="3.77604">
        <ele>98.4</ele>
        <time>2021-01-23T12:20:45Z</time>
      </trkpt>
      <trkpt lat="43.61852" lon="3.776">
        <ele>98.7</ele>
        <time>2021-01-23T12:20:46Z</time>
      </trkpt>
      <trkpt lat="43.61853" lon="3.77597">
        <ele>98.7</ele>
        <time>2021-01-23T12:20:47Z</time>
      </trkpt>
      <trkpt lat="43.61854" lon="3.77594">
        <ele>98.8</ele>
        <time>2021-01-23T12:20:48Z</time>
      </trkpt>
      <trkpt lat="43.61854" lon="3.7759">
        <ele>99.1</ele>
        <time>2021-01-23T12:20:49Z</time>
      </trkpt>
      <trkpt lat="43.61855" lon="3.77587">
        <ele>99.2</ele>
        <time>2021-01-23T12:20:50Z</time>
      </trkpt>
      <trkpt lat="43.61856" lon="3.77584">
        <ele>99.3</ele>
        <time>2021-01-23T12:20:51Z</time>
      </trkpt>
      <trkpt lat="43.61858" lon="3.7758">
        <ele>99.4</ele>
        <time>2021-01-23T12:20:52Z</time>
      </trkpt>
      <trkpt lat="43.61859" lon="3.77577">
        <ele>99.6</ele>
        <time>2021-01-23T12:20:53Z</time>
      </trkpt>
      <trkpt lat="43.6186" lon="3.77574">
        <ele>103</ele>
        <time>2021-01-23T12:20:54Z</time>
      </trkpt>
      <trkpt lat="43.61862" lon="3.77571">
        <ele>99.8</ele>
        <time>2021-01-23T12:20:55Z</time>
      </trkpt>
      <trkpt lat="43.61862" lon="3.77568">
        <ele>100</ele>
        <time>2021-01-23T12:20:56Z</time>
      </trkpt>
      <trkpt lat="43.61863" lon="3.77565">
        <ele>100.1</ele>
        <time>2021-01-23T12:20:57Z</time>
      </trkpt>
      <trkpt lat="43.61864" lon="3.77561">
        <ele>100.2</ele>
        <time>2021-01-23T12:20:58Z</time>
      </trkpt>
      <trkpt lat="43.61866" lon="3.77558">
        <ele>100.1</ele>
        <time>2021-01-23T12:20:59Z</time>
      </trkpt>
      <trkpt lat="43.61867" lon="3.77555">
        <ele>100.2</ele>
        <time>2021-01-23T12:21:00Z</time>
      </trkpt>
      <trkpt lat="43.61868" lon="3.77552">
        <ele>100.1</ele>
        <time>2021-01-23T12:21:01Z</time>
      </trkpt>
      <trkpt lat="43.61869" lon="3.77548">
        <ele>100.1</ele>
        <time>2021-01-23T12:21:02Z</time>
      </trkpt>
      <trkpt lat="43.6187" lon="3.77545">
        <ele>100.1</ele>
        <time>2021-01-23T12:21:03Z</time>
      </trkpt>
      <trkpt lat="43.61871" lon="3.77541">
        <ele>104</ele>
        <time>2021-01-23T12:21:04Z</time>
      </trkpt>
      <trkpt lat="43.61872" lon="3.77538">
        <ele>100.1</ele>
        <time>2021-01-23T12:21:05Z</time>
      </trkpt>
      <trkpt lat="43.61873" lon="3.77535">
        <ele>100</ele>
        <time>2021-01-23T12:21:06Z</time>
      </trkpt>
      <trkpt lat="43.61874" lon="3.77531">
        <ele>100</ele>
        <time>2021-01-23T12:21:07Z</time>
      </trkpt>
      <trkpt lat="43.61875" lon="3.77528">
        <ele>100</ele>
        <time>2021-01-23T12:21:08Z</time>
      </trkpt>
      <trkpt lat="43.61876" lon="3.77525">
        <ele>100</ele>
        <time>2021-01-23T12:21:09Z</time>
      </trkpt>
      <trkpt lat="43.61877" lon="3.77522">
        <ele>100</ele>
        <time>2021-01-23T12:21:10Z</time>
      </trkpt>
      <trkpt lat="43.61878" lon="3.77519">
        <ele>100.1</ele>
        <time>2021-01-23T12:21:11Z</time>
      </trkpt>
      <trkpt lat="43.61879" lon="3.77516">
        <ele>100.1</ele>
        <time>2021-01-23T12:21:12Z</time>
      </trkpt>
      <trkpt lat="43.6188" lon="3.77513">
        <ele>100.2</ele>
        <time>2021-01-23T12:21:13Z</time>
      </trkpt>
      <trkpt lat="43.61881" lon="3.7751">
        <ele>105</ele>
        <time>2021-01-23T12:21:14Z</time>
      </trkpt>
      <trkpt lat="43.61881" lon="3.77507">
        <ele>100.4</ele>
        <time>2021-01-23T12:21:15Z</time>
      </trkpt>
      <trkpt lat="43.61882" lon="3.77503">
        <ele>100.6</ele>
        <time>2021-01-23T12:21:16Z</time>
      </trkpt>
      <trkpt lat="43.61882" lon="3.775">
        <ele>100.7</ele>
        <time>2021-01-23T12:21:17Z</time>
      </trkpt>
      <trkpt lat="43.61883" lon="3.77497">
        <ele>100.8</ele>
        <time>2021-01-23T12:21:18Z</time>
      </trkpt>
      <trkpt lat="43.61884" lon="3.77493">
        <ele>100.9</ele>
        <time>2021-01-23T12:21:19Z</time>
      </trkpt>
      <trkpt lat="43.61885" lon="3.7749">
        <ele>101</ele>
        <time>2021-01-23T12:21:20Z</time>
      </trkpt>
      <trkpt lat="43.61886" lon="3.77487">
        <ele>101.2</ele>
        <time>2021-01-23T12:21:21Z</time>
      </trkpt>
      <trkpt lat="43.61887" lon="3.77483">
        <ele>101.3</ele>
        <time>2021-01-23T12:21:22Z</time>
      </trkpt>
      <trkpt lat="43.61888" lon="3.7748">
        <ele>101.5</ele>
        <time>2021-01-23T12:21:23Z</time>
      </trkpt>
      <trkpt lat="43.61889" lon="3.77477">
        <ele>105</ele>
        <time>2021-01-23T12:21:24Z</time>
      </trkpt>
      <trkpt lat="43.61891" lon="3.77473">
        <ele>101.7</ele>
        <time>2021-01-23T12:21:25Z</time>
      </trkpt>
      <trkpt lat="43.61891" lon="3.7747">
        <ele>101.9</ele>
        <time>2021-01-23T12:21:26Z</time>
      </trkpt>
      <trkpt lat="43.61892" lon="3.77467">
        <ele>101.9</ele>
        <time>2021-01-23T12:21:27Z</time>
      </trkpt>
      <trkpt lat="43.61894" lon="3.77464">
        <ele>101.7</ele>
        <time>2021-01-23T12:21:28Z</time>
      </trkpt>
      <trkpt lat="43.61895" lon="3.7746">
        <ele>101.8</ele>
        <time>2021-01-23T12:21:29Z</time>
      </trkpt>
      <trkpt lat="43.61896" lon="3.77457">
        <ele>101.8</ele>
        <time>2021-01-23T12:21:30Z</time>
      </trkpt>
      <trkpt lat="43.61897" lon="3.77453">
        <ele>101.8</ele>
        <time>2021-01-23T12:21:31Z</time>
      </trkpt>
      <trkpt lat="43.61898" lon="3.7745">
        <ele>101.8</ele>
        <time>2021-01-23T12:21:32Z</time>
      </trkpt>
      <trkpt lat="43.619" lon="3.77447">
        <ele>101.7</ele>
        <time>2021-01-23T12:21:33Z</time>
      </trkpt>
      <trkpt lat="43.61901" lon="3.77444">
        <ele>106</ele>
        <time>2021-01-23T12:21:34Z</time>
      </trkpt>
      <trkpt lat="43.61903" lon="3.77441">
        <ele>101.7</ele>
        <time>2021-01-23T12:21:35Z</time>
      </trkpt>
      <trkpt lat="43.61903" lon="3.77438">
        <ele>101.9</ele>
        <time>2021-01-23T12:21:36Z</time>
      </trkpt>
      <trkpt lat="43.61904" lon="3.77434">
        <ele>102.1</ele>
        <time>2021-01-23T12:21:37Z</time>
      </trkpt>
      <trkpt lat="43.61905" lon="3.77431">
        <ele>102.2</ele>
        <time>2021-01-23T12:21:38Z</time>
      </trkpt>
      <trkpt lat="43.61906" lon="3.77428">
        <ele>102.3</ele>
        <time>2021-01-23T12:21:39Z</time>
      </trkpt>
      <trkpt lat="43.61908" lon="3.77424">
        <ele>102.4</ele>
        <time>2021-01-23T12:21:40Z</time>
      </trkpt>
      <trkpt lat="43.61909" lon="3.77421">
        <ele>102.5</ele>
        <time>2021-01-23T12:21:41Z</time>
      </trkpt>
      <trkpt lat="43.6191" lon="3.77417">
        <ele>102.7</ele>
        <time>2021-01-23T12:21:42Z</time>
      </trkpt>
      <trkpt lat="43.61912" lon="3.77414">
        <ele>102.7</ele>
        <time>2021-01-23T12:21:43Z</time>
      </trkpt>
      <trkpt lat="43.61913" lon="3.77411">
        <ele>106</ele>
        <time>2021-01-23T12:21:44Z</time>
      </trkpt>
      <trkpt lat="43.61915" lon="3.77407">
        <ele>102.9</ele>
        <time>2021-01-23T12:21:45Z</time>
      </trkpt>
      <trkpt lat="43.61916" lon="3.77403">
        <ele>103.1</ele>
        <time>2021-01-23T12:21:46Z</time>
      </trkpt>
      <trkpt lat="43.61917" lon="3.77399">
        <ele>103.2</ele>
        <time>2021-01-23T12:21:47Z</time>
      </trkpt>
      <trkpt lat="43.61919" lon="3.77395">
        <ele>103.4</ele>
        <time>2021-01-23T12:21:48Z</time>
      </trkpt>
      <trkpt lat="43.6192" lon="3.77391">
        <ele>103.6</ele>
        <time>2021-01-23T12:21:49Z</time>
      </trkpt>
      <trkpt lat="43.61921" lon="3.77388">
        <ele>103.8</ele>
        <time>2021-01-23T12:21:50Z</time>
      </trkpt>
      <trkpt lat="43.61923" lon="3.77384">
        <ele>104</ele>
        <time>2021-01-23T12:21:51Z</time>
      </trkpt>
      <trkpt lat="43.61924" lon="3.7738">
        <ele>104.3</ele>
        <time>2021-01-23T12:21:52Z</time>
      </trkpt>
      <trkpt lat="43.61925" lon="3.77377">
        <ele>104.6</ele>
        <time>2021-01-23T12:21:53Z</time>
      </trkpt>
      <trkpt lat="43.61927" lon="3.77373">
        <ele>107</ele>
        <time>2021-01-23T12:21:54Z</time>
      </trkpt>
      <trkpt lat="43.61928" lon="3.7737">
        <ele>104.9</ele>
        <time>2021-01-23T12:21:55Z</time>
      </trkpt>
      <trkpt lat="43.61929" lon="3.77366">
        <ele>105.2</ele>
        <time>2021-01-23T12:21:56Z</time>
      </trkpt>
      <trkpt lat="43.61931" lon="3.77362">
        <ele>105.4</ele>
        <time>2021-01-23T12:21:57Z</time>
      </trkpt>
      <trkpt lat="43.61932" lon="3.77359">
        <ele>105.4</ele>
        <time>2021-01-23T12:21:58Z</time>
      </trkpt>
      <trkpt lat="43.61934" lon="3.77355">
        <ele>105.4</ele>
        <time>2021-01-23T12:21:59Z</time>
      </trkpt>
      <trkpt lat="43.61935" lon="3.77352">
        <ele>105.4</ele>
        <time>2021-01-23T12:22:00Z</time>
      </trkpt>
      <trkpt lat="43.61937" lon="3.77348">
        <ele>105.2</ele>
        <time>2021-01-23T12:22:01Z</time>
      </trkpt>
      <trkpt lat="43.61939" lon="3.77344">
        <ele>105</ele>
        <time>2021-01-23T12:22:02Z</time>
      </trkpt>
      <trkpt lat="43.6194" lon="3.77341">
        <ele>104.8</ele>
        <time>2021-01-23T12:22:03Z</time>
      </trkpt>
      <trkpt lat="43.61941" lon="3.77337">
        <ele>107</ele>
        <time>2021-01-23T12:22:04Z</time>
      </trkpt>
      <trkpt lat="43.61942" lon="3.77333">
        <ele>104.6</ele>
        <time>2021-01-23T12:22:05Z</time>
      </trkpt>
      <trkpt lat="43.61944" lon="3.77329">
        <ele>104.7</ele>
        <time>2021-01-23T12:22:06Z</time>
      </trkpt>
      <trkpt lat="43.61946" lon="3.77325">
        <ele>105.1</ele>
        <time>2021-01-23T12:22:07Z</time>
      </trkpt>
      <trkpt lat="43.61948" lon="3.77322">
        <ele>105.3</ele>
        <time>2021-01-23T12:22:08Z</time>
      </trkpt>
      <trkpt lat="43.6195" lon="3.77319">
        <ele>105.6</ele>
        <time>2021-01-23T12:22:09Z</time>
      </trkpt>
      <trkpt lat="43.61951" lon="3.77315">
        <ele>106</ele>
        <time>2021-01-23T12:22:10Z</time>
      </trkpt>
      <trkpt lat="43.61953" lon="3.77312">
        <ele>106.2</ele>
        <time>2021-01-23T12:22:11Z</time>
      </trkpt>
      <trkpt lat="43.61954" lon="3.77308">
        <ele>106.6</ele>
        <time>2021-01-23T12:22:12Z</time>
      </trkpt>
      <trkpt lat="43.61956" lon="3.77304">
        <ele>106.8</ele>
        <time>2021-01-23T12:22:13Z</time>
      </trkpt>
      <trkpt lat="43.61957" lon="3.773">
        <ele>109</ele>
        <time>2021-01-23T12:22:14Z</time>
      </trkpt>
      <trkpt lat="43.61958" lon="3.77296">
        <ele>107.1</ele>
        <time>2021-01-23T12:22:15Z</time>
      </trkpt>
      <trkpt lat="43.6196" lon="3.77292">
        <ele>107</ele>
        <time>2021-01-23T12:22:16Z</time>
      </trkpt>
      <trkpt lat="43.61961" lon="3.77288">
        <ele>107.1</ele>
        <time>2021-01-23T12:22:17Z</time>
      </trkpt>
      <trkpt lat="43.61963" lon="3.77284">
        <ele>107</ele>
        <time>2021-01-23T12:22:18Z</time>
      </trkpt>
      <trkpt lat="43.61965" lon="3.7728">
        <ele>106.9</ele>
        <time>2021-01-23T12:22:19Z</time>
      </trkpt>
      <trkpt lat="43.61967" lon="3.77276">
        <ele>106.8</ele>
        <time>2021-01-23T12:22:20Z</time>
      </trkpt>
      <trkpt lat="43.61968" lon="3.77271">
        <ele>106.9</ele>
        <time>2021-01-23T12:22:21Z</time>
      </trkpt>
      <trkpt lat="43.6197" lon="3.77267">
        <ele>106.8</ele>
        <time>2021-01-23T12:22:22Z</time>
      </trkpt>
      <trkpt lat="43.61971" lon="3.77262">
        <ele>106.8</ele>
        <time>2021-01-23T12:22:23Z</time>
      </trkpt>
      <trkpt lat="43.61973" lon="3.77258">
        <ele>109</ele>
        <time>2021-01-23T12:22:24Z</time>
      </trkpt>
      <trkpt lat="43.61974" lon="3.77253">
        <ele>106.6</ele>
        <time>2021-01-23T12:22:25Z</time>
      </trkpt>
      <trkpt lat="43.61976" lon="3.77249">
        <ele>106.5</ele>
        <time>2021-01-23T12:22:26Z</time>
      </trkpt>
      <trkpt lat="43.61977" lon="3.77245">
        <ele>106.6</ele>
        <time>2021-01-23T12:22:27Z</time>
      </trkpt>
      <trkpt lat="43.61979" lon="3.77241">
        <ele>106.6</ele>
        <time>2021-01-23T12:22:28Z</time>
      </trkpt>
      <trkpt lat="43.6198" lon="3.77237">
        <ele>106.7</ele>
        <time>2021-01-23T12:22:29Z</time>
      </trkpt>
      <trkpt lat="43.61982" lon="3.77233">
        <ele>106.6</ele>
        <time>2021-01-23T12:22:30Z</time>
      </trkpt>
      <trkpt lat="43.61984" lon="3.77229">
        <ele>106.5</ele>
        <time>2021-01-23T12:22:31Z</time>
      </trkpt>
      <trkpt lat="43.61985" lon="3.77225">
        <ele>106.5</ele>
        <time>2021-01-23T12:22:32Z</time>
      </trkpt>
      <trkpt lat="43.61987" lon="3.77221">
        <ele>106.4</ele>
        <time>2021-01-23T12:22:33Z</time>
      </trkpt>
      <trkpt lat="43.61989" lon="3.77217">
        <ele>110</ele>
        <time>2021-01-23T12:22:34Z</time>
      </trkpt>
      <trkpt lat="43.6199" lon="3.77213">
        <ele>106.3</ele>
        <time>2021-01-23T12:22:35Z</time>
      </trkpt>
      <trkpt lat="43.61992" lon="3.77209">
        <ele>106.3</ele>
        <time>2021-01-23T12:22:36Z</time>
      </trkpt>
      <trkpt lat="43.61994" lon="3.77205">
        <ele>106.2</ele>
        <time>2021-01-23T12:22:37Z</time>
      </trkpt>
      <trkpt lat="43.61995" lon="3.77201">
        <ele>106.3</ele>
        <time>2021-01-23T12:22:38Z</time>
      </trkpt>
      <trkpt lat="43.61997" lon="3.77197">
        <ele>106.3</ele>
        <time>2021-01-23T12:22:39Z</time>
      </trkpt>
      <trkpt lat="43.61999" lon="3.77193">
        <ele>106.1</ele>
        <time>2021-01-23T12:22:40Z</time>
      </trkpt>
      <trkpt lat="43.62001" lon="3.77189">
        <ele>105.6</ele>
        <time>2021-01-23T12:22:41Z</time>
      </trkpt>
      <trkpt lat="43.62003" lon="3.77185">
        <ele>105.1</ele>
        <time>2021-01-23T12:22:42Z</time>
      </trkpt>
      <trkpt lat="43.62005" lon="3.77182">
        <ele>104.6</ele>
        <time>2021-01-23T12:22:43Z</time>
      </trkpt>
      <trkpt lat="43.62007" lon="3.77178">
        <ele>110</ele>
        <time>2021-01-23T12:22:44Z</time>
      </trkpt>
      <trkpt lat="43.6201" lon="3.7717">
        <ele>103.6</ele>
        <time>2021-01-23T12:22:45Z</time>
      </trkpt>
      <trkpt lat="43.62012" lon="3.77165">
        <ele>103.4</ele>
        <time>2021-01-23T12:22:46Z</time>
      </trkpt>
      <trkpt lat="43.62013" lon="3.77161">
        <ele>103.6</ele>
        <time>2021-01-23T12:22:47Z</time>
      </trkpt>
      <trkpt lat="43.62015" lon="3.77157">
        <ele>103.8</ele>
        <time>2021-01-23T12:22:48Z</time>
      </trkpt>
      <trkpt lat="43.62017" lon="3.77153">
        <ele>104.1</ele>
        <time>2021-01-23T12:22:49Z</time>
      </trkpt>
      <trkpt lat="43.62019" lon="3.77149">
        <ele>104.4</ele>
        <time>2021-01-23T12:22:50Z</time>
      </trkpt>
      <trkpt lat="43.62021" lon="3.77145">
        <ele>104.9</ele>
        <time>2021-01-23T12:22:51Z</time>
      </trkpt>
      <trkpt lat="43.62022" lon="3.7714">
        <ele>105.6</ele>
        <time>2021-01-23T12:22:52Z</time>
      </trkpt>
      <trkpt lat="43.62024" lon="3.77136">
        <ele>105.7</ele>
        <time>2021-01-23T12:22:53Z</time>
      </trkpt>
      <trkpt lat="43.62026" lon="3.77131">
        <ele>105.4</ele>
        <time>2021-01-23T12:22:55Z</time>
      </trkpt>
      <trkpt lat="43.62027" lon="3.77127">
        <ele>105.1</ele>
        <time>2021-01-23T12:22:56Z</time>
      </trkpt>
      <trkpt lat="43.62029" lon="3.77123">
        <ele>104.6</ele>
        <time>2021-01-23T12:22:57Z</time>
      </trkpt>
      <trkpt lat="43.62031" lon="3.77118">
        <ele>104</ele>
        <time>2021-01-23T12:22:58Z</time>
      </trkpt>
      <trkpt lat="43.62033" lon="3.77114">
        <ele>103.6</ele>
        <time>2021-01-23T12:22:59Z</time>
      </trkpt>
      <trkpt lat="43.62034" lon="3.77109">
        <ele>103.4</ele>
        <time>2021-01-23T12:23:00Z</time>
      </trkpt>
      <trkpt lat="43.62036" lon="3.77105">
        <ele>103.4</ele>
        <time>2021-01-23T12:23:01Z</time>
      </trkpt>
      <trkpt lat="43.62038" lon="3.771">
        <ele>103.5</ele>
        <time>2021-01-23T12:23:02Z</time>
      </trkpt>
      <trkpt lat="43.62039" lon="3.77096">
        <ele>103.7</ele>
        <time>2021-01-23T12:23:03Z</time>
      </trkpt>
      <trkpt lat="43.62041" lon="3.77092">
        <ele>111</ele>
        <time>2021-01-23T12:23:04Z</time>
      </trkpt>
      <trkpt lat="43.62043" lon="3.77088">
        <ele>104.2</ele>
        <time>2021-01-23T12:23:05Z</time>
      </trkpt>
      <trkpt lat="43.62045" lon="3.77084">
        <ele>104.6</ele>
        <time>2021-01-23T12:23:06Z</time>
      </trkpt>
      <trkpt lat="43.62046" lon="3.7708">
        <ele>105.1</ele>
        <time>2021-01-23T12:23:07Z</time>
      </trkpt>
      <trkpt lat="43.62048" lon="3.77076">
        <ele>105.8</ele>
        <time>2021-01-23T12:23:08Z</time>
      </trkpt>
      <trkpt lat="43.6205" lon="3.77072">
        <ele>106.4</ele>
        <time>2021-01-23T12:23:09Z</time>
      </trkpt>
      <trkpt lat="43.62051" lon="3.77068">
        <ele>107</ele>
        <time>2021-01-23T12:23:10Z</time>
      </trkpt>
      <trkpt lat="43.62053" lon="3.77064">
        <ele>107.7</ele>
        <time>2021-01-23T12:23:11Z</time>
      </trkpt>
      <trkpt lat="43.62055" lon="3.7706">
        <ele>108.3</ele>
        <time>2021-01-23T12:23:12Z</time>
      </trkpt>
      <trkpt lat="43.62056" lon="3.77056">
        <ele>108.9</ele>
        <time>2021-01-23T12:23:13Z</time>
      </trkpt>
      <trkpt lat="43.62058" lon="3.77052">
        <ele>112</ele>
        <time>2021-01-23T12:23:14Z</time>
      </trkpt>
      <trkpt lat="43.6206" lon="3.77048">
        <ele>109.4</ele>
        <time>2021-01-23T12:23:15Z</time>
      </trkpt>
      <trkpt lat="43.62061" lon="3.77043">
        <ele>109.7</ele>
        <time>2021-01-23T12:23:16Z</time>
      </trkpt>
      <trkpt lat="43.62063" lon="3.77039">
        <ele>109.9</ele>
        <time>2021-01-23T12:23:17Z</time>
      </trkpt>
      <trkpt lat="43.62065" lon="3.77035">
        <ele>110.1</ele>
        <time>2021-01-23T12:23:18Z</time>
      </trkpt>
      <trkpt lat="43.62067" lon="3.77031">
        <ele>112</ele>
        <time>2021-01-23T12:23:19Z</time>
      </trkpt>
      <trkpt lat="43.62069" lon="3.77028">
        <ele>110.5</ele>
        <time>2021-01-23T12:23:20Z</time>
      </trkpt>
      <trkpt lat="43.6207" lon="3.77024">
        <ele>110.7</ele>
        <time>2021-01-23T12:23:21Z</time>
      </trkpt>
      <trkpt lat="43.62072" lon="3.7702">
        <ele>110.9</ele>
        <time>2021-01-23T12:23:22Z</time>
      </trkpt>
      <trkpt lat="43.62073" lon="3.77016">
        <ele>111.1</ele>
        <time>2021-01-23T12:23:23Z</time>
      </trkpt>
      <trkpt lat="43.62075" lon="3.77012">
        <ele>112</ele>
        <time>2021-01-23T12:23:24Z</time>
      </trkpt>
      <trkpt lat="43.62076" lon="3.77009">
        <ele>111.3</ele>
        <time>2021-01-23T12:23:25Z</time>
      </trkpt>
      <trkpt lat="43.62078" lon="3.77005">
        <ele>111.3</ele>
        <time>2021-01-23T12:23:26Z</time>
      </trkpt>
      <trkpt lat="43.62079" lon="3.77001">
        <ele>111.4</ele>
        <time>2021-01-23T12:23:27Z</time>
      </trkpt>
      <trkpt lat="43.62081" lon="3.76997">
        <ele>111.6</ele>
        <time>2021-01-23T12:23:28Z</time>
      </trkpt>
      <trkpt lat="43.62083" lon="3.76993">
        <ele>111.8</ele>
        <time>2021-01-23T12:23:29Z</time>
      </trkpt>
      <trkpt lat="43.62084" lon="3.76989">
        <ele>112.2</ele>
        <time>2021-01-23T12:23:30Z</time>
      </trkpt>
      <trkpt lat="43.62086" lon="3.76985">
        <ele>112.5</ele>
        <time>2021-01-23T12:23:31Z</time>
      </trkpt>
      <trkpt lat="43.62088" lon="3.76982">
        <ele>112.7</ele>
        <time>2021-01-23T12:23:32Z</time>
      </trkpt>
      <trkpt lat="43.6209" lon="3.76978">
        <ele>113</ele>
        <time>2021-01-23T12:23:33Z</time>
      </trkpt>
      <trkpt lat="43.62092" lon="3.76974">
        <ele>113.2</ele>
        <time>2021-01-23T12:23:34Z</time>
      </trkpt>
      <trkpt lat="43.62094" lon="3.7697">
        <ele>113</ele>
        <time>2021-01-23T12:23:35Z</time>
      </trkpt>
      <trkpt lat="43.62095" lon="3.76966">
        <ele>113.6</ele>
        <time>2021-01-23T12:23:36Z</time>
      </trkpt>
      <trkpt lat="43.62097" lon="3.76962">
        <ele>113.8</ele>
        <time>2021-01-23T12:23:37Z</time>
      </trkpt>
      <trkpt lat="43.62098" lon="3.76958">
        <ele>114</ele>
        <time>2021-01-23T12:23:38Z</time>
      </trkpt>
      <trkpt lat="43.621" lon="3.76954">
        <ele>114.1</ele>
        <time>2021-01-23T12:23:39Z</time>
      </trkpt>
      <trkpt lat="43.62102" lon="3.7695">
        <ele>114.3</ele>
        <time>2021-01-23T12:23:40Z</time>
      </trkpt>
      <trkpt lat="43.62103" lon="3.76946">
        <ele>114.5</ele>
        <time>2021-01-23T12:23:41Z</time>
      </trkpt>
      <trkpt lat="43.62104" lon="3.76942">
        <ele>114.5</ele>
        <time>2021-01-23T12:23:42Z</time>
      </trkpt>
      <trkpt lat="43.62106" lon="3.76938">
        <ele>114.2</ele>
        <time>2021-01-23T12:23:43Z</time>
      </trkpt>
      <trkpt lat="43.62108" lon="3.76934">
        <ele>115</ele>
        <time>2021-01-23T12:23:44Z</time>
      </trkpt>
      <trkpt lat="43.62109" lon="3.7693">
        <ele>113.7</ele>
        <time>2021-01-23T12:23:45Z</time>
      </trkpt>
      <trkpt lat="43.6211" lon="3.76926">
        <ele>113.5</ele>
        <time>2021-01-23T12:23:46Z</time>
      </trkpt>
      <trkpt lat="43.62111" lon="3.76922">
        <ele>113.2</ele>
        <time>2021-01-23T12:23:47Z</time>
      </trkpt>
      <trkpt lat="43.62113" lon="3.76918">
        <ele>113</ele>
        <time>2021-01-23T12:23:48Z</time>
      </trkpt>
      <trkpt lat="43.62115" lon="3.76915">
        <ele>113.1</ele>
        <time>2021-01-23T12:23:49Z</time>
      </trkpt>
      <trkpt lat="43.62116" lon="3.76911">
        <ele>113.3</ele>
        <time>2021-01-23T12:23:50Z</time>
      </trkpt>
      <trkpt lat="43.62118" lon="3.76907">
        <ele>113.5</ele>
        <time>2021-01-23T12:23:51Z</time>
      </trkpt>
      <trkpt lat="43.6212" lon="3.76903">
        <ele>113.7</ele>
        <time>2021-01-23T12:23:52Z</time>
      </trkpt>
      <trkpt lat="43.62121" lon="3.76899">
        <ele>113.8</ele>
        <time>2021-01-23T12:23:53Z</time>
      </trkpt>
      <trkpt lat="43.62121" lon="3.76895">
        <ele>116</ele>
        <time>2021-01-23T12:23:54Z</time>
      </trkpt>
      <trkpt lat="43.62122" lon="3.7689">
        <ele>114.2</ele>
        <time>2021-01-23T12:23:55Z</time>
      </trkpt>
      <trkpt lat="43.62124" lon="3.76887">
        <ele>114.2</ele>
        <time>2021-01-23T12:23:56Z</time>
      </trkpt>
      <trkpt lat="43.62125" lon="3.76883">
        <ele>114.4</ele>
        <time>2021-01-23T12:23:57Z</time>
      </trkpt>
      <trkpt lat="43.62127" lon="3.76879">
        <ele>114.5</ele>
        <time>2021-01-23T12:23:58Z</time>
      </trkpt>
      <trkpt lat="43.62128" lon="3.76875">
        <ele>114.7</ele>
        <time>2021-01-23T12:23:59Z</time>
      </trkpt>
      <trkpt lat="43.62129" lon="3.76871">
        <ele>114.8</ele>
        <time>2021-01-23T12:24:00Z</time>
      </trkpt>
      <trkpt lat="43.62131" lon="3.76867">
        <ele>114.8</ele>
        <time>2021-01-23T12:24:01Z</time>
      </trkpt>
      <trkpt lat="43.62133" lon="3.76864">
        <ele>114.7</ele>
        <time>2021-01-23T12:24:02Z</time>
      </trkpt>
      <trkpt lat="43.62134" lon="3.76859">
        <ele>114.8</ele>
        <time>2021-01-23T12:24:03Z</time>
      </trkpt>
      <trkpt lat="43.62135" lon="3.76855">
        <ele>117</ele>
        <time>2021-01-23T12:24:04Z</time>
      </trkpt>
      <trkpt lat="43.62136" lon="3.76851">
        <ele>114.8</ele>
        <time>2021-01-23T12:24:05Z</time>
      </trkpt>
      <trkpt lat="43.62138" lon="3.76847">
        <ele>114.6</ele>
        <time>2021-01-23T12:24:06Z</time>
      </trkpt>
      <trkpt lat="43.62139" lon="3.76844">
        <ele>114.6</ele>
        <time>2021-01-23T12:24:07Z</time>
      </trkpt>
      <trkpt lat="43.62141" lon="3.7684">
        <ele>114.5</ele>
        <time>2021-01-23T12:24:08Z</time>
      </trkpt>
      <trkpt lat="43.62142" lon="3.76836">
        <ele>114.6</ele>
        <time>2021-01-23T12:24:09Z</time>
      </trkpt>
      <trkpt lat="43.62143" lon="3.76832">
        <ele>114.7</ele>
        <time>2021-01-23T12:24:10Z</time>
      </trkpt>
      <trkpt lat="43.62144" lon="3.76829">
        <ele>115</ele>
        <time>2021-01-23T12:24:11Z</time>
      </trkpt>
      <trkpt lat="43.62145" lon="3.76825">
        <ele>115.3</ele>
        <time>2021-01-23T12:24:12Z</time>
      </trkpt>
      <trkpt lat="43.62146" lon="3.76821">
        <ele>115.7</ele>
        <time>2021-01-23T12:24:13Z</time>
      </trkpt>
      <trkpt lat="43.62148" lon="3.76816">
        <ele>119</ele>
        <time>2021-01-23T12:24:14Z</time>
      </trkpt>
      <trkpt lat="43.62149" lon="3.76812">
        <ele>116.1</ele>
        <time>2021-01-23T12:24:15Z</time>
      </trkpt>
      <trkpt lat="43.6215" lon="3.76808">
        <ele>116.4</ele>
        <time>2021-01-23T12:24:16Z</time>
      </trkpt>
      <trkpt lat="43.62152" lon="3.76804">
        <ele>116.2</ele>
        <time>2021-01-23T12:24:17Z</time>
      </trkpt>
      <trkpt lat="43.62152" lon="3.768">
        <ele>116.2</ele>
        <time>2021-01-23T12:24:18Z</time>
      </trkpt>
      <trkpt lat="43.62153" lon="3.76796">
        <ele>116</ele>
        <time>2021-01-23T12:24:19Z</time>
      </trkpt>
      <trkpt lat="43.62154" lon="3.76792">
        <ele>115.8</ele>
        <time>2021-01-23T12:24:20Z</time>
      </trkpt>
      <trkpt lat="43.62154" lon="3.76788">
        <ele>115.8</ele>
        <time>2021-01-23T12:24:21Z</time>
      </trkpt>
      <trkpt lat="43.62156" lon="3.76784">
        <ele>115.5</ele>
        <time>2021-01-23T12:24:22Z</time>
      </trkpt>
      <trkpt lat="43.62157" lon="3.76779">
        <ele>115.4</ele>
        <time>2021-01-23T12:24:23Z</time>
      </trkpt>
      <trkpt lat="43.62158" lon="3.76775">
        <ele>118</ele>
        <time>2021-01-23T12:24:24Z</time>
      </trkpt>
      <trkpt lat="43.62159" lon="3.76771">
        <ele>115.3</ele>
        <time>2021-01-23T12:24:25Z</time>
      </trkpt>
      <trkpt lat="43.6216" lon="3.76767">
        <ele>115.3</ele>
        <time>2021-01-23T12:24:26Z</time>
      </trkpt>
      <trkpt lat="43.62161" lon="3.76763">
        <ele>115.3</ele>
        <time>2021-01-23T12:24:27Z</time>
      </trkpt>
      <trkpt lat="43.62163" lon="3.76759">
        <ele>115.2</ele>
        <time>2021-01-23T12:24:28Z</time>
      </trkpt>
      <trkpt lat="43.62164" lon="3.76755">
        <ele>115.2</ele>
        <time>2021-01-23T12:24:29Z</time>
      </trkpt>
      <trkpt lat="43.62166" lon="3.76751">
        <ele>115.1</ele>
        <time>2021-01-23T12:24:30Z</time>
      </trkpt>
      <trkpt lat="43.62167" lon="3.76747">
        <ele>115.2</ele>
        <time>2021-01-23T12:24:31Z</time>
      </trkpt>
      <trkpt lat="43.62168" lon="3.76744">
        <ele>115.3</ele>
        <time>2021-01-23T12:24:32Z</time>
      </trkpt>
      <trkpt lat="43.62169" lon="3.7674">
        <ele>115.4</ele>
        <time>2021-01-23T12:24:33Z</time>
      </trkpt>
      <trkpt lat="43.6217" lon="3.76735">
        <ele>119</ele>
        <time>2021-01-23T12:24:34Z</time>
      </trkpt>
      <trkpt lat="43.62171" lon="3.76731">
        <ele>115.8</ele>
        <time>2021-01-23T12:24:35Z</time>
      </trkpt>
      <trkpt lat="43.62172" lon="3.76727">
        <ele>115.9</ele>
        <time>2021-01-23T12:24:36Z</time>
      </trkpt>
      <trkpt lat="43.62173" lon="3.76723">
        <ele>116</ele>
        <time>2021-01-23T12:24:37Z</time>
      </trkpt>
      <trkpt lat="43.62175" lon="3.76718">
        <ele>116.1</ele>
        <time>2021-01-23T12:24:38Z</time>
      </trkpt>
      <trkpt lat="43.62176" lon="3.76714">
        <ele>116.2</ele>
        <time>2021-01-23T12:24:39Z</time>
      </trkpt>
      <trkpt lat="43.62177" lon="3.7671">
        <ele>116.4</ele>
        <time>2021-01-23T12:24:40Z</time>
      </trkpt>
      <trkpt lat="43.62178" lon="3.76706">
        <ele>116.5</ele>
        <time>2021-01-23T12:24:41Z</time>
      </trkpt>
      <trkpt lat="43.62179" lon="3.76702">
        <ele>116.7</ele>
        <time>2021-01-23T12:24:42Z</time>
      </trkpt>
      <trkpt lat="43.6218" lon="3.76698">
        <ele>116.8</ele>
        <time>2021-01-23T12:24:43Z</time>
      </trkpt>
      <trkpt lat="43.62182" lon="3.76694">
        <ele>120</ele>
        <time>2021-01-23T12:24:44Z</time>
      </trkpt>
      <trkpt lat="43.62183" lon="3.7669">
        <ele>117</ele>
        <time>2021-01-23T12:24:45Z</time>
      </trkpt>
      <trkpt lat="43.62184" lon="3.76686">
        <ele>117.2</ele>
        <time>2021-01-23T12:24:46Z</time>
      </trkpt>
      <trkpt lat="43.62185" lon="3.76682">
        <ele>117.4</ele>
        <time>2021-01-23T12:24:47Z</time>
      </trkpt>
      <trkpt lat="43.62187" lon="3.76678">
        <ele>117.4</ele>
        <time>2021-01-23T12:24:48Z</time>
      </trkpt>
      <trkpt lat="43.62188" lon="3.76674">
        <ele>117.6</ele>
        <time>2021-01-23T12:24:49Z</time>
      </trkpt>
      <trkpt lat="43.62189" lon="3.7667">
        <ele>117.7</ele>
        <time>2021-01-23T12:24:50Z</time>
      </trkpt>
      <trkpt lat="43.62191" lon="3.76666">
        <ele>117.6</ele>
        <time>2021-01-23T12:24:51Z</time>
      </trkpt>
      <trkpt lat="43.62192" lon="3.76661">
        <ele>117.7</ele>
        <time>2021-01-23T12:24:52Z</time>
      </trkpt>
      <trkpt lat="43.62193" lon="3.76657">
        <ele>117.6</ele>
        <time>2021-01-23T12:24:53Z</time>
      </trkpt>
      <trkpt lat="43.62194" lon="3.76653">
        <ele>121</ele>
        <time>2021-01-23T12:24:54Z</time>
      </trkpt>
      <trkpt lat="43.62195" lon="3.76648">
        <ele>117.6</ele>
        <time>2021-01-23T12:24:55Z</time>
      </trkpt>
      <trkpt lat="43.62196" lon="3.76644">
        <ele>117.6</ele>
        <time>2021-01-23T12:24:56Z</time>
      </trkpt>
      <trkpt lat="43.62197" lon="3.76639">
        <ele>117.6</ele>
        <time>2021-01-23T12:24:57Z</time>
      </trkpt>
      <trkpt lat="43.62198" lon="3.76635">
        <ele>117.8</ele>
        <time>2021-01-23T12:24:58Z</time>
      </trkpt>
      <trkpt lat="43.622" lon="3.76631">
        <ele>117.7</ele>
        <time>2021-01-23T12:24:59Z</time>
      </trkpt>
      <trkpt lat="43.62201" lon="3.76627">
        <ele>117.8</ele>
        <time>2021-01-23T12:25:00Z</time>
      </trkpt>
      <trkpt lat="43.62202" lon="3.76623">
        <ele>117.9</ele>
        <time>2021-01-23T12:25:01Z</time>
      </trkpt>
      <trkpt lat="43.62203" lon="3.76618">
        <ele>118</ele>
        <time>2021-01-23T12:25:02Z</time>
      </trkpt>
      <trkpt lat="43.62205" lon="3.76614">
        <ele>117.9</ele>
        <time>2021-01-23T12:25:03Z</time>
      </trkpt>
      <trkpt lat="43.62206" lon="3.7661">
        <ele>122</ele>
        <time>2021-01-23T12:25:04Z</time>
      </trkpt>
      <trkpt lat="43.62207" lon="3.76606">
        <ele>118.1</ele>
        <time>2021-01-23T12:25:05Z</time>
      </trkpt>
      <trkpt lat="43.62209" lon="3.76602">
        <ele>118</ele>
        <time>2021-01-23T12:25:06Z</time>
      </trkpt>
      <trkpt lat="43.62211" lon="3.76598">
        <ele>118</ele>
        <time>2021-01-23T12:25:07Z</time>
      </trkpt>
      <trkpt lat="43.62213" lon="3.76594">
        <ele>117.9</ele>
        <time>2021-01-23T12:25:08Z</time>
      </trkpt>
      <trkpt lat="43.62215" lon="3.7659">
        <ele>117.8</ele>
        <time>2021-01-23T12:25:09Z</time>
      </trkpt>
      <trkpt lat="43.62216" lon="3.76586">
        <ele>117.9</ele>
        <time>2021-01-23T12:25:10Z</time>
      </trkpt>
      <trkpt lat="43.62218" lon="3.76581">
        <ele>117.9</ele>
        <time>2021-01-23T12:25:11Z</time>
      </trkpt>
      <trkpt lat="43.62218" lon="3.76577">
        <ele>118.3</ele>
        <time>2021-01-23T12:25:12Z</time>
      </trkpt>
      <trkpt lat="43.62219" lon="3.76572">
        <ele>118.4</ele>
        <time>2021-01-23T12:25:13Z</time>
      </trkpt>
      <trkpt lat="43.6222" lon="3.76567">
        <ele>123</ele>
        <time>2021-01-23T12:25:14Z</time>
      </trkpt>
      <trkpt lat="43.62221" lon="3.76562">
        <ele>118.8</ele>
        <time>2021-01-23T12:25:15Z</time>
      </trkpt>
      <trkpt lat="43.62222" lon="3.76558">
        <ele>118.9</ele>
        <time>2021-01-23T12:25:16Z</time>
      </trkpt>
      <trkpt lat="43.62223" lon="3.76553">
        <ele>119</ele>
        <time>2021-01-23T12:25:17Z</time>
      </trkpt>
      <trkpt lat="43.62224" lon="3.76548">
        <ele>119</ele>
        <time>2021-01-23T12:25:18Z</time>
      </trkpt>
      <trkpt lat="43.62224" lon="3.76544">
        <ele>119.2</ele>
        <time>2021-01-23T12:25:19Z</time>
      </trkpt>
      <trkpt lat="43.62225" lon="3.76539">
        <ele>119.2</ele>
        <time>2021-01-23T12:25:20Z</time>
      </trkpt>
      <trkpt lat="43.62226" lon="3.76534">
        <ele>119.2</ele>
        <time>2021-01-23T12:25:21Z</time>
      </trkpt>
      <trkpt lat="43.62227" lon="3.76529">
        <ele>119.3</ele>
        <time>2021-01-23T12:25:22Z</time>
      </trkpt>
      <trkpt lat="43.62228" lon="3.76524">
        <ele>119.3</ele>
        <time>2021-01-23T12:25:23Z</time>
      </trkpt>
      <trkpt lat="43.62228" lon="3.7652">
        <ele>124</ele>
        <time>2021-01-23T12:25:24Z</time>
      </trkpt>
      <trkpt lat="43.6223" lon="3.76515">
        <ele>119.2</ele>
        <time>2021-01-23T12:25:25Z</time>
      </trkpt>
      <trkpt lat="43.6223" lon="3.76511">
        <ele>119.3</ele>
        <time>2021-01-23T12:25:26Z</time>
      </trkpt>
      <trkpt lat="43.62232" lon="3.76506">
        <ele>119.1</ele>
        <time>2021-01-23T12:25:27Z</time>
      </trkpt>
      <trkpt lat="43.62234" lon="3.76502">
        <ele>118.8</ele>
        <time>2021-01-23T12:25:28Z</time>
      </trkpt>
      <trkpt lat="43.62235" lon="3.76498">
        <ele>118.8</ele>
        <time>2021-01-23T12:25:29Z</time>
      </trkpt>
      <trkpt lat="43.62236" lon="3.76493">
        <ele>118.9</ele>
        <time>2021-01-23T12:25:30Z</time>
      </trkpt>
      <trkpt lat="43.62237" lon="3.76488">
        <ele>119</ele>
        <time>2021-01-23T12:25:31Z</time>
      </trkpt>
      <trkpt lat="43.62238" lon="3.76483">
        <ele>119</ele>
        <time>2021-01-23T12:25:32Z</time>
      </trkpt>
      <trkpt lat="43.62239" lon="3.76478">
        <ele>119.1</ele>
        <time>2021-01-23T12:25:33Z</time>
      </trkpt>
      <trkpt lat="43.6224" lon="3.76473">
        <ele>124</ele>
        <time>2021-01-23T12:25:34Z</time>
      </trkpt>
      <trkpt lat="43.62241" lon="3.76469">
        <ele>119.2</ele>
        <time>2021-01-23T12:25:35Z</time>
      </trkpt>
      <trkpt lat="43.62242" lon="3.76464">
        <ele>119.4</ele>
        <time>2021-01-23T12:25:36Z</time>
      </trkpt>
      <trkpt lat="43.62243" lon="3.76459">
        <ele>119.7</ele>
        <time>2021-01-23T12:25:37Z</time>
      </trkpt>
      <trkpt lat="43.62244" lon="3.76454">
        <ele>120</ele>
        <time>2021-01-23T12:25:38Z</time>
      </trkpt>
      <trkpt lat="43.62245" lon="3.76449">
        <ele>120.3</ele>
        <time>2021-01-23T12:25:39Z</time>
      </trkpt>
      <trkpt lat="43.62246" lon="3.76444">
        <ele>120.6</ele>
        <time>2021-01-23T12:25:40Z</time>
      </trkpt>
      <trkpt lat="43.62247" lon="3.7644">
        <ele>120.6</ele>
        <time>2021-01-23T12:25:41Z</time>
      </trkpt>
      <trkpt lat="43.62248" lon="3.76435">
        <ele>120.6</ele>
        <time>2021-01-23T12:25:42Z</time>
      </trkpt>
      <trkpt lat="43.62249" lon="3.7643">
        <ele>120.7</ele>
        <time>2021-01-23T12:25:43Z</time>
      </trkpt>
      <trkpt lat="43.6225" lon="3.76426">
        <ele>125</ele>
        <time>2021-01-23T12:25:44Z</time>
      </trkpt>
      <trkpt lat="43.62251" lon="3.76421">
        <ele>120.7</ele>
        <time>2021-01-23T12:25:45Z</time>
      </trkpt>
      <trkpt lat="43.62252" lon="3.76416">
        <ele>120.7</ele>
        <time>2021-01-23T12:25:46Z</time>
      </trkpt>
      <trkpt lat="43.62253" lon="3.76411">
        <ele>120.7</ele>
        <time>2021-01-23T12:25:47Z</time>
      </trkpt>
      <trkpt lat="43.62254" lon="3.76406">
        <ele>120.7</ele>
        <time>2021-01-23T12:25:48Z</time>
      </trkpt>
      <trkpt lat="43.62255" lon="3.76402">
        <ele>120.6</ele>
        <time>2021-01-23T12:25:49Z</time>
      </trkpt>
      <trkpt lat="43.62256" lon="3.76397">
        <ele>120.6</ele>
        <time>2021-01-23T12:25:50Z</time>
      </trkpt>
      <trkpt lat="43.62256" lon="3.76392">
        <ele>120.8</ele>
        <time>2021-01-23T12:25:51Z</time>
      </trkpt>
      <trkpt lat="43.62257" lon="3.76388">
        <ele>120.8</ele>
        <time>2021-01-23T12:25:52Z</time>
      </trkpt>
      <trkpt lat="43.62257" lon="3.76383">
        <ele>121</ele>
        <time>2021-01-23T12:25:53Z</time>
      </trkpt>
      <trkpt lat="43.62258" lon="3.76374">
        <ele>126</ele>
        <time>2021-01-23T12:25:54Z</time>
      </trkpt>
      <trkpt lat="43.62259" lon="3.7637">
        <ele>121.1</ele>
        <time>2021-01-23T12:25:55Z</time>
      </trkpt>
      <trkpt lat="43.62259" lon="3.76365">
        <ele>121.2</ele>
        <time>2021-01-23T12:25:56Z</time>
      </trkpt>
      <trkpt lat="43.6226" lon="3.7636">
        <ele>121.2</ele>
        <time>2021-01-23T12:25:57Z</time>
      </trkpt>
      <trkpt lat="43.62261" lon="3.76355">
        <ele>121.1</ele>
        <time>2021-01-23T12:25:58Z</time>
      </trkpt>
      <trkpt lat="43.62261" lon="3.7635">
        <ele>121.2</ele>
        <time>2021-01-23T12:25:59Z</time>
      </trkpt>
      <trkpt lat="43.62261" lon="3.76345">
        <ele>121.2</ele>
        <time>2021-01-23T12:26:00Z</time>
      </trkpt>
      <trkpt lat="43.62261" lon="3.7634">
        <ele>121.3</ele>
        <time>2021-01-23T12:26:01Z</time>
      </trkpt>
      <trkpt lat="43.62261" lon="3.76335">
        <ele>121.4</ele>
        <time>2021-01-23T12:26:02Z</time>
      </trkpt>
      <trkpt lat="43.62262" lon="3.7633">
        <ele>126</ele>
        <time>2021-01-23T12:26:04Z</time>
      </trkpt>
      <trkpt lat="43.62264" lon="3.76326">
        <ele>121.2</ele>
        <time>2021-01-23T12:26:05Z</time>
      </trkpt>
      <trkpt lat="43.62265" lon="3.76322">
        <ele>121.2</ele>
        <time>2021-01-23T12:26:06Z</time>
      </trkpt>
      <trkpt lat="43.62266" lon="3.76317">
        <ele>121.3</ele>
        <time>2021-01-23T12:26:07Z</time>
      </trkpt>
      <trkpt lat="43.62266" lon="3.76312">
        <ele>121.5</ele>
        <time>2021-01-23T12:26:08Z</time>
      </trkpt>
      <trkpt lat="43.62266" lon="3.76307">
        <ele>121.6</ele>
        <time>2021-01-23T12:26:09Z</time>
      </trkpt>
      <trkpt lat="43.62266" lon="3.76303">
        <ele>121.8</ele>
        <time>2021-01-23T12:26:10Z</time>
      </trkpt>
      <trkpt lat="43.62267" lon="3.76298">
        <ele>122</ele>
        <time>2021-01-23T12:26:11Z</time>
      </trkpt>
      <trkpt lat="43.62267" lon="3.76293">
        <ele>122.3</ele>
        <time>2021-01-23T12:26:12Z</time>
      </trkpt>
      <trkpt lat="43.62267" lon="3.76289">
        <ele>122.5</ele>
        <time>2021-01-23T12:26:13Z</time>
      </trkpt>
      <trkpt lat="43.62268" lon="3.76284">
        <ele>126</ele>
        <time>2021-01-23T12:26:14Z</time>
      </trkpt>
      <trkpt lat="43.62269" lon="3.7628">
        <ele>122.8</ele>
        <time>2021-01-23T12:26:15Z</time>
      </trkpt>
      <trkpt lat="43.6227" lon="3.76276">
        <ele>122.9</ele>
        <time>2021-01-23T12:26:16Z</time>
      </trkpt>
      <trkpt lat="43.62271" lon="3.76271">
        <ele>122.9</ele>
        <time>2021-01-23T12:26:17Z</time>
      </trkpt>
      <trkpt lat="43.62271" lon="3.76267">
        <ele>123</ele>
        <time>2021-01-23T12:26:18Z</time>
      </trkpt>
      <trkpt lat="43.62272" lon="3.76263">
        <ele>123</ele>
        <time>2021-01-23T12:26:19Z</time>
      </trkpt>
      <trkpt lat="43.62272" lon="3.76258">
        <ele>123.2</ele>
        <time>2021-01-23T12:26:20Z</time>
      </trkpt>
      <trkpt lat="43.62272" lon="3.76254">
        <ele>123.3</ele>
        <time>2021-01-23T12:26:21Z</time>
      </trkpt>
      <trkpt lat="43.62273" lon="3.7625">
        <ele>123.3</ele>
        <time>2021-01-23T12:26:22Z</time>
      </trkpt>
      <trkpt lat="43.62273" lon="3.76246">
        <ele>123.4</ele>
        <time>2021-01-23T12:26:23Z</time>
      </trkpt>
      <trkpt lat="43.62273" lon="3.76242">
        <ele>127</ele>
        <time>2021-01-23T12:26:24Z</time>
      </trkpt>
      <trkpt lat="43.62273" lon="3.76238">
        <ele>123.6</ele>
        <time>2021-01-23T12:26:25Z</time>
      </trkpt>
      <trkpt lat="43.62274" lon="3.76234">
        <ele>123.7</ele>
        <time>2021-01-23T12:26:26Z</time>
      </trkpt>
      <trkpt lat="43.62275" lon="3.76231">
        <ele>123.7</ele>
        <time>2021-01-23T12:26:27Z</time>
      </trkpt>
      <trkpt lat="43.62276" lon="3.76227">
        <ele>123.9</ele>
        <time>2021-01-23T12:26:28Z</time>
      </trkpt>
      <trkpt lat="43.62277" lon="3.76224">
        <ele>123.9</ele>
        <time>2021-01-23T12:26:29Z</time>
      </trkpt>
      <trkpt lat="43.62278" lon="3.76221">
        <ele>124</ele>
        <time>2021-01-23T12:26:30Z</time>
      </trkpt>
      <trkpt lat="43.62278" lon="3.76218">
        <ele>124</ele>
        <time>2021-01-23T12:26:31Z</time>
      </trkpt>
      <trkpt lat="43.62279" lon="3.76215">
        <ele>124.1</ele>
        <time>2021-01-23T12:26:32Z</time>
      </trkpt>
      <trkpt lat="43.62279" lon="3.76212">
        <ele>124.1</ele>
        <time>2021-01-23T12:26:33Z</time>
      </trkpt>
      <trkpt lat="43.6228" lon="3.76209">
        <ele>128</ele>
        <time>2021-01-23T12:26:34Z</time>
      </trkpt>
      <trkpt lat="43.6228" lon="3.76206">
        <ele>124.3</ele>
        <time>2021-01-23T12:26:35Z</time>
      </trkpt>
      <trkpt lat="43.6228" lon="3.76202">
        <ele>124.3</ele>
        <time>2021-01-23T12:26:36Z</time>
      </trkpt>
      <trkpt lat="43.62281" lon="3.76199">
        <ele>124.4</ele>
        <time>2021-01-23T12:26:37Z</time>
      </trkpt>
      <trkpt lat="43.62281" lon="3.76196">
        <ele>124.5</ele>
        <time>2021-01-23T12:26:38Z</time>
      </trkpt>
      <trkpt lat="43.62282" lon="3.76194">
        <ele>124.6</ele>
        <time>2021-01-23T12:26:39Z</time>
      </trkpt>
      <trkpt lat="43.62283" lon="3.76191">
        <ele>124.8</ele>
        <time>2021-01-23T12:26:40Z</time>
      </trkpt>
      <trkpt lat="43.62284" lon="3.76188">
        <ele>124.9</ele>
        <time>2021-01-23T12:26:41Z</time>
      </trkpt>
      <trkpt lat="43.62285" lon="3.76185">
        <ele>125.1</ele>
        <time>2021-01-23T12:26:42Z</time>
      </trkpt>
      <trkpt lat="43.62286" lon="3.76182">
        <ele>125.3</ele>
        <time>2021-01-23T12:26:43Z</time>
      </trkpt>
      <trkpt lat="43.62287" lon="3.76179">
        <ele>129</ele>
        <time>2021-01-23T12:26:44Z</time>
      </trkpt>
      <trkpt lat="43.62287" lon="3.76176">
        <ele>125.5</ele>
        <time>2021-01-23T12:26:45Z</time>
      </trkpt>
      <trkpt lat="43.62288" lon="3.76174">
        <ele>125.7</ele>
        <time>2021-01-23T12:26:46Z</time>
      </trkpt>
      <trkpt lat="43.62289" lon="3.76171">
        <ele>126</ele>
        <time>2021-01-23T12:26:47Z</time>
      </trkpt>
      <trkpt lat="43.62289" lon="3.76168">
        <ele>126</ele>
        <time>2021-01-23T12:26:48Z</time>
      </trkpt>
      <trkpt lat="43.6229" lon="3.76166">
        <ele>126.2</ele>
        <time>2021-01-23T12:26:49Z</time>
      </trkpt>
      <trkpt lat="43.62291" lon="3.76164">
        <ele>126.4</ele>
        <time>2021-01-23T12:26:50Z</time>
      </trkpt>
      <trkpt lat="43.62292" lon="3.76161">
        <ele>126.6</ele>
        <time>2021-01-23T12:26:51Z</time>
      </trkpt>
      <trkpt lat="43.62293" lon="3.76159">
        <ele>126.7</ele>
        <time>2021-01-23T12:26:52Z</time>
      </trkpt>
      <trkpt lat="43.62294" lon="3.76157">
        <ele>126.9</ele>
        <time>2021-01-23T12:26:53Z</time>
      </trkpt>
      <trkpt lat="43.62295" lon="3.76155">
        <ele>130</ele>
        <time>2021-01-23T12:26:54Z</time>
      </trkpt>
      <trkpt lat="43.62296" lon="3.76153">
        <ele>127.3</ele>
        <time>2021-01-23T12:26:55Z</time>
      </trkpt>
      <trkpt lat="43.62297" lon="3.76148">
        <ele>127.5</ele>
        <time>2021-01-23T12:26:57Z</time>
      </trkpt>
      <trkpt lat="43.62298" lon="3.76146">
        <ele>127.6</ele>
        <time>2021-01-23T12:26:58Z</time>
      </trkpt>
      <trkpt lat="43.62298" lon="3.76143">
        <ele>127.6</ele>
        <time>2021-01-23T12:26:59Z</time>
      </trkpt>
      <trkpt lat="43.62299" lon="3.76141">
        <ele>127.8</ele>
        <time>2021-01-23T12:27:00Z</time>
      </trkpt>
      <trkpt lat="43.623" lon="3.76139">
        <ele>128</ele>
        <time>2021-01-23T12:27:01Z</time>
      </trkpt>
      <trkpt lat="43.62301" lon="3.76134">
        <ele>128.3</ele>
        <time>2021-01-23T12:27:03Z</time>
      </trkpt>
      <trkpt lat="43.62302" lon="3.7613">
        <ele>128.6</ele>
        <time>2021-01-23T12:27:05Z</time>
      </trkpt>
      <trkpt lat="43.62304" lon="3.76126">
        <ele>129.2</ele>
        <time>2021-01-23T12:27:07Z</time>
      </trkpt>
      <trkpt lat="43.62305" lon="3.76121">
        <ele>129.5</ele>
        <time>2021-01-23T12:27:09Z</time>
      </trkpt>
      <trkpt lat="43.62306" lon="3.76116">
        <ele>129.9</ele>
        <time>2021-01-23T12:27:11Z</time>
      </trkpt>
      <trkpt lat="43.62307" lon="3.76112">
        <ele>130.2</ele>
        <time>2021-01-23T12:27:13Z</time>
      </trkpt>
      <trkpt lat="43.62307" lon="3.76109">
        <ele>132</ele>
        <time>2021-01-23T12:27:14Z</time>
      </trkpt>
      <trkpt lat="43.62308" lon="3.76107">
        <ele>130.5</ele>
        <time>2021-01-23T12:27:15Z</time>
      </trkpt>
      <trkpt lat="43.62309" lon="3.76102">
        <ele>130.7</ele>
        <time>2021-01-23T12:27:17Z</time>
      </trkpt>
      <trkpt lat="43.62309" lon="3.76097">
        <ele>130.7</ele>
        <time>2021-01-23T12:27:19Z</time>
      </trkpt>
      <trkpt lat="43.62311" lon="3.76093">
        <ele>131.1</ele>
        <time>2021-01-23T12:27:21Z</time>
      </trkpt>
      <trkpt lat="43.62313" lon="3.76089">
        <ele>131.6</ele>
        <time>2021-01-23T12:27:23Z</time>
      </trkpt>
      <trkpt lat="43.62314" lon="3.76086">
        <ele>134</ele>
        <time>2021-01-23T12:27:24Z</time>
      </trkpt>
      <trkpt lat="43.62315" lon="3.76084">
        <ele>132</ele>
        <time>2021-01-23T12:27:25Z</time>
      </trkpt>
      <trkpt lat="43.62315" lon="3.76082">
        <ele>132</ele>
        <time>2021-01-23T12:27:26Z</time>
      </trkpt>
      <trkpt lat="43.62316" lon="3.7608">
        <ele>132.3</ele>
        <time>2021-01-23T12:27:27Z</time>
      </trkpt>
      <trkpt lat="43.62318" lon="3.76076">
        <ele>132.7</ele>
        <time>2021-01-23T12:27:29Z</time>
      </trkpt>
      <trkpt lat="43.62319" lon="3.76072">
        <ele>132.9</ele>
        <time>2021-01-23T12:27:31Z</time>
      </trkpt>
      <trkpt lat="43.6232" lon="3.76068">
        <ele>133.1</ele>
        <time>2021-01-23T12:27:33Z</time>
      </trkpt>
      <trkpt lat="43.62322" lon="3.76064">
        <ele>133.6</ele>
        <time>2021-01-23T12:27:35Z</time>
      </trkpt>
      <trkpt lat="43.62323" lon="3.7606">
        <ele>133.8</ele>
        <time>2021-01-23T12:27:37Z</time>
      </trkpt>
      <trkpt lat="43.62324" lon="3.76056">
        <ele>134</ele>
        <time>2021-01-23T12:27:39Z</time>
      </trkpt>
      <trkpt lat="43.62325" lon="3.76052">
        <ele>134.2</ele>
        <time>2021-01-23T12:27:41Z</time>
      </trkpt>
      <trkpt lat="43.62326" lon="3.76047">
        <ele>134.4</ele>
        <time>2021-01-23T12:27:43Z</time>
      </trkpt>
      <trkpt lat="43.62326" lon="3.76043">
        <ele>134.4</ele>
        <time>2021-01-23T12:27:45Z</time>
      </trkpt>
      <trkpt lat="43.62327" lon="3.76039">
        <ele>134.6</ele>
        <time>2021-01-23T12:27:47Z</time>
      </trkpt>
      <trkpt lat="43.62328" lon="3.76035">
        <ele>134.8</ele>
        <time>2021-01-23T12:27:49Z</time>
      </trkpt>
      <trkpt lat="43.62328" lon="3.76032">
        <ele>134.8</ele>
        <time>2021-01-23T12:27:50Z</time>
      </trkpt>
      <trkpt lat="43.62329" lon="3.7603">
        <ele>135.1</ele>
        <time>2021-01-23T12:27:51Z</time>
      </trkpt>
      <trkpt lat="43.62329" lon="3.76027">
        <ele>135.1</ele>
        <time>2021-01-23T12:27:52Z</time>
      </trkpt>
      <trkpt lat="43.6233" lon="3.76025">
        <ele>135.4</ele>
        <time>2021-01-23T12:27:53Z</time>
      </trkpt>
      <trkpt lat="43.6233" lon="3.76022">
        <ele>137</ele>
        <time>2021-01-23T12:27:54Z</time>
      </trkpt>
      <trkpt lat="43.62331" lon="3.76017">
        <ele>135.9</ele>
        <time>2021-01-23T12:27:55Z</time>
      </trkpt>
      <trkpt lat="43.62331" lon="3.76015">
        <ele>136</ele>
        <time>2021-01-23T12:27:56Z</time>
      </trkpt>
      <trkpt lat="43.62332" lon="3.76013">
        <ele>136.2</ele>
        <time>2021-01-23T12:27:57Z</time>
      </trkpt>
      <trkpt lat="43.62332" lon="3.7601">
        <ele>136.4</ele>
        <time>2021-01-23T12:27:58Z</time>
      </trkpt>
      <trkpt lat="43.62333" lon="3.76008">
        <ele>136.6</ele>
        <time>2021-01-23T12:27:59Z</time>
      </trkpt>
      <trkpt lat="43.62334" lon="3.76005">
        <ele>136.9</ele>
        <time>2021-01-23T12:28:00Z</time>
      </trkpt>
      <trkpt lat="43.62334" lon="3.76003">
        <ele>137</ele>
        <time>2021-01-23T12:28:01Z</time>
      </trkpt>
      <trkpt lat="43.62335" lon="3.76">
        <ele>137.3</ele>
        <time>2021-01-23T12:28:02Z</time>
      </trkpt>
      <trkpt lat="43.62335" lon="3.75998">
        <ele>137.4</ele>
        <time>2021-01-23T12:28:03Z</time>
      </trkpt>
      <trkpt lat="43.62336" lon="3.75996">
        <ele>137.6</ele>
        <time>2021-01-23T12:28:05Z</time>
      </trkpt>
      <trkpt lat="43.62337" lon="3.75991">
        <ele>137.9</ele>
        <time>2021-01-23T12:28:07Z</time>
      </trkpt>
      <trkpt lat="43.62338" lon="3.75986">
        <ele>138.3</ele>
        <time>2021-01-23T12:28:09Z</time>
      </trkpt>
      <trkpt lat="43.62338" lon="3.75984">
        <ele>138.3</ele>
        <time>2021-01-23T12:28:10Z</time>
      </trkpt>
      <trkpt lat="43.62339" lon="3.75979">
        <ele>138.6</ele>
        <time>2021-01-23T12:28:12Z</time>
      </trkpt>
      <trkpt lat="43.62341" lon="3.75975">
        <ele>140</ele>
        <time>2021-01-23T12:28:14Z</time>
      </trkpt>
      <trkpt lat="43.62343" lon="3.75972">
        <ele>139.4</ele>
        <time>2021-01-23T12:28:16Z</time>
      </trkpt>
      <trkpt lat="43.62344" lon="3.75968">
        <ele>139.8</ele>
        <time>2021-01-23T12:28:18Z</time>
      </trkpt>
      <trkpt lat="43.62345" lon="3.75964">
        <ele>140.1</ele>
        <time>2021-01-23T12:28:20Z</time>
      </trkpt>
      <trkpt lat="43.62347" lon="3.75961">
        <ele>140.6</ele>
        <time>2021-01-23T12:28:22Z</time>
      </trkpt>
      <trkpt lat="43.62348" lon="3.75957">
        <ele>141</ele>
        <time>2021-01-23T12:28:24Z</time>
      </trkpt>
      <trkpt lat="43.6235" lon="3.75954">
        <ele>141.3</ele>
        <time>2021-01-23T12:28:26Z</time>
      </trkpt>
      <trkpt lat="43.62352" lon="3.75951">
        <ele>141.7</ele>
        <time>2021-01-23T12:28:28Z</time>
      </trkpt>
      <trkpt lat="43.62354" lon="3.75948">
        <ele>142.1</ele>
        <time>2021-01-23T12:28:30Z</time>
      </trkpt>
      <trkpt lat="43.62355" lon="3.75945">
        <ele>142.3</ele>
        <time>2021-01-23T12:28:32Z</time>
      </trkpt>
      <trkpt lat="43.62357" lon="3.75942">
        <ele>143</ele>
        <time>2021-01-23T12:28:34Z</time>
      </trkpt>
      <trkpt lat="43.62359" lon="3.75939">
        <ele>142.8</ele>
        <time>2021-01-23T12:28:36Z</time>
      </trkpt>
      <trkpt lat="43.62361" lon="3.75937">
        <ele>143</ele>
        <time>2021-01-23T12:28:38Z</time>
      </trkpt>
      <trkpt lat="43.62363" lon="3.75934">
        <ele>143.2</ele>
        <time>2021-01-23T12:28:40Z</time>
      </trkpt>
      <trkpt lat="43.62365" lon="3.75931">
        <ele>143.3</ele>
        <time>2021-01-23T12:28:42Z</time>
      </trkpt>
      <trkpt lat="43.62367" lon="3.75928">
        <ele>144</ele>
        <time>2021-01-23T12:28:44Z</time>
      </trkpt>
      <trkpt lat="43.62368" lon="3.75925">
        <ele>143.7</ele>
        <time>2021-01-23T12:28:46Z</time>
      </trkpt>
      <trkpt lat="43.62369" lon="3.75921">
        <ele>143.8</ele>
        <time>2021-01-23T12:28:48Z</time>
      </trkpt>
      <trkpt lat="43.6237" lon="3.75917">
        <ele>144</ele>
        <time>2021-01-23T12:28:50Z</time>
      </trkpt>
      <trkpt lat="43.6237" lon="3.75913">
        <ele>144.2</ele>
        <time>2021-01-23T12:28:52Z</time>
      </trkpt>
      <trkpt lat="43.6237" lon="3.75908">
        <ele>145</ele>
        <time>2021-01-23T12:28:54Z</time>
      </trkpt>
      <trkpt lat="43.6237" lon="3.75904">
        <ele>144.7</ele>
        <time>2021-01-23T12:28:56Z</time>
      </trkpt>
      <trkpt lat="43.62371" lon="3.759">
        <ele>145.1</ele>
        <time>2021-01-23T12:28:58Z</time>
      </trkpt>
      <trkpt lat="43.6237" lon="3.75896">
        <ele>145.2</ele>
        <time>2021-01-23T12:29:00Z</time>
      </trkpt>
      <trkpt lat="43.62369" lon="3.75892">
        <ele>145.4</ele>
        <time>2021-01-23T12:29:02Z</time>
      </trkpt>
      <trkpt lat="43.62366" lon="3.75884">
        <ele>146</ele>
        <time>2021-01-23T12:29:04Z</time>
      </trkpt>
      <trkpt lat="43.62366" lon="3.75882">
        <ele>145.6</ele>
        <time>2021-01-23T12:29:05Z</time>
      </trkpt>
      <trkpt lat="43.62365" lon="3.75879">
        <ele>145.6</ele>
        <time>2021-01-23T12:29:06Z</time>
      </trkpt>
      <trkpt lat="43.62364" lon="3.75876">
        <ele>145.7</ele>
        <time>2021-01-23T12:29:07Z</time>
      </trkpt>
      <trkpt lat="43.62364" lon="3.75873">
        <ele>145.8</ele>
        <time>2021-01-23T12:29:08Z</time>
      </trkpt>
      <trkpt lat="43.62364" lon="3.7587">
        <ele>145.9</ele>
        <time>2021-01-23T12:29:09Z</time>
      </trkpt>
      <trkpt lat="43.62364" lon="3.75868">
        <ele>146</ele>
        <time>2021-01-23T12:29:10Z</time>
      </trkpt>
      <trkpt lat="43.62365" lon="3.75865">
        <ele>146.1</ele>
        <time>2021-01-23T12:29:11Z</time>
      </trkpt>
      <trkpt lat="43.62366" lon="3.75862">
        <ele>146.3</ele>
        <time>2021-01-23T12:29:12Z</time>
      </trkpt>
      <trkpt lat="43.62366" lon="3.7586">
        <ele>146.4</ele>
        <time>2021-01-23T12:29:13Z</time>
      </trkpt>
      <trkpt lat="43.62367" lon="3.75858">
        <ele>146.6</ele>
        <time>2021-01-23T12:29:15Z</time>
      </trkpt>
      <trkpt lat="43.62369" lon="3.75854">
        <ele>146.9</ele>
        <time>2021-01-23T12:29:17Z</time>
      </trkpt>
      <trkpt lat="43.62371" lon="3.7585">
        <ele>147.3</ele>
        <time>2021-01-23T12:29:19Z</time>
      </trkpt>
      <trkpt lat="43.62372" lon="3.75846">
        <ele>147.5</ele>
        <time>2021-01-23T12:29:21Z</time>
      </trkpt>
      <trkpt lat="43.62373" lon="3.75842">
        <ele>147.8</ele>
        <time>2021-01-23T12:29:23Z</time>
      </trkpt>
      <trkpt lat="43.62375" lon="3.75838">
        <ele>149</ele>
        <time>2021-01-23T12:29:24Z</time>
      </trkpt>
      <trkpt lat="43.62377" lon="3.75834">
        <ele>148.7</ele>
        <time>2021-01-23T12:29:26Z</time>
      </trkpt>
      <trkpt lat="43.62378" lon="3.7583">
        <ele>148.9</ele>
        <time>2021-01-23T12:29:28Z</time>
      </trkpt>
      <trkpt lat="43.62379" lon="3.75826">
        <ele>149.2</ele>
        <time>2021-01-23T12:29:30Z</time>
      </trkpt>
      <trkpt lat="43.6238" lon="3.75821">
        <ele>149.5</ele>
        <time>2021-01-23T12:29:32Z</time>
      </trkpt>
      <trkpt lat="43.62381" lon="3.75817">
        <ele>149.7</ele>
        <time>2021-01-23T12:29:35Z</time>
      </trkpt>
      <trkpt lat="43.62382" lon="3.75813">
        <ele>150</ele>
        <time>2021-01-23T12:29:37Z</time>
      </trkpt>
      <trkpt lat="43.62382" lon="3.75808">
        <ele>150.2</ele>
        <time>2021-01-23T12:29:39Z</time>
      </trkpt>
      <trkpt lat="43.62382" lon="3.75804">
        <ele>150.4</ele>
        <time>2021-01-23T12:29:41Z</time>
      </trkpt>
      <trkpt lat="43.62382" lon="3.75799">
        <ele>150.7</ele>
        <time>2021-01-23T12:29:43Z</time>
      </trkpt>
      <trkpt lat="43.62382" lon="3.75795">
        <ele>151</ele>
        <time>2021-01-23T12:29:45Z</time>
      </trkpt>
      <trkpt lat="43.62381" lon="3.7579">
        <ele>151.3</ele>
        <time>2021-01-23T12:29:47Z</time>
      </trkpt>
      <trkpt lat="43.62381" lon="3.75786">
        <ele>151.6</ele>
        <time>2021-01-23T12:29:49Z</time>
      </trkpt>
      <trkpt lat="43.62381" lon="3.75782">
        <ele>151.8</ele>
        <time>2021-01-23T12:29:51Z</time>
      </trkpt>
      <trkpt lat="43.6238" lon="3.75777">
        <ele>152.1</ele>
        <time>2021-01-23T12:29:53Z</time>
      </trkpt>
      <trkpt lat="43.62381" lon="3.75773">
        <ele>152.3</ele>
        <time>2021-01-23T12:29:55Z</time>
      </trkpt>
      <trkpt lat="43.62381" lon="3.75769">
        <ele>152.5</ele>
        <time>2021-01-23T12:29:57Z</time>
      </trkpt>
      <trkpt lat="43.6238" lon="3.75764">
        <ele>152.5</ele>
        <time>2021-01-23T12:29:59Z</time>
      </trkpt>
      <trkpt lat="43.62379" lon="3.75759">
        <ele>152.6</ele>
        <time>2021-01-23T12:30:01Z</time>
      </trkpt>
      <trkpt lat="43.62379" lon="3.75756">
        <ele>152.7</ele>
        <time>2021-01-23T12:30:02Z</time>
      </trkpt>
      <trkpt lat="43.62379" lon="3.75754">
        <ele>152.8</ele>
        <time>2021-01-23T12:30:03Z</time>
      </trkpt>
      <trkpt lat="43.62379" lon="3.75751">
        <ele>154</ele>
        <time>2021-01-23T12:30:04Z</time>
      </trkpt>
      <trkpt lat="43.62379" lon="3.75749">
        <ele>153</ele>
        <time>2021-01-23T12:30:05Z</time>
      </trkpt>
      <trkpt lat="43.62379" lon="3.75746">
        <ele>153.1</ele>
        <time>2021-01-23T12:30:06Z</time>
      </trkpt>
      <trkpt lat="43.62379" lon="3.75743">
        <ele>153.2</ele>
        <time>2021-01-23T12:30:07Z</time>
      </trkpt>
      <trkpt lat="43.62379" lon="3.7574">
        <ele>153.3</ele>
        <time>2021-01-23T12:30:08Z</time>
      </trkpt>
      <trkpt lat="43.62378" lon="3.75738">
        <ele>153.3</ele>
        <time>2021-01-23T12:30:09Z</time>
      </trkpt>
      <trkpt lat="43.62379" lon="3.75735">
        <ele>153.5</ele>
        <time>2021-01-23T12:30:10Z</time>
      </trkpt>
      <trkpt lat="43.62379" lon="3.75732">
        <ele>153.6</ele>
        <time>2021-01-23T12:30:11Z</time>
      </trkpt>
      <trkpt lat="43.62378" lon="3.7573">
        <ele>153.5</ele>
        <time>2021-01-23T12:30:12Z</time>
      </trkpt>
      <trkpt lat="43.62378" lon="3.75727">
        <ele>153.7</ele>
        <time>2021-01-23T12:30:13Z</time>
      </trkpt>
      <trkpt lat="43.62378" lon="3.75724">
        <ele>155</ele>
        <time>2021-01-23T12:30:14Z</time>
      </trkpt>
      <trkpt lat="43.62378" lon="3.75722">
        <ele>153.8</ele>
        <time>2021-01-23T12:30:15Z</time>
      </trkpt>
      <trkpt lat="43.62378" lon="3.75719">
        <ele>153.9</ele>
        <time>2021-01-23T12:30:16Z</time>
      </trkpt>
      <trkpt lat="43.62378" lon="3.75716">
        <ele>154</ele>
        <time>2021-01-23T12:30:17Z</time>
      </trkpt>
      <trkpt lat="43.62378" lon="3.75713">
        <ele>154.2</ele>
        <time>2021-01-23T12:30:18Z</time>
      </trkpt>
      <trkpt lat="43.62378" lon="3.75711">
        <ele>154.2</ele>
        <time>2021-01-23T12:30:19Z</time>
      </trkpt>
      <trkpt lat="43.62378" lon="3.75708">
        <ele>154.3</ele>
        <time>2021-01-23T12:30:20Z</time>
      </trkpt>
      <trkpt lat="43.62378" lon="3.75706">
        <ele>154.4</ele>
        <time>2021-01-23T12:30:21Z</time>
      </trkpt>
      <trkpt lat="43.62379" lon="3.75703">
        <ele>154.6</ele>
        <time>2021-01-23T12:30:22Z</time>
      </trkpt>
      <trkpt lat="43.62379" lon="3.757">
        <ele>154.7</ele>
        <time>2021-01-23T12:30:23Z</time>
      </trkpt>
      <trkpt lat="43.62379" lon="3.75698">
        <ele>157</ele>
        <time>2021-01-23T12:30:24Z</time>
      </trkpt>
      <trkpt lat="43.6238" lon="3.75693">
        <ele>155.1</ele>
        <time>2021-01-23T12:30:26Z</time>
      </trkpt>
      <trkpt lat="43.6238" lon="3.7569">
        <ele>155.1</ele>
        <time>2021-01-23T12:30:27Z</time>
      </trkpt>
      <trkpt lat="43.62381" lon="3.75686">
        <ele>155.4</ele>
        <time>2021-01-23T12:30:29Z</time>
      </trkpt>
      <trkpt lat="43.62383" lon="3.75682">
        <ele>155.7</ele>
        <time>2021-01-23T12:30:31Z</time>
      </trkpt>
      <trkpt lat="43.62384" lon="3.75678">
        <ele>156</ele>
        <time>2021-01-23T12:30:33Z</time>
      </trkpt>
      <trkpt lat="43.62387" lon="3.75675">
        <ele>156.4</ele>
        <time>2021-01-23T12:30:35Z</time>
      </trkpt>
      <trkpt lat="43.62388" lon="3.7567">
        <ele>156.8</ele>
        <time>2021-01-23T12:30:37Z</time>
      </trkpt>
      <trkpt lat="43.6239" lon="3.75666">
        <ele>157.1</ele>
        <time>2021-01-23T12:30:39Z</time>
      </trkpt>
      <trkpt lat="43.62391" lon="3.75662">
        <ele>157.4</ele>
        <time>2021-01-23T12:30:41Z</time>
      </trkpt>
      <trkpt lat="43.62392" lon="3.75658">
        <ele>157.6</ele>
        <time>2021-01-23T12:30:43Z</time>
      </trkpt>
      <trkpt lat="43.62393" lon="3.75654">
        <ele>160</ele>
        <time>2021-01-23T12:30:44Z</time>
      </trkpt>
      <trkpt lat="43.62395" lon="3.7565">
        <ele>158.3</ele>
        <time>2021-01-23T12:30:46Z</time>
      </trkpt>
      <trkpt lat="43.62396" lon="3.75646">
        <ele>158.5</ele>
        <time>2021-01-23T12:30:48Z</time>
      </trkpt>
      <trkpt lat="43.62398" lon="3.75641">
        <ele>158.9</ele>
        <time>2021-01-23T12:30:50Z</time>
      </trkpt>
      <trkpt lat="43.62399" lon="3.75637">
        <ele>159.2</ele>
        <time>2021-01-23T12:30:53Z</time>
      </trkpt>
      <trkpt lat="43.624" lon="3.75632">
        <ele>159.4</ele>
        <time>2021-01-23T12:30:55Z</time>
      </trkpt>
      <trkpt lat="43.62401" lon="3.75628">
        <ele>159.7</ele>
        <time>2021-01-23T12:30:57Z</time>
      </trkpt>
      <trkpt lat="43.62403" lon="3.75623">
        <ele>160.1</ele>
        <time>2021-01-23T12:30:59Z</time>
      </trkpt>
      <trkpt lat="43.62404" lon="3.75619">
        <ele>160.3</ele>
        <time>2021-01-23T12:31:01Z</time>
      </trkpt>
      <trkpt lat="43.62406" lon="3.75615">
        <ele>160.7</ele>
        <time>2021-01-23T12:31:03Z</time>
      </trkpt>
      <trkpt lat="43.62407" lon="3.75611">
        <ele>161</ele>
        <time>2021-01-23T12:31:05Z</time>
      </trkpt>
      <trkpt lat="43.62409" lon="3.75607">
        <ele>161.5</ele>
        <time>2021-01-23T12:31:07Z</time>
      </trkpt>
      <trkpt lat="43.62411" lon="3.75603">
        <ele>162</ele>
        <time>2021-01-23T12:31:09Z</time>
      </trkpt>
      <trkpt lat="43.62413" lon="3.756">
        <ele>162.4</ele>
        <time>2021-01-23T12:31:11Z</time>
      </trkpt>
      <trkpt lat="43.62414" lon="3.75597">
        <ele>162.7</ele>
        <time>2021-01-23T12:31:13Z</time>
      </trkpt>
      <trkpt lat="43.62416" lon="3.75593">
        <ele>164</ele>
        <time>2021-01-23T12:31:14Z</time>
      </trkpt>
      <trkpt lat="43.62419" lon="3.75591">
        <ele>163.6</ele>
        <time>2021-01-23T12:31:16Z</time>
      </trkpt>
      <trkpt lat="43.62421" lon="3.75588">
        <ele>163.8</ele>
        <time>2021-01-23T12:31:18Z</time>
      </trkpt>
      <trkpt lat="43.62424" lon="3.75586">
        <ele>164.1</ele>
        <time>2021-01-23T12:31:20Z</time>
      </trkpt>
      <trkpt lat="43.62426" lon="3.75584">
        <ele>164.3</ele>
        <time>2021-01-23T12:31:23Z</time>
      </trkpt>
      <trkpt lat="43.62429" lon="3.75581">
        <ele>164.5</ele>
        <time>2021-01-23T12:31:25Z</time>
      </trkpt>
      <trkpt lat="43.62431" lon="3.75579">
        <ele>164.7</ele>
        <time>2021-01-23T12:31:27Z</time>
      </trkpt>
      <trkpt lat="43.62433" lon="3.75576">
        <ele>164.9</ele>
        <time>2021-01-23T12:31:29Z</time>
      </trkpt>
      <trkpt lat="43.62435" lon="3.75574">
        <ele>165</ele>
        <time>2021-01-23T12:31:31Z</time>
      </trkpt>
      <trkpt lat="43.62438" lon="3.75571">
        <ele>165.2</ele>
        <time>2021-01-23T12:31:33Z</time>
      </trkpt>
      <trkpt lat="43.6244" lon="3.75568">
        <ele>165.4</ele>
        <time>2021-01-23T12:31:35Z</time>
      </trkpt>
      <trkpt lat="43.62442" lon="3.75565">
        <ele>165.6</ele>
        <time>2021-01-23T12:31:37Z</time>
      </trkpt>
      <trkpt lat="43.62444" lon="3.75562">
        <ele>165.8</ele>
        <time>2021-01-23T12:31:39Z</time>
      </trkpt>
      <trkpt lat="43.62446" lon="3.75559">
        <ele>165.9</ele>
        <time>2021-01-23T12:31:41Z</time>
      </trkpt>
      <trkpt lat="43.62448" lon="3.75556">
        <ele>166.1</ele>
        <time>2021-01-23T12:31:43Z</time>
      </trkpt>
      <trkpt lat="43.62451" lon="3.75554">
        <ele>166.3</ele>
        <time>2021-01-23T12:31:45Z</time>
      </trkpt>
      <trkpt lat="43.62454" lon="3.75554">
        <ele>166.4</ele>
        <time>2021-01-23T12:31:47Z</time>
      </trkpt>
      <trkpt lat="43.62456" lon="3.75556">
        <ele>166.4</ele>
        <time>2021-01-23T12:31:49Z</time>
      </trkpt>
      <trkpt lat="43.62459" lon="3.75557">
        <ele>166.4</ele>
        <time>2021-01-23T12:31:51Z</time>
      </trkpt>
      <trkpt lat="43.62462" lon="3.75559">
        <ele>166.4</ele>
        <time>2021-01-23T12:31:53Z</time>
      </trkpt>
      <trkpt lat="43.62463" lon="3.75562">
        <ele>168</ele>
        <time>2021-01-23T12:31:54Z</time>
      </trkpt>
      <trkpt lat="43.62464" lon="3.75562">
        <ele>168</ele>
        <time>2021-01-23T12:31:59Z</time>
      </trkpt>
      <trkpt lat="43.62469" lon="3.75564">
        <ele>168</ele>
        <time>2021-01-23T12:33:21Z</time>
      </trkpt>
      <trkpt lat="43.6247" lon="3.75565">
        <ele>166.3</ele>
        <time>2021-01-23T12:33:22Z</time>
      </trkpt>
      <trkpt lat="43.62473" lon="3.75566">
        <ele>166.2</ele>
        <time>2021-01-23T12:33:23Z</time>
      </trkpt>
      <trkpt lat="43.62475" lon="3.75568">
        <ele>166</ele>
        <time>2021-01-23T12:33:24Z</time>
      </trkpt>
      <trkpt lat="43.62477" lon="3.75569">
        <ele>165.9</ele>
        <time>2021-01-23T12:33:25Z</time>
      </trkpt>
      <trkpt lat="43.6248" lon="3.75571">
        <ele>165.6</ele>
        <time>2021-01-23T12:33:26Z</time>
      </trkpt>
      <trkpt lat="43.62482" lon="3.75573">
        <ele>165.4</ele>
        <time>2021-01-23T12:33:27Z</time>
      </trkpt>
      <trkpt lat="43.62485" lon="3.75575">
        <ele>165.1</ele>
        <time>2021-01-23T12:33:28Z</time>
      </trkpt>
      <trkpt lat="43.62488" lon="3.75577">
        <ele>164.9</ele>
        <time>2021-01-23T12:33:29Z</time>
      </trkpt>
      <trkpt lat="43.62491" lon="3.75579">
        <ele>167</ele>
        <time>2021-01-23T12:33:30Z</time>
      </trkpt>
      <trkpt lat="43.62495" lon="3.7558">
        <ele>164.4</ele>
        <time>2021-01-23T12:33:31Z</time>
      </trkpt>
      <trkpt lat="43.62498" lon="3.75582">
        <ele>164.2</ele>
        <time>2021-01-23T12:33:32Z</time>
      </trkpt>
      <trkpt lat="43.62501" lon="3.75583">
        <ele>164</ele>
        <time>2021-01-23T12:33:33Z</time>
      </trkpt>
      <trkpt lat="43.62504" lon="3.75584">
        <ele>163.7</ele>
        <time>2021-01-23T12:33:34Z</time>
      </trkpt>
      <trkpt lat="43.62507" lon="3.75582">
        <ele>163.6</ele>
        <time>2021-01-23T12:33:35Z</time>
      </trkpt>
      <trkpt lat="43.62509" lon="3.75579">
        <ele>163.6</ele>
        <time>2021-01-23T12:33:36Z</time>
      </trkpt>
      <trkpt lat="43.6251" lon="3.75576">
        <ele>163.7</ele>
        <time>2021-01-23T12:33:37Z</time>
      </trkpt>
      <trkpt lat="43.62511" lon="3.75572">
        <ele>163.9</ele>
        <time>2021-01-23T12:33:38Z</time>
      </trkpt>
      <trkpt lat="43.62512" lon="3.75569">
        <ele>163.9</ele>
        <time>2021-01-23T12:33:39Z</time>
      </trkpt>
      <trkpt lat="43.62512" lon="3.75565">
        <ele>166</ele>
        <time>2021-01-23T12:33:40Z</time>
      </trkpt>
      <trkpt lat="43.62513" lon="3.75558">
        <ele>164.5</ele>
        <time>2021-01-23T12:33:41Z</time>
      </trkpt>
      <trkpt lat="43.62514" lon="3.75555">
        <ele>164.5</ele>
        <time>2021-01-23T12:33:42Z</time>
      </trkpt>
      <trkpt lat="43.62515" lon="3.75552">
        <ele>164.6</ele>
        <time>2021-01-23T12:33:43Z</time>
      </trkpt>
      <trkpt lat="43.62515" lon="3.75549">
        <ele>164.9</ele>
        <time>2021-01-23T12:33:44Z</time>
      </trkpt>
      <trkpt lat="43.62516" lon="3.75545">
        <ele>165</ele>
        <time>2021-01-23T12:33:45Z</time>
      </trkpt>
      <trkpt lat="43.62516" lon="3.75542">
        <ele>165.2</ele>
        <time>2021-01-23T12:33:46Z</time>
      </trkpt>
      <trkpt lat="43.62517" lon="3.75539">
        <ele>165.4</ele>
        <time>2021-01-23T12:33:47Z</time>
      </trkpt>
      <trkpt lat="43.62518" lon="3.75535">
        <ele>165.5</ele>
        <time>2021-01-23T12:33:48Z</time>
      </trkpt>
      <trkpt lat="43.62518" lon="3.75532">
        <ele>165.8</ele>
        <time>2021-01-23T12:33:49Z</time>
      </trkpt>
      <trkpt lat="43.62519" lon="3.75529">
        <ele>165.9</ele>
        <time>2021-01-23T12:33:51Z</time>
      </trkpt>
      <trkpt lat="43.62519" lon="3.75525">
        <ele>166</ele>
        <time>2021-01-23T12:33:52Z</time>
      </trkpt>
      <trkpt lat="43.6252" lon="3.75522">
        <ele>166</ele>
        <time>2021-01-23T12:33:53Z</time>
      </trkpt>
      <trkpt lat="43.6252" lon="3.75519">
        <ele>166.2</ele>
        <time>2021-01-23T12:33:54Z</time>
      </trkpt>
      <trkpt lat="43.62521" lon="3.75516">
        <ele>166.2</ele>
        <time>2021-01-23T12:33:55Z</time>
      </trkpt>
      <trkpt lat="43.62522" lon="3.75513">
        <ele>166.2</ele>
        <time>2021-01-23T12:33:56Z</time>
      </trkpt>
      <trkpt lat="43.62522" lon="3.7551">
        <ele>166.3</ele>
        <time>2021-01-23T12:33:57Z</time>
      </trkpt>
      <trkpt lat="43.62523" lon="3.75507">
        <ele>166.3</ele>
        <time>2021-01-23T12:33:58Z</time>
      </trkpt>
      <trkpt lat="43.62524" lon="3.75504">
        <ele>166.3</ele>
        <time>2021-01-23T12:33:59Z</time>
      </trkpt>
      <trkpt lat="43.62525" lon="3.75501">
        <ele>167</ele>
        <time>2021-01-23T12:34:00Z</time>
      </trkpt>
      <trkpt lat="43.62526" lon="3.75499">
        <ele>166.3</ele>
        <time>2021-01-23T12:34:01Z</time>
      </trkpt>
      <trkpt lat="43.62527" lon="3.75496">
        <ele>166.5</ele>
        <time>2021-01-23T12:34:02Z</time>
      </trkpt>
      <trkpt lat="43.62527" lon="3.75493">
        <ele>166.8</ele>
        <time>2021-01-23T12:34:03Z</time>
      </trkpt>
      <trkpt lat="43.62528" lon="3.75489">
        <ele>167.2</ele>
        <time>2021-01-23T12:34:04Z</time>
      </trkpt>
      <trkpt lat="43.62529" lon="3.75486">
        <ele>167.4</ele>
        <time>2021-01-23T12:34:05Z</time>
      </trkpt>
      <trkpt lat="43.6253" lon="3.75484">
        <ele>167.5</ele>
        <time>2021-01-23T12:34:06Z</time>
      </trkpt>
      <trkpt lat="43.62531" lon="3.75481">
        <ele>167.7</ele>
        <time>2021-01-23T12:34:07Z</time>
      </trkpt>
      <trkpt lat="43.62532" lon="3.75478">
        <ele>168</ele>
        <time>2021-01-23T12:34:08Z</time>
      </trkpt>
      <trkpt lat="43.62533" lon="3.75475">
        <ele>168.2</ele>
        <time>2021-01-23T12:34:09Z</time>
      </trkpt>
      <trkpt lat="43.62533" lon="3.75473">
        <ele>168</ele>
        <time>2021-01-23T12:34:10Z</time>
      </trkpt>
      <trkpt lat="43.62534" lon="3.7547">
        <ele>168.4</ele>
        <time>2021-01-23T12:34:11Z</time>
      </trkpt>
      <trkpt lat="43.62535" lon="3.75467">
        <ele>168.5</ele>
        <time>2021-01-23T12:34:12Z</time>
      </trkpt>
      <trkpt lat="43.62535" lon="3.75464">
        <ele>168.6</ele>
        <time>2021-01-23T12:34:13Z</time>
      </trkpt>
      <trkpt lat="43.62536" lon="3.75461">
        <ele>168.6</ele>
        <time>2021-01-23T12:34:14Z</time>
      </trkpt>
      <trkpt lat="43.62537" lon="3.75458">
        <ele>168.7</ele>
        <time>2021-01-23T12:34:15Z</time>
      </trkpt>
      <trkpt lat="43.62538" lon="3.75455">
        <ele>168.7</ele>
        <time>2021-01-23T12:34:16Z</time>
      </trkpt>
      <trkpt lat="43.62538" lon="3.75452">
        <ele>168.9</ele>
        <time>2021-01-23T12:34:17Z</time>
      </trkpt>
      <trkpt lat="43.62539" lon="3.75449">
        <ele>169</ele>
        <time>2021-01-23T12:34:18Z</time>
      </trkpt>
      <trkpt lat="43.62539" lon="3.75447">
        <ele>169.1</ele>
        <time>2021-01-23T12:34:19Z</time>
      </trkpt>
      <trkpt lat="43.62539" lon="3.75444">
        <ele>169</ele>
        <time>2021-01-23T12:34:20Z</time>
      </trkpt>
      <trkpt lat="43.6254" lon="3.75441">
        <ele>169.4</ele>
        <time>2021-01-23T12:34:21Z</time>
      </trkpt>
      <trkpt lat="43.6254" lon="3.75438">
        <ele>169.6</ele>
        <time>2021-01-23T12:34:22Z</time>
      </trkpt>
      <trkpt lat="43.62541" lon="3.75436">
        <ele>169.7</ele>
        <time>2021-01-23T12:34:23Z</time>
      </trkpt>
      <trkpt lat="43.62541" lon="3.75433">
        <ele>169.9</ele>
        <time>2021-01-23T12:34:24Z</time>
      </trkpt>
      <trkpt lat="43.62542" lon="3.75431">
        <ele>169.9</ele>
        <time>2021-01-23T12:34:25Z</time>
      </trkpt>
      <trkpt lat="43.62542" lon="3.75428">
        <ele>170.2</ele>
        <time>2021-01-23T12:34:26Z</time>
      </trkpt>
      <trkpt lat="43.62543" lon="3.75425">
        <ele>170.3</ele>
        <time>2021-01-23T12:34:27Z</time>
      </trkpt>
      <trkpt lat="43.62543" lon="3.75423">
        <ele>170.4</ele>
        <time>2021-01-23T12:34:28Z</time>
      </trkpt>
      <trkpt lat="43.62544" lon="3.7542">
        <ele>170.6</ele>
        <time>2021-01-23T12:34:29Z</time>
      </trkpt>
      <trkpt lat="43.62544" lon="3.75417">
        <ele>171</ele>
        <time>2021-01-23T12:34:30Z</time>
      </trkpt>
      <trkpt lat="43.62544" lon="3.75415">
        <ele>171</ele>
        <time>2021-01-23T12:34:31Z</time>
      </trkpt>
      <trkpt lat="43.62545" lon="3.75412">
        <ele>171.1</ele>
        <time>2021-01-23T12:34:32Z</time>
      </trkpt>
      <trkpt lat="43.62545" lon="3.7541">
        <ele>171.2</ele>
        <time>2021-01-23T12:34:33Z</time>
      </trkpt>
      <trkpt lat="43.62546" lon="3.75407">
        <ele>171.4</ele>
        <time>2021-01-23T12:34:34Z</time>
      </trkpt>
      <trkpt lat="43.62546" lon="3.75403">
        <ele>171.7</ele>
        <time>2021-01-23T12:34:36Z</time>
      </trkpt>
      <trkpt lat="43.62547" lon="3.75398">
        <ele>172</ele>
        <time>2021-01-23T12:34:38Z</time>
      </trkpt>
      <trkpt lat="43.62547" lon="3.75393">
        <ele>173</ele>
        <time>2021-01-23T12:34:40Z</time>
      </trkpt>
      <trkpt lat="43.62547" lon="3.75391">
        <ele>172.5</ele>
        <time>2021-01-23T12:34:41Z</time>
      </trkpt>
      <trkpt lat="43.62547" lon="3.75388">
        <ele>172.7</ele>
        <time>2021-01-23T12:34:42Z</time>
      </trkpt>
      <trkpt lat="43.62548" lon="3.75386">
        <ele>172.7</ele>
        <time>2021-01-23T12:34:43Z</time>
      </trkpt>
      <trkpt lat="43.62548" lon="3.75383">
        <ele>172.9</ele>
        <time>2021-01-23T12:34:44Z</time>
      </trkpt>
      <trkpt lat="43.62549" lon="3.75381">
        <ele>173</ele>
        <time>2021-01-23T12:34:45Z</time>
      </trkpt>
      <trkpt lat="43.62549" lon="3.75378">
        <ele>173.2</ele>
        <time>2021-01-23T12:34:46Z</time>
      </trkpt>
      <trkpt lat="43.62549" lon="3.75376">
        <ele>173.3</ele>
        <time>2021-01-23T12:34:47Z</time>
      </trkpt>
      <trkpt lat="43.62549" lon="3.75373">
        <ele>173.5</ele>
        <time>2021-01-23T12:34:48Z</time>
      </trkpt>
      <trkpt lat="43.6255" lon="3.75371">
        <ele>173.6</ele>
        <time>2021-01-23T12:34:49Z</time>
      </trkpt>
      <trkpt lat="43.6255" lon="3.75368">
        <ele>175</ele>
        <time>2021-01-23T12:34:50Z</time>
      </trkpt>
      <trkpt lat="43.6255" lon="3.75366">
        <ele>173.9</ele>
        <time>2021-01-23T12:34:51Z</time>
      </trkpt>
      <trkpt lat="43.62549" lon="3.75363">
        <ele>174.1</ele>
        <time>2021-01-23T12:34:52Z</time>
      </trkpt>
      <trkpt lat="43.62549" lon="3.7536">
        <ele>174.3</ele>
        <time>2021-01-23T12:34:53Z</time>
      </trkpt>
      <trkpt lat="43.62549" lon="3.75358">
        <ele>174.4</ele>
        <time>2021-01-23T12:34:54Z</time>
      </trkpt>
      <trkpt lat="43.62548" lon="3.75353">
        <ele>174.8</ele>
        <time>2021-01-23T12:34:56Z</time>
      </trkpt>
      <trkpt lat="43.62547" lon="3.7535">
        <ele>175</ele>
        <time>2021-01-23T12:34:57Z</time>
      </trkpt>
      <trkpt lat="43.62546" lon="3.75346">
        <ele>175.2</ele>
        <time>2021-01-23T12:34:59Z</time>
      </trkpt>
      <trkpt lat="43.62546" lon="3.75343">
        <ele>176</ele>
        <time>2021-01-23T12:35:00Z</time>
      </trkpt>
      <trkpt lat="43.62545" lon="3.75341">
        <ele>175.6</ele>
        <time>2021-01-23T12:35:01Z</time>
      </trkpt>
      <trkpt lat="43.62544" lon="3.75338">
        <ele>175.7</ele>
        <time>2021-01-23T12:35:02Z</time>
      </trkpt>
      <trkpt lat="43.62544" lon="3.75336">
        <ele>175.8</ele>
        <time>2021-01-23T12:35:03Z</time>
      </trkpt>
      <trkpt lat="43.62543" lon="3.75334">
        <ele>176</ele>
        <time>2021-01-23T12:35:04Z</time>
      </trkpt>
      <trkpt lat="43.62542" lon="3.75331">
        <ele>176.1</ele>
        <time>2021-01-23T12:35:05Z</time>
      </trkpt>
      <trkpt lat="43.62542" lon="3.75329">
        <ele>176.2</ele>
        <time>2021-01-23T12:35:06Z</time>
      </trkpt>
      <trkpt lat="43.62541" lon="3.75324">
        <ele>176.3</ele>
        <time>2021-01-23T12:35:08Z</time>
      </trkpt>
      <trkpt lat="43.6254" lon="3.75322">
        <ele>176.4</ele>
        <time>2021-01-23T12:35:09Z</time>
      </trkpt>
      <trkpt lat="43.62539" lon="3.75317">
        <ele>176.6</ele>
        <time>2021-01-23T12:35:11Z</time>
      </trkpt>
      <trkpt lat="43.62539" lon="3.75312">
        <ele>176.8</ele>
        <time>2021-01-23T12:35:13Z</time>
      </trkpt>
      <trkpt lat="43.62538" lon="3.75308">
        <ele>176.9</ele>
        <time>2021-01-23T12:35:15Z</time>
      </trkpt>
      <trkpt lat="43.62538" lon="3.75305">
        <ele>177</ele>
        <time>2021-01-23T12:35:16Z</time>
      </trkpt>
      <trkpt lat="43.62537" lon="3.75302">
        <ele>177.1</ele>
        <time>2021-01-23T12:35:17Z</time>
      </trkpt>
      <trkpt lat="43.62537" lon="3.753">
        <ele>177.2</ele>
        <time>2021-01-23T12:35:18Z</time>
      </trkpt>
      <trkpt lat="43.62537" lon="3.75297">
        <ele>177.3</ele>
        <time>2021-01-23T12:35:19Z</time>
      </trkpt>
      <trkpt lat="43.62536" lon="3.75295">
        <ele>178</ele>
        <time>2021-01-23T12:35:20Z</time>
      </trkpt>
      <trkpt lat="43.62536" lon="3.75292">
        <ele>177.5</ele>
        <time>2021-01-23T12:35:21Z</time>
      </trkpt>
      <trkpt lat="43.62536" lon="3.7529">
        <ele>177.6</ele>
        <time>2021-01-23T12:35:22Z</time>
      </trkpt>
      <trkpt lat="43.62535" lon="3.75287">
        <ele>177.7</ele>
        <time>2021-01-23T12:35:23Z</time>
      </trkpt>
      <trkpt lat="43.62535" lon="3.75285">
        <ele>177.7</ele>
        <time>2021-01-23T12:35:24Z</time>
      </trkpt>
      <trkpt lat="43.62535" lon="3.75282">
        <ele>177.8</ele>
        <time>2021-01-23T12:35:25Z</time>
      </trkpt>
      <trkpt lat="43.62535" lon="3.75279">
        <ele>178</ele>
        <time>2021-01-23T12:35:26Z</time>
      </trkpt>
      <trkpt lat="43.62534" lon="3.75277">
        <ele>178</ele>
        <time>2021-01-23T12:35:27Z</time>
      </trkpt>
      <trkpt lat="43.62534" lon="3.75274">
        <ele>178.1</ele>
        <time>2021-01-23T12:35:28Z</time>
      </trkpt>
      <trkpt lat="43.62534" lon="3.75272">
        <ele>178.2</ele>
        <time>2021-01-23T12:35:29Z</time>
      </trkpt>
      <trkpt lat="43.62534" lon="3.75269">
        <ele>179</ele>
        <time>2021-01-23T12:35:30Z</time>
      </trkpt>
      <trkpt lat="43.62534" lon="3.75266">
        <ele>178.4</ele>
        <time>2021-01-23T12:35:31Z</time>
      </trkpt>
      <trkpt lat="43.62534" lon="3.75264">
        <ele>178.5</ele>
        <time>2021-01-23T12:35:32Z</time>
      </trkpt>
      <trkpt lat="43.62534" lon="3.75261">
        <ele>178.6</ele>
        <time>2021-01-23T12:35:33Z</time>
      </trkpt>
      <trkpt lat="43.62534" lon="3.75258">
        <ele>178.7</ele>
        <time>2021-01-23T12:35:34Z</time>
      </trkpt>
      <trkpt lat="43.62535" lon="3.75255">
        <ele>178.8</ele>
        <time>2021-01-23T12:35:35Z</time>
      </trkpt>
      <trkpt lat="43.62535" lon="3.75253">
        <ele>178.9</ele>
        <time>2021-01-23T12:35:36Z</time>
      </trkpt>
      <trkpt lat="43.62535" lon="3.7525">
        <ele>179</ele>
        <time>2021-01-23T12:35:37Z</time>
      </trkpt>
      <trkpt lat="43.62535" lon="3.75247">
        <ele>179</ele>
        <time>2021-01-23T12:35:38Z</time>
      </trkpt>
      <trkpt lat="43.62535" lon="3.75244">
        <ele>178.9</ele>
        <time>2021-01-23T12:35:39Z</time>
      </trkpt>
      <trkpt lat="43.62535" lon="3.7524">
        <ele>180</ele>
        <time>2021-01-23T12:35:40Z</time>
      </trkpt>
      <trkpt lat="43.62535" lon="3.75237">
        <ele>178.9</ele>
        <time>2021-01-23T12:35:41Z</time>
      </trkpt>
      <trkpt lat="43.62535" lon="3.75234">
        <ele>178.9</ele>
        <time>2021-01-23T12:35:42Z</time>
      </trkpt>
      <trkpt lat="43.62535" lon="3.75231">
        <ele>178.8</ele>
        <time>2021-01-23T12:35:43Z</time>
      </trkpt>
      <trkpt lat="43.62534" lon="3.75228">
        <ele>178.8</ele>
        <time>2021-01-23T12:35:44Z</time>
      </trkpt>
      <trkpt lat="43.62534" lon="3.75224">
        <ele>178.8</ele>
        <time>2021-01-23T12:35:45Z</time>
      </trkpt>
      <trkpt lat="43.62534" lon="3.75221">
        <ele>178.8</ele>
        <time>2021-01-23T12:35:46Z</time>
      </trkpt>
      <trkpt lat="43.62534" lon="3.75218">
        <ele>178.8</ele>
        <time>2021-01-23T12:35:47Z</time>
      </trkpt>
      <trkpt lat="43.62534" lon="3.75215">
        <ele>178.8</ele>
        <time>2021-01-23T12:35:48Z</time>
      </trkpt>
      <trkpt lat="43.62534" lon="3.75211">
        <ele>178.8</ele>
        <time>2021-01-23T12:35:49Z</time>
      </trkpt>
      <trkpt lat="43.62534" lon="3.75208">
        <ele>180</ele>
        <time>2021-01-23T12:35:50Z</time>
      </trkpt>
      <trkpt lat="43.62534" lon="3.75205">
        <ele>178.8</ele>
        <time>2021-01-23T12:35:51Z</time>
      </trkpt>
      <trkpt lat="43.62533" lon="3.75202">
        <ele>178.8</ele>
        <time>2021-01-23T12:35:52Z</time>
      </trkpt>
      <trkpt lat="43.62533" lon="3.75198">
        <ele>178.8</ele>
        <time>2021-01-23T12:35:53Z</time>
      </trkpt>
      <trkpt lat="43.62533" lon="3.75195">
        <ele>178.8</ele>
        <time>2021-01-23T12:35:54Z</time>
      </trkpt>
      <trkpt lat="43.62533" lon="3.75192">
        <ele>178.7</ele>
        <time>2021-01-23T12:35:55Z</time>
      </trkpt>
      <trkpt lat="43.62532" lon="3.75189">
        <ele>178.7</ele>
        <time>2021-01-23T12:35:56Z</time>
      </trkpt>
      <trkpt lat="43.62532" lon="3.75186">
        <ele>178.6</ele>
        <time>2021-01-23T12:35:57Z</time>
      </trkpt>
      <trkpt lat="43.62532" lon="3.75183">
        <ele>178.5</ele>
        <time>2021-01-23T12:35:58Z</time>
      </trkpt>
      <trkpt lat="43.62531" lon="3.7518">
        <ele>178.4</ele>
        <time>2021-01-23T12:35:59Z</time>
      </trkpt>
      <trkpt lat="43.62531" lon="3.75176">
        <ele>180</ele>
        <time>2021-01-23T12:36:00Z</time>
      </trkpt>
      <trkpt lat="43.62532" lon="3.75173">
        <ele>178.2</ele>
        <time>2021-01-23T12:36:01Z</time>
      </trkpt>
      <trkpt lat="43.62532" lon="3.7517">
        <ele>178.1</ele>
        <time>2021-01-23T12:36:02Z</time>
      </trkpt>
      <trkpt lat="43.62532" lon="3.75167">
        <ele>178</ele>
        <time>2021-01-23T12:36:03Z</time>
      </trkpt>
      <trkpt lat="43.62533" lon="3.75163">
        <ele>177.9</ele>
        <time>2021-01-23T12:36:04Z</time>
      </trkpt>
      <trkpt lat="43.62534" lon="3.7516">
        <ele>177.8</ele>
        <time>2021-01-23T12:36:05Z</time>
      </trkpt>
      <trkpt lat="43.62534" lon="3.75157">
        <ele>177.7</ele>
        <time>2021-01-23T12:36:06Z</time>
      </trkpt>
      <trkpt lat="43.62535" lon="3.75154">
        <ele>177.5</ele>
        <time>2021-01-23T12:36:07Z</time>
      </trkpt>
      <trkpt lat="43.62536" lon="3.75151">
        <ele>177.4</ele>
        <time>2021-01-23T12:36:08Z</time>
      </trkpt>
      <trkpt lat="43.62537" lon="3.75147">
        <ele>177.3</ele>
        <time>2021-01-23T12:36:09Z</time>
      </trkpt>
      <trkpt lat="43.62538" lon="3.75143">
        <ele>180</ele>
        <time>2021-01-23T12:36:10Z</time>
      </trkpt>
      <trkpt lat="43.62538" lon="3.75139">
        <ele>177</ele>
        <time>2021-01-23T12:36:11Z</time>
      </trkpt>
      <trkpt lat="43.62539" lon="3.75135">
        <ele>176.9</ele>
        <time>2021-01-23T12:36:12Z</time>
      </trkpt>
      <trkpt lat="43.62539" lon="3.75131">
        <ele>176.7</ele>
        <time>2021-01-23T12:36:13Z</time>
      </trkpt>
      <trkpt lat="43.6254" lon="3.75127">
        <ele>176.6</ele>
        <time>2021-01-23T12:36:14Z</time>
      </trkpt>
      <trkpt lat="43.62539" lon="3.75123">
        <ele>176.4</ele>
        <time>2021-01-23T12:36:15Z</time>
      </trkpt>
      <trkpt lat="43.62538" lon="3.75119">
        <ele>176.3</ele>
        <time>2021-01-23T12:36:16Z</time>
      </trkpt>
      <trkpt lat="43.62536" lon="3.75116">
        <ele>176.2</ele>
        <time>2021-01-23T12:36:17Z</time>
      </trkpt>
      <trkpt lat="43.62535" lon="3.75113">
        <ele>176.1</ele>
        <time>2021-01-23T12:36:18Z</time>
      </trkpt>
      <trkpt lat="43.62533" lon="3.75109">
        <ele>175.8</ele>
        <time>2021-01-23T12:36:19Z</time>
      </trkpt>
      <trkpt lat="43.62531" lon="3.75106">
        <ele>179</ele>
        <time>2021-01-23T12:36:20Z</time>
      </trkpt>
      <trkpt lat="43.62529" lon="3.75102">
        <ele>175.3</ele>
        <time>2021-01-23T12:36:21Z</time>
      </trkpt>
      <trkpt lat="43.62527" lon="3.75098">
        <ele>175.1</ele>
        <time>2021-01-23T12:36:22Z</time>
      </trkpt>
      <trkpt lat="43.62525" lon="3.75094">
        <ele>174.8</ele>
        <time>2021-01-23T12:36:23Z</time>
      </trkpt>
      <trkpt lat="43.62522" lon="3.7509">
        <ele>174.5</ele>
        <time>2021-01-23T12:36:24Z</time>
      </trkpt>
      <trkpt lat="43.6252" lon="3.75086">
        <ele>174.2</ele>
        <time>2021-01-23T12:36:25Z</time>
      </trkpt>
      <trkpt lat="43.62517" lon="3.75081">
        <ele>173.8</ele>
        <time>2021-01-23T12:36:26Z</time>
      </trkpt>
      <trkpt lat="43.62514" lon="3.75075">
        <ele>173.4</ele>
        <time>2021-01-23T12:36:27Z</time>
      </trkpt>
      <trkpt lat="43.62512" lon="3.7507">
        <ele>173</ele>
        <time>2021-01-23T12:36:28Z</time>
      </trkpt>
      <trkpt lat="43.62509" lon="3.75064">
        <ele>172.6</ele>
        <time>2021-01-23T12:36:29Z</time>
      </trkpt>
      <trkpt lat="43.62507" lon="3.75058">
        <ele>176</ele>
        <time>2021-01-23T12:36:30Z</time>
      </trkpt>
      <trkpt lat="43.62505" lon="3.75052">
        <ele>171.6</ele>
        <time>2021-01-23T12:36:31Z</time>
      </trkpt>
      <trkpt lat="43.62502" lon="3.75046">
        <ele>171</ele>
        <time>2021-01-23T12:36:32Z</time>
      </trkpt>
      <trkpt lat="43.62498" lon="3.75042">
        <ele>170.5</ele>
        <time>2021-01-23T12:36:33Z</time>
      </trkpt>
      <trkpt lat="43.62494" lon="3.75039">
        <ele>170</ele>
        <time>2021-01-23T12:36:34Z</time>
      </trkpt>
      <trkpt lat="43.6249" lon="3.75039">
        <ele>169.9</ele>
        <time>2021-01-23T12:36:35Z</time>
      </trkpt>
      <trkpt lat="43.62486" lon="3.7504">
        <ele>169.8</ele>
        <time>2021-01-23T12:36:36Z</time>
      </trkpt>
      <trkpt lat="43.62483" lon="3.75041">
        <ele>169.8</ele>
        <time>2021-01-23T12:36:37Z</time>
      </trkpt>
      <trkpt lat="43.6248" lon="3.75042">
        <ele>169.8</ele>
        <time>2021-01-23T12:36:38Z</time>
      </trkpt>
      <trkpt lat="43.62477" lon="3.75043">
        <ele>169.8</ele>
        <time>2021-01-23T12:36:39Z</time>
      </trkpt>
      <trkpt lat="43.62474" lon="3.75044">
        <ele>174</ele>
        <time>2021-01-23T12:36:40Z</time>
      </trkpt>
      <trkpt lat="43.62472" lon="3.75045">
        <ele>169.8</ele>
        <time>2021-01-23T12:36:41Z</time>
      </trkpt>
      <trkpt lat="43.62469" lon="3.75046">
        <ele>169.8</ele>
        <time>2021-01-23T12:36:42Z</time>
      </trkpt>
      <trkpt lat="43.62466" lon="3.75046">
        <ele>169.6</ele>
        <time>2021-01-23T12:36:43Z</time>
      </trkpt>
      <trkpt lat="43.62464" lon="3.75047">
        <ele>169.6</ele>
        <time>2021-01-23T12:36:44Z</time>
      </trkpt>
      <trkpt lat="43.62462" lon="3.75048">
        <ele>169.5</ele>
        <time>2021-01-23T12:36:45Z</time>
      </trkpt>
      <trkpt lat="43.62459" lon="3.75049">
        <ele>169.5</ele>
        <time>2021-01-23T12:36:46Z</time>
      </trkpt>
      <trkpt lat="43.62457" lon="3.75051">
        <ele>169.5</ele>
        <time>2021-01-23T12:36:47Z</time>
      </trkpt>
      <trkpt lat="43.62454" lon="3.75053">
        <ele>169.5</ele>
        <time>2021-01-23T12:36:48Z</time>
      </trkpt>
      <trkpt lat="43.62452" lon="3.75055">
        <ele>169.5</ele>
        <time>2021-01-23T12:36:49Z</time>
      </trkpt>
      <trkpt lat="43.62449" lon="3.75056">
        <ele>173</ele>
        <time>2021-01-23T12:36:50Z</time>
      </trkpt>
      <trkpt lat="43.62444" lon="3.75059">
        <ele>169.2</ele>
        <time>2021-01-23T12:36:51Z</time>
      </trkpt>
      <trkpt lat="43.62441" lon="3.75061">
        <ele>169.1</ele>
        <time>2021-01-23T12:36:52Z</time>
      </trkpt>
      <trkpt lat="43.62439" lon="3.75063">
        <ele>169.1</ele>
        <time>2021-01-23T12:36:53Z</time>
      </trkpt>
      <trkpt lat="43.62437" lon="3.75065">
        <ele>169.1</ele>
        <time>2021-01-23T12:36:54Z</time>
      </trkpt>
      <trkpt lat="43.62435" lon="3.75067">
        <ele>169.1</ele>
        <time>2021-01-23T12:36:55Z</time>
      </trkpt>
      <trkpt lat="43.62433" lon="3.75069">
        <ele>169.1</ele>
        <time>2021-01-23T12:36:56Z</time>
      </trkpt>
      <trkpt lat="43.62431" lon="3.75071">
        <ele>169.1</ele>
        <time>2021-01-23T12:36:57Z</time>
      </trkpt>
      <trkpt lat="43.62427" lon="3.75074">
        <ele>169.1</ele>
        <time>2021-01-23T12:36:59Z</time>
      </trkpt>
      <trkpt lat="43.62425" lon="3.75074">
        <ele>168.9</ele>
        <time>2021-01-23T12:37:01Z</time>
      </trkpt>
      <trkpt lat="43.62422" lon="3.75074">
        <ele>168.7</ele>
        <time>2021-01-23T12:37:02Z</time>
      </trkpt>
      <trkpt lat="43.62419" lon="3.75074">
        <ele>168.5</ele>
        <time>2021-01-23T12:37:03Z</time>
      </trkpt>
      <trkpt lat="43.62416" lon="3.75074">
        <ele>168.3</ele>
        <time>2021-01-23T12:37:04Z</time>
      </trkpt>
      <trkpt lat="43.62412" lon="3.75074">
        <ele>167.8</ele>
        <time>2021-01-23T12:37:05Z</time>
      </trkpt>
      <trkpt lat="43.62409" lon="3.75074">
        <ele>167.5</ele>
        <time>2021-01-23T12:37:06Z</time>
      </trkpt>
      <trkpt lat="43.62406" lon="3.75074">
        <ele>167.2</ele>
        <time>2021-01-23T12:37:07Z</time>
      </trkpt>
      <trkpt lat="43.62403" lon="3.75072">
        <ele>166.7</ele>
        <time>2021-01-23T12:37:08Z</time>
      </trkpt>
      <trkpt lat="43.62401" lon="3.7507">
        <ele>166.3</ele>
        <time>2021-01-23T12:37:09Z</time>
      </trkpt>
      <trkpt lat="43.62399" lon="3.75068">
        <ele>170</ele>
        <time>2021-01-23T12:37:10Z</time>
      </trkpt>
      <trkpt lat="43.62397" lon="3.75067">
        <ele>165.7</ele>
        <time>2021-01-23T12:37:11Z</time>
      </trkpt>
      <trkpt lat="43.62394" lon="3.75066">
        <ele>165.3</ele>
        <time>2021-01-23T12:37:12Z</time>
      </trkpt>
      <trkpt lat="43.62391" lon="3.75066">
        <ele>165</ele>
        <time>2021-01-23T12:37:13Z</time>
      </trkpt>
      <trkpt lat="43.62388" lon="3.75066">
        <ele>164.6</ele>
        <time>2021-01-23T12:37:14Z</time>
      </trkpt>
      <trkpt lat="43.62385" lon="3.75065">
        <ele>164.2</ele>
        <time>2021-01-23T12:37:15Z</time>
      </trkpt>
      <trkpt lat="43.62382" lon="3.75066">
        <ele>163.9</ele>
        <time>2021-01-23T12:37:16Z</time>
      </trkpt>
      <trkpt lat="43.62379" lon="3.75068">
        <ele>163.7</ele>
        <time>2021-01-23T12:37:17Z</time>
      </trkpt>
      <trkpt lat="43.62378" lon="3.75071">
        <ele>163.7</ele>
        <time>2021-01-23T12:37:18Z</time>
      </trkpt>
      <trkpt lat="43.62376" lon="3.75074">
        <ele>163.6</ele>
        <time>2021-01-23T12:37:19Z</time>
      </trkpt>
      <trkpt lat="43.62374" lon="3.75075">
        <ele>168</ele>
        <time>2021-01-23T12:37:20Z</time>
      </trkpt>
      <trkpt lat="43.62372" lon="3.75075">
        <ele>163.2</ele>
        <time>2021-01-23T12:37:21Z</time>
      </trkpt>
      <trkpt lat="43.6237" lon="3.75076">
        <ele>162.9</ele>
        <time>2021-01-23T12:37:22Z</time>
      </trkpt>
      <trkpt lat="43.62368" lon="3.75077">
        <ele>162.7</ele>
        <time>2021-01-23T12:37:23Z</time>
      </trkpt>
      <trkpt lat="43.62366" lon="3.75079">
        <ele>162.5</ele>
        <time>2021-01-23T12:37:24Z</time>
      </trkpt>
      <trkpt lat="43.62364" lon="3.75082">
        <ele>162.4</ele>
        <time>2021-01-23T12:37:25Z</time>
      </trkpt>
      <trkpt lat="43.62361" lon="3.75084">
        <ele>162</ele>
        <time>2021-01-23T12:37:26Z</time>
      </trkpt>
      <trkpt lat="43.62358" lon="3.75085">
        <ele>161.4</ele>
        <time>2021-01-23T12:37:27Z</time>
      </trkpt>
      <trkpt lat="43.62356" lon="3.75087">
        <ele>161.1</ele>
        <time>2021-01-23T12:37:28Z</time>
      </trkpt>
      <trkpt lat="43.62353" lon="3.75089">
        <ele>160.6</ele>
        <time>2021-01-23T12:37:29Z</time>
      </trkpt>
      <trkpt lat="43.62349" lon="3.7509">
        <ele>165</ele>
        <time>2021-01-23T12:37:30Z</time>
      </trkpt>
      <trkpt lat="43.62346" lon="3.75091">
        <ele>159.4</ele>
        <time>2021-01-23T12:37:31Z</time>
      </trkpt>
      <trkpt lat="43.62342" lon="3.75093">
        <ele>158.8</ele>
        <time>2021-01-23T12:37:32Z</time>
      </trkpt>
      <trkpt lat="43.62339" lon="3.75095">
        <ele>158.4</ele>
        <time>2021-01-23T12:37:33Z</time>
      </trkpt>
      <trkpt lat="43.62337" lon="3.75097">
        <ele>158.1</ele>
        <time>2021-01-23T12:37:34Z</time>
      </trkpt>
      <trkpt lat="43.62335" lon="3.751">
        <ele>157.9</ele>
        <time>2021-01-23T12:37:35Z</time>
      </trkpt>
      <trkpt lat="43.62333" lon="3.75103">
        <ele>157.6</ele>
        <time>2021-01-23T12:37:36Z</time>
      </trkpt>
      <trkpt lat="43.6233" lon="3.75107">
        <ele>157.3</ele>
        <time>2021-01-23T12:37:37Z</time>
      </trkpt>
      <trkpt lat="43.62327" lon="3.75109">
        <ele>156.8</ele>
        <time>2021-01-23T12:37:38Z</time>
      </trkpt>
      <trkpt lat="43.62324" lon="3.7511">
        <ele>156.3</ele>
        <time>2021-01-23T12:37:39Z</time>
      </trkpt>
      <trkpt lat="43.62322" lon="3.7511">
        <ele>162</ele>
        <time>2021-01-23T12:37:40Z</time>
      </trkpt>
      <trkpt lat="43.6232" lon="3.75109">
        <ele>155.5</ele>
        <time>2021-01-23T12:37:41Z</time>
      </trkpt>
      <trkpt lat="43.62319" lon="3.75106">
        <ele>155.2</ele>
        <time>2021-01-23T12:37:42Z</time>
      </trkpt>
      <trkpt lat="43.62318" lon="3.75102">
        <ele>154.9</ele>
        <time>2021-01-23T12:37:43Z</time>
      </trkpt>
      <trkpt lat="43.62318" lon="3.75098">
        <ele>154.8</ele>
        <time>2021-01-23T12:37:44Z</time>
      </trkpt>
      <trkpt lat="43.62317" lon="3.75096">
        <ele>154.5</ele>
        <time>2021-01-23T12:37:45Z</time>
      </trkpt>
      <trkpt lat="43.62314" lon="3.75095">
        <ele>153.9</ele>
        <time>2021-01-23T12:37:46Z</time>
      </trkpt>
      <trkpt lat="43.62311" lon="3.75094">
        <ele>153.4</ele>
        <time>2021-01-23T12:37:47Z</time>
      </trkpt>
      <trkpt lat="43.62308" lon="3.75092">
        <ele>152.8</ele>
        <time>2021-01-23T12:37:48Z</time>
      </trkpt>
      <trkpt lat="43.62304" lon="3.75092">
        <ele>152.1</ele>
        <time>2021-01-23T12:37:49Z</time>
      </trkpt>
      <trkpt lat="43.623" lon="3.75093">
        <ele>159</ele>
        <time>2021-01-23T12:37:50Z</time>
      </trkpt>
      <trkpt lat="43.62297" lon="3.75094">
        <ele>151.3</ele>
        <time>2021-01-23T12:37:51Z</time>
      </trkpt>
      <trkpt lat="43.62294" lon="3.75095">
        <ele>151</ele>
        <time>2021-01-23T12:37:52Z</time>
      </trkpt>
      <trkpt lat="43.62291" lon="3.75094">
        <ele>150.6</ele>
        <time>2021-01-23T12:37:53Z</time>
      </trkpt>
      <trkpt lat="43.62288" lon="3.75094">
        <ele>150.2</ele>
        <time>2021-01-23T12:37:54Z</time>
      </trkpt>
      <trkpt lat="43.62285" lon="3.75094">
        <ele>149.9</ele>
        <time>2021-01-23T12:37:55Z</time>
      </trkpt>
      <trkpt lat="43.62283" lon="3.75095">
        <ele>149.6</ele>
        <time>2021-01-23T12:37:56Z</time>
      </trkpt>
      <trkpt lat="43.62282" lon="3.75096">
        <ele>149.5</ele>
        <time>2021-01-23T12:37:57Z</time>
      </trkpt>
      <trkpt lat="43.6228" lon="3.75098">
        <ele>149.3</ele>
        <time>2021-01-23T12:37:58Z</time>
      </trkpt>
      <trkpt lat="43.62277" lon="3.75099">
        <ele>148.9</ele>
        <time>2021-01-23T12:37:59Z</time>
      </trkpt>
      <trkpt lat="43.62275" lon="3.75099">
        <ele>156</ele>
        <time>2021-01-23T12:38:00Z</time>
      </trkpt>
      <trkpt lat="43.62273" lon="3.75099">
        <ele>148.3</ele>
        <time>2021-01-23T12:38:01Z</time>
      </trkpt>
      <trkpt lat="43.62271" lon="3.751">
        <ele>148</ele>
        <time>2021-01-23T12:38:02Z</time>
      </trkpt>
      <trkpt lat="43.62269" lon="3.75101">
        <ele>147.7</ele>
        <time>2021-01-23T12:38:03Z</time>
      </trkpt>
      <trkpt lat="43.62266" lon="3.75103">
        <ele>147.3</ele>
        <time>2021-01-23T12:38:04Z</time>
      </trkpt>
      <trkpt lat="43.62264" lon="3.75106">
        <ele>147</ele>
        <time>2021-01-23T12:38:05Z</time>
      </trkpt>
      <trkpt lat="43.62262" lon="3.75109">
        <ele>146.7</ele>
        <time>2021-01-23T12:38:06Z</time>
      </trkpt>
      <trkpt lat="43.6226" lon="3.75112">
        <ele>146.4</ele>
        <time>2021-01-23T12:38:07Z</time>
      </trkpt>
      <trkpt lat="43.62257" lon="3.75113">
        <ele>146</ele>
        <time>2021-01-23T12:38:08Z</time>
      </trkpt>
      <trkpt lat="43.62254" lon="3.75113">
        <ele>145.6</ele>
        <time>2021-01-23T12:38:09Z</time>
      </trkpt>
      <trkpt lat="43.62251" lon="3.75112">
        <ele>152</ele>
        <time>2021-01-23T12:38:10Z</time>
      </trkpt>
      <trkpt lat="43.62248" lon="3.75111">
        <ele>144.8</ele>
        <time>2021-01-23T12:38:11Z</time>
      </trkpt>
      <trkpt lat="43.62246" lon="3.75109">
        <ele>144.6</ele>
        <time>2021-01-23T12:38:12Z</time>
      </trkpt>
      <trkpt lat="43.62243" lon="3.75109">
        <ele>144.2</ele>
        <time>2021-01-23T12:38:13Z</time>
      </trkpt>
      <trkpt lat="43.6224" lon="3.75108">
        <ele>143.9</ele>
        <time>2021-01-23T12:38:14Z</time>
      </trkpt>
      <trkpt lat="43.62238" lon="3.75106">
        <ele>143.7</ele>
        <time>2021-01-23T12:38:15Z</time>
      </trkpt>
      <trkpt lat="43.62237" lon="3.75102">
        <ele>143.6</ele>
        <time>2021-01-23T12:38:16Z</time>
      </trkpt>
      <trkpt lat="43.62234" lon="3.75099">
        <ele>143.3</ele>
        <time>2021-01-23T12:38:17Z</time>
      </trkpt>
      <trkpt lat="43.62232" lon="3.75098">
        <ele>143.1</ele>
        <time>2021-01-23T12:38:18Z</time>
      </trkpt>
      <trkpt lat="43.62229" lon="3.75097">
        <ele>142.7</ele>
        <time>2021-01-23T12:38:19Z</time>
      </trkpt>
      <trkpt lat="43.62226" lon="3.75095">
        <ele>149</ele>
        <time>2021-01-23T12:38:20Z</time>
      </trkpt>
      <trkpt lat="43.62225" lon="3.75091">
        <ele>142.3</ele>
        <time>2021-01-23T12:38:21Z</time>
      </trkpt>
      <trkpt lat="43.62224" lon="3.75087">
        <ele>142.2</ele>
        <time>2021-01-23T12:38:22Z</time>
      </trkpt>
      <trkpt lat="43.62222" lon="3.75085">
        <ele>142</ele>
        <time>2021-01-23T12:38:23Z</time>
      </trkpt>
      <trkpt lat="43.62219" lon="3.75083">
        <ele>141.5</ele>
        <time>2021-01-23T12:38:24Z</time>
      </trkpt>
      <trkpt lat="43.62216" lon="3.75083">
        <ele>141.1</ele>
        <time>2021-01-23T12:38:25Z</time>
      </trkpt>
      <trkpt lat="43.62213" lon="3.75082">
        <ele>140.6</ele>
        <time>2021-01-23T12:38:26Z</time>
      </trkpt>
      <trkpt lat="43.6221" lon="3.75081">
        <ele>140.2</ele>
        <time>2021-01-23T12:38:27Z</time>
      </trkpt>
      <trkpt lat="43.62206" lon="3.75081">
        <ele>139.6</ele>
        <time>2021-01-23T12:38:28Z</time>
      </trkpt>
      <trkpt lat="43.62202" lon="3.75081">
        <ele>139</ele>
        <time>2021-01-23T12:38:29Z</time>
      </trkpt>
      <trkpt lat="43.62198" lon="3.7508">
        <ele>146</ele>
        <time>2021-01-23T12:38:30Z</time>
      </trkpt>
      <trkpt lat="43.62194" lon="3.75076">
        <ele>137.7</ele>
        <time>2021-01-23T12:38:31Z</time>
      </trkpt>
      <trkpt lat="43.62191" lon="3.75073">
        <ele>137.1</ele>
        <time>2021-01-23T12:38:32Z</time>
      </trkpt>
      <trkpt lat="43.62188" lon="3.75069">
        <ele>136.6</ele>
        <time>2021-01-23T12:38:33Z</time>
      </trkpt>
      <trkpt lat="43.62186" lon="3.75066">
        <ele>136.2</ele>
        <time>2021-01-23T12:38:34Z</time>
      </trkpt>
      <trkpt lat="43.62183" lon="3.75062">
        <ele>135.6</ele>
        <time>2021-01-23T12:38:35Z</time>
      </trkpt>
      <trkpt lat="43.6218" lon="3.75059">
        <ele>135</ele>
        <time>2021-01-23T12:38:36Z</time>
      </trkpt>
      <trkpt lat="43.62177" lon="3.75056">
        <ele>134.5</ele>
        <time>2021-01-23T12:38:37Z</time>
      </trkpt>
      <trkpt lat="43.62175" lon="3.75053">
        <ele>133.9</ele>
        <time>2021-01-23T12:38:38Z</time>
      </trkpt>
      <trkpt lat="43.62172" lon="3.7505">
        <ele>133.2</ele>
        <time>2021-01-23T12:38:39Z</time>
      </trkpt>
      <trkpt lat="43.6217" lon="3.75047">
        <ele>141</ele>
        <time>2021-01-23T12:38:40Z</time>
      </trkpt>
      <trkpt lat="43.62169" lon="3.75042">
        <ele>131.9</ele>
        <time>2021-01-23T12:38:41Z</time>
      </trkpt>
      <trkpt lat="43.62168" lon="3.75038">
        <ele>131.3</ele>
        <time>2021-01-23T12:38:42Z</time>
      </trkpt>
      <trkpt lat="43.62167" lon="3.75033">
        <ele>130.6</ele>
        <time>2021-01-23T12:38:43Z</time>
      </trkpt>
      <trkpt lat="43.62166" lon="3.75028">
        <ele>129.9</ele>
        <time>2021-01-23T12:38:44Z</time>
      </trkpt>
      <trkpt lat="43.62165" lon="3.75023">
        <ele>129.1</ele>
        <time>2021-01-23T12:38:45Z</time>
      </trkpt>
      <trkpt lat="43.62162" lon="3.7502">
        <ele>128.2</ele>
        <time>2021-01-23T12:38:46Z</time>
      </trkpt>
      <trkpt lat="43.62161" lon="3.75015">
        <ele>127.3</ele>
        <time>2021-01-23T12:38:47Z</time>
      </trkpt>
      <trkpt lat="43.62159" lon="3.75011">
        <ele>126.5</ele>
        <time>2021-01-23T12:38:48Z</time>
      </trkpt>
      <trkpt lat="43.62159" lon="3.75005">
        <ele>125.6</ele>
        <time>2021-01-23T12:38:49Z</time>
      </trkpt>
      <trkpt lat="43.62159" lon="3.74999">
        <ele>134</ele>
        <time>2021-01-23T12:38:50Z</time>
      </trkpt>
      <trkpt lat="43.62159" lon="3.74994">
        <ele>124</ele>
        <time>2021-01-23T12:38:51Z</time>
      </trkpt>
      <trkpt lat="43.62158" lon="3.74988">
        <ele>123</ele>
        <time>2021-01-23T12:38:52Z</time>
      </trkpt>
      <trkpt lat="43.62156" lon="3.74983">
        <ele>122</ele>
        <time>2021-01-23T12:38:53Z</time>
      </trkpt>
      <trkpt lat="43.62155" lon="3.74978">
        <ele>121.2</ele>
        <time>2021-01-23T12:38:54Z</time>
      </trkpt>
      <trkpt lat="43.62153" lon="3.74972">
        <ele>120</ele>
        <time>2021-01-23T12:38:55Z</time>
      </trkpt>
      <trkpt lat="43.62151" lon="3.74966">
        <ele>119.1</ele>
        <time>2021-01-23T12:38:56Z</time>
      </trkpt>
      <trkpt lat="43.62149" lon="3.74962">
        <ele>118.4</ele>
        <time>2021-01-23T12:38:57Z</time>
      </trkpt>
      <trkpt lat="43.62147" lon="3.74956">
        <ele>117.4</ele>
        <time>2021-01-23T12:38:58Z</time>
      </trkpt>
      <trkpt lat="43.62146" lon="3.74951">
        <ele>116.7</ele>
        <time>2021-01-23T12:38:59Z</time>
      </trkpt>
      <trkpt lat="43.62145" lon="3.74945">
        <ele>126</ele>
        <time>2021-01-23T12:39:00Z</time>
      </trkpt>
      <trkpt lat="43.62145" lon="3.7494">
        <ele>115.6</ele>
        <time>2021-01-23T12:39:01Z</time>
      </trkpt>
      <trkpt lat="43.62144" lon="3.74934">
        <ele>115</ele>
        <time>2021-01-23T12:39:02Z</time>
      </trkpt>
      <trkpt lat="43.62143" lon="3.74929">
        <ele>114.5</ele>
        <time>2021-01-23T12:39:03Z</time>
      </trkpt>
      <trkpt lat="43.62141" lon="3.74924">
        <ele>113.8</ele>
        <time>2021-01-23T12:39:04Z</time>
      </trkpt>
      <trkpt lat="43.6214" lon="3.74919">
        <ele>113.3</ele>
        <time>2021-01-23T12:39:05Z</time>
      </trkpt>
      <trkpt lat="43.62139" lon="3.74914">
        <ele>112.8</ele>
        <time>2021-01-23T12:39:06Z</time>
      </trkpt>
      <trkpt lat="43.62137" lon="3.74909">
        <ele>112.2</ele>
        <time>2021-01-23T12:39:07Z</time>
      </trkpt>
      <trkpt lat="43.62136" lon="3.74904">
        <ele>111.7</ele>
        <time>2021-01-23T12:39:08Z</time>
      </trkpt>
      <trkpt lat="43.62134" lon="3.74898">
        <ele>111.1</ele>
        <time>2021-01-23T12:39:09Z</time>
      </trkpt>
      <trkpt lat="43.62132" lon="3.74892">
        <ele>122</ele>
        <time>2021-01-23T12:39:10Z</time>
      </trkpt>
      <trkpt lat="43.6213" lon="3.74887">
        <ele>110</ele>
        <time>2021-01-23T12:39:11Z</time>
      </trkpt>
      <trkpt lat="43.62128" lon="3.74883">
        <ele>109.5</ele>
        <time>2021-01-23T12:39:12Z</time>
      </trkpt>
      <trkpt lat="43.62126" lon="3.74878">
        <ele>109</ele>
        <time>2021-01-23T12:39:13Z</time>
      </trkpt>
      <trkpt lat="43.62124" lon="3.74874">
        <ele>108.6</ele>
        <time>2021-01-23T12:39:14Z</time>
      </trkpt>
      <trkpt lat="43.62122" lon="3.7487">
        <ele>108.1</ele>
        <time>2021-01-23T12:39:15Z</time>
      </trkpt>
      <trkpt lat="43.6212" lon="3.74865">
        <ele>107.5</ele>
        <time>2021-01-23T12:39:16Z</time>
      </trkpt>
      <trkpt lat="43.62118" lon="3.74859">
        <ele>106.9</ele>
        <time>2021-01-23T12:39:17Z</time>
      </trkpt>
      <trkpt lat="43.62117" lon="3.74853">
        <ele>106.5</ele>
        <time>2021-01-23T12:39:18Z</time>
      </trkpt>
      <trkpt lat="43.62116" lon="3.74846">
        <ele>106.1</ele>
        <time>2021-01-23T12:39:19Z</time>
      </trkpt>
      <trkpt lat="43.62115" lon="3.7484">
        <ele>116</ele>
        <time>2021-01-23T12:39:20Z</time>
      </trkpt>
      <trkpt lat="43.62113" lon="3.74835">
        <ele>105.3</ele>
        <time>2021-01-23T12:39:21Z</time>
      </trkpt>
      <trkpt lat="43.62111" lon="3.74831">
        <ele>105.1</ele>
        <time>2021-01-23T12:39:22Z</time>
      </trkpt>
      <trkpt lat="43.62108" lon="3.74828">
        <ele>104.8</ele>
        <time>2021-01-23T12:39:23Z</time>
      </trkpt>
      <trkpt lat="43.62105" lon="3.74826">
        <ele>104.5</ele>
        <time>2021-01-23T12:39:24Z</time>
      </trkpt>
      <trkpt lat="43.62102" lon="3.74825">
        <ele>104.2</ele>
        <time>2021-01-23T12:39:25Z</time>
      </trkpt>
      <trkpt lat="43.62098" lon="3.74824">
        <ele>103.8</ele>
        <time>2021-01-23T12:39:26Z</time>
      </trkpt>
      <trkpt lat="43.62095" lon="3.74824">
        <ele>103.4</ele>
        <time>2021-01-23T12:39:27Z</time>
      </trkpt>
      <trkpt lat="43.62093" lon="3.74826">
        <ele>103.1</ele>
        <time>2021-01-23T12:39:28Z</time>
      </trkpt>
      <trkpt lat="43.62091" lon="3.74829">
        <ele>102.9</ele>
        <time>2021-01-23T12:39:29Z</time>
      </trkpt>
      <trkpt lat="43.62088" lon="3.74832">
        <ele>114</ele>
        <time>2021-01-23T12:39:30Z</time>
      </trkpt>
      <trkpt lat="43.62086" lon="3.74834">
        <ele>102.3</ele>
        <time>2021-01-23T12:39:31Z</time>
      </trkpt>
      <trkpt lat="43.62083" lon="3.74837">
        <ele>102.2</ele>
        <time>2021-01-23T12:39:32Z</time>
      </trkpt>
      <trkpt lat="43.6208" lon="3.7484">
        <ele>102.1</ele>
        <time>2021-01-23T12:39:33Z</time>
      </trkpt>
      <trkpt lat="43.62076" lon="3.74843">
        <ele>101.8</ele>
        <time>2021-01-23T12:39:34Z</time>
      </trkpt>
      <trkpt lat="43.62073" lon="3.74847">
        <ele>101.7</ele>
        <time>2021-01-23T12:39:35Z</time>
      </trkpt>
      <trkpt lat="43.62071" lon="3.74852">
        <ele>101.7</ele>
        <time>2021-01-23T12:39:36Z</time>
      </trkpt>
      <trkpt lat="43.62069" lon="3.74857">
        <ele>101.7</ele>
        <time>2021-01-23T12:39:37Z</time>
      </trkpt>
      <trkpt lat="43.62066" lon="3.74862">
        <ele>101.5</ele>
        <time>2021-01-23T12:39:38Z</time>
      </trkpt>
      <trkpt lat="43.62063" lon="3.74865">
        <ele>101.1</ele>
        <time>2021-01-23T12:39:39Z</time>
      </trkpt>
      <trkpt lat="43.62061" lon="3.74867">
        <ele>109</ele>
        <time>2021-01-23T12:39:40Z</time>
      </trkpt>
      <trkpt lat="43.6206" lon="3.7487">
        <ele>100.7</ele>
        <time>2021-01-23T12:39:41Z</time>
      </trkpt>
      <trkpt lat="43.62059" lon="3.74874">
        <ele>100.6</ele>
        <time>2021-01-23T12:39:42Z</time>
      </trkpt>
      <trkpt lat="43.62059" lon="3.74879">
        <ele>100.7</ele>
        <time>2021-01-23T12:39:43Z</time>
      </trkpt>
      <trkpt lat="43.6206" lon="3.74885">
        <ele>100.9</ele>
        <time>2021-01-23T12:39:44Z</time>
      </trkpt>
      <trkpt lat="43.6206" lon="3.74892">
        <ele>100.9</ele>
        <time>2021-01-23T12:39:45Z</time>
      </trkpt>
      <trkpt lat="43.6206" lon="3.74897">
        <ele>100.8</ele>
        <time>2021-01-23T12:39:46Z</time>
      </trkpt>
      <trkpt lat="43.6206" lon="3.74903">
        <ele>100.6</ele>
        <time>2021-01-23T12:39:47Z</time>
      </trkpt>
      <trkpt lat="43.6206" lon="3.74909">
        <ele>100.5</ele>
        <time>2021-01-23T12:39:48Z</time>
      </trkpt>
      <trkpt lat="43.62059" lon="3.74915">
        <ele>100</ele>
        <time>2021-01-23T12:39:49Z</time>
      </trkpt>
      <trkpt lat="43.62058" lon="3.74921">
        <ele>106</ele>
        <time>2021-01-23T12:39:50Z</time>
      </trkpt>
      <trkpt lat="43.62057" lon="3.74926">
        <ele>99.8</ele>
        <time>2021-01-23T12:39:51Z</time>
      </trkpt>
      <trkpt lat="43.62053" lon="3.74929">
        <ele>99.7</ele>
        <time>2021-01-23T12:39:52Z</time>
      </trkpt>
      <trkpt lat="43.6205" lon="3.7493">
        <ele>100</ele>
        <time>2021-01-23T12:39:53Z</time>
      </trkpt>
      <trkpt lat="43.62047" lon="3.74931">
        <ele>100.3</ele>
        <time>2021-01-23T12:39:54Z</time>
      </trkpt>
      <trkpt lat="43.62045" lon="3.74933">
        <ele>100.4</ele>
        <time>2021-01-23T12:39:55Z</time>
      </trkpt>
      <trkpt lat="43.62043" lon="3.74935">
        <ele>100.6</ele>
        <time>2021-01-23T12:39:56Z</time>
      </trkpt>
      <trkpt lat="43.62042" lon="3.74938">
        <ele>100.6</ele>
        <time>2021-01-23T12:39:57Z</time>
      </trkpt>
      <trkpt lat="43.62041" lon="3.74941">
        <ele>100.6</ele>
        <time>2021-01-23T12:39:58Z</time>
      </trkpt>
      <trkpt lat="43.6204" lon="3.74945">
        <ele>100.6</ele>
        <time>2021-01-23T12:39:59Z</time>
      </trkpt>
      <trkpt lat="43.62038" lon="3.74949">
        <ele>105</ele>
        <time>2021-01-23T12:40:00Z</time>
      </trkpt>
      <trkpt lat="43.62036" lon="3.74957">
        <ele>100.5</ele>
        <time>2021-01-23T12:40:01Z</time>
      </trkpt>
      <trkpt lat="43.62035" lon="3.74962">
        <ele>100.3</ele>
        <time>2021-01-23T12:40:02Z</time>
      </trkpt>
      <trkpt lat="43.62033" lon="3.74967">
        <ele>100</ele>
        <time>2021-01-23T12:40:03Z</time>
      </trkpt>
      <trkpt lat="43.62032" lon="3.74972">
        <ele>99.6</ele>
        <time>2021-01-23T12:40:04Z</time>
      </trkpt>
      <trkpt lat="43.6203" lon="3.74976">
        <ele>99.2</ele>
        <time>2021-01-23T12:40:05Z</time>
      </trkpt>
      <trkpt lat="43.62027" lon="3.74981">
        <ele>98.8</ele>
        <time>2021-01-23T12:40:06Z</time>
      </trkpt>
      <trkpt lat="43.62022" lon="3.74987">
        <ele>99.1</ele>
        <time>2021-01-23T12:40:08Z</time>
      </trkpt>
      <trkpt lat="43.6202" lon="3.74991">
        <ele>99.1</ele>
        <time>2021-01-23T12:40:09Z</time>
      </trkpt>
      <trkpt lat="43.6202" lon="3.74996">
        <ele>98.8</ele>
        <time>2021-01-23T12:40:11Z</time>
      </trkpt>
      <trkpt lat="43.62019" lon="3.75001">
        <ele>98.7</ele>
        <time>2021-01-23T12:40:12Z</time>
      </trkpt>
      <trkpt lat="43.62017" lon="3.75006">
        <ele>99.1</ele>
        <time>2021-01-23T12:40:13Z</time>
      </trkpt>
      <trkpt lat="43.62014" lon="3.7501">
        <ele>99.4</ele>
        <time>2021-01-23T12:40:14Z</time>
      </trkpt>
      <trkpt lat="43.62012" lon="3.75015">
        <ele>99.5</ele>
        <time>2021-01-23T12:40:15Z</time>
      </trkpt>
      <trkpt lat="43.62009" lon="3.75019">
        <ele>99.3</ele>
        <time>2021-01-23T12:40:16Z</time>
      </trkpt>
      <trkpt lat="43.62006" lon="3.75021">
        <ele>99</ele>
        <time>2021-01-23T12:40:17Z</time>
      </trkpt>
      <trkpt lat="43.62002" lon="3.75023">
        <ele>98.6</ele>
        <time>2021-01-23T12:40:18Z</time>
      </trkpt>
      <trkpt lat="43.61998" lon="3.75025">
        <ele>98.3</ele>
        <time>2021-01-23T12:40:19Z</time>
      </trkpt>
      <trkpt lat="43.61995" lon="3.75028">
        <ele>104</ele>
        <time>2021-01-23T12:40:20Z</time>
      </trkpt>
      <trkpt lat="43.61992" lon="3.75031">
        <ele>98.5</ele>
        <time>2021-01-23T12:40:21Z</time>
      </trkpt>
      <trkpt lat="43.61989" lon="3.75033">
        <ele>98.7</ele>
        <time>2021-01-23T12:40:22Z</time>
      </trkpt>
      <trkpt lat="43.61986" lon="3.75033">
        <ele>98.8</ele>
        <time>2021-01-23T12:40:23Z</time>
      </trkpt>
      <trkpt lat="43.61983" lon="3.75034">
        <ele>98.9</ele>
        <time>2021-01-23T12:40:24Z</time>
      </trkpt>
      <trkpt lat="43.6198" lon="3.75037">
        <ele>99</ele>
        <time>2021-01-23T12:40:25Z</time>
      </trkpt>
      <trkpt lat="43.61976" lon="3.75039">
        <ele>99</ele>
        <time>2021-01-23T12:40:26Z</time>
      </trkpt>
      <trkpt lat="43.61972" lon="3.7504">
        <ele>99</ele>
        <time>2021-01-23T12:40:27Z</time>
      </trkpt>
      <trkpt lat="43.61968" lon="3.75041">
        <ele>98.9</ele>
        <time>2021-01-23T12:40:28Z</time>
      </trkpt>
      <trkpt lat="43.61965" lon="3.75042">
        <ele>98.7</ele>
        <time>2021-01-23T12:40:29Z</time>
      </trkpt>
      <trkpt lat="43.61962" lon="3.75044">
        <ele>102</ele>
        <time>2021-01-23T12:40:30Z</time>
      </trkpt>
      <trkpt lat="43.61959" lon="3.75047">
        <ele>98.3</ele>
        <time>2021-01-23T12:40:31Z</time>
      </trkpt>
      <trkpt lat="43.61955" lon="3.75049">
        <ele>98.1</ele>
        <time>2021-01-23T12:40:32Z</time>
      </trkpt>
      <trkpt lat="43.61952" lon="3.75052">
        <ele>97.7</ele>
        <time>2021-01-23T12:40:33Z</time>
      </trkpt>
      <trkpt lat="43.61948" lon="3.75054">
        <ele>97.4</ele>
        <time>2021-01-23T12:40:34Z</time>
      </trkpt>
      <trkpt lat="43.61945" lon="3.75057">
        <ele>97.2</ele>
        <time>2021-01-23T12:40:35Z</time>
      </trkpt>
      <trkpt lat="43.61942" lon="3.75058">
        <ele>97.3</ele>
        <time>2021-01-23T12:40:36Z</time>
      </trkpt>
      <trkpt lat="43.61939" lon="3.7506">
        <ele>97.6</ele>
        <time>2021-01-23T12:40:37Z</time>
      </trkpt>
      <trkpt lat="43.61936" lon="3.75061">
        <ele>97.7</ele>
        <time>2021-01-23T12:40:38Z</time>
      </trkpt>
      <trkpt lat="43.61934" lon="3.75063">
        <ele>97.8</ele>
        <time>2021-01-23T12:40:39Z</time>
      </trkpt>
      <trkpt lat="43.61931" lon="3.75066">
        <ele>102</ele>
        <time>2021-01-23T12:40:40Z</time>
      </trkpt>
      <trkpt lat="43.61927" lon="3.75068">
        <ele>97.8</ele>
        <time>2021-01-23T12:40:41Z</time>
      </trkpt>
      <trkpt lat="43.61924" lon="3.7507">
        <ele>97.8</ele>
        <time>2021-01-23T12:40:42Z</time>
      </trkpt>
      <trkpt lat="43.6192" lon="3.75072">
        <ele>97.6</ele>
        <time>2021-01-23T12:40:43Z</time>
      </trkpt>
      <trkpt lat="43.61917" lon="3.75074">
        <ele>97.4</ele>
        <time>2021-01-23T12:40:44Z</time>
      </trkpt>
      <trkpt lat="43.61913" lon="3.75076">
        <ele>97.3</ele>
        <time>2021-01-23T12:40:45Z</time>
      </trkpt>
      <trkpt lat="43.61908" lon="3.75077">
        <ele>97.3</ele>
        <time>2021-01-23T12:40:46Z</time>
      </trkpt>
      <trkpt lat="43.61904" lon="3.75078">
        <ele>97.3</ele>
        <time>2021-01-23T12:40:47Z</time>
      </trkpt>
      <trkpt lat="43.61899" lon="3.75079">
        <ele>97.3</ele>
        <time>2021-01-23T12:40:48Z</time>
      </trkpt>
      <trkpt lat="43.61895" lon="3.7508">
        <ele>97.2</ele>
        <time>2021-01-23T12:40:49Z</time>
      </trkpt>
      <trkpt lat="43.61891" lon="3.75081">
        <ele>101</ele>
        <time>2021-01-23T12:40:50Z</time>
      </trkpt>
      <trkpt lat="43.61887" lon="3.75082">
        <ele>97</ele>
        <time>2021-01-23T12:40:51Z</time>
      </trkpt>
      <trkpt lat="43.61884" lon="3.75082">
        <ele>96.9</ele>
        <time>2021-01-23T12:40:52Z</time>
      </trkpt>
      <trkpt lat="43.6188" lon="3.75083">
        <ele>96.7</ele>
        <time>2021-01-23T12:40:53Z</time>
      </trkpt>
      <trkpt lat="43.61877" lon="3.75084">
        <ele>96.6</ele>
        <time>2021-01-23T12:40:54Z</time>
      </trkpt>
      <trkpt lat="43.61873" lon="3.75084">
        <ele>96.5</ele>
        <time>2021-01-23T12:40:55Z</time>
      </trkpt>
      <trkpt lat="43.61869" lon="3.75085">
        <ele>96.4</ele>
        <time>2021-01-23T12:40:56Z</time>
      </trkpt>
      <trkpt lat="43.61866" lon="3.75085">
        <ele>96.2</ele>
        <time>2021-01-23T12:40:57Z</time>
      </trkpt>
      <trkpt lat="43.61862" lon="3.75086">
        <ele>96.1</ele>
        <time>2021-01-23T12:40:58Z</time>
      </trkpt>
      <trkpt lat="43.61859" lon="3.75087">
        <ele>96.2</ele>
        <time>2021-01-23T12:40:59Z</time>
      </trkpt>
      <trkpt lat="43.61855" lon="3.75088">
        <ele>100</ele>
        <time>2021-01-23T12:41:00Z</time>
      </trkpt>
      <trkpt lat="43.61851" lon="3.7509">
        <ele>96.4</ele>
        <time>2021-01-23T12:41:01Z</time>
      </trkpt>
      <trkpt lat="43.61847" lon="3.75091">
        <ele>96.5</ele>
        <time>2021-01-23T12:41:02Z</time>
      </trkpt>
      <trkpt lat="43.61844" lon="3.75093">
        <ele>96.5</ele>
        <time>2021-01-23T12:41:03Z</time>
      </trkpt>
      <trkpt lat="43.6184" lon="3.75095">
        <ele>96.5</ele>
        <time>2021-01-23T12:41:04Z</time>
      </trkpt>
      <trkpt lat="43.61836" lon="3.75097">
        <ele>96.5</ele>
        <time>2021-01-23T12:41:05Z</time>
      </trkpt>
      <trkpt lat="43.61833" lon="3.75099">
        <ele>96.4</ele>
        <time>2021-01-23T12:41:06Z</time>
      </trkpt>
      <trkpt lat="43.61829" lon="3.75102">
        <ele>96.3</ele>
        <time>2021-01-23T12:41:07Z</time>
      </trkpt>
      <trkpt lat="43.61826" lon="3.75104">
        <ele>96.3</ele>
        <time>2021-01-23T12:41:08Z</time>
      </trkpt>
      <trkpt lat="43.61822" lon="3.75106">
        <ele>96.2</ele>
        <time>2021-01-23T12:41:09Z</time>
      </trkpt>
      <trkpt lat="43.61819" lon="3.75109">
        <ele>100</ele>
        <time>2021-01-23T12:41:10Z</time>
      </trkpt>
      <trkpt lat="43.61816" lon="3.75111">
        <ele>96</ele>
        <time>2021-01-23T12:41:11Z</time>
      </trkpt>
      <trkpt lat="43.61813" lon="3.75114">
        <ele>96.3</ele>
        <time>2021-01-23T12:41:12Z</time>
      </trkpt>
      <trkpt lat="43.6181" lon="3.75116">
        <ele>96.5</ele>
        <time>2021-01-23T12:41:13Z</time>
      </trkpt>
      <trkpt lat="43.61807" lon="3.75119">
        <ele>96.6</ele>
        <time>2021-01-23T12:41:14Z</time>
      </trkpt>
      <trkpt lat="43.61805" lon="3.75121">
        <ele>96.7</ele>
        <time>2021-01-23T12:41:15Z</time>
      </trkpt>
      <trkpt lat="43.61802" lon="3.75122">
        <ele>96.7</ele>
        <time>2021-01-23T12:41:16Z</time>
      </trkpt>
      <trkpt lat="43.618" lon="3.75122">
        <ele>96.6</ele>
        <time>2021-01-23T12:41:17Z</time>
      </trkpt>
      <trkpt lat="43.61798" lon="3.7512">
        <ele>96.5</ele>
        <time>2021-01-23T12:41:18Z</time>
      </trkpt>
      <trkpt lat="43.61798" lon="3.75117">
        <ele>96.4</ele>
        <time>2021-01-23T12:41:19Z</time>
      </trkpt>
      <trkpt lat="43.61799" lon="3.7511">
        <ele>99</ele>
        <time>2021-01-23T12:41:20Z</time>
      </trkpt>
      <trkpt lat="43.61799" lon="3.75106">
        <ele>96.4</ele>
        <time>2021-01-23T12:41:21Z</time>
      </trkpt>
      <trkpt lat="43.61799" lon="3.75102">
        <ele>96.5</ele>
        <time>2021-01-23T12:41:22Z</time>
      </trkpt>
      <trkpt lat="43.61799" lon="3.75099">
        <ele>96.6</ele>
        <time>2021-01-23T12:41:23Z</time>
      </trkpt>
      <trkpt lat="43.61798" lon="3.75091">
        <ele>96.8</ele>
        <time>2021-01-23T12:41:25Z</time>
      </trkpt>
      <trkpt lat="43.61799" lon="3.75086">
        <ele>96.9</ele>
        <time>2021-01-23T12:41:26Z</time>
      </trkpt>
      <trkpt lat="43.61799" lon="3.75081">
        <ele>97</ele>
        <time>2021-01-23T12:41:27Z</time>
      </trkpt>
      <trkpt lat="43.61802" lon="3.75071">
        <ele>97.1</ele>
        <time>2021-01-23T12:41:29Z</time>
      </trkpt>
      <trkpt lat="43.61804" lon="3.75066">
        <ele>97.1</ele>
        <time>2021-01-23T12:41:31Z</time>
      </trkpt>
      <trkpt lat="43.61805" lon="3.75062">
        <ele>97</ele>
        <time>2021-01-23T12:41:32Z</time>
      </trkpt>
      <trkpt lat="43.61806" lon="3.75058">
        <ele>97</ele>
        <time>2021-01-23T12:41:33Z</time>
      </trkpt>
      <trkpt lat="43.61806" lon="3.75053">
        <ele>97.1</ele>
        <time>2021-01-23T12:41:34Z</time>
      </trkpt>
      <trkpt lat="43.61806" lon="3.7505">
        <ele>97.2</ele>
        <time>2021-01-23T12:41:35Z</time>
      </trkpt>
      <trkpt lat="43.61806" lon="3.75047">
        <ele>97.3</ele>
        <time>2021-01-23T12:41:36Z</time>
      </trkpt>
      <trkpt lat="43.61806" lon="3.75043">
        <ele>97.5</ele>
        <time>2021-01-23T12:41:37Z</time>
      </trkpt>
      <trkpt lat="43.61805" lon="3.75041">
        <ele>97.6</ele>
        <time>2021-01-23T12:41:38Z</time>
      </trkpt>
      <trkpt lat="43.61804" lon="3.75038">
        <ele>97.8</ele>
        <time>2021-01-23T12:41:39Z</time>
      </trkpt>
      <trkpt lat="43.61803" lon="3.75035">
        <ele>101</ele>
        <time>2021-01-23T12:41:40Z</time>
      </trkpt>
      <trkpt lat="43.61803" lon="3.75032">
        <ele>98.2</ele>
        <time>2021-01-23T12:41:41Z</time>
      </trkpt>
      <trkpt lat="43.61802" lon="3.75029">
        <ele>98.5</ele>
        <time>2021-01-23T12:41:42Z</time>
      </trkpt>
      <trkpt lat="43.61803" lon="3.75026">
        <ele>98.4</ele>
        <time>2021-01-23T12:41:43Z</time>
      </trkpt>
      <trkpt lat="43.61803" lon="3.75022">
        <ele>98.4</ele>
        <time>2021-01-23T12:41:44Z</time>
      </trkpt>
      <trkpt lat="43.61803" lon="3.75018">
        <ele>98.5</ele>
        <time>2021-01-23T12:41:45Z</time>
      </trkpt>
      <trkpt lat="43.61804" lon="3.75015">
        <ele>98.3</ele>
        <time>2021-01-23T12:41:46Z</time>
      </trkpt>
      <trkpt lat="43.61805" lon="3.75011">
        <ele>98.1</ele>
        <time>2021-01-23T12:41:47Z</time>
      </trkpt>
      <trkpt lat="43.61805" lon="3.75007">
        <ele>98.1</ele>
        <time>2021-01-23T12:41:48Z</time>
      </trkpt>
      <trkpt lat="43.61805" lon="3.75004">
        <ele>98.1</ele>
        <time>2021-01-23T12:41:49Z</time>
      </trkpt>
      <trkpt lat="43.61804" lon="3.75">
        <ele>102</ele>
        <time>2021-01-23T12:41:50Z</time>
      </trkpt>
      <trkpt lat="43.61804" lon="3.74996">
        <ele>98.4</ele>
        <time>2021-01-23T12:41:51Z</time>
      </trkpt>
      <trkpt lat="43.61804" lon="3.74993">
        <ele>98.4</ele>
        <time>2021-01-23T12:41:52Z</time>
      </trkpt>
      <trkpt lat="43.61804" lon="3.74989">
        <ele>98.4</ele>
        <time>2021-01-23T12:41:53Z</time>
      </trkpt>
      <trkpt lat="43.61803" lon="3.74985">
        <ele>98.6</ele>
        <time>2021-01-23T12:41:54Z</time>
      </trkpt>
      <trkpt lat="43.61802" lon="3.74982">
        <ele>98.8</ele>
        <time>2021-01-23T12:41:55Z</time>
      </trkpt>
      <trkpt lat="43.61801" lon="3.74978">
        <ele>99</ele>
        <time>2021-01-23T12:41:56Z</time>
      </trkpt>
      <trkpt lat="43.618" lon="3.74975">
        <ele>99.2</ele>
        <time>2021-01-23T12:41:57Z</time>
      </trkpt>
      <trkpt lat="43.61799" lon="3.74972">
        <ele>99.4</ele>
        <time>2021-01-23T12:41:58Z</time>
      </trkpt>
      <trkpt lat="43.61798" lon="3.74969">
        <ele>99.5</ele>
        <time>2021-01-23T12:41:59Z</time>
      </trkpt>
      <trkpt lat="43.61797" lon="3.74966">
        <ele>103</ele>
        <time>2021-01-23T12:42:00Z</time>
      </trkpt>
      <trkpt lat="43.61795" lon="3.74963">
        <ele>99.9</ele>
        <time>2021-01-23T12:42:01Z</time>
      </trkpt>
      <trkpt lat="43.61794" lon="3.7496">
        <ele>99.9</ele>
        <time>2021-01-23T12:42:02Z</time>
      </trkpt>
      <trkpt lat="43.61792" lon="3.74957">
        <ele>100.1</ele>
        <time>2021-01-23T12:42:03Z</time>
      </trkpt>
      <trkpt lat="43.61791" lon="3.74953">
        <ele>100.1</ele>
        <time>2021-01-23T12:42:04Z</time>
      </trkpt>
      <trkpt lat="43.61789" lon="3.7495">
        <ele>100.1</ele>
        <time>2021-01-23T12:42:05Z</time>
      </trkpt>
      <trkpt lat="43.61787" lon="3.74947">
        <ele>100.2</ele>
        <time>2021-01-23T12:42:06Z</time>
      </trkpt>
      <trkpt lat="43.61785" lon="3.74944">
        <ele>100.2</ele>
        <time>2021-01-23T12:42:07Z</time>
      </trkpt>
      <trkpt lat="43.61782" lon="3.7494">
        <ele>100.2</ele>
        <time>2021-01-23T12:42:08Z</time>
      </trkpt>
      <trkpt lat="43.61779" lon="3.74937">
        <ele>100.1</ele>
        <time>2021-01-23T12:42:09Z</time>
      </trkpt>
      <trkpt lat="43.61777" lon="3.74934">
        <ele>104</ele>
        <time>2021-01-23T12:42:10Z</time>
      </trkpt>
      <trkpt lat="43.61775" lon="3.74932">
        <ele>100.1</ele>
        <time>2021-01-23T12:42:11Z</time>
      </trkpt>
      <trkpt lat="43.61773" lon="3.74929">
        <ele>100</ele>
        <time>2021-01-23T12:42:12Z</time>
      </trkpt>
      <trkpt lat="43.6177" lon="3.74927">
        <ele>100.1</ele>
        <time>2021-01-23T12:42:13Z</time>
      </trkpt>
      <trkpt lat="43.61768" lon="3.74925">
        <ele>100</ele>
        <time>2021-01-23T12:42:14Z</time>
      </trkpt>
      <trkpt lat="43.61766" lon="3.74923">
        <ele>99.9</ele>
        <time>2021-01-23T12:42:15Z</time>
      </trkpt>
      <trkpt lat="43.61763" lon="3.74921">
        <ele>99.9</ele>
        <time>2021-01-23T12:42:16Z</time>
      </trkpt>
      <trkpt lat="43.61761" lon="3.74918">
        <ele>99.5</ele>
        <time>2021-01-23T12:42:17Z</time>
      </trkpt>
      <trkpt lat="43.61759" lon="3.74917">
        <ele>99.4</ele>
        <time>2021-01-23T12:42:18Z</time>
      </trkpt>
      <trkpt lat="43.61757" lon="3.74915">
        <ele>99.4</ele>
        <time>2021-01-23T12:42:19Z</time>
      </trkpt>
      <trkpt lat="43.61754" lon="3.74912">
        <ele>99.5</ele>
        <time>2021-01-23T12:42:22Z</time>
      </trkpt>
      <trkpt lat="43.6175" lon="3.7491">
        <ele>99.5</ele>
        <time>2021-01-23T12:42:23Z</time>
      </trkpt>
      <trkpt lat="43.61747" lon="3.74907">
        <ele>99.6</ele>
        <time>2021-01-23T12:42:24Z</time>
      </trkpt>
      <trkpt lat="43.61744" lon="3.74906">
        <ele>99.8</ele>
        <time>2021-01-23T12:42:25Z</time>
      </trkpt>
      <trkpt lat="43.61742" lon="3.74905">
        <ele>99.9</ele>
        <time>2021-01-23T12:42:26Z</time>
      </trkpt>
      <trkpt lat="43.6174" lon="3.74904">
        <ele>100</ele>
        <time>2021-01-23T12:42:27Z</time>
      </trkpt>
      <trkpt lat="43.61737" lon="3.74903">
        <ele>100.2</ele>
        <time>2021-01-23T12:42:28Z</time>
      </trkpt>
      <trkpt lat="43.61734" lon="3.74901">
        <ele>100.3</ele>
        <time>2021-01-23T12:42:29Z</time>
      </trkpt>
      <trkpt lat="43.61731" lon="3.749">
        <ele>106</ele>
        <time>2021-01-23T12:42:30Z</time>
      </trkpt>
      <trkpt lat="43.61728" lon="3.74899">
        <ele>100.6</ele>
        <time>2021-01-23T12:42:31Z</time>
      </trkpt>
      <trkpt lat="43.61726" lon="3.74897">
        <ele>100.6</ele>
        <time>2021-01-23T12:42:32Z</time>
      </trkpt>
      <trkpt lat="43.61723" lon="3.74896">
        <ele>100.7</ele>
        <time>2021-01-23T12:42:33Z</time>
      </trkpt>
      <trkpt lat="43.6172" lon="3.74894">
        <ele>101</ele>
        <time>2021-01-23T12:42:34Z</time>
      </trkpt>
      <trkpt lat="43.61718" lon="3.74892">
        <ele>101.1</ele>
        <time>2021-01-23T12:42:35Z</time>
      </trkpt>
      <trkpt lat="43.61716" lon="3.7489">
        <ele>101.3</ele>
        <time>2021-01-23T12:42:36Z</time>
      </trkpt>
      <trkpt lat="43.61714" lon="3.74888">
        <ele>101.5</ele>
        <time>2021-01-23T12:42:37Z</time>
      </trkpt>
      <trkpt lat="43.61712" lon="3.74885">
        <ele>101.7</ele>
        <time>2021-01-23T12:42:38Z</time>
      </trkpt>
      <trkpt lat="43.6171" lon="3.74883">
        <ele>101.9</ele>
        <time>2021-01-23T12:42:39Z</time>
      </trkpt>
      <trkpt lat="43.61708" lon="3.7488">
        <ele>108</ele>
        <time>2021-01-23T12:42:40Z</time>
      </trkpt>
      <trkpt lat="43.61707" lon="3.74877">
        <ele>102</ele>
        <time>2021-01-23T12:42:41Z</time>
      </trkpt>
      <trkpt lat="43.61706" lon="3.74873">
        <ele>101.9</ele>
        <time>2021-01-23T12:42:42Z</time>
      </trkpt>
      <trkpt lat="43.61704" lon="3.74871">
        <ele>102</ele>
        <time>2021-01-23T12:42:43Z</time>
      </trkpt>
      <trkpt lat="43.61703" lon="3.74867">
        <ele>101.8</ele>
        <time>2021-01-23T12:42:44Z</time>
      </trkpt>
      <trkpt lat="43.61702" lon="3.74864">
        <ele>101.7</ele>
        <time>2021-01-23T12:42:45Z</time>
      </trkpt>
      <trkpt lat="43.61702" lon="3.7486">
        <ele>101.5</ele>
        <time>2021-01-23T12:42:46Z</time>
      </trkpt>
      <trkpt lat="43.61701" lon="3.74857">
        <ele>101.6</ele>
        <time>2021-01-23T12:42:47Z</time>
      </trkpt>
      <trkpt lat="43.617" lon="3.74852">
        <ele>101.7</ele>
        <time>2021-01-23T12:42:48Z</time>
      </trkpt>
      <trkpt lat="43.61699" lon="3.74848">
        <ele>101.7</ele>
        <time>2021-01-23T12:42:49Z</time>
      </trkpt>
      <trkpt lat="43.61699" lon="3.74844">
        <ele>110</ele>
        <time>2021-01-23T12:42:50Z</time>
      </trkpt>
      <trkpt lat="43.61698" lon="3.7484">
        <ele>101.8</ele>
        <time>2021-01-23T12:42:51Z</time>
      </trkpt>
      <trkpt lat="43.61698" lon="3.74836">
        <ele>101.9</ele>
        <time>2021-01-23T12:42:52Z</time>
      </trkpt>
      <trkpt lat="43.61698" lon="3.74832">
        <ele>101.9</ele>
        <time>2021-01-23T12:42:53Z</time>
      </trkpt>
      <trkpt lat="43.61697" lon="3.74828">
        <ele>101.9</ele>
        <time>2021-01-23T12:42:54Z</time>
      </trkpt>
      <trkpt lat="43.61697" lon="3.74825">
        <ele>101.9</ele>
        <time>2021-01-23T12:42:55Z</time>
      </trkpt>
      <trkpt lat="43.61697" lon="3.74822">
        <ele>101.9</ele>
        <time>2021-01-23T12:42:56Z</time>
      </trkpt>
      <trkpt lat="43.61696" lon="3.74818">
        <ele>102</ele>
        <time>2021-01-23T12:42:57Z</time>
      </trkpt>
      <trkpt lat="43.61695" lon="3.74815">
        <ele>102</ele>
        <time>2021-01-23T12:42:58Z</time>
      </trkpt>
      <trkpt lat="43.61694" lon="3.74812">
        <ele>102.1</ele>
        <time>2021-01-23T12:42:59Z</time>
      </trkpt>
      <trkpt lat="43.61694" lon="3.74809">
        <ele>112</ele>
        <time>2021-01-23T12:43:00Z</time>
      </trkpt>
      <trkpt lat="43.61693" lon="3.74805">
        <ele>102.3</ele>
        <time>2021-01-23T12:43:01Z</time>
      </trkpt>
      <trkpt lat="43.61692" lon="3.74801">
        <ele>102.4</ele>
        <time>2021-01-23T12:43:02Z</time>
      </trkpt>
      <trkpt lat="43.61691" lon="3.74798">
        <ele>102.6</ele>
        <time>2021-01-23T12:43:03Z</time>
      </trkpt>
      <trkpt lat="43.61691" lon="3.74795">
        <ele>102.5</ele>
        <time>2021-01-23T12:43:04Z</time>
      </trkpt>
      <trkpt lat="43.6169" lon="3.74791">
        <ele>102.6</ele>
        <time>2021-01-23T12:43:05Z</time>
      </trkpt>
      <trkpt lat="43.61689" lon="3.74788">
        <ele>102.7</ele>
        <time>2021-01-23T12:43:06Z</time>
      </trkpt>
      <trkpt lat="43.61688" lon="3.74785">
        <ele>102.8</ele>
        <time>2021-01-23T12:43:07Z</time>
      </trkpt>
      <trkpt lat="43.61687" lon="3.74782">
        <ele>102.9</ele>
        <time>2021-01-23T12:43:08Z</time>
      </trkpt>
      <trkpt lat="43.61686" lon="3.74779">
        <ele>102.9</ele>
        <time>2021-01-23T12:43:09Z</time>
      </trkpt>
      <trkpt lat="43.61685" lon="3.74776">
        <ele>112</ele>
        <time>2021-01-23T12:43:10Z</time>
      </trkpt>
      <trkpt lat="43.61682" lon="3.74771">
        <ele>103.1</ele>
        <time>2021-01-23T12:43:11Z</time>
      </trkpt>
      <trkpt lat="43.6168" lon="3.74767">
        <ele>103.2</ele>
        <time>2021-01-23T12:43:12Z</time>
      </trkpt>
      <trkpt lat="43.61678" lon="3.74764">
        <ele>103.3</ele>
        <time>2021-01-23T12:43:13Z</time>
      </trkpt>
      <trkpt lat="43.61677" lon="3.74761">
        <ele>103.3</ele>
        <time>2021-01-23T12:43:14Z</time>
      </trkpt>
      <trkpt lat="43.61676" lon="3.74758">
        <ele>103.3</ele>
        <time>2021-01-23T12:43:15Z</time>
      </trkpt>
      <trkpt lat="43.61674" lon="3.74755">
        <ele>103.4</ele>
        <time>2021-01-23T12:43:16Z</time>
      </trkpt>
      <trkpt lat="43.61673" lon="3.74753">
        <ele>103.4</ele>
        <time>2021-01-23T12:43:17Z</time>
      </trkpt>
      <trkpt lat="43.61672" lon="3.7475">
        <ele>103.4</ele>
        <time>2021-01-23T12:43:18Z</time>
      </trkpt>
      <trkpt lat="43.61671" lon="3.74747">
        <ele>103.5</ele>
        <time>2021-01-23T12:43:19Z</time>
      </trkpt>
      <trkpt lat="43.61669" lon="3.74744">
        <ele>103.6</ele>
        <time>2021-01-23T12:43:21Z</time>
      </trkpt>
      <trkpt lat="43.61668" lon="3.74741">
        <ele>103.6</ele>
        <time>2021-01-23T12:43:22Z</time>
      </trkpt>
      <trkpt lat="43.61667" lon="3.74738">
        <ele>103.5</ele>
        <time>2021-01-23T12:43:23Z</time>
      </trkpt>
      <trkpt lat="43.61666" lon="3.74735">
        <ele>103.7</ele>
        <time>2021-01-23T12:43:24Z</time>
      </trkpt>
      <trkpt lat="43.61665" lon="3.74733">
        <ele>103.9</ele>
        <time>2021-01-23T12:43:25Z</time>
      </trkpt>
      <trkpt lat="43.61664" lon="3.7473">
        <ele>104.1</ele>
        <time>2021-01-23T12:43:26Z</time>
      </trkpt>
      <trkpt lat="43.61664" lon="3.74727">
        <ele>104</ele>
        <time>2021-01-23T12:43:27Z</time>
      </trkpt>
      <trkpt lat="43.61663" lon="3.74724">
        <ele>104.1</ele>
        <time>2021-01-23T12:43:28Z</time>
      </trkpt>
      <trkpt lat="43.61663" lon="3.74721">
        <ele>104</ele>
        <time>2021-01-23T12:43:29Z</time>
      </trkpt>
      <trkpt lat="43.61662" lon="3.74718">
        <ele>112</ele>
        <time>2021-01-23T12:43:30Z</time>
      </trkpt>
      <trkpt lat="43.61661" lon="3.74715">
        <ele>104.5</ele>
        <time>2021-01-23T12:43:31Z</time>
      </trkpt>
      <trkpt lat="43.6166" lon="3.74712">
        <ele>104.7</ele>
        <time>2021-01-23T12:43:32Z</time>
      </trkpt>
      <trkpt lat="43.6166" lon="3.7471">
        <ele>104.7</ele>
        <time>2021-01-23T12:43:33Z</time>
      </trkpt>
      <trkpt lat="43.61659" lon="3.74707">
        <ele>104.9</ele>
        <time>2021-01-23T12:43:34Z</time>
      </trkpt>
      <trkpt lat="43.61658" lon="3.74704">
        <ele>105.1</ele>
        <time>2021-01-23T12:43:35Z</time>
      </trkpt>
      <trkpt lat="43.61657" lon="3.74701">
        <ele>105.3</ele>
        <time>2021-01-23T12:43:36Z</time>
      </trkpt>
      <trkpt lat="43.61655" lon="3.74698">
        <ele>105.6</ele>
        <time>2021-01-23T12:43:37Z</time>
      </trkpt>
      <trkpt lat="43.61654" lon="3.74695">
        <ele>105.8</ele>
        <time>2021-01-23T12:43:38Z</time>
      </trkpt>
      <trkpt lat="43.61653" lon="3.74692">
        <ele>105.8</ele>
        <time>2021-01-23T12:43:39Z</time>
      </trkpt>
      <trkpt lat="43.61652" lon="3.74689">
        <ele>111</ele>
        <time>2021-01-23T12:43:40Z</time>
      </trkpt>
      <trkpt lat="43.61651" lon="3.74687">
        <ele>105.9</ele>
        <time>2021-01-23T12:43:41Z</time>
      </trkpt>
      <trkpt lat="43.6165" lon="3.74684">
        <ele>105.9</ele>
        <time>2021-01-23T12:43:42Z</time>
      </trkpt>
      <trkpt lat="43.61648" lon="3.74681">
        <ele>106.1</ele>
        <time>2021-01-23T12:43:43Z</time>
      </trkpt>
      <trkpt lat="43.61646" lon="3.74677">
        <ele>106.1</ele>
        <time>2021-01-23T12:43:45Z</time>
      </trkpt>
      <trkpt lat="43.61645" lon="3.74674">
        <ele>106</ele>
        <time>2021-01-23T12:43:46Z</time>
      </trkpt>
      <trkpt lat="43.61643" lon="3.74672">
        <ele>106</ele>
        <time>2021-01-23T12:43:47Z</time>
      </trkpt>
      <trkpt lat="43.61642" lon="3.74669">
        <ele>105.9</ele>
        <time>2021-01-23T12:43:48Z</time>
      </trkpt>
      <trkpt lat="43.6164" lon="3.74667">
        <ele>105.9</ele>
        <time>2021-01-23T12:43:49Z</time>
      </trkpt>
      <trkpt lat="43.61639" lon="3.74664">
        <ele>111</ele>
        <time>2021-01-23T12:43:50Z</time>
      </trkpt>
      <trkpt lat="43.61637" lon="3.74662">
        <ele>105.9</ele>
        <time>2021-01-23T12:43:51Z</time>
      </trkpt>
      <trkpt lat="43.61636" lon="3.7466">
        <ele>105.9</ele>
        <time>2021-01-23T12:43:52Z</time>
      </trkpt>
      <trkpt lat="43.61634" lon="3.74655">
        <ele>105.8</ele>
        <time>2021-01-23T12:43:54Z</time>
      </trkpt>
      <trkpt lat="43.61632" lon="3.74652">
        <ele>105.9</ele>
        <time>2021-01-23T12:43:55Z</time>
      </trkpt>
      <trkpt lat="43.61631" lon="3.7465">
        <ele>106</ele>
        <time>2021-01-23T12:43:56Z</time>
      </trkpt>
      <trkpt lat="43.6163" lon="3.74647">
        <ele>106</ele>
        <time>2021-01-23T12:43:57Z</time>
      </trkpt>
      <trkpt lat="43.61628" lon="3.74643">
        <ele>106.1</ele>
        <time>2021-01-23T12:43:59Z</time>
      </trkpt>
      <trkpt lat="43.61626" lon="3.7464">
        <ele>112</ele>
        <time>2021-01-23T12:44:00Z</time>
      </trkpt>
      <trkpt lat="43.61625" lon="3.74637">
        <ele>106.4</ele>
        <time>2021-01-23T12:44:01Z</time>
      </trkpt>
      <trkpt lat="43.61623" lon="3.74635">
        <ele>106.7</ele>
        <time>2021-01-23T12:44:02Z</time>
      </trkpt>
      <trkpt lat="43.61622" lon="3.74632">
        <ele>106.7</ele>
        <time>2021-01-23T12:44:03Z</time>
      </trkpt>
      <trkpt lat="43.61621" lon="3.7463">
        <ele>106.8</ele>
        <time>2021-01-23T12:44:04Z</time>
      </trkpt>
      <trkpt lat="43.6162" lon="3.74627">
        <ele>106.8</ele>
        <time>2021-01-23T12:44:05Z</time>
      </trkpt>
      <trkpt lat="43.61618" lon="3.74625">
        <ele>107</ele>
        <time>2021-01-23T12:44:06Z</time>
      </trkpt>
      <trkpt lat="43.61617" lon="3.74622">
        <ele>107</ele>
        <time>2021-01-23T12:44:07Z</time>
      </trkpt>
      <trkpt lat="43.61615" lon="3.74619">
        <ele>107.1</ele>
        <time>2021-01-23T12:44:08Z</time>
      </trkpt>
      <trkpt lat="43.61614" lon="3.74616">
        <ele>107</ele>
        <time>2021-01-23T12:44:09Z</time>
      </trkpt>
      <trkpt lat="43.61613" lon="3.74613">
        <ele>112</ele>
        <time>2021-01-23T12:44:10Z</time>
      </trkpt>
      <trkpt lat="43.61611" lon="3.7461">
        <ele>107</ele>
        <time>2021-01-23T12:44:11Z</time>
      </trkpt>
      <trkpt lat="43.6161" lon="3.74607">
        <ele>107</ele>
        <time>2021-01-23T12:44:12Z</time>
      </trkpt>
      <trkpt lat="43.61609" lon="3.74604">
        <ele>107.1</ele>
        <time>2021-01-23T12:44:13Z</time>
      </trkpt>
      <trkpt lat="43.61608" lon="3.74602">
        <ele>107.2</ele>
        <time>2021-01-23T12:44:14Z</time>
      </trkpt>
      <trkpt lat="43.61606" lon="3.74598">
        <ele>107.4</ele>
        <time>2021-01-23T12:44:15Z</time>
      </trkpt>
      <trkpt lat="43.61605" lon="3.74595">
        <ele>107.5</ele>
        <time>2021-01-23T12:44:16Z</time>
      </trkpt>
      <trkpt lat="43.61603" lon="3.74593">
        <ele>107.8</ele>
        <time>2021-01-23T12:44:17Z</time>
      </trkpt>
      <trkpt lat="43.61602" lon="3.7459">
        <ele>107.9</ele>
        <time>2021-01-23T12:44:18Z</time>
      </trkpt>
      <trkpt lat="43.61601" lon="3.74588">
        <ele>107.9</ele>
        <time>2021-01-23T12:44:19Z</time>
      </trkpt>
      <trkpt lat="43.61599" lon="3.74585">
        <ele>112</ele>
        <time>2021-01-23T12:44:20Z</time>
      </trkpt>
      <trkpt lat="43.61598" lon="3.74582">
        <ele>108.2</ele>
        <time>2021-01-23T12:44:21Z</time>
      </trkpt>
      <trkpt lat="43.61597" lon="3.74579">
        <ele>108.3</ele>
        <time>2021-01-23T12:44:22Z</time>
      </trkpt>
      <trkpt lat="43.61596" lon="3.74576">
        <ele>108.4</ele>
        <time>2021-01-23T12:44:23Z</time>
      </trkpt>
      <trkpt lat="43.61595" lon="3.74573">
        <ele>108.4</ele>
        <time>2021-01-23T12:44:24Z</time>
      </trkpt>
      <trkpt lat="43.61594" lon="3.74571">
        <ele>108.5</ele>
        <time>2021-01-23T12:44:25Z</time>
      </trkpt>
      <trkpt lat="43.61592" lon="3.74568">
        <ele>108.7</ele>
        <time>2021-01-23T12:44:26Z</time>
      </trkpt>
      <trkpt lat="43.61591" lon="3.74566">
        <ele>108.7</ele>
        <time>2021-01-23T12:44:27Z</time>
      </trkpt>
      <trkpt lat="43.6159" lon="3.74563">
        <ele>108.7</ele>
        <time>2021-01-23T12:44:28Z</time>
      </trkpt>
      <trkpt lat="43.61589" lon="3.74561">
        <ele>108.7</ele>
        <time>2021-01-23T12:44:29Z</time>
      </trkpt>
      <trkpt lat="43.61588" lon="3.74558">
        <ele>114</ele>
        <time>2021-01-23T12:44:30Z</time>
      </trkpt>
      <trkpt lat="43.61587" lon="3.74554">
        <ele>108.3</ele>
        <time>2021-01-23T12:44:32Z</time>
      </trkpt>
      <trkpt lat="43.61586" lon="3.74551">
        <ele>108.2</ele>
        <time>2021-01-23T12:44:33Z</time>
      </trkpt>
      <trkpt lat="43.61584" lon="3.74547">
        <ele>108</ele>
        <time>2021-01-23T12:44:35Z</time>
      </trkpt>
      <trkpt lat="43.61583" lon="3.74542">
        <ele>107.6</ele>
        <time>2021-01-23T12:44:37Z</time>
      </trkpt>
      <trkpt lat="43.61582" lon="3.7454">
        <ele>107.7</ele>
        <time>2021-01-23T12:44:38Z</time>
      </trkpt>
      <trkpt lat="43.61581" lon="3.74537">
        <ele>107.7</ele>
        <time>2021-01-23T12:44:39Z</time>
      </trkpt>
      <trkpt lat="43.6158" lon="3.74535">
        <ele>116</ele>
        <time>2021-01-23T12:44:40Z</time>
      </trkpt>
      <trkpt lat="43.61578" lon="3.74531">
        <ele>108.1</ele>
        <time>2021-01-23T12:44:42Z</time>
      </trkpt>
      <trkpt lat="43.61577" lon="3.74528">
        <ele>108.1</ele>
        <time>2021-01-23T12:44:43Z</time>
      </trkpt>
      <trkpt lat="43.61576" lon="3.74524">
        <ele>108.1</ele>
        <time>2021-01-23T12:44:44Z</time>
      </trkpt>
      <trkpt lat="43.61574" lon="3.74521">
        <ele>108.5</ele>
        <time>2021-01-23T12:44:45Z</time>
      </trkpt>
      <trkpt lat="43.61572" lon="3.74518">
        <ele>108.7</ele>
        <time>2021-01-23T12:44:46Z</time>
      </trkpt>
      <trkpt lat="43.61571" lon="3.74515">
        <ele>108.7</ele>
        <time>2021-01-23T12:44:47Z</time>
      </trkpt>
      <trkpt lat="43.61569" lon="3.74511">
        <ele>108.8</ele>
        <time>2021-01-23T12:44:48Z</time>
      </trkpt>
      <trkpt lat="43.61567" lon="3.74509">
        <ele>109</ele>
        <time>2021-01-23T12:44:49Z</time>
      </trkpt>
      <trkpt lat="43.61565" lon="3.74506">
        <ele>115</ele>
        <time>2021-01-23T12:44:50Z</time>
      </trkpt>
      <trkpt lat="43.61563" lon="3.74504">
        <ele>109.2</ele>
        <time>2021-01-23T12:44:51Z</time>
      </trkpt>
      <trkpt lat="43.61561" lon="3.74502">
        <ele>109.3</ele>
        <time>2021-01-23T12:44:52Z</time>
      </trkpt>
      <trkpt lat="43.61559" lon="3.74501">
        <ele>109.5</ele>
        <time>2021-01-23T12:44:53Z</time>
      </trkpt>
      <trkpt lat="43.61557" lon="3.745">
        <ele>109.7</ele>
        <time>2021-01-23T12:44:54Z</time>
      </trkpt>
      <trkpt lat="43.61555" lon="3.74499">
        <ele>110</ele>
        <time>2021-01-23T12:44:55Z</time>
      </trkpt>
      <trkpt lat="43.61554" lon="3.74498">
        <ele>110.1</ele>
        <time>2021-01-23T12:44:56Z</time>
      </trkpt>
      <trkpt lat="43.61552" lon="3.74497">
        <ele>110.4</ele>
        <time>2021-01-23T12:44:57Z</time>
      </trkpt>
      <trkpt lat="43.6155" lon="3.74495">
        <ele>110.5</ele>
        <time>2021-01-23T12:44:58Z</time>
      </trkpt>
      <trkpt lat="43.61548" lon="3.74494">
        <ele>110.7</ele>
        <time>2021-01-23T12:44:59Z</time>
      </trkpt>
      <trkpt lat="43.61546" lon="3.74493">
        <ele>115</ele>
        <time>2021-01-23T12:45:00Z</time>
      </trkpt>
      <trkpt lat="43.61544" lon="3.74491">
        <ele>111</ele>
        <time>2021-01-23T12:45:01Z</time>
      </trkpt>
      <trkpt lat="43.61542" lon="3.7449">
        <ele>111.1</ele>
        <time>2021-01-23T12:45:02Z</time>
      </trkpt>
      <trkpt lat="43.6154" lon="3.74489">
        <ele>111.3</ele>
        <time>2021-01-23T12:45:03Z</time>
      </trkpt>
      <trkpt lat="43.61538" lon="3.74488">
        <ele>111.4</ele>
        <time>2021-01-23T12:45:04Z</time>
      </trkpt>
      <trkpt lat="43.61536" lon="3.74487">
        <ele>111.5</ele>
        <time>2021-01-23T12:45:05Z</time>
      </trkpt>
      <trkpt lat="43.61535" lon="3.74486">
        <ele>111.4</ele>
        <time>2021-01-23T12:45:06Z</time>
      </trkpt>
      <trkpt lat="43.61533" lon="3.74485">
        <ele>111.5</ele>
        <time>2021-01-23T12:45:07Z</time>
      </trkpt>
      <trkpt lat="43.61531" lon="3.74485">
        <ele>111.8</ele>
        <time>2021-01-23T12:45:08Z</time>
      </trkpt>
      <trkpt lat="43.61529" lon="3.74484">
        <ele>111.8</ele>
        <time>2021-01-23T12:45:09Z</time>
      </trkpt>
      <trkpt lat="43.61527" lon="3.74484">
        <ele>116</ele>
        <time>2021-01-23T12:45:10Z</time>
      </trkpt>
      <trkpt lat="43.61525" lon="3.74483">
        <ele>112</ele>
        <time>2021-01-23T12:45:11Z</time>
      </trkpt>
      <trkpt lat="43.61522" lon="3.74483">
        <ele>112.2</ele>
        <time>2021-01-23T12:45:12Z</time>
      </trkpt>
      <trkpt lat="43.6152" lon="3.74482">
        <ele>112.1</ele>
        <time>2021-01-23T12:45:13Z</time>
      </trkpt>
      <trkpt lat="43.61518" lon="3.74482">
        <ele>112.3</ele>
        <time>2021-01-23T12:45:14Z</time>
      </trkpt>
      <trkpt lat="43.61515" lon="3.74481">
        <ele>112.3</ele>
        <time>2021-01-23T12:45:15Z</time>
      </trkpt>
      <trkpt lat="43.61513" lon="3.74481">
        <ele>112.4</ele>
        <time>2021-01-23T12:45:16Z</time>
      </trkpt>
      <trkpt lat="43.61511" lon="3.7448">
        <ele>112.3</ele>
        <time>2021-01-23T12:45:17Z</time>
      </trkpt>
      <trkpt lat="43.61508" lon="3.7448">
        <ele>112.6</ele>
        <time>2021-01-23T12:45:18Z</time>
      </trkpt>
      <trkpt lat="43.61505" lon="3.74479">
        <ele>112.5</ele>
        <time>2021-01-23T12:45:19Z</time>
      </trkpt>
      <trkpt lat="43.61502" lon="3.74479">
        <ele>117</ele>
        <time>2021-01-23T12:45:20Z</time>
      </trkpt>
      <trkpt lat="43.615" lon="3.74478">
        <ele>112.7</ele>
        <time>2021-01-23T12:45:21Z</time>
      </trkpt>
      <trkpt lat="43.61497" lon="3.74477">
        <ele>112.6</ele>
        <time>2021-01-23T12:45:22Z</time>
      </trkpt>
      <trkpt lat="43.61494" lon="3.74475">
        <ele>112.4</ele>
        <time>2021-01-23T12:45:23Z</time>
      </trkpt>
      <trkpt lat="43.61491" lon="3.74474">
        <ele>112.4</ele>
        <time>2021-01-23T12:45:24Z</time>
      </trkpt>
      <trkpt lat="43.61488" lon="3.74473">
        <ele>112.5</ele>
        <time>2021-01-23T12:45:25Z</time>
      </trkpt>
      <trkpt lat="43.61486" lon="3.74472">
        <ele>112.5</ele>
        <time>2021-01-23T12:45:26Z</time>
      </trkpt>
      <trkpt lat="43.61483" lon="3.74471">
        <ele>112.7</ele>
        <time>2021-01-23T12:45:27Z</time>
      </trkpt>
      <trkpt lat="43.6148" lon="3.7447">
        <ele>112.9</ele>
        <time>2021-01-23T12:45:28Z</time>
      </trkpt>
      <trkpt lat="43.61477" lon="3.7447">
        <ele>113.2</ele>
        <time>2021-01-23T12:45:29Z</time>
      </trkpt>
      <trkpt lat="43.61475" lon="3.74469">
        <ele>118</ele>
        <time>2021-01-23T12:45:30Z</time>
      </trkpt>
      <trkpt lat="43.61471" lon="3.74469">
        <ele>113.5</ele>
        <time>2021-01-23T12:45:31Z</time>
      </trkpt>
      <trkpt lat="43.61467" lon="3.74468">
        <ele>113.4</ele>
        <time>2021-01-23T12:45:32Z</time>
      </trkpt>
      <trkpt lat="43.61464" lon="3.74467">
        <ele>113.4</ele>
        <time>2021-01-23T12:45:33Z</time>
      </trkpt>
      <trkpt lat="43.6146" lon="3.74466">
        <ele>113.3</ele>
        <time>2021-01-23T12:45:34Z</time>
      </trkpt>
      <trkpt lat="43.61457" lon="3.74466">
        <ele>113.3</ele>
        <time>2021-01-23T12:45:35Z</time>
      </trkpt>
      <trkpt lat="43.61453" lon="3.74464">
        <ele>113.2</ele>
        <time>2021-01-23T12:45:36Z</time>
      </trkpt>
      <trkpt lat="43.6145" lon="3.74463">
        <ele>113.2</ele>
        <time>2021-01-23T12:45:37Z</time>
      </trkpt>
      <trkpt lat="43.61447" lon="3.74461">
        <ele>113.1</ele>
        <time>2021-01-23T12:45:38Z</time>
      </trkpt>
      <trkpt lat="43.61444" lon="3.74459">
        <ele>113.1</ele>
        <time>2021-01-23T12:45:39Z</time>
      </trkpt>
      <trkpt lat="43.61441" lon="3.74456">
        <ele>118</ele>
        <time>2021-01-23T12:45:40Z</time>
      </trkpt>
      <trkpt lat="43.61439" lon="3.74454">
        <ele>113</ele>
        <time>2021-01-23T12:45:41Z</time>
      </trkpt>
      <trkpt lat="43.61436" lon="3.74451">
        <ele>113</ele>
        <time>2021-01-23T12:45:42Z</time>
      </trkpt>
      <trkpt lat="43.61434" lon="3.74448">
        <ele>113</ele>
        <time>2021-01-23T12:45:43Z</time>
      </trkpt>
      <trkpt lat="43.61431" lon="3.74446">
        <ele>113.1</ele>
        <time>2021-01-23T12:45:44Z</time>
      </trkpt>
      <trkpt lat="43.61429" lon="3.74443">
        <ele>113.1</ele>
        <time>2021-01-23T12:45:45Z</time>
      </trkpt>
      <trkpt lat="43.61427" lon="3.74441">
        <ele>113.3</ele>
        <time>2021-01-23T12:45:46Z</time>
      </trkpt>
      <trkpt lat="43.61425" lon="3.74438">
        <ele>113.5</ele>
        <time>2021-01-23T12:45:47Z</time>
      </trkpt>
      <trkpt lat="43.61423" lon="3.74435">
        <ele>113.6</ele>
        <time>2021-01-23T12:45:48Z</time>
      </trkpt>
      <trkpt lat="43.61421" lon="3.74433">
        <ele>113.8</ele>
        <time>2021-01-23T12:45:49Z</time>
      </trkpt>
      <trkpt lat="43.61419" lon="3.7443">
        <ele>118</ele>
        <time>2021-01-23T12:45:50Z</time>
      </trkpt>
      <trkpt lat="43.61417" lon="3.74428">
        <ele>114</ele>
        <time>2021-01-23T12:45:51Z</time>
      </trkpt>
      <trkpt lat="43.61415" lon="3.74425">
        <ele>114.1</ele>
        <time>2021-01-23T12:45:52Z</time>
      </trkpt>
      <trkpt lat="43.61413" lon="3.74423">
        <ele>114.3</ele>
        <time>2021-01-23T12:45:53Z</time>
      </trkpt>
      <trkpt lat="43.61412" lon="3.7442">
        <ele>114.3</ele>
        <time>2021-01-23T12:45:54Z</time>
      </trkpt>
      <trkpt lat="43.6141" lon="3.74418">
        <ele>114.5</ele>
        <time>2021-01-23T12:45:55Z</time>
      </trkpt>
      <trkpt lat="43.61409" lon="3.74415">
        <ele>114.6</ele>
        <time>2021-01-23T12:45:56Z</time>
      </trkpt>
      <trkpt lat="43.61407" lon="3.74413">
        <ele>114.8</ele>
        <time>2021-01-23T12:45:57Z</time>
      </trkpt>
      <trkpt lat="43.61405" lon="3.7441">
        <ele>115.1</ele>
        <time>2021-01-23T12:45:58Z</time>
      </trkpt>
      <trkpt lat="43.61404" lon="3.74408">
        <ele>115.2</ele>
        <time>2021-01-23T12:45:59Z</time>
      </trkpt>
      <trkpt lat="43.61402" lon="3.74406">
        <ele>118</ele>
        <time>2021-01-23T12:46:00Z</time>
      </trkpt>
      <trkpt lat="43.61401" lon="3.74403">
        <ele>115.6</ele>
        <time>2021-01-23T12:46:01Z</time>
      </trkpt>
      <trkpt lat="43.61399" lon="3.74401">
        <ele>115.8</ele>
        <time>2021-01-23T12:46:02Z</time>
      </trkpt>
      <trkpt lat="43.61398" lon="3.74399">
        <ele>116</ele>
        <time>2021-01-23T12:46:03Z</time>
      </trkpt>
      <trkpt lat="43.61396" lon="3.74396">
        <ele>116.2</ele>
        <time>2021-01-23T12:46:04Z</time>
      </trkpt>
      <trkpt lat="43.61395" lon="3.74394">
        <ele>116.4</ele>
        <time>2021-01-23T12:46:05Z</time>
      </trkpt>
      <trkpt lat="43.61393" lon="3.74392">
        <ele>116.6</ele>
        <time>2021-01-23T12:46:06Z</time>
      </trkpt>
      <trkpt lat="43.61392" lon="3.7439">
        <ele>116.7</ele>
        <time>2021-01-23T12:46:07Z</time>
      </trkpt>
      <trkpt lat="43.6139" lon="3.74388">
        <ele>117</ele>
        <time>2021-01-23T12:46:08Z</time>
      </trkpt>
      <trkpt lat="43.61389" lon="3.74386">
        <ele>117.1</ele>
        <time>2021-01-23T12:46:09Z</time>
      </trkpt>
      <trkpt lat="43.61387" lon="3.74384">
        <ele>119</ele>
        <time>2021-01-23T12:46:10Z</time>
      </trkpt>
      <trkpt lat="43.61386" lon="3.74381">
        <ele>117.5</ele>
        <time>2021-01-23T12:46:11Z</time>
      </trkpt>
      <trkpt lat="43.61385" lon="3.74379">
        <ele>117.6</ele>
        <time>2021-01-23T12:46:12Z</time>
      </trkpt>
      <trkpt lat="43.61384" lon="3.74377">
        <ele>117.7</ele>
        <time>2021-01-23T12:46:13Z</time>
      </trkpt>
      <trkpt lat="43.61382" lon="3.74375">
        <ele>117.9</ele>
        <time>2021-01-23T12:46:14Z</time>
      </trkpt>
      <trkpt lat="43.61381" lon="3.74373">
        <ele>118</ele>
        <time>2021-01-23T12:46:15Z</time>
      </trkpt>
      <trkpt lat="43.61379" lon="3.74371">
        <ele>118.1</ele>
        <time>2021-01-23T12:46:16Z</time>
      </trkpt>
      <trkpt lat="43.61378" lon="3.74369">
        <ele>118.2</ele>
        <time>2021-01-23T12:46:17Z</time>
      </trkpt>
      <trkpt lat="43.61377" lon="3.74367">
        <ele>118.3</ele>
        <time>2021-01-23T12:46:18Z</time>
      </trkpt>
      <trkpt lat="43.61376" lon="3.74365">
        <ele>118.4</ele>
        <time>2021-01-23T12:46:19Z</time>
      </trkpt>
      <trkpt lat="43.61374" lon="3.74363">
        <ele>120</ele>
        <time>2021-01-23T12:46:20Z</time>
      </trkpt>
      <trkpt lat="43.61372" lon="3.74359">
        <ele>118.7</ele>
        <time>2021-01-23T12:46:21Z</time>
      </trkpt>
      <trkpt lat="43.6137" lon="3.74357">
        <ele>118.9</ele>
        <time>2021-01-23T12:46:22Z</time>
      </trkpt>
      <trkpt lat="43.61369" lon="3.74355">
        <ele>119.1</ele>
        <time>2021-01-23T12:46:23Z</time>
      </trkpt>
      <trkpt lat="43.61368" lon="3.74353">
        <ele>119.3</ele>
        <time>2021-01-23T12:46:24Z</time>
      </trkpt>
      <trkpt lat="43.61367" lon="3.74351">
        <ele>119.4</ele>
        <time>2021-01-23T12:46:25Z</time>
      </trkpt>
      <trkpt lat="43.61366" lon="3.74349">
        <ele>119.6</ele>
        <time>2021-01-23T12:46:26Z</time>
      </trkpt>
      <trkpt lat="43.61364" lon="3.74347">
        <ele>119.9</ele>
        <time>2021-01-23T12:46:27Z</time>
      </trkpt>
      <trkpt lat="43.61363" lon="3.74345">
        <ele>120.1</ele>
        <time>2021-01-23T12:46:28Z</time>
      </trkpt>
      <trkpt lat="43.61362" lon="3.74343">
        <ele>120.3</ele>
        <time>2021-01-23T12:46:29Z</time>
      </trkpt>
      <trkpt lat="43.61361" lon="3.7434">
        <ele>120.5</ele>
        <time>2021-01-23T12:46:31Z</time>
      </trkpt>
      <trkpt lat="43.61359" lon="3.74338">
        <ele>120.8</ele>
        <time>2021-01-23T12:46:32Z</time>
      </trkpt>
      <trkpt lat="43.61359" lon="3.74336">
        <ele>121</ele>
        <time>2021-01-23T12:46:33Z</time>
      </trkpt>
      <trkpt lat="43.61357" lon="3.74334">
        <ele>121.3</ele>
        <time>2021-01-23T12:46:34Z</time>
      </trkpt>
      <trkpt lat="43.61357" lon="3.74331">
        <ele>121.3</ele>
        <time>2021-01-23T12:46:35Z</time>
      </trkpt>
      <trkpt lat="43.61356" lon="3.74329">
        <ele>121.4</ele>
        <time>2021-01-23T12:46:36Z</time>
      </trkpt>
      <trkpt lat="43.61354" lon="3.74327">
        <ele>121.5</ele>
        <time>2021-01-23T12:46:37Z</time>
      </trkpt>
      <trkpt lat="43.61353" lon="3.74324">
        <ele>121.6</ele>
        <time>2021-01-23T12:46:38Z</time>
      </trkpt>
      <trkpt lat="43.61352" lon="3.74322">
        <ele>121.7</ele>
        <time>2021-01-23T12:46:39Z</time>
      </trkpt>
      <trkpt lat="43.61351" lon="3.7432">
        <ele>123</ele>
        <time>2021-01-23T12:46:40Z</time>
      </trkpt>
      <trkpt lat="43.61349" lon="3.74318">
        <ele>121.9</ele>
        <time>2021-01-23T12:46:41Z</time>
      </trkpt>
      <trkpt lat="43.61348" lon="3.74317">
        <ele>121.9</ele>
        <time>2021-01-23T12:46:42Z</time>
      </trkpt>
      <trkpt lat="43.61346" lon="3.74315">
        <ele>122.1</ele>
        <time>2021-01-23T12:46:43Z</time>
      </trkpt>
      <trkpt lat="43.61344" lon="3.74313">
        <ele>122.2</ele>
        <time>2021-01-23T12:46:44Z</time>
      </trkpt>
      <trkpt lat="43.61342" lon="3.74312">
        <ele>122.4</ele>
        <time>2021-01-23T12:46:45Z</time>
      </trkpt>
      <trkpt lat="43.6134" lon="3.74311">
        <ele>122.5</ele>
        <time>2021-01-23T12:46:46Z</time>
      </trkpt>
      <trkpt lat="43.61339" lon="3.74309">
        <ele>122.6</ele>
        <time>2021-01-23T12:46:47Z</time>
      </trkpt>
      <trkpt lat="43.61337" lon="3.74308">
        <ele>122.7</ele>
        <time>2021-01-23T12:46:48Z</time>
      </trkpt>
      <trkpt lat="43.61335" lon="3.74307">
        <ele>122.9</ele>
        <time>2021-01-23T12:46:49Z</time>
      </trkpt>
      <trkpt lat="43.61333" lon="3.74306">
        <ele>124</ele>
        <time>2021-01-23T12:46:50Z</time>
      </trkpt>
      <trkpt lat="43.61331" lon="3.74304">
        <ele>123</ele>
        <time>2021-01-23T12:46:51Z</time>
      </trkpt>
      <trkpt lat="43.61329" lon="3.74303">
        <ele>123.1</ele>
        <time>2021-01-23T12:46:52Z</time>
      </trkpt>
      <trkpt lat="43.61327" lon="3.74302">
        <ele>123.1</ele>
        <time>2021-01-23T12:46:53Z</time>
      </trkpt>
      <trkpt lat="43.61325" lon="3.743">
        <ele>123.2</ele>
        <time>2021-01-23T12:46:54Z</time>
      </trkpt>
      <trkpt lat="43.61323" lon="3.74299">
        <ele>123.2</ele>
        <time>2021-01-23T12:46:55Z</time>
      </trkpt>
      <trkpt lat="43.61321" lon="3.74298">
        <ele>123.3</ele>
        <time>2021-01-23T12:46:56Z</time>
      </trkpt>
      <trkpt lat="43.61319" lon="3.74296">
        <ele>123.3</ele>
        <time>2021-01-23T12:46:57Z</time>
      </trkpt>
      <trkpt lat="43.61317" lon="3.74295">
        <ele>123.4</ele>
        <time>2021-01-23T12:46:58Z</time>
      </trkpt>
      <trkpt lat="43.61315" lon="3.74293">
        <ele>123.5</ele>
        <time>2021-01-23T12:46:59Z</time>
      </trkpt>
      <trkpt lat="43.61313" lon="3.74291">
        <ele>125</ele>
        <time>2021-01-23T12:47:00Z</time>
      </trkpt>
      <trkpt lat="43.61311" lon="3.7429">
        <ele>123.7</ele>
        <time>2021-01-23T12:47:01Z</time>
      </trkpt>
      <trkpt lat="43.61309" lon="3.74288">
        <ele>123.8</ele>
        <time>2021-01-23T12:47:02Z</time>
      </trkpt>
      <trkpt lat="43.61307" lon="3.74287">
        <ele>123.9</ele>
        <time>2021-01-23T12:47:03Z</time>
      </trkpt>
      <trkpt lat="43.61305" lon="3.74285">
        <ele>124</ele>
        <time>2021-01-23T12:47:04Z</time>
      </trkpt>
      <trkpt lat="43.61303" lon="3.74284">
        <ele>124.2</ele>
        <time>2021-01-23T12:47:05Z</time>
      </trkpt>
      <trkpt lat="43.613" lon="3.74283">
        <ele>124.4</ele>
        <time>2021-01-23T12:47:06Z</time>
      </trkpt>
      <trkpt lat="43.61298" lon="3.74282">
        <ele>124.5</ele>
        <time>2021-01-23T12:47:07Z</time>
      </trkpt>
      <trkpt lat="43.61296" lon="3.7428">
        <ele>124.7</ele>
        <time>2021-01-23T12:47:08Z</time>
      </trkpt>
      <trkpt lat="43.61294" lon="3.74279">
        <ele>124.8</ele>
        <time>2021-01-23T12:47:09Z</time>
      </trkpt>
      <trkpt lat="43.61292" lon="3.74277">
        <ele>126</ele>
        <time>2021-01-23T12:47:10Z</time>
      </trkpt>
      <trkpt lat="43.6129" lon="3.74276">
        <ele>125.1</ele>
        <time>2021-01-23T12:47:11Z</time>
      </trkpt>
      <trkpt lat="43.61289" lon="3.74274">
        <ele>125.2</ele>
        <time>2021-01-23T12:47:12Z</time>
      </trkpt>
      <trkpt lat="43.61287" lon="3.74273">
        <ele>125.3</ele>
        <time>2021-01-23T12:47:13Z</time>
      </trkpt>
      <trkpt lat="43.61285" lon="3.74271">
        <ele>125.5</ele>
        <time>2021-01-23T12:47:14Z</time>
      </trkpt>
      <trkpt lat="43.61283" lon="3.74269">
        <ele>125.6</ele>
        <time>2021-01-23T12:47:15Z</time>
      </trkpt>
      <trkpt lat="43.61281" lon="3.74268">
        <ele>125.8</ele>
        <time>2021-01-23T12:47:16Z</time>
      </trkpt>
      <trkpt lat="43.61279" lon="3.74267">
        <ele>125.9</ele>
        <time>2021-01-23T12:47:17Z</time>
      </trkpt>
      <trkpt lat="43.61277" lon="3.74265">
        <ele>126</ele>
        <time>2021-01-23T12:47:18Z</time>
      </trkpt>
      <trkpt lat="43.61275" lon="3.74263">
        <ele>126.1</ele>
        <time>2021-01-23T12:47:19Z</time>
      </trkpt>
      <trkpt lat="43.61274" lon="3.74262">
        <ele>127</ele>
        <time>2021-01-23T12:47:20Z</time>
      </trkpt>
      <trkpt lat="43.61272" lon="3.7426">
        <ele>126.2</ele>
        <time>2021-01-23T12:47:21Z</time>
      </trkpt>
      <trkpt lat="43.6127" lon="3.74258">
        <ele>126.3</ele>
        <time>2021-01-23T12:47:22Z</time>
      </trkpt>
      <trkpt lat="43.61268" lon="3.74257">
        <ele>126.4</ele>
        <time>2021-01-23T12:47:23Z</time>
      </trkpt>
      <trkpt lat="43.61266" lon="3.74255">
        <ele>126.4</ele>
        <time>2021-01-23T12:47:24Z</time>
      </trkpt>
      <trkpt lat="43.61264" lon="3.74254">
        <ele>126.5</ele>
        <time>2021-01-23T12:47:25Z</time>
      </trkpt>
      <trkpt lat="43.61262" lon="3.74252">
        <ele>126.6</ele>
        <time>2021-01-23T12:47:26Z</time>
      </trkpt>
      <trkpt lat="43.6126" lon="3.7425">
        <ele>126.6</ele>
        <time>2021-01-23T12:47:27Z</time>
      </trkpt>
      <trkpt lat="43.61258" lon="3.74248">
        <ele>126.6</ele>
        <time>2021-01-23T12:47:28Z</time>
      </trkpt>
      <trkpt lat="43.61256" lon="3.74247">
        <ele>126.7</ele>
        <time>2021-01-23T12:47:29Z</time>
      </trkpt>
      <trkpt lat="43.61254" lon="3.74245">
        <ele>128</ele>
        <time>2021-01-23T12:47:30Z</time>
      </trkpt>
      <trkpt lat="43.61252" lon="3.74243">
        <ele>126.7</ele>
        <time>2021-01-23T12:47:31Z</time>
      </trkpt>
      <trkpt lat="43.61251" lon="3.74241">
        <ele>126.6</ele>
        <time>2021-01-23T12:47:32Z</time>
      </trkpt>
      <trkpt lat="43.61249" lon="3.74239">
        <ele>126.7</ele>
        <time>2021-01-23T12:47:33Z</time>
      </trkpt>
      <trkpt lat="43.61247" lon="3.74237">
        <ele>126.7</ele>
        <time>2021-01-23T12:47:34Z</time>
      </trkpt>
      <trkpt lat="43.61246" lon="3.74236">
        <ele>126.8</ele>
        <time>2021-01-23T12:47:35Z</time>
      </trkpt>
      <trkpt lat="43.61244" lon="3.74234">
        <ele>126.9</ele>
        <time>2021-01-23T12:47:36Z</time>
      </trkpt>
      <trkpt lat="43.61241" lon="3.74232">
        <ele>127.1</ele>
        <time>2021-01-23T12:47:37Z</time>
      </trkpt>
      <trkpt lat="43.61239" lon="3.74231">
        <ele>127.3</ele>
        <time>2021-01-23T12:47:38Z</time>
      </trkpt>
      <trkpt lat="43.61237" lon="3.74229">
        <ele>127.4</ele>
        <time>2021-01-23T12:47:39Z</time>
      </trkpt>
      <trkpt lat="43.61235" lon="3.74227">
        <ele>129</ele>
        <time>2021-01-23T12:47:40Z</time>
      </trkpt>
      <trkpt lat="43.61233" lon="3.74225">
        <ele>127.8</ele>
        <time>2021-01-23T12:47:41Z</time>
      </trkpt>
      <trkpt lat="43.61231" lon="3.74224">
        <ele>128</ele>
        <time>2021-01-23T12:47:42Z</time>
      </trkpt>
      <trkpt lat="43.61229" lon="3.74222">
        <ele>128.3</ele>
        <time>2021-01-23T12:47:43Z</time>
      </trkpt>
      <trkpt lat="43.61227" lon="3.7422">
        <ele>128.4</ele>
        <time>2021-01-23T12:47:44Z</time>
      </trkpt>
      <trkpt lat="43.61225" lon="3.74218">
        <ele>128.6</ele>
        <time>2021-01-23T12:47:45Z</time>
      </trkpt>
      <trkpt lat="43.61223" lon="3.74217">
        <ele>128.7</ele>
        <time>2021-01-23T12:47:46Z</time>
      </trkpt>
      <trkpt lat="43.61222" lon="3.74215">
        <ele>128.8</ele>
        <time>2021-01-23T12:47:47Z</time>
      </trkpt>
      <trkpt lat="43.6122" lon="3.74214">
        <ele>128.9</ele>
        <time>2021-01-23T12:47:48Z</time>
      </trkpt>
      <trkpt lat="43.61218" lon="3.74212">
        <ele>129</ele>
        <time>2021-01-23T12:47:49Z</time>
      </trkpt>
      <trkpt lat="43.61216" lon="3.7421">
        <ele>130</ele>
        <time>2021-01-23T12:47:50Z</time>
      </trkpt>
      <trkpt lat="43.61214" lon="3.74208">
        <ele>129.2</ele>
        <time>2021-01-23T12:47:51Z</time>
      </trkpt>
      <trkpt lat="43.61212" lon="3.74207">
        <ele>129.4</ele>
        <time>2021-01-23T12:47:52Z</time>
      </trkpt>
      <trkpt lat="43.6121" lon="3.74205">
        <ele>129.5</ele>
        <time>2021-01-23T12:47:53Z</time>
      </trkpt>
      <trkpt lat="43.61208" lon="3.74203">
        <ele>129.7</ele>
        <time>2021-01-23T12:47:54Z</time>
      </trkpt>
      <trkpt lat="43.61206" lon="3.74202">
        <ele>129.9</ele>
        <time>2021-01-23T12:47:55Z</time>
      </trkpt>
      <trkpt lat="43.61204" lon="3.742">
        <ele>130</ele>
        <time>2021-01-23T12:47:56Z</time>
      </trkpt>
      <trkpt lat="43.61203" lon="3.74198">
        <ele>130.1</ele>
        <time>2021-01-23T12:47:57Z</time>
      </trkpt>
      <trkpt lat="43.61201" lon="3.74196">
        <ele>130.3</ele>
        <time>2021-01-23T12:47:58Z</time>
      </trkpt>
      <trkpt lat="43.61199" lon="3.74195">
        <ele>130.5</ele>
        <time>2021-01-23T12:47:59Z</time>
      </trkpt>
      <trkpt lat="43.61197" lon="3.74193">
        <ele>131</ele>
        <time>2021-01-23T12:48:00Z</time>
      </trkpt>
      <trkpt lat="43.61195" lon="3.74191">
        <ele>130.8</ele>
        <time>2021-01-23T12:48:01Z</time>
      </trkpt>
      <trkpt lat="43.61193" lon="3.74189">
        <ele>130.9</ele>
        <time>2021-01-23T12:48:02Z</time>
      </trkpt>
      <trkpt lat="43.61191" lon="3.74188">
        <ele>130.9</ele>
        <time>2021-01-23T12:48:03Z</time>
      </trkpt>
      <trkpt lat="43.61189" lon="3.74186">
        <ele>131</ele>
        <time>2021-01-23T12:48:04Z</time>
      </trkpt>
      <trkpt lat="43.61187" lon="3.74184">
        <ele>131.1</ele>
        <time>2021-01-23T12:48:05Z</time>
      </trkpt>
      <trkpt lat="43.61185" lon="3.74182">
        <ele>131.2</ele>
        <time>2021-01-23T12:48:06Z</time>
      </trkpt>
      <trkpt lat="43.61183" lon="3.74181">
        <ele>131.3</ele>
        <time>2021-01-23T12:48:07Z</time>
      </trkpt>
      <trkpt lat="43.61181" lon="3.74179">
        <ele>131.5</ele>
        <time>2021-01-23T12:48:08Z</time>
      </trkpt>
      <trkpt lat="43.6118" lon="3.74177">
        <ele>131.5</ele>
        <time>2021-01-23T12:48:09Z</time>
      </trkpt>
      <trkpt lat="43.61178" lon="3.74175">
        <ele>133</ele>
        <time>2021-01-23T12:48:10Z</time>
      </trkpt>
      <trkpt lat="43.61176" lon="3.74172">
        <ele>131.9</ele>
        <time>2021-01-23T12:48:11Z</time>
      </trkpt>
      <trkpt lat="43.61174" lon="3.7417">
        <ele>132.2</ele>
        <time>2021-01-23T12:48:12Z</time>
      </trkpt>
      <trkpt lat="43.61173" lon="3.74168">
        <ele>132.3</ele>
        <time>2021-01-23T12:48:13Z</time>
      </trkpt>
      <trkpt lat="43.61171" lon="3.74165">
        <ele>132.5</ele>
        <time>2021-01-23T12:48:14Z</time>
      </trkpt>
      <trkpt lat="43.6117" lon="3.74162">
        <ele>132.6</ele>
        <time>2021-01-23T12:48:15Z</time>
      </trkpt>
      <trkpt lat="43.61169" lon="3.74159">
        <ele>132.7</ele>
        <time>2021-01-23T12:48:16Z</time>
      </trkpt>
      <trkpt lat="43.61167" lon="3.74156">
        <ele>133</ele>
        <time>2021-01-23T12:48:17Z</time>
      </trkpt>
      <trkpt lat="43.61166" lon="3.74154">
        <ele>133</ele>
        <time>2021-01-23T12:48:18Z</time>
      </trkpt>
      <trkpt lat="43.61165" lon="3.74151">
        <ele>133.1</ele>
        <time>2021-01-23T12:48:19Z</time>
      </trkpt>
      <trkpt lat="43.61164" lon="3.74148">
        <ele>134</ele>
        <time>2021-01-23T12:48:20Z</time>
      </trkpt>
      <trkpt lat="43.61163" lon="3.74145">
        <ele>133.3</ele>
        <time>2021-01-23T12:48:21Z</time>
      </trkpt>
      <trkpt lat="43.61162" lon="3.74142">
        <ele>133.3</ele>
        <time>2021-01-23T12:48:22Z</time>
      </trkpt>
      <trkpt lat="43.61161" lon="3.74138">
        <ele>133.4</ele>
        <time>2021-01-23T12:48:23Z</time>
      </trkpt>
      <trkpt lat="43.6116" lon="3.74135">
        <ele>133.4</ele>
        <time>2021-01-23T12:48:24Z</time>
      </trkpt>
      <trkpt lat="43.61159" lon="3.74132">
        <ele>133.4</ele>
        <time>2021-01-23T12:48:25Z</time>
      </trkpt>
      <trkpt lat="43.61158" lon="3.74129">
        <ele>133.4</ele>
        <time>2021-01-23T12:48:26Z</time>
      </trkpt>
      <trkpt lat="43.61157" lon="3.74126">
        <ele>133.4</ele>
        <time>2021-01-23T12:48:27Z</time>
      </trkpt>
      <trkpt lat="43.61155" lon="3.74123">
        <ele>133.5</ele>
        <time>2021-01-23T12:48:28Z</time>
      </trkpt>
      <trkpt lat="43.61154" lon="3.74121">
        <ele>133.6</ele>
        <time>2021-01-23T12:48:29Z</time>
      </trkpt>
      <trkpt lat="43.61153" lon="3.74118">
        <ele>135</ele>
        <time>2021-01-23T12:48:30Z</time>
      </trkpt>
      <trkpt lat="43.61151" lon="3.74114">
        <ele>133.7</ele>
        <time>2021-01-23T12:48:31Z</time>
      </trkpt>
      <trkpt lat="43.6115" lon="3.74111">
        <ele>133.8</ele>
        <time>2021-01-23T12:48:32Z</time>
      </trkpt>
      <trkpt lat="43.61148" lon="3.74108">
        <ele>133.9</ele>
        <time>2021-01-23T12:48:33Z</time>
      </trkpt>
      <trkpt lat="43.61147" lon="3.74105">
        <ele>134</ele>
        <time>2021-01-23T12:48:34Z</time>
      </trkpt>
      <trkpt lat="43.61145" lon="3.74102">
        <ele>134.1</ele>
        <time>2021-01-23T12:48:35Z</time>
      </trkpt>
      <trkpt lat="43.61144" lon="3.74098">
        <ele>134.1</ele>
        <time>2021-01-23T12:48:36Z</time>
      </trkpt>
      <trkpt lat="43.61143" lon="3.74095">
        <ele>134.1</ele>
        <time>2021-01-23T12:48:37Z</time>
      </trkpt>
      <trkpt lat="43.61141" lon="3.74092">
        <ele>134.1</ele>
        <time>2021-01-23T12:48:38Z</time>
      </trkpt>
      <trkpt lat="43.6114" lon="3.74089">
        <ele>134.1</ele>
        <time>2021-01-23T12:48:39Z</time>
      </trkpt>
      <trkpt lat="43.61138" lon="3.74085">
        <ele>136</ele>
        <time>2021-01-23T12:48:40Z</time>
      </trkpt>
      <trkpt lat="43.61137" lon="3.74082">
        <ele>134.1</ele>
        <time>2021-01-23T12:48:41Z</time>
      </trkpt>
      <trkpt lat="43.61136" lon="3.74079">
        <ele>134.1</ele>
        <time>2021-01-23T12:48:42Z</time>
      </trkpt>
      <trkpt lat="43.61134" lon="3.74076">
        <ele>134.1</ele>
        <time>2021-01-23T12:48:43Z</time>
      </trkpt>
      <trkpt lat="43.61133" lon="3.74072">
        <ele>134.1</ele>
        <time>2021-01-23T12:48:44Z</time>
      </trkpt>
      <trkpt lat="43.61131" lon="3.74069">
        <ele>134.2</ele>
        <time>2021-01-23T12:48:45Z</time>
      </trkpt>
      <trkpt lat="43.6113" lon="3.74065">
        <ele>134.2</ele>
        <time>2021-01-23T12:48:46Z</time>
      </trkpt>
      <trkpt lat="43.61129" lon="3.74062">
        <ele>134.2</ele>
        <time>2021-01-23T12:48:47Z</time>
      </trkpt>
      <trkpt lat="43.61127" lon="3.74059">
        <ele>134.4</ele>
        <time>2021-01-23T12:48:48Z</time>
      </trkpt>
      <trkpt lat="43.61126" lon="3.74055">
        <ele>134.4</ele>
        <time>2021-01-23T12:48:49Z</time>
      </trkpt>
      <trkpt lat="43.61124" lon="3.74052">
        <ele>137</ele>
        <time>2021-01-23T12:48:50Z</time>
      </trkpt>
      <trkpt lat="43.61123" lon="3.74049">
        <ele>134.7</ele>
        <time>2021-01-23T12:48:51Z</time>
      </trkpt>
      <trkpt lat="43.61121" lon="3.74046">
        <ele>134.9</ele>
        <time>2021-01-23T12:48:52Z</time>
      </trkpt>
      <trkpt lat="43.6112" lon="3.74043">
        <ele>135</ele>
        <time>2021-01-23T12:48:53Z</time>
      </trkpt>
      <trkpt lat="43.61119" lon="3.7404">
        <ele>135.1</ele>
        <time>2021-01-23T12:48:54Z</time>
      </trkpt>
      <trkpt lat="43.61117" lon="3.74037">
        <ele>135.4</ele>
        <time>2021-01-23T12:48:55Z</time>
      </trkpt>
      <trkpt lat="43.61116" lon="3.74033">
        <ele>135.5</ele>
        <time>2021-01-23T12:48:56Z</time>
      </trkpt>
      <trkpt lat="43.61115" lon="3.7403">
        <ele>135.6</ele>
        <time>2021-01-23T12:48:57Z</time>
      </trkpt>
      <trkpt lat="43.61114" lon="3.74027">
        <ele>135.7</ele>
        <time>2021-01-23T12:48:58Z</time>
      </trkpt>
      <trkpt lat="43.61113" lon="3.74024">
        <ele>135.7</ele>
        <time>2021-01-23T12:48:59Z</time>
      </trkpt>
      <trkpt lat="43.61111" lon="3.74021">
        <ele>138</ele>
        <time>2021-01-23T12:49:00Z</time>
      </trkpt>
      <trkpt lat="43.6111" lon="3.74018">
        <ele>135.7</ele>
        <time>2021-01-23T12:49:01Z</time>
      </trkpt>
      <trkpt lat="43.61109" lon="3.74015">
        <ele>135.7</ele>
        <time>2021-01-23T12:49:02Z</time>
      </trkpt>
      <trkpt lat="43.61107" lon="3.74012">
        <ele>135.8</ele>
        <time>2021-01-23T12:49:03Z</time>
      </trkpt>
      <trkpt lat="43.61106" lon="3.74008">
        <ele>135.8</ele>
        <time>2021-01-23T12:49:04Z</time>
      </trkpt>
      <trkpt lat="43.61105" lon="3.74005">
        <ele>135.8</ele>
        <time>2021-01-23T12:49:05Z</time>
      </trkpt>
      <trkpt lat="43.61103" lon="3.74002">
        <ele>135.9</ele>
        <time>2021-01-23T12:49:06Z</time>
      </trkpt>
      <trkpt lat="43.61102" lon="3.73999">
        <ele>136</ele>
        <time>2021-01-23T12:49:07Z</time>
      </trkpt>
      <trkpt lat="43.61101" lon="3.73995">
        <ele>136.1</ele>
        <time>2021-01-23T12:49:08Z</time>
      </trkpt>
      <trkpt lat="43.61099" lon="3.73992">
        <ele>136.3</ele>
        <time>2021-01-23T12:49:09Z</time>
      </trkpt>
      <trkpt lat="43.61098" lon="3.73989">
        <ele>139</ele>
        <time>2021-01-23T12:49:10Z</time>
      </trkpt>
      <trkpt lat="43.61097" lon="3.73986">
        <ele>136.5</ele>
        <time>2021-01-23T12:49:11Z</time>
      </trkpt>
      <trkpt lat="43.61095" lon="3.73983">
        <ele>136.7</ele>
        <time>2021-01-23T12:49:12Z</time>
      </trkpt>
      <trkpt lat="43.61094" lon="3.7398">
        <ele>136.8</ele>
        <time>2021-01-23T12:49:13Z</time>
      </trkpt>
      <trkpt lat="43.61092" lon="3.73977">
        <ele>137.1</ele>
        <time>2021-01-23T12:49:14Z</time>
      </trkpt>
      <trkpt lat="43.61091" lon="3.73974">
        <ele>137.2</ele>
        <time>2021-01-23T12:49:15Z</time>
      </trkpt>
      <trkpt lat="43.6109" lon="3.73972">
        <ele>137.3</ele>
        <time>2021-01-23T12:49:16Z</time>
      </trkpt>
      <trkpt lat="43.61088" lon="3.73969">
        <ele>137.6</ele>
        <time>2021-01-23T12:49:17Z</time>
      </trkpt>
      <trkpt lat="43.61087" lon="3.73966">
        <ele>137.8</ele>
        <time>2021-01-23T12:49:18Z</time>
      </trkpt>
      <trkpt lat="43.61085" lon="3.73963">
        <ele>138.2</ele>
        <time>2021-01-23T12:49:19Z</time>
      </trkpt>
      <trkpt lat="43.61084" lon="3.73961">
        <ele>140</ele>
        <time>2021-01-23T12:49:20Z</time>
      </trkpt>
      <trkpt lat="43.61082" lon="3.73958">
        <ele>138.5</ele>
        <time>2021-01-23T12:49:21Z</time>
      </trkpt>
      <trkpt lat="43.61081" lon="3.73955">
        <ele>138.6</ele>
        <time>2021-01-23T12:49:22Z</time>
      </trkpt>
      <trkpt lat="43.6108" lon="3.73952">
        <ele>138.7</ele>
        <time>2021-01-23T12:49:23Z</time>
      </trkpt>
      <trkpt lat="43.61079" lon="3.73949">
        <ele>138.8</ele>
        <time>2021-01-23T12:49:24Z</time>
      </trkpt>
      <trkpt lat="43.61078" lon="3.73946">
        <ele>138.9</ele>
        <time>2021-01-23T12:49:25Z</time>
      </trkpt>
      <trkpt lat="43.61077" lon="3.73943">
        <ele>139</ele>
        <time>2021-01-23T12:49:26Z</time>
      </trkpt>
      <trkpt lat="43.61076" lon="3.73941">
        <ele>139.1</ele>
        <time>2021-01-23T12:49:27Z</time>
      </trkpt>
      <trkpt lat="43.61076" lon="3.73938">
        <ele>139.2</ele>
        <time>2021-01-23T12:49:28Z</time>
      </trkpt>
      <trkpt lat="43.61075" lon="3.73935">
        <ele>139.2</ele>
        <time>2021-01-23T12:49:29Z</time>
      </trkpt>
      <trkpt lat="43.61075" lon="3.73932">
        <ele>141</ele>
        <time>2021-01-23T12:49:30Z</time>
      </trkpt>
      <trkpt lat="43.61073" lon="3.73926">
        <ele>139.4</ele>
        <time>2021-01-23T12:49:31Z</time>
      </trkpt>
      <trkpt lat="43.61072" lon="3.73922">
        <ele>139.5</ele>
        <time>2021-01-23T12:49:32Z</time>
      </trkpt>
      <trkpt lat="43.61071" lon="3.73919">
        <ele>139.5</ele>
        <time>2021-01-23T12:49:33Z</time>
      </trkpt>
      <trkpt lat="43.6107" lon="3.73916">
        <ele>139.6</ele>
        <time>2021-01-23T12:49:34Z</time>
      </trkpt>
      <trkpt lat="43.61069" lon="3.73913">
        <ele>139.7</ele>
        <time>2021-01-23T12:49:35Z</time>
      </trkpt>
      <trkpt lat="43.61068" lon="3.73909">
        <ele>139.9</ele>
        <time>2021-01-23T12:49:36Z</time>
      </trkpt>
      <trkpt lat="43.61067" lon="3.73906">
        <ele>140</ele>
        <time>2021-01-23T12:49:37Z</time>
      </trkpt>
      <trkpt lat="43.61066" lon="3.73903">
        <ele>140.2</ele>
        <time>2021-01-23T12:49:38Z</time>
      </trkpt>
      <trkpt lat="43.61065" lon="3.739">
        <ele>140.3</ele>
        <time>2021-01-23T12:49:39Z</time>
      </trkpt>
      <trkpt lat="43.61064" lon="3.73897">
        <ele>140.5</ele>
        <time>2021-01-23T12:49:41Z</time>
      </trkpt>
      <trkpt lat="43.61063" lon="3.73894">
        <ele>140.7</ele>
        <time>2021-01-23T12:49:42Z</time>
      </trkpt>
      <trkpt lat="43.61062" lon="3.73891">
        <ele>140.9</ele>
        <time>2021-01-23T12:49:43Z</time>
      </trkpt>
      <trkpt lat="43.61063" lon="3.73887">
        <ele>141.2</ele>
        <time>2021-01-23T12:49:44Z</time>
      </trkpt>
      <trkpt lat="43.61064" lon="3.73885">
        <ele>141.3</ele>
        <time>2021-01-23T12:49:45Z</time>
      </trkpt>
      <trkpt lat="43.61065" lon="3.73883">
        <ele>141.5</ele>
        <time>2021-01-23T12:49:46Z</time>
      </trkpt>
      <trkpt lat="43.61067" lon="3.73881">
        <ele>141.7</ele>
        <time>2021-01-23T12:49:47Z</time>
      </trkpt>
      <trkpt lat="43.61068" lon="3.73879">
        <ele>141.9</ele>
        <time>2021-01-23T12:49:48Z</time>
      </trkpt>
      <trkpt lat="43.6107" lon="3.73877">
        <ele>142.1</ele>
        <time>2021-01-23T12:49:49Z</time>
      </trkpt>
      <trkpt lat="43.61071" lon="3.73875">
        <ele>144</ele>
        <time>2021-01-23T12:49:50Z</time>
      </trkpt>
      <trkpt lat="43.61072" lon="3.73873">
        <ele>142.5</ele>
        <time>2021-01-23T12:49:51Z</time>
      </trkpt>
      <trkpt lat="43.61073" lon="3.73871">
        <ele>142.7</ele>
        <time>2021-01-23T12:49:52Z</time>
      </trkpt>
      <trkpt lat="43.61075" lon="3.73867">
        <ele>143.1</ele>
        <time>2021-01-23T12:49:54Z</time>
      </trkpt>
      <trkpt lat="43.61077" lon="3.73863">
        <ele>143.6</ele>
        <time>2021-01-23T12:49:56Z</time>
      </trkpt>
      <trkpt lat="43.61079" lon="3.7386">
        <ele>143.9</ele>
        <time>2021-01-23T12:49:58Z</time>
      </trkpt>
      <trkpt lat="43.6108" lon="3.73856">
        <ele>146</ele>
        <time>2021-01-23T12:50:00Z</time>
      </trkpt>
      <trkpt lat="43.61082" lon="3.73853">
        <ele>144.5</ele>
        <time>2021-01-23T12:50:02Z</time>
      </trkpt>
      <trkpt lat="43.61083" lon="3.73849">
        <ele>144.9</ele>
        <time>2021-01-23T12:50:04Z</time>
      </trkpt>
      <trkpt lat="43.61084" lon="3.73845">
        <ele>145.2</ele>
        <time>2021-01-23T12:50:06Z</time>
      </trkpt>
      <trkpt lat="43.61086" lon="3.73842">
        <ele>145.6</ele>
        <time>2021-01-23T12:50:08Z</time>
      </trkpt>
      <trkpt lat="43.61087" lon="3.73838">
        <ele>147</ele>
        <time>2021-01-23T12:50:10Z</time>
      </trkpt>
      <trkpt lat="43.61088" lon="3.73834">
        <ele>146.5</ele>
        <time>2021-01-23T12:50:11Z</time>
      </trkpt>
      <trkpt lat="43.61089" lon="3.73831">
        <ele>146.8</ele>
        <time>2021-01-23T12:50:13Z</time>
      </trkpt>
      <trkpt lat="43.6109" lon="3.73827">
        <ele>147.3</ele>
        <time>2021-01-23T12:50:15Z</time>
      </trkpt>
      <trkpt lat="43.61091" lon="3.73823">
        <ele>147.8</ele>
        <time>2021-01-23T12:50:17Z</time>
      </trkpt>
      <trkpt lat="43.61092" lon="3.73819">
        <ele>148.3</ele>
        <time>2021-01-23T12:50:19Z</time>
      </trkpt>
      <trkpt lat="43.61093" lon="3.73815">
        <ele>148.8</ele>
        <time>2021-01-23T12:50:22Z</time>
      </trkpt>
      <trkpt lat="43.61094" lon="3.73812">
        <ele>149.2</ele>
        <time>2021-01-23T12:50:24Z</time>
      </trkpt>
      <trkpt lat="43.61096" lon="3.73808">
        <ele>149.7</ele>
        <time>2021-01-23T12:50:26Z</time>
      </trkpt>
      <trkpt lat="43.61097" lon="3.73804">
        <ele>150.1</ele>
        <time>2021-01-23T12:50:28Z</time>
      </trkpt>
      <trkpt lat="43.61098" lon="3.738">
        <ele>151</ele>
        <time>2021-01-23T12:50:30Z</time>
      </trkpt>
      <trkpt lat="43.611" lon="3.73796">
        <ele>151</ele>
        <time>2021-01-23T12:50:32Z</time>
      </trkpt>
      <trkpt lat="43.61101" lon="3.73792">
        <ele>151.3</ele>
        <time>2021-01-23T12:50:34Z</time>
      </trkpt>
      <trkpt lat="43.61102" lon="3.73788">
        <ele>151.6</ele>
        <time>2021-01-23T12:50:36Z</time>
      </trkpt>
      <trkpt lat="43.61103" lon="3.73783">
        <ele>151.9</ele>
        <time>2021-01-23T12:50:38Z</time>
      </trkpt>
      <trkpt lat="43.61104" lon="3.73781">
        <ele>152.1</ele>
        <time>2021-01-23T12:50:39Z</time>
      </trkpt>
      <trkpt lat="43.61105" lon="3.73778">
        <ele>153</ele>
        <time>2021-01-23T12:50:40Z</time>
      </trkpt>
      <trkpt lat="43.61106" lon="3.73776">
        <ele>152.3</ele>
        <time>2021-01-23T12:50:41Z</time>
      </trkpt>
      <trkpt lat="43.61107" lon="3.73774">
        <ele>152.4</ele>
        <time>2021-01-23T12:50:42Z</time>
      </trkpt>
      <trkpt lat="43.61108" lon="3.73771">
        <ele>152.6</ele>
        <time>2021-01-23T12:50:43Z</time>
      </trkpt>
      <trkpt lat="43.61109" lon="3.73769">
        <ele>152.7</ele>
        <time>2021-01-23T12:50:44Z</time>
      </trkpt>
      <trkpt lat="43.61111" lon="3.73767">
        <ele>152.8</ele>
        <time>2021-01-23T12:50:45Z</time>
      </trkpt>
      <trkpt lat="43.61112" lon="3.73765">
        <ele>152.8</ele>
        <time>2021-01-23T12:50:46Z</time>
      </trkpt>
      <trkpt lat="43.61114" lon="3.73764">
        <ele>152.7</ele>
        <time>2021-01-23T12:50:47Z</time>
      </trkpt>
      <trkpt lat="43.61116" lon="3.73762">
        <ele>152.7</ele>
        <time>2021-01-23T12:50:48Z</time>
      </trkpt>
      <trkpt lat="43.61117" lon="3.7376">
        <ele>152.7</ele>
        <time>2021-01-23T12:50:49Z</time>
      </trkpt>
      <trkpt lat="43.61119" lon="3.73758">
        <ele>153</ele>
        <time>2021-01-23T12:50:50Z</time>
      </trkpt>
      <trkpt lat="43.61121" lon="3.73757">
        <ele>152.5</ele>
        <time>2021-01-23T12:50:51Z</time>
      </trkpt>
      <trkpt lat="43.61123" lon="3.73755">
        <ele>152.4</ele>
        <time>2021-01-23T12:50:52Z</time>
      </trkpt>
      <trkpt lat="43.61125" lon="3.73753">
        <ele>152.3</ele>
        <time>2021-01-23T12:50:53Z</time>
      </trkpt>
      <trkpt lat="43.61126" lon="3.73752">
        <ele>152.3</ele>
        <time>2021-01-23T12:50:54Z</time>
      </trkpt>
      <trkpt lat="43.61128" lon="3.7375">
        <ele>152.2</ele>
        <time>2021-01-23T12:50:55Z</time>
      </trkpt>
      <trkpt lat="43.6113" lon="3.73749">
        <ele>152.1</ele>
        <time>2021-01-23T12:50:56Z</time>
      </trkpt>
      <trkpt lat="43.61132" lon="3.73747">
        <ele>152</ele>
        <time>2021-01-23T12:50:57Z</time>
      </trkpt>
      <trkpt lat="43.61134" lon="3.73745">
        <ele>152</ele>
        <time>2021-01-23T12:50:58Z</time>
      </trkpt>
      <trkpt lat="43.61136" lon="3.73743">
        <ele>152</ele>
        <time>2021-01-23T12:50:59Z</time>
      </trkpt>
      <trkpt lat="43.61139" lon="3.73741">
        <ele>153</ele>
        <time>2021-01-23T12:51:00Z</time>
      </trkpt>
      <trkpt lat="43.61141" lon="3.73739">
        <ele>152</ele>
        <time>2021-01-23T12:51:01Z</time>
      </trkpt>
      <trkpt lat="43.61143" lon="3.73736">
        <ele>152.1</ele>
        <time>2021-01-23T12:51:02Z</time>
      </trkpt>
      <trkpt lat="43.61145" lon="3.73734">
        <ele>152.1</ele>
        <time>2021-01-23T12:51:03Z</time>
      </trkpt>
      <trkpt lat="43.61147" lon="3.73731">
        <ele>152.2</ele>
        <time>2021-01-23T12:51:04Z</time>
      </trkpt>
      <trkpt lat="43.61149" lon="3.73728">
        <ele>152.3</ele>
        <time>2021-01-23T12:51:05Z</time>
      </trkpt>
      <trkpt lat="43.61152" lon="3.73726">
        <ele>152.2</ele>
        <time>2021-01-23T12:51:06Z</time>
      </trkpt>
      <trkpt lat="43.61154" lon="3.73723">
        <ele>152.3</ele>
        <time>2021-01-23T12:51:07Z</time>
      </trkpt>
      <trkpt lat="43.61156" lon="3.7372">
        <ele>152.4</ele>
        <time>2021-01-23T12:51:08Z</time>
      </trkpt>
      <trkpt lat="43.61158" lon="3.73717">
        <ele>152.5</ele>
        <time>2021-01-23T12:51:09Z</time>
      </trkpt>
      <trkpt lat="43.6116" lon="3.73714">
        <ele>154</ele>
        <time>2021-01-23T12:51:10Z</time>
      </trkpt>
      <trkpt lat="43.61162" lon="3.73712">
        <ele>152.6</ele>
        <time>2021-01-23T12:51:11Z</time>
      </trkpt>
      <trkpt lat="43.61163" lon="3.7371">
        <ele>152.7</ele>
        <time>2021-01-23T12:51:12Z</time>
      </trkpt>
      <trkpt lat="43.61165" lon="3.73707">
        <ele>152.8</ele>
        <time>2021-01-23T12:51:13Z</time>
      </trkpt>
      <trkpt lat="43.61167" lon="3.73705">
        <ele>152.8</ele>
        <time>2021-01-23T12:51:14Z</time>
      </trkpt>
      <trkpt lat="43.61168" lon="3.73703">
        <ele>153</ele>
        <time>2021-01-23T12:51:15Z</time>
      </trkpt>
      <trkpt lat="43.6117" lon="3.737">
        <ele>153.1</ele>
        <time>2021-01-23T12:51:16Z</time>
      </trkpt>
      <trkpt lat="43.61171" lon="3.73698">
        <ele>153.3</ele>
        <time>2021-01-23T12:51:17Z</time>
      </trkpt>
      <trkpt lat="43.61172" lon="3.73695">
        <ele>153.6</ele>
        <time>2021-01-23T12:51:18Z</time>
      </trkpt>
      <trkpt lat="43.61173" lon="3.73693">
        <ele>153.6</ele>
        <time>2021-01-23T12:51:19Z</time>
      </trkpt>
      <trkpt lat="43.61174" lon="3.7369">
        <ele>154</ele>
        <time>2021-01-23T12:51:20Z</time>
      </trkpt>
      <trkpt lat="43.61175" lon="3.73688">
        <ele>153.6</ele>
        <time>2021-01-23T12:51:21Z</time>
      </trkpt>
      <trkpt lat="43.61175" lon="3.73683">
        <ele>153.8</ele>
        <time>2021-01-23T12:51:23Z</time>
      </trkpt>
      <trkpt lat="43.61174" lon="3.73679">
        <ele>154</ele>
        <time>2021-01-23T12:51:25Z</time>
      </trkpt>
      <trkpt lat="43.61173" lon="3.73675">
        <ele>154.2</ele>
        <time>2021-01-23T12:51:27Z</time>
      </trkpt>
      <trkpt lat="43.61172" lon="3.73673">
        <ele>154.4</ele>
        <time>2021-01-23T12:51:28Z</time>
      </trkpt>
      <trkpt lat="43.61171" lon="3.7367">
        <ele>154.6</ele>
        <time>2021-01-23T12:51:29Z</time>
      </trkpt>
      <trkpt lat="43.6117" lon="3.73668">
        <ele>156</ele>
        <time>2021-01-23T12:51:30Z</time>
      </trkpt>
      <trkpt lat="43.61169" lon="3.73666">
        <ele>154.8</ele>
        <time>2021-01-23T12:51:31Z</time>
      </trkpt>
      <trkpt lat="43.61168" lon="3.73663">
        <ele>154.8</ele>
        <time>2021-01-23T12:51:32Z</time>
      </trkpt>
      <trkpt lat="43.61167" lon="3.73661">
        <ele>154.8</ele>
        <time>2021-01-23T12:51:33Z</time>
      </trkpt>
      <trkpt lat="43.61166" lon="3.73659">
        <ele>154.8</ele>
        <time>2021-01-23T12:51:34Z</time>
      </trkpt>
      <trkpt lat="43.61165" lon="3.73657">
        <ele>154.8</ele>
        <time>2021-01-23T12:51:35Z</time>
      </trkpt>
      <trkpt lat="43.61164" lon="3.73655">
        <ele>154.8</ele>
        <time>2021-01-23T12:51:36Z</time>
      </trkpt>
      <trkpt lat="43.61162" lon="3.73653">
        <ele>154.8</ele>
        <time>2021-01-23T12:51:37Z</time>
      </trkpt>
      <trkpt lat="43.61161" lon="3.73651">
        <ele>154.8</ele>
        <time>2021-01-23T12:51:38Z</time>
      </trkpt>
      <trkpt lat="43.61159" lon="3.73649">
        <ele>154.9</ele>
        <time>2021-01-23T12:51:39Z</time>
      </trkpt>
      <trkpt lat="43.61157" lon="3.73647">
        <ele>157</ele>
        <time>2021-01-23T12:51:40Z</time>
      </trkpt>
      <trkpt lat="43.61154" lon="3.73646">
        <ele>155.2</ele>
        <time>2021-01-23T12:51:41Z</time>
      </trkpt>
      <trkpt lat="43.61152" lon="3.73644">
        <ele>155.2</ele>
        <time>2021-01-23T12:51:42Z</time>
      </trkpt>
      <trkpt lat="43.6115" lon="3.73643">
        <ele>155.3</ele>
        <time>2021-01-23T12:51:43Z</time>
      </trkpt>
      <trkpt lat="43.61147" lon="3.73641">
        <ele>155.5</ele>
        <time>2021-01-23T12:51:44Z</time>
      </trkpt>
      <trkpt lat="43.61145" lon="3.73639">
        <ele>155.6</ele>
        <time>2021-01-23T12:51:45Z</time>
      </trkpt>
      <trkpt lat="43.61143" lon="3.73638">
        <ele>155.7</ele>
        <time>2021-01-23T12:51:46Z</time>
      </trkpt>
      <trkpt lat="43.61141" lon="3.73636">
        <ele>155.7</ele>
        <time>2021-01-23T12:51:47Z</time>
      </trkpt>
      <trkpt lat="43.61138" lon="3.73634">
        <ele>155.8</ele>
        <time>2021-01-23T12:51:48Z</time>
      </trkpt>
      <trkpt lat="43.61136" lon="3.73633">
        <ele>155.8</ele>
        <time>2021-01-23T12:51:49Z</time>
      </trkpt>
      <trkpt lat="43.61134" lon="3.73631">
        <ele>158</ele>
        <time>2021-01-23T12:51:50Z</time>
      </trkpt>
      <trkpt lat="43.61132" lon="3.73629">
        <ele>155.7</ele>
        <time>2021-01-23T12:51:51Z</time>
      </trkpt>
      <trkpt lat="43.6113" lon="3.73627">
        <ele>155.7</ele>
        <time>2021-01-23T12:51:52Z</time>
      </trkpt>
      <trkpt lat="43.61128" lon="3.73625">
        <ele>155.7</ele>
        <time>2021-01-23T12:51:53Z</time>
      </trkpt>
      <trkpt lat="43.61126" lon="3.73622">
        <ele>155.7</ele>
        <time>2021-01-23T12:51:54Z</time>
      </trkpt>
      <trkpt lat="43.61124" lon="3.7362">
        <ele>155.7</ele>
        <time>2021-01-23T12:51:55Z</time>
      </trkpt>
      <trkpt lat="43.61122" lon="3.73618">
        <ele>155.7</ele>
        <time>2021-01-23T12:51:56Z</time>
      </trkpt>
      <trkpt lat="43.6112" lon="3.73616">
        <ele>155.7</ele>
        <time>2021-01-23T12:51:57Z</time>
      </trkpt>
      <trkpt lat="43.61118" lon="3.73614">
        <ele>155.8</ele>
        <time>2021-01-23T12:51:58Z</time>
      </trkpt>
      <trkpt lat="43.61116" lon="3.73611">
        <ele>155.8</ele>
        <time>2021-01-23T12:51:59Z</time>
      </trkpt>
      <trkpt lat="43.61114" lon="3.73609">
        <ele>158</ele>
        <time>2021-01-23T12:52:00Z</time>
      </trkpt>
      <trkpt lat="43.61113" lon="3.73607">
        <ele>155.8</ele>
        <time>2021-01-23T12:52:01Z</time>
      </trkpt>
      <trkpt lat="43.61113" lon="3.73605">
        <ele>155.7</ele>
        <time>2021-01-23T12:52:02Z</time>
      </trkpt>
      <trkpt lat="43.61114" lon="3.73602">
        <ele>155.6</ele>
        <time>2021-01-23T12:52:03Z</time>
      </trkpt>
      <trkpt lat="43.61116" lon="3.736">
        <ele>155.5</ele>
        <time>2021-01-23T12:52:04Z</time>
      </trkpt>
      <trkpt lat="43.61118" lon="3.73597">
        <ele>155.4</ele>
        <time>2021-01-23T12:52:05Z</time>
      </trkpt>
      <trkpt lat="43.61119" lon="3.73594">
        <ele>155.3</ele>
        <time>2021-01-23T12:52:06Z</time>
      </trkpt>
      <trkpt lat="43.61121" lon="3.7359">
        <ele>155.2</ele>
        <time>2021-01-23T12:52:07Z</time>
      </trkpt>
      <trkpt lat="43.61122" lon="3.73587">
        <ele>155.1</ele>
        <time>2021-01-23T12:52:08Z</time>
      </trkpt>
      <trkpt lat="43.61124" lon="3.73583">
        <ele>155</ele>
        <time>2021-01-23T12:52:09Z</time>
      </trkpt>
      <trkpt lat="43.61126" lon="3.7358">
        <ele>158</ele>
        <time>2021-01-23T12:52:10Z</time>
      </trkpt>
      <trkpt lat="43.61128" lon="3.73577">
        <ele>154.9</ele>
        <time>2021-01-23T12:52:11Z</time>
      </trkpt>
      <trkpt lat="43.6113" lon="3.73574">
        <ele>154.8</ele>
        <time>2021-01-23T12:52:12Z</time>
      </trkpt>
      <trkpt lat="43.61131" lon="3.73571">
        <ele>154.7</ele>
        <time>2021-01-23T12:52:13Z</time>
      </trkpt>
      <trkpt lat="43.61133" lon="3.73568">
        <ele>154.6</ele>
        <time>2021-01-23T12:52:14Z</time>
      </trkpt>
      <trkpt lat="43.61134" lon="3.73566">
        <ele>154.5</ele>
        <time>2021-01-23T12:52:15Z</time>
      </trkpt>
      <trkpt lat="43.61136" lon="3.73563">
        <ele>154.3</ele>
        <time>2021-01-23T12:52:16Z</time>
      </trkpt>
      <trkpt lat="43.61138" lon="3.7356">
        <ele>154.2</ele>
        <time>2021-01-23T12:52:17Z</time>
      </trkpt>
      <trkpt lat="43.6114" lon="3.73556">
        <ele>154</ele>
        <time>2021-01-23T12:52:18Z</time>
      </trkpt>
      <trkpt lat="43.61143" lon="3.73552">
        <ele>153.7</ele>
        <time>2021-01-23T12:52:19Z</time>
      </trkpt>
      <trkpt lat="43.61146" lon="3.73548">
        <ele>157</ele>
        <time>2021-01-23T12:52:20Z</time>
      </trkpt>
      <trkpt lat="43.61148" lon="3.73542">
        <ele>153</ele>
        <time>2021-01-23T12:52:21Z</time>
      </trkpt>
      <trkpt lat="43.6115" lon="3.73537">
        <ele>152.7</ele>
        <time>2021-01-23T12:52:22Z</time>
      </trkpt>
      <trkpt lat="43.61151" lon="3.73532">
        <ele>152.3</ele>
        <time>2021-01-23T12:52:23Z</time>
      </trkpt>
      <trkpt lat="43.61152" lon="3.73528">
        <ele>152.1</ele>
        <time>2021-01-23T12:52:24Z</time>
      </trkpt>
      <trkpt lat="43.61152" lon="3.73523">
        <ele>152</ele>
        <time>2021-01-23T12:52:25Z</time>
      </trkpt>
      <trkpt lat="43.61151" lon="3.73519">
        <ele>152</ele>
        <time>2021-01-23T12:52:26Z</time>
      </trkpt>
      <trkpt lat="43.61149" lon="3.73515">
        <ele>152.1</ele>
        <time>2021-01-23T12:52:27Z</time>
      </trkpt>
      <trkpt lat="43.61148" lon="3.73512">
        <ele>152.2</ele>
        <time>2021-01-23T12:52:28Z</time>
      </trkpt>
      <trkpt lat="43.61147" lon="3.73508">
        <ele>152.2</ele>
        <time>2021-01-23T12:52:29Z</time>
      </trkpt>
      <trkpt lat="43.61145" lon="3.73504">
        <ele>156</ele>
        <time>2021-01-23T12:52:30Z</time>
      </trkpt>
      <trkpt lat="43.61145" lon="3.73501">
        <ele>152.3</ele>
        <time>2021-01-23T12:52:31Z</time>
      </trkpt>
      <trkpt lat="43.61144" lon="3.73497">
        <ele>152.5</ele>
        <time>2021-01-23T12:52:32Z</time>
      </trkpt>
      <trkpt lat="43.61143" lon="3.73494">
        <ele>152.7</ele>
        <time>2021-01-23T12:52:33Z</time>
      </trkpt>
      <trkpt lat="43.61142" lon="3.73492">
        <ele>152.9</ele>
        <time>2021-01-23T12:52:34Z</time>
      </trkpt>
      <trkpt lat="43.61141" lon="3.73489">
        <ele>153.1</ele>
        <time>2021-01-23T12:52:35Z</time>
      </trkpt>
      <trkpt lat="43.6114" lon="3.73486">
        <ele>153.3</ele>
        <time>2021-01-23T12:52:36Z</time>
      </trkpt>
      <trkpt lat="43.61139" lon="3.73483">
        <ele>153.6</ele>
        <time>2021-01-23T12:52:37Z</time>
      </trkpt>
      <trkpt lat="43.61138" lon="3.7348">
        <ele>153.8</ele>
        <time>2021-01-23T12:52:38Z</time>
      </trkpt>
      <trkpt lat="43.61138" lon="3.73477">
        <ele>154</ele>
        <time>2021-01-23T12:52:39Z</time>
      </trkpt>
      <trkpt lat="43.61138" lon="3.73474">
        <ele>157</ele>
        <time>2021-01-23T12:52:40Z</time>
      </trkpt>
      <trkpt lat="43.61138" lon="3.73468">
        <ele>154.5</ele>
        <time>2021-01-23T12:52:41Z</time>
      </trkpt>
      <trkpt lat="43.61138" lon="3.73465">
        <ele>154.7</ele>
        <time>2021-01-23T12:52:42Z</time>
      </trkpt>
      <trkpt lat="43.61138" lon="3.73462">
        <ele>154.9</ele>
        <time>2021-01-23T12:52:43Z</time>
      </trkpt>
      <trkpt lat="43.61137" lon="3.7346">
        <ele>155.3</ele>
        <time>2021-01-23T12:52:44Z</time>
      </trkpt>
      <trkpt lat="43.61137" lon="3.73457">
        <ele>155.5</ele>
        <time>2021-01-23T12:52:45Z</time>
      </trkpt>
      <trkpt lat="43.61138" lon="3.73454">
        <ele>155.5</ele>
        <time>2021-01-23T12:52:46Z</time>
      </trkpt>
      <trkpt lat="43.61138" lon="3.73452">
        <ele>155.7</ele>
        <time>2021-01-23T12:52:47Z</time>
      </trkpt>
      <trkpt lat="43.61139" lon="3.7345">
        <ele>155.6</ele>
        <time>2021-01-23T12:52:48Z</time>
      </trkpt>
      <trkpt lat="43.6114" lon="3.73446">
        <ele>155.6</ele>
        <time>2021-01-23T12:52:51Z</time>
      </trkpt>
      <trkpt lat="43.61142" lon="3.73442">
        <ele>155.5</ele>
        <time>2021-01-23T12:52:53Z</time>
      </trkpt>
      <trkpt lat="43.61144" lon="3.73439">
        <ele>155.4</ele>
        <time>2021-01-23T12:52:55Z</time>
      </trkpt>
      <trkpt lat="43.61145" lon="3.73438">
        <ele>159</ele>
        <time>2021-01-23T12:53:00Z</time>
      </trkpt>
      <trkpt lat="43.61134" lon="3.73427">
        <ele>164</ele>
        <time>2021-01-23T12:54:02Z</time>
      </trkpt>
      <trkpt lat="43.61133" lon="3.73426">
        <ele>160.1</ele>
        <time>2021-01-23T12:54:03Z</time>
      </trkpt>
      <trkpt lat="43.6113" lon="3.73425">
        <ele>160.9</ele>
        <time>2021-01-23T12:54:05Z</time>
      </trkpt>
      <trkpt lat="43.61127" lon="3.73424">
        <ele>161.7</ele>
        <time>2021-01-23T12:54:07Z</time>
      </trkpt>
      <trkpt lat="43.61125" lon="3.73425">
        <ele>162.1</ele>
        <time>2021-01-23T12:54:09Z</time>
      </trkpt>
      <trkpt lat="43.61122" lon="3.73426">
        <ele>162.7</ele>
        <time>2021-01-23T12:54:11Z</time>
      </trkpt>
      <trkpt lat="43.61119" lon="3.73426">
        <ele>166</ele>
        <time>2021-01-23T12:54:12Z</time>
      </trkpt>
      <trkpt lat="43.61116" lon="3.73428">
        <ele>164</ele>
        <time>2021-01-23T12:54:14Z</time>
      </trkpt>
      <trkpt lat="43.61114" lon="3.73429">
        <ele>164.4</ele>
        <time>2021-01-23T12:54:16Z</time>
      </trkpt>
      <trkpt lat="43.61111" lon="3.7343">
        <ele>165.1</ele>
        <time>2021-01-23T12:54:18Z</time>
      </trkpt>
      <trkpt lat="43.61109" lon="3.73431">
        <ele>165.3</ele>
        <time>2021-01-23T12:54:20Z</time>
      </trkpt>
      <trkpt lat="43.61107" lon="3.73434">
        <ele>165.3</ele>
        <time>2021-01-23T12:54:23Z</time>
      </trkpt>
      <trkpt lat="43.61104" lon="3.73436">
        <ele>165.5</ele>
        <time>2021-01-23T12:54:24Z</time>
      </trkpt>
      <trkpt lat="43.61102" lon="3.73438">
        <ele>165.6</ele>
        <time>2021-01-23T12:54:26Z</time>
      </trkpt>
      <trkpt lat="43.61099" lon="3.73438">
        <ele>166</ele>
        <time>2021-01-23T12:54:28Z</time>
      </trkpt>
      <trkpt lat="43.61097" lon="3.73438">
        <ele>166.2</ele>
        <time>2021-01-23T12:54:30Z</time>
      </trkpt>
      <trkpt lat="43.61094" lon="3.73438">
        <ele>166.6</ele>
        <time>2021-01-23T12:54:33Z</time>
      </trkpt>
      <trkpt lat="43.61092" lon="3.73437">
        <ele>167</ele>
        <time>2021-01-23T12:54:35Z</time>
      </trkpt>
      <trkpt lat="43.6109" lon="3.73436">
        <ele>167.4</ele>
        <time>2021-01-23T12:54:37Z</time>
      </trkpt>
      <trkpt lat="43.61087" lon="3.73435">
        <ele>167.9</ele>
        <time>2021-01-23T12:54:39Z</time>
      </trkpt>
      <trkpt lat="43.61084" lon="3.73434">
        <ele>168.4</ele>
        <time>2021-01-23T12:54:41Z</time>
      </trkpt>
      <trkpt lat="43.61082" lon="3.73431">
        <ele>170</ele>
        <time>2021-01-23T12:54:42Z</time>
      </trkpt>
      <trkpt lat="43.61081" lon="3.73428">
        <ele>169.5</ele>
        <time>2021-01-23T12:54:44Z</time>
      </trkpt>
      <trkpt lat="43.61079" lon="3.73425">
        <ele>170</ele>
        <time>2021-01-23T12:54:46Z</time>
      </trkpt>
      <trkpt lat="43.61077" lon="3.73422">
        <ele>170.5</ele>
        <time>2021-01-23T12:54:48Z</time>
      </trkpt>
      <trkpt lat="43.61075" lon="3.73419">
        <ele>171</ele>
        <time>2021-01-23T12:54:50Z</time>
      </trkpt>
      <trkpt lat="43.61073" lon="3.73418">
        <ele>171.2</ele>
        <time>2021-01-23T12:54:53Z</time>
      </trkpt>
      <trkpt lat="43.61071" lon="3.73415">
        <ele>171.7</ele>
        <time>2021-01-23T12:54:55Z</time>
      </trkpt>
      <trkpt lat="43.61069" lon="3.73412">
        <ele>172.1</ele>
        <time>2021-01-23T12:54:57Z</time>
      </trkpt>
      <trkpt lat="43.61068" lon="3.73409">
        <ele>172.5</ele>
        <time>2021-01-23T12:54:59Z</time>
      </trkpt>
      <trkpt lat="43.61067" lon="3.73405">
        <ele>173.1</ele>
        <time>2021-01-23T12:55:01Z</time>
      </trkpt>
      <trkpt lat="43.61066" lon="3.73403">
        <ele>173.4</ele>
        <time>2021-01-23T12:55:03Z</time>
      </trkpt>
      <trkpt lat="43.61064" lon="3.734">
        <ele>173.9</ele>
        <time>2021-01-23T12:55:05Z</time>
      </trkpt>
      <trkpt lat="43.61063" lon="3.73398">
        <ele>174.2</ele>
        <time>2021-01-23T12:55:07Z</time>
      </trkpt>
      <trkpt lat="43.61061" lon="3.73397">
        <ele>174.5</ele>
        <time>2021-01-23T12:55:09Z</time>
      </trkpt>
      <trkpt lat="43.61058" lon="3.73396">
        <ele>174.8</ele>
        <time>2021-01-23T12:55:11Z</time>
      </trkpt>
      <trkpt lat="43.61056" lon="3.73394">
        <ele>175.2</ele>
        <time>2021-01-23T12:55:13Z</time>
      </trkpt>
      <trkpt lat="43.61053" lon="3.73393">
        <ele>175.5</ele>
        <time>2021-01-23T12:55:15Z</time>
      </trkpt>
      <trkpt lat="43.61051" lon="3.73391">
        <ele>175.8</ele>
        <time>2021-01-23T12:55:17Z</time>
      </trkpt>
      <trkpt lat="43.61049" lon="3.73389">
        <ele>176.2</ele>
        <time>2021-01-23T12:55:19Z</time>
      </trkpt>
      <trkpt lat="43.61047" lon="3.73387">
        <ele>176.6</ele>
        <time>2021-01-23T12:55:21Z</time>
      </trkpt>
      <trkpt lat="43.61045" lon="3.73384">
        <ele>177.1</ele>
        <time>2021-01-23T12:55:23Z</time>
      </trkpt>
      <trkpt lat="43.61043" lon="3.73381">
        <ele>177.6</ele>
        <time>2021-01-23T12:55:25Z</time>
      </trkpt>
      <trkpt lat="43.61041" lon="3.73378">
        <ele>178.1</ele>
        <time>2021-01-23T12:55:27Z</time>
      </trkpt>
      <trkpt lat="43.61039" lon="3.73376">
        <ele>178.5</ele>
        <time>2021-01-23T12:55:29Z</time>
      </trkpt>
      <trkpt lat="43.61037" lon="3.73374">
        <ele>178.8</ele>
        <time>2021-01-23T12:55:31Z</time>
      </trkpt>
      <trkpt lat="43.61035" lon="3.73373">
        <ele>179</ele>
        <time>2021-01-23T12:55:33Z</time>
      </trkpt>
      <trkpt lat="43.61033" lon="3.73372">
        <ele>179.2</ele>
        <time>2021-01-23T12:55:35Z</time>
      </trkpt>
      <trkpt lat="43.61031" lon="3.7337">
        <ele>179.6</ele>
        <time>2021-01-23T12:55:37Z</time>
      </trkpt>
      <trkpt lat="43.6103" lon="3.73368">
        <ele>179.9</ele>
        <time>2021-01-23T12:55:39Z</time>
      </trkpt>
      <trkpt lat="43.61028" lon="3.73366">
        <ele>180.3</ele>
        <time>2021-01-23T12:55:41Z</time>
      </trkpt>
      <trkpt lat="43.61026" lon="3.73363">
        <ele>180.6</ele>
        <time>2021-01-23T12:55:43Z</time>
      </trkpt>
      <trkpt lat="43.61025" lon="3.73361">
        <ele>180.8</ele>
        <time>2021-01-23T12:55:45Z</time>
      </trkpt>
      <trkpt lat="43.61023" lon="3.73358">
        <ele>181</ele>
        <time>2021-01-23T12:55:47Z</time>
      </trkpt>
      <trkpt lat="43.61022" lon="3.73355">
        <ele>181.2</ele>
        <time>2021-01-23T12:55:49Z</time>
      </trkpt>
      <trkpt lat="43.6102" lon="3.73353">
        <ele>181.3</ele>
        <time>2021-01-23T12:55:51Z</time>
      </trkpt>
      <trkpt lat="43.61018" lon="3.7335">
        <ele>181.5</ele>
        <time>2021-01-23T12:55:53Z</time>
      </trkpt>
      <trkpt lat="43.61017" lon="3.73347">
        <ele>181.7</ele>
        <time>2021-01-23T12:55:55Z</time>
      </trkpt>
      <trkpt lat="43.61016" lon="3.73344">
        <ele>182</ele>
        <time>2021-01-23T12:55:57Z</time>
      </trkpt>
      <trkpt lat="43.61015" lon="3.73342">
        <ele>182.1</ele>
        <time>2021-01-23T12:55:59Z</time>
      </trkpt>
      <trkpt lat="43.61013" lon="3.73338">
        <ele>182.4</ele>
        <time>2021-01-23T12:56:01Z</time>
      </trkpt>
      <trkpt lat="43.61012" lon="3.73335">
        <ele>182.7</ele>
        <time>2021-01-23T12:56:03Z</time>
      </trkpt>
      <trkpt lat="43.61012" lon="3.73331">
        <ele>183</ele>
        <time>2021-01-23T12:56:05Z</time>
      </trkpt>
      <trkpt lat="43.61012" lon="3.73327">
        <ele>183.2</ele>
        <time>2021-01-23T12:56:07Z</time>
      </trkpt>
      <trkpt lat="43.61011" lon="3.73324">
        <ele>183.3</ele>
        <time>2021-01-23T12:56:09Z</time>
      </trkpt>
      <trkpt lat="43.61011" lon="3.7332">
        <ele>183.6</ele>
        <time>2021-01-23T12:56:11Z</time>
      </trkpt>
      <trkpt lat="43.6101" lon="3.73316">
        <ele>183.7</ele>
        <time>2021-01-23T12:56:13Z</time>
      </trkpt>
      <trkpt lat="43.6101" lon="3.73312">
        <ele>184</ele>
        <time>2021-01-23T12:56:15Z</time>
      </trkpt>
      <trkpt lat="43.61009" lon="3.73308">
        <ele>184.2</ele>
        <time>2021-01-23T12:56:17Z</time>
      </trkpt>
      <trkpt lat="43.61007" lon="3.73303">
        <ele>184.3</ele>
        <time>2021-01-23T12:56:19Z</time>
      </trkpt>
      <trkpt lat="43.61005" lon="3.733">
        <ele>184.2</ele>
        <time>2021-01-23T12:56:21Z</time>
      </trkpt>
      <trkpt lat="43.61004" lon="3.73298">
        <ele>187</ele>
        <time>2021-01-23T12:56:22Z</time>
      </trkpt>
      <trkpt lat="43.61003" lon="3.73295">
        <ele>184.1</ele>
        <time>2021-01-23T12:56:23Z</time>
      </trkpt>
      <trkpt lat="43.61003" lon="3.73293">
        <ele>184.1</ele>
        <time>2021-01-23T12:56:24Z</time>
      </trkpt>
      <trkpt lat="43.61002" lon="3.7329">
        <ele>184.1</ele>
        <time>2021-01-23T12:56:25Z</time>
      </trkpt>
      <trkpt lat="43.61002" lon="3.73287">
        <ele>184.1</ele>
        <time>2021-01-23T12:56:26Z</time>
      </trkpt>
      <trkpt lat="43.61002" lon="3.73284">
        <ele>184.1</ele>
        <time>2021-01-23T12:56:27Z</time>
      </trkpt>
      <trkpt lat="43.61003" lon="3.73281">
        <ele>184.1</ele>
        <time>2021-01-23T12:56:28Z</time>
      </trkpt>
      <trkpt lat="43.61003" lon="3.73278">
        <ele>184.1</ele>
        <time>2021-01-23T12:56:29Z</time>
      </trkpt>
      <trkpt lat="43.61003" lon="3.73275">
        <ele>184.2</ele>
        <time>2021-01-23T12:56:30Z</time>
      </trkpt>
      <trkpt lat="43.61004" lon="3.73272">
        <ele>184.4</ele>
        <time>2021-01-23T12:56:31Z</time>
      </trkpt>
      <trkpt lat="43.61004" lon="3.73269">
        <ele>188</ele>
        <time>2021-01-23T12:56:32Z</time>
      </trkpt>
      <trkpt lat="43.61004" lon="3.73265">
        <ele>184.6</ele>
        <time>2021-01-23T12:56:33Z</time>
      </trkpt>
      <trkpt lat="43.61005" lon="3.73263">
        <ele>184.7</ele>
        <time>2021-01-23T12:56:34Z</time>
      </trkpt>
      <trkpt lat="43.61006" lon="3.7326">
        <ele>184.9</ele>
        <time>2021-01-23T12:56:35Z</time>
      </trkpt>
      <trkpt lat="43.61006" lon="3.73257">
        <ele>185</ele>
        <time>2021-01-23T12:56:36Z</time>
      </trkpt>
      <trkpt lat="43.61007" lon="3.73254">
        <ele>185.1</ele>
        <time>2021-01-23T12:56:37Z</time>
      </trkpt>
      <trkpt lat="43.61008" lon="3.73251">
        <ele>185.3</ele>
        <time>2021-01-23T12:56:38Z</time>
      </trkpt>
      <trkpt lat="43.6101" lon="3.73248">
        <ele>185.4</ele>
        <time>2021-01-23T12:56:39Z</time>
      </trkpt>
      <trkpt lat="43.61011" lon="3.73245">
        <ele>185.4</ele>
        <time>2021-01-23T12:56:40Z</time>
      </trkpt>
      <trkpt lat="43.61012" lon="3.73242">
        <ele>185.4</ele>
        <time>2021-01-23T12:56:41Z</time>
      </trkpt>
      <trkpt lat="43.61014" lon="3.73239">
        <ele>188</ele>
        <time>2021-01-23T12:56:42Z</time>
      </trkpt>
      <trkpt lat="43.61015" lon="3.73236">
        <ele>185.5</ele>
        <time>2021-01-23T12:56:43Z</time>
      </trkpt>
      <trkpt lat="43.61016" lon="3.73233">
        <ele>185.6</ele>
        <time>2021-01-23T12:56:44Z</time>
      </trkpt>
      <trkpt lat="43.61017" lon="3.7323">
        <ele>185.6</ele>
        <time>2021-01-23T12:56:45Z</time>
      </trkpt>
      <trkpt lat="43.61019" lon="3.73226">
        <ele>185.7</ele>
        <time>2021-01-23T12:56:46Z</time>
      </trkpt>
      <trkpt lat="43.6102" lon="3.73223">
        <ele>185.7</ele>
        <time>2021-01-23T12:56:47Z</time>
      </trkpt>
      <trkpt lat="43.6102" lon="3.7322">
        <ele>185.8</ele>
        <time>2021-01-23T12:56:48Z</time>
      </trkpt>
      <trkpt lat="43.61021" lon="3.73217">
        <ele>186</ele>
        <time>2021-01-23T12:56:49Z</time>
      </trkpt>
      <trkpt lat="43.61022" lon="3.73214">
        <ele>186.3</ele>
        <time>2021-01-23T12:56:50Z</time>
      </trkpt>
      <trkpt lat="43.61022" lon="3.73211">
        <ele>186.4</ele>
        <time>2021-01-23T12:56:51Z</time>
      </trkpt>
      <trkpt lat="43.61023" lon="3.73209">
        <ele>189</ele>
        <time>2021-01-23T12:56:52Z</time>
      </trkpt>
      <trkpt lat="43.61024" lon="3.73206">
        <ele>186.9</ele>
        <time>2021-01-23T12:56:53Z</time>
      </trkpt>
      <trkpt lat="43.61025" lon="3.73203">
        <ele>187.1</ele>
        <time>2021-01-23T12:56:54Z</time>
      </trkpt>
      <trkpt lat="43.61025" lon="3.73201">
        <ele>187.3</ele>
        <time>2021-01-23T12:56:55Z</time>
      </trkpt>
      <trkpt lat="43.61027" lon="3.73197">
        <ele>187.7</ele>
        <time>2021-01-23T12:56:57Z</time>
      </trkpt>
      <trkpt lat="43.61029" lon="3.73193">
        <ele>188.1</ele>
        <time>2021-01-23T12:56:59Z</time>
      </trkpt>
      <trkpt lat="43.61031" lon="3.7319">
        <ele>188.3</ele>
        <time>2021-01-23T12:57:01Z</time>
      </trkpt>
      <trkpt lat="43.61033" lon="3.73186">
        <ele>188.7</ele>
        <time>2021-01-23T12:57:03Z</time>
      </trkpt>
      <trkpt lat="43.61035" lon="3.73184">
        <ele>188.8</ele>
        <time>2021-01-23T12:57:04Z</time>
      </trkpt>
      <trkpt lat="43.61037" lon="3.73181">
        <ele>189.1</ele>
        <time>2021-01-23T12:57:06Z</time>
      </trkpt>
      <trkpt lat="43.6104" lon="3.73179">
        <ele>189.4</ele>
        <time>2021-01-23T12:57:08Z</time>
      </trkpt>
      <trkpt lat="43.61042" lon="3.73176">
        <ele>189.7</ele>
        <time>2021-01-23T12:57:10Z</time>
      </trkpt>
      <trkpt lat="43.61045" lon="3.73173">
        <ele>192</ele>
        <time>2021-01-23T12:57:12Z</time>
      </trkpt>
      <trkpt lat="43.61048" lon="3.73173">
        <ele>190.1</ele>
        <time>2021-01-23T12:57:14Z</time>
      </trkpt>
      <trkpt lat="43.6105" lon="3.73174">
        <ele>190.1</ele>
        <time>2021-01-23T12:57:15Z</time>
      </trkpt>
      <trkpt lat="43.61052" lon="3.73174">
        <ele>190.1</ele>
        <time>2021-01-23T12:57:16Z</time>
      </trkpt>
      <trkpt lat="43.61054" lon="3.73175">
        <ele>190.1</ele>
        <time>2021-01-23T12:57:17Z</time>
      </trkpt>
      <trkpt lat="43.61057" lon="3.73176">
        <ele>189.9</ele>
        <time>2021-01-23T12:57:18Z</time>
      </trkpt>
      <trkpt lat="43.6106" lon="3.73176">
        <ele>189.6</ele>
        <time>2021-01-23T12:57:19Z</time>
      </trkpt>
      <trkpt lat="43.61064" lon="3.73175">
        <ele>189.4</ele>
        <time>2021-01-23T12:57:20Z</time>
      </trkpt>
      <trkpt lat="43.61068" lon="3.73173">
        <ele>189.3</ele>
        <time>2021-01-23T12:57:21Z</time>
      </trkpt>
      <trkpt lat="43.61072" lon="3.73171">
        <ele>192</ele>
        <time>2021-01-23T12:57:22Z</time>
      </trkpt>
      <trkpt lat="43.61075" lon="3.73168">
        <ele>189.4</ele>
        <time>2021-01-23T12:57:23Z</time>
      </trkpt>
      <trkpt lat="43.61078" lon="3.73165">
        <ele>189.5</ele>
        <time>2021-01-23T12:57:24Z</time>
      </trkpt>
      <trkpt lat="43.61081" lon="3.73163">
        <ele>189.4</ele>
        <time>2021-01-23T12:57:25Z</time>
      </trkpt>
      <trkpt lat="43.61083" lon="3.7316">
        <ele>189.5</ele>
        <time>2021-01-23T12:57:26Z</time>
      </trkpt>
      <trkpt lat="43.61085" lon="3.73157">
        <ele>189.5</ele>
        <time>2021-01-23T12:57:27Z</time>
      </trkpt>
      <trkpt lat="43.61087" lon="3.73155">
        <ele>189.4</ele>
        <time>2021-01-23T12:57:28Z</time>
      </trkpt>
      <trkpt lat="43.61089" lon="3.73152">
        <ele>189.3</ele>
        <time>2021-01-23T12:57:29Z</time>
      </trkpt>
      <trkpt lat="43.61091" lon="3.73149">
        <ele>189.3</ele>
        <time>2021-01-23T12:57:30Z</time>
      </trkpt>
      <trkpt lat="43.61093" lon="3.73147">
        <ele>189.3</ele>
        <time>2021-01-23T12:57:31Z</time>
      </trkpt>
      <trkpt lat="43.61095" lon="3.73144">
        <ele>192</ele>
        <time>2021-01-23T12:57:32Z</time>
      </trkpt>
      <trkpt lat="43.61098" lon="3.73139">
        <ele>189.4</ele>
        <time>2021-01-23T12:57:33Z</time>
      </trkpt>
      <trkpt lat="43.61099" lon="3.73136">
        <ele>189.3</ele>
        <time>2021-01-23T12:57:34Z</time>
      </trkpt>
      <trkpt lat="43.61101" lon="3.73132">
        <ele>189.1</ele>
        <time>2021-01-23T12:57:35Z</time>
      </trkpt>
      <trkpt lat="43.61102" lon="3.73129">
        <ele>189</ele>
        <time>2021-01-23T12:57:36Z</time>
      </trkpt>
      <trkpt lat="43.61104" lon="3.73125">
        <ele>188.8</ele>
        <time>2021-01-23T12:57:37Z</time>
      </trkpt>
      <trkpt lat="43.61106" lon="3.73122">
        <ele>188.6</ele>
        <time>2021-01-23T12:57:38Z</time>
      </trkpt>
      <trkpt lat="43.61107" lon="3.73119">
        <ele>188.4</ele>
        <time>2021-01-23T12:57:39Z</time>
      </trkpt>
      <trkpt lat="43.61108" lon="3.73117">
        <ele>188.3</ele>
        <time>2021-01-23T12:57:40Z</time>
      </trkpt>
      <trkpt lat="43.61109" lon="3.73114">
        <ele>188.2</ele>
        <time>2021-01-23T12:57:41Z</time>
      </trkpt>
      <trkpt lat="43.6111" lon="3.73111">
        <ele>188.1</ele>
        <time>2021-01-23T12:57:43Z</time>
      </trkpt>
      <trkpt lat="43.6111" lon="3.73107">
        <ele>187.7</ele>
        <time>2021-01-23T12:57:45Z</time>
      </trkpt>
      <trkpt lat="43.6111" lon="3.73103">
        <ele>187.3</ele>
        <time>2021-01-23T12:57:47Z</time>
      </trkpt>
      <trkpt lat="43.6111" lon="3.731">
        <ele>186.9</ele>
        <time>2021-01-23T12:57:50Z</time>
      </trkpt>
      <trkpt lat="43.61109" lon="3.73097">
        <ele>186.7</ele>
        <time>2021-01-23T12:57:53Z</time>
      </trkpt>
      <trkpt lat="43.61109" lon="3.73095">
        <ele>192</ele>
        <time>2021-01-23T12:57:59Z</time>
      </trkpt>
      <trkpt lat="43.61108" lon="3.73091">
        <ele>192</ele>
        <time>2021-01-23T12:58:20Z</time>
      </trkpt>
      <trkpt lat="43.6111" lon="3.73095">
        <ele>191</ele>
        <time>2021-01-23T12:58:28Z</time>
      </trkpt>
      <trkpt lat="43.61111" lon="3.73096">
        <ele>186.4</ele>
        <time>2021-01-23T12:58:30Z</time>
      </trkpt>
      <trkpt lat="43.61109" lon="3.73098">
        <ele>186.8</ele>
        <time>2021-01-23T12:58:36Z</time>
      </trkpt>
      <trkpt lat="43.61108" lon="3.731">
        <ele>187.2</ele>
        <time>2021-01-23T12:58:40Z</time>
      </trkpt>
      <trkpt lat="43.6111" lon="3.73105">
        <ele>191</ele>
        <time>2021-01-23T12:59:27Z</time>
      </trkpt>
      <trkpt lat="43.6111" lon="3.7311">
        <ele>188</ele>
        <time>2021-01-23T12:59:28Z</time>
      </trkpt>
      <trkpt lat="43.6111" lon="3.73113">
        <ele>188.1</ele>
        <time>2021-01-23T12:59:29Z</time>
      </trkpt>
      <trkpt lat="43.61111" lon="3.73116">
        <ele>188</ele>
        <time>2021-01-23T12:59:30Z</time>
      </trkpt>
      <trkpt lat="43.61112" lon="3.73119">
        <ele>187.8</ele>
        <time>2021-01-23T12:59:31Z</time>
      </trkpt>
      <trkpt lat="43.61114" lon="3.7312">
        <ele>187.5</ele>
        <time>2021-01-23T12:59:32Z</time>
      </trkpt>
      <trkpt lat="43.61115" lon="3.73121">
        <ele>187.3</ele>
        <time>2021-01-23T12:59:33Z</time>
      </trkpt>
      <trkpt lat="43.61118" lon="3.73123">
        <ele>186.9</ele>
        <time>2021-01-23T12:59:35Z</time>
      </trkpt>
      <trkpt lat="43.6112" lon="3.73124">
        <ele>186.5</ele>
        <time>2021-01-23T12:59:37Z</time>
      </trkpt>
      <trkpt lat="43.61121" lon="3.73121">
        <ele>186.3</ele>
        <time>2021-01-23T12:59:39Z</time>
      </trkpt>
      <trkpt lat="43.61121" lon="3.73117">
        <ele>186.3</ele>
        <time>2021-01-23T12:59:41Z</time>
      </trkpt>
      <trkpt lat="43.61121" lon="3.73115">
        <ele>186.3</ele>
        <time>2021-01-23T12:59:42Z</time>
      </trkpt>
      <trkpt lat="43.6112" lon="3.73111">
        <ele>186.4</ele>
        <time>2021-01-23T12:59:44Z</time>
      </trkpt>
      <trkpt lat="43.6112" lon="3.73107">
        <ele>185.9</ele>
        <time>2021-01-23T12:59:45Z</time>
      </trkpt>
      <trkpt lat="43.61119" lon="3.73099">
        <ele>189</ele>
        <time>2021-01-23T12:59:46Z</time>
      </trkpt>
      <trkpt lat="43.61118" lon="3.73094">
        <ele>184.8</ele>
        <time>2021-01-23T12:59:47Z</time>
      </trkpt>
      <trkpt lat="43.61117" lon="3.7309">
        <ele>184.5</ele>
        <time>2021-01-23T12:59:48Z</time>
      </trkpt>
      <trkpt lat="43.61116" lon="3.73087">
        <ele>184.4</ele>
        <time>2021-01-23T12:59:49Z</time>
      </trkpt>
      <trkpt lat="43.61114" lon="3.73083">
        <ele>184.3</ele>
        <time>2021-01-23T12:59:50Z</time>
      </trkpt>
      <trkpt lat="43.61113" lon="3.7308">
        <ele>184</ele>
        <time>2021-01-23T12:59:51Z</time>
      </trkpt>
      <trkpt lat="43.61111" lon="3.73079">
        <ele>184.2</ele>
        <time>2021-01-23T12:59:52Z</time>
      </trkpt>
      <trkpt lat="43.61107" lon="3.7308">
        <ele>185</ele>
        <time>2021-01-23T12:59:54Z</time>
      </trkpt>
      <trkpt lat="43.61106" lon="3.7308">
        <ele>185.2</ele>
        <time>2021-01-23T12:59:55Z</time>
      </trkpt>
      <trkpt lat="43.61103" lon="3.73076">
        <ele>185</ele>
        <time>2021-01-23T12:59:58Z</time>
      </trkpt>
      <trkpt lat="43.61102" lon="3.73074">
        <ele>184.9</ele>
        <time>2021-01-23T12:59:59Z</time>
      </trkpt>
      <trkpt lat="43.611" lon="3.73071">
        <ele>184.7</ele>
        <time>2021-01-23T13:00:00Z</time>
      </trkpt>
      <trkpt lat="43.61098" lon="3.73069">
        <ele>184.8</ele>
        <time>2021-01-23T13:00:01Z</time>
      </trkpt>
      <trkpt lat="43.61096" lon="3.73067">
        <ele>184.9</ele>
        <time>2021-01-23T13:00:02Z</time>
      </trkpt>
      <trkpt lat="43.61094" lon="3.73064">
        <ele>184.8</ele>
        <time>2021-01-23T13:00:03Z</time>
      </trkpt>
      <trkpt lat="43.61092" lon="3.73062">
        <ele>185</ele>
        <time>2021-01-23T13:00:04Z</time>
      </trkpt>
      <trkpt lat="43.6109" lon="3.7306">
        <ele>185.1</ele>
        <time>2021-01-23T13:00:05Z</time>
      </trkpt>
      <trkpt lat="43.61089" lon="3.73059">
        <ele>188</ele>
        <time>2021-01-23T13:00:06Z</time>
      </trkpt>
      <trkpt lat="43.61087" lon="3.73057">
        <ele>185.4</ele>
        <time>2021-01-23T13:00:07Z</time>
      </trkpt>
      <trkpt lat="43.61086" lon="3.73054">
        <ele>185.1</ele>
        <time>2021-01-23T13:00:08Z</time>
      </trkpt>
      <trkpt lat="43.61085" lon="3.73052">
        <ele>184.9</ele>
        <time>2021-01-23T13:00:09Z</time>
      </trkpt>
      <trkpt lat="43.61084" lon="3.73049">
        <ele>184.4</ele>
        <time>2021-01-23T13:00:10Z</time>
      </trkpt>
      <trkpt lat="43.61082" lon="3.73047">
        <ele>184.4</ele>
        <time>2021-01-23T13:00:11Z</time>
      </trkpt>
      <trkpt lat="43.61081" lon="3.73044">
        <ele>183.9</ele>
        <time>2021-01-23T13:00:12Z</time>
      </trkpt>
      <trkpt lat="43.61079" lon="3.73042">
        <ele>183.9</ele>
        <time>2021-01-23T13:00:13Z</time>
      </trkpt>
      <trkpt lat="43.61077" lon="3.7304">
        <ele>183.9</ele>
        <time>2021-01-23T13:00:14Z</time>
      </trkpt>
      <trkpt lat="43.61075" lon="3.73038">
        <ele>184</ele>
        <time>2021-01-23T13:00:15Z</time>
      </trkpt>
      <trkpt lat="43.61074" lon="3.73035">
        <ele>188</ele>
        <time>2021-01-23T13:00:16Z</time>
      </trkpt>
      <trkpt lat="43.61071" lon="3.73032">
        <ele>183.8</ele>
        <time>2021-01-23T13:00:17Z</time>
      </trkpt>
      <trkpt lat="43.61069" lon="3.7303">
        <ele>184</ele>
        <time>2021-01-23T13:00:18Z</time>
      </trkpt>
      <trkpt lat="43.61067" lon="3.73027">
        <ele>184</ele>
        <time>2021-01-23T13:00:19Z</time>
      </trkpt>
      <trkpt lat="43.61065" lon="3.73025">
        <ele>184.1</ele>
        <time>2021-01-23T13:00:20Z</time>
      </trkpt>
      <trkpt lat="43.61062" lon="3.73022">
        <ele>184.2</ele>
        <time>2021-01-23T13:00:21Z</time>
      </trkpt>
      <trkpt lat="43.6106" lon="3.7302">
        <ele>184.2</ele>
        <time>2021-01-23T13:00:22Z</time>
      </trkpt>
      <trkpt lat="43.61059" lon="3.73017">
        <ele>183.9</ele>
        <time>2021-01-23T13:00:23Z</time>
      </trkpt>
      <trkpt lat="43.61057" lon="3.73015">
        <ele>183.9</ele>
        <time>2021-01-23T13:00:24Z</time>
      </trkpt>
      <trkpt lat="43.61055" lon="3.73012">
        <ele>183.7</ele>
        <time>2021-01-23T13:00:25Z</time>
      </trkpt>
      <trkpt lat="43.61053" lon="3.73009">
        <ele>188</ele>
        <time>2021-01-23T13:00:26Z</time>
      </trkpt>
      <trkpt lat="43.61051" lon="3.73007">
        <ele>183.7</ele>
        <time>2021-01-23T13:00:27Z</time>
      </trkpt>
      <trkpt lat="43.61048" lon="3.73004">
        <ele>183.9</ele>
        <time>2021-01-23T13:00:28Z</time>
      </trkpt>
      <trkpt lat="43.61046" lon="3.73001">
        <ele>183.9</ele>
        <time>2021-01-23T13:00:29Z</time>
      </trkpt>
      <trkpt lat="43.61044" lon="3.72998">
        <ele>184</ele>
        <time>2021-01-23T13:00:30Z</time>
      </trkpt>
      <trkpt lat="43.61041" lon="3.72995">
        <ele>184.3</ele>
        <time>2021-01-23T13:00:31Z</time>
      </trkpt>
      <trkpt lat="43.61039" lon="3.72993">
        <ele>184.5</ele>
        <time>2021-01-23T13:00:32Z</time>
      </trkpt>
      <trkpt lat="43.61037" lon="3.7299">
        <ele>184.4</ele>
        <time>2021-01-23T13:00:33Z</time>
      </trkpt>
      <trkpt lat="43.61035" lon="3.72988">
        <ele>184.6</ele>
        <time>2021-01-23T13:00:34Z</time>
      </trkpt>
      <trkpt lat="43.61033" lon="3.72986">
        <ele>184.7</ele>
        <time>2021-01-23T13:00:35Z</time>
      </trkpt>
      <trkpt lat="43.61031" lon="3.72984">
        <ele>188</ele>
        <time>2021-01-23T13:00:36Z</time>
      </trkpt>
      <trkpt lat="43.61029" lon="3.72982">
        <ele>184.8</ele>
        <time>2021-01-23T13:00:37Z</time>
      </trkpt>
      <trkpt lat="43.61028" lon="3.7298">
        <ele>184.6</ele>
        <time>2021-01-23T13:00:38Z</time>
      </trkpt>
      <trkpt lat="43.61026" lon="3.72978">
        <ele>184.6</ele>
        <time>2021-01-23T13:00:39Z</time>
      </trkpt>
      <trkpt lat="43.61024" lon="3.72977">
        <ele>184.8</ele>
        <time>2021-01-23T13:00:40Z</time>
      </trkpt>
      <trkpt lat="43.61022" lon="3.72975">
        <ele>184.8</ele>
        <time>2021-01-23T13:00:41Z</time>
      </trkpt>
      <trkpt lat="43.6102" lon="3.72974">
        <ele>185</ele>
        <time>2021-01-23T13:00:42Z</time>
      </trkpt>
      <trkpt lat="43.61018" lon="3.72972">
        <ele>185.1</ele>
        <time>2021-01-23T13:00:43Z</time>
      </trkpt>
      <trkpt lat="43.61016" lon="3.72971">
        <ele>185.3</ele>
        <time>2021-01-23T13:00:44Z</time>
      </trkpt>
      <trkpt lat="43.61013" lon="3.7297">
        <ele>185.7</ele>
        <time>2021-01-23T13:00:45Z</time>
      </trkpt>
      <trkpt lat="43.61011" lon="3.72969">
        <ele>189</ele>
        <time>2021-01-23T13:00:46Z</time>
      </trkpt>
      <trkpt lat="43.61009" lon="3.72968">
        <ele>186.2</ele>
        <time>2021-01-23T13:00:47Z</time>
      </trkpt>
      <trkpt lat="43.61007" lon="3.72967">
        <ele>186.4</ele>
        <time>2021-01-23T13:00:48Z</time>
      </trkpt>
      <trkpt lat="43.61005" lon="3.72966">
        <ele>186.6</ele>
        <time>2021-01-23T13:00:49Z</time>
      </trkpt>
      <trkpt lat="43.61002" lon="3.72965">
        <ele>187</ele>
        <time>2021-01-23T13:00:50Z</time>
      </trkpt>
      <trkpt lat="43.61001" lon="3.72964">
        <ele>187</ele>
        <time>2021-01-23T13:00:51Z</time>
      </trkpt>
      <trkpt lat="43.60999" lon="3.72963">
        <ele>187.1</ele>
        <time>2021-01-23T13:00:52Z</time>
      </trkpt>
      <trkpt lat="43.60997" lon="3.72962">
        <ele>187</ele>
        <time>2021-01-23T13:00:53Z</time>
      </trkpt>
      <trkpt lat="43.60995" lon="3.72962">
        <ele>187.1</ele>
        <time>2021-01-23T13:00:54Z</time>
      </trkpt>
      <trkpt lat="43.60992" lon="3.72961">
        <ele>189</ele>
        <time>2021-01-23T13:00:56Z</time>
      </trkpt>
      <trkpt lat="43.6099" lon="3.7296">
        <ele>187</ele>
        <time>2021-01-23T13:00:57Z</time>
      </trkpt>
      <trkpt lat="43.60987" lon="3.72959">
        <ele>187.1</ele>
        <time>2021-01-23T13:00:58Z</time>
      </trkpt>
      <trkpt lat="43.60985" lon="3.72959">
        <ele>187.2</ele>
        <time>2021-01-23T13:00:59Z</time>
      </trkpt>
      <trkpt lat="43.60983" lon="3.72958">
        <ele>187.2</ele>
        <time>2021-01-23T13:01:00Z</time>
      </trkpt>
      <trkpt lat="43.6098" lon="3.72958">
        <ele>187.4</ele>
        <time>2021-01-23T13:01:02Z</time>
      </trkpt>
      <trkpt lat="43.60978" lon="3.72958">
        <ele>187.5</ele>
        <time>2021-01-23T13:01:03Z</time>
      </trkpt>
      <trkpt lat="43.60976" lon="3.72958">
        <ele>187.7</ele>
        <time>2021-01-23T13:01:04Z</time>
      </trkpt>
      <trkpt lat="43.60974" lon="3.72958">
        <ele>187.8</ele>
        <time>2021-01-23T13:01:05Z</time>
      </trkpt>
      <trkpt lat="43.60971" lon="3.72959">
        <ele>188</ele>
        <time>2021-01-23T13:01:07Z</time>
      </trkpt>
      <trkpt lat="43.60969" lon="3.7296">
        <ele>187.9</ele>
        <time>2021-01-23T13:01:08Z</time>
      </trkpt>
      <trkpt lat="43.60965" lon="3.72962">
        <ele>187.7</ele>
        <time>2021-01-23T13:01:10Z</time>
      </trkpt>
      <trkpt lat="43.60963" lon="3.72963">
        <ele>187.7</ele>
        <time>2021-01-23T13:01:11Z</time>
      </trkpt>
      <trkpt lat="43.60962" lon="3.72964">
        <ele>187.7</ele>
        <time>2021-01-23T13:01:12Z</time>
      </trkpt>
      <trkpt lat="43.6096" lon="3.72966">
        <ele>187.8</ele>
        <time>2021-01-23T13:01:13Z</time>
      </trkpt>
      <trkpt lat="43.60958" lon="3.72968">
        <ele>187.9</ele>
        <time>2021-01-23T13:01:14Z</time>
      </trkpt>
      <trkpt lat="43.60956" lon="3.7297">
        <ele>187.9</ele>
        <time>2021-01-23T13:01:15Z</time>
      </trkpt>
      <trkpt lat="43.60954" lon="3.72971">
        <ele>189</ele>
        <time>2021-01-23T13:01:16Z</time>
      </trkpt>
      <trkpt lat="43.60952" lon="3.72973">
        <ele>187.9</ele>
        <time>2021-01-23T13:01:17Z</time>
      </trkpt>
      <trkpt lat="43.60951" lon="3.72973">
        <ele>190</ele>
        <time>2021-01-23T13:01:22Z</time>
      </trkpt>
      <trkpt lat="43.60947" lon="3.72964">
        <ele>191</ele>
        <time>2021-01-23T13:01:53Z</time>
      </trkpt>
      <trkpt lat="43.60946" lon="3.72961">
        <ele>185.6</ele>
        <time>2021-01-23T13:01:54Z</time>
      </trkpt>
      <trkpt lat="43.60944" lon="3.72959">
        <ele>185</ele>
        <time>2021-01-23T13:01:55Z</time>
      </trkpt>
      <trkpt lat="43.60943" lon="3.72957">
        <ele>184.5</ele>
        <time>2021-01-23T13:01:56Z</time>
      </trkpt>
      <trkpt lat="43.60941" lon="3.72956">
        <ele>183.9</ele>
        <time>2021-01-23T13:01:57Z</time>
      </trkpt>
      <trkpt lat="43.60938" lon="3.72954">
        <ele>183</ele>
        <time>2021-01-23T13:01:58Z</time>
      </trkpt>
      <trkpt lat="43.60936" lon="3.72952">
        <ele>182.3</ele>
        <time>2021-01-23T13:01:59Z</time>
      </trkpt>
      <trkpt lat="43.60934" lon="3.72949">
        <ele>181.4</ele>
        <time>2021-01-23T13:02:00Z</time>
      </trkpt>
      <trkpt lat="43.60932" lon="3.72946">
        <ele>180.5</ele>
        <time>2021-01-23T13:02:01Z</time>
      </trkpt>
      <trkpt lat="43.60929" lon="3.72943">
        <ele>189</ele>
        <time>2021-01-23T13:02:02Z</time>
      </trkpt>
      <trkpt lat="43.60927" lon="3.72941">
        <ele>178.7</ele>
        <time>2021-01-23T13:02:03Z</time>
      </trkpt>
      <trkpt lat="43.60926" lon="3.72938">
        <ele>178</ele>
        <time>2021-01-23T13:02:04Z</time>
      </trkpt>
      <trkpt lat="43.60924" lon="3.72936">
        <ele>177.3</ele>
        <time>2021-01-23T13:02:05Z</time>
      </trkpt>
      <trkpt lat="43.60922" lon="3.72933">
        <ele>176.4</ele>
        <time>2021-01-23T13:02:06Z</time>
      </trkpt>
      <trkpt lat="43.6092" lon="3.72929">
        <ele>175.4</ele>
        <time>2021-01-23T13:02:07Z</time>
      </trkpt>
      <trkpt lat="43.60919" lon="3.72924">
        <ele>174.5</ele>
        <time>2021-01-23T13:02:08Z</time>
      </trkpt>
      <trkpt lat="43.60917" lon="3.7292">
        <ele>173.5</ele>
        <time>2021-01-23T13:02:09Z</time>
      </trkpt>
      <trkpt lat="43.60916" lon="3.72917">
        <ele>173</ele>
        <time>2021-01-23T13:02:10Z</time>
      </trkpt>
      <trkpt lat="43.60914" lon="3.72914">
        <ele>172.2</ele>
        <time>2021-01-23T13:02:11Z</time>
      </trkpt>
      <trkpt lat="43.60912" lon="3.7291">
        <ele>187</ele>
        <time>2021-01-23T13:02:12Z</time>
      </trkpt>
      <trkpt lat="43.6091" lon="3.72907">
        <ele>170.7</ele>
        <time>2021-01-23T13:02:13Z</time>
      </trkpt>
      <trkpt lat="43.60908" lon="3.72904">
        <ele>170.1</ele>
        <time>2021-01-23T13:02:14Z</time>
      </trkpt>
      <trkpt lat="43.60903" lon="3.72897">
        <ele>168.5</ele>
        <time>2021-01-23T13:02:15Z</time>
      </trkpt>
      <trkpt lat="43.60901" lon="3.72895">
        <ele>168.1</ele>
        <time>2021-01-23T13:02:16Z</time>
      </trkpt>
      <trkpt lat="43.60897" lon="3.72894">
        <ele>167.5</ele>
        <time>2021-01-23T13:02:17Z</time>
      </trkpt>
      <trkpt lat="43.60894" lon="3.72893">
        <ele>167</ele>
        <time>2021-01-23T13:02:18Z</time>
      </trkpt>
      <trkpt lat="43.60891" lon="3.72887">
        <ele>165.9</ele>
        <time>2021-01-23T13:02:20Z</time>
      </trkpt>
      <trkpt lat="43.60891" lon="3.72883">
        <ele>165.2</ele>
        <time>2021-01-23T13:02:21Z</time>
      </trkpt>
      <trkpt lat="43.6089" lon="3.72879">
        <ele>164.3</ele>
        <time>2021-01-23T13:02:23Z</time>
      </trkpt>
      <trkpt lat="43.6089" lon="3.72874">
        <ele>163.4</ele>
        <time>2021-01-23T13:02:24Z</time>
      </trkpt>
      <trkpt lat="43.6089" lon="3.72868">
        <ele>162.4</ele>
        <time>2021-01-23T13:02:25Z</time>
      </trkpt>
      <trkpt lat="43.60889" lon="3.72862">
        <ele>161.2</ele>
        <time>2021-01-23T13:02:26Z</time>
      </trkpt>
      <trkpt lat="43.60889" lon="3.72855">
        <ele>160.6</ele>
        <time>2021-01-23T13:02:27Z</time>
      </trkpt>
      <trkpt lat="43.60889" lon="3.72849">
        <ele>160.1</ele>
        <time>2021-01-23T13:02:28Z</time>
      </trkpt>
      <trkpt lat="43.60888" lon="3.72845">
        <ele>159.8</ele>
        <time>2021-01-23T13:02:29Z</time>
      </trkpt>
      <trkpt lat="43.60887" lon="3.72842">
        <ele>159.5</ele>
        <time>2021-01-23T13:02:30Z</time>
      </trkpt>
      <trkpt lat="43.60887" lon="3.72839">
        <ele>159.3</ele>
        <time>2021-01-23T13:02:31Z</time>
      </trkpt>
      <trkpt lat="43.60887" lon="3.72836">
        <ele>180</ele>
        <time>2021-01-23T13:02:32Z</time>
      </trkpt>
      <trkpt lat="43.60887" lon="3.72831">
        <ele>158.5</ele>
        <time>2021-01-23T13:02:34Z</time>
      </trkpt>
      <trkpt lat="43.60887" lon="3.72827">
        <ele>158</ele>
        <time>2021-01-23T13:02:36Z</time>
      </trkpt>
      <trkpt lat="43.60886" lon="3.72825">
        <ele>157.7</ele>
        <time>2021-01-23T13:02:38Z</time>
      </trkpt>
      <trkpt lat="43.60886" lon="3.72822">
        <ele>157.3</ele>
        <time>2021-01-23T13:02:41Z</time>
      </trkpt>
      <trkpt lat="43.60886" lon="3.72819">
        <ele>156.9</ele>
        <time>2021-01-23T13:02:43Z</time>
      </trkpt>
      <trkpt lat="43.60887" lon="3.72817">
        <ele>156.6</ele>
        <time>2021-01-23T13:02:45Z</time>
      </trkpt>
      <trkpt lat="43.60887" lon="3.72813">
        <ele>156.1</ele>
        <time>2021-01-23T13:02:48Z</time>
      </trkpt>
      <trkpt lat="43.60885" lon="3.72813">
        <ele>156.1</ele>
        <time>2021-01-23T13:02:51Z</time>
      </trkpt>
      <trkpt lat="43.60882" lon="3.72814">
        <ele>156.2</ele>
        <time>2021-01-23T13:02:53Z</time>
      </trkpt>
      <trkpt lat="43.6088" lon="3.72813">
        <ele>156.1</ele>
        <time>2021-01-23T13:02:54Z</time>
      </trkpt>
      <trkpt lat="43.60879" lon="3.72811">
        <ele>155.9</ele>
        <time>2021-01-23T13:02:55Z</time>
      </trkpt>
      <trkpt lat="43.60877" lon="3.72809">
        <ele>155.8</ele>
        <time>2021-01-23T13:02:56Z</time>
      </trkpt>
      <trkpt lat="43.60876" lon="3.72806">
        <ele>155.5</ele>
        <time>2021-01-23T13:02:57Z</time>
      </trkpt>
      <trkpt lat="43.60875" lon="3.72804">
        <ele>155.4</ele>
        <time>2021-01-23T13:02:58Z</time>
      </trkpt>
      <trkpt lat="43.60874" lon="3.72801">
        <ele>155.2</ele>
        <time>2021-01-23T13:02:59Z</time>
      </trkpt>
      <trkpt lat="43.60873" lon="3.72798">
        <ele>155</ele>
        <time>2021-01-23T13:03:00Z</time>
      </trkpt>
      <trkpt lat="43.60872" lon="3.72795">
        <ele>154.8</ele>
        <time>2021-01-23T13:03:01Z</time>
      </trkpt>
      <trkpt lat="43.6087" lon="3.7279">
        <ele>167</ele>
        <time>2021-01-23T13:03:02Z</time>
      </trkpt>
      <trkpt lat="43.60869" lon="3.72785">
        <ele>154.2</ele>
        <time>2021-01-23T13:03:03Z</time>
      </trkpt>
      <trkpt lat="43.60867" lon="3.72781">
        <ele>154</ele>
        <time>2021-01-23T13:03:04Z</time>
      </trkpt>
      <trkpt lat="43.60864" lon="3.72778">
        <ele>153.9</ele>
        <time>2021-01-23T13:03:05Z</time>
      </trkpt>
      <trkpt lat="43.60861" lon="3.72776">
        <ele>153.9</ele>
        <time>2021-01-23T13:03:06Z</time>
      </trkpt>
      <trkpt lat="43.60858" lon="3.72777">
        <ele>154.1</ele>
        <time>2021-01-23T13:03:07Z</time>
      </trkpt>
      <trkpt lat="43.60854" lon="3.72778">
        <ele>154.3</ele>
        <time>2021-01-23T13:03:08Z</time>
      </trkpt>
      <trkpt lat="43.60851" lon="3.72779">
        <ele>154.4</ele>
        <time>2021-01-23T13:03:09Z</time>
      </trkpt>
      <trkpt lat="43.60848" lon="3.7278">
        <ele>154.6</ele>
        <time>2021-01-23T13:03:10Z</time>
      </trkpt>
      <trkpt lat="43.60844" lon="3.72781">
        <ele>154.7</ele>
        <time>2021-01-23T13:03:11Z</time>
      </trkpt>
      <trkpt lat="43.60841" lon="3.72781">
        <ele>164</ele>
        <time>2021-01-23T13:03:12Z</time>
      </trkpt>
      <trkpt lat="43.60837" lon="3.7278">
        <ele>154.9</ele>
        <time>2021-01-23T13:03:13Z</time>
      </trkpt>
      <trkpt lat="43.60835" lon="3.72778">
        <ele>154.9</ele>
        <time>2021-01-23T13:03:14Z</time>
      </trkpt>
      <trkpt lat="43.60834" lon="3.72774">
        <ele>154.8</ele>
        <time>2021-01-23T13:03:15Z</time>
      </trkpt>
      <trkpt lat="43.60833" lon="3.7277">
        <ele>154.7</ele>
        <time>2021-01-23T13:03:16Z</time>
      </trkpt>
      <trkpt lat="43.60833" lon="3.72766">
        <ele>154.6</ele>
        <time>2021-01-23T13:03:17Z</time>
      </trkpt>
      <trkpt lat="43.60832" lon="3.72762">
        <ele>154.5</ele>
        <time>2021-01-23T13:03:18Z</time>
      </trkpt>
      <trkpt lat="43.60831" lon="3.72758">
        <ele>154.5</ele>
        <time>2021-01-23T13:03:19Z</time>
      </trkpt>
      <trkpt lat="43.6083" lon="3.72753">
        <ele>154.4</ele>
        <time>2021-01-23T13:03:20Z</time>
      </trkpt>
      <trkpt lat="43.60829" lon="3.72749">
        <ele>154.5</ele>
        <time>2021-01-23T13:03:21Z</time>
      </trkpt>
      <trkpt lat="43.60828" lon="3.72745">
        <ele>163</ele>
        <time>2021-01-23T13:03:22Z</time>
      </trkpt>
      <trkpt lat="43.60827" lon="3.72741">
        <ele>154.7</ele>
        <time>2021-01-23T13:03:23Z</time>
      </trkpt>
      <trkpt lat="43.60826" lon="3.72736">
        <ele>154.8</ele>
        <time>2021-01-23T13:03:24Z</time>
      </trkpt>
      <trkpt lat="43.60825" lon="3.72732">
        <ele>154.9</ele>
        <time>2021-01-23T13:03:25Z</time>
      </trkpt>
      <trkpt lat="43.60825" lon="3.72727">
        <ele>154.9</ele>
        <time>2021-01-23T13:03:26Z</time>
      </trkpt>
      <trkpt lat="43.60824" lon="3.72723">
        <ele>155</ele>
        <time>2021-01-23T13:03:27Z</time>
      </trkpt>
      <trkpt lat="43.60823" lon="3.72719">
        <ele>155.2</ele>
        <time>2021-01-23T13:03:28Z</time>
      </trkpt>
      <trkpt lat="43.60822" lon="3.72716">
        <ele>155.4</ele>
        <time>2021-01-23T13:03:29Z</time>
      </trkpt>
      <trkpt lat="43.60821" lon="3.72712">
        <ele>155.7</ele>
        <time>2021-01-23T13:03:30Z</time>
      </trkpt>
      <trkpt lat="43.60821" lon="3.72707">
        <ele>155.9</ele>
        <time>2021-01-23T13:03:31Z</time>
      </trkpt>
      <trkpt lat="43.6082" lon="3.72703">
        <ele>163</ele>
        <time>2021-01-23T13:03:32Z</time>
      </trkpt>
      <trkpt lat="43.60819" lon="3.72699">
        <ele>156.4</ele>
        <time>2021-01-23T13:03:33Z</time>
      </trkpt>
      <trkpt lat="43.60819" lon="3.72695">
        <ele>156.5</ele>
        <time>2021-01-23T13:03:34Z</time>
      </trkpt>
      <trkpt lat="43.60818" lon="3.72691">
        <ele>156.7</ele>
        <time>2021-01-23T13:03:35Z</time>
      </trkpt>
      <trkpt lat="43.60818" lon="3.72687">
        <ele>156.8</ele>
        <time>2021-01-23T13:03:36Z</time>
      </trkpt>
      <trkpt lat="43.60818" lon="3.72683">
        <ele>156.9</ele>
        <time>2021-01-23T13:03:37Z</time>
      </trkpt>
      <trkpt lat="43.60817" lon="3.7268">
        <ele>157.1</ele>
        <time>2021-01-23T13:03:38Z</time>
      </trkpt>
      <trkpt lat="43.60817" lon="3.72676">
        <ele>157.2</ele>
        <time>2021-01-23T13:03:39Z</time>
      </trkpt>
      <trkpt lat="43.60816" lon="3.72673">
        <ele>157.4</ele>
        <time>2021-01-23T13:03:40Z</time>
      </trkpt>
      <trkpt lat="43.60816" lon="3.72669">
        <ele>157.4</ele>
        <time>2021-01-23T13:03:41Z</time>
      </trkpt>
      <trkpt lat="43.60815" lon="3.72666">
        <ele>163</ele>
        <time>2021-01-23T13:03:42Z</time>
      </trkpt>
      <trkpt lat="43.60815" lon="3.72662">
        <ele>157.7</ele>
        <time>2021-01-23T13:03:43Z</time>
      </trkpt>
      <trkpt lat="43.60814" lon="3.72659">
        <ele>157.9</ele>
        <time>2021-01-23T13:03:44Z</time>
      </trkpt>
      <trkpt lat="43.60814" lon="3.72655">
        <ele>157.9</ele>
        <time>2021-01-23T13:03:45Z</time>
      </trkpt>
      <trkpt lat="43.60813" lon="3.72652">
        <ele>158.1</ele>
        <time>2021-01-23T13:03:46Z</time>
      </trkpt>
      <trkpt lat="43.60813" lon="3.72648">
        <ele>158.1</ele>
        <time>2021-01-23T13:03:47Z</time>
      </trkpt>
      <trkpt lat="43.60812" lon="3.72644">
        <ele>158.3</ele>
        <time>2021-01-23T13:03:48Z</time>
      </trkpt>
      <trkpt lat="43.60811" lon="3.72641">
        <ele>158.4</ele>
        <time>2021-01-23T13:03:49Z</time>
      </trkpt>
      <trkpt lat="43.60811" lon="3.72638">
        <ele>158.4</ele>
        <time>2021-01-23T13:03:50Z</time>
      </trkpt>
      <trkpt lat="43.6081" lon="3.72635">
        <ele>158.5</ele>
        <time>2021-01-23T13:03:51Z</time>
      </trkpt>
      <trkpt lat="43.60809" lon="3.72633">
        <ele>163</ele>
        <time>2021-01-23T13:03:52Z</time>
      </trkpt>
      <trkpt lat="43.60809" lon="3.7263">
        <ele>158.7</ele>
        <time>2021-01-23T13:03:53Z</time>
      </trkpt>
      <trkpt lat="43.60808" lon="3.72628">
        <ele>158.8</ele>
        <time>2021-01-23T13:03:54Z</time>
      </trkpt>
      <trkpt lat="43.60807" lon="3.72625">
        <ele>158.9</ele>
        <time>2021-01-23T13:03:55Z</time>
      </trkpt>
      <trkpt lat="43.60807" lon="3.72623">
        <ele>158.9</ele>
        <time>2021-01-23T13:03:56Z</time>
      </trkpt>
      <trkpt lat="43.60806" lon="3.7262">
        <ele>159</ele>
        <time>2021-01-23T13:03:57Z</time>
      </trkpt>
      <trkpt lat="43.60806" lon="3.72617">
        <ele>159</ele>
        <time>2021-01-23T13:03:58Z</time>
      </trkpt>
      <trkpt lat="43.60805" lon="3.72615">
        <ele>159.1</ele>
        <time>2021-01-23T13:03:59Z</time>
      </trkpt>
      <trkpt lat="43.60805" lon="3.72612">
        <ele>159.1</ele>
        <time>2021-01-23T13:04:00Z</time>
      </trkpt>
      <trkpt lat="43.60804" lon="3.72609">
        <ele>159.3</ele>
        <time>2021-01-23T13:04:01Z</time>
      </trkpt>
      <trkpt lat="43.60804" lon="3.72607">
        <ele>163</ele>
        <time>2021-01-23T13:04:02Z</time>
      </trkpt>
      <trkpt lat="43.60803" lon="3.72603">
        <ele>159.5</ele>
        <time>2021-01-23T13:04:03Z</time>
      </trkpt>
      <trkpt lat="43.60803" lon="3.72601">
        <ele>159.5</ele>
        <time>2021-01-23T13:04:04Z</time>
      </trkpt>
      <trkpt lat="43.60802" lon="3.72598">
        <ele>159.6</ele>
        <time>2021-01-23T13:04:05Z</time>
      </trkpt>
      <trkpt lat="43.60802" lon="3.72595">
        <ele>159.6</ele>
        <time>2021-01-23T13:04:06Z</time>
      </trkpt>
      <trkpt lat="43.60801" lon="3.72592">
        <ele>159.8</ele>
        <time>2021-01-23T13:04:07Z</time>
      </trkpt>
      <trkpt lat="43.608" lon="3.72589">
        <ele>160</ele>
        <time>2021-01-23T13:04:08Z</time>
      </trkpt>
      <trkpt lat="43.608" lon="3.72587">
        <ele>160</ele>
        <time>2021-01-23T13:04:09Z</time>
      </trkpt>
      <trkpt lat="43.60799" lon="3.72584">
        <ele>160.2</ele>
        <time>2021-01-23T13:04:10Z</time>
      </trkpt>
      <trkpt lat="43.60798" lon="3.72582">
        <ele>160.4</ele>
        <time>2021-01-23T13:04:11Z</time>
      </trkpt>
      <trkpt lat="43.60797" lon="3.72579">
        <ele>164</ele>
        <time>2021-01-23T13:04:12Z</time>
      </trkpt>
      <trkpt lat="43.60796" lon="3.72577">
        <ele>160.9</ele>
        <time>2021-01-23T13:04:13Z</time>
      </trkpt>
      <trkpt lat="43.60795" lon="3.72575">
        <ele>161.1</ele>
        <time>2021-01-23T13:04:14Z</time>
      </trkpt>
      <trkpt lat="43.60794" lon="3.72572">
        <ele>161.3</ele>
        <time>2021-01-23T13:04:15Z</time>
      </trkpt>
      <trkpt lat="43.60794" lon="3.7257">
        <ele>161.4</ele>
        <time>2021-01-23T13:04:16Z</time>
      </trkpt>
      <trkpt lat="43.60793" lon="3.72567">
        <ele>161.6</ele>
        <time>2021-01-23T13:04:17Z</time>
      </trkpt>
      <trkpt lat="43.60792" lon="3.72564">
        <ele>161.8</ele>
        <time>2021-01-23T13:04:18Z</time>
      </trkpt>
      <trkpt lat="43.60791" lon="3.72562">
        <ele>162</ele>
        <time>2021-01-23T13:04:19Z</time>
      </trkpt>
      <trkpt lat="43.6079" lon="3.72559">
        <ele>162.2</ele>
        <time>2021-01-23T13:04:20Z</time>
      </trkpt>
      <trkpt lat="43.60789" lon="3.72557">
        <ele>162.4</ele>
        <time>2021-01-23T13:04:21Z</time>
      </trkpt>
      <trkpt lat="43.60788" lon="3.72555">
        <ele>165</ele>
        <time>2021-01-23T13:04:22Z</time>
      </trkpt>
      <trkpt lat="43.60786" lon="3.7255">
        <ele>162.7</ele>
        <time>2021-01-23T13:04:24Z</time>
      </trkpt>
      <trkpt lat="43.60785" lon="3.72548">
        <ele>162.8</ele>
        <time>2021-01-23T13:04:25Z</time>
      </trkpt>
      <trkpt lat="43.60784" lon="3.72544">
        <ele>162.8</ele>
        <time>2021-01-23T13:04:27Z</time>
      </trkpt>
      <trkpt lat="43.60783" lon="3.72541">
        <ele>162.8</ele>
        <time>2021-01-23T13:04:28Z</time>
      </trkpt>
      <trkpt lat="43.60782" lon="3.72538">
        <ele>162.9</ele>
        <time>2021-01-23T13:04:29Z</time>
      </trkpt>
      <trkpt lat="43.60782" lon="3.72536">
        <ele>162.8</ele>
        <time>2021-01-23T13:04:30Z</time>
      </trkpt>
      <trkpt lat="43.60781" lon="3.72533">
        <ele>162.8</ele>
        <time>2021-01-23T13:04:31Z</time>
      </trkpt>
      <trkpt lat="43.6078" lon="3.7253">
        <ele>166</ele>
        <time>2021-01-23T13:04:32Z</time>
      </trkpt>
      <trkpt lat="43.60779" lon="3.72528">
        <ele>162.9</ele>
        <time>2021-01-23T13:04:33Z</time>
      </trkpt>
      <trkpt lat="43.60778" lon="3.72525">
        <ele>163</ele>
        <time>2021-01-23T13:04:34Z</time>
      </trkpt>
      <trkpt lat="43.60777" lon="3.72522">
        <ele>163.1</ele>
        <time>2021-01-23T13:04:35Z</time>
      </trkpt>
      <trkpt lat="43.60777" lon="3.72519">
        <ele>163.1</ele>
        <time>2021-01-23T13:04:36Z</time>
      </trkpt>
      <trkpt lat="43.60776" lon="3.72516">
        <ele>163.3</ele>
        <time>2021-01-23T13:04:37Z</time>
      </trkpt>
      <trkpt lat="43.60776" lon="3.72514">
        <ele>163.3</ele>
        <time>2021-01-23T13:04:38Z</time>
      </trkpt>
      <trkpt lat="43.60775" lon="3.72511">
        <ele>163.4</ele>
        <time>2021-01-23T13:04:39Z</time>
      </trkpt>
      <trkpt lat="43.60774" lon="3.72508">
        <ele>163.6</ele>
        <time>2021-01-23T13:04:40Z</time>
      </trkpt>
      <trkpt lat="43.60774" lon="3.72506">
        <ele>163.6</ele>
        <time>2021-01-23T13:04:41Z</time>
      </trkpt>
      <trkpt lat="43.60773" lon="3.72503">
        <ele>168</ele>
        <time>2021-01-23T13:04:42Z</time>
      </trkpt>
      <trkpt lat="43.60772" lon="3.725">
        <ele>163.8</ele>
        <time>2021-01-23T13:04:43Z</time>
      </trkpt>
      <trkpt lat="43.60772" lon="3.72498">
        <ele>163.8</ele>
        <time>2021-01-23T13:04:44Z</time>
      </trkpt>
      <trkpt lat="43.60771" lon="3.72495">
        <ele>164</ele>
        <time>2021-01-23T13:04:45Z</time>
      </trkpt>
      <trkpt lat="43.6077" lon="3.72492">
        <ele>164.1</ele>
        <time>2021-01-23T13:04:46Z</time>
      </trkpt>
      <trkpt lat="43.6077" lon="3.7249">
        <ele>164.1</ele>
        <time>2021-01-23T13:04:47Z</time>
      </trkpt>
      <trkpt lat="43.60769" lon="3.72487">
        <ele>164.3</ele>
        <time>2021-01-23T13:04:48Z</time>
      </trkpt>
      <trkpt lat="43.60768" lon="3.72485">
        <ele>164.4</ele>
        <time>2021-01-23T13:04:49Z</time>
      </trkpt>
      <trkpt lat="43.60767" lon="3.72483">
        <ele>164.6</ele>
        <time>2021-01-23T13:04:50Z</time>
      </trkpt>
      <trkpt lat="43.60767" lon="3.7248">
        <ele>164.6</ele>
        <time>2021-01-23T13:04:51Z</time>
      </trkpt>
      <trkpt lat="43.60765" lon="3.72476">
        <ele>169</ele>
        <time>2021-01-23T13:04:52Z</time>
      </trkpt>
      <trkpt lat="43.60764" lon="3.72471">
        <ele>165</ele>
        <time>2021-01-23T13:04:54Z</time>
      </trkpt>
      <trkpt lat="43.60763" lon="3.72468">
        <ele>165.2</ele>
        <time>2021-01-23T13:04:55Z</time>
      </trkpt>
      <trkpt lat="43.60762" lon="3.72466">
        <ele>165.4</ele>
        <time>2021-01-23T13:04:56Z</time>
      </trkpt>
      <trkpt lat="43.60762" lon="3.72463">
        <ele>165.4</ele>
        <time>2021-01-23T13:04:57Z</time>
      </trkpt>
      <trkpt lat="43.60761" lon="3.72461">
        <ele>165.6</ele>
        <time>2021-01-23T13:04:58Z</time>
      </trkpt>
      <trkpt lat="43.6076" lon="3.72459">
        <ele>165.7</ele>
        <time>2021-01-23T13:04:59Z</time>
      </trkpt>
      <trkpt lat="43.60759" lon="3.72456">
        <ele>165.9</ele>
        <time>2021-01-23T13:05:00Z</time>
      </trkpt>
      <trkpt lat="43.60759" lon="3.72454">
        <ele>165.9</ele>
        <time>2021-01-23T13:05:01Z</time>
      </trkpt>
      <trkpt lat="43.60757" lon="3.72449">
        <ele>166.2</ele>
        <time>2021-01-23T13:05:04Z</time>
      </trkpt>
      <trkpt lat="43.60756" lon="3.72445">
        <ele>166.3</ele>
        <time>2021-01-23T13:05:06Z</time>
      </trkpt>
      <trkpt lat="43.60755" lon="3.72441">
        <ele>166.5</ele>
        <time>2021-01-23T13:05:08Z</time>
      </trkpt>
      <trkpt lat="43.60754" lon="3.72436">
        <ele>166.6</ele>
        <time>2021-01-23T13:05:10Z</time>
      </trkpt>
      <trkpt lat="43.60752" lon="3.72432">
        <ele>171</ele>
        <time>2021-01-23T13:05:12Z</time>
      </trkpt>
      <trkpt lat="43.60751" lon="3.72428">
        <ele>166.9</ele>
        <time>2021-01-23T13:05:14Z</time>
      </trkpt>
      <trkpt lat="43.6075" lon="3.72424">
        <ele>167</ele>
        <time>2021-01-23T13:05:16Z</time>
      </trkpt>
      <trkpt lat="43.60749" lon="3.7242">
        <ele>167.1</ele>
        <time>2021-01-23T13:05:18Z</time>
      </trkpt>
      <trkpt lat="43.60748" lon="3.72415">
        <ele>167.3</ele>
        <time>2021-01-23T13:05:20Z</time>
      </trkpt>
      <trkpt lat="43.60747" lon="3.72411">
        <ele>172</ele>
        <time>2021-01-23T13:05:22Z</time>
      </trkpt>
      <trkpt lat="43.60745" lon="3.72407">
        <ele>168.1</ele>
        <time>2021-01-23T13:05:24Z</time>
      </trkpt>
      <trkpt lat="43.60744" lon="3.72404">
        <ele>168.3</ele>
        <time>2021-01-23T13:05:25Z</time>
      </trkpt>
      <trkpt lat="43.60742" lon="3.724">
        <ele>168.8</ele>
        <time>2021-01-23T13:05:27Z</time>
      </trkpt>
      <trkpt lat="43.60741" lon="3.72397">
        <ele>169</ele>
        <time>2021-01-23T13:05:29Z</time>
      </trkpt>
      <trkpt lat="43.60739" lon="3.72393">
        <ele>169.4</ele>
        <time>2021-01-23T13:05:31Z</time>
      </trkpt>
      <trkpt lat="43.60736" lon="3.7239">
        <ele>170</ele>
        <time>2021-01-23T13:05:34Z</time>
      </trkpt>
      <trkpt lat="43.60735" lon="3.72387">
        <ele>170.3</ele>
        <time>2021-01-23T13:05:36Z</time>
      </trkpt>
      <trkpt lat="43.60733" lon="3.72384">
        <ele>170.7</ele>
        <time>2021-01-23T13:05:38Z</time>
      </trkpt>
      <trkpt lat="43.60731" lon="3.72381">
        <ele>171.1</ele>
        <time>2021-01-23T13:05:40Z</time>
      </trkpt>
      <trkpt lat="43.60729" lon="3.72377">
        <ele>174</ele>
        <time>2021-01-23T13:05:42Z</time>
      </trkpt>
      <trkpt lat="43.60728" lon="3.72374">
        <ele>171.8</ele>
        <time>2021-01-23T13:05:44Z</time>
      </trkpt>
      <trkpt lat="43.60726" lon="3.72371">
        <ele>172.2</ele>
        <time>2021-01-23T13:05:46Z</time>
      </trkpt>
      <trkpt lat="43.60725" lon="3.72367">
        <ele>172.5</ele>
        <time>2021-01-23T13:05:48Z</time>
      </trkpt>
      <trkpt lat="43.60724" lon="3.72364">
        <ele>172.7</ele>
        <time>2021-01-23T13:05:50Z</time>
      </trkpt>
      <trkpt lat="43.60723" lon="3.7236">
        <ele>175</ele>
        <time>2021-01-23T13:05:52Z</time>
      </trkpt>
      <trkpt lat="43.60721" lon="3.72357">
        <ele>173.3</ele>
        <time>2021-01-23T13:05:54Z</time>
      </trkpt>
      <trkpt lat="43.60719" lon="3.72355">
        <ele>173.7</ele>
        <time>2021-01-23T13:05:56Z</time>
      </trkpt>
      <trkpt lat="43.60717" lon="3.72353">
        <ele>174</ele>
        <time>2021-01-23T13:05:58Z</time>
      </trkpt>
      <trkpt lat="43.60716" lon="3.7235">
        <ele>174.2</ele>
        <time>2021-01-23T13:06:00Z</time>
      </trkpt>
      <trkpt lat="43.60714" lon="3.72349">
        <ele>177</ele>
        <time>2021-01-23T13:06:02Z</time>
      </trkpt>
      <trkpt lat="43.60712" lon="3.72348">
        <ele>174.8</ele>
        <time>2021-01-23T13:06:04Z</time>
      </trkpt>
      <trkpt lat="43.60709" lon="3.72347">
        <ele>175.2</ele>
        <time>2021-01-23T13:06:06Z</time>
      </trkpt>
      <trkpt lat="43.60707" lon="3.72345">
        <ele>175.5</ele>
        <time>2021-01-23T13:06:08Z</time>
      </trkpt>
      <trkpt lat="43.60706" lon="3.72341">
        <ele>175.6</ele>
        <time>2021-01-23T13:06:10Z</time>
      </trkpt>
      <trkpt lat="43.60705" lon="3.72338">
        <ele>175.8</ele>
        <time>2021-01-23T13:06:11Z</time>
      </trkpt>
      <trkpt lat="43.60705" lon="3.72336">
        <ele>178</ele>
        <time>2021-01-23T13:06:12Z</time>
      </trkpt>
      <trkpt lat="43.60705" lon="3.72333">
        <ele>175.9</ele>
        <time>2021-01-23T13:06:13Z</time>
      </trkpt>
      <trkpt lat="43.60705" lon="3.7233">
        <ele>175.9</ele>
        <time>2021-01-23T13:06:14Z</time>
      </trkpt>
      <trkpt lat="43.60704" lon="3.72328">
        <ele>176</ele>
        <time>2021-01-23T13:06:15Z</time>
      </trkpt>
      <trkpt lat="43.60703" lon="3.72325">
        <ele>176.2</ele>
        <time>2021-01-23T13:06:16Z</time>
      </trkpt>
      <trkpt lat="43.60702" lon="3.72323">
        <ele>176.3</ele>
        <time>2021-01-23T13:06:17Z</time>
      </trkpt>
      <trkpt lat="43.60701" lon="3.7232">
        <ele>176.4</ele>
        <time>2021-01-23T13:06:18Z</time>
      </trkpt>
      <trkpt lat="43.607" lon="3.72318">
        <ele>176.5</ele>
        <time>2021-01-23T13:06:19Z</time>
      </trkpt>
      <trkpt lat="43.60699" lon="3.72316">
        <ele>176.6</ele>
        <time>2021-01-23T13:06:20Z</time>
      </trkpt>
      <trkpt lat="43.60696" lon="3.72313">
        <ele>180</ele>
        <time>2021-01-23T13:06:22Z</time>
      </trkpt>
      <trkpt lat="43.60694" lon="3.7231">
        <ele>177</ele>
        <time>2021-01-23T13:06:24Z</time>
      </trkpt>
      <trkpt lat="43.60694" lon="3.72306">
        <ele>177</ele>
        <time>2021-01-23T13:06:26Z</time>
      </trkpt>
      <trkpt lat="43.60695" lon="3.72304">
        <ele>177</ele>
        <time>2021-01-23T13:06:27Z</time>
      </trkpt>
      <trkpt lat="43.60695" lon="3.72301">
        <ele>177</ele>
        <time>2021-01-23T13:06:28Z</time>
      </trkpt>
      <trkpt lat="43.60694" lon="3.72298">
        <ele>177</ele>
        <time>2021-01-23T13:06:30Z</time>
      </trkpt>
      <trkpt lat="43.60691" lon="3.72295">
        <ele>180</ele>
        <time>2021-01-23T13:06:32Z</time>
      </trkpt>
      <trkpt lat="43.6069" lon="3.72292">
        <ele>176.5</ele>
        <time>2021-01-23T13:06:33Z</time>
      </trkpt>
      <trkpt lat="43.60689" lon="3.7229">
        <ele>176.4</ele>
        <time>2021-01-23T13:06:34Z</time>
      </trkpt>
      <trkpt lat="43.60688" lon="3.72288">
        <ele>176.2</ele>
        <time>2021-01-23T13:06:35Z</time>
      </trkpt>
      <trkpt lat="43.60688" lon="3.72285">
        <ele>176.1</ele>
        <time>2021-01-23T13:06:36Z</time>
      </trkpt>
      <trkpt lat="43.60687" lon="3.72282">
        <ele>175.8</ele>
        <time>2021-01-23T13:06:37Z</time>
      </trkpt>
      <trkpt lat="43.60687" lon="3.7228">
        <ele>175.7</ele>
        <time>2021-01-23T13:06:38Z</time>
      </trkpt>
      <trkpt lat="43.60684" lon="3.72277">
        <ele>175</ele>
        <time>2021-01-23T13:06:40Z</time>
      </trkpt>
      <trkpt lat="43.60682" lon="3.72272">
        <ele>180</ele>
        <time>2021-01-23T13:06:42Z</time>
      </trkpt>
      <trkpt lat="43.60683" lon="3.72269">
        <ele>173.9</ele>
        <time>2021-01-23T13:06:43Z</time>
      </trkpt>
      <trkpt lat="43.60684" lon="3.72265">
        <ele>173.6</ele>
        <time>2021-01-23T13:06:44Z</time>
      </trkpt>
      <trkpt lat="43.60684" lon="3.7226">
        <ele>173</ele>
        <time>2021-01-23T13:06:45Z</time>
      </trkpt>
      <trkpt lat="43.60684" lon="3.72255">
        <ele>172.4</ele>
        <time>2021-01-23T13:06:46Z</time>
      </trkpt>
      <trkpt lat="43.60685" lon="3.72251">
        <ele>172.1</ele>
        <time>2021-01-23T13:06:47Z</time>
      </trkpt>
      <trkpt lat="43.60685" lon="3.72246">
        <ele>171.8</ele>
        <time>2021-01-23T13:06:48Z</time>
      </trkpt>
      <trkpt lat="43.60686" lon="3.72241">
        <ele>171.8</ele>
        <time>2021-01-23T13:06:49Z</time>
      </trkpt>
      <trkpt lat="43.60686" lon="3.72235">
        <ele>171.5</ele>
        <time>2021-01-23T13:06:50Z</time>
      </trkpt>
      <trkpt lat="43.60686" lon="3.72229">
        <ele>171.2</ele>
        <time>2021-01-23T13:06:51Z</time>
      </trkpt>
      <trkpt lat="43.60686" lon="3.72224">
        <ele>179</ele>
        <time>2021-01-23T13:06:52Z</time>
      </trkpt>
      <trkpt lat="43.60685" lon="3.72218">
        <ele>170.7</ele>
        <time>2021-01-23T13:06:53Z</time>
      </trkpt>
      <trkpt lat="43.60683" lon="3.72213">
        <ele>170.3</ele>
        <time>2021-01-23T13:06:54Z</time>
      </trkpt>
      <trkpt lat="43.6068" lon="3.72206">
        <ele>169.6</ele>
        <time>2021-01-23T13:06:55Z</time>
      </trkpt>
      <trkpt lat="43.60677" lon="3.722">
        <ele>168.9</ele>
        <time>2021-01-23T13:06:56Z</time>
      </trkpt>
      <trkpt lat="43.60675" lon="3.72194">
        <ele>168.4</ele>
        <time>2021-01-23T13:06:57Z</time>
      </trkpt>
      <trkpt lat="43.60672" lon="3.72186">
        <ele>167.9</ele>
        <time>2021-01-23T13:06:58Z</time>
      </trkpt>
      <trkpt lat="43.60668" lon="3.72178">
        <ele>167</ele>
        <time>2021-01-23T13:06:59Z</time>
      </trkpt>
      <trkpt lat="43.60666" lon="3.7217">
        <ele>166.8</ele>
        <time>2021-01-23T13:07:00Z</time>
      </trkpt>
      <trkpt lat="43.60663" lon="3.72161">
        <ele>166.7</ele>
        <time>2021-01-23T13:07:01Z</time>
      </trkpt>
      <trkpt lat="43.60661" lon="3.72154">
        <ele>179</ele>
        <time>2021-01-23T13:07:02Z</time>
      </trkpt>
      <trkpt lat="43.60658" lon="3.72147">
        <ele>166.6</ele>
        <time>2021-01-23T13:07:03Z</time>
      </trkpt>
      <trkpt lat="43.60655" lon="3.72141">
        <ele>166.4</ele>
        <time>2021-01-23T13:07:04Z</time>
      </trkpt>
      <trkpt lat="43.60652" lon="3.72135">
        <ele>166.1</ele>
        <time>2021-01-23T13:07:05Z</time>
      </trkpt>
      <trkpt lat="43.60648" lon="3.72129">
        <ele>165.8</ele>
        <time>2021-01-23T13:07:06Z</time>
      </trkpt>
      <trkpt lat="43.60644" lon="3.72123">
        <ele>165.6</ele>
        <time>2021-01-23T13:07:07Z</time>
      </trkpt>
      <trkpt lat="43.60639" lon="3.7212">
        <ele>165.1</ele>
        <time>2021-01-23T13:07:08Z</time>
      </trkpt>
      <trkpt lat="43.60634" lon="3.72117">
        <ele>165</ele>
        <time>2021-01-23T13:07:09Z</time>
      </trkpt>
      <trkpt lat="43.60629" lon="3.72114">
        <ele>164.9</ele>
        <time>2021-01-23T13:07:10Z</time>
      </trkpt>
      <trkpt lat="43.60624" lon="3.72112">
        <ele>164.8</ele>
        <time>2021-01-23T13:07:11Z</time>
      </trkpt>
      <trkpt lat="43.6062" lon="3.7211">
        <ele>178</ele>
        <time>2021-01-23T13:07:12Z</time>
      </trkpt>
      <trkpt lat="43.60617" lon="3.72108">
        <ele>164.9</ele>
        <time>2021-01-23T13:07:13Z</time>
      </trkpt>
      <trkpt lat="43.60614" lon="3.72106">
        <ele>164.9</ele>
        <time>2021-01-23T13:07:14Z</time>
      </trkpt>
      <trkpt lat="43.60611" lon="3.72103">
        <ele>165.1</ele>
        <time>2021-01-23T13:07:15Z</time>
      </trkpt>
      <trkpt lat="43.60609" lon="3.721">
        <ele>165.2</ele>
        <time>2021-01-23T13:07:16Z</time>
      </trkpt>
      <trkpt lat="43.60608" lon="3.72097">
        <ele>165.5</ele>
        <time>2021-01-23T13:07:17Z</time>
      </trkpt>
      <trkpt lat="43.60606" lon="3.72095">
        <ele>165.4</ele>
        <time>2021-01-23T13:07:18Z</time>
      </trkpt>
      <trkpt lat="43.60604" lon="3.72093">
        <ele>165.3</ele>
        <time>2021-01-23T13:07:19Z</time>
      </trkpt>
      <trkpt lat="43.60603" lon="3.7209">
        <ele>165.4</ele>
        <time>2021-01-23T13:07:20Z</time>
      </trkpt>
      <trkpt lat="43.60601" lon="3.72088">
        <ele>165.3</ele>
        <time>2021-01-23T13:07:21Z</time>
      </trkpt>
      <trkpt lat="43.606" lon="3.72086">
        <ele>178</ele>
        <time>2021-01-23T13:07:22Z</time>
      </trkpt>
      <trkpt lat="43.60598" lon="3.72084">
        <ele>165.1</ele>
        <time>2021-01-23T13:07:23Z</time>
      </trkpt>
      <trkpt lat="43.60597" lon="3.72082">
        <ele>165.2</ele>
        <time>2021-01-23T13:07:24Z</time>
      </trkpt>
      <trkpt lat="43.60595" lon="3.72079">
        <ele>165.2</ele>
        <time>2021-01-23T13:07:26Z</time>
      </trkpt>
      <trkpt lat="43.606" lon="3.72088">
        <ele>179</ele>
        <time>2021-01-23T13:07:47Z</time>
      </trkpt>
      <trkpt lat="43.60602" lon="3.72089">
        <ele>165.3</ele>
        <time>2021-01-23T13:07:48Z</time>
      </trkpt>
      <trkpt lat="43.60604" lon="3.72091">
        <ele>165.5</ele>
        <time>2021-01-23T13:07:49Z</time>
      </trkpt>
      <trkpt lat="43.60605" lon="3.72093">
        <ele>165.4</ele>
        <time>2021-01-23T13:07:50Z</time>
      </trkpt>
      <trkpt lat="43.60607" lon="3.72096">
        <ele>165.4</ele>
        <time>2021-01-23T13:07:51Z</time>
      </trkpt>
      <trkpt lat="43.6061" lon="3.72098">
        <ele>165.7</ele>
        <time>2021-01-23T13:07:52Z</time>
      </trkpt>
      <trkpt lat="43.60613" lon="3.721">
        <ele>165.7</ele>
        <time>2021-01-23T13:07:53Z</time>
      </trkpt>
      <trkpt lat="43.60615" lon="3.72101">
        <ele>165.7</ele>
        <time>2021-01-23T13:07:54Z</time>
      </trkpt>
      <trkpt lat="43.60617" lon="3.72103">
        <ele>165.6</ele>
        <time>2021-01-23T13:07:55Z</time>
      </trkpt>
      <trkpt lat="43.60618" lon="3.72105">
        <ele>179</ele>
        <time>2021-01-23T13:07:56Z</time>
      </trkpt>
      <trkpt lat="43.60618" lon="3.72108">
        <ele>164.9</ele>
        <time>2021-01-23T13:07:57Z</time>
      </trkpt>
      <trkpt lat="43.60616" lon="3.72109">
        <ele>164.7</ele>
        <time>2021-01-23T13:07:58Z</time>
      </trkpt>
      <trkpt lat="43.60614" lon="3.72111">
        <ele>164.2</ele>
        <time>2021-01-23T13:07:59Z</time>
      </trkpt>
      <trkpt lat="43.60611" lon="3.72114">
        <ele>163.6</ele>
        <time>2021-01-23T13:08:00Z</time>
      </trkpt>
      <trkpt lat="43.60608" lon="3.72119">
        <ele>162.5</ele>
        <time>2021-01-23T13:08:01Z</time>
      </trkpt>
      <trkpt lat="43.60605" lon="3.72125">
        <ele>161.5</ele>
        <time>2021-01-23T13:08:02Z</time>
      </trkpt>
      <trkpt lat="43.60602" lon="3.72131">
        <ele>160.5</ele>
        <time>2021-01-23T13:08:03Z</time>
      </trkpt>
      <trkpt lat="43.60599" lon="3.72137">
        <ele>159.7</ele>
        <time>2021-01-23T13:08:04Z</time>
      </trkpt>
      <trkpt lat="43.60596" lon="3.72142">
        <ele>159.5</ele>
        <time>2021-01-23T13:08:05Z</time>
      </trkpt>
      <trkpt lat="43.60593" lon="3.72146">
        <ele>178</ele>
        <time>2021-01-23T13:08:06Z</time>
      </trkpt>
      <trkpt lat="43.6059" lon="3.72149">
        <ele>159.2</ele>
        <time>2021-01-23T13:08:07Z</time>
      </trkpt>
      <trkpt lat="43.60587" lon="3.72151">
        <ele>159.1</ele>
        <time>2021-01-23T13:08:08Z</time>
      </trkpt>
      <trkpt lat="43.60584" lon="3.72155">
        <ele>159</ele>
        <time>2021-01-23T13:08:09Z</time>
      </trkpt>
      <trkpt lat="43.6058" lon="3.72159">
        <ele>159</ele>
        <time>2021-01-23T13:08:10Z</time>
      </trkpt>
      <trkpt lat="43.60577" lon="3.72163">
        <ele>159</ele>
        <time>2021-01-23T13:08:11Z</time>
      </trkpt>
      <trkpt lat="43.60574" lon="3.72164">
        <ele>159</ele>
        <time>2021-01-23T13:08:12Z</time>
      </trkpt>
      <trkpt lat="43.60572" lon="3.72164">
        <ele>159</ele>
        <time>2021-01-23T13:08:13Z</time>
      </trkpt>
      <trkpt lat="43.60571" lon="3.72161">
        <ele>159</ele>
        <time>2021-01-23T13:08:14Z</time>
      </trkpt>
      <trkpt lat="43.6057" lon="3.72158">
        <ele>159</ele>
        <time>2021-01-23T13:08:15Z</time>
      </trkpt>
      <trkpt lat="43.60569" lon="3.72154">
        <ele>175</ele>
        <time>2021-01-23T13:08:16Z</time>
      </trkpt>
      <trkpt lat="43.60569" lon="3.7215">
        <ele>159</ele>
        <time>2021-01-23T13:08:17Z</time>
      </trkpt>
      <trkpt lat="43.60568" lon="3.72147">
        <ele>159</ele>
        <time>2021-01-23T13:08:18Z</time>
      </trkpt>
      <trkpt lat="43.60567" lon="3.72143">
        <ele>159</ele>
        <time>2021-01-23T13:08:19Z</time>
      </trkpt>
      <trkpt lat="43.60566" lon="3.7214">
        <ele>159</ele>
        <time>2021-01-23T13:08:20Z</time>
      </trkpt>
      <trkpt lat="43.60565" lon="3.72135">
        <ele>159.1</ele>
        <time>2021-01-23T13:08:21Z</time>
      </trkpt>
      <trkpt lat="43.60564" lon="3.72132">
        <ele>159.2</ele>
        <time>2021-01-23T13:08:22Z</time>
      </trkpt>
      <trkpt lat="43.60562" lon="3.72128">
        <ele>159.4</ele>
        <time>2021-01-23T13:08:23Z</time>
      </trkpt>
      <trkpt lat="43.6056" lon="3.72124">
        <ele>159.5</ele>
        <time>2021-01-23T13:08:24Z</time>
      </trkpt>
      <trkpt lat="43.60559" lon="3.72121">
        <ele>159.6</ele>
        <time>2021-01-23T13:08:25Z</time>
      </trkpt>
      <trkpt lat="43.60557" lon="3.72118">
        <ele>174</ele>
        <time>2021-01-23T13:08:26Z</time>
      </trkpt>
      <trkpt lat="43.60555" lon="3.72114">
        <ele>160</ele>
        <time>2021-01-23T13:08:27Z</time>
      </trkpt>
      <trkpt lat="43.60554" lon="3.72112">
        <ele>160.2</ele>
        <time>2021-01-23T13:08:28Z</time>
      </trkpt>
      <trkpt lat="43.60553" lon="3.72109">
        <ele>160.4</ele>
        <time>2021-01-23T13:08:29Z</time>
      </trkpt>
      <trkpt lat="43.60552" lon="3.72105">
        <ele>160.6</ele>
        <time>2021-01-23T13:08:30Z</time>
      </trkpt>
      <trkpt lat="43.60551" lon="3.72102">
        <ele>160.8</ele>
        <time>2021-01-23T13:08:31Z</time>
      </trkpt>
      <trkpt lat="43.60549" lon="3.72099">
        <ele>161.1</ele>
        <time>2021-01-23T13:08:32Z</time>
      </trkpt>
      <trkpt lat="43.60548" lon="3.72096">
        <ele>161.2</ele>
        <time>2021-01-23T13:08:33Z</time>
      </trkpt>
      <trkpt lat="43.60547" lon="3.72093">
        <ele>161.3</ele>
        <time>2021-01-23T13:08:34Z</time>
      </trkpt>
      <trkpt lat="43.60545" lon="3.72091">
        <ele>161.4</ele>
        <time>2021-01-23T13:08:35Z</time>
      </trkpt>
      <trkpt lat="43.60544" lon="3.72088">
        <ele>173</ele>
        <time>2021-01-23T13:08:36Z</time>
      </trkpt>
      <trkpt lat="43.60542" lon="3.72085">
        <ele>161.5</ele>
        <time>2021-01-23T13:08:37Z</time>
      </trkpt>
      <trkpt lat="43.6054" lon="3.72083">
        <ele>161.6</ele>
        <time>2021-01-23T13:08:38Z</time>
      </trkpt>
      <trkpt lat="43.60539" lon="3.72081">
        <ele>161.6</ele>
        <time>2021-01-23T13:08:39Z</time>
      </trkpt>
      <trkpt lat="43.60537" lon="3.7208">
        <ele>161.7</ele>
        <time>2021-01-23T13:08:40Z</time>
      </trkpt>
      <trkpt lat="43.60535" lon="3.72078">
        <ele>161.8</ele>
        <time>2021-01-23T13:08:41Z</time>
      </trkpt>
      <trkpt lat="43.60533" lon="3.72076">
        <ele>161.9</ele>
        <time>2021-01-23T13:08:42Z</time>
      </trkpt>
      <trkpt lat="43.60532" lon="3.72074">
        <ele>161.9</ele>
        <time>2021-01-23T13:08:43Z</time>
      </trkpt>
      <trkpt lat="43.6053" lon="3.72072">
        <ele>162</ele>
        <time>2021-01-23T13:08:44Z</time>
      </trkpt>
      <trkpt lat="43.60529" lon="3.72069">
        <ele>162</ele>
        <time>2021-01-23T13:08:45Z</time>
      </trkpt>
      <trkpt lat="43.60527" lon="3.72067">
        <ele>174</ele>
        <time>2021-01-23T13:08:46Z</time>
      </trkpt>
      <trkpt lat="43.60527" lon="3.72064">
        <ele>162.1</ele>
        <time>2021-01-23T13:08:47Z</time>
      </trkpt>
      <trkpt lat="43.60526" lon="3.72061">
        <ele>162.3</ele>
        <time>2021-01-23T13:08:48Z</time>
      </trkpt>
      <trkpt lat="43.60526" lon="3.72058">
        <ele>162.3</ele>
        <time>2021-01-23T13:08:49Z</time>
      </trkpt>
      <trkpt lat="43.60526" lon="3.72054">
        <ele>162.4</ele>
        <time>2021-01-23T13:08:50Z</time>
      </trkpt>
      <trkpt lat="43.60526" lon="3.72051">
        <ele>162.5</ele>
        <time>2021-01-23T13:08:51Z</time>
      </trkpt>
      <trkpt lat="43.60526" lon="3.72047">
        <ele>162.6</ele>
        <time>2021-01-23T13:08:52Z</time>
      </trkpt>
      <trkpt lat="43.60526" lon="3.72044">
        <ele>162.7</ele>
        <time>2021-01-23T13:08:53Z</time>
      </trkpt>
      <trkpt lat="43.60526" lon="3.72041">
        <ele>162.8</ele>
        <time>2021-01-23T13:08:54Z</time>
      </trkpt>
      <trkpt lat="43.60526" lon="3.72038">
        <ele>162.9</ele>
        <time>2021-01-23T13:08:55Z</time>
      </trkpt>
      <trkpt lat="43.60526" lon="3.72035">
        <ele>174</ele>
        <time>2021-01-23T13:08:56Z</time>
      </trkpt>
      <trkpt lat="43.60526" lon="3.72032">
        <ele>163.1</ele>
        <time>2021-01-23T13:08:57Z</time>
      </trkpt>
      <trkpt lat="43.60526" lon="3.72028">
        <ele>163.2</ele>
        <time>2021-01-23T13:08:58Z</time>
      </trkpt>
      <trkpt lat="43.60525" lon="3.72025">
        <ele>163.5</ele>
        <time>2021-01-23T13:08:59Z</time>
      </trkpt>
      <trkpt lat="43.60524" lon="3.72022">
        <ele>163.7</ele>
        <time>2021-01-23T13:09:00Z</time>
      </trkpt>
      <trkpt lat="43.60523" lon="3.72019">
        <ele>163.9</ele>
        <time>2021-01-23T13:09:01Z</time>
      </trkpt>
      <trkpt lat="43.60522" lon="3.72016">
        <ele>164.2</ele>
        <time>2021-01-23T13:09:02Z</time>
      </trkpt>
      <trkpt lat="43.60521" lon="3.72013">
        <ele>164.4</ele>
        <time>2021-01-23T13:09:03Z</time>
      </trkpt>
      <trkpt lat="43.6052" lon="3.72011">
        <ele>164.6</ele>
        <time>2021-01-23T13:09:04Z</time>
      </trkpt>
      <trkpt lat="43.60519" lon="3.72008">
        <ele>164.8</ele>
        <time>2021-01-23T13:09:05Z</time>
      </trkpt>
      <trkpt lat="43.60518" lon="3.72003">
        <ele>165</ele>
        <time>2021-01-23T13:09:07Z</time>
      </trkpt>
      <trkpt lat="43.60517" lon="3.72001">
        <ele>165.1</ele>
        <time>2021-01-23T13:09:08Z</time>
      </trkpt>
      <trkpt lat="43.60516" lon="3.71999">
        <ele>165.3</ele>
        <time>2021-01-23T13:09:09Z</time>
      </trkpt>
      <trkpt lat="43.60515" lon="3.71995">
        <ele>165.8</ele>
        <time>2021-01-23T13:09:11Z</time>
      </trkpt>
      <trkpt lat="43.60512" lon="3.71994">
        <ele>166.1</ele>
        <time>2021-01-23T13:09:13Z</time>
      </trkpt>
      <trkpt lat="43.6051" lon="3.71995">
        <ele>166.2</ele>
        <time>2021-01-23T13:09:15Z</time>
      </trkpt>
      <trkpt lat="43.60507" lon="3.71996">
        <ele>166.5</ele>
        <time>2021-01-23T13:09:17Z</time>
      </trkpt>
      <trkpt lat="43.60505" lon="3.71996">
        <ele>166.7</ele>
        <time>2021-01-23T13:09:20Z</time>
      </trkpt>
      <trkpt lat="43.60511" lon="3.71997">
        <ele>178</ele>
        <time>2021-01-23T13:09:51Z</time>
      </trkpt>
      <trkpt lat="43.60513" lon="3.71995">
        <ele>165.9</ele>
        <time>2021-01-23T13:09:53Z</time>
      </trkpt>
      <trkpt lat="43.60513" lon="3.71989">
        <ele>178</ele>
        <time>2021-01-23T13:10:08Z</time>
      </trkpt>
      <trkpt lat="43.60512" lon="3.71985">
        <ele>166.7</ele>
        <time>2021-01-23T13:10:10Z</time>
      </trkpt>
      <trkpt lat="43.60511" lon="3.71981">
        <ele>167</ele>
        <time>2021-01-23T13:10:12Z</time>
      </trkpt>
      <trkpt lat="43.60511" lon="3.71976">
        <ele>167.4</ele>
        <time>2021-01-23T13:10:14Z</time>
      </trkpt>
      <trkpt lat="43.60509" lon="3.71973">
        <ele>167.6</ele>
        <time>2021-01-23T13:10:16Z</time>
      </trkpt>
      <trkpt lat="43.60508" lon="3.7197">
        <ele>178</ele>
        <time>2021-01-23T13:10:18Z</time>
      </trkpt>
      <trkpt lat="43.60507" lon="3.71967">
        <ele>168.3</ele>
        <time>2021-01-23T13:10:20Z</time>
      </trkpt>
      <trkpt lat="43.60505" lon="3.71964">
        <ele>168.6</ele>
        <time>2021-01-23T13:10:22Z</time>
      </trkpt>
      <trkpt lat="43.60503" lon="3.71961">
        <ele>168.8</ele>
        <time>2021-01-23T13:10:24Z</time>
      </trkpt>
      <trkpt lat="43.60501" lon="3.71958">
        <ele>169</ele>
        <time>2021-01-23T13:10:26Z</time>
      </trkpt>
      <trkpt lat="43.60499" lon="3.71956">
        <ele>181</ele>
        <time>2021-01-23T13:10:28Z</time>
      </trkpt>
      <trkpt lat="43.60496" lon="3.71954">
        <ele>170.3</ele>
        <time>2021-01-23T13:10:29Z</time>
      </trkpt>
      <trkpt lat="43.60494" lon="3.71952">
        <ele>170.9</ele>
        <time>2021-01-23T13:10:31Z</time>
      </trkpt>
      <trkpt lat="43.60492" lon="3.71951">
        <ele>171.4</ele>
        <time>2021-01-23T13:10:33Z</time>
      </trkpt>
      <trkpt lat="43.6049" lon="3.71948">
        <ele>172</ele>
        <time>2021-01-23T13:10:36Z</time>
      </trkpt>
      <trkpt lat="43.60488" lon="3.71946">
        <ele>172.5</ele>
        <time>2021-01-23T13:10:39Z</time>
      </trkpt>
      <trkpt lat="43.60486" lon="3.71944">
        <ele>173.1</ele>
        <time>2021-01-23T13:10:41Z</time>
      </trkpt>
      <trkpt lat="43.60484" lon="3.71944">
        <ele>173.5</ele>
        <time>2021-01-23T13:10:43Z</time>
      </trkpt>
      <trkpt lat="43.60482" lon="3.71943">
        <ele>174</ele>
        <time>2021-01-23T13:10:45Z</time>
      </trkpt>
      <trkpt lat="43.6048" lon="3.71942">
        <ele>174.6</ele>
        <time>2021-01-23T13:10:47Z</time>
      </trkpt>
      <trkpt lat="43.60478" lon="3.7194">
        <ele>184</ele>
        <time>2021-01-23T13:10:48Z</time>
      </trkpt>
      <trkpt lat="43.60476" lon="3.71938">
        <ele>175.7</ele>
        <time>2021-01-23T13:10:50Z</time>
      </trkpt>
      <trkpt lat="43.60474" lon="3.71936">
        <ele>176.3</ele>
        <time>2021-01-23T13:10:53Z</time>
      </trkpt>
      <trkpt lat="43.60472" lon="3.71934">
        <ele>176.8</ele>
        <time>2021-01-23T13:10:56Z</time>
      </trkpt>
      <trkpt lat="43.60472" lon="3.71934">
        <ele>187</ele>
        <time>2021-01-23T13:11:04Z</time>
      </trkpt>
      <trkpt lat="43.6047" lon="3.71898">
        <ele>197</ele>
        <time>2021-01-23T13:12:23Z</time>
      </trkpt>
      <trkpt lat="43.60473" lon="3.71897">
        <ele>182.2</ele>
        <time>2021-01-23T13:12:24Z</time>
      </trkpt>
      <trkpt lat="43.60474" lon="3.71895">
        <ele>182.6</ele>
        <time>2021-01-23T13:12:26Z</time>
      </trkpt>
      <trkpt lat="43.60476" lon="3.71893">
        <ele>182.9</ele>
        <time>2021-01-23T13:12:28Z</time>
      </trkpt>
      <trkpt lat="43.60478" lon="3.71891">
        <ele>183.3</ele>
        <time>2021-01-23T13:12:30Z</time>
      </trkpt>
      <trkpt lat="43.6048" lon="3.71889">
        <ele>198</ele>
        <time>2021-01-23T13:12:32Z</time>
      </trkpt>
      <trkpt lat="43.60482" lon="3.71887">
        <ele>184.2</ele>
        <time>2021-01-23T13:12:34Z</time>
      </trkpt>
      <trkpt lat="43.60484" lon="3.71885">
        <ele>184.7</ele>
        <time>2021-01-23T13:12:36Z</time>
      </trkpt>
      <trkpt lat="43.60486" lon="3.71883">
        <ele>185.2</ele>
        <time>2021-01-23T13:12:38Z</time>
      </trkpt>
      <trkpt lat="43.60489" lon="3.71881">
        <ele>185.7</ele>
        <time>2021-01-23T13:12:40Z</time>
      </trkpt>
      <trkpt lat="43.60491" lon="3.7188">
        <ele>199</ele>
        <time>2021-01-23T13:12:42Z</time>
      </trkpt>
      <trkpt lat="43.60494" lon="3.7188">
        <ele>185.8</ele>
        <time>2021-01-23T13:12:43Z</time>
      </trkpt>
      <trkpt lat="43.60496" lon="3.7188">
        <ele>185.7</ele>
        <time>2021-01-23T13:12:45Z</time>
      </trkpt>
      <trkpt lat="43.60497" lon="3.71878">
        <ele>186.2</ele>
        <time>2021-01-23T13:12:50Z</time>
      </trkpt>
      <trkpt lat="43.60498" lon="3.71878">
        <ele>199</ele>
        <time>2021-01-23T13:12:52Z</time>
      </trkpt>
      <trkpt lat="43.60501" lon="3.71877">
        <ele>199</ele>
        <time>2021-01-23T13:13:04Z</time>
      </trkpt>
      <trkpt lat="43.60503" lon="3.71877">
        <ele>187</ele>
        <time>2021-01-23T13:13:07Z</time>
      </trkpt>
      <trkpt lat="43.60503" lon="3.71876">
        <ele>199</ele>
        <time>2021-01-23T13:13:11Z</time>
      </trkpt>
      <trkpt lat="43.60513" lon="3.7187">
        <ele>201</ele>
        <time>2021-01-23T13:13:39Z</time>
      </trkpt>
      <trkpt lat="43.60515" lon="3.71869">
        <ele>191.4</ele>
        <time>2021-01-23T13:13:43Z</time>
      </trkpt>
      <trkpt lat="43.60516" lon="3.71868">
        <ele>191.9</ele>
        <time>2021-01-23T13:13:47Z</time>
      </trkpt>
      <trkpt lat="43.60518" lon="3.71867">
        <ele>192.5</ele>
        <time>2021-01-23T13:13:51Z</time>
      </trkpt>
      <trkpt lat="43.6052" lon="3.71866">
        <ele>193.2</ele>
        <time>2021-01-23T13:13:55Z</time>
      </trkpt>
      <trkpt lat="43.60522" lon="3.71865">
        <ele>193.8</ele>
        <time>2021-01-23T13:13:59Z</time>
      </trkpt>
      <trkpt lat="43.60524" lon="3.71864">
        <ele>194.5</ele>
        <time>2021-01-23T13:14:02Z</time>
      </trkpt>
      <trkpt lat="43.60526" lon="3.71863">
        <ele>195.1</ele>
        <time>2021-01-23T13:14:05Z</time>
      </trkpt>
      <trkpt lat="43.60527" lon="3.71863">
        <ele>203</ele>
        <time>2021-01-23T13:14:08Z</time>
      </trkpt>
      <trkpt lat="43.60529" lon="3.71864">
        <ele>195.3</ele>
        <time>2021-01-23T13:14:10Z</time>
      </trkpt>
      <trkpt lat="43.60531" lon="3.71864">
        <ele>195.5</ele>
        <time>2021-01-23T13:14:12Z</time>
      </trkpt>
      <trkpt lat="43.60534" lon="3.71863">
        <ele>196.2</ele>
        <time>2021-01-23T13:14:15Z</time>
      </trkpt>
      <trkpt lat="43.60536" lon="3.71861">
        <ele>204</ele>
        <time>2021-01-23T13:14:18Z</time>
      </trkpt>
      <trkpt lat="43.60538" lon="3.71859">
        <ele>197.6</ele>
        <time>2021-01-23T13:14:21Z</time>
      </trkpt>
      <trkpt lat="43.6054" lon="3.71857">
        <ele>198.2</ele>
        <time>2021-01-23T13:14:25Z</time>
      </trkpt>
      <trkpt lat="43.60542" lon="3.71856">
        <ele>198.6</ele>
        <time>2021-01-23T13:14:27Z</time>
      </trkpt>
      <trkpt lat="43.60543" lon="3.71854">
        <ele>199.2</ele>
        <time>2021-01-23T13:14:30Z</time>
      </trkpt>
      <trkpt lat="43.60545" lon="3.71851">
        <ele>204</ele>
        <time>2021-01-23T13:14:44Z</time>
      </trkpt>
      <trkpt lat="43.60547" lon="3.7185">
        <ele>204</ele>
        <time>2021-01-23T13:14:45Z</time>
      </trkpt>
      <trkpt lat="43.60549" lon="3.71849">
        <ele>200.7</ele>
        <time>2021-01-23T13:14:47Z</time>
      </trkpt>
      <trkpt lat="43.6055" lon="3.71847">
        <ele>201.1</ele>
        <time>2021-01-23T13:14:50Z</time>
      </trkpt>
      <trkpt lat="43.60552" lon="3.71846">
        <ele>201.5</ele>
        <time>2021-01-23T13:14:52Z</time>
      </trkpt>
      <trkpt lat="43.60555" lon="3.71844">
        <ele>205</ele>
        <time>2021-01-23T13:14:54Z</time>
      </trkpt>
      <trkpt lat="43.60557" lon="3.71841">
        <ele>202.6</ele>
        <time>2021-01-23T13:14:56Z</time>
      </trkpt>
      <trkpt lat="43.60558" lon="3.71838">
        <ele>203.2</ele>
        <time>2021-01-23T13:14:58Z</time>
      </trkpt>
      <trkpt lat="43.6056" lon="3.71835">
        <ele>203.7</ele>
        <time>2021-01-23T13:15:00Z</time>
      </trkpt>
      <trkpt lat="43.60562" lon="3.71834">
        <ele>203.9</ele>
        <time>2021-01-23T13:15:02Z</time>
      </trkpt>
      <trkpt lat="43.60564" lon="3.71832">
        <ele>206</ele>
        <time>2021-01-23T13:15:04Z</time>
      </trkpt>
      <trkpt lat="43.60566" lon="3.7183">
        <ele>204.2</ele>
        <time>2021-01-23T13:15:06Z</time>
      </trkpt>
      <trkpt lat="43.60569" lon="3.71827">
        <ele>204.3</ele>
        <time>2021-01-23T13:15:08Z</time>
      </trkpt>
      <trkpt lat="43.60571" lon="3.71825">
        <ele>204.4</ele>
        <time>2021-01-23T13:15:09Z</time>
      </trkpt>
      <trkpt lat="43.60572" lon="3.71822">
        <ele>204.6</ele>
        <time>2021-01-23T13:15:11Z</time>
      </trkpt>
      <trkpt lat="43.60572" lon="3.71819">
        <ele>204.7</ele>
        <time>2021-01-23T13:15:16Z</time>
      </trkpt>
      <trkpt lat="43.6057" lon="3.71819">
        <ele>210</ele>
        <time>2021-01-23T13:16:18Z</time>
      </trkpt>
      <trkpt lat="43.60569" lon="3.71818">
        <ele>204.8</ele>
        <time>2021-01-23T13:16:19Z</time>
      </trkpt>
      <trkpt lat="43.60566" lon="3.71817">
        <ele>205</ele>
        <time>2021-01-23T13:16:21Z</time>
      </trkpt>
      <trkpt lat="43.60562" lon="3.71816">
        <ele>205.1</ele>
        <time>2021-01-23T13:16:23Z</time>
      </trkpt>
      <trkpt lat="43.60559" lon="3.71814">
        <ele>205.3</ele>
        <time>2021-01-23T13:16:25Z</time>
      </trkpt>
      <trkpt lat="43.60557" lon="3.71813">
        <ele>205.4</ele>
        <time>2021-01-23T13:16:26Z</time>
      </trkpt>
      <trkpt lat="43.60556" lon="3.71812">
        <ele>205.5</ele>
        <time>2021-01-23T13:16:27Z</time>
      </trkpt>
      <trkpt lat="43.60554" lon="3.71811">
        <ele>211</ele>
        <time>2021-01-23T13:16:28Z</time>
      </trkpt>
      <trkpt lat="43.60552" lon="3.7181">
        <ele>205.9</ele>
        <time>2021-01-23T13:16:29Z</time>
      </trkpt>
      <trkpt lat="43.6055" lon="3.71809">
        <ele>206.1</ele>
        <time>2021-01-23T13:16:30Z</time>
      </trkpt>
      <trkpt lat="43.60548" lon="3.71806">
        <ele>206.5</ele>
        <time>2021-01-23T13:16:32Z</time>
      </trkpt>
      <trkpt lat="43.60545" lon="3.71804">
        <ele>206.9</ele>
        <time>2021-01-23T13:16:34Z</time>
      </trkpt>
      <trkpt lat="43.60542" lon="3.71802">
        <ele>207.4</ele>
        <time>2021-01-23T13:16:36Z</time>
      </trkpt>
      <trkpt lat="43.60539" lon="3.718">
        <ele>212</ele>
        <time>2021-01-23T13:16:38Z</time>
      </trkpt>
      <trkpt lat="43.60536" lon="3.71798">
        <ele>208.2</ele>
        <time>2021-01-23T13:16:39Z</time>
      </trkpt>
      <trkpt lat="43.60533" lon="3.71796">
        <ele>208.7</ele>
        <time>2021-01-23T13:16:41Z</time>
      </trkpt>
      <trkpt lat="43.6053" lon="3.71794">
        <ele>209.1</ele>
        <time>2021-01-23T13:16:43Z</time>
      </trkpt>
      <trkpt lat="43.60528" lon="3.71792">
        <ele>209.4</ele>
        <time>2021-01-23T13:16:45Z</time>
      </trkpt>
      <trkpt lat="43.60525" lon="3.71791">
        <ele>209.6</ele>
        <time>2021-01-23T13:16:47Z</time>
      </trkpt>
      <trkpt lat="43.60522" lon="3.71789">
        <ele>210</ele>
        <time>2021-01-23T13:16:50Z</time>
      </trkpt>
      <trkpt lat="43.60519" lon="3.71788">
        <ele>210.2</ele>
        <time>2021-01-23T13:16:52Z</time>
      </trkpt>
      <trkpt lat="43.60515" lon="3.71787">
        <ele>210.5</ele>
        <time>2021-01-23T13:16:54Z</time>
      </trkpt>
      <trkpt lat="43.60513" lon="3.71785">
        <ele>210.9</ele>
        <time>2021-01-23T13:16:56Z</time>
      </trkpt>
      <trkpt lat="43.60511" lon="3.71782">
        <ele>214</ele>
        <time>2021-01-23T13:16:58Z</time>
      </trkpt>
      <trkpt lat="43.60508" lon="3.71779">
        <ele>212.2</ele>
        <time>2021-01-23T13:17:00Z</time>
      </trkpt>
      <trkpt lat="43.60505" lon="3.71779">
        <ele>212.4</ele>
        <time>2021-01-23T13:17:02Z</time>
      </trkpt>
      <trkpt lat="43.60503" lon="3.71778">
        <ele>212.7</ele>
        <time>2021-01-23T13:17:04Z</time>
      </trkpt>
      <trkpt lat="43.605" lon="3.71779">
        <ele>212.7</ele>
        <time>2021-01-23T13:17:06Z</time>
      </trkpt>
      <trkpt lat="43.60497" lon="3.71778">
        <ele>215</ele>
        <time>2021-01-23T13:17:08Z</time>
      </trkpt>
      <trkpt lat="43.60494" lon="3.71777">
        <ele>213.5</ele>
        <time>2021-01-23T13:17:10Z</time>
      </trkpt>
      <trkpt lat="43.60491" lon="3.71776">
        <ele>213.9</ele>
        <time>2021-01-23T13:17:12Z</time>
      </trkpt>
      <trkpt lat="43.60488" lon="3.71775">
        <ele>214.2</ele>
        <time>2021-01-23T13:17:14Z</time>
      </trkpt>
      <trkpt lat="43.60486" lon="3.71773">
        <ele>214.6</ele>
        <time>2021-01-23T13:17:16Z</time>
      </trkpt>
      <trkpt lat="43.60483" lon="3.71773">
        <ele>214.8</ele>
        <time>2021-01-23T13:17:17Z</time>
      </trkpt>
      <trkpt lat="43.60481" lon="3.71772">
        <ele>215.1</ele>
        <time>2021-01-23T13:17:20Z</time>
      </trkpt>
      <trkpt lat="43.60478" lon="3.71771">
        <ele>215.5</ele>
        <time>2021-01-23T13:17:22Z</time>
      </trkpt>
      <trkpt lat="43.60476" lon="3.7177">
        <ele>215.8</ele>
        <time>2021-01-23T13:17:24Z</time>
      </trkpt>
      <trkpt lat="43.60473" lon="3.7177">
        <ele>216.1</ele>
        <time>2021-01-23T13:17:26Z</time>
      </trkpt>
      <trkpt lat="43.60471" lon="3.7177">
        <ele>218</ele>
        <time>2021-01-23T13:17:28Z</time>
      </trkpt>
      <trkpt lat="43.60468" lon="3.71771">
        <ele>216.5</ele>
        <time>2021-01-23T13:17:30Z</time>
      </trkpt>
      <trkpt lat="43.60466" lon="3.71772">
        <ele>216.7</ele>
        <time>2021-01-23T13:17:32Z</time>
      </trkpt>
      <trkpt lat="43.60463" lon="3.71772">
        <ele>217.1</ele>
        <time>2021-01-23T13:17:34Z</time>
      </trkpt>
      <trkpt lat="43.6046" lon="3.71772">
        <ele>217.5</ele>
        <time>2021-01-23T13:17:36Z</time>
      </trkpt>
      <trkpt lat="43.60457" lon="3.71772">
        <ele>219</ele>
        <time>2021-01-23T13:17:38Z</time>
      </trkpt>
      <trkpt lat="43.60454" lon="3.71772">
        <ele>218.3</ele>
        <time>2021-01-23T13:17:40Z</time>
      </trkpt>
      <trkpt lat="43.60451" lon="3.71772">
        <ele>218.7</ele>
        <time>2021-01-23T13:17:42Z</time>
      </trkpt>
      <trkpt lat="43.60448" lon="3.71773">
        <ele>219</ele>
        <time>2021-01-23T13:17:44Z</time>
      </trkpt>
      <trkpt lat="43.60446" lon="3.71774">
        <ele>219.2</ele>
        <time>2021-01-23T13:17:46Z</time>
      </trkpt>
      <trkpt lat="43.60443" lon="3.71775">
        <ele>220</ele>
        <time>2021-01-23T13:17:48Z</time>
      </trkpt>
      <trkpt lat="43.6044" lon="3.71777">
        <ele>219.7</ele>
        <time>2021-01-23T13:17:50Z</time>
      </trkpt>
      <trkpt lat="43.60438" lon="3.71778">
        <ele>219.9</ele>
        <time>2021-01-23T13:17:51Z</time>
      </trkpt>
      <trkpt lat="43.60435" lon="3.71779">
        <ele>220.2</ele>
        <time>2021-01-23T13:17:53Z</time>
      </trkpt>
      <trkpt lat="43.60432" lon="3.7178">
        <ele>220.5</ele>
        <time>2021-01-23T13:17:55Z</time>
      </trkpt>
      <trkpt lat="43.60429" lon="3.71783">
        <ele>220.6</ele>
        <time>2021-01-23T13:17:57Z</time>
      </trkpt>
      <trkpt lat="43.60427" lon="3.71785">
        <ele>221</ele>
        <time>2021-01-23T13:17:58Z</time>
      </trkpt>
      <trkpt lat="43.60425" lon="3.71786">
        <ele>220.8</ele>
        <time>2021-01-23T13:17:59Z</time>
      </trkpt>
      <trkpt lat="43.60424" lon="3.71788">
        <ele>220.7</ele>
        <time>2021-01-23T13:18:00Z</time>
      </trkpt>
      <trkpt lat="43.60422" lon="3.7179">
        <ele>220.8</ele>
        <time>2021-01-23T13:18:01Z</time>
      </trkpt>
      <trkpt lat="43.60421" lon="3.71791">
        <ele>220.9</ele>
        <time>2021-01-23T13:18:02Z</time>
      </trkpt>
      <trkpt lat="43.60419" lon="3.71793">
        <ele>221</ele>
        <time>2021-01-23T13:18:03Z</time>
      </trkpt>
      <trkpt lat="43.60417" lon="3.71796">
        <ele>221</ele>
        <time>2021-01-23T13:18:04Z</time>
      </trkpt>
      <trkpt lat="43.60416" lon="3.71798">
        <ele>220.9</ele>
        <time>2021-01-23T13:18:05Z</time>
      </trkpt>
      <trkpt lat="43.60414" lon="3.71801">
        <ele>220.7</ele>
        <time>2021-01-23T13:18:06Z</time>
      </trkpt>
      <trkpt lat="43.60412" lon="3.71804">
        <ele>220.6</ele>
        <time>2021-01-23T13:18:07Z</time>
      </trkpt>
      <trkpt lat="43.60411" lon="3.71806">
        <ele>222</ele>
        <time>2021-01-23T13:18:08Z</time>
      </trkpt>
      <trkpt lat="43.60409" lon="3.71808">
        <ele>220.5</ele>
        <time>2021-01-23T13:18:09Z</time>
      </trkpt>
      <trkpt lat="43.60407" lon="3.7181">
        <ele>220.6</ele>
        <time>2021-01-23T13:18:10Z</time>
      </trkpt>
      <trkpt lat="43.60406" lon="3.71812">
        <ele>220.5</ele>
        <time>2021-01-23T13:18:11Z</time>
      </trkpt>
      <trkpt lat="43.60404" lon="3.71814">
        <ele>220.6</ele>
        <time>2021-01-23T13:18:12Z</time>
      </trkpt>
      <trkpt lat="43.60403" lon="3.71817">
        <ele>220.4</ele>
        <time>2021-01-23T13:18:13Z</time>
      </trkpt>
      <trkpt lat="43.60401" lon="3.71819">
        <ele>220.6</ele>
        <time>2021-01-23T13:18:14Z</time>
      </trkpt>
      <trkpt lat="43.60399" lon="3.71822">
        <ele>220.7</ele>
        <time>2021-01-23T13:18:15Z</time>
      </trkpt>
      <trkpt lat="43.60398" lon="3.71825">
        <ele>220.6</ele>
        <time>2021-01-23T13:18:16Z</time>
      </trkpt>
      <trkpt lat="43.60396" lon="3.71827">
        <ele>220.9</ele>
        <time>2021-01-23T13:18:17Z</time>
      </trkpt>
      <trkpt lat="43.60395" lon="3.7183">
        <ele>222</ele>
        <time>2021-01-23T13:18:18Z</time>
      </trkpt>
      <trkpt lat="43.60393" lon="3.71832">
        <ele>221.2</ele>
        <time>2021-01-23T13:18:19Z</time>
      </trkpt>
      <trkpt lat="43.60391" lon="3.71834">
        <ele>221.5</ele>
        <time>2021-01-23T13:18:20Z</time>
      </trkpt>
      <trkpt lat="43.6039" lon="3.71837">
        <ele>221.5</ele>
        <time>2021-01-23T13:18:21Z</time>
      </trkpt>
      <trkpt lat="43.60388" lon="3.71839">
        <ele>221.7</ele>
        <time>2021-01-23T13:18:22Z</time>
      </trkpt>
      <trkpt lat="43.60386" lon="3.71842">
        <ele>221.7</ele>
        <time>2021-01-23T13:18:23Z</time>
      </trkpt>
      <trkpt lat="43.60385" lon="3.71844">
        <ele>221.7</ele>
        <time>2021-01-23T13:18:24Z</time>
      </trkpt>
      <trkpt lat="43.60383" lon="3.71846">
        <ele>221.8</ele>
        <time>2021-01-23T13:18:25Z</time>
      </trkpt>
      <trkpt lat="43.60382" lon="3.71849">
        <ele>221.8</ele>
        <time>2021-01-23T13:18:26Z</time>
      </trkpt>
      <trkpt lat="43.6038" lon="3.71851">
        <ele>222</ele>
        <time>2021-01-23T13:18:27Z</time>
      </trkpt>
      <trkpt lat="43.60379" lon="3.71853">
        <ele>223</ele>
        <time>2021-01-23T13:18:28Z</time>
      </trkpt>
      <trkpt lat="43.60378" lon="3.71855">
        <ele>222.1</ele>
        <time>2021-01-23T13:18:29Z</time>
      </trkpt>
      <trkpt lat="43.60376" lon="3.71858">
        <ele>222.4</ele>
        <time>2021-01-23T13:18:30Z</time>
      </trkpt>
      <trkpt lat="43.60375" lon="3.7186">
        <ele>222.5</ele>
        <time>2021-01-23T13:18:31Z</time>
      </trkpt>
      <trkpt lat="43.60374" lon="3.71862">
        <ele>222.6</ele>
        <time>2021-01-23T13:18:32Z</time>
      </trkpt>
      <trkpt lat="43.60373" lon="3.71865">
        <ele>222.7</ele>
        <time>2021-01-23T13:18:33Z</time>
      </trkpt>
      <trkpt lat="43.60371" lon="3.71867">
        <ele>222.9</ele>
        <time>2021-01-23T13:18:34Z</time>
      </trkpt>
      <trkpt lat="43.6037" lon="3.71869">
        <ele>223</ele>
        <time>2021-01-23T13:18:35Z</time>
      </trkpt>
      <trkpt lat="43.60369" lon="3.7187">
        <ele>223.2</ele>
        <time>2021-01-23T13:18:36Z</time>
      </trkpt>
      <trkpt lat="43.60366" lon="3.71874">
        <ele>224</ele>
        <time>2021-01-23T13:18:38Z</time>
      </trkpt>
      <trkpt lat="43.60364" lon="3.71877">
        <ele>223.8</ele>
        <time>2021-01-23T13:18:40Z</time>
      </trkpt>
      <trkpt lat="43.60361" lon="3.7188">
        <ele>224.3</ele>
        <time>2021-01-23T13:18:42Z</time>
      </trkpt>
      <trkpt lat="43.60359" lon="3.71883">
        <ele>224.4</ele>
        <time>2021-01-23T13:18:44Z</time>
      </trkpt>
      <trkpt lat="43.60357" lon="3.71885">
        <ele>224.5</ele>
        <time>2021-01-23T13:18:45Z</time>
      </trkpt>
      <trkpt lat="43.60356" lon="3.71887">
        <ele>224.6</ele>
        <time>2021-01-23T13:18:46Z</time>
      </trkpt>
      <trkpt lat="43.60354" lon="3.7189">
        <ele>224.7</ele>
        <time>2021-01-23T13:18:47Z</time>
      </trkpt>
      <trkpt lat="43.60353" lon="3.71892">
        <ele>225</ele>
        <time>2021-01-23T13:18:48Z</time>
      </trkpt>
      <trkpt lat="43.60351" lon="3.71894">
        <ele>225</ele>
        <time>2021-01-23T13:18:49Z</time>
      </trkpt>
      <trkpt lat="43.6035" lon="3.71897">
        <ele>225</ele>
        <time>2021-01-23T13:18:50Z</time>
      </trkpt>
      <trkpt lat="43.60348" lon="3.71899">
        <ele>225.2</ele>
        <time>2021-01-23T13:18:51Z</time>
      </trkpt>
      <trkpt lat="43.60347" lon="3.71902">
        <ele>225.3</ele>
        <time>2021-01-23T13:18:52Z</time>
      </trkpt>
      <trkpt lat="43.60346" lon="3.71904">
        <ele>225.4</ele>
        <time>2021-01-23T13:18:53Z</time>
      </trkpt>
      <trkpt lat="43.60344" lon="3.71906">
        <ele>225.6</ele>
        <time>2021-01-23T13:18:54Z</time>
      </trkpt>
      <trkpt lat="43.60343" lon="3.71909">
        <ele>225.7</ele>
        <time>2021-01-23T13:18:55Z</time>
      </trkpt>
      <trkpt lat="43.60341" lon="3.71911">
        <ele>226</ele>
        <time>2021-01-23T13:18:56Z</time>
      </trkpt>
      <trkpt lat="43.6034" lon="3.71913">
        <ele>226.1</ele>
        <time>2021-01-23T13:18:57Z</time>
      </trkpt>
      <trkpt lat="43.60338" lon="3.71915">
        <ele>226</ele>
        <time>2021-01-23T13:18:58Z</time>
      </trkpt>
      <trkpt lat="43.60337" lon="3.71917">
        <ele>226.5</ele>
        <time>2021-01-23T13:18:59Z</time>
      </trkpt>
      <trkpt lat="43.60335" lon="3.71919">
        <ele>226.7</ele>
        <time>2021-01-23T13:19:00Z</time>
      </trkpt>
      <trkpt lat="43.60334" lon="3.71921">
        <ele>226.9</ele>
        <time>2021-01-23T13:19:01Z</time>
      </trkpt>
      <trkpt lat="43.60332" lon="3.71924">
        <ele>227.1</ele>
        <time>2021-01-23T13:19:02Z</time>
      </trkpt>
      <trkpt lat="43.60331" lon="3.71926">
        <ele>227.2</ele>
        <time>2021-01-23T13:19:03Z</time>
      </trkpt>
      <trkpt lat="43.6033" lon="3.71928">
        <ele>227.3</ele>
        <time>2021-01-23T13:19:04Z</time>
      </trkpt>
      <trkpt lat="43.60328" lon="3.7193">
        <ele>227.5</ele>
        <time>2021-01-23T13:19:05Z</time>
      </trkpt>
      <trkpt lat="43.60327" lon="3.71932">
        <ele>227.6</ele>
        <time>2021-01-23T13:19:06Z</time>
      </trkpt>
      <trkpt lat="43.60325" lon="3.71934">
        <ele>227.8</ele>
        <time>2021-01-23T13:19:07Z</time>
      </trkpt>
      <trkpt lat="43.60324" lon="3.71936">
        <ele>227.9</ele>
        <time>2021-01-23T13:19:08Z</time>
      </trkpt>
      <trkpt lat="43.60323" lon="3.71938">
        <ele>228</ele>
        <time>2021-01-23T13:19:09Z</time>
      </trkpt>
      <trkpt lat="43.60321" lon="3.7194">
        <ele>228.3</ele>
        <time>2021-01-23T13:19:10Z</time>
      </trkpt>
      <trkpt lat="43.6032" lon="3.71942">
        <ele>228.4</ele>
        <time>2021-01-23T13:19:11Z</time>
      </trkpt>
      <trkpt lat="43.60318" lon="3.71944">
        <ele>228.6</ele>
        <time>2021-01-23T13:19:12Z</time>
      </trkpt>
      <trkpt lat="43.60317" lon="3.71946">
        <ele>228.7</ele>
        <time>2021-01-23T13:19:13Z</time>
      </trkpt>
      <trkpt lat="43.60316" lon="3.71949">
        <ele>228.8</ele>
        <time>2021-01-23T13:19:14Z</time>
      </trkpt>
      <trkpt lat="43.60314" lon="3.71951">
        <ele>229</ele>
        <time>2021-01-23T13:19:15Z</time>
      </trkpt>
      <trkpt lat="43.60313" lon="3.71953">
        <ele>229.1</ele>
        <time>2021-01-23T13:19:16Z</time>
      </trkpt>
      <trkpt lat="43.60312" lon="3.71955">
        <ele>229.2</ele>
        <time>2021-01-23T13:19:17Z</time>
      </trkpt>
      <trkpt lat="43.60311" lon="3.71957">
        <ele>230</ele>
        <time>2021-01-23T13:19:18Z</time>
      </trkpt>
      <trkpt lat="43.6031" lon="3.71959">
        <ele>229.4</ele>
        <time>2021-01-23T13:19:19Z</time>
      </trkpt>
      <trkpt lat="43.60308" lon="3.71961">
        <ele>229.7</ele>
        <time>2021-01-23T13:19:20Z</time>
      </trkpt>
      <trkpt lat="43.60307" lon="3.71963">
        <ele>229.8</ele>
        <time>2021-01-23T13:19:21Z</time>
      </trkpt>
      <trkpt lat="43.60305" lon="3.71965">
        <ele>230</ele>
        <time>2021-01-23T13:19:22Z</time>
      </trkpt>
      <trkpt lat="43.60304" lon="3.71967">
        <ele>230.1</ele>
        <time>2021-01-23T13:19:23Z</time>
      </trkpt>
      <trkpt lat="43.60303" lon="3.7197">
        <ele>230.2</ele>
        <time>2021-01-23T13:19:24Z</time>
      </trkpt>
      <trkpt lat="43.60301" lon="3.71972">
        <ele>230.3</ele>
        <time>2021-01-23T13:19:25Z</time>
      </trkpt>
      <trkpt lat="43.603" lon="3.71974">
        <ele>230.3</ele>
        <time>2021-01-23T13:19:26Z</time>
      </trkpt>
      <trkpt lat="43.60299" lon="3.71976">
        <ele>230.4</ele>
        <time>2021-01-23T13:19:27Z</time>
      </trkpt>
      <trkpt lat="43.60297" lon="3.71979">
        <ele>230</ele>
        <time>2021-01-23T13:19:28Z</time>
      </trkpt>
      <trkpt lat="43.60296" lon="3.71981">
        <ele>230.5</ele>
        <time>2021-01-23T13:19:29Z</time>
      </trkpt>
      <trkpt lat="43.60294" lon="3.71983">
        <ele>230.6</ele>
        <time>2021-01-23T13:19:30Z</time>
      </trkpt>
      <trkpt lat="43.60293" lon="3.71985">
        <ele>230.7</ele>
        <time>2021-01-23T13:19:31Z</time>
      </trkpt>
      <trkpt lat="43.60292" lon="3.71987">
        <ele>230.7</ele>
        <time>2021-01-23T13:19:32Z</time>
      </trkpt>
      <trkpt lat="43.6029" lon="3.7199">
        <ele>230.8</ele>
        <time>2021-01-23T13:19:33Z</time>
      </trkpt>
      <trkpt lat="43.60289" lon="3.71992">
        <ele>230.9</ele>
        <time>2021-01-23T13:19:34Z</time>
      </trkpt>
      <trkpt lat="43.60288" lon="3.71994">
        <ele>231</ele>
        <time>2021-01-23T13:19:35Z</time>
      </trkpt>
      <trkpt lat="43.60286" lon="3.71996">
        <ele>231.2</ele>
        <time>2021-01-23T13:19:36Z</time>
      </trkpt>
      <trkpt lat="43.60285" lon="3.71998">
        <ele>231.2</ele>
        <time>2021-01-23T13:19:37Z</time>
      </trkpt>
      <trkpt lat="43.60284" lon="3.72001">
        <ele>232</ele>
        <time>2021-01-23T13:19:38Z</time>
      </trkpt>
      <trkpt lat="43.60283" lon="3.72003">
        <ele>231.4</ele>
        <time>2021-01-23T13:19:39Z</time>
      </trkpt>
      <trkpt lat="43.60281" lon="3.72005">
        <ele>231.6</ele>
        <time>2021-01-23T13:19:40Z</time>
      </trkpt>
      <trkpt lat="43.6028" lon="3.72007">
        <ele>231.7</ele>
        <time>2021-01-23T13:19:41Z</time>
      </trkpt>
      <trkpt lat="43.60279" lon="3.7201">
        <ele>231.9</ele>
        <time>2021-01-23T13:19:42Z</time>
      </trkpt>
      <trkpt lat="43.60277" lon="3.72012">
        <ele>232</ele>
        <time>2021-01-23T13:19:43Z</time>
      </trkpt>
      <trkpt lat="43.60276" lon="3.72014">
        <ele>232</ele>
        <time>2021-01-23T13:19:44Z</time>
      </trkpt>
      <trkpt lat="43.60275" lon="3.72017">
        <ele>232.1</ele>
        <time>2021-01-23T13:19:45Z</time>
      </trkpt>
      <trkpt lat="43.60274" lon="3.72019">
        <ele>232.1</ele>
        <time>2021-01-23T13:19:46Z</time>
      </trkpt>
      <trkpt lat="43.60273" lon="3.72021">
        <ele>232.1</ele>
        <time>2021-01-23T13:19:47Z</time>
      </trkpt>
      <trkpt lat="43.60271" lon="3.72025">
        <ele>232.2</ele>
        <time>2021-01-23T13:19:49Z</time>
      </trkpt>
      <trkpt lat="43.60269" lon="3.72028">
        <ele>232.3</ele>
        <time>2021-01-23T13:19:51Z</time>
      </trkpt>
      <trkpt lat="43.60267" lon="3.7203">
        <ele>232.2</ele>
        <time>2021-01-23T13:19:52Z</time>
      </trkpt>
      <trkpt lat="43.60265" lon="3.72033">
        <ele>232.1</ele>
        <time>2021-01-23T13:19:54Z</time>
      </trkpt>
      <trkpt lat="43.60264" lon="3.72036">
        <ele>231.9</ele>
        <time>2021-01-23T13:19:57Z</time>
      </trkpt>
      <trkpt lat="43.60262" lon="3.7204">
        <ele>231.7</ele>
        <time>2021-01-23T13:19:59Z</time>
      </trkpt>
      <trkpt lat="43.6026" lon="3.72044">
        <ele>231.6</ele>
        <time>2021-01-23T13:20:01Z</time>
      </trkpt>
      <trkpt lat="43.60259" lon="3.72047">
        <ele>231.5</ele>
        <time>2021-01-23T13:20:03Z</time>
      </trkpt>
      <trkpt lat="43.60259" lon="3.7205">
        <ele>231.4</ele>
        <time>2021-01-23T13:20:05Z</time>
      </trkpt>
      <trkpt lat="43.60256" lon="3.72056">
        <ele>233</ele>
        <time>2021-01-23T13:20:33Z</time>
      </trkpt>
      <trkpt lat="43.60256" lon="3.72056">
        <ele>233</ele>
        <time>2021-01-23T13:20:37Z</time>
      </trkpt>
      <trkpt lat="43.60255" lon="3.72064">
        <ele>234</ele>
        <time>2021-01-23T13:24:47Z</time>
      </trkpt>
      <trkpt lat="43.60254" lon="3.72068">
        <ele>230.6</ele>
        <time>2021-01-23T13:24:48Z</time>
      </trkpt>
      <trkpt lat="43.60253" lon="3.72072">
        <ele>230.4</ele>
        <time>2021-01-23T13:24:49Z</time>
      </trkpt>
      <trkpt lat="43.60253" lon="3.72076">
        <ele>230.1</ele>
        <time>2021-01-23T13:24:50Z</time>
      </trkpt>
      <trkpt lat="43.60252" lon="3.72079">
        <ele>230</ele>
        <time>2021-01-23T13:24:51Z</time>
      </trkpt>
      <trkpt lat="43.60251" lon="3.72082">
        <ele>230</ele>
        <time>2021-01-23T13:24:52Z</time>
      </trkpt>
      <trkpt lat="43.6025" lon="3.72085">
        <ele>229.8</ele>
        <time>2021-01-23T13:24:53Z</time>
      </trkpt>
      <trkpt lat="43.60249" lon="3.72088">
        <ele>229.5</ele>
        <time>2021-01-23T13:24:54Z</time>
      </trkpt>
      <trkpt lat="43.60247" lon="3.72091">
        <ele>229.2</ele>
        <time>2021-01-23T13:24:55Z</time>
      </trkpt>
      <trkpt lat="43.60246" lon="3.72093">
        <ele>232</ele>
        <time>2021-01-23T13:24:56Z</time>
      </trkpt>
      <trkpt lat="43.60245" lon="3.72096">
        <ele>228.6</ele>
        <time>2021-01-23T13:24:57Z</time>
      </trkpt>
      <trkpt lat="43.60244" lon="3.72101">
        <ele>228.1</ele>
        <time>2021-01-23T13:24:58Z</time>
      </trkpt>
      <trkpt lat="43.60243" lon="3.72105">
        <ele>227.7</ele>
        <time>2021-01-23T13:24:59Z</time>
      </trkpt>
      <trkpt lat="43.60241" lon="3.72111">
        <ele>227</ele>
        <time>2021-01-23T13:25:00Z</time>
      </trkpt>
      <trkpt lat="43.60238" lon="3.72116">
        <ele>226.4</ele>
        <time>2021-01-23T13:25:01Z</time>
      </trkpt>
      <trkpt lat="43.60236" lon="3.72121">
        <ele>225.8</ele>
        <time>2021-01-23T13:25:02Z</time>
      </trkpt>
      <trkpt lat="43.60234" lon="3.72125">
        <ele>225.3</ele>
        <time>2021-01-23T13:25:03Z</time>
      </trkpt>
      <trkpt lat="43.60232" lon="3.72129">
        <ele>224.8</ele>
        <time>2021-01-23T13:25:04Z</time>
      </trkpt>
      <trkpt lat="43.6023" lon="3.72133">
        <ele>224.4</ele>
        <time>2021-01-23T13:25:05Z</time>
      </trkpt>
      <trkpt lat="43.60226" lon="3.7214">
        <ele>230</ele>
        <time>2021-01-23T13:25:06Z</time>
      </trkpt>
      <trkpt lat="43.60224" lon="3.72143">
        <ele>223.2</ele>
        <time>2021-01-23T13:25:07Z</time>
      </trkpt>
      <trkpt lat="43.60223" lon="3.72146">
        <ele>222.7</ele>
        <time>2021-01-23T13:25:09Z</time>
      </trkpt>
      <trkpt lat="43.60221" lon="3.7215">
        <ele>221.9</ele>
        <time>2021-01-23T13:25:10Z</time>
      </trkpt>
      <trkpt lat="43.60219" lon="3.72154">
        <ele>221</ele>
        <time>2021-01-23T13:25:11Z</time>
      </trkpt>
      <trkpt lat="43.60217" lon="3.72157">
        <ele>220.3</ele>
        <time>2021-01-23T13:25:12Z</time>
      </trkpt>
      <trkpt lat="43.60214" lon="3.72162">
        <ele>219.2</ele>
        <time>2021-01-23T13:25:13Z</time>
      </trkpt>
      <trkpt lat="43.60212" lon="3.72164">
        <ele>218.7</ele>
        <time>2021-01-23T13:25:14Z</time>
      </trkpt>
      <trkpt lat="43.60211" lon="3.72167">
        <ele>218.1</ele>
        <time>2021-01-23T13:25:15Z</time>
      </trkpt>
      <trkpt lat="43.6021" lon="3.72169">
        <ele>217.7</ele>
        <time>2021-01-23T13:25:17Z</time>
      </trkpt>
      <trkpt lat="43.60208" lon="3.72172">
        <ele>217.1</ele>
        <time>2021-01-23T13:25:19Z</time>
      </trkpt>
      <trkpt lat="43.60207" lon="3.72175">
        <ele>216.6</ele>
        <time>2021-01-23T13:25:20Z</time>
      </trkpt>
      <trkpt lat="43.60205" lon="3.72177">
        <ele>216.1</ele>
        <time>2021-01-23T13:25:21Z</time>
      </trkpt>
      <trkpt lat="43.60204" lon="3.7218">
        <ele>215.6</ele>
        <time>2021-01-23T13:25:22Z</time>
      </trkpt>
      <trkpt lat="43.60203" lon="3.72181">
        <ele>225</ele>
        <time>2021-01-23T13:25:26Z</time>
      </trkpt>
      <trkpt lat="43.60235" lon="3.72115">
        <ele>227</ele>
        <time>2021-01-23T13:28:00Z</time>
      </trkpt>
      <trkpt lat="43.60236" lon="3.72114">
        <ele>226.6</ele>
        <time>2021-01-23T13:28:01Z</time>
      </trkpt>
      <trkpt lat="43.60238" lon="3.72111">
        <ele>227</ele>
        <time>2021-01-23T13:28:03Z</time>
      </trkpt>
      <trkpt lat="43.60239" lon="3.72107">
        <ele>227.4</ele>
        <time>2021-01-23T13:28:05Z</time>
      </trkpt>
      <trkpt lat="43.60241" lon="3.72104">
        <ele>227.8</ele>
        <time>2021-01-23T13:28:07Z</time>
      </trkpt>
      <trkpt lat="43.60242" lon="3.72101">
        <ele>228.1</ele>
        <time>2021-01-23T13:28:09Z</time>
      </trkpt>
      <trkpt lat="43.60244" lon="3.72098">
        <ele>228.4</ele>
        <time>2021-01-23T13:28:11Z</time>
      </trkpt>
      <trkpt lat="43.60244" lon="3.72094">
        <ele>228.8</ele>
        <time>2021-01-23T13:28:13Z</time>
      </trkpt>
      <trkpt lat="43.60245" lon="3.72089">
        <ele>229.4</ele>
        <time>2021-01-23T13:28:15Z</time>
      </trkpt>
      <trkpt lat="43.60247" lon="3.72086">
        <ele>229.7</ele>
        <time>2021-01-23T13:28:17Z</time>
      </trkpt>
      <trkpt lat="43.60249" lon="3.72083">
        <ele>230</ele>
        <time>2021-01-23T13:28:19Z</time>
      </trkpt>
      <trkpt lat="43.6025" lon="3.7208">
        <ele>230.2</ele>
        <time>2021-01-23T13:28:21Z</time>
      </trkpt>
      <trkpt lat="43.60252" lon="3.72077">
        <ele>230.2</ele>
        <time>2021-01-23T13:28:23Z</time>
      </trkpt>
      <trkpt lat="43.60253" lon="3.72073">
        <ele>230.4</ele>
        <time>2021-01-23T13:28:25Z</time>
      </trkpt>
      <trkpt lat="43.60254" lon="3.72069">
        <ele>230.5</ele>
        <time>2021-01-23T13:28:27Z</time>
      </trkpt>
      <trkpt lat="43.60256" lon="3.72065">
        <ele>230.6</ele>
        <time>2021-01-23T13:28:29Z</time>
      </trkpt>
      <trkpt lat="43.60257" lon="3.72062">
        <ele>230.7</ele>
        <time>2021-01-23T13:28:31Z</time>
      </trkpt>
      <trkpt lat="43.60257" lon="3.72058">
        <ele>231</ele>
        <time>2021-01-23T13:28:33Z</time>
      </trkpt>
      <trkpt lat="43.60258" lon="3.72055">
        <ele>231.2</ele>
        <time>2021-01-23T13:28:35Z</time>
      </trkpt>
      <trkpt lat="43.60259" lon="3.72051">
        <ele>231.3</ele>
        <time>2021-01-23T13:28:37Z</time>
      </trkpt>
      <trkpt lat="43.6026" lon="3.72047">
        <ele>231.4</ele>
        <time>2021-01-23T13:28:39Z</time>
      </trkpt>
      <trkpt lat="43.6026" lon="3.72043">
        <ele>234</ele>
        <time>2021-01-23T13:28:40Z</time>
      </trkpt>
      <trkpt lat="43.60259" lon="3.72039">
        <ele>232</ele>
        <time>2021-01-23T13:28:42Z</time>
      </trkpt>
      <trkpt lat="43.60258" lon="3.72035">
        <ele>232.3</ele>
        <time>2021-01-23T13:28:44Z</time>
      </trkpt>
      <trkpt lat="43.60257" lon="3.72032">
        <ele>232.5</ele>
        <time>2021-01-23T13:28:46Z</time>
      </trkpt>
      <trkpt lat="43.60256" lon="3.72027">
        <ele>232.8</ele>
        <time>2021-01-23T13:28:48Z</time>
      </trkpt>
      <trkpt lat="43.60256" lon="3.72023">
        <ele>232.6</ele>
        <time>2021-01-23T13:28:51Z</time>
      </trkpt>
      <trkpt lat="43.60254" lon="3.7202">
        <ele>232.6</ele>
        <time>2021-01-23T13:28:53Z</time>
      </trkpt>
      <trkpt lat="43.60252" lon="3.72017">
        <ele>232.6</ele>
        <time>2021-01-23T13:28:55Z</time>
      </trkpt>
      <trkpt lat="43.6025" lon="3.72013">
        <ele>232.5</ele>
        <time>2021-01-23T13:28:57Z</time>
      </trkpt>
      <trkpt lat="43.60249" lon="3.72011">
        <ele>232.3</ele>
        <time>2021-01-23T13:28:58Z</time>
      </trkpt>
      <trkpt lat="43.60248" lon="3.72008">
        <ele>232.1</ele>
        <time>2021-01-23T13:28:59Z</time>
      </trkpt>
      <trkpt lat="43.60246" lon="3.72005">
        <ele>235</ele>
        <time>2021-01-23T13:29:00Z</time>
      </trkpt>
      <trkpt lat="43.60244" lon="3.72003">
        <ele>231.7</ele>
        <time>2021-01-23T13:29:01Z</time>
      </trkpt>
      <trkpt lat="43.60242" lon="3.72">
        <ele>231.4</ele>
        <time>2021-01-23T13:29:02Z</time>
      </trkpt>
      <trkpt lat="43.60239" lon="3.71998">
        <ele>231.1</ele>
        <time>2021-01-23T13:29:03Z</time>
      </trkpt>
      <trkpt lat="43.60236" lon="3.71997">
        <ele>230.8</ele>
        <time>2021-01-23T13:29:04Z</time>
      </trkpt>
      <trkpt lat="43.60231" lon="3.71997">
        <ele>230.5</ele>
        <time>2021-01-23T13:29:05Z</time>
      </trkpt>
      <trkpt lat="43.60227" lon="3.71999">
        <ele>230.3</ele>
        <time>2021-01-23T13:29:06Z</time>
      </trkpt>
      <trkpt lat="43.60222" lon="3.72002">
        <ele>230</ele>
        <time>2021-01-23T13:29:07Z</time>
      </trkpt>
      <trkpt lat="43.60218" lon="3.72005">
        <ele>229.7</ele>
        <time>2021-01-23T13:29:08Z</time>
      </trkpt>
      <trkpt lat="43.60214" lon="3.72009">
        <ele>229.3</ele>
        <time>2021-01-23T13:29:09Z</time>
      </trkpt>
      <trkpt lat="43.6021" lon="3.72014">
        <ele>232</ele>
        <time>2021-01-23T13:29:10Z</time>
      </trkpt>
      <trkpt lat="43.60206" lon="3.72018">
        <ele>228.5</ele>
        <time>2021-01-23T13:29:11Z</time>
      </trkpt>
      <trkpt lat="43.60202" lon="3.72022">
        <ele>228</ele>
        <time>2021-01-23T13:29:12Z</time>
      </trkpt>
      <trkpt lat="43.60197" lon="3.72025">
        <ele>227.4</ele>
        <time>2021-01-23T13:29:13Z</time>
      </trkpt>
      <trkpt lat="43.60193" lon="3.72027">
        <ele>226.9</ele>
        <time>2021-01-23T13:29:14Z</time>
      </trkpt>
      <trkpt lat="43.60188" lon="3.72028">
        <ele>226.5</ele>
        <time>2021-01-23T13:29:15Z</time>
      </trkpt>
      <trkpt lat="43.60182" lon="3.72029">
        <ele>226.1</ele>
        <time>2021-01-23T13:29:16Z</time>
      </trkpt>
      <trkpt lat="43.60177" lon="3.72029">
        <ele>225.7</ele>
        <time>2021-01-23T13:29:17Z</time>
      </trkpt>
      <trkpt lat="43.60172" lon="3.72028">
        <ele>225.4</ele>
        <time>2021-01-23T13:29:18Z</time>
      </trkpt>
      <trkpt lat="43.60168" lon="3.72025">
        <ele>225.1</ele>
        <time>2021-01-23T13:29:19Z</time>
      </trkpt>
      <trkpt lat="43.60163" lon="3.72024">
        <ele>229</ele>
        <time>2021-01-23T13:29:20Z</time>
      </trkpt>
      <trkpt lat="43.60158" lon="3.72023">
        <ele>225.4</ele>
        <time>2021-01-23T13:29:21Z</time>
      </trkpt>
      <trkpt lat="43.60153" lon="3.72024">
        <ele>225.6</ele>
        <time>2021-01-23T13:29:22Z</time>
      </trkpt>
      <trkpt lat="43.6015" lon="3.72026">
        <ele>225.6</ele>
        <time>2021-01-23T13:29:23Z</time>
      </trkpt>
      <trkpt lat="43.60147" lon="3.72029">
        <ele>225.6</ele>
        <time>2021-01-23T13:29:24Z</time>
      </trkpt>
      <trkpt lat="43.60145" lon="3.72033">
        <ele>225.2</ele>
        <time>2021-01-23T13:29:25Z</time>
      </trkpt>
      <trkpt lat="43.60143" lon="3.72036">
        <ele>224.8</ele>
        <time>2021-01-23T13:29:26Z</time>
      </trkpt>
      <trkpt lat="43.60142" lon="3.72041">
        <ele>224.1</ele>
        <time>2021-01-23T13:29:27Z</time>
      </trkpt>
      <trkpt lat="43.6014" lon="3.72045">
        <ele>223.6</ele>
        <time>2021-01-23T13:29:28Z</time>
      </trkpt>
      <trkpt lat="43.60139" lon="3.72049">
        <ele>222.9</ele>
        <time>2021-01-23T13:29:29Z</time>
      </trkpt>
      <trkpt lat="43.60137" lon="3.72054">
        <ele>227</ele>
        <time>2021-01-23T13:29:30Z</time>
      </trkpt>
      <trkpt lat="43.60136" lon="3.72059">
        <ele>221.8</ele>
        <time>2021-01-23T13:29:31Z</time>
      </trkpt>
      <trkpt lat="43.60134" lon="3.72063">
        <ele>221.3</ele>
        <time>2021-01-23T13:29:32Z</time>
      </trkpt>
      <trkpt lat="43.60133" lon="3.72066">
        <ele>220.9</ele>
        <time>2021-01-23T13:29:33Z</time>
      </trkpt>
      <trkpt lat="43.60131" lon="3.7207">
        <ele>220.3</ele>
        <time>2021-01-23T13:29:34Z</time>
      </trkpt>
      <trkpt lat="43.6013" lon="3.72074">
        <ele>219.7</ele>
        <time>2021-01-23T13:29:35Z</time>
      </trkpt>
      <trkpt lat="43.60128" lon="3.72078">
        <ele>219</ele>
        <time>2021-01-23T13:29:36Z</time>
      </trkpt>
      <trkpt lat="43.60126" lon="3.72083">
        <ele>218.1</ele>
        <time>2021-01-23T13:29:37Z</time>
      </trkpt>
      <trkpt lat="43.60124" lon="3.72087">
        <ele>217.3</ele>
        <time>2021-01-23T13:29:38Z</time>
      </trkpt>
      <trkpt lat="43.60121" lon="3.72091">
        <ele>216.5</ele>
        <time>2021-01-23T13:29:39Z</time>
      </trkpt>
      <trkpt lat="43.60118" lon="3.72095">
        <ele>225</ele>
        <time>2021-01-23T13:29:40Z</time>
      </trkpt>
      <trkpt lat="43.60116" lon="3.72098">
        <ele>214.7</ele>
        <time>2021-01-23T13:29:41Z</time>
      </trkpt>
      <trkpt lat="43.60114" lon="3.72102">
        <ele>213.6</ele>
        <time>2021-01-23T13:29:42Z</time>
      </trkpt>
      <trkpt lat="43.60112" lon="3.72107">
        <ele>212.1</ele>
        <time>2021-01-23T13:29:43Z</time>
      </trkpt>
      <trkpt lat="43.60111" lon="3.72111">
        <ele>211</ele>
        <time>2021-01-23T13:29:44Z</time>
      </trkpt>
      <trkpt lat="43.60109" lon="3.72115">
        <ele>210.5</ele>
        <time>2021-01-23T13:29:45Z</time>
      </trkpt>
      <trkpt lat="43.60107" lon="3.72119">
        <ele>209.9</ele>
        <time>2021-01-23T13:29:46Z</time>
      </trkpt>
      <trkpt lat="43.60105" lon="3.72123">
        <ele>209.2</ele>
        <time>2021-01-23T13:29:47Z</time>
      </trkpt>
      <trkpt lat="43.60103" lon="3.72126">
        <ele>208.7</ele>
        <time>2021-01-23T13:29:48Z</time>
      </trkpt>
      <trkpt lat="43.60101" lon="3.7213">
        <ele>207.9</ele>
        <time>2021-01-23T13:29:49Z</time>
      </trkpt>
      <trkpt lat="43.60099" lon="3.72134">
        <ele>222</ele>
        <time>2021-01-23T13:29:50Z</time>
      </trkpt>
      <trkpt lat="43.60097" lon="3.72138">
        <ele>206.2</ele>
        <time>2021-01-23T13:29:51Z</time>
      </trkpt>
      <trkpt lat="43.60096" lon="3.72142">
        <ele>205.2</ele>
        <time>2021-01-23T13:29:52Z</time>
      </trkpt>
      <trkpt lat="43.60094" lon="3.72146">
        <ele>204</ele>
        <time>2021-01-23T13:29:53Z</time>
      </trkpt>
      <trkpt lat="43.60091" lon="3.7215">
        <ele>202.7</ele>
        <time>2021-01-23T13:29:54Z</time>
      </trkpt>
      <trkpt lat="43.60089" lon="3.72152">
        <ele>201.9</ele>
        <time>2021-01-23T13:29:55Z</time>
      </trkpt>
      <trkpt lat="43.60088" lon="3.72155">
        <ele>201</ele>
        <time>2021-01-23T13:29:56Z</time>
      </trkpt>
      <trkpt lat="43.60087" lon="3.72158">
        <ele>200</ele>
        <time>2021-01-23T13:29:57Z</time>
      </trkpt>
      <trkpt lat="43.60086" lon="3.7216">
        <ele>199.3</ele>
        <time>2021-01-23T13:29:58Z</time>
      </trkpt>
      <trkpt lat="43.60084" lon="3.72162">
        <ele>198.5</ele>
        <time>2021-01-23T13:29:59Z</time>
      </trkpt>
      <trkpt lat="43.60084" lon="3.72165">
        <ele>219</ele>
        <time>2021-01-23T13:30:00Z</time>
      </trkpt>
      <trkpt lat="43.60083" lon="3.72168">
        <ele>196.8</ele>
        <time>2021-01-23T13:30:01Z</time>
      </trkpt>
      <trkpt lat="43.60082" lon="3.72172">
        <ele>196.1</ele>
        <time>2021-01-23T13:30:02Z</time>
      </trkpt>
      <trkpt lat="43.6008" lon="3.72176">
        <ele>195.4</ele>
        <time>2021-01-23T13:30:03Z</time>
      </trkpt>
      <trkpt lat="43.60079" lon="3.7218">
        <ele>194.6</ele>
        <time>2021-01-23T13:30:04Z</time>
      </trkpt>
      <trkpt lat="43.60076" lon="3.72184">
        <ele>193.8</ele>
        <time>2021-01-23T13:30:05Z</time>
      </trkpt>
      <trkpt lat="43.60074" lon="3.72187">
        <ele>193.2</ele>
        <time>2021-01-23T13:30:06Z</time>
      </trkpt>
      <trkpt lat="43.60071" lon="3.7219">
        <ele>192.5</ele>
        <time>2021-01-23T13:30:07Z</time>
      </trkpt>
      <trkpt lat="43.60069" lon="3.72194">
        <ele>191.6</ele>
        <time>2021-01-23T13:30:08Z</time>
      </trkpt>
      <trkpt lat="43.60067" lon="3.72197">
        <ele>191</ele>
        <time>2021-01-23T13:30:09Z</time>
      </trkpt>
      <trkpt lat="43.60065" lon="3.72201">
        <ele>215</ele>
        <time>2021-01-23T13:30:10Z</time>
      </trkpt>
      <trkpt lat="43.60063" lon="3.72205">
        <ele>189.4</ele>
        <time>2021-01-23T13:30:11Z</time>
      </trkpt>
      <trkpt lat="43.6006" lon="3.7221">
        <ele>188.2</ele>
        <time>2021-01-23T13:30:12Z</time>
      </trkpt>
      <trkpt lat="43.60057" lon="3.72215">
        <ele>186.8</ele>
        <time>2021-01-23T13:30:13Z</time>
      </trkpt>
      <trkpt lat="43.60054" lon="3.72219">
        <ele>185.7</ele>
        <time>2021-01-23T13:30:14Z</time>
      </trkpt>
      <trkpt lat="43.60052" lon="3.72223">
        <ele>185</ele>
        <time>2021-01-23T13:30:15Z</time>
      </trkpt>
      <trkpt lat="43.6005" lon="3.72228">
        <ele>184.5</ele>
        <time>2021-01-23T13:30:16Z</time>
      </trkpt>
      <trkpt lat="43.60049" lon="3.72232">
        <ele>184</ele>
        <time>2021-01-23T13:30:17Z</time>
      </trkpt>
      <trkpt lat="43.60047" lon="3.72237">
        <ele>183.4</ele>
        <time>2021-01-23T13:30:18Z</time>
      </trkpt>
      <trkpt lat="43.60045" lon="3.72242">
        <ele>182.7</ele>
        <time>2021-01-23T13:30:19Z</time>
      </trkpt>
      <trkpt lat="43.60043" lon="3.72247">
        <ele>211</ele>
        <time>2021-01-23T13:30:20Z</time>
      </trkpt>
      <trkpt lat="43.60041" lon="3.72251">
        <ele>181.4</ele>
        <time>2021-01-23T13:30:21Z</time>
      </trkpt>
      <trkpt lat="43.60039" lon="3.72256">
        <ele>180.8</ele>
        <time>2021-01-23T13:30:22Z</time>
      </trkpt>
      <trkpt lat="43.60037" lon="3.72261">
        <ele>180.3</ele>
        <time>2021-01-23T13:30:23Z</time>
      </trkpt>
      <trkpt lat="43.60035" lon="3.72266">
        <ele>179.7</ele>
        <time>2021-01-23T13:30:24Z</time>
      </trkpt>
      <trkpt lat="43.60032" lon="3.7227">
        <ele>179.1</ele>
        <time>2021-01-23T13:30:25Z</time>
      </trkpt>
      <trkpt lat="43.6003" lon="3.72276">
        <ele>178.3</ele>
        <time>2021-01-23T13:30:26Z</time>
      </trkpt>
      <trkpt lat="43.60029" lon="3.7228">
        <ele>177.8</ele>
        <time>2021-01-23T13:30:27Z</time>
      </trkpt>
      <trkpt lat="43.60028" lon="3.72284">
        <ele>177.1</ele>
        <time>2021-01-23T13:30:28Z</time>
      </trkpt>
      <trkpt lat="43.60028" lon="3.72288">
        <ele>176.5</ele>
        <time>2021-01-23T13:30:29Z</time>
      </trkpt>
      <trkpt lat="43.60028" lon="3.72292">
        <ele>202</ele>
        <time>2021-01-23T13:30:30Z</time>
      </trkpt>
      <trkpt lat="43.60029" lon="3.72296">
        <ele>175.5</ele>
        <time>2021-01-23T13:30:31Z</time>
      </trkpt>
      <trkpt lat="43.6003" lon="3.72301">
        <ele>174.8</ele>
        <time>2021-01-23T13:30:32Z</time>
      </trkpt>
      <trkpt lat="43.60031" lon="3.72305">
        <ele>174.3</ele>
        <time>2021-01-23T13:30:33Z</time>
      </trkpt>
      <trkpt lat="43.60031" lon="3.7231">
        <ele>173.8</ele>
        <time>2021-01-23T13:30:34Z</time>
      </trkpt>
      <trkpt lat="43.60032" lon="3.72314">
        <ele>173.4</ele>
        <time>2021-01-23T13:30:35Z</time>
      </trkpt>
      <trkpt lat="43.60033" lon="3.72318">
        <ele>173</ele>
        <time>2021-01-23T13:30:36Z</time>
      </trkpt>
      <trkpt lat="43.60033" lon="3.72322">
        <ele>172.6</ele>
        <time>2021-01-23T13:30:37Z</time>
      </trkpt>
      <trkpt lat="43.60032" lon="3.72328">
        <ele>171.9</ele>
        <time>2021-01-23T13:30:38Z</time>
      </trkpt>
      <trkpt lat="43.60032" lon="3.72333">
        <ele>171.3</ele>
        <time>2021-01-23T13:30:39Z</time>
      </trkpt>
      <trkpt lat="43.60031" lon="3.72337">
        <ele>189</ele>
        <time>2021-01-23T13:30:40Z</time>
      </trkpt>
      <trkpt lat="43.60031" lon="3.72341">
        <ele>170.1</ele>
        <time>2021-01-23T13:30:41Z</time>
      </trkpt>
      <trkpt lat="43.60031" lon="3.72346">
        <ele>169.4</ele>
        <time>2021-01-23T13:30:42Z</time>
      </trkpt>
      <trkpt lat="43.6003" lon="3.7235">
        <ele>168.8</ele>
        <time>2021-01-23T13:30:43Z</time>
      </trkpt>
      <trkpt lat="43.6003" lon="3.72355">
        <ele>168</ele>
        <time>2021-01-23T13:30:44Z</time>
      </trkpt>
      <trkpt lat="43.6003" lon="3.72359">
        <ele>167.5</ele>
        <time>2021-01-23T13:30:45Z</time>
      </trkpt>
      <trkpt lat="43.6003" lon="3.72365">
        <ele>166.7</ele>
        <time>2021-01-23T13:30:46Z</time>
      </trkpt>
      <trkpt lat="43.60029" lon="3.7237">
        <ele>166.1</ele>
        <time>2021-01-23T13:30:47Z</time>
      </trkpt>
      <trkpt lat="43.60029" lon="3.72374">
        <ele>165.7</ele>
        <time>2021-01-23T13:30:48Z</time>
      </trkpt>
      <trkpt lat="43.60029" lon="3.72378">
        <ele>165.2</ele>
        <time>2021-01-23T13:30:49Z</time>
      </trkpt>
      <trkpt lat="43.60029" lon="3.72382">
        <ele>164.8</ele>
        <time>2021-01-23T13:30:50Z</time>
      </trkpt>
      <trkpt lat="43.60029" lon="3.72387">
        <ele>185</ele>
        <time>2021-01-23T13:30:51Z</time>
      </trkpt>
      <trkpt lat="43.60028" lon="3.72392">
        <ele>163.6</ele>
        <time>2021-01-23T13:30:52Z</time>
      </trkpt>
      <trkpt lat="43.60026" lon="3.72398">
        <ele>162.8</ele>
        <time>2021-01-23T13:30:53Z</time>
      </trkpt>
      <trkpt lat="43.60024" lon="3.72404">
        <ele>162.1</ele>
        <time>2021-01-23T13:30:54Z</time>
      </trkpt>
      <trkpt lat="43.60023" lon="3.72409">
        <ele>161.4</ele>
        <time>2021-01-23T13:30:55Z</time>
      </trkpt>
      <trkpt lat="43.60022" lon="3.72415">
        <ele>160.7</ele>
        <time>2021-01-23T13:30:56Z</time>
      </trkpt>
      <trkpt lat="43.60022" lon="3.7242">
        <ele>159.9</ele>
        <time>2021-01-23T13:30:57Z</time>
      </trkpt>
      <trkpt lat="43.60021" lon="3.72426">
        <ele>159.1</ele>
        <time>2021-01-23T13:30:58Z</time>
      </trkpt>
      <trkpt lat="43.60019" lon="3.72432">
        <ele>158.4</ele>
        <time>2021-01-23T13:30:59Z</time>
      </trkpt>
      <trkpt lat="43.60018" lon="3.72438">
        <ele>177</ele>
        <time>2021-01-23T13:31:00Z</time>
      </trkpt>
      <trkpt lat="43.60016" lon="3.72443">
        <ele>157.1</ele>
        <time>2021-01-23T13:31:01Z</time>
      </trkpt>
      <trkpt lat="43.60014" lon="3.72448">
        <ele>156.7</ele>
        <time>2021-01-23T13:31:02Z</time>
      </trkpt>
      <trkpt lat="43.60013" lon="3.72454">
        <ele>156.2</ele>
        <time>2021-01-23T13:31:03Z</time>
      </trkpt>
      <trkpt lat="43.60012" lon="3.72459">
        <ele>155.7</ele>
        <time>2021-01-23T13:31:04Z</time>
      </trkpt>
      <trkpt lat="43.6001" lon="3.72464">
        <ele>155.2</ele>
        <time>2021-01-23T13:31:05Z</time>
      </trkpt>
      <trkpt lat="43.60008" lon="3.72468">
        <ele>154.8</ele>
        <time>2021-01-23T13:31:06Z</time>
      </trkpt>
      <trkpt lat="43.60007" lon="3.72474">
        <ele>154</ele>
        <time>2021-01-23T13:31:07Z</time>
      </trkpt>
      <trkpt lat="43.60007" lon="3.72479">
        <ele>153.4</ele>
        <time>2021-01-23T13:31:08Z</time>
      </trkpt>
      <trkpt lat="43.60007" lon="3.72484">
        <ele>152.8</ele>
        <time>2021-01-23T13:31:09Z</time>
      </trkpt>
      <trkpt lat="43.60008" lon="3.72489">
        <ele>171</ele>
        <time>2021-01-23T13:31:10Z</time>
      </trkpt>
      <trkpt lat="43.60009" lon="3.72495">
        <ele>151.6</ele>
        <time>2021-01-23T13:31:11Z</time>
      </trkpt>
      <trkpt lat="43.60008" lon="3.72499">
        <ele>151</ele>
        <time>2021-01-23T13:31:12Z</time>
      </trkpt>
      <trkpt lat="43.60007" lon="3.72502">
        <ele>150.7</ele>
        <time>2021-01-23T13:31:13Z</time>
      </trkpt>
      <trkpt lat="43.59999" lon="3.72508">
        <ele>161</ele>
        <time>2021-01-23T13:31:35Z</time>
      </trkpt>
      <trkpt lat="43.59996" lon="3.7251">
        <ele>149.7</ele>
        <time>2021-01-23T13:31:36Z</time>
      </trkpt>
      <trkpt lat="43.59992" lon="3.72513">
        <ele>149.6</ele>
        <time>2021-01-23T13:31:37Z</time>
      </trkpt>
      <trkpt lat="43.59989" lon="3.72517">
        <ele>149.3</ele>
        <time>2021-01-23T13:31:38Z</time>
      </trkpt>
      <trkpt lat="43.59986" lon="3.72522">
        <ele>148.9</ele>
        <time>2021-01-23T13:31:39Z</time>
      </trkpt>
      <trkpt lat="43.59983" lon="3.72526">
        <ele>148.5</ele>
        <time>2021-01-23T13:31:40Z</time>
      </trkpt>
      <trkpt lat="43.5998" lon="3.72531">
        <ele>148.1</ele>
        <time>2021-01-23T13:31:41Z</time>
      </trkpt>
      <trkpt lat="43.59978" lon="3.72537">
        <ele>147.6</ele>
        <time>2021-01-23T13:31:42Z</time>
      </trkpt>
      <trkpt lat="43.59977" lon="3.72543">
        <ele>147.2</ele>
        <time>2021-01-23T13:31:43Z</time>
      </trkpt>
      <trkpt lat="43.59974" lon="3.72549">
        <ele>156</ele>
        <time>2021-01-23T13:31:44Z</time>
      </trkpt>
      <trkpt lat="43.59971" lon="3.72555">
        <ele>146</ele>
        <time>2021-01-23T13:31:45Z</time>
      </trkpt>
      <trkpt lat="43.59968" lon="3.7256">
        <ele>145.4</ele>
        <time>2021-01-23T13:31:46Z</time>
      </trkpt>
      <trkpt lat="43.59965" lon="3.72567">
        <ele>144.8</ele>
        <time>2021-01-23T13:31:47Z</time>
      </trkpt>
      <trkpt lat="43.59962" lon="3.72572">
        <ele>144.3</ele>
        <time>2021-01-23T13:31:48Z</time>
      </trkpt>
      <trkpt lat="43.59957" lon="3.72577">
        <ele>143.8</ele>
        <time>2021-01-23T13:31:49Z</time>
      </trkpt>
      <trkpt lat="43.59953" lon="3.7258">
        <ele>143.5</ele>
        <time>2021-01-23T13:31:50Z</time>
      </trkpt>
      <trkpt lat="43.59948" lon="3.7258">
        <ele>143.3</ele>
        <time>2021-01-23T13:31:51Z</time>
      </trkpt>
      <trkpt lat="43.59943" lon="3.7258">
        <ele>143</ele>
        <time>2021-01-23T13:31:52Z</time>
      </trkpt>
      <trkpt lat="43.59939" lon="3.72582">
        <ele>142.5</ele>
        <time>2021-01-23T13:31:53Z</time>
      </trkpt>
      <trkpt lat="43.59932" lon="3.72591">
        <ele>152</ele>
        <time>2021-01-23T13:31:54Z</time>
      </trkpt>
      <trkpt lat="43.59928" lon="3.72598">
        <ele>140.5</ele>
        <time>2021-01-23T13:31:55Z</time>
      </trkpt>
      <trkpt lat="43.59921" lon="3.7261">
        <ele>139.4</ele>
        <time>2021-01-23T13:31:57Z</time>
      </trkpt>
      <trkpt lat="43.59918" lon="3.72614">
        <ele>139</ele>
        <time>2021-01-23T13:31:58Z</time>
      </trkpt>
      <trkpt lat="43.59915" lon="3.72617">
        <ele>138.7</ele>
        <time>2021-01-23T13:32:00Z</time>
      </trkpt>
      <trkpt lat="43.59914" lon="3.72618">
        <ele>138.7</ele>
        <time>2021-01-23T13:32:01Z</time>
      </trkpt>
      <trkpt lat="43.59913" lon="3.72621">
        <ele>138.5</ele>
        <time>2021-01-23T13:32:02Z</time>
      </trkpt>
      <trkpt lat="43.59912" lon="3.72624">
        <ele>138.4</ele>
        <time>2021-01-23T13:32:03Z</time>
      </trkpt>
      <trkpt lat="43.59912" lon="3.72628">
        <ele>147</ele>
        <time>2021-01-23T13:32:04Z</time>
      </trkpt>
      <trkpt lat="43.59913" lon="3.72631">
        <ele>138.2</ele>
        <time>2021-01-23T13:32:05Z</time>
      </trkpt>
      <trkpt lat="43.59912" lon="3.72635">
        <ele>138</ele>
        <time>2021-01-23T13:32:06Z</time>
      </trkpt>
      <trkpt lat="43.59911" lon="3.72639">
        <ele>137.8</ele>
        <time>2021-01-23T13:32:07Z</time>
      </trkpt>
      <trkpt lat="43.59908" lon="3.7264">
        <ele>137.6</ele>
        <time>2021-01-23T13:32:08Z</time>
      </trkpt>
      <trkpt lat="43.59906" lon="3.72639">
        <ele>137.6</ele>
        <time>2021-01-23T13:32:09Z</time>
      </trkpt>
      <trkpt lat="43.59903" lon="3.72638">
        <ele>137.5</ele>
        <time>2021-01-23T13:32:10Z</time>
      </trkpt>
      <trkpt lat="43.599" lon="3.72636">
        <ele>137.5</ele>
        <time>2021-01-23T13:32:11Z</time>
      </trkpt>
      <trkpt lat="43.59898" lon="3.72633">
        <ele>137.5</ele>
        <time>2021-01-23T13:32:12Z</time>
      </trkpt>
      <trkpt lat="43.59895" lon="3.7263">
        <ele>137.5</ele>
        <time>2021-01-23T13:32:13Z</time>
      </trkpt>
      <trkpt lat="43.59892" lon="3.72627">
        <ele>144</ele>
        <time>2021-01-23T13:32:14Z</time>
      </trkpt>
      <trkpt lat="43.59889" lon="3.72624">
        <ele>137.5</ele>
        <time>2021-01-23T13:32:15Z</time>
      </trkpt>
      <trkpt lat="43.59887" lon="3.7262">
        <ele>137.6</ele>
        <time>2021-01-23T13:32:16Z</time>
      </trkpt>
      <trkpt lat="43.59884" lon="3.72617">
        <ele>137.6</ele>
        <time>2021-01-23T13:32:17Z</time>
      </trkpt>
      <trkpt lat="43.59882" lon="3.72614">
        <ele>137.6</ele>
        <time>2021-01-23T13:32:18Z</time>
      </trkpt>
      <trkpt lat="43.59879" lon="3.72611">
        <ele>137.6</ele>
        <time>2021-01-23T13:32:19Z</time>
      </trkpt>
      <trkpt lat="43.59876" lon="3.72608">
        <ele>137.6</ele>
        <time>2021-01-23T13:32:20Z</time>
      </trkpt>
      <trkpt lat="43.59873" lon="3.72604">
        <ele>137.7</ele>
        <time>2021-01-23T13:32:21Z</time>
      </trkpt>
      <trkpt lat="43.59871" lon="3.726">
        <ele>137.8</ele>
        <time>2021-01-23T13:32:22Z</time>
      </trkpt>
      <trkpt lat="43.59869" lon="3.72596">
        <ele>137.8</ele>
        <time>2021-01-23T13:32:23Z</time>
      </trkpt>
      <trkpt lat="43.59867" lon="3.72593">
        <ele>142</ele>
        <time>2021-01-23T13:32:24Z</time>
      </trkpt>
      <trkpt lat="43.59865" lon="3.72591">
        <ele>137.9</ele>
        <time>2021-01-23T13:32:25Z</time>
      </trkpt>
      <trkpt lat="43.59863" lon="3.72589">
        <ele>137.9</ele>
        <time>2021-01-23T13:32:26Z</time>
      </trkpt>
      <trkpt lat="43.59861" lon="3.72585">
        <ele>137.9</ele>
        <time>2021-01-23T13:32:27Z</time>
      </trkpt>
      <trkpt lat="43.5986" lon="3.72581">
        <ele>138.1</ele>
        <time>2021-01-23T13:32:28Z</time>
      </trkpt>
      <trkpt lat="43.59859" lon="3.72578">
        <ele>138.2</ele>
        <time>2021-01-23T13:32:29Z</time>
      </trkpt>
      <trkpt lat="43.59858" lon="3.72574">
        <ele>138.3</ele>
        <time>2021-01-23T13:32:30Z</time>
      </trkpt>
      <trkpt lat="43.59857" lon="3.7257">
        <ele>138.5</ele>
        <time>2021-01-23T13:32:31Z</time>
      </trkpt>
      <trkpt lat="43.59855" lon="3.72567">
        <ele>138.6</ele>
        <time>2021-01-23T13:32:32Z</time>
      </trkpt>
      <trkpt lat="43.59854" lon="3.72564">
        <ele>138.7</ele>
        <time>2021-01-23T13:32:33Z</time>
      </trkpt>
      <trkpt lat="43.59852" lon="3.7256">
        <ele>142</ele>
        <time>2021-01-23T13:32:34Z</time>
      </trkpt>
      <trkpt lat="43.5985" lon="3.72557">
        <ele>138.9</ele>
        <time>2021-01-23T13:32:35Z</time>
      </trkpt>
      <trkpt lat="43.59849" lon="3.72554">
        <ele>139.1</ele>
        <time>2021-01-23T13:32:36Z</time>
      </trkpt>
      <trkpt lat="43.59847" lon="3.72551">
        <ele>139.2</ele>
        <time>2021-01-23T13:32:37Z</time>
      </trkpt>
      <trkpt lat="43.59846" lon="3.72547">
        <ele>139.3</ele>
        <time>2021-01-23T13:32:38Z</time>
      </trkpt>
      <trkpt lat="43.59844" lon="3.72544">
        <ele>139.4</ele>
        <time>2021-01-23T13:32:39Z</time>
      </trkpt>
      <trkpt lat="43.59843" lon="3.72541">
        <ele>139.5</ele>
        <time>2021-01-23T13:32:40Z</time>
      </trkpt>
      <trkpt lat="43.59841" lon="3.72538">
        <ele>139.6</ele>
        <time>2021-01-23T13:32:41Z</time>
      </trkpt>
      <trkpt lat="43.59839" lon="3.72535">
        <ele>139.7</ele>
        <time>2021-01-23T13:32:42Z</time>
      </trkpt>
      <trkpt lat="43.59837" lon="3.72532">
        <ele>139.8</ele>
        <time>2021-01-23T13:32:43Z</time>
      </trkpt>
      <trkpt lat="43.59836" lon="3.72529">
        <ele>143</ele>
        <time>2021-01-23T13:32:44Z</time>
      </trkpt>
      <trkpt lat="43.59834" lon="3.72526">
        <ele>140.1</ele>
        <time>2021-01-23T13:32:45Z</time>
      </trkpt>
      <trkpt lat="43.59832" lon="3.72523">
        <ele>140.2</ele>
        <time>2021-01-23T13:32:46Z</time>
      </trkpt>
      <trkpt lat="43.5983" lon="3.7252">
        <ele>140.3</ele>
        <time>2021-01-23T13:32:47Z</time>
      </trkpt>
      <trkpt lat="43.59829" lon="3.72517">
        <ele>140.4</ele>
        <time>2021-01-23T13:32:48Z</time>
      </trkpt>
      <trkpt lat="43.59827" lon="3.72513">
        <ele>140.7</ele>
        <time>2021-01-23T13:32:49Z</time>
      </trkpt>
      <trkpt lat="43.59825" lon="3.7251">
        <ele>140.8</ele>
        <time>2021-01-23T13:32:50Z</time>
      </trkpt>
      <trkpt lat="43.59823" lon="3.72507">
        <ele>141</ele>
        <time>2021-01-23T13:32:51Z</time>
      </trkpt>
      <trkpt lat="43.59821" lon="3.72503">
        <ele>141.3</ele>
        <time>2021-01-23T13:32:52Z</time>
      </trkpt>
      <trkpt lat="43.5982" lon="3.725">
        <ele>141.5</ele>
        <time>2021-01-23T13:32:53Z</time>
      </trkpt>
      <trkpt lat="43.59818" lon="3.72497">
        <ele>144</ele>
        <time>2021-01-23T13:32:54Z</time>
      </trkpt>
      <trkpt lat="43.59816" lon="3.72494">
        <ele>142.1</ele>
        <time>2021-01-23T13:32:55Z</time>
      </trkpt>
      <trkpt lat="43.59814" lon="3.72492">
        <ele>142.3</ele>
        <time>2021-01-23T13:32:56Z</time>
      </trkpt>
      <trkpt lat="43.59813" lon="3.72489">
        <ele>142.5</ele>
        <time>2021-01-23T13:32:57Z</time>
      </trkpt>
      <trkpt lat="43.59811" lon="3.72487">
        <ele>142.7</ele>
        <time>2021-01-23T13:32:58Z</time>
      </trkpt>
      <trkpt lat="43.59809" lon="3.72484">
        <ele>143</ele>
        <time>2021-01-23T13:32:59Z</time>
      </trkpt>
      <trkpt lat="43.59808" lon="3.72482">
        <ele>143.2</ele>
        <time>2021-01-23T13:33:00Z</time>
      </trkpt>
      <trkpt lat="43.59806" lon="3.72481">
        <ele>143.4</ele>
        <time>2021-01-23T13:33:01Z</time>
      </trkpt>
      <trkpt lat="43.59804" lon="3.72479">
        <ele>143.5</ele>
        <time>2021-01-23T13:33:02Z</time>
      </trkpt>
      <trkpt lat="43.59803" lon="3.72477">
        <ele>143.7</ele>
        <time>2021-01-23T13:33:03Z</time>
      </trkpt>
      <trkpt lat="43.59801" lon="3.72475">
        <ele>146</ele>
        <time>2021-01-23T13:33:04Z</time>
      </trkpt>
      <trkpt lat="43.598" lon="3.72474">
        <ele>143.9</ele>
        <time>2021-01-23T13:33:05Z</time>
      </trkpt>
      <trkpt lat="43.59798" lon="3.72472">
        <ele>144</ele>
        <time>2021-01-23T13:33:06Z</time>
      </trkpt>
      <trkpt lat="43.59797" lon="3.7247">
        <ele>144.2</ele>
        <time>2021-01-23T13:33:07Z</time>
      </trkpt>
      <trkpt lat="43.59796" lon="3.72468">
        <ele>144.5</ele>
        <time>2021-01-23T13:33:08Z</time>
      </trkpt>
      <trkpt lat="43.59794" lon="3.72467">
        <ele>144.6</ele>
        <time>2021-01-23T13:33:09Z</time>
      </trkpt>
      <trkpt lat="43.59793" lon="3.72465">
        <ele>144.8</ele>
        <time>2021-01-23T13:33:10Z</time>
      </trkpt>
      <trkpt lat="43.59791" lon="3.72464">
        <ele>144.9</ele>
        <time>2021-01-23T13:33:11Z</time>
      </trkpt>
      <trkpt lat="43.59789" lon="3.72463">
        <ele>145</ele>
        <time>2021-01-23T13:33:12Z</time>
      </trkpt>
      <trkpt lat="43.59787" lon="3.72461">
        <ele>145.2</ele>
        <time>2021-01-23T13:33:13Z</time>
      </trkpt>
      <trkpt lat="43.59785" lon="3.7246">
        <ele>147</ele>
        <time>2021-01-23T13:33:14Z</time>
      </trkpt>
      <trkpt lat="43.59783" lon="3.72459">
        <ele>145.4</ele>
        <time>2021-01-23T13:33:15Z</time>
      </trkpt>
      <trkpt lat="43.59782" lon="3.72457">
        <ele>145.6</ele>
        <time>2021-01-23T13:33:16Z</time>
      </trkpt>
      <trkpt lat="43.5978" lon="3.72456">
        <ele>145.8</ele>
        <time>2021-01-23T13:33:17Z</time>
      </trkpt>
      <trkpt lat="43.59779" lon="3.72454">
        <ele>146</ele>
        <time>2021-01-23T13:33:18Z</time>
      </trkpt>
      <trkpt lat="43.59777" lon="3.72452">
        <ele>146.2</ele>
        <time>2021-01-23T13:33:19Z</time>
      </trkpt>
      <trkpt lat="43.59775" lon="3.72449">
        <ele>146.5</ele>
        <time>2021-01-23T13:33:21Z</time>
      </trkpt>
      <trkpt lat="43.59772" lon="3.72445">
        <ele>146.9</ele>
        <time>2021-01-23T13:33:23Z</time>
      </trkpt>
      <trkpt lat="43.5977" lon="3.72443">
        <ele>147.1</ele>
        <time>2021-01-23T13:33:25Z</time>
      </trkpt>
      <trkpt lat="43.59767" lon="3.7244">
        <ele>147.4</ele>
        <time>2021-01-23T13:33:27Z</time>
      </trkpt>
      <trkpt lat="43.59765" lon="3.72437">
        <ele>147.7</ele>
        <time>2021-01-23T13:33:29Z</time>
      </trkpt>
      <trkpt lat="43.59762" lon="3.72434">
        <ele>147.9</ele>
        <time>2021-01-23T13:33:31Z</time>
      </trkpt>
      <trkpt lat="43.5976" lon="3.7243">
        <ele>148.2</ele>
        <time>2021-01-23T13:33:33Z</time>
      </trkpt>
      <trkpt lat="43.59758" lon="3.72429">
        <ele>150</ele>
        <time>2021-01-23T13:33:34Z</time>
      </trkpt>
      <trkpt lat="43.59757" lon="3.72427">
        <ele>148.4</ele>
        <time>2021-01-23T13:33:35Z</time>
      </trkpt>
      <trkpt lat="43.59756" lon="3.72425">
        <ele>148.6</ele>
        <time>2021-01-23T13:33:36Z</time>
      </trkpt>
      <trkpt lat="43.59755" lon="3.72423">
        <ele>148.7</ele>
        <time>2021-01-23T13:33:37Z</time>
      </trkpt>
      <trkpt lat="43.59753" lon="3.72421">
        <ele>148.8</ele>
        <time>2021-01-23T13:33:38Z</time>
      </trkpt>
      <trkpt lat="43.59751" lon="3.72417">
        <ele>149</ele>
        <time>2021-01-23T13:33:40Z</time>
      </trkpt>
      <trkpt lat="43.59749" lon="3.72413">
        <ele>149.2</ele>
        <time>2021-01-23T13:33:42Z</time>
      </trkpt>
      <trkpt lat="43.59748" lon="3.72409">
        <ele>151</ele>
        <time>2021-01-23T13:33:44Z</time>
      </trkpt>
      <trkpt lat="43.59746" lon="3.72404">
        <ele>149.6</ele>
        <time>2021-01-23T13:33:46Z</time>
      </trkpt>
      <trkpt lat="43.59745" lon="3.724">
        <ele>149.8</ele>
        <time>2021-01-23T13:33:48Z</time>
      </trkpt>
      <trkpt lat="43.59744" lon="3.72395">
        <ele>150.1</ele>
        <time>2021-01-23T13:33:50Z</time>
      </trkpt>
      <trkpt lat="43.59743" lon="3.72391">
        <ele>150.3</ele>
        <time>2021-01-23T13:33:52Z</time>
      </trkpt>
      <trkpt lat="43.59742" lon="3.72389">
        <ele>150.4</ele>
        <time>2021-01-23T13:33:53Z</time>
      </trkpt>
      <trkpt lat="43.59741" lon="3.72386">
        <ele>153</ele>
        <time>2021-01-23T13:33:54Z</time>
      </trkpt>
      <trkpt lat="43.5974" lon="3.72382">
        <ele>150.7</ele>
        <time>2021-01-23T13:33:56Z</time>
      </trkpt>
      <trkpt lat="43.59739" lon="3.72379">
        <ele>150.8</ele>
        <time>2021-01-23T13:33:58Z</time>
      </trkpt>
      <trkpt lat="43.59739" lon="3.72379">
        <ele>153</ele>
        <time>2021-01-23T13:34:01Z</time>
      </trkpt>
      <trkpt lat="43.5974" lon="3.72373">
        <ele>153</ele>
        <time>2021-01-23T13:34:05Z</time>
      </trkpt>
      <trkpt lat="43.5974" lon="3.72372">
        <ele>153</ele>
        <time>2021-01-23T13:34:09Z</time>
      </trkpt>
      <trkpt lat="43.59737" lon="3.72367">
        <ele>153</ele>
        <time>2021-01-23T13:34:33Z</time>
      </trkpt>
      <trkpt lat="43.59734" lon="3.72366">
        <ele>151</ele>
        <time>2021-01-23T13:34:35Z</time>
      </trkpt>
      <trkpt lat="43.59732" lon="3.72366">
        <ele>150.8</ele>
        <time>2021-01-23T13:34:36Z</time>
      </trkpt>
      <trkpt lat="43.5973" lon="3.72367">
        <ele>150.6</ele>
        <time>2021-01-23T13:34:37Z</time>
      </trkpt>
      <trkpt lat="43.59727" lon="3.72368">
        <ele>150.2</ele>
        <time>2021-01-23T13:34:38Z</time>
      </trkpt>
      <trkpt lat="43.59723" lon="3.7237">
        <ele>149.8</ele>
        <time>2021-01-23T13:34:39Z</time>
      </trkpt>
      <trkpt lat="43.5972" lon="3.72372">
        <ele>149.7</ele>
        <time>2021-01-23T13:34:40Z</time>
      </trkpt>
      <trkpt lat="43.59716" lon="3.72374">
        <ele>149.8</ele>
        <time>2021-01-23T13:34:41Z</time>
      </trkpt>
      <trkpt lat="43.59711" lon="3.72377">
        <ele>152</ele>
        <time>2021-01-23T13:34:42Z</time>
      </trkpt>
      <trkpt lat="43.59706" lon="3.72379">
        <ele>149.9</ele>
        <time>2021-01-23T13:34:43Z</time>
      </trkpt>
      <trkpt lat="43.59703" lon="3.72383">
        <ele>149.9</ele>
        <time>2021-01-23T13:34:44Z</time>
      </trkpt>
      <trkpt lat="43.59701" lon="3.72388">
        <ele>149.8</ele>
        <time>2021-01-23T13:34:45Z</time>
      </trkpt>
      <trkpt lat="43.597" lon="3.72394">
        <ele>149.4</ele>
        <time>2021-01-23T13:34:46Z</time>
      </trkpt>
      <trkpt lat="43.597" lon="3.724">
        <ele>149</ele>
        <time>2021-01-23T13:34:47Z</time>
      </trkpt>
      <trkpt lat="43.597" lon="3.72406">
        <ele>148.6</ele>
        <time>2021-01-23T13:34:48Z</time>
      </trkpt>
      <trkpt lat="43.59699" lon="3.72412">
        <ele>148.2</ele>
        <time>2021-01-23T13:34:49Z</time>
      </trkpt>
      <trkpt lat="43.59699" lon="3.72418">
        <ele>147.8</ele>
        <time>2021-01-23T13:34:50Z</time>
      </trkpt>
      <trkpt lat="43.59699" lon="3.72423">
        <ele>147.6</ele>
        <time>2021-01-23T13:34:51Z</time>
      </trkpt>
      <trkpt lat="43.59697" lon="3.72435">
        <ele>151</ele>
        <time>2021-01-23T13:34:52Z</time>
      </trkpt>
      <trkpt lat="43.59696" lon="3.72441">
        <ele>147.1</ele>
        <time>2021-01-23T13:34:53Z</time>
      </trkpt>
      <trkpt lat="43.59696" lon="3.72447">
        <ele>146.9</ele>
        <time>2021-01-23T13:34:54Z</time>
      </trkpt>
      <trkpt lat="43.59694" lon="3.72457">
        <ele>146.5</ele>
        <time>2021-01-23T13:34:56Z</time>
      </trkpt>
      <trkpt lat="43.59691" lon="3.7246">
        <ele>146.4</ele>
        <time>2021-01-23T13:34:57Z</time>
      </trkpt>
      <trkpt lat="43.59688" lon="3.72461">
        <ele>146.4</ele>
        <time>2021-01-23T13:34:58Z</time>
      </trkpt>
      <trkpt lat="43.59685" lon="3.72462">
        <ele>146.4</ele>
        <time>2021-01-23T13:34:59Z</time>
      </trkpt>
      <trkpt lat="43.59683" lon="3.72464">
        <ele>146.3</ele>
        <time>2021-01-23T13:35:01Z</time>
      </trkpt>
      <trkpt lat="43.5968" lon="3.72467">
        <ele>149</ele>
        <time>2021-01-23T13:35:02Z</time>
      </trkpt>
      <trkpt lat="43.59679" lon="3.72471">
        <ele>146</ele>
        <time>2021-01-23T13:35:03Z</time>
      </trkpt>
      <trkpt lat="43.5968" lon="3.72475">
        <ele>145.8</ele>
        <time>2021-01-23T13:35:04Z</time>
      </trkpt>
      <trkpt lat="43.59681" lon="3.72479">
        <ele>145.5</ele>
        <time>2021-01-23T13:35:05Z</time>
      </trkpt>
      <trkpt lat="43.59681" lon="3.72484">
        <ele>145.2</ele>
        <time>2021-01-23T13:35:06Z</time>
      </trkpt>
      <trkpt lat="43.59681" lon="3.72488">
        <ele>144.9</ele>
        <time>2021-01-23T13:35:07Z</time>
      </trkpt>
      <trkpt lat="43.5968" lon="3.72492">
        <ele>144.6</ele>
        <time>2021-01-23T13:35:08Z</time>
      </trkpt>
      <trkpt lat="43.5968" lon="3.72496">
        <ele>144.3</ele>
        <time>2021-01-23T13:35:09Z</time>
      </trkpt>
      <trkpt lat="43.59679" lon="3.725">
        <ele>144</ele>
        <time>2021-01-23T13:35:10Z</time>
      </trkpt>
      <trkpt lat="43.59679" lon="3.72504">
        <ele>143.9</ele>
        <time>2021-01-23T13:35:11Z</time>
      </trkpt>
      <trkpt lat="43.59679" lon="3.72508">
        <ele>149</ele>
        <time>2021-01-23T13:35:12Z</time>
      </trkpt>
      <trkpt lat="43.59679" lon="3.72513">
        <ele>143.5</ele>
        <time>2021-01-23T13:35:13Z</time>
      </trkpt>
      <trkpt lat="43.59679" lon="3.72517">
        <ele>143.4</ele>
        <time>2021-01-23T13:35:14Z</time>
      </trkpt>
      <trkpt lat="43.59677" lon="3.72522">
        <ele>143.2</ele>
        <time>2021-01-23T13:35:15Z</time>
      </trkpt>
      <trkpt lat="43.59674" lon="3.72526">
        <ele>143.1</ele>
        <time>2021-01-23T13:35:16Z</time>
      </trkpt>
      <trkpt lat="43.59671" lon="3.72529">
        <ele>143</ele>
        <time>2021-01-23T13:35:17Z</time>
      </trkpt>
      <trkpt lat="43.59668" lon="3.72531">
        <ele>143</ele>
        <time>2021-01-23T13:35:18Z</time>
      </trkpt>
      <trkpt lat="43.59665" lon="3.72533">
        <ele>143.1</ele>
        <time>2021-01-23T13:35:19Z</time>
      </trkpt>
      <trkpt lat="43.59662" lon="3.72536">
        <ele>143.2</ele>
        <time>2021-01-23T13:35:20Z</time>
      </trkpt>
      <trkpt lat="43.5966" lon="3.72541">
        <ele>143.2</ele>
        <time>2021-01-23T13:35:21Z</time>
      </trkpt>
      <trkpt lat="43.59659" lon="3.72546">
        <ele>148</ele>
        <time>2021-01-23T13:35:22Z</time>
      </trkpt>
      <trkpt lat="43.59657" lon="3.72552">
        <ele>143.3</ele>
        <time>2021-01-23T13:35:23Z</time>
      </trkpt>
      <trkpt lat="43.59657" lon="3.72557">
        <ele>143.3</ele>
        <time>2021-01-23T13:35:24Z</time>
      </trkpt>
      <trkpt lat="43.59655" lon="3.7256">
        <ele>143.4</ele>
        <time>2021-01-23T13:35:25Z</time>
      </trkpt>
      <trkpt lat="43.59654" lon="3.72561">
        <ele>143.5</ele>
        <time>2021-01-23T13:35:26Z</time>
      </trkpt>
      <trkpt lat="43.59652" lon="3.72562">
        <ele>143.5</ele>
        <time>2021-01-23T13:35:27Z</time>
      </trkpt>
      <trkpt lat="43.59649" lon="3.72561">
        <ele>143.6</ele>
        <time>2021-01-23T13:35:28Z</time>
      </trkpt>
      <trkpt lat="43.59647" lon="3.7256">
        <ele>143.7</ele>
        <time>2021-01-23T13:35:29Z</time>
      </trkpt>
      <trkpt lat="43.59645" lon="3.72559">
        <ele>143.8</ele>
        <time>2021-01-23T13:35:30Z</time>
      </trkpt>
      <trkpt lat="43.59643" lon="3.72562">
        <ele>149</ele>
        <time>2021-01-23T13:35:32Z</time>
      </trkpt>
      <trkpt lat="43.59641" lon="3.72564">
        <ele>143.9</ele>
        <time>2021-01-23T13:35:33Z</time>
      </trkpt>
      <trkpt lat="43.5964" lon="3.72565">
        <ele>144</ele>
        <time>2021-01-23T13:35:34Z</time>
      </trkpt>
      <trkpt lat="43.59637" lon="3.72566">
        <ele>144.2</ele>
        <time>2021-01-23T13:35:36Z</time>
      </trkpt>
      <trkpt lat="43.59634" lon="3.72566">
        <ele>144.5</ele>
        <time>2021-01-23T13:35:37Z</time>
      </trkpt>
      <trkpt lat="43.59632" lon="3.72565">
        <ele>144.7</ele>
        <time>2021-01-23T13:35:38Z</time>
      </trkpt>
      <trkpt lat="43.59629" lon="3.72565">
        <ele>145.1</ele>
        <time>2021-01-23T13:35:39Z</time>
      </trkpt>
      <trkpt lat="43.59627" lon="3.72566">
        <ele>145.3</ele>
        <time>2021-01-23T13:35:40Z</time>
      </trkpt>
      <trkpt lat="43.59625" lon="3.72567">
        <ele>145.5</ele>
        <time>2021-01-23T13:35:41Z</time>
      </trkpt>
      <trkpt lat="43.59623" lon="3.72569">
        <ele>150</ele>
        <time>2021-01-23T13:35:42Z</time>
      </trkpt>
      <trkpt lat="43.59623" lon="3.72571">
        <ele>145.7</ele>
        <time>2021-01-23T13:35:43Z</time>
      </trkpt>
      <trkpt lat="43.59622" lon="3.72575">
        <ele>145.8</ele>
        <time>2021-01-23T13:35:44Z</time>
      </trkpt>
      <trkpt lat="43.59622" lon="3.72578">
        <ele>145.8</ele>
        <time>2021-01-23T13:35:45Z</time>
      </trkpt>
      <trkpt lat="43.59622" lon="3.72583">
        <ele>145.8</ele>
        <time>2021-01-23T13:35:46Z</time>
      </trkpt>
      <trkpt lat="43.59622" lon="3.72587">
        <ele>145.8</ele>
        <time>2021-01-23T13:35:47Z</time>
      </trkpt>
      <trkpt lat="43.59622" lon="3.72591">
        <ele>145.8</ele>
        <time>2021-01-23T13:35:48Z</time>
      </trkpt>
      <trkpt lat="43.59622" lon="3.72596">
        <ele>145.8</ele>
        <time>2021-01-23T13:35:49Z</time>
      </trkpt>
      <trkpt lat="43.59622" lon="3.72601">
        <ele>145.8</ele>
        <time>2021-01-23T13:35:50Z</time>
      </trkpt>
      <trkpt lat="43.59622" lon="3.72607">
        <ele>145.8</ele>
        <time>2021-01-23T13:35:51Z</time>
      </trkpt>
      <trkpt lat="43.59622" lon="3.72613">
        <ele>150</ele>
        <time>2021-01-23T13:35:52Z</time>
      </trkpt>
      <trkpt lat="43.59622" lon="3.72619">
        <ele>145.8</ele>
        <time>2021-01-23T13:35:53Z</time>
      </trkpt>
      <trkpt lat="43.59621" lon="3.72624">
        <ele>145.8</ele>
        <time>2021-01-23T13:35:54Z</time>
      </trkpt>
      <trkpt lat="43.59621" lon="3.72629">
        <ele>145.7</ele>
        <time>2021-01-23T13:35:55Z</time>
      </trkpt>
      <trkpt lat="43.59621" lon="3.72634">
        <ele>145.7</ele>
        <time>2021-01-23T13:35:56Z</time>
      </trkpt>
      <trkpt lat="43.5962" lon="3.72638">
        <ele>145.7</ele>
        <time>2021-01-23T13:35:57Z</time>
      </trkpt>
      <trkpt lat="43.59618" lon="3.72642">
        <ele>145.6</ele>
        <time>2021-01-23T13:35:58Z</time>
      </trkpt>
      <trkpt lat="43.59616" lon="3.72647">
        <ele>145.5</ele>
        <time>2021-01-23T13:35:59Z</time>
      </trkpt>
      <trkpt lat="43.59613" lon="3.72651">
        <ele>145.5</ele>
        <time>2021-01-23T13:36:00Z</time>
      </trkpt>
      <trkpt lat="43.59611" lon="3.72656">
        <ele>145.4</ele>
        <time>2021-01-23T13:36:01Z</time>
      </trkpt>
      <trkpt lat="43.5961" lon="3.7266">
        <ele>150</ele>
        <time>2021-01-23T13:36:02Z</time>
      </trkpt>
      <trkpt lat="43.59611" lon="3.72665">
        <ele>145.1</ele>
        <time>2021-01-23T13:36:03Z</time>
      </trkpt>
      <trkpt lat="43.59613" lon="3.72668">
        <ele>144.9</ele>
        <time>2021-01-23T13:36:04Z</time>
      </trkpt>
      <trkpt lat="43.59616" lon="3.7267">
        <ele>144.7</ele>
        <time>2021-01-23T13:36:05Z</time>
      </trkpt>
      <trkpt lat="43.5962" lon="3.72671">
        <ele>144.5</ele>
        <time>2021-01-23T13:36:06Z</time>
      </trkpt>
      <trkpt lat="43.59624" lon="3.72671">
        <ele>144.4</ele>
        <time>2021-01-23T13:36:07Z</time>
      </trkpt>
      <trkpt lat="43.59628" lon="3.72673">
        <ele>144.2</ele>
        <time>2021-01-23T13:36:08Z</time>
      </trkpt>
      <trkpt lat="43.59631" lon="3.72676">
        <ele>143.9</ele>
        <time>2021-01-23T13:36:09Z</time>
      </trkpt>
      <trkpt lat="43.59634" lon="3.72679">
        <ele>143.7</ele>
        <time>2021-01-23T13:36:10Z</time>
      </trkpt>
      <trkpt lat="43.59637" lon="3.72683">
        <ele>143.5</ele>
        <time>2021-01-23T13:36:11Z</time>
      </trkpt>
      <trkpt lat="43.59639" lon="3.72688">
        <ele>149</ele>
        <time>2021-01-23T13:36:12Z</time>
      </trkpt>
      <trkpt lat="43.5964" lon="3.72694">
        <ele>143</ele>
        <time>2021-01-23T13:36:13Z</time>
      </trkpt>
      <trkpt lat="43.59642" lon="3.727">
        <ele>142.5</ele>
        <time>2021-01-23T13:36:14Z</time>
      </trkpt>
      <trkpt lat="43.59641" lon="3.72706">
        <ele>142.2</ele>
        <time>2021-01-23T13:36:15Z</time>
      </trkpt>
      <trkpt lat="43.59641" lon="3.7271">
        <ele>141.9</ele>
        <time>2021-01-23T13:36:16Z</time>
      </trkpt>
      <trkpt lat="43.59641" lon="3.72713">
        <ele>141.7</ele>
        <time>2021-01-23T13:36:17Z</time>
      </trkpt>
      <trkpt lat="43.5964" lon="3.72717">
        <ele>141.4</ele>
        <time>2021-01-23T13:36:18Z</time>
      </trkpt>
      <trkpt lat="43.5964" lon="3.7272">
        <ele>141.2</ele>
        <time>2021-01-23T13:36:19Z</time>
      </trkpt>
      <trkpt lat="43.5964" lon="3.72723">
        <ele>141</ele>
        <time>2021-01-23T13:36:20Z</time>
      </trkpt>
      <trkpt lat="43.5964" lon="3.72727">
        <ele>140.9</ele>
        <time>2021-01-23T13:36:21Z</time>
      </trkpt>
      <trkpt lat="43.59641" lon="3.72732">
        <ele>148</ele>
        <time>2021-01-23T13:36:22Z</time>
      </trkpt>
      <trkpt lat="43.59641" lon="3.72736">
        <ele>140.7</ele>
        <time>2021-01-23T13:36:23Z</time>
      </trkpt>
      <trkpt lat="43.59641" lon="3.7274">
        <ele>140.5</ele>
        <time>2021-01-23T13:36:24Z</time>
      </trkpt>
      <trkpt lat="43.5964" lon="3.72743">
        <ele>140.4</ele>
        <time>2021-01-23T13:36:25Z</time>
      </trkpt>
      <trkpt lat="43.59637" lon="3.72745">
        <ele>140.1</ele>
        <time>2021-01-23T13:36:26Z</time>
      </trkpt>
      <trkpt lat="43.59634" lon="3.72745">
        <ele>139.9</ele>
        <time>2021-01-23T13:36:27Z</time>
      </trkpt>
      <trkpt lat="43.5963" lon="3.72746">
        <ele>139.6</ele>
        <time>2021-01-23T13:36:28Z</time>
      </trkpt>
      <trkpt lat="43.59625" lon="3.72747">
        <ele>139.3</ele>
        <time>2021-01-23T13:36:29Z</time>
      </trkpt>
      <trkpt lat="43.59621" lon="3.72748">
        <ele>138.9</ele>
        <time>2021-01-23T13:36:30Z</time>
      </trkpt>
      <trkpt lat="43.59616" lon="3.72751">
        <ele>138.4</ele>
        <time>2021-01-23T13:36:31Z</time>
      </trkpt>
      <trkpt lat="43.59611" lon="3.72755">
        <ele>145</ele>
        <time>2021-01-23T13:36:32Z</time>
      </trkpt>
      <trkpt lat="43.59606" lon="3.72758">
        <ele>137.6</ele>
        <time>2021-01-23T13:36:33Z</time>
      </trkpt>
      <trkpt lat="43.59601" lon="3.72759">
        <ele>137.3</ele>
        <time>2021-01-23T13:36:34Z</time>
      </trkpt>
      <trkpt lat="43.59595" lon="3.7276">
        <ele>136.8</ele>
        <time>2021-01-23T13:36:35Z</time>
      </trkpt>
      <trkpt lat="43.59589" lon="3.72761">
        <ele>136.4</ele>
        <time>2021-01-23T13:36:36Z</time>
      </trkpt>
      <trkpt lat="43.59582" lon="3.72761">
        <ele>135.9</ele>
        <time>2021-01-23T13:36:37Z</time>
      </trkpt>
      <trkpt lat="43.59576" lon="3.72763">
        <ele>135.6</ele>
        <time>2021-01-23T13:36:38Z</time>
      </trkpt>
      <trkpt lat="43.5957" lon="3.72767">
        <ele>135.2</ele>
        <time>2021-01-23T13:36:39Z</time>
      </trkpt>
      <trkpt lat="43.59564" lon="3.72772">
        <ele>134.8</ele>
        <time>2021-01-23T13:36:40Z</time>
      </trkpt>
      <trkpt lat="43.59557" lon="3.72775">
        <ele>134.2</ele>
        <time>2021-01-23T13:36:41Z</time>
      </trkpt>
      <trkpt lat="43.59551" lon="3.72778">
        <ele>141</ele>
        <time>2021-01-23T13:36:42Z</time>
      </trkpt>
      <trkpt lat="43.59545" lon="3.72782">
        <ele>133.5</ele>
        <time>2021-01-23T13:36:43Z</time>
      </trkpt>
      <trkpt lat="43.59539" lon="3.72785">
        <ele>133.3</ele>
        <time>2021-01-23T13:36:44Z</time>
      </trkpt>
      <trkpt lat="43.59533" lon="3.72788">
        <ele>133.1</ele>
        <time>2021-01-23T13:36:45Z</time>
      </trkpt>
      <trkpt lat="43.59527" lon="3.7279">
        <ele>132.9</ele>
        <time>2021-01-23T13:36:46Z</time>
      </trkpt>
      <trkpt lat="43.59521" lon="3.7279">
        <ele>132.6</ele>
        <time>2021-01-23T13:36:47Z</time>
      </trkpt>
      <trkpt lat="43.59516" lon="3.72791">
        <ele>132.5</ele>
        <time>2021-01-23T13:36:48Z</time>
      </trkpt>
      <trkpt lat="43.59512" lon="3.72793">
        <ele>132.5</ele>
        <time>2021-01-23T13:36:49Z</time>
      </trkpt>
      <trkpt lat="43.59509" lon="3.72796">
        <ele>132.6</ele>
        <time>2021-01-23T13:36:50Z</time>
      </trkpt>
      <trkpt lat="43.59507" lon="3.728">
        <ele>132.9</ele>
        <time>2021-01-23T13:36:51Z</time>
      </trkpt>
      <trkpt lat="43.59505" lon="3.72804">
        <ele>137</ele>
        <time>2021-01-23T13:36:52Z</time>
      </trkpt>
      <trkpt lat="43.59502" lon="3.72806">
        <ele>133.1</ele>
        <time>2021-01-23T13:36:53Z</time>
      </trkpt>
      <trkpt lat="43.59499" lon="3.72808">
        <ele>133.2</ele>
        <time>2021-01-23T13:36:54Z</time>
      </trkpt>
      <trkpt lat="43.59497" lon="3.72811">
        <ele>133.5</ele>
        <time>2021-01-23T13:36:55Z</time>
      </trkpt>
      <trkpt lat="43.59494" lon="3.72814">
        <ele>133.6</ele>
        <time>2021-01-23T13:36:56Z</time>
      </trkpt>
      <trkpt lat="43.59493" lon="3.72818">
        <ele>134</ele>
        <time>2021-01-23T13:36:57Z</time>
      </trkpt>
      <trkpt lat="43.59492" lon="3.72822">
        <ele>134.3</ele>
        <time>2021-01-23T13:36:58Z</time>
      </trkpt>
      <trkpt lat="43.5949" lon="3.72826">
        <ele>134.6</ele>
        <time>2021-01-23T13:36:59Z</time>
      </trkpt>
      <trkpt lat="43.59489" lon="3.72829">
        <ele>134.8</ele>
        <time>2021-01-23T13:37:00Z</time>
      </trkpt>
      <trkpt lat="43.59488" lon="3.72833">
        <ele>135.1</ele>
        <time>2021-01-23T13:37:01Z</time>
      </trkpt>
      <trkpt lat="43.59487" lon="3.72836">
        <ele>138</ele>
        <time>2021-01-23T13:37:02Z</time>
      </trkpt>
      <trkpt lat="43.59486" lon="3.72839">
        <ele>135.4</ele>
        <time>2021-01-23T13:37:03Z</time>
      </trkpt>
      <trkpt lat="43.59485" lon="3.72843">
        <ele>135.6</ele>
        <time>2021-01-23T13:37:04Z</time>
      </trkpt>
      <trkpt lat="43.59484" lon="3.72847">
        <ele>135.8</ele>
        <time>2021-01-23T13:37:05Z</time>
      </trkpt>
      <trkpt lat="43.59483" lon="3.72851">
        <ele>136</ele>
        <time>2021-01-23T13:37:06Z</time>
      </trkpt>
      <trkpt lat="43.59482" lon="3.72855">
        <ele>136.3</ele>
        <time>2021-01-23T13:37:07Z</time>
      </trkpt>
      <trkpt lat="43.5948" lon="3.72859">
        <ele>136.4</ele>
        <time>2021-01-23T13:37:08Z</time>
      </trkpt>
      <trkpt lat="43.59479" lon="3.72864">
        <ele>136.5</ele>
        <time>2021-01-23T13:37:09Z</time>
      </trkpt>
      <trkpt lat="43.59477" lon="3.72869">
        <ele>136.3</ele>
        <time>2021-01-23T13:37:10Z</time>
      </trkpt>
      <trkpt lat="43.59475" lon="3.72874">
        <ele>136.2</ele>
        <time>2021-01-23T13:37:11Z</time>
      </trkpt>
      <trkpt lat="43.59473" lon="3.72879">
        <ele>138</ele>
        <time>2021-01-23T13:37:12Z</time>
      </trkpt>
      <trkpt lat="43.59471" lon="3.72885">
        <ele>135.9</ele>
        <time>2021-01-23T13:37:13Z</time>
      </trkpt>
      <trkpt lat="43.59468" lon="3.72891">
        <ele>135.8</ele>
        <time>2021-01-23T13:37:14Z</time>
      </trkpt>
      <trkpt lat="43.59466" lon="3.72897">
        <ele>135.8</ele>
        <time>2021-01-23T13:37:15Z</time>
      </trkpt>
      <trkpt lat="43.59464" lon="3.72903">
        <ele>135.9</ele>
        <time>2021-01-23T13:37:16Z</time>
      </trkpt>
      <trkpt lat="43.59462" lon="3.72909">
        <ele>136</ele>
        <time>2021-01-23T13:37:17Z</time>
      </trkpt>
      <trkpt lat="43.5946" lon="3.72915">
        <ele>136.1</ele>
        <time>2021-01-23T13:37:18Z</time>
      </trkpt>
      <trkpt lat="43.59459" lon="3.72921">
        <ele>136.4</ele>
        <time>2021-01-23T13:37:19Z</time>
      </trkpt>
      <trkpt lat="43.59457" lon="3.72927">
        <ele>136.6</ele>
        <time>2021-01-23T13:37:20Z</time>
      </trkpt>
      <trkpt lat="43.59457" lon="3.72933">
        <ele>137.1</ele>
        <time>2021-01-23T13:37:21Z</time>
      </trkpt>
      <trkpt lat="43.59456" lon="3.72938">
        <ele>139</ele>
        <time>2021-01-23T13:37:22Z</time>
      </trkpt>
      <trkpt lat="43.59456" lon="3.72943">
        <ele>137.7</ele>
        <time>2021-01-23T13:37:23Z</time>
      </trkpt>
      <trkpt lat="43.59455" lon="3.72948">
        <ele>138</ele>
        <time>2021-01-23T13:37:24Z</time>
      </trkpt>
      <trkpt lat="43.59455" lon="3.72952">
        <ele>138.2</ele>
        <time>2021-01-23T13:37:25Z</time>
      </trkpt>
      <trkpt lat="43.59455" lon="3.72956">
        <ele>138.4</ele>
        <time>2021-01-23T13:37:26Z</time>
      </trkpt>
      <trkpt lat="43.59456" lon="3.7296">
        <ele>138.7</ele>
        <time>2021-01-23T13:37:27Z</time>
      </trkpt>
      <trkpt lat="43.59456" lon="3.72964">
        <ele>138.9</ele>
        <time>2021-01-23T13:37:28Z</time>
      </trkpt>
      <trkpt lat="43.59456" lon="3.72967">
        <ele>139.1</ele>
        <time>2021-01-23T13:37:29Z</time>
      </trkpt>
      <trkpt lat="43.59456" lon="3.7297">
        <ele>139.3</ele>
        <time>2021-01-23T13:37:30Z</time>
      </trkpt>
      <trkpt lat="43.59456" lon="3.72973">
        <ele>139.5</ele>
        <time>2021-01-23T13:37:31Z</time>
      </trkpt>
      <trkpt lat="43.59456" lon="3.72976">
        <ele>141</ele>
        <time>2021-01-23T13:37:32Z</time>
      </trkpt>
      <trkpt lat="43.59456" lon="3.72979">
        <ele>139.8</ele>
        <time>2021-01-23T13:37:33Z</time>
      </trkpt>
      <trkpt lat="43.59456" lon="3.72982">
        <ele>139.9</ele>
        <time>2021-01-23T13:37:34Z</time>
      </trkpt>
      <trkpt lat="43.59457" lon="3.72984">
        <ele>140.1</ele>
        <time>2021-01-23T13:37:35Z</time>
      </trkpt>
      <trkpt lat="43.59457" lon="3.72987">
        <ele>140.2</ele>
        <time>2021-01-23T13:37:36Z</time>
      </trkpt>
      <trkpt lat="43.59458" lon="3.7299">
        <ele>140.4</ele>
        <time>2021-01-23T13:37:37Z</time>
      </trkpt>
      <trkpt lat="43.5946" lon="3.72992">
        <ele>140.7</ele>
        <time>2021-01-23T13:37:38Z</time>
      </trkpt>
      <trkpt lat="43.59462" lon="3.72993">
        <ele>140.9</ele>
        <time>2021-01-23T13:37:39Z</time>
      </trkpt>
      <trkpt lat="43.59464" lon="3.72995">
        <ele>141.1</ele>
        <time>2021-01-23T13:37:40Z</time>
      </trkpt>
      <trkpt lat="43.59465" lon="3.72996">
        <ele>141.2</ele>
        <time>2021-01-23T13:37:41Z</time>
      </trkpt>
      <trkpt lat="43.59467" lon="3.72997">
        <ele>143</ele>
        <time>2021-01-23T13:37:42Z</time>
      </trkpt>
      <trkpt lat="43.59472" lon="3.72999">
        <ele>141.9</ele>
        <time>2021-01-23T13:37:43Z</time>
      </trkpt>
      <trkpt lat="43.59474" lon="3.72999">
        <ele>142</ele>
        <time>2021-01-23T13:37:44Z</time>
      </trkpt>
      <trkpt lat="43.59477" lon="3.72999">
        <ele>142.1</ele>
        <time>2021-01-23T13:37:45Z</time>
      </trkpt>
      <trkpt lat="43.59479" lon="3.72999">
        <ele>142.2</ele>
        <time>2021-01-23T13:37:46Z</time>
      </trkpt>
      <trkpt lat="43.59482" lon="3.72999">
        <ele>142.3</ele>
        <time>2021-01-23T13:37:48Z</time>
      </trkpt>
      <trkpt lat="43.59484" lon="3.73">
        <ele>142.4</ele>
        <time>2021-01-23T13:37:49Z</time>
      </trkpt>
      <trkpt lat="43.59487" lon="3.73">
        <ele>142.5</ele>
        <time>2021-01-23T13:37:50Z</time>
      </trkpt>
      <trkpt lat="43.59491" lon="3.73002">
        <ele>142.8</ele>
        <time>2021-01-23T13:37:51Z</time>
      </trkpt>
      <trkpt lat="43.59494" lon="3.73003">
        <ele>143</ele>
        <time>2021-01-23T13:37:53Z</time>
      </trkpt>
      <trkpt lat="43.59496" lon="3.73003">
        <ele>143.1</ele>
        <time>2021-01-23T13:37:54Z</time>
      </trkpt>
      <trkpt lat="43.59498" lon="3.73004">
        <ele>143.2</ele>
        <time>2021-01-23T13:37:55Z</time>
      </trkpt>
      <trkpt lat="43.59501" lon="3.73005">
        <ele>143.4</ele>
        <time>2021-01-23T13:37:56Z</time>
      </trkpt>
      <trkpt lat="43.59503" lon="3.73007">
        <ele>143.6</ele>
        <time>2021-01-23T13:37:57Z</time>
      </trkpt>
      <trkpt lat="43.59505" lon="3.73007">
        <ele>143.7</ele>
        <time>2021-01-23T13:37:58Z</time>
      </trkpt>
      <trkpt lat="43.59508" lon="3.73008">
        <ele>143.9</ele>
        <time>2021-01-23T13:37:59Z</time>
      </trkpt>
      <trkpt lat="43.5951" lon="3.73009">
        <ele>144</ele>
        <time>2021-01-23T13:38:00Z</time>
      </trkpt>
      <trkpt lat="43.59512" lon="3.7301">
        <ele>144.2</ele>
        <time>2021-01-23T13:38:01Z</time>
      </trkpt>
      <trkpt lat="43.59517" lon="3.73012">
        <ele>145</ele>
        <time>2021-01-23T13:38:02Z</time>
      </trkpt>
      <trkpt lat="43.59519" lon="3.73013">
        <ele>144.6</ele>
        <time>2021-01-23T13:38:03Z</time>
      </trkpt>
      <trkpt lat="43.59524" lon="3.73015">
        <ele>144.9</ele>
        <time>2021-01-23T13:38:05Z</time>
      </trkpt>
      <trkpt lat="43.59526" lon="3.73016">
        <ele>145.1</ele>
        <time>2021-01-23T13:38:06Z</time>
      </trkpt>
      <trkpt lat="43.59529" lon="3.73017">
        <ele>145.3</ele>
        <time>2021-01-23T13:38:07Z</time>
      </trkpt>
      <trkpt lat="43.59531" lon="3.73018">
        <ele>145.4</ele>
        <time>2021-01-23T13:38:08Z</time>
      </trkpt>
      <trkpt lat="43.59533" lon="3.73019">
        <ele>145.6</ele>
        <time>2021-01-23T13:38:10Z</time>
      </trkpt>
      <trkpt lat="43.59534" lon="3.73021">
        <ele>145.7</ele>
        <time>2021-01-23T13:38:11Z</time>
      </trkpt>
      <trkpt lat="43.59536" lon="3.73024">
        <ele>146</ele>
        <time>2021-01-23T13:38:12Z</time>
      </trkpt>
      <trkpt lat="43.59536" lon="3.73027">
        <ele>146.2</ele>
        <time>2021-01-23T13:38:13Z</time>
      </trkpt>
      <trkpt lat="43.59536" lon="3.7303">
        <ele>146.4</ele>
        <time>2021-01-23T13:38:14Z</time>
      </trkpt>
      <trkpt lat="43.59536" lon="3.73033">
        <ele>146.6</ele>
        <time>2021-01-23T13:38:15Z</time>
      </trkpt>
      <trkpt lat="43.59534" lon="3.73036">
        <ele>146.7</ele>
        <time>2021-01-23T13:38:16Z</time>
      </trkpt>
      <trkpt lat="43.59533" lon="3.73038">
        <ele>146.9</ele>
        <time>2021-01-23T13:38:17Z</time>
      </trkpt>
      <trkpt lat="43.59531" lon="3.7304">
        <ele>146.9</ele>
        <time>2021-01-23T13:38:18Z</time>
      </trkpt>
      <trkpt lat="43.59529" lon="3.73042">
        <ele>147</ele>
        <time>2021-01-23T13:38:19Z</time>
      </trkpt>
      <trkpt lat="43.59526" lon="3.73043">
        <ele>147</ele>
        <time>2021-01-23T13:38:20Z</time>
      </trkpt>
      <trkpt lat="43.59524" lon="3.73045">
        <ele>147.1</ele>
        <time>2021-01-23T13:38:21Z</time>
      </trkpt>
      <trkpt lat="43.59521" lon="3.73047">
        <ele>147</ele>
        <time>2021-01-23T13:38:22Z</time>
      </trkpt>
      <trkpt lat="43.59519" lon="3.73049">
        <ele>147.2</ele>
        <time>2021-01-23T13:38:23Z</time>
      </trkpt>
      <trkpt lat="43.59516" lon="3.73051">
        <ele>147.2</ele>
        <time>2021-01-23T13:38:24Z</time>
      </trkpt>
      <trkpt lat="43.59513" lon="3.73052">
        <ele>147.2</ele>
        <time>2021-01-23T13:38:25Z</time>
      </trkpt>
      <trkpt lat="43.5951" lon="3.73054">
        <ele>147.2</ele>
        <time>2021-01-23T13:38:26Z</time>
      </trkpt>
      <trkpt lat="43.59507" lon="3.73056">
        <ele>147.3</ele>
        <time>2021-01-23T13:38:27Z</time>
      </trkpt>
      <trkpt lat="43.59504" lon="3.73058">
        <ele>147.3</ele>
        <time>2021-01-23T13:38:28Z</time>
      </trkpt>
      <trkpt lat="43.59501" lon="3.7306">
        <ele>147.4</ele>
        <time>2021-01-23T13:38:29Z</time>
      </trkpt>
      <trkpt lat="43.59498" lon="3.73062">
        <ele>147.4</ele>
        <time>2021-01-23T13:38:30Z</time>
      </trkpt>
      <trkpt lat="43.59495" lon="3.73064">
        <ele>147.4</ele>
        <time>2021-01-23T13:38:31Z</time>
      </trkpt>
      <trkpt lat="43.59492" lon="3.73066">
        <ele>149</ele>
        <time>2021-01-23T13:38:32Z</time>
      </trkpt>
      <trkpt lat="43.59489" lon="3.73068">
        <ele>147.5</ele>
        <time>2021-01-23T13:38:33Z</time>
      </trkpt>
      <trkpt lat="43.59486" lon="3.7307">
        <ele>147.6</ele>
        <time>2021-01-23T13:38:34Z</time>
      </trkpt>
      <trkpt lat="43.59483" lon="3.73072">
        <ele>147.7</ele>
        <time>2021-01-23T13:38:35Z</time>
      </trkpt>
      <trkpt lat="43.5948" lon="3.73073">
        <ele>147.7</ele>
        <time>2021-01-23T13:38:36Z</time>
      </trkpt>
      <trkpt lat="43.59477" lon="3.73076">
        <ele>148</ele>
        <time>2021-01-23T13:38:37Z</time>
      </trkpt>
      <trkpt lat="43.59474" lon="3.73077">
        <ele>148.1</ele>
        <time>2021-01-23T13:38:38Z</time>
      </trkpt>
      <trkpt lat="43.59471" lon="3.73079">
        <ele>148.3</ele>
        <time>2021-01-23T13:38:39Z</time>
      </trkpt>
      <trkpt lat="43.59468" lon="3.73081">
        <ele>148.4</ele>
        <time>2021-01-23T13:38:40Z</time>
      </trkpt>
      <trkpt lat="43.59465" lon="3.73083">
        <ele>148.4</ele>
        <time>2021-01-23T13:38:41Z</time>
      </trkpt>
      <trkpt lat="43.59462" lon="3.73084">
        <ele>150</ele>
        <time>2021-01-23T13:38:42Z</time>
      </trkpt>
      <trkpt lat="43.59459" lon="3.73086">
        <ele>148.3</ele>
        <time>2021-01-23T13:38:43Z</time>
      </trkpt>
      <trkpt lat="43.59456" lon="3.73088">
        <ele>148.3</ele>
        <time>2021-01-23T13:38:44Z</time>
      </trkpt>
      <trkpt lat="43.59453" lon="3.73089">
        <ele>148.2</ele>
        <time>2021-01-23T13:38:45Z</time>
      </trkpt>
      <trkpt lat="43.5945" lon="3.73091">
        <ele>148.2</ele>
        <time>2021-01-23T13:38:46Z</time>
      </trkpt>
      <trkpt lat="43.59446" lon="3.73092">
        <ele>148</ele>
        <time>2021-01-23T13:38:47Z</time>
      </trkpt>
      <trkpt lat="43.59443" lon="3.73094">
        <ele>148.1</ele>
        <time>2021-01-23T13:38:48Z</time>
      </trkpt>
      <trkpt lat="43.5944" lon="3.73096">
        <ele>148.1</ele>
        <time>2021-01-23T13:38:49Z</time>
      </trkpt>
      <trkpt lat="43.59436" lon="3.73098">
        <ele>148.1</ele>
        <time>2021-01-23T13:38:50Z</time>
      </trkpt>
      <trkpt lat="43.59432" lon="3.731">
        <ele>148.2</ele>
        <time>2021-01-23T13:38:51Z</time>
      </trkpt>
      <trkpt lat="43.59429" lon="3.73101">
        <ele>151</ele>
        <time>2021-01-23T13:38:52Z</time>
      </trkpt>
      <trkpt lat="43.59425" lon="3.73103">
        <ele>148.2</ele>
        <time>2021-01-23T13:38:53Z</time>
      </trkpt>
      <trkpt lat="43.59421" lon="3.73104">
        <ele>148.2</ele>
        <time>2021-01-23T13:38:54Z</time>
      </trkpt>
      <trkpt lat="43.59417" lon="3.73105">
        <ele>148.1</ele>
        <time>2021-01-23T13:38:55Z</time>
      </trkpt>
      <trkpt lat="43.59413" lon="3.73107">
        <ele>148.1</ele>
        <time>2021-01-23T13:38:56Z</time>
      </trkpt>
      <trkpt lat="43.59409" lon="3.73109">
        <ele>148.1</ele>
        <time>2021-01-23T13:38:57Z</time>
      </trkpt>
      <trkpt lat="43.59404" lon="3.7311">
        <ele>147.9</ele>
        <time>2021-01-23T13:38:58Z</time>
      </trkpt>
      <trkpt lat="43.594" lon="3.73112">
        <ele>147.9</ele>
        <time>2021-01-23T13:38:59Z</time>
      </trkpt>
      <trkpt lat="43.59395" lon="3.73114">
        <ele>147.8</ele>
        <time>2021-01-23T13:39:00Z</time>
      </trkpt>
      <trkpt lat="43.59391" lon="3.73116">
        <ele>147.7</ele>
        <time>2021-01-23T13:39:01Z</time>
      </trkpt>
      <trkpt lat="43.59387" lon="3.73117">
        <ele>151</ele>
        <time>2021-01-23T13:39:02Z</time>
      </trkpt>
      <trkpt lat="43.59382" lon="3.73119">
        <ele>147.9</ele>
        <time>2021-01-23T13:39:03Z</time>
      </trkpt>
      <trkpt lat="43.59378" lon="3.7312">
        <ele>148</ele>
        <time>2021-01-23T13:39:04Z</time>
      </trkpt>
      <trkpt lat="43.59374" lon="3.73121">
        <ele>148.1</ele>
        <time>2021-01-23T13:39:05Z</time>
      </trkpt>
      <trkpt lat="43.5937" lon="3.73122">
        <ele>148.2</ele>
        <time>2021-01-23T13:39:06Z</time>
      </trkpt>
      <trkpt lat="43.59367" lon="3.73123">
        <ele>148.3</ele>
        <time>2021-01-23T13:39:07Z</time>
      </trkpt>
      <trkpt lat="43.59363" lon="3.73124">
        <ele>148.4</ele>
        <time>2021-01-23T13:39:08Z</time>
      </trkpt>
      <trkpt lat="43.59359" lon="3.73125">
        <ele>148.6</ele>
        <time>2021-01-23T13:39:09Z</time>
      </trkpt>
      <trkpt lat="43.59356" lon="3.73126">
        <ele>148.8</ele>
        <time>2021-01-23T13:39:10Z</time>
      </trkpt>
      <trkpt lat="43.59353" lon="3.73127">
        <ele>149</ele>
        <time>2021-01-23T13:39:11Z</time>
      </trkpt>
      <trkpt lat="43.5935" lon="3.73128">
        <ele>151</ele>
        <time>2021-01-23T13:39:12Z</time>
      </trkpt>
      <trkpt lat="43.59347" lon="3.73129">
        <ele>149.4</ele>
        <time>2021-01-23T13:39:13Z</time>
      </trkpt>
      <trkpt lat="43.59344" lon="3.7313">
        <ele>149.7</ele>
        <time>2021-01-23T13:39:14Z</time>
      </trkpt>
      <trkpt lat="43.59341" lon="3.7313">
        <ele>149.8</ele>
        <time>2021-01-23T13:39:15Z</time>
      </trkpt>
      <trkpt lat="43.59338" lon="3.73131">
        <ele>150</ele>
        <time>2021-01-23T13:39:16Z</time>
      </trkpt>
      <trkpt lat="43.59334" lon="3.73132">
        <ele>150.2</ele>
        <time>2021-01-23T13:39:17Z</time>
      </trkpt>
      <trkpt lat="43.59331" lon="3.73133">
        <ele>150.2</ele>
        <time>2021-01-23T13:39:18Z</time>
      </trkpt>
      <trkpt lat="43.59328" lon="3.73133">
        <ele>150.1</ele>
        <time>2021-01-23T13:39:19Z</time>
      </trkpt>
      <trkpt lat="43.59324" lon="3.73134">
        <ele>149.9</ele>
        <time>2021-01-23T13:39:20Z</time>
      </trkpt>
      <trkpt lat="43.5932" lon="3.73135">
        <ele>149.8</ele>
        <time>2021-01-23T13:39:21Z</time>
      </trkpt>
      <trkpt lat="43.59317" lon="3.73135">
        <ele>152</ele>
        <time>2021-01-23T13:39:22Z</time>
      </trkpt>
      <trkpt lat="43.59313" lon="3.73136">
        <ele>149.4</ele>
        <time>2021-01-23T13:39:23Z</time>
      </trkpt>
      <trkpt lat="43.5931" lon="3.73136">
        <ele>149.2</ele>
        <time>2021-01-23T13:39:24Z</time>
      </trkpt>
      <trkpt lat="43.59307" lon="3.73137">
        <ele>149</ele>
        <time>2021-01-23T13:39:25Z</time>
      </trkpt>
      <trkpt lat="43.59303" lon="3.73138">
        <ele>148.9</ele>
        <time>2021-01-23T13:39:26Z</time>
      </trkpt>
      <trkpt lat="43.59301" lon="3.73141">
        <ele>149</ele>
        <time>2021-01-23T13:39:27Z</time>
      </trkpt>
      <trkpt lat="43.59299" lon="3.73145">
        <ele>149.2</ele>
        <time>2021-01-23T13:39:28Z</time>
      </trkpt>
      <trkpt lat="43.59297" lon="3.73149">
        <ele>149.3</ele>
        <time>2021-01-23T13:39:29Z</time>
      </trkpt>
      <trkpt lat="43.59295" lon="3.73154">
        <ele>149.5</ele>
        <time>2021-01-23T13:39:30Z</time>
      </trkpt>
      <trkpt lat="43.59294" lon="3.73158">
        <ele>149.7</ele>
        <time>2021-01-23T13:39:31Z</time>
      </trkpt>
      <trkpt lat="43.59293" lon="3.73163">
        <ele>152</ele>
        <time>2021-01-23T13:39:32Z</time>
      </trkpt>
      <trkpt lat="43.59291" lon="3.73167">
        <ele>150</ele>
        <time>2021-01-23T13:39:33Z</time>
      </trkpt>
      <trkpt lat="43.5929" lon="3.73171">
        <ele>149.9</ele>
        <time>2021-01-23T13:39:34Z</time>
      </trkpt>
      <trkpt lat="43.59288" lon="3.73175">
        <ele>149.8</ele>
        <time>2021-01-23T13:39:35Z</time>
      </trkpt>
      <trkpt lat="43.59286" lon="3.73179">
        <ele>149.7</ele>
        <time>2021-01-23T13:39:36Z</time>
      </trkpt>
      <trkpt lat="43.59284" lon="3.73183">
        <ele>149.6</ele>
        <time>2021-01-23T13:39:37Z</time>
      </trkpt>
      <trkpt lat="43.59282" lon="3.73187">
        <ele>149.4</ele>
        <time>2021-01-23T13:39:38Z</time>
      </trkpt>
      <trkpt lat="43.5928" lon="3.73192">
        <ele>149.2</ele>
        <time>2021-01-23T13:39:39Z</time>
      </trkpt>
      <trkpt lat="43.59278" lon="3.73196">
        <ele>149</ele>
        <time>2021-01-23T13:39:40Z</time>
      </trkpt>
      <trkpt lat="43.59276" lon="3.73201">
        <ele>148.9</ele>
        <time>2021-01-23T13:39:41Z</time>
      </trkpt>
      <trkpt lat="43.59274" lon="3.73206">
        <ele>152</ele>
        <time>2021-01-23T13:39:42Z</time>
      </trkpt>
      <trkpt lat="43.59271" lon="3.73211">
        <ele>148.5</ele>
        <time>2021-01-23T13:39:43Z</time>
      </trkpt>
      <trkpt lat="43.59269" lon="3.73217">
        <ele>148.2</ele>
        <time>2021-01-23T13:39:44Z</time>
      </trkpt>
      <trkpt lat="43.59267" lon="3.73223">
        <ele>147.8</ele>
        <time>2021-01-23T13:39:45Z</time>
      </trkpt>
      <trkpt lat="43.59265" lon="3.73229">
        <ele>147.4</ele>
        <time>2021-01-23T13:39:46Z</time>
      </trkpt>
      <trkpt lat="43.59262" lon="3.73233">
        <ele>146.9</ele>
        <time>2021-01-23T13:39:47Z</time>
      </trkpt>
      <trkpt lat="43.5926" lon="3.73238">
        <ele>146.4</ele>
        <time>2021-01-23T13:39:48Z</time>
      </trkpt>
      <trkpt lat="43.59257" lon="3.73243">
        <ele>145.6</ele>
        <time>2021-01-23T13:39:49Z</time>
      </trkpt>
      <trkpt lat="43.59254" lon="3.73248">
        <ele>144.8</ele>
        <time>2021-01-23T13:39:50Z</time>
      </trkpt>
      <trkpt lat="43.59252" lon="3.73252">
        <ele>144.4</ele>
        <time>2021-01-23T13:39:51Z</time>
      </trkpt>
      <trkpt lat="43.5925" lon="3.73255">
        <ele>151</ele>
        <time>2021-01-23T13:39:52Z</time>
      </trkpt>
      <trkpt lat="43.59248" lon="3.73259">
        <ele>143.7</ele>
        <time>2021-01-23T13:39:53Z</time>
      </trkpt>
      <trkpt lat="43.59246" lon="3.73262">
        <ele>143.3</ele>
        <time>2021-01-23T13:39:54Z</time>
      </trkpt>
      <trkpt lat="43.59245" lon="3.73266">
        <ele>143.1</ele>
        <time>2021-01-23T13:39:55Z</time>
      </trkpt>
      <trkpt lat="43.59243" lon="3.7327">
        <ele>142.6</ele>
        <time>2021-01-23T13:39:56Z</time>
      </trkpt>
      <trkpt lat="43.59241" lon="3.73274">
        <ele>142.1</ele>
        <time>2021-01-23T13:39:57Z</time>
      </trkpt>
      <trkpt lat="43.59239" lon="3.73277">
        <ele>141.6</ele>
        <time>2021-01-23T13:39:58Z</time>
      </trkpt>
      <trkpt lat="43.59237" lon="3.73281">
        <ele>140.8</ele>
        <time>2021-01-23T13:39:59Z</time>
      </trkpt>
      <trkpt lat="43.59234" lon="3.73285">
        <ele>139.8</ele>
        <time>2021-01-23T13:40:00Z</time>
      </trkpt>
      <trkpt lat="43.59232" lon="3.73289">
        <ele>139</ele>
        <time>2021-01-23T13:40:01Z</time>
      </trkpt>
      <trkpt lat="43.5923" lon="3.73293">
        <ele>150</ele>
        <time>2021-01-23T13:40:02Z</time>
      </trkpt>
      <trkpt lat="43.59229" lon="3.73298">
        <ele>137.7</ele>
        <time>2021-01-23T13:40:03Z</time>
      </trkpt>
      <trkpt lat="43.59229" lon="3.73303">
        <ele>137.2</ele>
        <time>2021-01-23T13:40:04Z</time>
      </trkpt>
      <trkpt lat="43.5923" lon="3.73307">
        <ele>137</ele>
        <time>2021-01-23T13:40:05Z</time>
      </trkpt>
      <trkpt lat="43.59232" lon="3.7331">
        <ele>137.1</ele>
        <time>2021-01-23T13:40:06Z</time>
      </trkpt>
      <trkpt lat="43.59234" lon="3.73313">
        <ele>137.2</ele>
        <time>2021-01-23T13:40:07Z</time>
      </trkpt>
      <trkpt lat="43.59237" lon="3.73317">
        <ele>137.3</ele>
        <time>2021-01-23T13:40:08Z</time>
      </trkpt>
      <trkpt lat="43.5924" lon="3.7332">
        <ele>137.4</ele>
        <time>2021-01-23T13:40:09Z</time>
      </trkpt>
      <trkpt lat="43.59242" lon="3.73322">
        <ele>137.4</ele>
        <time>2021-01-23T13:40:10Z</time>
      </trkpt>
      <trkpt lat="43.59254" lon="3.73332">
        <ele>152</ele>
        <time>2021-01-23T13:40:42Z</time>
      </trkpt>
      <trkpt lat="43.59257" lon="3.73333">
        <ele>137.5</ele>
        <time>2021-01-23T13:40:43Z</time>
      </trkpt>
      <trkpt lat="43.5926" lon="3.73335">
        <ele>137.7</ele>
        <time>2021-01-23T13:40:44Z</time>
      </trkpt>
      <trkpt lat="43.59263" lon="3.73338">
        <ele>137.9</ele>
        <time>2021-01-23T13:40:45Z</time>
      </trkpt>
      <trkpt lat="43.59266" lon="3.7334">
        <ele>138</ele>
        <time>2021-01-23T13:40:46Z</time>
      </trkpt>
      <trkpt lat="43.59269" lon="3.73341">
        <ele>138.2</ele>
        <time>2021-01-23T13:40:47Z</time>
      </trkpt>
      <trkpt lat="43.59272" lon="3.73342">
        <ele>138.3</ele>
        <time>2021-01-23T13:40:48Z</time>
      </trkpt>
      <trkpt lat="43.59275" lon="3.73343">
        <ele>138.5</ele>
        <time>2021-01-23T13:40:49Z</time>
      </trkpt>
      <trkpt lat="43.59278" lon="3.73344">
        <ele>138.6</ele>
        <time>2021-01-23T13:40:50Z</time>
      </trkpt>
      <trkpt lat="43.59281" lon="3.73345">
        <ele>138.9</ele>
        <time>2021-01-23T13:40:51Z</time>
      </trkpt>
      <trkpt lat="43.59283" lon="3.73347">
        <ele>152</ele>
        <time>2021-01-23T13:40:52Z</time>
      </trkpt>
      <trkpt lat="43.59286" lon="3.73348">
        <ele>139.3</ele>
        <time>2021-01-23T13:40:53Z</time>
      </trkpt>
      <trkpt lat="43.59289" lon="3.73349">
        <ele>139.6</ele>
        <time>2021-01-23T13:40:54Z</time>
      </trkpt>
      <trkpt lat="43.59292" lon="3.73349">
        <ele>139.9</ele>
        <time>2021-01-23T13:40:55Z</time>
      </trkpt>
      <trkpt lat="43.59295" lon="3.73349">
        <ele>140.2</ele>
        <time>2021-01-23T13:40:56Z</time>
      </trkpt>
      <trkpt lat="43.59297" lon="3.73349">
        <ele>140.4</ele>
        <time>2021-01-23T13:40:57Z</time>
      </trkpt>
      <trkpt lat="43.593" lon="3.7335">
        <ele>140.6</ele>
        <time>2021-01-23T13:40:58Z</time>
      </trkpt>
      <trkpt lat="43.59303" lon="3.73351">
        <ele>140.8</ele>
        <time>2021-01-23T13:40:59Z</time>
      </trkpt>
      <trkpt lat="43.59305" lon="3.73353">
        <ele>140.8</ele>
        <time>2021-01-23T13:41:00Z</time>
      </trkpt>
      <trkpt lat="43.59307" lon="3.73354">
        <ele>140.9</ele>
        <time>2021-01-23T13:41:01Z</time>
      </trkpt>
      <trkpt lat="43.5931" lon="3.73355">
        <ele>153</ele>
        <time>2021-01-23T13:41:02Z</time>
      </trkpt>
      <trkpt lat="43.59312" lon="3.73356">
        <ele>141.1</ele>
        <time>2021-01-23T13:41:03Z</time>
      </trkpt>
      <trkpt lat="43.59315" lon="3.73358">
        <ele>141.1</ele>
        <time>2021-01-23T13:41:04Z</time>
      </trkpt>
      <trkpt lat="43.59316" lon="3.7336">
        <ele>140.9</ele>
        <time>2021-01-23T13:41:05Z</time>
      </trkpt>
      <trkpt lat="43.59321" lon="3.73361">
        <ele>141.1</ele>
        <time>2021-01-23T13:41:06Z</time>
      </trkpt>
      <trkpt lat="43.59323" lon="3.73362">
        <ele>141.3</ele>
        <time>2021-01-23T13:41:07Z</time>
      </trkpt>
      <trkpt lat="43.59326" lon="3.73363">
        <ele>141.5</ele>
        <time>2021-01-23T13:41:08Z</time>
      </trkpt>
      <trkpt lat="43.59329" lon="3.73366">
        <ele>141.7</ele>
        <time>2021-01-23T13:41:09Z</time>
      </trkpt>
      <trkpt lat="43.59331" lon="3.73368">
        <ele>141.9</ele>
        <time>2021-01-23T13:41:11Z</time>
      </trkpt>
      <trkpt lat="43.59333" lon="3.73372">
        <ele>153</ele>
        <time>2021-01-23T13:41:12Z</time>
      </trkpt>
      <trkpt lat="43.59333" lon="3.73376">
        <ele>142</ele>
        <time>2021-01-23T13:41:13Z</time>
      </trkpt>
      <trkpt lat="43.59332" lon="3.7338">
        <ele>141.9</ele>
        <time>2021-01-23T13:41:14Z</time>
      </trkpt>
      <trkpt lat="43.59331" lon="3.73383">
        <ele>141.9</ele>
        <time>2021-01-23T13:41:15Z</time>
      </trkpt>
      <trkpt lat="43.59328" lon="3.73386">
        <ele>141.8</ele>
        <time>2021-01-23T13:41:16Z</time>
      </trkpt>
      <trkpt lat="43.59326" lon="3.73389">
        <ele>141.8</ele>
        <time>2021-01-23T13:41:17Z</time>
      </trkpt>
      <trkpt lat="43.59324" lon="3.73392">
        <ele>142.1</ele>
        <time>2021-01-23T13:41:18Z</time>
      </trkpt>
      <trkpt lat="43.59321" lon="3.73395">
        <ele>142.4</ele>
        <time>2021-01-23T13:41:19Z</time>
      </trkpt>
      <trkpt lat="43.59319" lon="3.73399">
        <ele>143</ele>
        <time>2021-01-23T13:41:20Z</time>
      </trkpt>
      <trkpt lat="43.59317" lon="3.73402">
        <ele>143.4</ele>
        <time>2021-01-23T13:41:21Z</time>
      </trkpt>
      <trkpt lat="43.59315" lon="3.73405">
        <ele>153</ele>
        <time>2021-01-23T13:41:22Z</time>
      </trkpt>
      <trkpt lat="43.59313" lon="3.73406">
        <ele>144</ele>
        <time>2021-01-23T13:41:23Z</time>
      </trkpt>
      <trkpt lat="43.59312" lon="3.73407">
        <ele>144.2</ele>
        <time>2021-01-23T13:41:24Z</time>
      </trkpt>
      <trkpt lat="43.59309" lon="3.73408">
        <ele>144.4</ele>
        <time>2021-01-23T13:41:25Z</time>
      </trkpt>
      <trkpt lat="43.59308" lon="3.73409">
        <ele>144.6</ele>
        <time>2021-01-23T13:41:26Z</time>
      </trkpt>
      <trkpt lat="43.59305" lon="3.73408">
        <ele>144.4</ele>
        <time>2021-01-23T13:41:27Z</time>
      </trkpt>
      <trkpt lat="43.59303" lon="3.73408">
        <ele>144.4</ele>
        <time>2021-01-23T13:41:28Z</time>
      </trkpt>
      <trkpt lat="43.593" lon="3.73407">
        <ele>144.3</ele>
        <time>2021-01-23T13:41:29Z</time>
      </trkpt>
      <trkpt lat="43.59297" lon="3.73405">
        <ele>143.9</ele>
        <time>2021-01-23T13:41:30Z</time>
      </trkpt>
      <trkpt lat="43.59294" lon="3.73403">
        <ele>143.5</ele>
        <time>2021-01-23T13:41:31Z</time>
      </trkpt>
      <trkpt lat="43.5929" lon="3.73401">
        <ele>153</ele>
        <time>2021-01-23T13:41:32Z</time>
      </trkpt>
      <trkpt lat="43.59287" lon="3.734">
        <ele>143</ele>
        <time>2021-01-23T13:41:33Z</time>
      </trkpt>
      <trkpt lat="43.59284" lon="3.73399">
        <ele>142.8</ele>
        <time>2021-01-23T13:41:34Z</time>
      </trkpt>
      <trkpt lat="43.59281" lon="3.73398">
        <ele>142.6</ele>
        <time>2021-01-23T13:41:35Z</time>
      </trkpt>
      <trkpt lat="43.59277" lon="3.73397">
        <ele>142.5</ele>
        <time>2021-01-23T13:41:36Z</time>
      </trkpt>
      <trkpt lat="43.5927" lon="3.73394">
        <ele>142</ele>
        <time>2021-01-23T13:41:38Z</time>
      </trkpt>
      <trkpt lat="43.59266" lon="3.73393">
        <ele>141.8</ele>
        <time>2021-01-23T13:41:39Z</time>
      </trkpt>
      <trkpt lat="43.59262" lon="3.73391">
        <ele>141.4</ele>
        <time>2021-01-23T13:41:40Z</time>
      </trkpt>
      <trkpt lat="43.59258" lon="3.7339">
        <ele>141.2</ele>
        <time>2021-01-23T13:41:41Z</time>
      </trkpt>
      <trkpt lat="43.59254" lon="3.73387">
        <ele>153</ele>
        <time>2021-01-23T13:41:42Z</time>
      </trkpt>
      <trkpt lat="43.5925" lon="3.73383">
        <ele>140.2</ele>
        <time>2021-01-23T13:41:43Z</time>
      </trkpt>
      <trkpt lat="43.5924" lon="3.73375">
        <ele>138.8</ele>
        <time>2021-01-23T13:41:45Z</time>
      </trkpt>
      <trkpt lat="43.5923" lon="3.73369">
        <ele>137.6</ele>
        <time>2021-01-23T13:41:47Z</time>
      </trkpt>
      <trkpt lat="43.59217" lon="3.73366">
        <ele>136.7</ele>
        <time>2021-01-23T13:41:49Z</time>
      </trkpt>
      <trkpt lat="43.59204" lon="3.73363">
        <ele>135.7</ele>
        <time>2021-01-23T13:41:51Z</time>
      </trkpt>
      <trkpt lat="43.59198" lon="3.73362">
        <ele>151</ele>
        <time>2021-01-23T13:41:52Z</time>
      </trkpt>
      <trkpt lat="43.59193" lon="3.73361">
        <ele>134.8</ele>
        <time>2021-01-23T13:41:53Z</time>
      </trkpt>
      <trkpt lat="43.59188" lon="3.73358">
        <ele>134.1</ele>
        <time>2021-01-23T13:41:54Z</time>
      </trkpt>
      <trkpt lat="43.59185" lon="3.73357">
        <ele>150</ele>
        <time>2021-01-23T13:41:55Z</time>
      </trkpt>
      <trkpt lat="43.59181" lon="3.73358">
        <ele>133.4</ele>
        <time>2021-01-23T13:41:56Z</time>
      </trkpt>
      <trkpt lat="43.59178" lon="3.73359">
        <ele>133.2</ele>
        <time>2021-01-23T13:41:57Z</time>
      </trkpt>
      <trkpt lat="43.59173" lon="3.73361">
        <ele>132.7</ele>
        <time>2021-01-23T13:41:58Z</time>
      </trkpt>
      <trkpt lat="43.59169" lon="3.73364">
        <ele>132.8</ele>
        <time>2021-01-23T13:41:59Z</time>
      </trkpt>
      <trkpt lat="43.59165" lon="3.73367">
        <ele>132.9</ele>
        <time>2021-01-23T13:42:00Z</time>
      </trkpt>
      <trkpt lat="43.5916" lon="3.7337">
        <ele>132.9</ele>
        <time>2021-01-23T13:42:01Z</time>
      </trkpt>
      <trkpt lat="43.59156" lon="3.73373">
        <ele>132.9</ele>
        <time>2021-01-23T13:42:02Z</time>
      </trkpt>
      <trkpt lat="43.59152" lon="3.73375">
        <ele>149</ele>
        <time>2021-01-23T13:42:03Z</time>
      </trkpt>
      <trkpt lat="43.59147" lon="3.73377">
        <ele>132.2</ele>
        <time>2021-01-23T13:42:04Z</time>
      </trkpt>
      <trkpt lat="43.59143" lon="3.73379">
        <ele>131.9</ele>
        <time>2021-01-23T13:42:05Z</time>
      </trkpt>
      <trkpt lat="43.59138" lon="3.73382">
        <ele>131.4</ele>
        <time>2021-01-23T13:42:06Z</time>
      </trkpt>
      <trkpt lat="43.59133" lon="3.73384">
        <ele>130.9</ele>
        <time>2021-01-23T13:42:07Z</time>
      </trkpt>
      <trkpt lat="43.59128" lon="3.73388">
        <ele>130.4</ele>
        <time>2021-01-23T13:42:08Z</time>
      </trkpt>
      <trkpt lat="43.59123" lon="3.73391">
        <ele>130.1</ele>
        <time>2021-01-23T13:42:09Z</time>
      </trkpt>
      <trkpt lat="43.59118" lon="3.73395">
        <ele>130</ele>
        <time>2021-01-23T13:42:10Z</time>
      </trkpt>
      <trkpt lat="43.59114" lon="3.73398">
        <ele>129.8</ele>
        <time>2021-01-23T13:42:11Z</time>
      </trkpt>
      <trkpt lat="43.5911" lon="3.734">
        <ele>148</ele>
        <time>2021-01-23T13:42:12Z</time>
      </trkpt>
      <trkpt lat="43.59107" lon="3.73402">
        <ele>129.5</ele>
        <time>2021-01-23T13:42:13Z</time>
      </trkpt>
      <trkpt lat="43.59103" lon="3.73405">
        <ele>129.5</ele>
        <time>2021-01-23T13:42:14Z</time>
      </trkpt>
      <trkpt lat="43.59098" lon="3.73407">
        <ele>129.2</ele>
        <time>2021-01-23T13:42:15Z</time>
      </trkpt>
      <trkpt lat="43.59095" lon="3.73409">
        <ele>129.1</ele>
        <time>2021-01-23T13:42:16Z</time>
      </trkpt>
      <trkpt lat="43.59091" lon="3.73411">
        <ele>128.7</ele>
        <time>2021-01-23T13:42:17Z</time>
      </trkpt>
      <trkpt lat="43.59087" lon="3.73414">
        <ele>128.4</ele>
        <time>2021-01-23T13:42:18Z</time>
      </trkpt>
      <trkpt lat="43.59083" lon="3.73417">
        <ele>128</ele>
        <time>2021-01-23T13:42:19Z</time>
      </trkpt>
      <trkpt lat="43.59079" lon="3.73421">
        <ele>128.1</ele>
        <time>2021-01-23T13:42:20Z</time>
      </trkpt>
      <trkpt lat="43.59074" lon="3.73424">
        <ele>128</ele>
        <time>2021-01-23T13:42:21Z</time>
      </trkpt>
      <trkpt lat="43.59069" lon="3.73426">
        <ele>145</ele>
        <time>2021-01-23T13:42:22Z</time>
      </trkpt>
      <trkpt lat="43.59063" lon="3.73428">
        <ele>127.5</ele>
        <time>2021-01-23T13:42:23Z</time>
      </trkpt>
      <trkpt lat="43.59058" lon="3.7343">
        <ele>127.2</ele>
        <time>2021-01-23T13:42:24Z</time>
      </trkpt>
      <trkpt lat="43.59053" lon="3.73432">
        <ele>127</ele>
        <time>2021-01-23T13:42:25Z</time>
      </trkpt>
      <trkpt lat="43.59048" lon="3.73434">
        <ele>127</ele>
        <time>2021-01-23T13:42:26Z</time>
      </trkpt>
      <trkpt lat="43.59043" lon="3.73435">
        <ele>126.9</ele>
        <time>2021-01-23T13:42:27Z</time>
      </trkpt>
      <trkpt lat="43.59038" lon="3.73437">
        <ele>126.8</ele>
        <time>2021-01-23T13:42:28Z</time>
      </trkpt>
      <trkpt lat="43.59033" lon="3.73438">
        <ele>126.7</ele>
        <time>2021-01-23T13:42:29Z</time>
      </trkpt>
      <trkpt lat="43.59029" lon="3.73439">
        <ele>126.7</ele>
        <time>2021-01-23T13:42:30Z</time>
      </trkpt>
      <trkpt lat="43.59024" lon="3.7344">
        <ele>126.8</ele>
        <time>2021-01-23T13:42:31Z</time>
      </trkpt>
      <trkpt lat="43.59019" lon="3.73441">
        <ele>142</ele>
        <time>2021-01-23T13:42:32Z</time>
      </trkpt>
      <trkpt lat="43.59014" lon="3.7344">
        <ele>127</ele>
        <time>2021-01-23T13:42:33Z</time>
      </trkpt>
      <trkpt lat="43.59009" lon="3.73439">
        <ele>127</ele>
        <time>2021-01-23T13:42:34Z</time>
      </trkpt>
      <trkpt lat="43.59005" lon="3.73437">
        <ele>126.8</ele>
        <time>2021-01-23T13:42:35Z</time>
      </trkpt>
      <trkpt lat="43.59" lon="3.73435">
        <ele>126.6</ele>
        <time>2021-01-23T13:42:36Z</time>
      </trkpt>
      <trkpt lat="43.58995" lon="3.73434">
        <ele>126.7</ele>
        <time>2021-01-23T13:42:37Z</time>
      </trkpt>
      <trkpt lat="43.58991" lon="3.73432">
        <ele>126.5</ele>
        <time>2021-01-23T13:42:38Z</time>
      </trkpt>
      <trkpt lat="43.58987" lon="3.73432">
        <ele>126.7</ele>
        <time>2021-01-23T13:42:39Z</time>
      </trkpt>
      <trkpt lat="43.58983" lon="3.73433">
        <ele>127</ele>
        <time>2021-01-23T13:42:40Z</time>
      </trkpt>
      <trkpt lat="43.58979" lon="3.73434">
        <ele>127.3</ele>
        <time>2021-01-23T13:42:41Z</time>
      </trkpt>
      <trkpt lat="43.58976" lon="3.73436">
        <ele>139</ele>
        <time>2021-01-23T13:42:42Z</time>
      </trkpt>
      <trkpt lat="43.58972" lon="3.73438">
        <ele>128.1</ele>
        <time>2021-01-23T13:42:43Z</time>
      </trkpt>
      <trkpt lat="43.58969" lon="3.7344">
        <ele>128.1</ele>
        <time>2021-01-23T13:42:44Z</time>
      </trkpt>
      <trkpt lat="43.58965" lon="3.73441">
        <ele>128</ele>
        <time>2021-01-23T13:42:45Z</time>
      </trkpt>
      <trkpt lat="43.58962" lon="3.73444">
        <ele>128.2</ele>
        <time>2021-01-23T13:42:46Z</time>
      </trkpt>
      <trkpt lat="43.58959" lon="3.73446">
        <ele>128.2</ele>
        <time>2021-01-23T13:42:47Z</time>
      </trkpt>
      <trkpt lat="43.58956" lon="3.73449">
        <ele>128.4</ele>
        <time>2021-01-23T13:42:48Z</time>
      </trkpt>
      <trkpt lat="43.58953" lon="3.73451">
        <ele>128.4</ele>
        <time>2021-01-23T13:42:49Z</time>
      </trkpt>
      <trkpt lat="43.5895" lon="3.73454">
        <ele>128.5</ele>
        <time>2021-01-23T13:42:50Z</time>
      </trkpt>
      <trkpt lat="43.58948" lon="3.73457">
        <ele>128.7</ele>
        <time>2021-01-23T13:42:51Z</time>
      </trkpt>
      <trkpt lat="43.58945" lon="3.73461">
        <ele>137</ele>
        <time>2021-01-23T13:42:52Z</time>
      </trkpt>
      <trkpt lat="43.58943" lon="3.73465">
        <ele>129</ele>
        <time>2021-01-23T13:42:53Z</time>
      </trkpt>
      <trkpt lat="43.58941" lon="3.73469">
        <ele>129.2</ele>
        <time>2021-01-23T13:42:54Z</time>
      </trkpt>
      <trkpt lat="43.58939" lon="3.73473">
        <ele>129.3</ele>
        <time>2021-01-23T13:42:55Z</time>
      </trkpt>
      <trkpt lat="43.58937" lon="3.73477">
        <ele>129.4</ele>
        <time>2021-01-23T13:42:56Z</time>
      </trkpt>
      <trkpt lat="43.58934" lon="3.73482">
        <ele>129.6</ele>
        <time>2021-01-23T13:42:57Z</time>
      </trkpt>
      <trkpt lat="43.58932" lon="3.73486">
        <ele>129.7</ele>
        <time>2021-01-23T13:42:58Z</time>
      </trkpt>
      <trkpt lat="43.58929" lon="3.73491">
        <ele>129.8</ele>
        <time>2021-01-23T13:42:59Z</time>
      </trkpt>
      <trkpt lat="43.58927" lon="3.73495">
        <ele>129.9</ele>
        <time>2021-01-23T13:43:00Z</time>
      </trkpt>
      <trkpt lat="43.58924" lon="3.735">
        <ele>130.1</ele>
        <time>2021-01-23T13:43:01Z</time>
      </trkpt>
      <trkpt lat="43.58922" lon="3.73504">
        <ele>135</ele>
        <time>2021-01-23T13:43:02Z</time>
      </trkpt>
      <trkpt lat="43.58919" lon="3.73509">
        <ele>130</ele>
        <time>2021-01-23T13:43:03Z</time>
      </trkpt>
      <trkpt lat="43.58916" lon="3.73513">
        <ele>129.9</ele>
        <time>2021-01-23T13:43:04Z</time>
      </trkpt>
      <trkpt lat="43.58914" lon="3.73518">
        <ele>130.1</ele>
        <time>2021-01-23T13:43:05Z</time>
      </trkpt>
      <trkpt lat="43.58911" lon="3.73522">
        <ele>130.1</ele>
        <time>2021-01-23T13:43:06Z</time>
      </trkpt>
      <trkpt lat="43.58908" lon="3.73526">
        <ele>130.2</ele>
        <time>2021-01-23T13:43:07Z</time>
      </trkpt>
      <trkpt lat="43.58906" lon="3.73531">
        <ele>130.3</ele>
        <time>2021-01-23T13:43:08Z</time>
      </trkpt>
      <trkpt lat="43.58903" lon="3.73535">
        <ele>130.3</ele>
        <time>2021-01-23T13:43:09Z</time>
      </trkpt>
      <trkpt lat="43.58901" lon="3.73539">
        <ele>130.3</ele>
        <time>2021-01-23T13:43:10Z</time>
      </trkpt>
      <trkpt lat="43.58899" lon="3.73543">
        <ele>130.3</ele>
        <time>2021-01-23T13:43:11Z</time>
      </trkpt>
      <trkpt lat="43.58895" lon="3.73551">
        <ele>133</ele>
        <time>2021-01-23T13:43:12Z</time>
      </trkpt>
      <trkpt lat="43.58893" lon="3.73555">
        <ele>130.3</ele>
        <time>2021-01-23T13:43:13Z</time>
      </trkpt>
      <trkpt lat="43.58891" lon="3.73559">
        <ele>130.2</ele>
        <time>2021-01-23T13:43:14Z</time>
      </trkpt>
      <trkpt lat="43.58889" lon="3.73563">
        <ele>130</ele>
        <time>2021-01-23T13:43:15Z</time>
      </trkpt>
      <trkpt lat="43.58887" lon="3.73567">
        <ele>129.9</ele>
        <time>2021-01-23T13:43:17Z</time>
      </trkpt>
      <trkpt lat="43.58884" lon="3.7357">
        <ele>129.6</ele>
        <time>2021-01-23T13:43:18Z</time>
      </trkpt>
      <trkpt lat="43.58882" lon="3.73573">
        <ele>129.4</ele>
        <time>2021-01-23T13:43:19Z</time>
      </trkpt>
      <trkpt lat="43.5888" lon="3.73577">
        <ele>129.2</ele>
        <time>2021-01-23T13:43:20Z</time>
      </trkpt>
      <trkpt lat="43.58878" lon="3.73581">
        <ele>128.9</ele>
        <time>2021-01-23T13:43:21Z</time>
      </trkpt>
      <trkpt lat="43.58876" lon="3.73585">
        <ele>132</ele>
        <time>2021-01-23T13:43:22Z</time>
      </trkpt>
      <trkpt lat="43.58873" lon="3.7359">
        <ele>127.9</ele>
        <time>2021-01-23T13:43:23Z</time>
      </trkpt>
      <trkpt lat="43.5887" lon="3.73593">
        <ele>127.5</ele>
        <time>2021-01-23T13:43:24Z</time>
      </trkpt>
      <trkpt lat="43.58865" lon="3.736">
        <ele>126.7</ele>
        <time>2021-01-23T13:43:25Z</time>
      </trkpt>
      <trkpt lat="43.58864" lon="3.73603">
        <ele>126.5</ele>
        <time>2021-01-23T13:43:26Z</time>
      </trkpt>
      <trkpt lat="43.58863" lon="3.73606">
        <ele>126.3</ele>
        <time>2021-01-23T13:43:27Z</time>
      </trkpt>
      <trkpt lat="43.58863" lon="3.73609">
        <ele>126.2</ele>
        <time>2021-01-23T13:43:28Z</time>
      </trkpt>
      <trkpt lat="43.58861" lon="3.73612">
        <ele>126</ele>
        <time>2021-01-23T13:43:31Z</time>
      </trkpt>
      <trkpt lat="43.58859" lon="3.73615">
        <ele>125.9</ele>
        <time>2021-01-23T13:43:33Z</time>
      </trkpt>
      <trkpt lat="43.58857" lon="3.73616">
        <ele>125.7</ele>
        <time>2021-01-23T13:43:34Z</time>
      </trkpt>
      <trkpt lat="43.58855" lon="3.73618">
        <ele>125.5</ele>
        <time>2021-01-23T13:43:35Z</time>
      </trkpt>
      <trkpt lat="43.58854" lon="3.73621">
        <ele>125.4</ele>
        <time>2021-01-23T13:43:36Z</time>
      </trkpt>
      <trkpt lat="43.58852" lon="3.73623">
        <ele>125.2</ele>
        <time>2021-01-23T13:43:37Z</time>
      </trkpt>
      <trkpt lat="43.5885" lon="3.73625">
        <ele>124.9</ele>
        <time>2021-01-23T13:43:38Z</time>
      </trkpt>
      <trkpt lat="43.58849" lon="3.73628">
        <ele>124.8</ele>
        <time>2021-01-23T13:43:39Z</time>
      </trkpt>
      <trkpt lat="43.58847" lon="3.7363">
        <ele>124.5</ele>
        <time>2021-01-23T13:43:40Z</time>
      </trkpt>
      <trkpt lat="43.58845" lon="3.73632">
        <ele>124.1</ele>
        <time>2021-01-23T13:43:41Z</time>
      </trkpt>
      <trkpt lat="43.58842" lon="3.73635">
        <ele>131</ele>
        <time>2021-01-23T13:43:42Z</time>
      </trkpt>
      <trkpt lat="43.58841" lon="3.73638">
        <ele>123.4</ele>
        <time>2021-01-23T13:43:43Z</time>
      </trkpt>
      <trkpt lat="43.5884" lon="3.73642">
        <ele>123.6</ele>
        <time>2021-01-23T13:43:44Z</time>
      </trkpt>
      <trkpt lat="43.5884" lon="3.73645">
        <ele>124</ele>
        <time>2021-01-23T13:43:45Z</time>
      </trkpt>
      <trkpt lat="43.58841" lon="3.73648">
        <ele>124.5</ele>
        <time>2021-01-23T13:43:46Z</time>
      </trkpt>
      <trkpt lat="43.58842" lon="3.73652">
        <ele>125.2</ele>
        <time>2021-01-23T13:43:47Z</time>
      </trkpt>
      <trkpt lat="43.58843" lon="3.73656">
        <ele>125.8</ele>
        <time>2021-01-23T13:43:48Z</time>
      </trkpt>
      <trkpt lat="43.58843" lon="3.7366">
        <ele>126.3</ele>
        <time>2021-01-23T13:43:49Z</time>
      </trkpt>
      <trkpt lat="43.58842" lon="3.73663">
        <ele>126.5</ele>
        <time>2021-01-23T13:43:50Z</time>
      </trkpt>
      <trkpt lat="43.5884" lon="3.73666">
        <ele>126.6</ele>
        <time>2021-01-23T13:43:51Z</time>
      </trkpt>
      <trkpt lat="43.58839" lon="3.7367">
        <ele>130</ele>
        <time>2021-01-23T13:43:52Z</time>
      </trkpt>
      <trkpt lat="43.58839" lon="3.73673">
        <ele>127.2</ele>
        <time>2021-01-23T13:43:53Z</time>
      </trkpt>
      <trkpt lat="43.58837" lon="3.73676">
        <ele>127.2</ele>
        <time>2021-01-23T13:43:54Z</time>
      </trkpt>
      <trkpt lat="43.58836" lon="3.73679">
        <ele>127.3</ele>
        <time>2021-01-23T13:43:55Z</time>
      </trkpt>
      <trkpt lat="43.58834" lon="3.73682">
        <ele>127.2</ele>
        <time>2021-01-23T13:43:56Z</time>
      </trkpt>
      <trkpt lat="43.58834" lon="3.73684">
        <ele>127.3</ele>
        <time>2021-01-23T13:43:57Z</time>
      </trkpt>
      <trkpt lat="43.58833" lon="3.73688">
        <ele>127.5</ele>
        <time>2021-01-23T13:43:59Z</time>
      </trkpt>
      <trkpt lat="43.58831" lon="3.73691">
        <ele>127.3</ele>
        <time>2021-01-23T13:44:01Z</time>
      </trkpt>
      <trkpt lat="43.58829" lon="3.73693">
        <ele>130</ele>
        <time>2021-01-23T13:44:02Z</time>
      </trkpt>
      <trkpt lat="43.58827" lon="3.73697">
        <ele>126.7</ele>
        <time>2021-01-23T13:44:04Z</time>
      </trkpt>
      <trkpt lat="43.58826" lon="3.73699">
        <ele>126.6</ele>
        <time>2021-01-23T13:44:05Z</time>
      </trkpt>
      <trkpt lat="43.58826" lon="3.73703">
        <ele>126.8</ele>
        <time>2021-01-23T13:44:06Z</time>
      </trkpt>
      <trkpt lat="43.58826" lon="3.73707">
        <ele>127</ele>
        <time>2021-01-23T13:44:07Z</time>
      </trkpt>
      <trkpt lat="43.58827" lon="3.73711">
        <ele>127.4</ele>
        <time>2021-01-23T13:44:08Z</time>
      </trkpt>
      <trkpt lat="43.58829" lon="3.73715">
        <ele>127.9</ele>
        <time>2021-01-23T13:44:09Z</time>
      </trkpt>
      <trkpt lat="43.5883" lon="3.73718">
        <ele>128.2</ele>
        <time>2021-01-23T13:44:10Z</time>
      </trkpt>
      <trkpt lat="43.58831" lon="3.73722">
        <ele>128.6</ele>
        <time>2021-01-23T13:44:11Z</time>
      </trkpt>
      <trkpt lat="43.58831" lon="3.73725">
        <ele>128.7</ele>
        <time>2021-01-23T13:44:12Z</time>
      </trkpt>
      <trkpt lat="43.5883" lon="3.73727">
        <ele>131</ele>
        <time>2021-01-23T13:44:13Z</time>
      </trkpt>
      <trkpt lat="43.58829" lon="3.7373">
        <ele>128.5</ele>
        <time>2021-01-23T13:44:14Z</time>
      </trkpt>
      <trkpt lat="43.58829" lon="3.73733">
        <ele>128.5</ele>
        <time>2021-01-23T13:44:15Z</time>
      </trkpt>
      <trkpt lat="43.58829" lon="3.73737">
        <ele>128.7</ele>
        <time>2021-01-23T13:44:17Z</time>
      </trkpt>
      <trkpt lat="43.58829" lon="3.7374">
        <ele>128.8</ele>
        <time>2021-01-23T13:44:18Z</time>
      </trkpt>
      <trkpt lat="43.58829" lon="3.73743">
        <ele>128.9</ele>
        <time>2021-01-23T13:44:19Z</time>
      </trkpt>
      <trkpt lat="43.58828" lon="3.73746">
        <ele>128.7</ele>
        <time>2021-01-23T13:44:20Z</time>
      </trkpt>
      <trkpt lat="43.58827" lon="3.73749">
        <ele>128.6</ele>
        <time>2021-01-23T13:44:21Z</time>
      </trkpt>
      <trkpt lat="43.58827" lon="3.73752">
        <ele>131</ele>
        <time>2021-01-23T13:44:22Z</time>
      </trkpt>
      <trkpt lat="43.58827" lon="3.73755">
        <ele>128.5</ele>
        <time>2021-01-23T13:44:23Z</time>
      </trkpt>
      <trkpt lat="43.58827" lon="3.73758">
        <ele>128.4</ele>
        <time>2021-01-23T13:44:24Z</time>
      </trkpt>
      <trkpt lat="43.58827" lon="3.73761">
        <ele>128.3</ele>
        <time>2021-01-23T13:44:25Z</time>
      </trkpt>
      <trkpt lat="43.58826" lon="3.73765">
        <ele>128</ele>
        <time>2021-01-23T13:44:26Z</time>
      </trkpt>
      <trkpt lat="43.58825" lon="3.73769">
        <ele>127.7</ele>
        <time>2021-01-23T13:44:27Z</time>
      </trkpt>
      <trkpt lat="43.58824" lon="3.73774">
        <ele>127.4</ele>
        <time>2021-01-23T13:44:28Z</time>
      </trkpt>
      <trkpt lat="43.58821" lon="3.73778">
        <ele>126.8</ele>
        <time>2021-01-23T13:44:29Z</time>
      </trkpt>
      <trkpt lat="43.58818" lon="3.73783">
        <ele>125.9</ele>
        <time>2021-01-23T13:44:30Z</time>
      </trkpt>
      <trkpt lat="43.58815" lon="3.73788">
        <ele>125.1</ele>
        <time>2021-01-23T13:44:31Z</time>
      </trkpt>
      <trkpt lat="43.58812" lon="3.73794">
        <ele>130</ele>
        <time>2021-01-23T13:44:32Z</time>
      </trkpt>
      <trkpt lat="43.58808" lon="3.73801">
        <ele>123.5</ele>
        <time>2021-01-23T13:44:33Z</time>
      </trkpt>
      <trkpt lat="43.58806" lon="3.73808">
        <ele>122.9</ele>
        <time>2021-01-23T13:44:34Z</time>
      </trkpt>
      <trkpt lat="43.58804" lon="3.73816">
        <ele>122</ele>
        <time>2021-01-23T13:44:35Z</time>
      </trkpt>
      <trkpt lat="43.58804" lon="3.73824">
        <ele>121.5</ele>
        <time>2021-01-23T13:44:36Z</time>
      </trkpt>
      <trkpt lat="43.58805" lon="3.73833">
        <ele>121</ele>
        <time>2021-01-23T13:44:37Z</time>
      </trkpt>
      <trkpt lat="43.58805" lon="3.73841">
        <ele>120.1</ele>
        <time>2021-01-23T13:44:38Z</time>
      </trkpt>
      <trkpt lat="43.58804" lon="3.73848">
        <ele>119.3</ele>
        <time>2021-01-23T13:44:39Z</time>
      </trkpt>
      <trkpt lat="43.58802" lon="3.73855">
        <ele>118.5</ele>
        <time>2021-01-23T13:44:40Z</time>
      </trkpt>
      <trkpt lat="43.58798" lon="3.7386">
        <ele>117.8</ele>
        <time>2021-01-23T13:44:41Z</time>
      </trkpt>
      <trkpt lat="43.58793" lon="3.73864">
        <ele>127</ele>
        <time>2021-01-23T13:44:42Z</time>
      </trkpt>
      <trkpt lat="43.58787" lon="3.73867">
        <ele>116.3</ele>
        <time>2021-01-23T13:44:43Z</time>
      </trkpt>
      <trkpt lat="43.5878" lon="3.73871">
        <ele>115.3</ele>
        <time>2021-01-23T13:44:44Z</time>
      </trkpt>
      <trkpt lat="43.58773" lon="3.73876">
        <ele>114.2</ele>
        <time>2021-01-23T13:44:45Z</time>
      </trkpt>
      <trkpt lat="43.58766" lon="3.73881">
        <ele>113.2</ele>
        <time>2021-01-23T13:44:46Z</time>
      </trkpt>
      <trkpt lat="43.58759" lon="3.73886">
        <ele>112.4</ele>
        <time>2021-01-23T13:44:47Z</time>
      </trkpt>
      <trkpt lat="43.58751" lon="3.7389">
        <ele>111.8</ele>
        <time>2021-01-23T13:44:48Z</time>
      </trkpt>
      <trkpt lat="43.58744" lon="3.73895">
        <ele>111</ele>
        <time>2021-01-23T13:44:49Z</time>
      </trkpt>
      <trkpt lat="43.58737" lon="3.73901">
        <ele>110</ele>
        <time>2021-01-23T13:44:50Z</time>
      </trkpt>
      <trkpt lat="43.5873" lon="3.73906">
        <ele>109.3</ele>
        <time>2021-01-23T13:44:51Z</time>
      </trkpt>
      <trkpt lat="43.58723" lon="3.73911">
        <ele>120</ele>
        <time>2021-01-23T13:44:52Z</time>
      </trkpt>
      <trkpt lat="43.58717" lon="3.73916">
        <ele>107.9</ele>
        <time>2021-01-23T13:44:53Z</time>
      </trkpt>
      <trkpt lat="43.58711" lon="3.7392">
        <ele>107.3</ele>
        <time>2021-01-23T13:44:54Z</time>
      </trkpt>
      <trkpt lat="43.58707" lon="3.73922">
        <ele>107</ele>
        <time>2021-01-23T13:44:55Z</time>
      </trkpt>
      <trkpt lat="43.58703" lon="3.73925">
        <ele>106.6</ele>
        <time>2021-01-23T13:44:56Z</time>
      </trkpt>
      <trkpt lat="43.58701" lon="3.73927">
        <ele>106.4</ele>
        <time>2021-01-23T13:44:57Z</time>
      </trkpt>
      <trkpt lat="43.58699" lon="3.73928">
        <ele>106.3</ele>
        <time>2021-01-23T13:44:58Z</time>
      </trkpt>
      <trkpt lat="43.58697" lon="3.73932">
        <ele>105.9</ele>
        <time>2021-01-23T13:45:00Z</time>
      </trkpt>
      <trkpt lat="43.58696" lon="3.73934">
        <ele>105.8</ele>
        <time>2021-01-23T13:45:01Z</time>
      </trkpt>
      <trkpt lat="43.58698" lon="3.73938">
        <ele>116</ele>
        <time>2021-01-23T13:45:02Z</time>
      </trkpt>
      <trkpt lat="43.587" lon="3.73942">
        <ele>105.2</ele>
        <time>2021-01-23T13:45:03Z</time>
      </trkpt>
      <trkpt lat="43.58702" lon="3.73947">
        <ele>104.8</ele>
        <time>2021-01-23T13:45:04Z</time>
      </trkpt>
      <trkpt lat="43.58705" lon="3.73954">
        <ele>104.1</ele>
        <time>2021-01-23T13:45:05Z</time>
      </trkpt>
      <trkpt lat="43.58708" lon="3.73959">
        <ele>103.4</ele>
        <time>2021-01-23T13:45:06Z</time>
      </trkpt>
      <trkpt lat="43.58712" lon="3.73965">
        <ele>102.6</ele>
        <time>2021-01-23T13:45:07Z</time>
      </trkpt>
      <trkpt lat="43.58716" lon="3.73968">
        <ele>102</ele>
        <time>2021-01-23T13:45:08Z</time>
      </trkpt>
      <trkpt lat="43.58721" lon="3.73972">
        <ele>101.1</ele>
        <time>2021-01-23T13:45:09Z</time>
      </trkpt>
      <trkpt lat="43.58725" lon="3.73974">
        <ele>100.9</ele>
        <time>2021-01-23T13:45:10Z</time>
      </trkpt>
      <trkpt lat="43.58729" lon="3.73977">
        <ele>100.7</ele>
        <time>2021-01-23T13:45:11Z</time>
      </trkpt>
      <trkpt lat="43.58732" lon="3.73981">
        <ele>111</ele>
        <time>2021-01-23T13:45:12Z</time>
      </trkpt>
      <trkpt lat="43.58735" lon="3.73984">
        <ele>100</ele>
        <time>2021-01-23T13:45:13Z</time>
      </trkpt>
      <trkpt lat="43.58738" lon="3.73988">
        <ele>99.5</ele>
        <time>2021-01-23T13:45:14Z</time>
      </trkpt>
      <trkpt lat="43.5874" lon="3.73992">
        <ele>99</ele>
        <time>2021-01-23T13:45:15Z</time>
      </trkpt>
      <trkpt lat="43.58742" lon="3.73998">
        <ele>98.3</ele>
        <time>2021-01-23T13:45:16Z</time>
      </trkpt>
      <trkpt lat="43.58743" lon="3.74005">
        <ele>97.8</ele>
        <time>2021-01-23T13:45:17Z</time>
      </trkpt>
      <trkpt lat="43.58744" lon="3.74012">
        <ele>97.5</ele>
        <time>2021-01-23T13:45:18Z</time>
      </trkpt>
      <trkpt lat="43.58746" lon="3.7402">
        <ele>97.2</ele>
        <time>2021-01-23T13:45:19Z</time>
      </trkpt>
      <trkpt lat="43.58746" lon="3.74027">
        <ele>96.9</ele>
        <time>2021-01-23T13:45:20Z</time>
      </trkpt>
      <trkpt lat="43.58747" lon="3.74034">
        <ele>97.5</ele>
        <time>2021-01-23T13:45:21Z</time>
      </trkpt>
      <trkpt lat="43.58747" lon="3.74041">
        <ele>108</ele>
        <time>2021-01-23T13:45:22Z</time>
      </trkpt>
      <trkpt lat="43.58747" lon="3.74048">
        <ele>98.9</ele>
        <time>2021-01-23T13:45:23Z</time>
      </trkpt>
      <trkpt lat="43.58746" lon="3.74052">
        <ele>99.2</ele>
        <time>2021-01-23T13:45:24Z</time>
      </trkpt>
      <trkpt lat="43.58744" lon="3.74056">
        <ele>99.4</ele>
        <time>2021-01-23T13:45:25Z</time>
      </trkpt>
      <trkpt lat="43.58742" lon="3.7406">
        <ele>99.7</ele>
        <time>2021-01-23T13:45:26Z</time>
      </trkpt>
      <trkpt lat="43.5874" lon="3.74063">
        <ele>99.8</ele>
        <time>2021-01-23T13:45:27Z</time>
      </trkpt>
      <trkpt lat="43.58739" lon="3.74065">
        <ele>99.9</ele>
        <time>2021-01-23T13:45:28Z</time>
      </trkpt>
      <trkpt lat="43.58737" lon="3.74068">
        <ele>100</ele>
        <time>2021-01-23T13:45:29Z</time>
      </trkpt>
      <trkpt lat="43.58735" lon="3.74071">
        <ele>100</ele>
        <time>2021-01-23T13:45:30Z</time>
      </trkpt>
      <trkpt lat="43.58734" lon="3.74074">
        <ele>100.2</ele>
        <time>2021-01-23T13:45:31Z</time>
      </trkpt>
      <trkpt lat="43.58732" lon="3.74078">
        <ele>107</ele>
        <time>2021-01-23T13:45:32Z</time>
      </trkpt>
      <trkpt lat="43.58731" lon="3.74081">
        <ele>100.4</ele>
        <time>2021-01-23T13:45:33Z</time>
      </trkpt>
      <trkpt lat="43.5873" lon="3.74085">
        <ele>100.6</ele>
        <time>2021-01-23T13:45:34Z</time>
      </trkpt>
      <trkpt lat="43.5873" lon="3.74089">
        <ele>101</ele>
        <time>2021-01-23T13:45:35Z</time>
      </trkpt>
      <trkpt lat="43.5873" lon="3.74093">
        <ele>101.3</ele>
        <time>2021-01-23T13:45:36Z</time>
      </trkpt>
      <trkpt lat="43.5873" lon="3.74097">
        <ele>101.7</ele>
        <time>2021-01-23T13:45:37Z</time>
      </trkpt>
      <trkpt lat="43.5873" lon="3.741">
        <ele>102</ele>
        <time>2021-01-23T13:45:38Z</time>
      </trkpt>
      <trkpt lat="43.5873" lon="3.74103">
        <ele>102.3</ele>
        <time>2021-01-23T13:45:39Z</time>
      </trkpt>
      <trkpt lat="43.5873" lon="3.74106">
        <ele>102.6</ele>
        <time>2021-01-23T13:45:40Z</time>
      </trkpt>
      <trkpt lat="43.5873" lon="3.7411">
        <ele>103</ele>
        <time>2021-01-23T13:45:41Z</time>
      </trkpt>
      <trkpt lat="43.5873" lon="3.74113">
        <ele>107</ele>
        <time>2021-01-23T13:45:42Z</time>
      </trkpt>
      <trkpt lat="43.5873" lon="3.74116">
        <ele>103.5</ele>
        <time>2021-01-23T13:45:43Z</time>
      </trkpt>
      <trkpt lat="43.5873" lon="3.74118">
        <ele>103.7</ele>
        <time>2021-01-23T13:45:44Z</time>
      </trkpt>
      <trkpt lat="43.5873" lon="3.74121">
        <ele>104</ele>
        <time>2021-01-23T13:45:45Z</time>
      </trkpt>
      <trkpt lat="43.5873" lon="3.74124">
        <ele>104.3</ele>
        <time>2021-01-23T13:45:46Z</time>
      </trkpt>
      <trkpt lat="43.5873" lon="3.74127">
        <ele>104.5</ele>
        <time>2021-01-23T13:45:47Z</time>
      </trkpt>
      <trkpt lat="43.5873" lon="3.74129">
        <ele>104.7</ele>
        <time>2021-01-23T13:45:48Z</time>
      </trkpt>
      <trkpt lat="43.5873" lon="3.74132">
        <ele>105</ele>
        <time>2021-01-23T13:45:49Z</time>
      </trkpt>
      <trkpt lat="43.5873" lon="3.74135">
        <ele>105.2</ele>
        <time>2021-01-23T13:45:50Z</time>
      </trkpt>
      <trkpt lat="43.5873" lon="3.74138">
        <ele>105.5</ele>
        <time>2021-01-23T13:45:51Z</time>
      </trkpt>
      <trkpt lat="43.5873" lon="3.7414">
        <ele>105.6</ele>
        <time>2021-01-23T13:45:52Z</time>
      </trkpt>
      <trkpt lat="43.5873" lon="3.74143">
        <ele>108</ele>
        <time>2021-01-23T13:45:53Z</time>
      </trkpt>
      <trkpt lat="43.58731" lon="3.74145">
        <ele>106.1</ele>
        <time>2021-01-23T13:45:54Z</time>
      </trkpt>
      <trkpt lat="43.58731" lon="3.74148">
        <ele>106.3</ele>
        <time>2021-01-23T13:45:55Z</time>
      </trkpt>
      <trkpt lat="43.58731" lon="3.74151">
        <ele>106.5</ele>
        <time>2021-01-23T13:45:56Z</time>
      </trkpt>
      <trkpt lat="43.58731" lon="3.74153">
        <ele>106.7</ele>
        <time>2021-01-23T13:45:57Z</time>
      </trkpt>
      <trkpt lat="43.58731" lon="3.74156">
        <ele>106.9</ele>
        <time>2021-01-23T13:45:58Z</time>
      </trkpt>
      <trkpt lat="43.58731" lon="3.74158">
        <ele>107</ele>
        <time>2021-01-23T13:45:59Z</time>
      </trkpt>
      <trkpt lat="43.58731" lon="3.74161">
        <ele>107.3</ele>
        <time>2021-01-23T13:46:00Z</time>
      </trkpt>
      <trkpt lat="43.58731" lon="3.74163">
        <ele>107.4</ele>
        <time>2021-01-23T13:46:01Z</time>
      </trkpt>
      <trkpt lat="43.58731" lon="3.74166">
        <ele>110</ele>
        <time>2021-01-23T13:46:02Z</time>
      </trkpt>
      <trkpt lat="43.58731" lon="3.74169">
        <ele>107.7</ele>
        <time>2021-01-23T13:46:03Z</time>
      </trkpt>
      <trkpt lat="43.5873" lon="3.74172">
        <ele>107.8</ele>
        <time>2021-01-23T13:46:04Z</time>
      </trkpt>
      <trkpt lat="43.5873" lon="3.74174">
        <ele>107.8</ele>
        <time>2021-01-23T13:46:05Z</time>
      </trkpt>
      <trkpt lat="43.5873" lon="3.74177">
        <ele>107.8</ele>
        <time>2021-01-23T13:46:06Z</time>
      </trkpt>
      <trkpt lat="43.5873" lon="3.7418">
        <ele>107.9</ele>
        <time>2021-01-23T13:46:07Z</time>
      </trkpt>
      <trkpt lat="43.5873" lon="3.74182">
        <ele>107.9</ele>
        <time>2021-01-23T13:46:08Z</time>
      </trkpt>
      <trkpt lat="43.5873" lon="3.74186">
        <ele>107.9</ele>
        <time>2021-01-23T13:46:09Z</time>
      </trkpt>
      <trkpt lat="43.5873" lon="3.74189">
        <ele>107.9</ele>
        <time>2021-01-23T13:46:10Z</time>
      </trkpt>
      <trkpt lat="43.5873" lon="3.74192">
        <ele>108</ele>
        <time>2021-01-23T13:46:11Z</time>
      </trkpt>
      <trkpt lat="43.5873" lon="3.74195">
        <ele>111</ele>
        <time>2021-01-23T13:46:12Z</time>
      </trkpt>
      <trkpt lat="43.5873" lon="3.74199">
        <ele>107.7</ele>
        <time>2021-01-23T13:46:13Z</time>
      </trkpt>
      <trkpt lat="43.5873" lon="3.74202">
        <ele>107.5</ele>
        <time>2021-01-23T13:46:14Z</time>
      </trkpt>
      <trkpt lat="43.5873" lon="3.74206">
        <ele>107.3</ele>
        <time>2021-01-23T13:46:15Z</time>
      </trkpt>
      <trkpt lat="43.5873" lon="3.7421">
        <ele>107</ele>
        <time>2021-01-23T13:46:16Z</time>
      </trkpt>
      <trkpt lat="43.5873" lon="3.74215">
        <ele>106.7</ele>
        <time>2021-01-23T13:46:17Z</time>
      </trkpt>
      <trkpt lat="43.5873" lon="3.7422">
        <ele>106.4</ele>
        <time>2021-01-23T13:46:18Z</time>
      </trkpt>
      <trkpt lat="43.58729" lon="3.74225">
        <ele>106</ele>
        <time>2021-01-23T13:46:19Z</time>
      </trkpt>
      <trkpt lat="43.58728" lon="3.74231">
        <ele>105.6</ele>
        <time>2021-01-23T13:46:20Z</time>
      </trkpt>
      <trkpt lat="43.58727" lon="3.74237">
        <ele>105.1</ele>
        <time>2021-01-23T13:46:21Z</time>
      </trkpt>
      <trkpt lat="43.58726" lon="3.74243">
        <ele>109</ele>
        <time>2021-01-23T13:46:22Z</time>
      </trkpt>
      <trkpt lat="43.58725" lon="3.74249">
        <ele>104.2</ele>
        <time>2021-01-23T13:46:23Z</time>
      </trkpt>
      <trkpt lat="43.58723" lon="3.74255">
        <ele>103.7</ele>
        <time>2021-01-23T13:46:24Z</time>
      </trkpt>
      <trkpt lat="43.58722" lon="3.74262">
        <ele>103.1</ele>
        <time>2021-01-23T13:46:25Z</time>
      </trkpt>
      <trkpt lat="43.5872" lon="3.74269">
        <ele>102.6</ele>
        <time>2021-01-23T13:46:26Z</time>
      </trkpt>
      <trkpt lat="43.5872" lon="3.74276">
        <ele>102.1</ele>
        <time>2021-01-23T13:46:27Z</time>
      </trkpt>
      <trkpt lat="43.58718" lon="3.74283">
        <ele>101.3</ele>
        <time>2021-01-23T13:46:28Z</time>
      </trkpt>
      <trkpt lat="43.58716" lon="3.74292">
        <ele>100.2</ele>
        <time>2021-01-23T13:46:29Z</time>
      </trkpt>
      <trkpt lat="43.58713" lon="3.74301">
        <ele>99.2</ele>
        <time>2021-01-23T13:46:30Z</time>
      </trkpt>
      <trkpt lat="43.58709" lon="3.7431">
        <ele>98.6</ele>
        <time>2021-01-23T13:46:31Z</time>
      </trkpt>
      <trkpt lat="43.58705" lon="3.7432">
        <ele>105</ele>
        <time>2021-01-23T13:46:32Z</time>
      </trkpt>
      <trkpt lat="43.587" lon="3.74329">
        <ele>98.4</ele>
        <time>2021-01-23T13:46:33Z</time>
      </trkpt>
      <trkpt lat="43.58694" lon="3.74336">
        <ele>98.2</ele>
        <time>2021-01-23T13:46:34Z</time>
      </trkpt>
      <trkpt lat="43.58689" lon="3.74344">
        <ele>98.2</ele>
        <time>2021-01-23T13:46:35Z</time>
      </trkpt>
      <trkpt lat="43.58685" lon="3.74351">
        <ele>98.2</ele>
        <time>2021-01-23T13:46:36Z</time>
      </trkpt>
      <trkpt lat="43.58681" lon="3.74359">
        <ele>98</ele>
        <time>2021-01-23T13:46:37Z</time>
      </trkpt>
      <trkpt lat="43.58677" lon="3.74366">
        <ele>97.9</ele>
        <time>2021-01-23T13:46:38Z</time>
      </trkpt>
      <trkpt lat="43.58674" lon="3.74373">
        <ele>98</ele>
        <time>2021-01-23T13:46:39Z</time>
      </trkpt>
      <trkpt lat="43.5867" lon="3.74381">
        <ele>98</ele>
        <time>2021-01-23T13:46:40Z</time>
      </trkpt>
      <trkpt lat="43.58667" lon="3.74387">
        <ele>97.9</ele>
        <time>2021-01-23T13:46:41Z</time>
      </trkpt>
      <trkpt lat="43.58664" lon="3.74394">
        <ele>98.1</ele>
        <time>2021-01-23T13:46:42Z</time>
      </trkpt>
      <trkpt lat="43.58661" lon="3.74399">
        <ele>102</ele>
        <time>2021-01-23T13:46:43Z</time>
      </trkpt>
      <trkpt lat="43.58659" lon="3.74404">
        <ele>98.3</ele>
        <time>2021-01-23T13:46:44Z</time>
      </trkpt>
      <trkpt lat="43.58656" lon="3.74409">
        <ele>98.3</ele>
        <time>2021-01-23T13:46:45Z</time>
      </trkpt>
      <trkpt lat="43.58654" lon="3.74414">
        <ele>98.4</ele>
        <time>2021-01-23T13:46:46Z</time>
      </trkpt>
      <trkpt lat="43.58653" lon="3.74418">
        <ele>98.6</ele>
        <time>2021-01-23T13:46:47Z</time>
      </trkpt>
      <trkpt lat="43.58651" lon="3.74421">
        <ele>98.5</ele>
        <time>2021-01-23T13:46:48Z</time>
      </trkpt>
      <trkpt lat="43.5865" lon="3.74426">
        <ele>98.5</ele>
        <time>2021-01-23T13:46:49Z</time>
      </trkpt>
      <trkpt lat="43.58649" lon="3.7443">
        <ele>98.6</ele>
        <time>2021-01-23T13:46:50Z</time>
      </trkpt>
      <trkpt lat="43.58648" lon="3.74435">
        <ele>98.6</ele>
        <time>2021-01-23T13:46:51Z</time>
      </trkpt>
      <trkpt lat="43.58647" lon="3.7444">
        <ele>101</ele>
        <time>2021-01-23T13:46:52Z</time>
      </trkpt>
      <trkpt lat="43.58647" lon="3.74446">
        <ele>98.8</ele>
        <time>2021-01-23T13:46:53Z</time>
      </trkpt>
      <trkpt lat="43.58647" lon="3.74452">
        <ele>98.6</ele>
        <time>2021-01-23T13:46:54Z</time>
      </trkpt>
      <trkpt lat="43.58647" lon="3.74458">
        <ele>98.4</ele>
        <time>2021-01-23T13:46:55Z</time>
      </trkpt>
      <trkpt lat="43.58647" lon="3.74463">
        <ele>98.2</ele>
        <time>2021-01-23T13:46:56Z</time>
      </trkpt>
      <trkpt lat="43.58647" lon="3.74469">
        <ele>98</ele>
        <time>2021-01-23T13:46:57Z</time>
      </trkpt>
      <trkpt lat="43.58647" lon="3.74476">
        <ele>97.7</ele>
        <time>2021-01-23T13:46:58Z</time>
      </trkpt>
      <trkpt lat="43.58648" lon="3.74482">
        <ele>97.6</ele>
        <time>2021-01-23T13:46:59Z</time>
      </trkpt>
      <trkpt lat="43.58648" lon="3.74489">
        <ele>97.4</ele>
        <time>2021-01-23T13:47:00Z</time>
      </trkpt>
      <trkpt lat="43.58649" lon="3.74495">
        <ele>97.3</ele>
        <time>2021-01-23T13:47:01Z</time>
      </trkpt>
      <trkpt lat="43.5865" lon="3.74502">
        <ele>100</ele>
        <time>2021-01-23T13:47:02Z</time>
      </trkpt>
      <trkpt lat="43.5865" lon="3.7451">
        <ele>96.8</ele>
        <time>2021-01-23T13:47:03Z</time>
      </trkpt>
      <trkpt lat="43.58651" lon="3.74517">
        <ele>96.7</ele>
        <time>2021-01-23T13:47:04Z</time>
      </trkpt>
      <trkpt lat="43.58653" lon="3.74524">
        <ele>96.7</ele>
        <time>2021-01-23T13:47:05Z</time>
      </trkpt>
      <trkpt lat="43.58654" lon="3.74531">
        <ele>96.5</ele>
        <time>2021-01-23T13:47:06Z</time>
      </trkpt>
      <trkpt lat="43.58655" lon="3.74538">
        <ele>96.4</ele>
        <time>2021-01-23T13:47:07Z</time>
      </trkpt>
      <trkpt lat="43.58656" lon="3.74546">
        <ele>96.2</ele>
        <time>2021-01-23T13:47:08Z</time>
      </trkpt>
      <trkpt lat="43.58657" lon="3.74553">
        <ele>96</ele>
        <time>2021-01-23T13:47:09Z</time>
      </trkpt>
      <trkpt lat="43.58658" lon="3.74561">
        <ele>96.1</ele>
        <time>2021-01-23T13:47:10Z</time>
      </trkpt>
      <trkpt lat="43.58658" lon="3.74568">
        <ele>96.2</ele>
        <time>2021-01-23T13:47:11Z</time>
      </trkpt>
      <trkpt lat="43.58659" lon="3.74575">
        <ele>98</ele>
        <time>2021-01-23T13:47:12Z</time>
      </trkpt>
      <trkpt lat="43.58659" lon="3.74582">
        <ele>96.4</ele>
        <time>2021-01-23T13:47:13Z</time>
      </trkpt>
      <trkpt lat="43.58659" lon="3.74588">
        <ele>96.7</ele>
        <time>2021-01-23T13:47:14Z</time>
      </trkpt>
      <trkpt lat="43.58659" lon="3.74594">
        <ele>96.9</ele>
        <time>2021-01-23T13:47:15Z</time>
      </trkpt>
      <trkpt lat="43.58659" lon="3.746">
        <ele>97.2</ele>
        <time>2021-01-23T13:47:16Z</time>
      </trkpt>
      <trkpt lat="43.58658" lon="3.74604">
        <ele>97.4</ele>
        <time>2021-01-23T13:47:17Z</time>
      </trkpt>
      <trkpt lat="43.58657" lon="3.74609">
        <ele>97.5</ele>
        <time>2021-01-23T13:47:18Z</time>
      </trkpt>
      <trkpt lat="43.58657" lon="3.74612">
        <ele>97.7</ele>
        <time>2021-01-23T13:47:19Z</time>
      </trkpt>
      <trkpt lat="43.58656" lon="3.74616">
        <ele>97.8</ele>
        <time>2021-01-23T13:47:20Z</time>
      </trkpt>
      <trkpt lat="43.58655" lon="3.7462">
        <ele>97.9</ele>
        <time>2021-01-23T13:47:21Z</time>
      </trkpt>
      <trkpt lat="43.58652" lon="3.74628">
        <ele>99</ele>
        <time>2021-01-23T13:47:22Z</time>
      </trkpt>
      <trkpt lat="43.5865" lon="3.74632">
        <ele>98.2</ele>
        <time>2021-01-23T13:47:23Z</time>
      </trkpt>
      <trkpt lat="43.58648" lon="3.74636">
        <ele>98.2</ele>
        <time>2021-01-23T13:47:24Z</time>
      </trkpt>
      <trkpt lat="43.58644" lon="3.74646">
        <ele>98.2</ele>
        <time>2021-01-23T13:47:26Z</time>
      </trkpt>
      <trkpt lat="43.58642" lon="3.7465">
        <ele>98.1</ele>
        <time>2021-01-23T13:47:27Z</time>
      </trkpt>
      <trkpt lat="43.5864" lon="3.74655">
        <ele>98</ele>
        <time>2021-01-23T13:47:28Z</time>
      </trkpt>
      <trkpt lat="43.58635" lon="3.74663">
        <ele>98</ele>
        <time>2021-01-23T13:47:30Z</time>
      </trkpt>
      <trkpt lat="43.58633" lon="3.74668">
        <ele>98</ele>
        <time>2021-01-23T13:47:31Z</time>
      </trkpt>
      <trkpt lat="43.58631" lon="3.74672">
        <ele>98</ele>
        <time>2021-01-23T13:47:33Z</time>
      </trkpt>
      <trkpt lat="43.58628" lon="3.74676">
        <ele>98</ele>
        <time>2021-01-23T13:47:34Z</time>
      </trkpt>
      <trkpt lat="43.58625" lon="3.74679">
        <ele>98</ele>
        <time>2021-01-23T13:47:35Z</time>
      </trkpt>
      <trkpt lat="43.58623" lon="3.74683">
        <ele>98</ele>
        <time>2021-01-23T13:47:36Z</time>
      </trkpt>
      <trkpt lat="43.5862" lon="3.74687">
        <ele>98</ele>
        <time>2021-01-23T13:47:37Z</time>
      </trkpt>
      <trkpt lat="43.58618" lon="3.74692">
        <ele>98</ele>
        <time>2021-01-23T13:47:38Z</time>
      </trkpt>
      <trkpt lat="43.58616" lon="3.74696">
        <ele>98</ele>
        <time>2021-01-23T13:47:39Z</time>
      </trkpt>
      <trkpt lat="43.58614" lon="3.74701">
        <ele>97.8</ele>
        <time>2021-01-23T13:47:40Z</time>
      </trkpt>
      <trkpt lat="43.58612" lon="3.74706">
        <ele>97.6</ele>
        <time>2021-01-23T13:47:41Z</time>
      </trkpt>
      <trkpt lat="43.58611" lon="3.74711">
        <ele>100</ele>
        <time>2021-01-23T13:47:42Z</time>
      </trkpt>
      <trkpt lat="43.5861" lon="3.74715">
        <ele>97.2</ele>
        <time>2021-01-23T13:47:43Z</time>
      </trkpt>
      <trkpt lat="43.58611" lon="3.74719">
        <ele>97.1</ele>
        <time>2021-01-23T13:47:44Z</time>
      </trkpt>
      <trkpt lat="43.58613" lon="3.74722">
        <ele>97.1</ele>
        <time>2021-01-23T13:47:45Z</time>
      </trkpt>
      <trkpt lat="43.58615" lon="3.74723">
        <ele>97.1</ele>
        <time>2021-01-23T13:47:46Z</time>
      </trkpt>
      <trkpt lat="43.58618" lon="3.74726">
        <ele>97.1</ele>
        <time>2021-01-23T13:47:47Z</time>
      </trkpt>
      <trkpt lat="43.58621" lon="3.74728">
        <ele>97.1</ele>
        <time>2021-01-23T13:47:48Z</time>
      </trkpt>
      <trkpt lat="43.58625" lon="3.7473">
        <ele>97.2</ele>
        <time>2021-01-23T13:47:49Z</time>
      </trkpt>
      <trkpt lat="43.58629" lon="3.74733">
        <ele>97.3</ele>
        <time>2021-01-23T13:47:50Z</time>
      </trkpt>
      <trkpt lat="43.58633" lon="3.74736">
        <ele>97.3</ele>
        <time>2021-01-23T13:47:51Z</time>
      </trkpt>
      <trkpt lat="43.58637" lon="3.74739">
        <ele>99</ele>
        <time>2021-01-23T13:47:52Z</time>
      </trkpt>
      <trkpt lat="43.58641" lon="3.74742">
        <ele>97.3</ele>
        <time>2021-01-23T13:47:53Z</time>
      </trkpt>
      <trkpt lat="43.58645" lon="3.74744">
        <ele>97.3</ele>
        <time>2021-01-23T13:47:54Z</time>
      </trkpt>
      <trkpt lat="43.58649" lon="3.74746">
        <ele>97.2</ele>
        <time>2021-01-23T13:47:55Z</time>
      </trkpt>
      <trkpt lat="43.58653" lon="3.74747">
        <ele>97.2</ele>
        <time>2021-01-23T13:47:56Z</time>
      </trkpt>
      <trkpt lat="43.58658" lon="3.74748">
        <ele>97.1</ele>
        <time>2021-01-23T13:47:57Z</time>
      </trkpt>
      <trkpt lat="43.58662" lon="3.7475">
        <ele>97</ele>
        <time>2021-01-23T13:47:58Z</time>
      </trkpt>
      <trkpt lat="43.58665" lon="3.74754">
        <ele>96.9</ele>
        <time>2021-01-23T13:47:59Z</time>
      </trkpt>
      <trkpt lat="43.58669" lon="3.74759">
        <ele>96.8</ele>
        <time>2021-01-23T13:48:00Z</time>
      </trkpt>
      <trkpt lat="43.58673" lon="3.74763">
        <ele>96.8</ele>
        <time>2021-01-23T13:48:01Z</time>
      </trkpt>
      <trkpt lat="43.58677" lon="3.74765">
        <ele>99</ele>
        <time>2021-01-23T13:48:02Z</time>
      </trkpt>
      <trkpt lat="43.58681" lon="3.74765">
        <ele>97</ele>
        <time>2021-01-23T13:48:03Z</time>
      </trkpt>
      <trkpt lat="43.58685" lon="3.74765">
        <ele>97.1</ele>
        <time>2021-01-23T13:48:04Z</time>
      </trkpt>
      <trkpt lat="43.58689" lon="3.74765">
        <ele>97.3</ele>
        <time>2021-01-23T13:48:05Z</time>
      </trkpt>
      <trkpt lat="43.58692" lon="3.74763">
        <ele>97.4</ele>
        <time>2021-01-23T13:48:06Z</time>
      </trkpt>
      <trkpt lat="43.58696" lon="3.7476">
        <ele>97.7</ele>
        <time>2021-01-23T13:48:07Z</time>
      </trkpt>
      <trkpt lat="43.58699" lon="3.74758">
        <ele>97.9</ele>
        <time>2021-01-23T13:48:08Z</time>
      </trkpt>
      <trkpt lat="43.58703" lon="3.74758">
        <ele>98</ele>
        <time>2021-01-23T13:48:09Z</time>
      </trkpt>
      <trkpt lat="43.58706" lon="3.7476">
        <ele>98.1</ele>
        <time>2021-01-23T13:48:10Z</time>
      </trkpt>
      <trkpt lat="43.5871" lon="3.74761">
        <ele>98.2</ele>
        <time>2021-01-23T13:48:11Z</time>
      </trkpt>
      <trkpt lat="43.58714" lon="3.74763">
        <ele>99</ele>
        <time>2021-01-23T13:48:12Z</time>
      </trkpt>
      <trkpt lat="43.58717" lon="3.74764">
        <ele>98.3</ele>
        <time>2021-01-23T13:48:13Z</time>
      </trkpt>
      <trkpt lat="43.58721" lon="3.74765">
        <ele>98.4</ele>
        <time>2021-01-23T13:48:14Z</time>
      </trkpt>
      <trkpt lat="43.58726" lon="3.74766">
        <ele>98.5</ele>
        <time>2021-01-23T13:48:15Z</time>
      </trkpt>
      <trkpt lat="43.5873" lon="3.74767">
        <ele>98.6</ele>
        <time>2021-01-23T13:48:16Z</time>
      </trkpt>
      <trkpt lat="43.58735" lon="3.74768">
        <ele>98.7</ele>
        <time>2021-01-23T13:48:17Z</time>
      </trkpt>
      <trkpt lat="43.58739" lon="3.74768">
        <ele>98.7</ele>
        <time>2021-01-23T13:48:18Z</time>
      </trkpt>
      <trkpt lat="43.58744" lon="3.74767">
        <ele>98.9</ele>
        <time>2021-01-23T13:48:19Z</time>
      </trkpt>
      <trkpt lat="43.58748" lon="3.74767">
        <ele>99</ele>
        <time>2021-01-23T13:48:20Z</time>
      </trkpt>
      <trkpt lat="43.58752" lon="3.74769">
        <ele>99.1</ele>
        <time>2021-01-23T13:48:21Z</time>
      </trkpt>
      <trkpt lat="43.58756" lon="3.74769">
        <ele>99</ele>
        <time>2021-01-23T13:48:22Z</time>
      </trkpt>
      <trkpt lat="43.5876" lon="3.74768">
        <ele>99.4</ele>
        <time>2021-01-23T13:48:23Z</time>
      </trkpt>
      <trkpt lat="43.58763" lon="3.74767">
        <ele>99.5</ele>
        <time>2021-01-23T13:48:24Z</time>
      </trkpt>
      <trkpt lat="43.58765" lon="3.74765">
        <ele>99.5</ele>
        <time>2021-01-23T13:48:25Z</time>
      </trkpt>
      <trkpt lat="43.58767" lon="3.74764">
        <ele>99.6</ele>
        <time>2021-01-23T13:48:26Z</time>
      </trkpt>
      <trkpt lat="43.5877" lon="3.74763">
        <ele>99.7</ele>
        <time>2021-01-23T13:48:27Z</time>
      </trkpt>
      <trkpt lat="43.58774" lon="3.74761">
        <ele>99.9</ele>
        <time>2021-01-23T13:48:28Z</time>
      </trkpt>
      <trkpt lat="43.58777" lon="3.74759">
        <ele>100</ele>
        <time>2021-01-23T13:48:29Z</time>
      </trkpt>
      <trkpt lat="43.58781" lon="3.74759">
        <ele>100</ele>
        <time>2021-01-23T13:48:30Z</time>
      </trkpt>
      <trkpt lat="43.58785" lon="3.74759">
        <ele>99.9</ele>
        <time>2021-01-23T13:48:31Z</time>
      </trkpt>
      <trkpt lat="43.58789" lon="3.74758">
        <ele>99.9</ele>
        <time>2021-01-23T13:48:32Z</time>
      </trkpt>
      <trkpt lat="43.58793" lon="3.74756">
        <ele>100</ele>
        <time>2021-01-23T13:48:33Z</time>
      </trkpt>
      <trkpt lat="43.58797" lon="3.74753">
        <ele>99.9</ele>
        <time>2021-01-23T13:48:34Z</time>
      </trkpt>
      <trkpt lat="43.58799" lon="3.74748">
        <ele>100.1</ele>
        <time>2021-01-23T13:48:35Z</time>
      </trkpt>
      <trkpt lat="43.588" lon="3.74744">
        <ele>100.3</ele>
        <time>2021-01-23T13:48:36Z</time>
      </trkpt>
      <trkpt lat="43.58802" lon="3.74741">
        <ele>100.4</ele>
        <time>2021-01-23T13:48:37Z</time>
      </trkpt>
      <trkpt lat="43.58806" lon="3.7474">
        <ele>100.3</ele>
        <time>2021-01-23T13:48:38Z</time>
      </trkpt>
      <trkpt lat="43.58809" lon="3.74739">
        <ele>100.3</ele>
        <time>2021-01-23T13:48:39Z</time>
      </trkpt>
      <trkpt lat="43.58812" lon="3.74737">
        <ele>100.2</ele>
        <time>2021-01-23T13:48:40Z</time>
      </trkpt>
      <trkpt lat="43.58815" lon="3.74733">
        <ele>100.3</ele>
        <time>2021-01-23T13:48:41Z</time>
      </trkpt>
      <trkpt lat="43.58819" lon="3.7473">
        <ele>101</ele>
        <time>2021-01-23T13:48:42Z</time>
      </trkpt>
      <trkpt lat="43.58823" lon="3.74729">
        <ele>100.1</ele>
        <time>2021-01-23T13:48:43Z</time>
      </trkpt>
      <trkpt lat="43.58827" lon="3.74728">
        <ele>100</ele>
        <time>2021-01-23T13:48:44Z</time>
      </trkpt>
      <trkpt lat="43.58831" lon="3.74728">
        <ele>99.9</ele>
        <time>2021-01-23T13:48:45Z</time>
      </trkpt>
      <trkpt lat="43.58835" lon="3.74729">
        <ele>99.8</ele>
        <time>2021-01-23T13:48:46Z</time>
      </trkpt>
      <trkpt lat="43.58839" lon="3.74729">
        <ele>99.8</ele>
        <time>2021-01-23T13:48:47Z</time>
      </trkpt>
      <trkpt lat="43.58844" lon="3.74728">
        <ele>99.9</ele>
        <time>2021-01-23T13:48:48Z</time>
      </trkpt>
      <trkpt lat="43.58848" lon="3.74728">
        <ele>99.9</ele>
        <time>2021-01-23T13:48:49Z</time>
      </trkpt>
      <trkpt lat="43.58853" lon="3.74727">
        <ele>99.9</ele>
        <time>2021-01-23T13:48:50Z</time>
      </trkpt>
      <trkpt lat="43.58857" lon="3.74727">
        <ele>100</ele>
        <time>2021-01-23T13:48:51Z</time>
      </trkpt>
      <trkpt lat="43.58861" lon="3.74728">
        <ele>100</ele>
        <time>2021-01-23T13:48:52Z</time>
      </trkpt>
      <trkpt lat="43.58865" lon="3.74727">
        <ele>101</ele>
        <time>2021-01-23T13:48:53Z</time>
      </trkpt>
      <trkpt lat="43.58868" lon="3.74725">
        <ele>100</ele>
        <time>2021-01-23T13:48:54Z</time>
      </trkpt>
      <trkpt lat="43.58872" lon="3.74723">
        <ele>100</ele>
        <time>2021-01-23T13:48:55Z</time>
      </trkpt>
      <trkpt lat="43.58876" lon="3.74723">
        <ele>100</ele>
        <time>2021-01-23T13:48:56Z</time>
      </trkpt>
      <trkpt lat="43.5888" lon="3.74723">
        <ele>100</ele>
        <time>2021-01-23T13:48:57Z</time>
      </trkpt>
      <trkpt lat="43.58883" lon="3.74723">
        <ele>100</ele>
        <time>2021-01-23T13:48:58Z</time>
      </trkpt>
      <trkpt lat="43.58885" lon="3.74724">
        <ele>99.9</ele>
        <time>2021-01-23T13:48:59Z</time>
      </trkpt>
      <trkpt lat="43.58888" lon="3.74725">
        <ele>99.9</ele>
        <time>2021-01-23T13:49:00Z</time>
      </trkpt>
      <trkpt lat="43.58891" lon="3.74728">
        <ele>99.9</ele>
        <time>2021-01-23T13:49:01Z</time>
      </trkpt>
      <trkpt lat="43.58894" lon="3.74731">
        <ele>101</ele>
        <time>2021-01-23T13:49:02Z</time>
      </trkpt>
      <trkpt lat="43.58897" lon="3.74734">
        <ele>100</ele>
        <time>2021-01-23T13:49:03Z</time>
      </trkpt>
      <trkpt lat="43.589" lon="3.74736">
        <ele>100.1</ele>
        <time>2021-01-23T13:49:04Z</time>
      </trkpt>
      <trkpt lat="43.58901" lon="3.74737">
        <ele>102</ele>
        <time>2021-01-23T13:49:08Z</time>
      </trkpt>
      <trkpt lat="43.589" lon="3.74733">
        <ele>102</ele>
        <time>2021-01-23T13:49:26Z</time>
      </trkpt>
      <trkpt lat="43.58899" lon="3.7473">
        <ele>100.3</ele>
        <time>2021-01-23T13:49:29Z</time>
      </trkpt>
      <trkpt lat="43.58902" lon="3.7472">
        <ele>102</ele>
        <time>2021-01-23T13:49:38Z</time>
      </trkpt>
      <trkpt lat="43.58905" lon="3.74718">
        <ele>101.3</ele>
        <time>2021-01-23T13:49:39Z</time>
      </trkpt>
      <trkpt lat="43.58907" lon="3.74717">
        <ele>101.4</ele>
        <time>2021-01-23T13:49:40Z</time>
      </trkpt>
      <trkpt lat="43.5891" lon="3.74716">
        <ele>101.6</ele>
        <time>2021-01-23T13:49:41Z</time>
      </trkpt>
      <trkpt lat="43.58913" lon="3.74715">
        <ele>101.8</ele>
        <time>2021-01-23T13:49:42Z</time>
      </trkpt>
      <trkpt lat="43.58917" lon="3.74715">
        <ele>102</ele>
        <time>2021-01-23T13:49:43Z</time>
      </trkpt>
      <trkpt lat="43.5892" lon="3.74715">
        <ele>102</ele>
        <time>2021-01-23T13:49:44Z</time>
      </trkpt>
      <trkpt lat="43.58923" lon="3.74715">
        <ele>102.1</ele>
        <time>2021-01-23T13:49:45Z</time>
      </trkpt>
      <trkpt lat="43.58926" lon="3.74715">
        <ele>102.1</ele>
        <time>2021-01-23T13:49:46Z</time>
      </trkpt>
      <trkpt lat="43.5893" lon="3.74715">
        <ele>103</ele>
        <time>2021-01-23T13:49:47Z</time>
      </trkpt>
      <trkpt lat="43.58933" lon="3.74715">
        <ele>102.2</ele>
        <time>2021-01-23T13:49:48Z</time>
      </trkpt>
      <trkpt lat="43.58936" lon="3.74715">
        <ele>102.2</ele>
        <time>2021-01-23T13:49:49Z</time>
      </trkpt>
      <trkpt lat="43.5894" lon="3.74715">
        <ele>102.2</ele>
        <time>2021-01-23T13:49:50Z</time>
      </trkpt>
      <trkpt lat="43.58943" lon="3.74714">
        <ele>102.3</ele>
        <time>2021-01-23T13:49:51Z</time>
      </trkpt>
      <trkpt lat="43.58946" lon="3.74714">
        <ele>102.4</ele>
        <time>2021-01-23T13:49:52Z</time>
      </trkpt>
      <trkpt lat="43.5895" lon="3.74714">
        <ele>102.5</ele>
        <time>2021-01-23T13:49:53Z</time>
      </trkpt>
      <trkpt lat="43.58953" lon="3.74714">
        <ele>102.6</ele>
        <time>2021-01-23T13:49:54Z</time>
      </trkpt>
      <trkpt lat="43.58956" lon="3.74714">
        <ele>102.7</ele>
        <time>2021-01-23T13:49:55Z</time>
      </trkpt>
      <trkpt lat="43.5896" lon="3.74715">
        <ele>102.8</ele>
        <time>2021-01-23T13:49:56Z</time>
      </trkpt>
      <trkpt lat="43.58963" lon="3.74715">
        <ele>102.9</ele>
        <time>2021-01-23T13:49:57Z</time>
      </trkpt>
      <trkpt lat="43.58967" lon="3.74715">
        <ele>104</ele>
        <time>2021-01-23T13:49:58Z</time>
      </trkpt>
      <trkpt lat="43.58971" lon="3.74715">
        <ele>103.2</ele>
        <time>2021-01-23T13:49:59Z</time>
      </trkpt>
      <trkpt lat="43.58978" lon="3.74714">
        <ele>103.3</ele>
        <time>2021-01-23T13:50:00Z</time>
      </trkpt>
      <trkpt lat="43.58985" lon="3.74714">
        <ele>103.3</ele>
        <time>2021-01-23T13:50:02Z</time>
      </trkpt>
      <trkpt lat="43.58989" lon="3.74715">
        <ele>103.3</ele>
        <time>2021-01-23T13:50:03Z</time>
      </trkpt>
      <trkpt lat="43.58993" lon="3.74716">
        <ele>103.2</ele>
        <time>2021-01-23T13:50:04Z</time>
      </trkpt>
      <trkpt lat="43.58997" lon="3.74717">
        <ele>103.2</ele>
        <time>2021-01-23T13:50:05Z</time>
      </trkpt>
      <trkpt lat="43.59001" lon="3.74718">
        <ele>103.1</ele>
        <time>2021-01-23T13:50:06Z</time>
      </trkpt>
      <trkpt lat="43.59005" lon="3.74721">
        <ele>102.9</ele>
        <time>2021-01-23T13:50:08Z</time>
      </trkpt>
      <trkpt lat="43.59009" lon="3.74724">
        <ele>102.6</ele>
        <time>2021-01-23T13:50:09Z</time>
      </trkpt>
      <trkpt lat="43.59013" lon="3.74727">
        <ele>102.4</ele>
        <time>2021-01-23T13:50:10Z</time>
      </trkpt>
      <trkpt lat="43.59017" lon="3.7473">
        <ele>102.1</ele>
        <time>2021-01-23T13:50:11Z</time>
      </trkpt>
      <trkpt lat="43.59022" lon="3.74732">
        <ele>101.9</ele>
        <time>2021-01-23T13:50:12Z</time>
      </trkpt>
      <trkpt lat="43.59027" lon="3.74734">
        <ele>101.6</ele>
        <time>2021-01-23T13:50:13Z</time>
      </trkpt>
      <trkpt lat="43.59032" lon="3.74736">
        <ele>101.1</ele>
        <time>2021-01-23T13:50:14Z</time>
      </trkpt>
      <trkpt lat="43.59038" lon="3.74737">
        <ele>100.5</ele>
        <time>2021-01-23T13:50:15Z</time>
      </trkpt>
      <trkpt lat="43.59044" lon="3.74739">
        <ele>99.9</ele>
        <time>2021-01-23T13:50:16Z</time>
      </trkpt>
      <trkpt lat="43.5905" lon="3.74739">
        <ele>103</ele>
        <time>2021-01-23T13:50:17Z</time>
      </trkpt>
      <trkpt lat="43.59055" lon="3.74739">
        <ele>98.8</ele>
        <time>2021-01-23T13:50:18Z</time>
      </trkpt>
      <trkpt lat="43.59059" lon="3.74738">
        <ele>98.4</ele>
        <time>2021-01-23T13:50:19Z</time>
      </trkpt>
      <trkpt lat="43.59062" lon="3.74736">
        <ele>98.1</ele>
        <time>2021-01-23T13:50:20Z</time>
      </trkpt>
      <trkpt lat="43.59065" lon="3.74731">
        <ele>97.9</ele>
        <time>2021-01-23T13:50:21Z</time>
      </trkpt>
      <trkpt lat="43.59068" lon="3.74725">
        <ele>97.6</ele>
        <time>2021-01-23T13:50:22Z</time>
      </trkpt>
      <trkpt lat="43.5907" lon="3.74719">
        <ele>97.6</ele>
        <time>2021-01-23T13:50:23Z</time>
      </trkpt>
      <trkpt lat="43.59071" lon="3.74714">
        <ele>97.8</ele>
        <time>2021-01-23T13:50:24Z</time>
      </trkpt>
      <trkpt lat="43.59073" lon="3.74709">
        <ele>97.8</ele>
        <time>2021-01-23T13:50:25Z</time>
      </trkpt>
      <trkpt lat="43.59074" lon="3.74705">
        <ele>97.9</ele>
        <time>2021-01-23T13:50:26Z</time>
      </trkpt>
      <trkpt lat="43.59075" lon="3.74702">
        <ele>102</ele>
        <time>2021-01-23T13:50:27Z</time>
      </trkpt>
      <trkpt lat="43.59077" lon="3.74699">
        <ele>97.8</ele>
        <time>2021-01-23T13:50:28Z</time>
      </trkpt>
      <trkpt lat="43.59079" lon="3.74697">
        <ele>97.6</ele>
        <time>2021-01-23T13:50:29Z</time>
      </trkpt>
      <trkpt lat="43.59083" lon="3.74696">
        <ele>96.9</ele>
        <time>2021-01-23T13:50:30Z</time>
      </trkpt>
      <trkpt lat="43.59088" lon="3.74695">
        <ele>96.3</ele>
        <time>2021-01-23T13:50:31Z</time>
      </trkpt>
      <trkpt lat="43.59093" lon="3.74694">
        <ele>95.7</ele>
        <time>2021-01-23T13:50:32Z</time>
      </trkpt>
      <trkpt lat="43.59099" lon="3.74693">
        <ele>95</ele>
        <time>2021-01-23T13:50:33Z</time>
      </trkpt>
      <trkpt lat="43.59105" lon="3.74692">
        <ele>94.3</ele>
        <time>2021-01-23T13:50:34Z</time>
      </trkpt>
      <trkpt lat="43.59111" lon="3.7469">
        <ele>93.7</ele>
        <time>2021-01-23T13:50:35Z</time>
      </trkpt>
      <trkpt lat="43.59117" lon="3.74688">
        <ele>92.8</ele>
        <time>2021-01-23T13:50:36Z</time>
      </trkpt>
      <trkpt lat="43.59125" lon="3.74685">
        <ele>98</ele>
        <time>2021-01-23T13:50:37Z</time>
      </trkpt>
      <trkpt lat="43.59132" lon="3.74682">
        <ele>90.7</ele>
        <time>2021-01-23T13:50:38Z</time>
      </trkpt>
      <trkpt lat="43.5914" lon="3.74678">
        <ele>89.7</ele>
        <time>2021-01-23T13:50:39Z</time>
      </trkpt>
      <trkpt lat="43.59147" lon="3.74673">
        <ele>89.3</ele>
        <time>2021-01-23T13:50:40Z</time>
      </trkpt>
      <trkpt lat="43.59153" lon="3.74666">
        <ele>89.1</ele>
        <time>2021-01-23T13:50:41Z</time>
      </trkpt>
      <trkpt lat="43.59159" lon="3.7466">
        <ele>89</ele>
        <time>2021-01-23T13:50:42Z</time>
      </trkpt>
      <trkpt lat="43.59164" lon="3.74653">
        <ele>89</ele>
        <time>2021-01-23T13:50:43Z</time>
      </trkpt>
      <trkpt lat="43.59169" lon="3.74646">
        <ele>89</ele>
        <time>2021-01-23T13:50:44Z</time>
      </trkpt>
      <trkpt lat="43.59174" lon="3.7464">
        <ele>89.1</ele>
        <time>2021-01-23T13:50:45Z</time>
      </trkpt>
      <trkpt lat="43.59178" lon="3.74633">
        <ele>89.2</ele>
        <time>2021-01-23T13:50:46Z</time>
      </trkpt>
      <trkpt lat="43.59181" lon="3.74629">
        <ele>94</ele>
        <time>2021-01-23T13:50:47Z</time>
      </trkpt>
      <trkpt lat="43.59185" lon="3.74626">
        <ele>88.8</ele>
        <time>2021-01-23T13:50:48Z</time>
      </trkpt>
      <trkpt lat="43.59189" lon="3.74626">
        <ele>88.2</ele>
        <time>2021-01-23T13:50:49Z</time>
      </trkpt>
      <trkpt lat="43.59192" lon="3.74629">
        <ele>87.7</ele>
        <time>2021-01-23T13:50:50Z</time>
      </trkpt>
      <trkpt lat="43.59194" lon="3.74634">
        <ele>87.2</ele>
        <time>2021-01-23T13:50:51Z</time>
      </trkpt>
      <trkpt lat="43.59196" lon="3.7464">
        <ele>87.2</ele>
        <time>2021-01-23T13:50:52Z</time>
      </trkpt>
      <trkpt lat="43.59198" lon="3.74646">
        <ele>87.4</ele>
        <time>2021-01-23T13:50:53Z</time>
      </trkpt>
      <trkpt lat="43.592" lon="3.74653">
        <ele>87.7</ele>
        <time>2021-01-23T13:50:54Z</time>
      </trkpt>
      <trkpt lat="43.59202" lon="3.74659">
        <ele>88</ele>
        <time>2021-01-23T13:50:55Z</time>
      </trkpt>
      <trkpt lat="43.59204" lon="3.74666">
        <ele>88.4</ele>
        <time>2021-01-23T13:50:56Z</time>
      </trkpt>
      <trkpt lat="43.59206" lon="3.74673">
        <ele>93</ele>
        <time>2021-01-23T13:50:57Z</time>
      </trkpt>
      <trkpt lat="43.59207" lon="3.7468">
        <ele>88.8</ele>
        <time>2021-01-23T13:50:58Z</time>
      </trkpt>
      <trkpt lat="43.59209" lon="3.74686">
        <ele>89.1</ele>
        <time>2021-01-23T13:50:59Z</time>
      </trkpt>
      <trkpt lat="43.59211" lon="3.74692">
        <ele>89.4</ele>
        <time>2021-01-23T13:51:00Z</time>
      </trkpt>
      <trkpt lat="43.59213" lon="3.74698">
        <ele>89.6</ele>
        <time>2021-01-23T13:51:01Z</time>
      </trkpt>
      <trkpt lat="43.59214" lon="3.74704">
        <ele>89.6</ele>
        <time>2021-01-23T13:51:02Z</time>
      </trkpt>
      <trkpt lat="43.59215" lon="3.7471">
        <ele>89.5</ele>
        <time>2021-01-23T13:51:03Z</time>
      </trkpt>
      <trkpt lat="43.59216" lon="3.74716">
        <ele>89.5</ele>
        <time>2021-01-23T13:51:04Z</time>
      </trkpt>
      <trkpt lat="43.59217" lon="3.74723">
        <ele>89.4</ele>
        <time>2021-01-23T13:51:05Z</time>
      </trkpt>
      <trkpt lat="43.59218" lon="3.74729">
        <ele>89.4</ele>
        <time>2021-01-23T13:51:06Z</time>
      </trkpt>
      <trkpt lat="43.59218" lon="3.74736">
        <ele>94</ele>
        <time>2021-01-23T13:51:07Z</time>
      </trkpt>
      <trkpt lat="43.59217" lon="3.74742">
        <ele>89</ele>
        <time>2021-01-23T13:51:08Z</time>
      </trkpt>
      <trkpt lat="43.59217" lon="3.74748">
        <ele>88.9</ele>
        <time>2021-01-23T13:51:09Z</time>
      </trkpt>
      <trkpt lat="43.59215" lon="3.74752">
        <ele>88.9</ele>
        <time>2021-01-23T13:51:10Z</time>
      </trkpt>
      <trkpt lat="43.59213" lon="3.74756">
        <ele>89.2</ele>
        <time>2021-01-23T13:51:11Z</time>
      </trkpt>
      <trkpt lat="43.59211" lon="3.74761">
        <ele>89.5</ele>
        <time>2021-01-23T13:51:12Z</time>
      </trkpt>
      <trkpt lat="43.59209" lon="3.74765">
        <ele>89.9</ele>
        <time>2021-01-23T13:51:13Z</time>
      </trkpt>
      <trkpt lat="43.59206" lon="3.74769">
        <ele>90.2</ele>
        <time>2021-01-23T13:51:14Z</time>
      </trkpt>
      <trkpt lat="43.59204" lon="3.74772">
        <ele>90.4</ele>
        <time>2021-01-23T13:51:15Z</time>
      </trkpt>
      <trkpt lat="43.59202" lon="3.74776">
        <ele>90.8</ele>
        <time>2021-01-23T13:51:16Z</time>
      </trkpt>
      <trkpt lat="43.59199" lon="3.74779">
        <ele>95</ele>
        <time>2021-01-23T13:51:17Z</time>
      </trkpt>
      <trkpt lat="43.59197" lon="3.74783">
        <ele>91.4</ele>
        <time>2021-01-23T13:51:18Z</time>
      </trkpt>
      <trkpt lat="43.59195" lon="3.74786">
        <ele>91.6</ele>
        <time>2021-01-23T13:51:19Z</time>
      </trkpt>
      <trkpt lat="43.59194" lon="3.7479">
        <ele>91.8</ele>
        <time>2021-01-23T13:51:20Z</time>
      </trkpt>
      <trkpt lat="43.59192" lon="3.74794">
        <ele>91.7</ele>
        <time>2021-01-23T13:51:21Z</time>
      </trkpt>
      <trkpt lat="43.59191" lon="3.74799">
        <ele>91.9</ele>
        <time>2021-01-23T13:51:22Z</time>
      </trkpt>
      <trkpt lat="43.5919" lon="3.74803">
        <ele>92</ele>
        <time>2021-01-23T13:51:23Z</time>
      </trkpt>
      <trkpt lat="43.5919" lon="3.74808">
        <ele>92.3</ele>
        <time>2021-01-23T13:51:24Z</time>
      </trkpt>
      <trkpt lat="43.59189" lon="3.74812">
        <ele>92.3</ele>
        <time>2021-01-23T13:51:25Z</time>
      </trkpt>
      <trkpt lat="43.59188" lon="3.74817">
        <ele>92.3</ele>
        <time>2021-01-23T13:51:26Z</time>
      </trkpt>
      <trkpt lat="43.59188" lon="3.74822">
        <ele>96</ele>
        <time>2021-01-23T13:51:27Z</time>
      </trkpt>
      <trkpt lat="43.59187" lon="3.74826">
        <ele>92.6</ele>
        <time>2021-01-23T13:51:28Z</time>
      </trkpt>
      <trkpt lat="43.59187" lon="3.74831">
        <ele>92.8</ele>
        <time>2021-01-23T13:51:29Z</time>
      </trkpt>
      <trkpt lat="43.59187" lon="3.74835">
        <ele>93</ele>
        <time>2021-01-23T13:51:30Z</time>
      </trkpt>
      <trkpt lat="43.59186" lon="3.7484">
        <ele>93.2</ele>
        <time>2021-01-23T13:51:31Z</time>
      </trkpt>
      <trkpt lat="43.59186" lon="3.74845">
        <ele>93.5</ele>
        <time>2021-01-23T13:51:32Z</time>
      </trkpt>
      <trkpt lat="43.59186" lon="3.74849">
        <ele>93.7</ele>
        <time>2021-01-23T13:51:33Z</time>
      </trkpt>
      <trkpt lat="43.59186" lon="3.74853">
        <ele>93.9</ele>
        <time>2021-01-23T13:51:34Z</time>
      </trkpt>
      <trkpt lat="43.59186" lon="3.74857">
        <ele>94.2</ele>
        <time>2021-01-23T13:51:35Z</time>
      </trkpt>
      <trkpt lat="43.59187" lon="3.74861">
        <ele>94.5</ele>
        <time>2021-01-23T13:51:36Z</time>
      </trkpt>
      <trkpt lat="43.59188" lon="3.74866">
        <ele>97</ele>
        <time>2021-01-23T13:51:37Z</time>
      </trkpt>
      <trkpt lat="43.59188" lon="3.7487">
        <ele>94.9</ele>
        <time>2021-01-23T13:51:38Z</time>
      </trkpt>
      <trkpt lat="43.5919" lon="3.74874">
        <ele>95.2</ele>
        <time>2021-01-23T13:51:39Z</time>
      </trkpt>
      <trkpt lat="43.59191" lon="3.74877">
        <ele>95.4</ele>
        <time>2021-01-23T13:51:40Z</time>
      </trkpt>
      <trkpt lat="43.59192" lon="3.74881">
        <ele>95.6</ele>
        <time>2021-01-23T13:51:41Z</time>
      </trkpt>
      <trkpt lat="43.59193" lon="3.74885">
        <ele>95.8</ele>
        <time>2021-01-23T13:51:42Z</time>
      </trkpt>
      <trkpt lat="43.59194" lon="3.74889">
        <ele>96</ele>
        <time>2021-01-23T13:51:43Z</time>
      </trkpt>
      <trkpt lat="43.59195" lon="3.74893">
        <ele>96.3</ele>
        <time>2021-01-23T13:51:44Z</time>
      </trkpt>
      <trkpt lat="43.59196" lon="3.74896">
        <ele>96.6</ele>
        <time>2021-01-23T13:51:45Z</time>
      </trkpt>
      <trkpt lat="43.59198" lon="3.74904">
        <ele>97.2</ele>
        <time>2021-01-23T13:51:46Z</time>
      </trkpt>
      <trkpt lat="43.59198" lon="3.74908">
        <ele>97.5</ele>
        <time>2021-01-23T13:51:48Z</time>
      </trkpt>
      <trkpt lat="43.59198" lon="3.74912">
        <ele>97.8</ele>
        <time>2021-01-23T13:51:49Z</time>
      </trkpt>
      <trkpt lat="43.59198" lon="3.74916">
        <ele>98.1</ele>
        <time>2021-01-23T13:51:50Z</time>
      </trkpt>
      <trkpt lat="43.59198" lon="3.7492">
        <ele>98.1</ele>
        <time>2021-01-23T13:51:51Z</time>
      </trkpt>
      <trkpt lat="43.59198" lon="3.74924">
        <ele>98.1</ele>
        <time>2021-01-23T13:51:52Z</time>
      </trkpt>
      <trkpt lat="43.59198" lon="3.74928">
        <ele>98.1</ele>
        <time>2021-01-23T13:51:53Z</time>
      </trkpt>
      <trkpt lat="43.59198" lon="3.74933">
        <ele>98.1</ele>
        <time>2021-01-23T13:51:54Z</time>
      </trkpt>
      <trkpt lat="43.59197" lon="3.74937">
        <ele>98.1</ele>
        <time>2021-01-23T13:51:55Z</time>
      </trkpt>
      <trkpt lat="43.59197" lon="3.74942">
        <ele>98.1</ele>
        <time>2021-01-23T13:51:56Z</time>
      </trkpt>
      <trkpt lat="43.59197" lon="3.74947">
        <ele>100</ele>
        <time>2021-01-23T13:51:57Z</time>
      </trkpt>
      <trkpt lat="43.59196" lon="3.74952">
        <ele>98.1</ele>
        <time>2021-01-23T13:51:58Z</time>
      </trkpt>
      <trkpt lat="43.59196" lon="3.74958">
        <ele>98.1</ele>
        <time>2021-01-23T13:51:59Z</time>
      </trkpt>
      <trkpt lat="43.59196" lon="3.74963">
        <ele>98.1</ele>
        <time>2021-01-23T13:52:00Z</time>
      </trkpt>
      <trkpt lat="43.59196" lon="3.74968">
        <ele>98.1</ele>
        <time>2021-01-23T13:52:01Z</time>
      </trkpt>
      <trkpt lat="43.59196" lon="3.74974">
        <ele>98</ele>
        <time>2021-01-23T13:52:02Z</time>
      </trkpt>
      <trkpt lat="43.59196" lon="3.74979">
        <ele>97.8</ele>
        <time>2021-01-23T13:52:03Z</time>
      </trkpt>
      <trkpt lat="43.59197" lon="3.74984">
        <ele>97.7</ele>
        <time>2021-01-23T13:52:04Z</time>
      </trkpt>
      <trkpt lat="43.59197" lon="3.74989">
        <ele>97.5</ele>
        <time>2021-01-23T13:52:05Z</time>
      </trkpt>
      <trkpt lat="43.59198" lon="3.74994">
        <ele>97.3</ele>
        <time>2021-01-23T13:52:06Z</time>
      </trkpt>
      <trkpt lat="43.59199" lon="3.74998">
        <ele>100</ele>
        <time>2021-01-23T13:52:07Z</time>
      </trkpt>
      <trkpt lat="43.592" lon="3.75003">
        <ele>97.1</ele>
        <time>2021-01-23T13:52:08Z</time>
      </trkpt>
      <trkpt lat="43.592" lon="3.75009">
        <ele>96.9</ele>
        <time>2021-01-23T13:52:09Z</time>
      </trkpt>
      <trkpt lat="43.59201" lon="3.75014">
        <ele>96.7</ele>
        <time>2021-01-23T13:52:10Z</time>
      </trkpt>
      <trkpt lat="43.59202" lon="3.75019">
        <ele>96.6</ele>
        <time>2021-01-23T13:52:11Z</time>
      </trkpt>
      <trkpt lat="43.59203" lon="3.75025">
        <ele>96.4</ele>
        <time>2021-01-23T13:52:12Z</time>
      </trkpt>
      <trkpt lat="43.59204" lon="3.75031">
        <ele>96.2</ele>
        <time>2021-01-23T13:52:13Z</time>
      </trkpt>
      <trkpt lat="43.59206" lon="3.75038">
        <ele>95.8</ele>
        <time>2021-01-23T13:52:14Z</time>
      </trkpt>
      <trkpt lat="43.59207" lon="3.75045">
        <ele>95.5</ele>
        <time>2021-01-23T13:52:15Z</time>
      </trkpt>
      <trkpt lat="43.59209" lon="3.75053">
        <ele>95.2</ele>
        <time>2021-01-23T13:52:16Z</time>
      </trkpt>
      <trkpt lat="43.5921" lon="3.7506">
        <ele>98</ele>
        <time>2021-01-23T13:52:17Z</time>
      </trkpt>
      <trkpt lat="43.59211" lon="3.75067">
        <ele>94.6</ele>
        <time>2021-01-23T13:52:18Z</time>
      </trkpt>
      <trkpt lat="43.59212" lon="3.75074">
        <ele>94.4</ele>
        <time>2021-01-23T13:52:19Z</time>
      </trkpt>
      <trkpt lat="43.59212" lon="3.7508">
        <ele>94.1</ele>
        <time>2021-01-23T13:52:20Z</time>
      </trkpt>
      <trkpt lat="43.59212" lon="3.75085">
        <ele>94</ele>
        <time>2021-01-23T13:52:21Z</time>
      </trkpt>
      <trkpt lat="43.59211" lon="3.75089">
        <ele>94</ele>
        <time>2021-01-23T13:52:22Z</time>
      </trkpt>
      <trkpt lat="43.5921" lon="3.75093">
        <ele>94.1</ele>
        <time>2021-01-23T13:52:23Z</time>
      </trkpt>
      <trkpt lat="43.59207" lon="3.75096">
        <ele>94.1</ele>
        <time>2021-01-23T13:52:24Z</time>
      </trkpt>
      <trkpt lat="43.59204" lon="3.75098">
        <ele>94.1</ele>
        <time>2021-01-23T13:52:25Z</time>
      </trkpt>
      <trkpt lat="43.59201" lon="3.751">
        <ele>94.1</ele>
        <time>2021-01-23T13:52:26Z</time>
      </trkpt>
      <trkpt lat="43.59198" lon="3.75102">
        <ele>98</ele>
        <time>2021-01-23T13:52:27Z</time>
      </trkpt>
      <trkpt lat="43.59194" lon="3.75104">
        <ele>94.2</ele>
        <time>2021-01-23T13:52:28Z</time>
      </trkpt>
      <trkpt lat="43.5919" lon="3.75106">
        <ele>94.3</ele>
        <time>2021-01-23T13:52:29Z</time>
      </trkpt>
      <trkpt lat="43.59186" lon="3.75108">
        <ele>94.4</ele>
        <time>2021-01-23T13:52:30Z</time>
      </trkpt>
      <trkpt lat="43.59182" lon="3.7511">
        <ele>94.4</ele>
        <time>2021-01-23T13:52:31Z</time>
      </trkpt>
      <trkpt lat="43.59178" lon="3.75112">
        <ele>94.5</ele>
        <time>2021-01-23T13:52:32Z</time>
      </trkpt>
      <trkpt lat="43.59174" lon="3.75114">
        <ele>94.4</ele>
        <time>2021-01-23T13:52:33Z</time>
      </trkpt>
      <trkpt lat="43.5917" lon="3.75116">
        <ele>94.5</ele>
        <time>2021-01-23T13:52:34Z</time>
      </trkpt>
      <trkpt lat="43.59166" lon="3.75118">
        <ele>94.5</ele>
        <time>2021-01-23T13:52:35Z</time>
      </trkpt>
      <trkpt lat="43.59162" lon="3.7512">
        <ele>94.5</ele>
        <time>2021-01-23T13:52:36Z</time>
      </trkpt>
      <trkpt lat="43.59158" lon="3.75123">
        <ele>97</ele>
        <time>2021-01-23T13:52:37Z</time>
      </trkpt>
      <trkpt lat="43.59154" lon="3.75125">
        <ele>94.5</ele>
        <time>2021-01-23T13:52:38Z</time>
      </trkpt>
      <trkpt lat="43.5915" lon="3.75127">
        <ele>94.5</ele>
        <time>2021-01-23T13:52:39Z</time>
      </trkpt>
      <trkpt lat="43.59146" lon="3.75129">
        <ele>94.5</ele>
        <time>2021-01-23T13:52:40Z</time>
      </trkpt>
      <trkpt lat="43.59142" lon="3.75132">
        <ele>94.6</ele>
        <time>2021-01-23T13:52:41Z</time>
      </trkpt>
      <trkpt lat="43.59138" lon="3.75134">
        <ele>94.6</ele>
        <time>2021-01-23T13:52:42Z</time>
      </trkpt>
      <trkpt lat="43.59134" lon="3.75136">
        <ele>94.8</ele>
        <time>2021-01-23T13:52:43Z</time>
      </trkpt>
      <trkpt lat="43.5913" lon="3.75137">
        <ele>94.8</ele>
        <time>2021-01-23T13:52:44Z</time>
      </trkpt>
      <trkpt lat="43.59126" lon="3.75139">
        <ele>95</ele>
        <time>2021-01-23T13:52:45Z</time>
      </trkpt>
      <trkpt lat="43.59122" lon="3.75142">
        <ele>95.2</ele>
        <time>2021-01-23T13:52:46Z</time>
      </trkpt>
      <trkpt lat="43.59118" lon="3.75145">
        <ele>98</ele>
        <time>2021-01-23T13:52:47Z</time>
      </trkpt>
      <trkpt lat="43.59114" lon="3.75148">
        <ele>95.4</ele>
        <time>2021-01-23T13:52:48Z</time>
      </trkpt>
      <trkpt lat="43.5911" lon="3.75151">
        <ele>95.4</ele>
        <time>2021-01-23T13:52:49Z</time>
      </trkpt>
      <trkpt lat="43.59107" lon="3.75154">
        <ele>95.3</ele>
        <time>2021-01-23T13:52:50Z</time>
      </trkpt>
      <trkpt lat="43.59103" lon="3.75157">
        <ele>95.3</ele>
        <time>2021-01-23T13:52:51Z</time>
      </trkpt>
      <trkpt lat="43.59099" lon="3.75161">
        <ele>95.3</ele>
        <time>2021-01-23T13:52:52Z</time>
      </trkpt>
      <trkpt lat="43.59096" lon="3.75164">
        <ele>95.3</ele>
        <time>2021-01-23T13:52:53Z</time>
      </trkpt>
      <trkpt lat="43.59093" lon="3.75167">
        <ele>95.4</ele>
        <time>2021-01-23T13:52:54Z</time>
      </trkpt>
      <trkpt lat="43.59089" lon="3.75171">
        <ele>95.4</ele>
        <time>2021-01-23T13:52:55Z</time>
      </trkpt>
      <trkpt lat="43.59086" lon="3.75175">
        <ele>95.4</ele>
        <time>2021-01-23T13:52:56Z</time>
      </trkpt>
      <trkpt lat="43.59083" lon="3.75179">
        <ele>98</ele>
        <time>2021-01-23T13:52:57Z</time>
      </trkpt>
      <trkpt lat="43.59079" lon="3.75184">
        <ele>95.4</ele>
        <time>2021-01-23T13:52:58Z</time>
      </trkpt>
      <trkpt lat="43.59076" lon="3.75188">
        <ele>95.4</ele>
        <time>2021-01-23T13:52:59Z</time>
      </trkpt>
      <trkpt lat="43.59072" lon="3.75192">
        <ele>95.5</ele>
        <time>2021-01-23T13:53:00Z</time>
      </trkpt>
      <trkpt lat="43.59069" lon="3.75196">
        <ele>95.6</ele>
        <time>2021-01-23T13:53:01Z</time>
      </trkpt>
      <trkpt lat="43.59066" lon="3.752">
        <ele>95.8</ele>
        <time>2021-01-23T13:53:02Z</time>
      </trkpt>
      <trkpt lat="43.59063" lon="3.75204">
        <ele>96</ele>
        <time>2021-01-23T13:53:03Z</time>
      </trkpt>
      <trkpt lat="43.5906" lon="3.75207">
        <ele>96.1</ele>
        <time>2021-01-23T13:53:04Z</time>
      </trkpt>
      <trkpt lat="43.59057" lon="3.75211">
        <ele>96.2</ele>
        <time>2021-01-23T13:53:05Z</time>
      </trkpt>
      <trkpt lat="43.59054" lon="3.75215">
        <ele>96.4</ele>
        <time>2021-01-23T13:53:06Z</time>
      </trkpt>
      <trkpt lat="43.59051" lon="3.75219">
        <ele>96.5</ele>
        <time>2021-01-23T13:53:07Z</time>
      </trkpt>
      <trkpt lat="43.59048" lon="3.75223">
        <ele>98</ele>
        <time>2021-01-23T13:53:08Z</time>
      </trkpt>
      <trkpt lat="43.59044" lon="3.75228">
        <ele>96.4</ele>
        <time>2021-01-23T13:53:09Z</time>
      </trkpt>
      <trkpt lat="43.59041" lon="3.75233">
        <ele>96.3</ele>
        <time>2021-01-23T13:53:10Z</time>
      </trkpt>
      <trkpt lat="43.59037" lon="3.75237">
        <ele>96.2</ele>
        <time>2021-01-23T13:53:11Z</time>
      </trkpt>
      <trkpt lat="43.59034" lon="3.75242">
        <ele>96.2</ele>
        <time>2021-01-23T13:53:12Z</time>
      </trkpt>
      <trkpt lat="43.5903" lon="3.75247">
        <ele>96.1</ele>
        <time>2021-01-23T13:53:13Z</time>
      </trkpt>
      <trkpt lat="43.59027" lon="3.75252">
        <ele>96</ele>
        <time>2021-01-23T13:53:14Z</time>
      </trkpt>
      <trkpt lat="43.59023" lon="3.75256">
        <ele>96</ele>
        <time>2021-01-23T13:53:15Z</time>
      </trkpt>
      <trkpt lat="43.59016" lon="3.75266">
        <ele>96.2</ele>
        <time>2021-01-23T13:53:16Z</time>
      </trkpt>
      <trkpt lat="43.59013" lon="3.75271">
        <ele>96.2</ele>
        <time>2021-01-23T13:53:18Z</time>
      </trkpt>
      <trkpt lat="43.5901" lon="3.75276">
        <ele>96.3</ele>
        <time>2021-01-23T13:53:19Z</time>
      </trkpt>
      <trkpt lat="43.59006" lon="3.7528">
        <ele>96.2</ele>
        <time>2021-01-23T13:53:20Z</time>
      </trkpt>
      <trkpt lat="43.59002" lon="3.75285">
        <ele>96.1</ele>
        <time>2021-01-23T13:53:21Z</time>
      </trkpt>
      <trkpt lat="43.58998" lon="3.75291">
        <ele>95.9</ele>
        <time>2021-01-23T13:53:22Z</time>
      </trkpt>
      <trkpt lat="43.58994" lon="3.75296">
        <ele>95.6</ele>
        <time>2021-01-23T13:53:23Z</time>
      </trkpt>
      <trkpt lat="43.5899" lon="3.75302">
        <ele>95.3</ele>
        <time>2021-01-23T13:53:24Z</time>
      </trkpt>
      <trkpt lat="43.58986" lon="3.75308">
        <ele>94.9</ele>
        <time>2021-01-23T13:53:25Z</time>
      </trkpt>
      <trkpt lat="43.58983" lon="3.75315">
        <ele>94.6</ele>
        <time>2021-01-23T13:53:26Z</time>
      </trkpt>
      <trkpt lat="43.58979" lon="3.75321">
        <ele>97</ele>
        <time>2021-01-23T13:53:27Z</time>
      </trkpt>
      <trkpt lat="43.58975" lon="3.75327">
        <ele>93.5</ele>
        <time>2021-01-23T13:53:28Z</time>
      </trkpt>
      <trkpt lat="43.5897" lon="3.75334">
        <ele>92.8</ele>
        <time>2021-01-23T13:53:29Z</time>
      </trkpt>
      <trkpt lat="43.58965" lon="3.7534">
        <ele>92.5</ele>
        <time>2021-01-23T13:53:30Z</time>
      </trkpt>
      <trkpt lat="43.5896" lon="3.75346">
        <ele>92.1</ele>
        <time>2021-01-23T13:53:31Z</time>
      </trkpt>
      <trkpt lat="43.58955" lon="3.75352">
        <ele>91.8</ele>
        <time>2021-01-23T13:53:32Z</time>
      </trkpt>
      <trkpt lat="43.58951" lon="3.75358">
        <ele>91.5</ele>
        <time>2021-01-23T13:53:33Z</time>
      </trkpt>
      <trkpt lat="43.58947" lon="3.75362">
        <ele>91.1</ele>
        <time>2021-01-23T13:53:34Z</time>
      </trkpt>
      <trkpt lat="43.58943" lon="3.75366">
        <ele>90.7</ele>
        <time>2021-01-23T13:53:35Z</time>
      </trkpt>
      <trkpt lat="43.5894" lon="3.75371">
        <ele>90.4</ele>
        <time>2021-01-23T13:53:36Z</time>
      </trkpt>
      <trkpt lat="43.5894" lon="3.75378">
        <ele>95</ele>
        <time>2021-01-23T13:53:37Z</time>
      </trkpt>
      <trkpt lat="43.58943" lon="3.75384">
        <ele>90.1</ele>
        <time>2021-01-23T13:53:38Z</time>
      </trkpt>
      <trkpt lat="43.58947" lon="3.75389">
        <ele>90.1</ele>
        <time>2021-01-23T13:53:39Z</time>
      </trkpt>
      <trkpt lat="43.58952" lon="3.75393">
        <ele>90</ele>
        <time>2021-01-23T13:53:40Z</time>
      </trkpt>
      <trkpt lat="43.58957" lon="3.75396">
        <ele>90.1</ele>
        <time>2021-01-23T13:53:41Z</time>
      </trkpt>
      <trkpt lat="43.58963" lon="3.754">
        <ele>90.1</ele>
        <time>2021-01-23T13:53:42Z</time>
      </trkpt>
      <trkpt lat="43.58968" lon="3.75403">
        <ele>90.3</ele>
        <time>2021-01-23T13:53:43Z</time>
      </trkpt>
      <trkpt lat="43.58973" lon="3.75406">
        <ele>90.5</ele>
        <time>2021-01-23T13:53:44Z</time>
      </trkpt>
      <trkpt lat="43.58978" lon="3.75409">
        <ele>90.7</ele>
        <time>2021-01-23T13:53:45Z</time>
      </trkpt>
      <trkpt lat="43.58983" lon="3.75412">
        <ele>91</ele>
        <time>2021-01-23T13:53:46Z</time>
      </trkpt>
      <trkpt lat="43.58988" lon="3.75415">
        <ele>94</ele>
        <time>2021-01-23T13:53:47Z</time>
      </trkpt>
      <trkpt lat="43.58993" lon="3.75419">
        <ele>91.5</ele>
        <time>2021-01-23T13:53:48Z</time>
      </trkpt>
      <trkpt lat="43.58997" lon="3.75424">
        <ele>91.8</ele>
        <time>2021-01-23T13:53:49Z</time>
      </trkpt>
      <trkpt lat="43.59" lon="3.75428">
        <ele>92</ele>
        <time>2021-01-23T13:53:50Z</time>
      </trkpt>
      <trkpt lat="43.59004" lon="3.75432">
        <ele>92.4</ele>
        <time>2021-01-23T13:53:51Z</time>
      </trkpt>
      <trkpt lat="43.59007" lon="3.75437">
        <ele>92.6</ele>
        <time>2021-01-23T13:53:52Z</time>
      </trkpt>
      <trkpt lat="43.5901" lon="3.75441">
        <ele>92.8</ele>
        <time>2021-01-23T13:53:53Z</time>
      </trkpt>
      <trkpt lat="43.59013" lon="3.75446">
        <ele>92.9</ele>
        <time>2021-01-23T13:53:54Z</time>
      </trkpt>
      <trkpt lat="43.59016" lon="3.7545">
        <ele>93</ele>
        <time>2021-01-23T13:53:55Z</time>
      </trkpt>
      <trkpt lat="43.59018" lon="3.75455">
        <ele>93</ele>
        <time>2021-01-23T13:53:56Z</time>
      </trkpt>
      <trkpt lat="43.59021" lon="3.7546">
        <ele>95</ele>
        <time>2021-01-23T13:53:57Z</time>
      </trkpt>
      <trkpt lat="43.59024" lon="3.75464">
        <ele>93.1</ele>
        <time>2021-01-23T13:53:58Z</time>
      </trkpt>
      <trkpt lat="43.59026" lon="3.75469">
        <ele>93</ele>
        <time>2021-01-23T13:53:59Z</time>
      </trkpt>
      <trkpt lat="43.59029" lon="3.75474">
        <ele>93.1</ele>
        <time>2021-01-23T13:54:00Z</time>
      </trkpt>
      <trkpt lat="43.59032" lon="3.75479">
        <ele>93.4</ele>
        <time>2021-01-23T13:54:01Z</time>
      </trkpt>
      <trkpt lat="43.59034" lon="3.75483">
        <ele>93.6</ele>
        <time>2021-01-23T13:54:02Z</time>
      </trkpt>
      <trkpt lat="43.59037" lon="3.75488">
        <ele>93.8</ele>
        <time>2021-01-23T13:54:03Z</time>
      </trkpt>
      <trkpt lat="43.5904" lon="3.75492">
        <ele>94</ele>
        <time>2021-01-23T13:54:04Z</time>
      </trkpt>
      <trkpt lat="43.59043" lon="3.75497">
        <ele>94.2</ele>
        <time>2021-01-23T13:54:05Z</time>
      </trkpt>
      <trkpt lat="43.59046" lon="3.75501">
        <ele>94.3</ele>
        <time>2021-01-23T13:54:06Z</time>
      </trkpt>
      <trkpt lat="43.59049" lon="3.75506">
        <ele>95</ele>
        <time>2021-01-23T13:54:07Z</time>
      </trkpt>
      <trkpt lat="43.59052" lon="3.75511">
        <ele>94.8</ele>
        <time>2021-01-23T13:54:08Z</time>
      </trkpt>
      <trkpt lat="43.59055" lon="3.75515">
        <ele>95</ele>
        <time>2021-01-23T13:54:09Z</time>
      </trkpt>
      <trkpt lat="43.59057" lon="3.7552">
        <ele>95.1</ele>
        <time>2021-01-23T13:54:10Z</time>
      </trkpt>
      <trkpt lat="43.5906" lon="3.75525">
        <ele>95.3</ele>
        <time>2021-01-23T13:54:11Z</time>
      </trkpt>
      <trkpt lat="43.59062" lon="3.7553">
        <ele>95.5</ele>
        <time>2021-01-23T13:54:12Z</time>
      </trkpt>
      <trkpt lat="43.59064" lon="3.75534">
        <ele>95.8</ele>
        <time>2021-01-23T13:54:13Z</time>
      </trkpt>
      <trkpt lat="43.59066" lon="3.75539">
        <ele>96</ele>
        <time>2021-01-23T13:54:14Z</time>
      </trkpt>
      <trkpt lat="43.59068" lon="3.75544">
        <ele>96.2</ele>
        <time>2021-01-23T13:54:15Z</time>
      </trkpt>
      <trkpt lat="43.5907" lon="3.75548">
        <ele>96.4</ele>
        <time>2021-01-23T13:54:16Z</time>
      </trkpt>
      <trkpt lat="43.59072" lon="3.75553">
        <ele>97</ele>
        <time>2021-01-23T13:54:17Z</time>
      </trkpt>
      <trkpt lat="43.59074" lon="3.75557">
        <ele>96.7</ele>
        <time>2021-01-23T13:54:18Z</time>
      </trkpt>
      <trkpt lat="43.59076" lon="3.75561">
        <ele>96.7</ele>
        <time>2021-01-23T13:54:19Z</time>
      </trkpt>
      <trkpt lat="43.59078" lon="3.75565">
        <ele>96.8</ele>
        <time>2021-01-23T13:54:20Z</time>
      </trkpt>
      <trkpt lat="43.5908" lon="3.75569">
        <ele>96.9</ele>
        <time>2021-01-23T13:54:21Z</time>
      </trkpt>
      <trkpt lat="43.59082" lon="3.75574">
        <ele>97</ele>
        <time>2021-01-23T13:54:22Z</time>
      </trkpt>
      <trkpt lat="43.59084" lon="3.75578">
        <ele>97</ele>
        <time>2021-01-23T13:54:23Z</time>
      </trkpt>
      <trkpt lat="43.59086" lon="3.75582">
        <ele>97.1</ele>
        <time>2021-01-23T13:54:24Z</time>
      </trkpt>
      <trkpt lat="43.59088" lon="3.75586">
        <ele>97.1</ele>
        <time>2021-01-23T13:54:25Z</time>
      </trkpt>
      <trkpt lat="43.5909" lon="3.75591">
        <ele>97</ele>
        <time>2021-01-23T13:54:26Z</time>
      </trkpt>
      <trkpt lat="43.59092" lon="3.75594">
        <ele>98</ele>
        <time>2021-01-23T13:54:27Z</time>
      </trkpt>
      <trkpt lat="43.59094" lon="3.75598">
        <ele>96.9</ele>
        <time>2021-01-23T13:54:28Z</time>
      </trkpt>
      <trkpt lat="43.59096" lon="3.756">
        <ele>96.9</ele>
        <time>2021-01-23T13:54:29Z</time>
      </trkpt>
      <trkpt lat="43.59097" lon="3.75602">
        <ele>96.8</ele>
        <time>2021-01-23T13:54:30Z</time>
      </trkpt>
      <trkpt lat="43.59099" lon="3.75605">
        <ele>96.8</ele>
        <time>2021-01-23T13:54:31Z</time>
      </trkpt>
      <trkpt lat="43.591" lon="3.75607">
        <ele>96.7</ele>
        <time>2021-01-23T13:54:32Z</time>
      </trkpt>
      <trkpt lat="43.59102" lon="3.7561">
        <ele>96.7</ele>
        <time>2021-01-23T13:54:33Z</time>
      </trkpt>
      <trkpt lat="43.59104" lon="3.75614">
        <ele>96.7</ele>
        <time>2021-01-23T13:54:34Z</time>
      </trkpt>
      <trkpt lat="43.59106" lon="3.75617">
        <ele>96.6</ele>
        <time>2021-01-23T13:54:35Z</time>
      </trkpt>
      <trkpt lat="43.59108" lon="3.75621">
        <ele>96.6</ele>
        <time>2021-01-23T13:54:36Z</time>
      </trkpt>
      <trkpt lat="43.59111" lon="3.75625">
        <ele>98</ele>
        <time>2021-01-23T13:54:37Z</time>
      </trkpt>
      <trkpt lat="43.59113" lon="3.75629">
        <ele>96.4</ele>
        <time>2021-01-23T13:54:38Z</time>
      </trkpt>
      <trkpt lat="43.59116" lon="3.75633">
        <ele>96.4</ele>
        <time>2021-01-23T13:54:39Z</time>
      </trkpt>
      <trkpt lat="43.59119" lon="3.75637">
        <ele>96.4</ele>
        <time>2021-01-23T13:54:40Z</time>
      </trkpt>
      <trkpt lat="43.59121" lon="3.75641">
        <ele>96.3</ele>
        <time>2021-01-23T13:54:41Z</time>
      </trkpt>
      <trkpt lat="43.59124" lon="3.75645">
        <ele>96.2</ele>
        <time>2021-01-23T13:54:42Z</time>
      </trkpt>
      <trkpt lat="43.59127" lon="3.75649">
        <ele>96.2</ele>
        <time>2021-01-23T13:54:43Z</time>
      </trkpt>
      <trkpt lat="43.5913" lon="3.75654">
        <ele>96.1</ele>
        <time>2021-01-23T13:54:44Z</time>
      </trkpt>
      <trkpt lat="43.59132" lon="3.75658">
        <ele>96.1</ele>
        <time>2021-01-23T13:54:45Z</time>
      </trkpt>
      <trkpt lat="43.59135" lon="3.75662">
        <ele>96</ele>
        <time>2021-01-23T13:54:46Z</time>
      </trkpt>
      <trkpt lat="43.59138" lon="3.75666">
        <ele>98</ele>
        <time>2021-01-23T13:54:47Z</time>
      </trkpt>
      <trkpt lat="43.59142" lon="3.7567">
        <ele>95.9</ele>
        <time>2021-01-23T13:54:48Z</time>
      </trkpt>
      <trkpt lat="43.59145" lon="3.75675">
        <ele>95.7</ele>
        <time>2021-01-23T13:54:49Z</time>
      </trkpt>
      <trkpt lat="43.59147" lon="3.75679">
        <ele>95.6</ele>
        <time>2021-01-23T13:54:50Z</time>
      </trkpt>
      <trkpt lat="43.59149" lon="3.75685">
        <ele>95.3</ele>
        <time>2021-01-23T13:54:51Z</time>
      </trkpt>
      <trkpt lat="43.5915" lon="3.75691">
        <ele>95.1</ele>
        <time>2021-01-23T13:54:52Z</time>
      </trkpt>
      <trkpt lat="43.59149" lon="3.75698">
        <ele>94.9</ele>
        <time>2021-01-23T13:54:53Z</time>
      </trkpt>
      <trkpt lat="43.59148" lon="3.75704">
        <ele>94.7</ele>
        <time>2021-01-23T13:54:54Z</time>
      </trkpt>
      <trkpt lat="43.59146" lon="3.75709">
        <ele>94.5</ele>
        <time>2021-01-23T13:54:55Z</time>
      </trkpt>
      <trkpt lat="43.59144" lon="3.75715">
        <ele>94.3</ele>
        <time>2021-01-23T13:54:56Z</time>
      </trkpt>
      <trkpt lat="43.59143" lon="3.7572">
        <ele>97</ele>
        <time>2021-01-23T13:54:57Z</time>
      </trkpt>
      <trkpt lat="43.59141" lon="3.75726">
        <ele>93.9</ele>
        <time>2021-01-23T13:54:58Z</time>
      </trkpt>
      <trkpt lat="43.59139" lon="3.75731">
        <ele>93.7</ele>
        <time>2021-01-23T13:54:59Z</time>
      </trkpt>
      <trkpt lat="43.59137" lon="3.75737">
        <ele>93.5</ele>
        <time>2021-01-23T13:55:00Z</time>
      </trkpt>
      <trkpt lat="43.59134" lon="3.75742">
        <ele>93.4</ele>
        <time>2021-01-23T13:55:01Z</time>
      </trkpt>
      <trkpt lat="43.59132" lon="3.75748">
        <ele>93.3</ele>
        <time>2021-01-23T13:55:02Z</time>
      </trkpt>
      <trkpt lat="43.5913" lon="3.75753">
        <ele>93.2</ele>
        <time>2021-01-23T13:55:03Z</time>
      </trkpt>
      <trkpt lat="43.59128" lon="3.75759">
        <ele>93.1</ele>
        <time>2021-01-23T13:55:04Z</time>
      </trkpt>
      <trkpt lat="43.59126" lon="3.75764">
        <ele>93</ele>
        <time>2021-01-23T13:55:05Z</time>
      </trkpt>
      <trkpt lat="43.59124" lon="3.7577">
        <ele>92.8</ele>
        <time>2021-01-23T13:55:06Z</time>
      </trkpt>
      <trkpt lat="43.59122" lon="3.75775">
        <ele>96</ele>
        <time>2021-01-23T13:55:07Z</time>
      </trkpt>
      <trkpt lat="43.5912" lon="3.75781">
        <ele>92.6</ele>
        <time>2021-01-23T13:55:08Z</time>
      </trkpt>
      <trkpt lat="43.59117" lon="3.75786">
        <ele>92.7</ele>
        <time>2021-01-23T13:55:09Z</time>
      </trkpt>
      <trkpt lat="43.59114" lon="3.7579">
        <ele>92.9</ele>
        <time>2021-01-23T13:55:10Z</time>
      </trkpt>
      <trkpt lat="43.5911" lon="3.75794">
        <ele>93</ele>
        <time>2021-01-23T13:55:11Z</time>
      </trkpt>
      <trkpt lat="43.59106" lon="3.75797">
        <ele>93</ele>
        <time>2021-01-23T13:55:12Z</time>
      </trkpt>
      <trkpt lat="43.59102" lon="3.758">
        <ele>93</ele>
        <time>2021-01-23T13:55:13Z</time>
      </trkpt>
      <trkpt lat="43.59097" lon="3.75803">
        <ele>93</ele>
        <time>2021-01-23T13:55:14Z</time>
      </trkpt>
      <trkpt lat="43.59093" lon="3.75807">
        <ele>92.9</ele>
        <time>2021-01-23T13:55:15Z</time>
      </trkpt>
      <trkpt lat="43.5909" lon="3.75812">
        <ele>92.7</ele>
        <time>2021-01-23T13:55:16Z</time>
      </trkpt>
      <trkpt lat="43.59086" lon="3.75818">
        <ele>96</ele>
        <time>2021-01-23T13:55:17Z</time>
      </trkpt>
      <trkpt lat="43.59083" lon="3.75824">
        <ele>92.3</ele>
        <time>2021-01-23T13:55:18Z</time>
      </trkpt>
      <trkpt lat="43.5908" lon="3.7583">
        <ele>92.1</ele>
        <time>2021-01-23T13:55:19Z</time>
      </trkpt>
      <trkpt lat="43.59077" lon="3.75836">
        <ele>91.9</ele>
        <time>2021-01-23T13:55:20Z</time>
      </trkpt>
      <trkpt lat="43.59074" lon="3.75841">
        <ele>91.7</ele>
        <time>2021-01-23T13:55:21Z</time>
      </trkpt>
      <trkpt lat="43.59071" lon="3.75847">
        <ele>91.5</ele>
        <time>2021-01-23T13:55:22Z</time>
      </trkpt>
      <trkpt lat="43.59068" lon="3.75853">
        <ele>91.3</ele>
        <time>2021-01-23T13:55:23Z</time>
      </trkpt>
      <trkpt lat="43.59065" lon="3.7586">
        <ele>91</ele>
        <time>2021-01-23T13:55:24Z</time>
      </trkpt>
      <trkpt lat="43.59062" lon="3.75867">
        <ele>90.9</ele>
        <time>2021-01-23T13:55:25Z</time>
      </trkpt>
      <trkpt lat="43.59058" lon="3.75874">
        <ele>90.9</ele>
        <time>2021-01-23T13:55:26Z</time>
      </trkpt>
      <trkpt lat="43.59055" lon="3.75881">
        <ele>91</ele>
        <time>2021-01-23T13:55:27Z</time>
      </trkpt>
      <trkpt lat="43.59047" lon="3.75894">
        <ele>95</ele>
        <time>2021-01-23T13:55:28Z</time>
      </trkpt>
      <trkpt lat="43.59043" lon="3.75901">
        <ele>90.3</ele>
        <time>2021-01-23T13:55:30Z</time>
      </trkpt>
      <trkpt lat="43.59039" lon="3.75907">
        <ele>90.1</ele>
        <time>2021-01-23T13:55:31Z</time>
      </trkpt>
      <trkpt lat="43.59036" lon="3.75913">
        <ele>89.9</ele>
        <time>2021-01-23T13:55:32Z</time>
      </trkpt>
      <trkpt lat="43.59033" lon="3.75918">
        <ele>89.8</ele>
        <time>2021-01-23T13:55:33Z</time>
      </trkpt>
      <trkpt lat="43.59032" lon="3.75921">
        <ele>89.7</ele>
        <time>2021-01-23T13:55:34Z</time>
      </trkpt>
      <trkpt lat="43.59032" lon="3.75924">
        <ele>89.6</ele>
        <time>2021-01-23T13:55:35Z</time>
      </trkpt>
      <trkpt lat="43.59033" lon="3.75928">
        <ele>89.4</ele>
        <time>2021-01-23T13:55:36Z</time>
      </trkpt>
      <trkpt lat="43.59034" lon="3.75933">
        <ele>94</ele>
        <time>2021-01-23T13:55:37Z</time>
      </trkpt>
      <trkpt lat="43.59034" lon="3.75938">
        <ele>89</ele>
        <time>2021-01-23T13:55:38Z</time>
      </trkpt>
      <trkpt lat="43.59035" lon="3.75943">
        <ele>88.8</ele>
        <time>2021-01-23T13:55:39Z</time>
      </trkpt>
      <trkpt lat="43.59036" lon="3.75948">
        <ele>88.5</ele>
        <time>2021-01-23T13:55:40Z</time>
      </trkpt>
      <trkpt lat="43.59039" lon="3.75952">
        <ele>88.1</ele>
        <time>2021-01-23T13:55:41Z</time>
      </trkpt>
      <trkpt lat="43.59041" lon="3.75956">
        <ele>87.7</ele>
        <time>2021-01-23T13:55:42Z</time>
      </trkpt>
      <trkpt lat="43.59043" lon="3.7596">
        <ele>87.3</ele>
        <time>2021-01-23T13:55:43Z</time>
      </trkpt>
      <trkpt lat="43.59044" lon="3.75964">
        <ele>86.9</ele>
        <time>2021-01-23T13:55:44Z</time>
      </trkpt>
      <trkpt lat="43.59044" lon="3.75969">
        <ele>86.5</ele>
        <time>2021-01-23T13:55:45Z</time>
      </trkpt>
      <trkpt lat="43.59043" lon="3.75975">
        <ele>86.1</ele>
        <time>2021-01-23T13:55:46Z</time>
      </trkpt>
      <trkpt lat="43.59041" lon="3.75982">
        <ele>92</ele>
        <time>2021-01-23T13:55:47Z</time>
      </trkpt>
      <trkpt lat="43.5904" lon="3.75989">
        <ele>85.2</ele>
        <time>2021-01-23T13:55:48Z</time>
      </trkpt>
      <trkpt lat="43.59038" lon="3.75996">
        <ele>84.9</ele>
        <time>2021-01-23T13:55:49Z</time>
      </trkpt>
      <trkpt lat="43.59037" lon="3.76001">
        <ele>84.6</ele>
        <time>2021-01-23T13:55:50Z</time>
      </trkpt>
      <trkpt lat="43.59037" lon="3.76007">
        <ele>84.3</ele>
        <time>2021-01-23T13:55:51Z</time>
      </trkpt>
      <trkpt lat="43.59036" lon="3.76012">
        <ele>84.1</ele>
        <time>2021-01-23T13:55:52Z</time>
      </trkpt>
      <trkpt lat="43.59034" lon="3.76016">
        <ele>84.3</ele>
        <time>2021-01-23T13:55:53Z</time>
      </trkpt>
      <trkpt lat="43.59033" lon="3.76022">
        <ele>84.2</ele>
        <time>2021-01-23T13:55:54Z</time>
      </trkpt>
      <trkpt lat="43.59031" lon="3.76029">
        <ele>84.2</ele>
        <time>2021-01-23T13:55:55Z</time>
      </trkpt>
      <trkpt lat="43.5903" lon="3.76035">
        <ele>84</ele>
        <time>2021-01-23T13:55:56Z</time>
      </trkpt>
      <trkpt lat="43.59028" lon="3.76042">
        <ele>90</ele>
        <time>2021-01-23T13:55:57Z</time>
      </trkpt>
      <trkpt lat="43.59026" lon="3.76048">
        <ele>83.7</ele>
        <time>2021-01-23T13:55:58Z</time>
      </trkpt>
      <trkpt lat="43.59025" lon="3.76053">
        <ele>83.4</ele>
        <time>2021-01-23T13:55:59Z</time>
      </trkpt>
      <trkpt lat="43.59024" lon="3.76059">
        <ele>83.1</ele>
        <time>2021-01-23T13:56:00Z</time>
      </trkpt>
      <trkpt lat="43.59022" lon="3.76066">
        <ele>83</ele>
        <time>2021-01-23T13:56:01Z</time>
      </trkpt>
      <trkpt lat="43.59021" lon="3.76072">
        <ele>82.9</ele>
        <time>2021-01-23T13:56:02Z</time>
      </trkpt>
      <trkpt lat="43.5902" lon="3.76079">
        <ele>82.7</ele>
        <time>2021-01-23T13:56:03Z</time>
      </trkpt>
      <trkpt lat="43.59018" lon="3.76086">
        <ele>82.6</ele>
        <time>2021-01-23T13:56:04Z</time>
      </trkpt>
      <trkpt lat="43.59017" lon="3.76093">
        <ele>82.4</ele>
        <time>2021-01-23T13:56:05Z</time>
      </trkpt>
      <trkpt lat="43.59017" lon="3.76098">
        <ele>82.2</ele>
        <time>2021-01-23T13:56:06Z</time>
      </trkpt>
      <trkpt lat="43.59018" lon="3.76101">
        <ele>88</ele>
        <time>2021-01-23T13:56:07Z</time>
      </trkpt>
      <trkpt lat="43.5902" lon="3.76103">
        <ele>81.9</ele>
        <time>2021-01-23T13:56:09Z</time>
      </trkpt>
      <trkpt lat="43.59022" lon="3.76103">
        <ele>81.7</ele>
        <time>2021-01-23T13:56:10Z</time>
      </trkpt>
      <trkpt lat="43.59025" lon="3.76104">
        <ele>81.5</ele>
        <time>2021-01-23T13:56:11Z</time>
      </trkpt>
      <trkpt lat="43.59028" lon="3.76106">
        <ele>81.1</ele>
        <time>2021-01-23T13:56:12Z</time>
      </trkpt>
      <trkpt lat="43.59031" lon="3.76109">
        <ele>80.3</ele>
        <time>2021-01-23T13:56:13Z</time>
      </trkpt>
      <trkpt lat="43.59032" lon="3.76114">
        <ele>80</ele>
        <time>2021-01-23T13:56:14Z</time>
      </trkpt>
      <trkpt lat="43.59033" lon="3.76119">
        <ele>80</ele>
        <time>2021-01-23T13:56:15Z</time>
      </trkpt>
      <trkpt lat="43.59034" lon="3.76124">
        <ele>79.9</ele>
        <time>2021-01-23T13:56:16Z</time>
      </trkpt>
      <trkpt lat="43.59036" lon="3.76133">
        <ele>86</ele>
        <time>2021-01-23T13:56:17Z</time>
      </trkpt>
      <trkpt lat="43.59037" lon="3.76137">
        <ele>79.6</ele>
        <time>2021-01-23T13:56:18Z</time>
      </trkpt>
      <trkpt lat="43.59039" lon="3.76142">
        <ele>79.2</ele>
        <time>2021-01-23T13:56:20Z</time>
      </trkpt>
      <trkpt lat="43.59038" lon="3.76147">
        <ele>79.5</ele>
        <time>2021-01-23T13:56:21Z</time>
      </trkpt>
      <trkpt lat="43.59039" lon="3.76151">
        <ele>79.3</ele>
        <time>2021-01-23T13:56:22Z</time>
      </trkpt>
      <trkpt lat="43.5904" lon="3.76155">
        <ele>79.1</ele>
        <time>2021-01-23T13:56:23Z</time>
      </trkpt>
      <trkpt lat="43.5904" lon="3.7616">
        <ele>79.2</ele>
        <time>2021-01-23T13:56:24Z</time>
      </trkpt>
      <trkpt lat="43.5904" lon="3.76169">
        <ele>79.3</ele>
        <time>2021-01-23T13:56:25Z</time>
      </trkpt>
      <trkpt lat="43.5904" lon="3.76173">
        <ele>79.3</ele>
        <time>2021-01-23T13:56:26Z</time>
      </trkpt>
      <trkpt lat="43.59042" lon="3.76177">
        <ele>79.1</ele>
        <time>2021-01-23T13:56:28Z</time>
      </trkpt>
      <trkpt lat="43.59045" lon="3.76179">
        <ele>78.8</ele>
        <time>2021-01-23T13:56:29Z</time>
      </trkpt>
      <trkpt lat="43.59049" lon="3.76181">
        <ele>78.3</ele>
        <time>2021-01-23T13:56:30Z</time>
      </trkpt>
      <trkpt lat="43.59052" lon="3.76184">
        <ele>78.1</ele>
        <time>2021-01-23T13:56:31Z</time>
      </trkpt>
      <trkpt lat="43.59054" lon="3.76189">
        <ele>78</ele>
        <time>2021-01-23T13:56:32Z</time>
      </trkpt>
      <trkpt lat="43.59054" lon="3.76194">
        <ele>78.2</ele>
        <time>2021-01-23T13:56:33Z</time>
      </trkpt>
      <trkpt lat="43.59052" lon="3.762">
        <ele>78.5</ele>
        <time>2021-01-23T13:56:34Z</time>
      </trkpt>
      <trkpt lat="43.5905" lon="3.76206">
        <ele>78.8</ele>
        <time>2021-01-23T13:56:35Z</time>
      </trkpt>
      <trkpt lat="43.59048" lon="3.76209">
        <ele>79.1</ele>
        <time>2021-01-23T13:56:36Z</time>
      </trkpt>
      <trkpt lat="43.59047" lon="3.76212">
        <ele>85</ele>
        <time>2021-01-23T13:56:37Z</time>
      </trkpt>
      <trkpt lat="43.59046" lon="3.76216">
        <ele>79.3</ele>
        <time>2021-01-23T13:56:38Z</time>
      </trkpt>
      <trkpt lat="43.59045" lon="3.7622">
        <ele>79.4</ele>
        <time>2021-01-23T13:56:39Z</time>
      </trkpt>
      <trkpt lat="43.59046" lon="3.76225">
        <ele>79.4</ele>
        <time>2021-01-23T13:56:40Z</time>
      </trkpt>
      <trkpt lat="43.59047" lon="3.7623">
        <ele>79.5</ele>
        <time>2021-01-23T13:56:41Z</time>
      </trkpt>
      <trkpt lat="43.59049" lon="3.76235">
        <ele>79.6</ele>
        <time>2021-01-23T13:56:42Z</time>
      </trkpt>
      <trkpt lat="43.59051" lon="3.7624">
        <ele>79.7</ele>
        <time>2021-01-23T13:56:43Z</time>
      </trkpt>
      <trkpt lat="43.59054" lon="3.76245">
        <ele>79.8</ele>
        <time>2021-01-23T13:56:44Z</time>
      </trkpt>
      <trkpt lat="43.59057" lon="3.7625">
        <ele>79.8</ele>
        <time>2021-01-23T13:56:45Z</time>
      </trkpt>
      <trkpt lat="43.59058" lon="3.76255">
        <ele>79.6</ele>
        <time>2021-01-23T13:56:46Z</time>
      </trkpt>
      <trkpt lat="43.5906" lon="3.7626">
        <ele>83</ele>
        <time>2021-01-23T13:56:47Z</time>
      </trkpt>
      <trkpt lat="43.59062" lon="3.76263">
        <ele>79.1</ele>
        <time>2021-01-23T13:56:48Z</time>
      </trkpt>
      <trkpt lat="43.59065" lon="3.76268">
        <ele>78.8</ele>
        <time>2021-01-23T13:56:49Z</time>
      </trkpt>
      <trkpt lat="43.59068" lon="3.76273">
        <ele>78.6</ele>
        <time>2021-01-23T13:56:50Z</time>
      </trkpt>
      <trkpt lat="43.59072" lon="3.76277">
        <ele>78.4</ele>
        <time>2021-01-23T13:56:51Z</time>
      </trkpt>
      <trkpt lat="43.59076" lon="3.76281">
        <ele>78.1</ele>
        <time>2021-01-23T13:56:52Z</time>
      </trkpt>
      <trkpt lat="43.59079" lon="3.76286">
        <ele>77.8</ele>
        <time>2021-01-23T13:56:53Z</time>
      </trkpt>
      <trkpt lat="43.59082" lon="3.76292">
        <ele>77.5</ele>
        <time>2021-01-23T13:56:54Z</time>
      </trkpt>
      <trkpt lat="43.59082" lon="3.76299">
        <ele>77.2</ele>
        <time>2021-01-23T13:56:55Z</time>
      </trkpt>
      <trkpt lat="43.59083" lon="3.76304">
        <ele>77.1</ele>
        <time>2021-01-23T13:56:56Z</time>
      </trkpt>
      <trkpt lat="43.59083" lon="3.76308">
        <ele>82</ele>
        <time>2021-01-23T13:56:57Z</time>
      </trkpt>
      <trkpt lat="43.59085" lon="3.76312">
        <ele>76.4</ele>
        <time>2021-01-23T13:56:58Z</time>
      </trkpt>
      <trkpt lat="43.59087" lon="3.76317">
        <ele>75.8</ele>
        <time>2021-01-23T13:56:59Z</time>
      </trkpt>
      <trkpt lat="43.59089" lon="3.76323">
        <ele>75.3</ele>
        <time>2021-01-23T13:57:00Z</time>
      </trkpt>
      <trkpt lat="43.59092" lon="3.76328">
        <ele>74.7</ele>
        <time>2021-01-23T13:57:01Z</time>
      </trkpt>
      <trkpt lat="43.59095" lon="3.76334">
        <ele>74.1</ele>
        <time>2021-01-23T13:57:02Z</time>
      </trkpt>
      <trkpt lat="43.59096" lon="3.7634">
        <ele>74</ele>
        <time>2021-01-23T13:57:03Z</time>
      </trkpt>
      <trkpt lat="43.59097" lon="3.76345">
        <ele>73.8</ele>
        <time>2021-01-23T13:57:04Z</time>
      </trkpt>
      <trkpt lat="43.59099" lon="3.76349">
        <ele>73.6</ele>
        <time>2021-01-23T13:57:05Z</time>
      </trkpt>
      <trkpt lat="43.591" lon="3.76352">
        <ele>73.5</ele>
        <time>2021-01-23T13:57:06Z</time>
      </trkpt>
      <trkpt lat="43.59099" lon="3.76356">
        <ele>80</ele>
        <time>2021-01-23T13:57:07Z</time>
      </trkpt>
      <trkpt lat="43.59098" lon="3.76359">
        <ele>73.5</ele>
        <time>2021-01-23T13:57:08Z</time>
      </trkpt>
      <trkpt lat="43.59099" lon="3.76362">
        <ele>73.4</ele>
        <time>2021-01-23T13:57:09Z</time>
      </trkpt>
      <trkpt lat="43.591" lon="3.76364">
        <ele>73.2</ele>
        <time>2021-01-23T13:57:10Z</time>
      </trkpt>
      <trkpt lat="43.59101" lon="3.76367">
        <ele>72.9</ele>
        <time>2021-01-23T13:57:11Z</time>
      </trkpt>
      <trkpt lat="43.59102" lon="3.7637">
        <ele>72.6</ele>
        <time>2021-01-23T13:57:12Z</time>
      </trkpt>
      <trkpt lat="43.59102" lon="3.76373">
        <ele>72.3</ele>
        <time>2021-01-23T13:57:13Z</time>
      </trkpt>
      <trkpt lat="43.59102" lon="3.76378">
        <ele>71.9</ele>
        <time>2021-01-23T13:57:14Z</time>
      </trkpt>
      <trkpt lat="43.59102" lon="3.76384">
        <ele>71.4</ele>
        <time>2021-01-23T13:57:15Z</time>
      </trkpt>
      <trkpt lat="43.59103" lon="3.76391">
        <ele>70.8</ele>
        <time>2021-01-23T13:57:16Z</time>
      </trkpt>
      <trkpt lat="43.59105" lon="3.76399">
        <ele>78</ele>
        <time>2021-01-23T13:57:17Z</time>
      </trkpt>
      <trkpt lat="43.59107" lon="3.76406">
        <ele>69.8</ele>
        <time>2021-01-23T13:57:18Z</time>
      </trkpt>
      <trkpt lat="43.5911" lon="3.76414">
        <ele>69.2</ele>
        <time>2021-01-23T13:57:19Z</time>
      </trkpt>
      <trkpt lat="43.5911" lon="3.76424">
        <ele>68.5</ele>
        <time>2021-01-23T13:57:20Z</time>
      </trkpt>
      <trkpt lat="43.59107" lon="3.76433">
        <ele>67.8</ele>
        <time>2021-01-23T13:57:21Z</time>
      </trkpt>
      <trkpt lat="43.59104" lon="3.76443">
        <ele>67.1</ele>
        <time>2021-01-23T13:57:22Z</time>
      </trkpt>
      <trkpt lat="43.591" lon="3.7645">
        <ele>66.6</ele>
        <time>2021-01-23T13:57:23Z</time>
      </trkpt>
      <trkpt lat="43.59098" lon="3.76456">
        <ele>66.2</ele>
        <time>2021-01-23T13:57:24Z</time>
      </trkpt>
      <trkpt lat="43.59097" lon="3.76462">
        <ele>65.7</ele>
        <time>2021-01-23T13:57:25Z</time>
      </trkpt>
      <trkpt lat="43.59096" lon="3.76467">
        <ele>65.4</ele>
        <time>2021-01-23T13:57:26Z</time>
      </trkpt>
      <trkpt lat="43.59095" lon="3.76475">
        <ele>75</ele>
        <time>2021-01-23T13:57:27Z</time>
      </trkpt>
      <trkpt lat="43.59093" lon="3.76483">
        <ele>64.2</ele>
        <time>2021-01-23T13:57:28Z</time>
      </trkpt>
      <trkpt lat="43.5909" lon="3.76492">
        <ele>63.6</ele>
        <time>2021-01-23T13:57:29Z</time>
      </trkpt>
      <trkpt lat="43.59087" lon="3.765">
        <ele>63</ele>
        <time>2021-01-23T13:57:30Z</time>
      </trkpt>
      <trkpt lat="43.59082" lon="3.76509">
        <ele>62.7</ele>
        <time>2021-01-23T13:57:31Z</time>
      </trkpt>
      <trkpt lat="43.59078" lon="3.76516">
        <ele>62.5</ele>
        <time>2021-01-23T13:57:32Z</time>
      </trkpt>
      <trkpt lat="43.59074" lon="3.76523">
        <ele>62.2</ele>
        <time>2021-01-23T13:57:33Z</time>
      </trkpt>
      <trkpt lat="43.5907" lon="3.76529">
        <ele>61.9</ele>
        <time>2021-01-23T13:57:34Z</time>
      </trkpt>
      <trkpt lat="43.59066" lon="3.76536">
        <ele>61.1</ele>
        <time>2021-01-23T13:57:35Z</time>
      </trkpt>
      <trkpt lat="43.59063" lon="3.76543">
        <ele>60.4</ele>
        <time>2021-01-23T13:57:36Z</time>
      </trkpt>
      <trkpt lat="43.59059" lon="3.76551">
        <ele>70</ele>
        <time>2021-01-23T13:57:37Z</time>
      </trkpt>
      <trkpt lat="43.59055" lon="3.76558">
        <ele>58.7</ele>
        <time>2021-01-23T13:57:38Z</time>
      </trkpt>
      <trkpt lat="43.5905" lon="3.76565">
        <ele>57.8</ele>
        <time>2021-01-23T13:57:39Z</time>
      </trkpt>
      <trkpt lat="43.59046" lon="3.76573">
        <ele>57</ele>
        <time>2021-01-23T13:57:40Z</time>
      </trkpt>
      <trkpt lat="43.59042" lon="3.76579">
        <ele>56.4</ele>
        <time>2021-01-23T13:57:41Z</time>
      </trkpt>
      <trkpt lat="43.59037" lon="3.76586">
        <ele>55.7</ele>
        <time>2021-01-23T13:57:42Z</time>
      </trkpt>
      <trkpt lat="43.5903" lon="3.76591">
        <ele>55.2</ele>
        <time>2021-01-23T13:57:43Z</time>
      </trkpt>
      <trkpt lat="43.59024" lon="3.76596">
        <ele>54.6</ele>
        <time>2021-01-23T13:57:44Z</time>
      </trkpt>
      <trkpt lat="43.59017" lon="3.766">
        <ele>54</ele>
        <time>2021-01-23T13:57:45Z</time>
      </trkpt>
      <trkpt lat="43.5901" lon="3.76604">
        <ele>53.6</ele>
        <time>2021-01-23T13:57:46Z</time>
      </trkpt>
      <trkpt lat="43.59003" lon="3.76607">
        <ele>64</ele>
        <time>2021-01-23T13:57:47Z</time>
      </trkpt>
      <trkpt lat="43.58996" lon="3.76609">
        <ele>53</ele>
        <time>2021-01-23T13:57:48Z</time>
      </trkpt>
      <trkpt lat="43.58989" lon="3.76611">
        <ele>52.6</ele>
        <time>2021-01-23T13:57:49Z</time>
      </trkpt>
      <trkpt lat="43.58982" lon="3.76613">
        <ele>52.3</ele>
        <time>2021-01-23T13:57:50Z</time>
      </trkpt>
      <trkpt lat="43.58977" lon="3.76614">
        <ele>52.1</ele>
        <time>2021-01-23T13:57:51Z</time>
      </trkpt>
      <trkpt lat="43.58972" lon="3.76616">
        <ele>51.8</ele>
        <time>2021-01-23T13:57:52Z</time>
      </trkpt>
      <trkpt lat="43.5897" lon="3.7662">
        <ele>51.7</ele>
        <time>2021-01-23T13:57:53Z</time>
      </trkpt>
      <trkpt lat="43.58969" lon="3.76623">
        <ele>51.5</ele>
        <time>2021-01-23T13:57:54Z</time>
      </trkpt>
      <trkpt lat="43.58969" lon="3.76626">
        <ele>51.4</ele>
        <time>2021-01-23T13:57:55Z</time>
      </trkpt>
      <trkpt lat="43.5897" lon="3.76629">
        <ele>51.3</ele>
        <time>2021-01-23T13:57:56Z</time>
      </trkpt>
      <trkpt lat="43.58973" lon="3.76631">
        <ele>59</ele>
        <time>2021-01-23T13:57:57Z</time>
      </trkpt>
      <trkpt lat="43.58976" lon="3.76634">
        <ele>51.3</ele>
        <time>2021-01-23T13:57:58Z</time>
      </trkpt>
      <trkpt lat="43.58979" lon="3.76637">
        <ele>51.3</ele>
        <time>2021-01-23T13:57:59Z</time>
      </trkpt>
      <trkpt lat="43.58983" lon="3.7664">
        <ele>51.3</ele>
        <time>2021-01-23T13:58:00Z</time>
      </trkpt>
      <trkpt lat="43.58986" lon="3.76643">
        <ele>51.3</ele>
        <time>2021-01-23T13:58:01Z</time>
      </trkpt>
      <trkpt lat="43.5899" lon="3.76646">
        <ele>51.4</ele>
        <time>2021-01-23T13:58:02Z</time>
      </trkpt>
      <trkpt lat="43.58994" lon="3.76649">
        <ele>51.4</ele>
        <time>2021-01-23T13:58:03Z</time>
      </trkpt>
      <trkpt lat="43.58998" lon="3.76652">
        <ele>51.5</ele>
        <time>2021-01-23T13:58:04Z</time>
      </trkpt>
      <trkpt lat="43.59002" lon="3.76655">
        <ele>51.4</ele>
        <time>2021-01-23T13:58:05Z</time>
      </trkpt>
      <trkpt lat="43.59006" lon="3.76659">
        <ele>51.3</ele>
        <time>2021-01-23T13:58:06Z</time>
      </trkpt>
      <trkpt lat="43.5901" lon="3.76663">
        <ele>57</ele>
        <time>2021-01-23T13:58:07Z</time>
      </trkpt>
      <trkpt lat="43.59015" lon="3.76667">
        <ele>51</ele>
        <time>2021-01-23T13:58:08Z</time>
      </trkpt>
      <trkpt lat="43.59019" lon="3.7667">
        <ele>50.8</ele>
        <time>2021-01-23T13:58:09Z</time>
      </trkpt>
      <trkpt lat="43.59024" lon="3.76673">
        <ele>50.7</ele>
        <time>2021-01-23T13:58:10Z</time>
      </trkpt>
      <trkpt lat="43.59028" lon="3.76676">
        <ele>50.7</ele>
        <time>2021-01-23T13:58:11Z</time>
      </trkpt>
      <trkpt lat="43.59032" lon="3.76679">
        <ele>50.6</ele>
        <time>2021-01-23T13:58:12Z</time>
      </trkpt>
      <trkpt lat="43.59036" lon="3.76681">
        <ele>50.5</ele>
        <time>2021-01-23T13:58:13Z</time>
      </trkpt>
      <trkpt lat="43.59039" lon="3.76684">
        <ele>50.4</ele>
        <time>2021-01-23T13:58:14Z</time>
      </trkpt>
      <trkpt lat="43.59043" lon="3.76688">
        <ele>50.2</ele>
        <time>2021-01-23T13:58:15Z</time>
      </trkpt>
      <trkpt lat="43.59052" lon="3.76697">
        <ele>50.1</ele>
        <time>2021-01-23T13:58:16Z</time>
      </trkpt>
      <trkpt lat="43.59055" lon="3.76702">
        <ele>50.3</ele>
        <time>2021-01-23T13:58:18Z</time>
      </trkpt>
      <trkpt lat="43.59057" lon="3.76707">
        <ele>50.5</ele>
        <time>2021-01-23T13:58:19Z</time>
      </trkpt>
      <trkpt lat="43.59059" lon="3.76711">
        <ele>50.8</ele>
        <time>2021-01-23T13:58:20Z</time>
      </trkpt>
      <trkpt lat="43.59062" lon="3.76716">
        <ele>51.1</ele>
        <time>2021-01-23T13:58:21Z</time>
      </trkpt>
      <trkpt lat="43.59065" lon="3.7672">
        <ele>51.3</ele>
        <time>2021-01-23T13:58:22Z</time>
      </trkpt>
      <trkpt lat="43.59068" lon="3.76723">
        <ele>51.5</ele>
        <time>2021-01-23T13:58:23Z</time>
      </trkpt>
      <trkpt lat="43.59072" lon="3.76725">
        <ele>51.7</ele>
        <time>2021-01-23T13:58:24Z</time>
      </trkpt>
      <trkpt lat="43.59076" lon="3.76726">
        <ele>51.8</ele>
        <time>2021-01-23T13:58:25Z</time>
      </trkpt>
      <trkpt lat="43.59079" lon="3.76728">
        <ele>52</ele>
        <time>2021-01-23T13:58:26Z</time>
      </trkpt>
      <trkpt lat="43.59083" lon="3.76729">
        <ele>54</ele>
        <time>2021-01-23T13:58:27Z</time>
      </trkpt>
      <trkpt lat="43.59087" lon="3.76731">
        <ele>52.5</ele>
        <time>2021-01-23T13:58:28Z</time>
      </trkpt>
      <trkpt lat="43.59091" lon="3.76732">
        <ele>52.8</ele>
        <time>2021-01-23T13:58:29Z</time>
      </trkpt>
      <trkpt lat="43.59095" lon="3.76733">
        <ele>53.1</ele>
        <time>2021-01-23T13:58:30Z</time>
      </trkpt>
      <trkpt lat="43.59098" lon="3.76733">
        <ele>53.2</ele>
        <time>2021-01-23T13:58:31Z</time>
      </trkpt>
      <trkpt lat="43.59102" lon="3.76734">
        <ele>53.5</ele>
        <time>2021-01-23T13:58:32Z</time>
      </trkpt>
      <trkpt lat="43.59105" lon="3.76735">
        <ele>53.7</ele>
        <time>2021-01-23T13:58:33Z</time>
      </trkpt>
      <trkpt lat="43.59108" lon="3.76737">
        <ele>53.8</ele>
        <time>2021-01-23T13:58:34Z</time>
      </trkpt>
      <trkpt lat="43.59111" lon="3.76738">
        <ele>54</ele>
        <time>2021-01-23T13:58:35Z</time>
      </trkpt>
      <trkpt lat="43.59114" lon="3.76739">
        <ele>54.3</ele>
        <time>2021-01-23T13:58:36Z</time>
      </trkpt>
      <trkpt lat="43.59117" lon="3.7674">
        <ele>54</ele>
        <time>2021-01-23T13:58:37Z</time>
      </trkpt>
      <trkpt lat="43.5912" lon="3.76741">
        <ele>55</ele>
        <time>2021-01-23T13:58:38Z</time>
      </trkpt>
      <trkpt lat="43.59123" lon="3.76742">
        <ele>55.3</ele>
        <time>2021-01-23T13:58:39Z</time>
      </trkpt>
      <trkpt lat="43.59126" lon="3.76743">
        <ele>55.6</ele>
        <time>2021-01-23T13:58:40Z</time>
      </trkpt>
      <trkpt lat="43.59129" lon="3.76744">
        <ele>55.9</ele>
        <time>2021-01-23T13:58:41Z</time>
      </trkpt>
      <trkpt lat="43.59131" lon="3.76746">
        <ele>56.1</ele>
        <time>2021-01-23T13:58:42Z</time>
      </trkpt>
      <trkpt lat="43.59134" lon="3.76748">
        <ele>56.5</ele>
        <time>2021-01-23T13:58:43Z</time>
      </trkpt>
      <trkpt lat="43.59136" lon="3.76749">
        <ele>56.7</ele>
        <time>2021-01-23T13:58:44Z</time>
      </trkpt>
      <trkpt lat="43.59139" lon="3.76751">
        <ele>57</ele>
        <time>2021-01-23T13:58:45Z</time>
      </trkpt>
      <trkpt lat="43.59141" lon="3.76753">
        <ele>57.1</ele>
        <time>2021-01-23T13:58:46Z</time>
      </trkpt>
      <trkpt lat="43.59143" lon="3.76755">
        <ele>56</ele>
        <time>2021-01-23T13:58:47Z</time>
      </trkpt>
      <trkpt lat="43.59145" lon="3.76756">
        <ele>57.5</ele>
        <time>2021-01-23T13:58:48Z</time>
      </trkpt>
      <trkpt lat="43.59147" lon="3.76758">
        <ele>57.7</ele>
        <time>2021-01-23T13:58:49Z</time>
      </trkpt>
      <trkpt lat="43.59149" lon="3.7676">
        <ele>57.9</ele>
        <time>2021-01-23T13:58:50Z</time>
      </trkpt>
      <trkpt lat="43.59151" lon="3.76761">
        <ele>58.1</ele>
        <time>2021-01-23T13:58:51Z</time>
      </trkpt>
      <trkpt lat="43.59153" lon="3.76763">
        <ele>58.3</ele>
        <time>2021-01-23T13:58:52Z</time>
      </trkpt>
      <trkpt lat="43.59154" lon="3.76764">
        <ele>58.4</ele>
        <time>2021-01-23T13:58:53Z</time>
      </trkpt>
      <trkpt lat="43.59156" lon="3.76766">
        <ele>58.6</ele>
        <time>2021-01-23T13:58:54Z</time>
      </trkpt>
      <trkpt lat="43.59157" lon="3.76768">
        <ele>58.7</ele>
        <time>2021-01-23T13:58:55Z</time>
      </trkpt>
      <trkpt lat="43.59158" lon="3.7677">
        <ele>58.8</ele>
        <time>2021-01-23T13:58:56Z</time>
      </trkpt>
      <trkpt lat="43.5916" lon="3.76773">
        <ele>57</ele>
        <time>2021-01-23T13:58:57Z</time>
      </trkpt>
      <trkpt lat="43.59161" lon="3.76775">
        <ele>59.2</ele>
        <time>2021-01-23T13:58:58Z</time>
      </trkpt>
      <trkpt lat="43.59162" lon="3.76777">
        <ele>59.3</ele>
        <time>2021-01-23T13:58:59Z</time>
      </trkpt>
      <trkpt lat="43.59163" lon="3.76779">
        <ele>59.4</ele>
        <time>2021-01-23T13:59:00Z</time>
      </trkpt>
      <trkpt lat="43.59166" lon="3.76782">
        <ele>59.8</ele>
        <time>2021-01-23T13:59:02Z</time>
      </trkpt>
      <trkpt lat="43.59167" lon="3.76786">
        <ele>59.7</ele>
        <time>2021-01-23T13:59:04Z</time>
      </trkpt>
      <trkpt lat="43.59169" lon="3.7679">
        <ele>59.8</ele>
        <time>2021-01-23T13:59:06Z</time>
      </trkpt>
      <trkpt lat="43.59172" lon="3.76794">
        <ele>59</ele>
        <time>2021-01-23T13:59:07Z</time>
      </trkpt>
      <trkpt lat="43.59174" lon="3.76797">
        <ele>60</ele>
        <time>2021-01-23T13:59:10Z</time>
      </trkpt>
      <trkpt lat="43.59176" lon="3.76801">
        <ele>60.1</ele>
        <time>2021-01-23T13:59:12Z</time>
      </trkpt>
      <trkpt lat="43.59178" lon="3.76804">
        <ele>60.3</ele>
        <time>2021-01-23T13:59:13Z</time>
      </trkpt>
      <trkpt lat="43.5918" lon="3.76808">
        <ele>60.5</ele>
        <time>2021-01-23T13:59:15Z</time>
      </trkpt>
      <trkpt lat="43.59181" lon="3.76812">
        <ele>60.8</ele>
        <time>2021-01-23T13:59:18Z</time>
      </trkpt>
      <trkpt lat="43.5918" lon="3.76816">
        <ele>60.8</ele>
        <time>2021-01-23T13:59:20Z</time>
      </trkpt>
      <trkpt lat="43.59178" lon="3.76819">
        <ele>60.7</ele>
        <time>2021-01-23T13:59:22Z</time>
      </trkpt>
      <trkpt lat="43.59176" lon="3.76821">
        <ele>60.6</ele>
        <time>2021-01-23T13:59:24Z</time>
      </trkpt>
      <trkpt lat="43.59175" lon="3.7682">
        <ele>60.4</ele>
        <time>2021-01-23T13:59:26Z</time>
      </trkpt>
      <trkpt lat="43.59177" lon="3.76817">
        <ele>60.5</ele>
        <time>2021-01-23T13:59:29Z</time>
      </trkpt>
      <trkpt lat="43.59179" lon="3.76817">
        <ele>60.7</ele>
        <time>2021-01-23T13:59:31Z</time>
      </trkpt>
      <trkpt lat="43.59181" lon="3.76818">
        <ele>61</ele>
        <time>2021-01-23T13:59:33Z</time>
      </trkpt>
      <trkpt lat="43.59182" lon="3.7682">
        <ele>61.2</ele>
        <time>2021-01-23T13:59:35Z</time>
      </trkpt>
      <trkpt lat="43.59184" lon="3.76822">
        <ele>61</ele>
        <time>2021-01-23T13:59:37Z</time>
      </trkpt>
      <trkpt lat="43.59185" lon="3.76824">
        <ele>61.6</ele>
        <time>2021-01-23T13:59:39Z</time>
      </trkpt>
      <trkpt lat="43.59187" lon="3.76828">
        <ele>62</ele>
        <time>2021-01-23T13:59:41Z</time>
      </trkpt>
      <trkpt lat="43.59188" lon="3.7683">
        <ele>62.2</ele>
        <time>2021-01-23T13:59:42Z</time>
      </trkpt>
      <trkpt lat="43.59189" lon="3.76833">
        <ele>62.4</ele>
        <time>2021-01-23T13:59:43Z</time>
      </trkpt>
      <trkpt lat="43.5919" lon="3.76835">
        <ele>62.4</ele>
        <time>2021-01-23T13:59:44Z</time>
      </trkpt>
      <trkpt lat="43.59191" lon="3.76838">
        <ele>62.3</ele>
        <time>2021-01-23T13:59:45Z</time>
      </trkpt>
      <trkpt lat="43.59192" lon="3.76842">
        <ele>62.2</ele>
        <time>2021-01-23T13:59:46Z</time>
      </trkpt>
      <trkpt lat="43.59194" lon="3.76845">
        <ele>62</ele>
        <time>2021-01-23T13:59:47Z</time>
      </trkpt>
      <trkpt lat="43.59195" lon="3.76849">
        <ele>61.9</ele>
        <time>2021-01-23T13:59:48Z</time>
      </trkpt>
      <trkpt lat="43.59196" lon="3.76852">
        <ele>61.8</ele>
        <time>2021-01-23T13:59:49Z</time>
      </trkpt>
      <trkpt lat="43.59198" lon="3.76856">
        <ele>61.7</ele>
        <time>2021-01-23T13:59:50Z</time>
      </trkpt>
      <trkpt lat="43.592" lon="3.76859">
        <ele>61.7</ele>
        <time>2021-01-23T13:59:51Z</time>
      </trkpt>
      <trkpt lat="43.59202" lon="3.76861">
        <ele>61.8</ele>
        <time>2021-01-23T13:59:52Z</time>
      </trkpt>
      <trkpt lat="43.59205" lon="3.76864">
        <ele>62.1</ele>
        <time>2021-01-23T13:59:53Z</time>
      </trkpt>
      <trkpt lat="43.59207" lon="3.76866">
        <ele>62.2</ele>
        <time>2021-01-23T13:59:54Z</time>
      </trkpt>
      <trkpt lat="43.5921" lon="3.76868">
        <ele>62.4</ele>
        <time>2021-01-23T13:59:55Z</time>
      </trkpt>
      <trkpt lat="43.59213" lon="3.7687">
        <ele>62.6</ele>
        <time>2021-01-23T13:59:56Z</time>
      </trkpt>
      <trkpt lat="43.59216" lon="3.76871">
        <ele>62</ele>
        <time>2021-01-23T13:59:57Z</time>
      </trkpt>
      <trkpt lat="43.59219" lon="3.76872">
        <ele>63</ele>
        <time>2021-01-23T13:59:58Z</time>
      </trkpt>
      <trkpt lat="43.59222" lon="3.76874">
        <ele>63.1</ele>
        <time>2021-01-23T13:59:59Z</time>
      </trkpt>
      <trkpt lat="43.59225" lon="3.76875">
        <ele>63.2</ele>
        <time>2021-01-23T14:00:00Z</time>
      </trkpt>
      <trkpt lat="43.59228" lon="3.76876">
        <ele>63.2</ele>
        <time>2021-01-23T14:00:01Z</time>
      </trkpt>
      <trkpt lat="43.59231" lon="3.76877">
        <ele>63.4</ele>
        <time>2021-01-23T14:00:02Z</time>
      </trkpt>
      <trkpt lat="43.59234" lon="3.76878">
        <ele>63.5</ele>
        <time>2021-01-23T14:00:03Z</time>
      </trkpt>
      <trkpt lat="43.59237" lon="3.7688">
        <ele>63.5</ele>
        <time>2021-01-23T14:00:04Z</time>
      </trkpt>
      <trkpt lat="43.5924" lon="3.76881">
        <ele>63.7</ele>
        <time>2021-01-23T14:00:05Z</time>
      </trkpt>
      <trkpt lat="43.59243" lon="3.76883">
        <ele>63.8</ele>
        <time>2021-01-23T14:00:06Z</time>
      </trkpt>
      <trkpt lat="43.59246" lon="3.76885">
        <ele>63</ele>
        <time>2021-01-23T14:00:07Z</time>
      </trkpt>
      <trkpt lat="43.59249" lon="3.76887">
        <ele>64</ele>
        <time>2021-01-23T14:00:08Z</time>
      </trkpt>
      <trkpt lat="43.59252" lon="3.76889">
        <ele>64.1</ele>
        <time>2021-01-23T14:00:09Z</time>
      </trkpt>
      <trkpt lat="43.59255" lon="3.76891">
        <ele>64.3</ele>
        <time>2021-01-23T14:00:10Z</time>
      </trkpt>
      <trkpt lat="43.59258" lon="3.76893">
        <ele>64.4</ele>
        <time>2021-01-23T14:00:11Z</time>
      </trkpt>
      <trkpt lat="43.59261" lon="3.76895">
        <ele>64.5</ele>
        <time>2021-01-23T14:00:12Z</time>
      </trkpt>
      <trkpt lat="43.59264" lon="3.76897">
        <ele>64.6</ele>
        <time>2021-01-23T14:00:13Z</time>
      </trkpt>
      <trkpt lat="43.59266" lon="3.769">
        <ele>64.5</ele>
        <time>2021-01-23T14:00:14Z</time>
      </trkpt>
      <trkpt lat="43.59269" lon="3.76901">
        <ele>64.6</ele>
        <time>2021-01-23T14:00:15Z</time>
      </trkpt>
      <trkpt lat="43.59272" lon="3.76903">
        <ele>64.7</ele>
        <time>2021-01-23T14:00:16Z</time>
      </trkpt>
      <trkpt lat="43.59275" lon="3.76905">
        <ele>64.7</ele>
        <time>2021-01-23T14:00:17Z</time>
      </trkpt>
      <trkpt lat="43.59278" lon="3.76906">
        <ele>64</ele>
        <time>2021-01-23T14:00:18Z</time>
      </trkpt>
      <trkpt lat="43.59281" lon="3.76908">
        <ele>64.8</ele>
        <time>2021-01-23T14:00:19Z</time>
      </trkpt>
      <trkpt lat="43.59284" lon="3.76909">
        <ele>64.9</ele>
        <time>2021-01-23T14:00:20Z</time>
      </trkpt>
      <trkpt lat="43.59287" lon="3.7691">
        <ele>65.1</ele>
        <time>2021-01-23T14:00:21Z</time>
      </trkpt>
      <trkpt lat="43.59291" lon="3.76911">
        <ele>65.3</ele>
        <time>2021-01-23T14:00:22Z</time>
      </trkpt>
      <trkpt lat="43.59294" lon="3.76912">
        <ele>65.4</ele>
        <time>2021-01-23T14:00:23Z</time>
      </trkpt>
      <trkpt lat="43.59297" lon="3.76912">
        <ele>65.6</ele>
        <time>2021-01-23T14:00:24Z</time>
      </trkpt>
      <trkpt lat="43.59301" lon="3.76914">
        <ele>65.8</ele>
        <time>2021-01-23T14:00:25Z</time>
      </trkpt>
      <trkpt lat="43.59304" lon="3.76915">
        <ele>66</ele>
        <time>2021-01-23T14:00:26Z</time>
      </trkpt>
      <trkpt lat="43.59307" lon="3.76916">
        <ele>65</ele>
        <time>2021-01-23T14:00:27Z</time>
      </trkpt>
      <trkpt lat="43.5931" lon="3.76918">
        <ele>66.3</ele>
        <time>2021-01-23T14:00:28Z</time>
      </trkpt>
      <trkpt lat="43.59313" lon="3.76919">
        <ele>66.5</ele>
        <time>2021-01-23T14:00:29Z</time>
      </trkpt>
      <trkpt lat="43.59316" lon="3.76922">
        <ele>66.6</ele>
        <time>2021-01-23T14:00:30Z</time>
      </trkpt>
      <trkpt lat="43.59319" lon="3.76924">
        <ele>66.7</ele>
        <time>2021-01-23T14:00:31Z</time>
      </trkpt>
      <trkpt lat="43.59322" lon="3.76926">
        <ele>66.8</ele>
        <time>2021-01-23T14:00:32Z</time>
      </trkpt>
      <trkpt lat="43.59325" lon="3.76929">
        <ele>67</ele>
        <time>2021-01-23T14:00:33Z</time>
      </trkpt>
      <trkpt lat="43.59328" lon="3.76932">
        <ele>67.1</ele>
        <time>2021-01-23T14:00:34Z</time>
      </trkpt>
      <trkpt lat="43.59331" lon="3.76935">
        <ele>67.2</ele>
        <time>2021-01-23T14:00:35Z</time>
      </trkpt>
      <trkpt lat="43.59333" lon="3.76937">
        <ele>67.2</ele>
        <time>2021-01-23T14:00:36Z</time>
      </trkpt>
      <trkpt lat="43.59336" lon="3.7694">
        <ele>67</ele>
        <time>2021-01-23T14:00:37Z</time>
      </trkpt>
      <trkpt lat="43.59339" lon="3.76943">
        <ele>67.7</ele>
        <time>2021-01-23T14:00:38Z</time>
      </trkpt>
      <trkpt lat="43.59341" lon="3.76946">
        <ele>67.8</ele>
        <time>2021-01-23T14:00:39Z</time>
      </trkpt>
      <trkpt lat="43.59344" lon="3.76948">
        <ele>68</ele>
        <time>2021-01-23T14:00:40Z</time>
      </trkpt>
      <trkpt lat="43.59346" lon="3.76951">
        <ele>68</ele>
        <time>2021-01-23T14:00:41Z</time>
      </trkpt>
      <trkpt lat="43.59349" lon="3.76954">
        <ele>68.2</ele>
        <time>2021-01-23T14:00:42Z</time>
      </trkpt>
      <trkpt lat="43.59352" lon="3.76957">
        <ele>68.3</ele>
        <time>2021-01-23T14:00:43Z</time>
      </trkpt>
      <trkpt lat="43.59355" lon="3.7696">
        <ele>68.3</ele>
        <time>2021-01-23T14:00:44Z</time>
      </trkpt>
      <trkpt lat="43.59357" lon="3.76962">
        <ele>68.4</ele>
        <time>2021-01-23T14:00:45Z</time>
      </trkpt>
      <trkpt lat="43.5936" lon="3.76965">
        <ele>68.4</ele>
        <time>2021-01-23T14:00:46Z</time>
      </trkpt>
      <trkpt lat="43.59363" lon="3.76968">
        <ele>68</ele>
        <time>2021-01-23T14:00:47Z</time>
      </trkpt>
      <trkpt lat="43.59367" lon="3.7697">
        <ele>68.6</ele>
        <time>2021-01-23T14:00:48Z</time>
      </trkpt>
      <trkpt lat="43.5937" lon="3.76973">
        <ele>68.6</ele>
        <time>2021-01-23T14:00:49Z</time>
      </trkpt>
      <trkpt lat="43.59373" lon="3.76975">
        <ele>68.7</ele>
        <time>2021-01-23T14:00:50Z</time>
      </trkpt>
      <trkpt lat="43.59377" lon="3.76978">
        <ele>68.8</ele>
        <time>2021-01-23T14:00:51Z</time>
      </trkpt>
      <trkpt lat="43.59381" lon="3.7698">
        <ele>69</ele>
        <time>2021-01-23T14:00:52Z</time>
      </trkpt>
      <trkpt lat="43.59384" lon="3.76981">
        <ele>69.1</ele>
        <time>2021-01-23T14:00:53Z</time>
      </trkpt>
      <trkpt lat="43.59388" lon="3.76983">
        <ele>69.2</ele>
        <time>2021-01-23T14:00:54Z</time>
      </trkpt>
      <trkpt lat="43.59391" lon="3.76985">
        <ele>69.2</ele>
        <time>2021-01-23T14:00:55Z</time>
      </trkpt>
      <trkpt lat="43.59395" lon="3.76987">
        <ele>69.3</ele>
        <time>2021-01-23T14:00:56Z</time>
      </trkpt>
      <trkpt lat="43.59398" lon="3.76989">
        <ele>68</ele>
        <time>2021-01-23T14:00:57Z</time>
      </trkpt>
      <trkpt lat="43.59402" lon="3.76991">
        <ele>69.3</ele>
        <time>2021-01-23T14:00:58Z</time>
      </trkpt>
      <trkpt lat="43.59405" lon="3.76992">
        <ele>69.3</ele>
        <time>2021-01-23T14:00:59Z</time>
      </trkpt>
      <trkpt lat="43.59409" lon="3.76994">
        <ele>69.3</ele>
        <time>2021-01-23T14:01:00Z</time>
      </trkpt>
      <trkpt lat="43.59412" lon="3.76995">
        <ele>69.3</ele>
        <time>2021-01-23T14:01:01Z</time>
      </trkpt>
      <trkpt lat="43.59416" lon="3.76997">
        <ele>69.3</ele>
        <time>2021-01-23T14:01:02Z</time>
      </trkpt>
      <trkpt lat="43.59419" lon="3.76998">
        <ele>69.4</ele>
        <time>2021-01-23T14:01:03Z</time>
      </trkpt>
      <trkpt lat="43.59423" lon="3.76999">
        <ele>69.5</ele>
        <time>2021-01-23T14:01:04Z</time>
      </trkpt>
      <trkpt lat="43.59426" lon="3.77001">
        <ele>69.6</ele>
        <time>2021-01-23T14:01:05Z</time>
      </trkpt>
      <trkpt lat="43.5943" lon="3.77002">
        <ele>69.8</ele>
        <time>2021-01-23T14:01:06Z</time>
      </trkpt>
      <trkpt lat="43.59433" lon="3.77004">
        <ele>69</ele>
        <time>2021-01-23T14:01:07Z</time>
      </trkpt>
      <trkpt lat="43.59437" lon="3.77006">
        <ele>69.9</ele>
        <time>2021-01-23T14:01:08Z</time>
      </trkpt>
      <trkpt lat="43.5944" lon="3.77008">
        <ele>69.9</ele>
        <time>2021-01-23T14:01:09Z</time>
      </trkpt>
      <trkpt lat="43.59444" lon="3.77011">
        <ele>69.8</ele>
        <time>2021-01-23T14:01:10Z</time>
      </trkpt>
      <trkpt lat="43.59448" lon="3.77013">
        <ele>69.7</ele>
        <time>2021-01-23T14:01:11Z</time>
      </trkpt>
      <trkpt lat="43.59452" lon="3.77016">
        <ele>69.4</ele>
        <time>2021-01-23T14:01:12Z</time>
      </trkpt>
      <trkpt lat="43.59455" lon="3.77019">
        <ele>69.2</ele>
        <time>2021-01-23T14:01:13Z</time>
      </trkpt>
      <trkpt lat="43.59459" lon="3.77022">
        <ele>69</ele>
        <time>2021-01-23T14:01:14Z</time>
      </trkpt>
      <trkpt lat="43.59464" lon="3.77025">
        <ele>68.9</ele>
        <time>2021-01-23T14:01:15Z</time>
      </trkpt>
      <trkpt lat="43.59468" lon="3.77028">
        <ele>68.8</ele>
        <time>2021-01-23T14:01:16Z</time>
      </trkpt>
      <trkpt lat="43.59472" lon="3.77031">
        <ele>69</ele>
        <time>2021-01-23T14:01:17Z</time>
      </trkpt>
      <trkpt lat="43.59477" lon="3.77035">
        <ele>68.4</ele>
        <time>2021-01-23T14:01:18Z</time>
      </trkpt>
      <trkpt lat="43.59481" lon="3.77038">
        <ele>68.1</ele>
        <time>2021-01-23T14:01:19Z</time>
      </trkpt>
      <trkpt lat="43.59486" lon="3.77041">
        <ele>67.8</ele>
        <time>2021-01-23T14:01:20Z</time>
      </trkpt>
      <trkpt lat="43.59491" lon="3.77044">
        <ele>67.4</ele>
        <time>2021-01-23T14:01:21Z</time>
      </trkpt>
      <trkpt lat="43.59496" lon="3.77047">
        <ele>67</ele>
        <time>2021-01-23T14:01:22Z</time>
      </trkpt>
      <trkpt lat="43.59501" lon="3.77049">
        <ele>66.7</ele>
        <time>2021-01-23T14:01:23Z</time>
      </trkpt>
      <trkpt lat="43.59506" lon="3.77051">
        <ele>66.6</ele>
        <time>2021-01-23T14:01:24Z</time>
      </trkpt>
      <trkpt lat="43.59511" lon="3.77053">
        <ele>66.6</ele>
        <time>2021-01-23T14:01:25Z</time>
      </trkpt>
      <trkpt lat="43.59516" lon="3.77055">
        <ele>66.6</ele>
        <time>2021-01-23T14:01:26Z</time>
      </trkpt>
      <trkpt lat="43.59521" lon="3.77057">
        <ele>68</ele>
        <time>2021-01-23T14:01:27Z</time>
      </trkpt>
      <trkpt lat="43.59526" lon="3.77059">
        <ele>66.6</ele>
        <time>2021-01-23T14:01:28Z</time>
      </trkpt>
      <trkpt lat="43.59531" lon="3.77061">
        <ele>66.3</ele>
        <time>2021-01-23T14:01:29Z</time>
      </trkpt>
      <trkpt lat="43.59536" lon="3.77064">
        <ele>66</ele>
        <time>2021-01-23T14:01:30Z</time>
      </trkpt>
      <trkpt lat="43.59541" lon="3.77066">
        <ele>65.8</ele>
        <time>2021-01-23T14:01:31Z</time>
      </trkpt>
      <trkpt lat="43.59545" lon="3.77068">
        <ele>65.6</ele>
        <time>2021-01-23T14:01:32Z</time>
      </trkpt>
      <trkpt lat="43.5955" lon="3.7707">
        <ele>65.5</ele>
        <time>2021-01-23T14:01:33Z</time>
      </trkpt>
      <trkpt lat="43.59554" lon="3.77073">
        <ele>65.4</ele>
        <time>2021-01-23T14:01:34Z</time>
      </trkpt>
      <trkpt lat="43.59559" lon="3.77075">
        <ele>65.4</ele>
        <time>2021-01-23T14:01:35Z</time>
      </trkpt>
      <trkpt lat="43.59564" lon="3.77078">
        <ele>65.5</ele>
        <time>2021-01-23T14:01:36Z</time>
      </trkpt>
      <trkpt lat="43.59569" lon="3.77081">
        <ele>67</ele>
        <time>2021-01-23T14:01:37Z</time>
      </trkpt>
      <trkpt lat="43.59574" lon="3.77083">
        <ele>65.7</ele>
        <time>2021-01-23T14:01:38Z</time>
      </trkpt>
      <trkpt lat="43.59579" lon="3.77085">
        <ele>65.7</ele>
        <time>2021-01-23T14:01:39Z</time>
      </trkpt>
      <trkpt lat="43.59584" lon="3.77087">
        <ele>65.7</ele>
        <time>2021-01-23T14:01:40Z</time>
      </trkpt>
      <trkpt lat="43.59589" lon="3.7709">
        <ele>65.5</ele>
        <time>2021-01-23T14:01:41Z</time>
      </trkpt>
      <trkpt lat="43.59594" lon="3.77093">
        <ele>65.3</ele>
        <time>2021-01-23T14:01:42Z</time>
      </trkpt>
      <trkpt lat="43.59599" lon="3.77095">
        <ele>65.2</ele>
        <time>2021-01-23T14:01:43Z</time>
      </trkpt>
      <trkpt lat="43.59604" lon="3.77098">
        <ele>64.9</ele>
        <time>2021-01-23T14:01:44Z</time>
      </trkpt>
      <trkpt lat="43.59609" lon="3.771">
        <ele>64.8</ele>
        <time>2021-01-23T14:01:45Z</time>
      </trkpt>
      <trkpt lat="43.59613" lon="3.77103">
        <ele>64.7</ele>
        <time>2021-01-23T14:01:46Z</time>
      </trkpt>
      <trkpt lat="43.59618" lon="3.77106">
        <ele>67</ele>
        <time>2021-01-23T14:01:47Z</time>
      </trkpt>
      <trkpt lat="43.59623" lon="3.77108">
        <ele>64.7</ele>
        <time>2021-01-23T14:01:48Z</time>
      </trkpt>
      <trkpt lat="43.59628" lon="3.77111">
        <ele>64.6</ele>
        <time>2021-01-23T14:01:49Z</time>
      </trkpt>
      <trkpt lat="43.59633" lon="3.77113">
        <ele>64.7</ele>
        <time>2021-01-23T14:01:50Z</time>
      </trkpt>
      <trkpt lat="43.59638" lon="3.77116">
        <ele>64.6</ele>
        <time>2021-01-23T14:01:51Z</time>
      </trkpt>
      <trkpt lat="43.59643" lon="3.77119">
        <ele>64.5</ele>
        <time>2021-01-23T14:01:52Z</time>
      </trkpt>
      <trkpt lat="43.59648" lon="3.77122">
        <ele>64.4</ele>
        <time>2021-01-23T14:01:53Z</time>
      </trkpt>
      <trkpt lat="43.59653" lon="3.77125">
        <ele>64.3</ele>
        <time>2021-01-23T14:01:54Z</time>
      </trkpt>
      <trkpt lat="43.59658" lon="3.77128">
        <ele>64.1</ele>
        <time>2021-01-23T14:01:55Z</time>
      </trkpt>
      <trkpt lat="43.59663" lon="3.77131">
        <ele>63.8</ele>
        <time>2021-01-23T14:01:56Z</time>
      </trkpt>
      <trkpt lat="43.59668" lon="3.77134">
        <ele>66</ele>
        <time>2021-01-23T14:01:57Z</time>
      </trkpt>
      <trkpt lat="43.59673" lon="3.77137">
        <ele>63.6</ele>
        <time>2021-01-23T14:01:58Z</time>
      </trkpt>
      <trkpt lat="43.59678" lon="3.7714">
        <ele>63.7</ele>
        <time>2021-01-23T14:01:59Z</time>
      </trkpt>
      <trkpt lat="43.59683" lon="3.77142">
        <ele>63.9</ele>
        <time>2021-01-23T14:02:00Z</time>
      </trkpt>
      <trkpt lat="43.59688" lon="3.77145">
        <ele>64</ele>
        <time>2021-01-23T14:02:01Z</time>
      </trkpt>
      <trkpt lat="43.59693" lon="3.77148">
        <ele>63.9</ele>
        <time>2021-01-23T14:02:02Z</time>
      </trkpt>
      <trkpt lat="43.59697" lon="3.7715">
        <ele>63.8</ele>
        <time>2021-01-23T14:02:03Z</time>
      </trkpt>
      <trkpt lat="43.59702" lon="3.77153">
        <ele>63.6</ele>
        <time>2021-01-23T14:02:04Z</time>
      </trkpt>
      <trkpt lat="43.59706" lon="3.77155">
        <ele>63.5</ele>
        <time>2021-01-23T14:02:05Z</time>
      </trkpt>
      <trkpt lat="43.5971" lon="3.77158">
        <ele>63.3</ele>
        <time>2021-01-23T14:02:06Z</time>
      </trkpt>
      <trkpt lat="43.59714" lon="3.7716">
        <ele>66</ele>
        <time>2021-01-23T14:02:07Z</time>
      </trkpt>
      <trkpt lat="43.59718" lon="3.77163">
        <ele>63.1</ele>
        <time>2021-01-23T14:02:08Z</time>
      </trkpt>
      <trkpt lat="43.59722" lon="3.77165">
        <ele>63.1</ele>
        <time>2021-01-23T14:02:09Z</time>
      </trkpt>
      <trkpt lat="43.59725" lon="3.77168">
        <ele>63</ele>
        <time>2021-01-23T14:02:10Z</time>
      </trkpt>
      <trkpt lat="43.59728" lon="3.77172">
        <ele>62.8</ele>
        <time>2021-01-23T14:02:11Z</time>
      </trkpt>
      <trkpt lat="43.59731" lon="3.77175">
        <ele>62.8</ele>
        <time>2021-01-23T14:02:12Z</time>
      </trkpt>
      <trkpt lat="43.59734" lon="3.77179">
        <ele>62.7</ele>
        <time>2021-01-23T14:02:13Z</time>
      </trkpt>
      <trkpt lat="43.59737" lon="3.77182">
        <ele>62.7</ele>
        <time>2021-01-23T14:02:14Z</time>
      </trkpt>
      <trkpt lat="43.59741" lon="3.77186">
        <ele>62.8</ele>
        <time>2021-01-23T14:02:15Z</time>
      </trkpt>
      <trkpt lat="43.59744" lon="3.77189">
        <ele>62.8</ele>
        <time>2021-01-23T14:02:16Z</time>
      </trkpt>
      <trkpt lat="43.59748" lon="3.77193">
        <ele>65</ele>
        <time>2021-01-23T14:02:17Z</time>
      </trkpt>
      <trkpt lat="43.59752" lon="3.77196">
        <ele>62.9</ele>
        <time>2021-01-23T14:02:18Z</time>
      </trkpt>
      <trkpt lat="43.59755" lon="3.772">
        <ele>62.8</ele>
        <time>2021-01-23T14:02:19Z</time>
      </trkpt>
      <trkpt lat="43.59759" lon="3.77203">
        <ele>62.8</ele>
        <time>2021-01-23T14:02:20Z</time>
      </trkpt>
      <trkpt lat="43.59762" lon="3.77207">
        <ele>62.7</ele>
        <time>2021-01-23T14:02:21Z</time>
      </trkpt>
      <trkpt lat="43.59766" lon="3.77211">
        <ele>62.7</ele>
        <time>2021-01-23T14:02:22Z</time>
      </trkpt>
      <trkpt lat="43.5977" lon="3.77215">
        <ele>62.8</ele>
        <time>2021-01-23T14:02:23Z</time>
      </trkpt>
      <trkpt lat="43.59773" lon="3.77218">
        <ele>62.9</ele>
        <time>2021-01-23T14:02:24Z</time>
      </trkpt>
      <trkpt lat="43.59777" lon="3.77222">
        <ele>63</ele>
        <time>2021-01-23T14:02:25Z</time>
      </trkpt>
      <trkpt lat="43.5978" lon="3.77226">
        <ele>62.9</ele>
        <time>2021-01-23T14:02:26Z</time>
      </trkpt>
      <trkpt lat="43.59784" lon="3.7723">
        <ele>65</ele>
        <time>2021-01-23T14:02:27Z</time>
      </trkpt>
      <trkpt lat="43.59788" lon="3.77234">
        <ele>62.9</ele>
        <time>2021-01-23T14:02:28Z</time>
      </trkpt>
      <trkpt lat="43.59792" lon="3.77237">
        <ele>63</ele>
        <time>2021-01-23T14:02:29Z</time>
      </trkpt>
      <trkpt lat="43.59795" lon="3.77241">
        <ele>62.9</ele>
        <time>2021-01-23T14:02:30Z</time>
      </trkpt>
      <trkpt lat="43.59799" lon="3.77244">
        <ele>63</ele>
        <time>2021-01-23T14:02:31Z</time>
      </trkpt>
      <trkpt lat="43.59803" lon="3.77247">
        <ele>63</ele>
        <time>2021-01-23T14:02:32Z</time>
      </trkpt>
      <trkpt lat="43.59807" lon="3.7725">
        <ele>63.1</ele>
        <time>2021-01-23T14:02:33Z</time>
      </trkpt>
      <trkpt lat="43.59811" lon="3.77253">
        <ele>63.4</ele>
        <time>2021-01-23T14:02:34Z</time>
      </trkpt>
      <trkpt lat="43.59814" lon="3.77257">
        <ele>63.5</ele>
        <time>2021-01-23T14:02:35Z</time>
      </trkpt>
      <trkpt lat="43.59818" lon="3.7726">
        <ele>63.7</ele>
        <time>2021-01-23T14:02:36Z</time>
      </trkpt>
      <trkpt lat="43.59822" lon="3.77263">
        <ele>63.9</ele>
        <time>2021-01-23T14:02:37Z</time>
      </trkpt>
      <trkpt lat="43.59826" lon="3.77266">
        <ele>65</ele>
        <time>2021-01-23T14:02:38Z</time>
      </trkpt>
      <trkpt lat="43.59829" lon="3.77269">
        <ele>64.1</ele>
        <time>2021-01-23T14:02:39Z</time>
      </trkpt>
      <trkpt lat="43.59833" lon="3.77272">
        <ele>64.2</ele>
        <time>2021-01-23T14:02:40Z</time>
      </trkpt>
      <trkpt lat="43.59837" lon="3.77274">
        <ele>64.3</ele>
        <time>2021-01-23T14:02:41Z</time>
      </trkpt>
      <trkpt lat="43.5984" lon="3.77277">
        <ele>64.3</ele>
        <time>2021-01-23T14:02:42Z</time>
      </trkpt>
      <trkpt lat="43.59844" lon="3.77279">
        <ele>64.4</ele>
        <time>2021-01-23T14:02:43Z</time>
      </trkpt>
      <trkpt lat="43.59848" lon="3.77281">
        <ele>64.6</ele>
        <time>2021-01-23T14:02:44Z</time>
      </trkpt>
      <trkpt lat="43.59852" lon="3.77283">
        <ele>64.8</ele>
        <time>2021-01-23T14:02:45Z</time>
      </trkpt>
      <trkpt lat="43.59855" lon="3.77285">
        <ele>65</ele>
        <time>2021-01-23T14:02:46Z</time>
      </trkpt>
      <trkpt lat="43.59858" lon="3.77289">
        <ele>65</ele>
        <time>2021-01-23T14:02:47Z</time>
      </trkpt>
      <trkpt lat="43.5986" lon="3.77293">
        <ele>65.5</ele>
        <time>2021-01-23T14:02:48Z</time>
      </trkpt>
      <trkpt lat="43.59863" lon="3.77297">
        <ele>65.8</ele>
        <time>2021-01-23T14:02:49Z</time>
      </trkpt>
      <trkpt lat="43.59865" lon="3.77302">
        <ele>66</ele>
        <time>2021-01-23T14:02:50Z</time>
      </trkpt>
      <trkpt lat="43.59868" lon="3.77306">
        <ele>66.2</ele>
        <time>2021-01-23T14:02:51Z</time>
      </trkpt>
      <trkpt lat="43.59871" lon="3.7731">
        <ele>66.4</ele>
        <time>2021-01-23T14:02:52Z</time>
      </trkpt>
      <trkpt lat="43.59874" lon="3.77314">
        <ele>66.5</ele>
        <time>2021-01-23T14:02:53Z</time>
      </trkpt>
      <trkpt lat="43.59876" lon="3.77318">
        <ele>66.5</ele>
        <time>2021-01-23T14:02:54Z</time>
      </trkpt>
      <trkpt lat="43.59879" lon="3.77322">
        <ele>66.6</ele>
        <time>2021-01-23T14:02:55Z</time>
      </trkpt>
      <trkpt lat="43.59882" lon="3.77326">
        <ele>66.8</ele>
        <time>2021-01-23T14:02:56Z</time>
      </trkpt>
      <trkpt lat="43.59884" lon="3.7733">
        <ele>67</ele>
        <time>2021-01-23T14:02:57Z</time>
      </trkpt>
      <trkpt lat="43.59887" lon="3.77334">
        <ele>66.9</ele>
        <time>2021-01-23T14:02:58Z</time>
      </trkpt>
      <trkpt lat="43.5989" lon="3.77338">
        <ele>66.9</ele>
        <time>2021-01-23T14:02:59Z</time>
      </trkpt>
      <trkpt lat="43.59893" lon="3.77342">
        <ele>66.9</ele>
        <time>2021-01-23T14:03:00Z</time>
      </trkpt>
      <trkpt lat="43.59896" lon="3.77346">
        <ele>66.9</ele>
        <time>2021-01-23T14:03:01Z</time>
      </trkpt>
      <trkpt lat="43.59898" lon="3.7735">
        <ele>66.9</ele>
        <time>2021-01-23T14:03:02Z</time>
      </trkpt>
      <trkpt lat="43.59901" lon="3.77354">
        <ele>67</ele>
        <time>2021-01-23T14:03:03Z</time>
      </trkpt>
      <trkpt lat="43.59905" lon="3.77358">
        <ele>67.2</ele>
        <time>2021-01-23T14:03:04Z</time>
      </trkpt>
      <trkpt lat="43.59908" lon="3.77362">
        <ele>67.4</ele>
        <time>2021-01-23T14:03:05Z</time>
      </trkpt>
      <trkpt lat="43.59911" lon="3.77367">
        <ele>67.4</ele>
        <time>2021-01-23T14:03:06Z</time>
      </trkpt>
      <trkpt lat="43.59914" lon="3.77371">
        <ele>68</ele>
        <time>2021-01-23T14:03:07Z</time>
      </trkpt>
      <trkpt lat="43.59917" lon="3.77376">
        <ele>67.5</ele>
        <time>2021-01-23T14:03:08Z</time>
      </trkpt>
      <trkpt lat="43.5992" lon="3.7738">
        <ele>67.4</ele>
        <time>2021-01-23T14:03:09Z</time>
      </trkpt>
      <trkpt lat="43.59923" lon="3.77384">
        <ele>67.4</ele>
        <time>2021-01-23T14:03:10Z</time>
      </trkpt>
      <trkpt lat="43.59927" lon="3.77389">
        <ele>67.4</ele>
        <time>2021-01-23T14:03:11Z</time>
      </trkpt>
      <trkpt lat="43.5993" lon="3.77393">
        <ele>67.4</ele>
        <time>2021-01-23T14:03:12Z</time>
      </trkpt>
      <trkpt lat="43.59934" lon="3.77397">
        <ele>67.4</ele>
        <time>2021-01-23T14:03:13Z</time>
      </trkpt>
      <trkpt lat="43.59937" lon="3.77401">
        <ele>67.4</ele>
        <time>2021-01-23T14:03:14Z</time>
      </trkpt>
      <trkpt lat="43.5994" lon="3.77405">
        <ele>67.4</ele>
        <time>2021-01-23T14:03:15Z</time>
      </trkpt>
      <trkpt lat="43.59944" lon="3.77409">
        <ele>67.3</ele>
        <time>2021-01-23T14:03:16Z</time>
      </trkpt>
      <trkpt lat="43.59948" lon="3.77412">
        <ele>68</ele>
        <time>2021-01-23T14:03:17Z</time>
      </trkpt>
      <trkpt lat="43.59951" lon="3.77415">
        <ele>67.3</ele>
        <time>2021-01-23T14:03:18Z</time>
      </trkpt>
      <trkpt lat="43.59955" lon="3.77419">
        <ele>67.3</ele>
        <time>2021-01-23T14:03:19Z</time>
      </trkpt>
      <trkpt lat="43.59959" lon="3.77422">
        <ele>67.3</ele>
        <time>2021-01-23T14:03:20Z</time>
      </trkpt>
      <trkpt lat="43.59962" lon="3.77425">
        <ele>67.3</ele>
        <time>2021-01-23T14:03:21Z</time>
      </trkpt>
      <trkpt lat="43.59967" lon="3.77428">
        <ele>67.1</ele>
        <time>2021-01-23T14:03:22Z</time>
      </trkpt>
      <trkpt lat="43.59972" lon="3.77432">
        <ele>66.9</ele>
        <time>2021-01-23T14:03:23Z</time>
      </trkpt>
      <trkpt lat="43.59977" lon="3.77435">
        <ele>66.6</ele>
        <time>2021-01-23T14:03:24Z</time>
      </trkpt>
      <trkpt lat="43.59982" lon="3.7744">
        <ele>66.3</ele>
        <time>2021-01-23T14:03:25Z</time>
      </trkpt>
      <trkpt lat="43.59987" lon="3.77445">
        <ele>66</ele>
        <time>2021-01-23T14:03:26Z</time>
      </trkpt>
      <trkpt lat="43.59993" lon="3.7745">
        <ele>67</ele>
        <time>2021-01-23T14:03:27Z</time>
      </trkpt>
      <trkpt lat="43.59999" lon="3.77455">
        <ele>65.3</ele>
        <time>2021-01-23T14:03:28Z</time>
      </trkpt>
      <trkpt lat="43.60005" lon="3.77461">
        <ele>64.7</ele>
        <time>2021-01-23T14:03:29Z</time>
      </trkpt>
      <trkpt lat="43.60011" lon="3.77467">
        <ele>64.3</ele>
        <time>2021-01-23T14:03:30Z</time>
      </trkpt>
      <trkpt lat="43.60018" lon="3.77474">
        <ele>63.9</ele>
        <time>2021-01-23T14:03:31Z</time>
      </trkpt>
      <trkpt lat="43.60025" lon="3.7748">
        <ele>63.5</ele>
        <time>2021-01-23T14:03:32Z</time>
      </trkpt>
      <trkpt lat="43.60032" lon="3.77486">
        <ele>63</ele>
        <time>2021-01-23T14:03:33Z</time>
      </trkpt>
      <trkpt lat="43.60038" lon="3.77491">
        <ele>62.6</ele>
        <time>2021-01-23T14:03:34Z</time>
      </trkpt>
      <trkpt lat="43.60045" lon="3.77496">
        <ele>62.3</ele>
        <time>2021-01-23T14:03:35Z</time>
      </trkpt>
      <trkpt lat="43.60051" lon="3.775">
        <ele>62</ele>
        <time>2021-01-23T14:03:36Z</time>
      </trkpt>
      <trkpt lat="43.60057" lon="3.77504">
        <ele>64</ele>
        <time>2021-01-23T14:03:37Z</time>
      </trkpt>
      <trkpt lat="43.60062" lon="3.77508">
        <ele>61.7</ele>
        <time>2021-01-23T14:03:38Z</time>
      </trkpt>
      <trkpt lat="43.60065" lon="3.77511">
        <ele>61.6</ele>
        <time>2021-01-23T14:03:39Z</time>
      </trkpt>
      <trkpt lat="43.60069" lon="3.77515">
        <ele>61.5</ele>
        <time>2021-01-23T14:03:40Z</time>
      </trkpt>
      <trkpt lat="43.60072" lon="3.7752">
        <ele>61.3</ele>
        <time>2021-01-23T14:03:41Z</time>
      </trkpt>
      <trkpt lat="43.60075" lon="3.77526">
        <ele>61.1</ele>
        <time>2021-01-23T14:03:42Z</time>
      </trkpt>
      <trkpt lat="43.60077" lon="3.77532">
        <ele>60.7</ele>
        <time>2021-01-23T14:03:43Z</time>
      </trkpt>
      <trkpt lat="43.60079" lon="3.7754">
        <ele>60.1</ele>
        <time>2021-01-23T14:03:44Z</time>
      </trkpt>
      <trkpt lat="43.60082" lon="3.77549">
        <ele>59.5</ele>
        <time>2021-01-23T14:03:45Z</time>
      </trkpt>
      <trkpt lat="43.60086" lon="3.77557">
        <ele>59</ele>
        <time>2021-01-23T14:03:46Z</time>
      </trkpt>
      <trkpt lat="43.6009" lon="3.77565">
        <ele>62</ele>
        <time>2021-01-23T14:03:47Z</time>
      </trkpt>
      <trkpt lat="43.60096" lon="3.77573">
        <ele>58.2</ele>
        <time>2021-01-23T14:03:48Z</time>
      </trkpt>
      <trkpt lat="43.60102" lon="3.77581">
        <ele>57.8</ele>
        <time>2021-01-23T14:03:49Z</time>
      </trkpt>
      <trkpt lat="43.60108" lon="3.77588">
        <ele>57.6</ele>
        <time>2021-01-23T14:03:50Z</time>
      </trkpt>
      <trkpt lat="43.60114" lon="3.77596">
        <ele>57.2</ele>
        <time>2021-01-23T14:03:51Z</time>
      </trkpt>
      <trkpt lat="43.60121" lon="3.77604">
        <ele>56.9</ele>
        <time>2021-01-23T14:03:52Z</time>
      </trkpt>
      <trkpt lat="43.60128" lon="3.77611">
        <ele>56.6</ele>
        <time>2021-01-23T14:03:53Z</time>
      </trkpt>
      <trkpt lat="43.60134" lon="3.77619">
        <ele>56.4</ele>
        <time>2021-01-23T14:03:54Z</time>
      </trkpt>
      <trkpt lat="43.60141" lon="3.77626">
        <ele>55.9</ele>
        <time>2021-01-23T14:03:55Z</time>
      </trkpt>
      <trkpt lat="43.60148" lon="3.77633">
        <ele>55.4</ele>
        <time>2021-01-23T14:03:56Z</time>
      </trkpt>
      <trkpt lat="43.60155" lon="3.77639">
        <ele>57</ele>
        <time>2021-01-23T14:03:57Z</time>
      </trkpt>
      <trkpt lat="43.60162" lon="3.77645">
        <ele>54.6</ele>
        <time>2021-01-23T14:03:58Z</time>
      </trkpt>
      <trkpt lat="43.6017" lon="3.7765">
        <ele>54.2</ele>
        <time>2021-01-23T14:03:59Z</time>
      </trkpt>
      <trkpt lat="43.60178" lon="3.77654">
        <ele>53.9</ele>
        <time>2021-01-23T14:04:00Z</time>
      </trkpt>
      <trkpt lat="43.60186" lon="3.77659">
        <ele>53.6</ele>
        <time>2021-01-23T14:04:01Z</time>
      </trkpt>
      <trkpt lat="43.60194" lon="3.77664">
        <ele>53.2</ele>
        <time>2021-01-23T14:04:02Z</time>
      </trkpt>
      <trkpt lat="43.60202" lon="3.77669">
        <ele>52.9</ele>
        <time>2021-01-23T14:04:03Z</time>
      </trkpt>
      <trkpt lat="43.6021" lon="3.77674">
        <ele>52.7</ele>
        <time>2021-01-23T14:04:04Z</time>
      </trkpt>
      <trkpt lat="43.60218" lon="3.77679">
        <ele>52.6</ele>
        <time>2021-01-23T14:04:05Z</time>
      </trkpt>
      <trkpt lat="43.60226" lon="3.77684">
        <ele>52.4</ele>
        <time>2021-01-23T14:04:06Z</time>
      </trkpt>
      <trkpt lat="43.60235" lon="3.77689">
        <ele>54</ele>
        <time>2021-01-23T14:04:07Z</time>
      </trkpt>
      <trkpt lat="43.60243" lon="3.77694">
        <ele>52</ele>
        <time>2021-01-23T14:04:08Z</time>
      </trkpt>
      <trkpt lat="43.60252" lon="3.77698">
        <ele>51.9</ele>
        <time>2021-01-23T14:04:09Z</time>
      </trkpt>
      <trkpt lat="43.6026" lon="3.77703">
        <ele>51.7</ele>
        <time>2021-01-23T14:04:10Z</time>
      </trkpt>
      <trkpt lat="43.60269" lon="3.77707">
        <ele>51.5</ele>
        <time>2021-01-23T14:04:11Z</time>
      </trkpt>
      <trkpt lat="43.60277" lon="3.77711">
        <ele>51.4</ele>
        <time>2021-01-23T14:04:12Z</time>
      </trkpt>
      <trkpt lat="43.60286" lon="3.77715">
        <ele>51.3</ele>
        <time>2021-01-23T14:04:13Z</time>
      </trkpt>
      <trkpt lat="43.60295" lon="3.77718">
        <ele>51.2</ele>
        <time>2021-01-23T14:04:14Z</time>
      </trkpt>
      <trkpt lat="43.60303" lon="3.77722">
        <ele>51</ele>
        <time>2021-01-23T14:04:15Z</time>
      </trkpt>
      <trkpt lat="43.60312" lon="3.77726">
        <ele>51</ele>
        <time>2021-01-23T14:04:16Z</time>
      </trkpt>
      <trkpt lat="43.6032" lon="3.77729">
        <ele>53</ele>
        <time>2021-01-23T14:04:17Z</time>
      </trkpt>
      <trkpt lat="43.60328" lon="3.77733">
        <ele>50.7</ele>
        <time>2021-01-23T14:04:18Z</time>
      </trkpt>
      <trkpt lat="43.60336" lon="3.77738">
        <ele>50.4</ele>
        <time>2021-01-23T14:04:19Z</time>
      </trkpt>
      <trkpt lat="43.60345" lon="3.77742">
        <ele>50.2</ele>
        <time>2021-01-23T14:04:20Z</time>
      </trkpt>
      <trkpt lat="43.60353" lon="3.77745">
        <ele>50.1</ele>
        <time>2021-01-23T14:04:21Z</time>
      </trkpt>
      <trkpt lat="43.60362" lon="3.77746">
        <ele>50.1</ele>
        <time>2021-01-23T14:04:22Z</time>
      </trkpt>
      <trkpt lat="43.60371" lon="3.77748">
        <ele>50.7</ele>
        <time>2021-01-23T14:04:23Z</time>
      </trkpt>
      <trkpt lat="43.60378" lon="3.77751">
        <ele>51.3</ele>
        <time>2021-01-23T14:04:24Z</time>
      </trkpt>
      <trkpt lat="43.60385" lon="3.77755">
        <ele>51.9</ele>
        <time>2021-01-23T14:04:25Z</time>
      </trkpt>
      <trkpt lat="43.6039" lon="3.77761">
        <ele>52.5</ele>
        <time>2021-01-23T14:04:26Z</time>
      </trkpt>
      <trkpt lat="43.60395" lon="3.77767">
        <ele>53</ele>
        <time>2021-01-23T14:04:27Z</time>
      </trkpt>
      <trkpt lat="43.60399" lon="3.77773">
        <ele>53.6</ele>
        <time>2021-01-23T14:04:28Z</time>
      </trkpt>
      <trkpt lat="43.60403" lon="3.77779">
        <ele>54</ele>
        <time>2021-01-23T14:04:29Z</time>
      </trkpt>
      <trkpt lat="43.60407" lon="3.77784">
        <ele>54.4</ele>
        <time>2021-01-23T14:04:30Z</time>
      </trkpt>
      <trkpt lat="43.60411" lon="3.7779">
        <ele>54.7</ele>
        <time>2021-01-23T14:04:31Z</time>
      </trkpt>
      <trkpt lat="43.60415" lon="3.77795">
        <ele>54.9</ele>
        <time>2021-01-23T14:04:32Z</time>
      </trkpt>
      <trkpt lat="43.6042" lon="3.778">
        <ele>55.3</ele>
        <time>2021-01-23T14:04:33Z</time>
      </trkpt>
      <trkpt lat="43.60424" lon="3.77805">
        <ele>55.8</ele>
        <time>2021-01-23T14:04:34Z</time>
      </trkpt>
      <trkpt lat="43.60428" lon="3.77811">
        <ele>56.4</ele>
        <time>2021-01-23T14:04:35Z</time>
      </trkpt>
      <trkpt lat="43.60432" lon="3.77816">
        <ele>56.8</ele>
        <time>2021-01-23T14:04:36Z</time>
      </trkpt>
      <trkpt lat="43.60435" lon="3.77822">
        <ele>57</ele>
        <time>2021-01-23T14:04:37Z</time>
      </trkpt>
      <trkpt lat="43.60439" lon="3.77827">
        <ele>57.1</ele>
        <time>2021-01-23T14:04:38Z</time>
      </trkpt>
      <trkpt lat="43.60442" lon="3.77831">
        <ele>57.1</ele>
        <time>2021-01-23T14:04:39Z</time>
      </trkpt>
      <trkpt lat="43.60445" lon="3.77836">
        <ele>57.1</ele>
        <time>2021-01-23T14:04:40Z</time>
      </trkpt>
      <trkpt lat="43.60448" lon="3.77841">
        <ele>57.5</ele>
        <time>2021-01-23T14:04:41Z</time>
      </trkpt>
      <trkpt lat="43.6045" lon="3.77845">
        <ele>57.7</ele>
        <time>2021-01-23T14:04:42Z</time>
      </trkpt>
      <trkpt lat="43.60453" lon="3.77849">
        <ele>58</ele>
        <time>2021-01-23T14:04:43Z</time>
      </trkpt>
      <trkpt lat="43.60456" lon="3.77854">
        <ele>58.3</ele>
        <time>2021-01-23T14:04:44Z</time>
      </trkpt>
      <trkpt lat="43.60458" lon="3.77857">
        <ele>58.4</ele>
        <time>2021-01-23T14:04:45Z</time>
      </trkpt>
      <trkpt lat="43.6046" lon="3.77861">
        <ele>58.6</ele>
        <time>2021-01-23T14:04:46Z</time>
      </trkpt>
      <trkpt lat="43.60462" lon="3.77865">
        <ele>59</ele>
        <time>2021-01-23T14:04:47Z</time>
      </trkpt>
      <trkpt lat="43.60465" lon="3.77869">
        <ele>58.5</ele>
        <time>2021-01-23T14:04:48Z</time>
      </trkpt>
      <trkpt lat="43.60467" lon="3.77872">
        <ele>58.5</ele>
        <time>2021-01-23T14:04:49Z</time>
      </trkpt>
      <trkpt lat="43.60469" lon="3.77876">
        <ele>58.4</ele>
        <time>2021-01-23T14:04:50Z</time>
      </trkpt>
      <trkpt lat="43.60471" lon="3.7788">
        <ele>58.3</ele>
        <time>2021-01-23T14:04:51Z</time>
      </trkpt>
      <trkpt lat="43.60474" lon="3.77884">
        <ele>58.3</ele>
        <time>2021-01-23T14:04:52Z</time>
      </trkpt>
      <trkpt lat="43.60476" lon="3.77887">
        <ele>58.3</ele>
        <time>2021-01-23T14:04:53Z</time>
      </trkpt>
      <trkpt lat="43.60479" lon="3.77891">
        <ele>58.5</ele>
        <time>2021-01-23T14:04:54Z</time>
      </trkpt>
      <trkpt lat="43.60481" lon="3.77894">
        <ele>58.6</ele>
        <time>2021-01-23T14:04:55Z</time>
      </trkpt>
      <trkpt lat="43.60483" lon="3.77898">
        <ele>58.8</ele>
        <time>2021-01-23T14:04:56Z</time>
      </trkpt>
      <trkpt lat="43.60485" lon="3.77902">
        <ele>59</ele>
        <time>2021-01-23T14:04:57Z</time>
      </trkpt>
      <trkpt lat="43.60487" lon="3.77906">
        <ele>59.1</ele>
        <time>2021-01-23T14:04:58Z</time>
      </trkpt>
      <trkpt lat="43.60489" lon="3.7791">
        <ele>59.2</ele>
        <time>2021-01-23T14:04:59Z</time>
      </trkpt>
      <trkpt lat="43.60491" lon="3.77915">
        <ele>59.4</ele>
        <time>2021-01-23T14:05:00Z</time>
      </trkpt>
      <trkpt lat="43.60494" lon="3.77919">
        <ele>59.4</ele>
        <time>2021-01-23T14:05:01Z</time>
      </trkpt>
      <trkpt lat="43.60497" lon="3.77923">
        <ele>59.4</ele>
        <time>2021-01-23T14:05:02Z</time>
      </trkpt>
      <trkpt lat="43.60499" lon="3.77927">
        <ele>59.2</ele>
        <time>2021-01-23T14:05:03Z</time>
      </trkpt>
      <trkpt lat="43.60502" lon="3.77931">
        <ele>59.1</ele>
        <time>2021-01-23T14:05:04Z</time>
      </trkpt>
      <trkpt lat="43.60505" lon="3.77935">
        <ele>59</ele>
        <time>2021-01-23T14:05:05Z</time>
      </trkpt>
      <trkpt lat="43.60508" lon="3.77939">
        <ele>58.9</ele>
        <time>2021-01-23T14:05:06Z</time>
      </trkpt>
      <trkpt lat="43.60511" lon="3.77942">
        <ele>59</ele>
        <time>2021-01-23T14:05:07Z</time>
      </trkpt>
      <trkpt lat="43.60514" lon="3.77947">
        <ele>58.9</ele>
        <time>2021-01-23T14:05:08Z</time>
      </trkpt>
      <trkpt lat="43.60518" lon="3.77951">
        <ele>58.9</ele>
        <time>2021-01-23T14:05:09Z</time>
      </trkpt>
      <trkpt lat="43.60521" lon="3.77955">
        <ele>58.8</ele>
        <time>2021-01-23T14:05:10Z</time>
      </trkpt>
      <trkpt lat="43.60525" lon="3.7796">
        <ele>58.7</ele>
        <time>2021-01-23T14:05:11Z</time>
      </trkpt>
      <trkpt lat="43.60528" lon="3.77964">
        <ele>58.6</ele>
        <time>2021-01-23T14:05:12Z</time>
      </trkpt>
      <trkpt lat="43.60532" lon="3.77968">
        <ele>58.4</ele>
        <time>2021-01-23T14:05:13Z</time>
      </trkpt>
      <trkpt lat="43.60535" lon="3.77972">
        <ele>58.3</ele>
        <time>2021-01-23T14:05:14Z</time>
      </trkpt>
      <trkpt lat="43.60538" lon="3.77976">
        <ele>58.2</ele>
        <time>2021-01-23T14:05:15Z</time>
      </trkpt>
      <trkpt lat="43.60542" lon="3.7798">
        <ele>58.2</ele>
        <time>2021-01-23T14:05:16Z</time>
      </trkpt>
      <trkpt lat="43.60545" lon="3.77983">
        <ele>59</ele>
        <time>2021-01-23T14:05:17Z</time>
      </trkpt>
      <trkpt lat="43.60548" lon="3.77986">
        <ele>58.2</ele>
        <time>2021-01-23T14:05:18Z</time>
      </trkpt>
      <trkpt lat="43.60551" lon="3.77989">
        <ele>58.2</ele>
        <time>2021-01-23T14:05:19Z</time>
      </trkpt>
      <trkpt lat="43.60554" lon="3.77992">
        <ele>58.2</ele>
        <time>2021-01-23T14:05:20Z</time>
      </trkpt>
      <trkpt lat="43.60557" lon="3.77995">
        <ele>58.2</ele>
        <time>2021-01-23T14:05:21Z</time>
      </trkpt>
      <trkpt lat="43.6056" lon="3.77998">
        <ele>58.2</ele>
        <time>2021-01-23T14:05:22Z</time>
      </trkpt>
      <trkpt lat="43.60562" lon="3.78001">
        <ele>58.2</ele>
        <time>2021-01-23T14:05:23Z</time>
      </trkpt>
      <trkpt lat="43.60564" lon="3.78005">
        <ele>58.3</ele>
        <time>2021-01-23T14:05:24Z</time>
      </trkpt>
      <trkpt lat="43.60565" lon="3.78009">
        <ele>58.3</ele>
        <time>2021-01-23T14:05:25Z</time>
      </trkpt>
      <trkpt lat="43.60565" lon="3.78013">
        <ele>58.3</ele>
        <time>2021-01-23T14:05:26Z</time>
      </trkpt>
      <trkpt lat="43.60563" lon="3.78017">
        <ele>59</ele>
        <time>2021-01-23T14:05:27Z</time>
      </trkpt>
      <trkpt lat="43.60561" lon="3.78021">
        <ele>58.2</ele>
        <time>2021-01-23T14:05:28Z</time>
      </trkpt>
      <trkpt lat="43.60561" lon="3.78026">
        <ele>58.2</ele>
        <time>2021-01-23T14:05:29Z</time>
      </trkpt>
      <trkpt lat="43.60561" lon="3.78032">
        <ele>58.1</ele>
        <time>2021-01-23T14:05:30Z</time>
      </trkpt>
      <trkpt lat="43.60561" lon="3.78038">
        <ele>57.9</ele>
        <time>2021-01-23T14:05:31Z</time>
      </trkpt>
      <trkpt lat="43.60561" lon="3.78044">
        <ele>57.7</ele>
        <time>2021-01-23T14:05:32Z</time>
      </trkpt>
      <trkpt lat="43.60561" lon="3.7805">
        <ele>57.6</ele>
        <time>2021-01-23T14:05:33Z</time>
      </trkpt>
      <trkpt lat="43.60562" lon="3.78056">
        <ele>57.5</ele>
        <time>2021-01-23T14:05:34Z</time>
      </trkpt>
      <trkpt lat="43.60563" lon="3.78062">
        <ele>57.7</ele>
        <time>2021-01-23T14:05:35Z</time>
      </trkpt>
      <trkpt lat="43.60564" lon="3.78068">
        <ele>57.9</ele>
        <time>2021-01-23T14:05:36Z</time>
      </trkpt>
      <trkpt lat="43.60565" lon="3.78074">
        <ele>59</ele>
        <time>2021-01-23T14:05:37Z</time>
      </trkpt>
      <trkpt lat="43.60566" lon="3.7808">
        <ele>58.3</ele>
        <time>2021-01-23T14:05:38Z</time>
      </trkpt>
      <trkpt lat="43.60567" lon="3.78086">
        <ele>58.4</ele>
        <time>2021-01-23T14:05:39Z</time>
      </trkpt>
      <trkpt lat="43.60569" lon="3.78092">
        <ele>58.5</ele>
        <time>2021-01-23T14:05:40Z</time>
      </trkpt>
      <trkpt lat="43.6057" lon="3.78098">
        <ele>58.5</ele>
        <time>2021-01-23T14:05:41Z</time>
      </trkpt>
      <trkpt lat="43.60571" lon="3.78105">
        <ele>58.5</ele>
        <time>2021-01-23T14:05:42Z</time>
      </trkpt>
      <trkpt lat="43.60573" lon="3.78111">
        <ele>58.4</ele>
        <time>2021-01-23T14:05:43Z</time>
      </trkpt>
      <trkpt lat="43.60574" lon="3.78117">
        <ele>58.4</ele>
        <time>2021-01-23T14:05:44Z</time>
      </trkpt>
      <trkpt lat="43.60575" lon="3.78124">
        <ele>58.4</ele>
        <time>2021-01-23T14:05:45Z</time>
      </trkpt>
      <trkpt lat="43.60577" lon="3.7813">
        <ele>58.4</ele>
        <time>2021-01-23T14:05:46Z</time>
      </trkpt>
      <trkpt lat="43.60578" lon="3.78136">
        <ele>58.4</ele>
        <time>2021-01-23T14:05:47Z</time>
      </trkpt>
      <trkpt lat="43.60579" lon="3.78142">
        <ele>60</ele>
        <time>2021-01-23T14:05:48Z</time>
      </trkpt>
      <trkpt lat="43.60581" lon="3.78149">
        <ele>58.2</ele>
        <time>2021-01-23T14:05:49Z</time>
      </trkpt>
      <trkpt lat="43.60582" lon="3.78155">
        <ele>58.1</ele>
        <time>2021-01-23T14:05:50Z</time>
      </trkpt>
      <trkpt lat="43.60584" lon="3.78161">
        <ele>58</ele>
        <time>2021-01-23T14:05:51Z</time>
      </trkpt>
      <trkpt lat="43.60585" lon="3.78167">
        <ele>58.1</ele>
        <time>2021-01-23T14:05:52Z</time>
      </trkpt>
      <trkpt lat="43.60587" lon="3.78173">
        <ele>58.3</ele>
        <time>2021-01-23T14:05:53Z</time>
      </trkpt>
      <trkpt lat="43.60589" lon="3.78179">
        <ele>58.6</ele>
        <time>2021-01-23T14:05:54Z</time>
      </trkpt>
      <trkpt lat="43.60591" lon="3.78184">
        <ele>58.7</ele>
        <time>2021-01-23T14:05:55Z</time>
      </trkpt>
      <trkpt lat="43.60593" lon="3.7819">
        <ele>58.9</ele>
        <time>2021-01-23T14:05:56Z</time>
      </trkpt>
      <trkpt lat="43.60595" lon="3.78196">
        <ele>60</ele>
        <time>2021-01-23T14:05:57Z</time>
      </trkpt>
      <trkpt lat="43.60597" lon="3.78202">
        <ele>59.1</ele>
        <time>2021-01-23T14:05:58Z</time>
      </trkpt>
      <trkpt lat="43.60599" lon="3.78208">
        <ele>59.2</ele>
        <time>2021-01-23T14:05:59Z</time>
      </trkpt>
      <trkpt lat="43.60602" lon="3.78214">
        <ele>59.2</ele>
        <time>2021-01-23T14:06:00Z</time>
      </trkpt>
      <trkpt lat="43.60604" lon="3.78219">
        <ele>59.2</ele>
        <time>2021-01-23T14:06:01Z</time>
      </trkpt>
      <trkpt lat="43.60606" lon="3.78225">
        <ele>59.2</ele>
        <time>2021-01-23T14:06:02Z</time>
      </trkpt>
      <trkpt lat="43.60609" lon="3.78231">
        <ele>59.1</ele>
        <time>2021-01-23T14:06:03Z</time>
      </trkpt>
      <trkpt lat="43.6061" lon="3.78237">
        <ele>59.1</ele>
        <time>2021-01-23T14:06:04Z</time>
      </trkpt>
      <trkpt lat="43.60612" lon="3.78243">
        <ele>59.1</ele>
        <time>2021-01-23T14:06:05Z</time>
      </trkpt>
      <trkpt lat="43.60615" lon="3.78249">
        <ele>59.3</ele>
        <time>2021-01-23T14:06:06Z</time>
      </trkpt>
      <trkpt lat="43.60617" lon="3.78255">
        <ele>61</ele>
        <time>2021-01-23T14:06:07Z</time>
      </trkpt>
      <trkpt lat="43.60619" lon="3.7826">
        <ele>59.8</ele>
        <time>2021-01-23T14:06:08Z</time>
      </trkpt>
      <trkpt lat="43.60621" lon="3.78266">
        <ele>60.1</ele>
        <time>2021-01-23T14:06:09Z</time>
      </trkpt>
      <trkpt lat="43.60624" lon="3.78272">
        <ele>60.4</ele>
        <time>2021-01-23T14:06:10Z</time>
      </trkpt>
      <trkpt lat="43.60626" lon="3.78278">
        <ele>60.5</ele>
        <time>2021-01-23T14:06:11Z</time>
      </trkpt>
      <trkpt lat="43.60629" lon="3.78283">
        <ele>60.6</ele>
        <time>2021-01-23T14:06:12Z</time>
      </trkpt>
      <trkpt lat="43.60631" lon="3.78289">
        <ele>60.5</ele>
        <time>2021-01-23T14:06:13Z</time>
      </trkpt>
      <trkpt lat="43.60634" lon="3.78294">
        <ele>60.4</ele>
        <time>2021-01-23T14:06:14Z</time>
      </trkpt>
      <trkpt lat="43.60637" lon="3.783">
        <ele>60.2</ele>
        <time>2021-01-23T14:06:15Z</time>
      </trkpt>
      <trkpt lat="43.60639" lon="3.78305">
        <ele>60</ele>
        <time>2021-01-23T14:06:16Z</time>
      </trkpt>
      <trkpt lat="43.60642" lon="3.78311">
        <ele>63</ele>
        <time>2021-01-23T14:06:17Z</time>
      </trkpt>
      <trkpt lat="43.60644" lon="3.78316">
        <ele>60.3</ele>
        <time>2021-01-23T14:06:18Z</time>
      </trkpt>
      <trkpt lat="43.60647" lon="3.78321">
        <ele>60.4</ele>
        <time>2021-01-23T14:06:19Z</time>
      </trkpt>
      <trkpt lat="43.60649" lon="3.78326">
        <ele>60.5</ele>
        <time>2021-01-23T14:06:20Z</time>
      </trkpt>
      <trkpt lat="43.60652" lon="3.78331">
        <ele>60.5</ele>
        <time>2021-01-23T14:06:21Z</time>
      </trkpt>
      <trkpt lat="43.60655" lon="3.78336">
        <ele>60.6</ele>
        <time>2021-01-23T14:06:22Z</time>
      </trkpt>
      <trkpt lat="43.60657" lon="3.78341">
        <ele>60.7</ele>
        <time>2021-01-23T14:06:23Z</time>
      </trkpt>
      <trkpt lat="43.6066" lon="3.78346">
        <ele>60.9</ele>
        <time>2021-01-23T14:06:24Z</time>
      </trkpt>
      <trkpt lat="43.60661" lon="3.78352">
        <ele>60.9</ele>
        <time>2021-01-23T14:06:25Z</time>
      </trkpt>
      <trkpt lat="43.60662" lon="3.78358">
        <ele>61</ele>
        <time>2021-01-23T14:06:26Z</time>
      </trkpt>
      <trkpt lat="43.60661" lon="3.78364">
        <ele>64</ele>
        <time>2021-01-23T14:06:27Z</time>
      </trkpt>
      <trkpt lat="43.6066" lon="3.7837">
        <ele>61.3</ele>
        <time>2021-01-23T14:06:28Z</time>
      </trkpt>
      <trkpt lat="43.6066" lon="3.78376">
        <ele>61.5</ele>
        <time>2021-01-23T14:06:29Z</time>
      </trkpt>
      <trkpt lat="43.60662" lon="3.78382">
        <ele>61.8</ele>
        <time>2021-01-23T14:06:30Z</time>
      </trkpt>
      <trkpt lat="43.60664" lon="3.78386">
        <ele>61.9</ele>
        <time>2021-01-23T14:06:31Z</time>
      </trkpt>
      <trkpt lat="43.60667" lon="3.7839">
        <ele>62</ele>
        <time>2021-01-23T14:06:32Z</time>
      </trkpt>
      <trkpt lat="43.60671" lon="3.78394">
        <ele>62</ele>
        <time>2021-01-23T14:06:33Z</time>
      </trkpt>
      <trkpt lat="43.60674" lon="3.78398">
        <ele>62</ele>
        <time>2021-01-23T14:06:34Z</time>
      </trkpt>
      <trkpt lat="43.60677" lon="3.78402">
        <ele>62</ele>
        <time>2021-01-23T14:06:35Z</time>
      </trkpt>
      <trkpt lat="43.6068" lon="3.78406">
        <ele>62</ele>
        <time>2021-01-23T14:06:36Z</time>
      </trkpt>
      <trkpt lat="43.60683" lon="3.78411">
        <ele>65</ele>
        <time>2021-01-23T14:06:37Z</time>
      </trkpt>
      <trkpt lat="43.60687" lon="3.78419">
        <ele>62.1</ele>
        <time>2021-01-23T14:06:38Z</time>
      </trkpt>
      <trkpt lat="43.6069" lon="3.78424">
        <ele>62.3</ele>
        <time>2021-01-23T14:06:40Z</time>
      </trkpt>
      <trkpt lat="43.60695" lon="3.78434">
        <ele>62.6</ele>
        <time>2021-01-23T14:06:41Z</time>
      </trkpt>
      <trkpt lat="43.60697" lon="3.78438">
        <ele>62.8</ele>
        <time>2021-01-23T14:06:43Z</time>
      </trkpt>
      <trkpt lat="43.60699" lon="3.78443">
        <ele>63</ele>
        <time>2021-01-23T14:06:44Z</time>
      </trkpt>
      <trkpt lat="43.60704" lon="3.78452">
        <ele>63</ele>
        <time>2021-01-23T14:06:45Z</time>
      </trkpt>
      <trkpt lat="43.60706" lon="3.78457">
        <ele>66</ele>
        <time>2021-01-23T14:06:47Z</time>
      </trkpt>
      <trkpt lat="43.60708" lon="3.78461">
        <ele>63</ele>
        <time>2021-01-23T14:06:48Z</time>
      </trkpt>
      <trkpt lat="43.60711" lon="3.78466">
        <ele>63</ele>
        <time>2021-01-23T14:06:49Z</time>
      </trkpt>
      <trkpt lat="43.60713" lon="3.7847">
        <ele>63</ele>
        <time>2021-01-23T14:06:50Z</time>
      </trkpt>
      <trkpt lat="43.60715" lon="3.78475">
        <ele>63</ele>
        <time>2021-01-23T14:06:51Z</time>
      </trkpt>
      <trkpt lat="43.60718" lon="3.7848">
        <ele>63</ele>
        <time>2021-01-23T14:06:52Z</time>
      </trkpt>
      <trkpt lat="43.6072" lon="3.78485">
        <ele>63</ele>
        <time>2021-01-23T14:06:53Z</time>
      </trkpt>
      <trkpt lat="43.60722" lon="3.7849">
        <ele>63</ele>
        <time>2021-01-23T14:06:54Z</time>
      </trkpt>
      <trkpt lat="43.60725" lon="3.78495">
        <ele>63.1</ele>
        <time>2021-01-23T14:06:55Z</time>
      </trkpt>
      <trkpt lat="43.60727" lon="3.785">
        <ele>63.2</ele>
        <time>2021-01-23T14:06:56Z</time>
      </trkpt>
      <trkpt lat="43.60729" lon="3.78505">
        <ele>66</ele>
        <time>2021-01-23T14:06:57Z</time>
      </trkpt>
      <trkpt lat="43.6073" lon="3.78511">
        <ele>63.3</ele>
        <time>2021-01-23T14:06:58Z</time>
      </trkpt>
      <trkpt lat="43.60732" lon="3.78516">
        <ele>63.4</ele>
        <time>2021-01-23T14:06:59Z</time>
      </trkpt>
      <trkpt lat="43.60734" lon="3.78521">
        <ele>63.4</ele>
        <time>2021-01-23T14:07:00Z</time>
      </trkpt>
      <trkpt lat="43.60736" lon="3.78526">
        <ele>63.5</ele>
        <time>2021-01-23T14:07:01Z</time>
      </trkpt>
      <trkpt lat="43.60739" lon="3.78531">
        <ele>63.6</ele>
        <time>2021-01-23T14:07:02Z</time>
      </trkpt>
      <trkpt lat="43.60742" lon="3.78535">
        <ele>63.8</ele>
        <time>2021-01-23T14:07:03Z</time>
      </trkpt>
      <trkpt lat="43.60745" lon="3.78539">
        <ele>63.9</ele>
        <time>2021-01-23T14:07:04Z</time>
      </trkpt>
      <trkpt lat="43.60748" lon="3.78543">
        <ele>64</ele>
        <time>2021-01-23T14:07:05Z</time>
      </trkpt>
      <trkpt lat="43.6075" lon="3.78547">
        <ele>64</ele>
        <time>2021-01-23T14:07:06Z</time>
      </trkpt>
      <trkpt lat="43.60753" lon="3.78552">
        <ele>67</ele>
        <time>2021-01-23T14:07:07Z</time>
      </trkpt>
      <trkpt lat="43.60755" lon="3.78557">
        <ele>64</ele>
        <time>2021-01-23T14:07:08Z</time>
      </trkpt>
      <trkpt lat="43.60756" lon="3.78562">
        <ele>64.1</ele>
        <time>2021-01-23T14:07:09Z</time>
      </trkpt>
      <trkpt lat="43.60757" lon="3.78567">
        <ele>64.1</ele>
        <time>2021-01-23T14:07:10Z</time>
      </trkpt>
      <trkpt lat="43.60759" lon="3.78572">
        <ele>64.2</ele>
        <time>2021-01-23T14:07:11Z</time>
      </trkpt>
      <trkpt lat="43.6076" lon="3.78578">
        <ele>64.3</ele>
        <time>2021-01-23T14:07:12Z</time>
      </trkpt>
      <trkpt lat="43.60761" lon="3.78583">
        <ele>64.4</ele>
        <time>2021-01-23T14:07:13Z</time>
      </trkpt>
      <trkpt lat="43.60763" lon="3.78589">
        <ele>64.6</ele>
        <time>2021-01-23T14:07:14Z</time>
      </trkpt>
      <trkpt lat="43.60765" lon="3.78594">
        <ele>64.7</ele>
        <time>2021-01-23T14:07:15Z</time>
      </trkpt>
      <trkpt lat="43.60767" lon="3.78599">
        <ele>64.8</ele>
        <time>2021-01-23T14:07:16Z</time>
      </trkpt>
      <trkpt lat="43.6077" lon="3.78603">
        <ele>67</ele>
        <time>2021-01-23T14:07:17Z</time>
      </trkpt>
      <trkpt lat="43.60774" lon="3.78607">
        <ele>65</ele>
        <time>2021-01-23T14:07:18Z</time>
      </trkpt>
      <trkpt lat="43.60777" lon="3.78612">
        <ele>65</ele>
        <time>2021-01-23T14:07:19Z</time>
      </trkpt>
      <trkpt lat="43.60779" lon="3.78618">
        <ele>65</ele>
        <time>2021-01-23T14:07:20Z</time>
      </trkpt>
      <trkpt lat="43.60781" lon="3.78622">
        <ele>65</ele>
        <time>2021-01-23T14:07:21Z</time>
      </trkpt>
      <trkpt lat="43.60784" lon="3.78627">
        <ele>65.1</ele>
        <time>2021-01-23T14:07:22Z</time>
      </trkpt>
      <trkpt lat="43.60787" lon="3.78631">
        <ele>65.2</ele>
        <time>2021-01-23T14:07:23Z</time>
      </trkpt>
      <trkpt lat="43.60789" lon="3.78635">
        <ele>65.3</ele>
        <time>2021-01-23T14:07:24Z</time>
      </trkpt>
      <trkpt lat="43.60791" lon="3.78639">
        <ele>65.5</ele>
        <time>2021-01-23T14:07:25Z</time>
      </trkpt>
      <trkpt lat="43.60793" lon="3.78643">
        <ele>65.7</ele>
        <time>2021-01-23T14:07:26Z</time>
      </trkpt>
      <trkpt lat="43.60795" lon="3.78647">
        <ele>67</ele>
        <time>2021-01-23T14:07:27Z</time>
      </trkpt>
      <trkpt lat="43.60798" lon="3.78652">
        <ele>66.2</ele>
        <time>2021-01-23T14:07:28Z</time>
      </trkpt>
      <trkpt lat="43.608" lon="3.78656">
        <ele>66.4</ele>
        <time>2021-01-23T14:07:29Z</time>
      </trkpt>
      <trkpt lat="43.60802" lon="3.78661">
        <ele>66.7</ele>
        <time>2021-01-23T14:07:30Z</time>
      </trkpt>
      <trkpt lat="43.60804" lon="3.78665">
        <ele>66.9</ele>
        <time>2021-01-23T14:07:31Z</time>
      </trkpt>
      <trkpt lat="43.60806" lon="3.78671">
        <ele>66.8</ele>
        <time>2021-01-23T14:07:32Z</time>
      </trkpt>
      <trkpt lat="43.60808" lon="3.78675">
        <ele>66.7</ele>
        <time>2021-01-23T14:07:33Z</time>
      </trkpt>
      <trkpt lat="43.6081" lon="3.78679">
        <ele>66.6</ele>
        <time>2021-01-23T14:07:34Z</time>
      </trkpt>
      <trkpt lat="43.60811" lon="3.78683">
        <ele>66.5</ele>
        <time>2021-01-23T14:07:35Z</time>
      </trkpt>
      <trkpt lat="43.60813" lon="3.78687">
        <ele>66.5</ele>
        <time>2021-01-23T14:07:36Z</time>
      </trkpt>
      <trkpt lat="43.60814" lon="3.7869">
        <ele>67</ele>
        <time>2021-01-23T14:07:37Z</time>
      </trkpt>
      <trkpt lat="43.60816" lon="3.78694">
        <ele>66.4</ele>
        <time>2021-01-23T14:07:39Z</time>
      </trkpt>
      <trkpt lat="43.60817" lon="3.78697">
        <ele>66.4</ele>
        <time>2021-01-23T14:07:40Z</time>
      </trkpt>
      <trkpt lat="43.60818" lon="3.787">
        <ele>66.5</ele>
        <time>2021-01-23T14:07:41Z</time>
      </trkpt>
      <trkpt lat="43.6082" lon="3.78704">
        <ele>66.7</ele>
        <time>2021-01-23T14:07:42Z</time>
      </trkpt>
      <trkpt lat="43.60822" lon="3.78709">
        <ele>66.9</ele>
        <time>2021-01-23T14:07:43Z</time>
      </trkpt>
      <trkpt lat="43.60823" lon="3.78713">
        <ele>67</ele>
        <time>2021-01-23T14:07:44Z</time>
      </trkpt>
      <trkpt lat="43.60825" lon="3.78717">
        <ele>67.3</ele>
        <time>2021-01-23T14:07:45Z</time>
      </trkpt>
      <trkpt lat="43.60827" lon="3.78722">
        <ele>67.5</ele>
        <time>2021-01-23T14:07:46Z</time>
      </trkpt>
      <trkpt lat="43.60829" lon="3.78726">
        <ele>67</ele>
        <time>2021-01-23T14:07:47Z</time>
      </trkpt>
      <trkpt lat="43.60831" lon="3.78731">
        <ele>68.1</ele>
        <time>2021-01-23T14:07:48Z</time>
      </trkpt>
      <trkpt lat="43.60833" lon="3.78735">
        <ele>68.4</ele>
        <time>2021-01-23T14:07:49Z</time>
      </trkpt>
      <trkpt lat="43.60835" lon="3.78738">
        <ele>68.6</ele>
        <time>2021-01-23T14:07:50Z</time>
      </trkpt>
      <trkpt lat="43.60836" lon="3.78741">
        <ele>68.7</ele>
        <time>2021-01-23T14:07:51Z</time>
      </trkpt>
      <trkpt lat="43.60838" lon="3.78744">
        <ele>68.8</ele>
        <time>2021-01-23T14:07:52Z</time>
      </trkpt>
      <trkpt lat="43.60839" lon="3.78747">
        <ele>68.9</ele>
        <time>2021-01-23T14:07:53Z</time>
      </trkpt>
      <trkpt lat="43.6084" lon="3.78751">
        <ele>69</ele>
        <time>2021-01-23T14:07:54Z</time>
      </trkpt>
      <trkpt lat="43.60842" lon="3.78754">
        <ele>69.1</ele>
        <time>2021-01-23T14:07:55Z</time>
      </trkpt>
      <trkpt lat="43.60843" lon="3.78758">
        <ele>69.3</ele>
        <time>2021-01-23T14:07:56Z</time>
      </trkpt>
      <trkpt lat="43.60844" lon="3.78761">
        <ele>68</ele>
        <time>2021-01-23T14:07:57Z</time>
      </trkpt>
      <trkpt lat="43.60846" lon="3.78765">
        <ele>69.7</ele>
        <time>2021-01-23T14:07:58Z</time>
      </trkpt>
      <trkpt lat="43.60847" lon="3.78768">
        <ele>70</ele>
        <time>2021-01-23T14:07:59Z</time>
      </trkpt>
      <trkpt lat="43.60849" lon="3.78772">
        <ele>70.3</ele>
        <time>2021-01-23T14:08:00Z</time>
      </trkpt>
      <trkpt lat="43.6085" lon="3.78776">
        <ele>70.7</ele>
        <time>2021-01-23T14:08:01Z</time>
      </trkpt>
      <trkpt lat="43.60852" lon="3.7878">
        <ele>71.2</ele>
        <time>2021-01-23T14:08:02Z</time>
      </trkpt>
      <trkpt lat="43.60853" lon="3.78783">
        <ele>71.6</ele>
        <time>2021-01-23T14:08:03Z</time>
      </trkpt>
      <trkpt lat="43.60855" lon="3.78786">
        <ele>72.1</ele>
        <time>2021-01-23T14:08:04Z</time>
      </trkpt>
      <trkpt lat="43.60856" lon="3.78789">
        <ele>72.4</ele>
        <time>2021-01-23T14:08:05Z</time>
      </trkpt>
      <trkpt lat="43.60858" lon="3.78791">
        <ele>72.7</ele>
        <time>2021-01-23T14:08:06Z</time>
      </trkpt>
      <trkpt lat="43.60859" lon="3.78794">
        <ele>71</ele>
        <time>2021-01-23T14:08:07Z</time>
      </trkpt>
      <trkpt lat="43.6086" lon="3.78797">
        <ele>73.3</ele>
        <time>2021-01-23T14:08:08Z</time>
      </trkpt>
      <trkpt lat="43.60862" lon="3.788">
        <ele>73.7</ele>
        <time>2021-01-23T14:08:09Z</time>
      </trkpt>
      <trkpt lat="43.60863" lon="3.78803">
        <ele>74</ele>
        <time>2021-01-23T14:08:10Z</time>
      </trkpt>
      <trkpt lat="43.60864" lon="3.78806">
        <ele>74.2</ele>
        <time>2021-01-23T14:08:11Z</time>
      </trkpt>
      <trkpt lat="43.60866" lon="3.78808">
        <ele>74.5</ele>
        <time>2021-01-23T14:08:12Z</time>
      </trkpt>
      <trkpt lat="43.60867" lon="3.78811">
        <ele>74.8</ele>
        <time>2021-01-23T14:08:13Z</time>
      </trkpt>
      <trkpt lat="43.60868" lon="3.78813">
        <ele>75</ele>
        <time>2021-01-23T14:08:14Z</time>
      </trkpt>
      <trkpt lat="43.60869" lon="3.78816">
        <ele>75.2</ele>
        <time>2021-01-23T14:08:15Z</time>
      </trkpt>
      <trkpt lat="43.6087" lon="3.78819">
        <ele>75.5</ele>
        <time>2021-01-23T14:08:16Z</time>
      </trkpt>
      <trkpt lat="43.60871" lon="3.78821">
        <ele>73</ele>
        <time>2021-01-23T14:08:17Z</time>
      </trkpt>
      <trkpt lat="43.60873" lon="3.78823">
        <ele>75.8</ele>
        <time>2021-01-23T14:08:18Z</time>
      </trkpt>
      <trkpt lat="43.60874" lon="3.78825">
        <ele>76</ele>
        <time>2021-01-23T14:08:19Z</time>
      </trkpt>
      <trkpt lat="43.60876" lon="3.78827">
        <ele>76.2</ele>
        <time>2021-01-23T14:08:20Z</time>
      </trkpt>
      <trkpt lat="43.60877" lon="3.78829">
        <ele>76.3</ele>
        <time>2021-01-23T14:08:21Z</time>
      </trkpt>
      <trkpt lat="43.60879" lon="3.78832">
        <ele>76.6</ele>
        <time>2021-01-23T14:08:22Z</time>
      </trkpt>
      <trkpt lat="43.6088" lon="3.78834">
        <ele>76.7</ele>
        <time>2021-01-23T14:08:23Z</time>
      </trkpt>
      <trkpt lat="43.60881" lon="3.78837">
        <ele>76.8</ele>
        <time>2021-01-23T14:08:24Z</time>
      </trkpt>
      <trkpt lat="43.60882" lon="3.7884">
        <ele>77</ele>
        <time>2021-01-23T14:08:25Z</time>
      </trkpt>
      <trkpt lat="43.60882" lon="3.78844">
        <ele>77.1</ele>
        <time>2021-01-23T14:08:26Z</time>
      </trkpt>
      <trkpt lat="43.60883" lon="3.78848">
        <ele>76</ele>
        <time>2021-01-23T14:08:27Z</time>
      </trkpt>
      <trkpt lat="43.60884" lon="3.78852">
        <ele>77.5</ele>
        <time>2021-01-23T14:08:28Z</time>
      </trkpt>
      <trkpt lat="43.60884" lon="3.78856">
        <ele>77.6</ele>
        <time>2021-01-23T14:08:29Z</time>
      </trkpt>
      <trkpt lat="43.60884" lon="3.7886">
        <ele>77.8</ele>
        <time>2021-01-23T14:08:30Z</time>
      </trkpt>
      <trkpt lat="43.60885" lon="3.78863">
        <ele>77.9</ele>
        <time>2021-01-23T14:08:31Z</time>
      </trkpt>
      <trkpt lat="43.60886" lon="3.78866">
        <ele>78.1</ele>
        <time>2021-01-23T14:08:32Z</time>
      </trkpt>
      <trkpt lat="43.60886" lon="3.7887">
        <ele>78.2</ele>
        <time>2021-01-23T14:08:33Z</time>
      </trkpt>
      <trkpt lat="43.60887" lon="3.78874">
        <ele>78.4</ele>
        <time>2021-01-23T14:08:34Z</time>
      </trkpt>
      <trkpt lat="43.60888" lon="3.78877">
        <ele>78.5</ele>
        <time>2021-01-23T14:08:35Z</time>
      </trkpt>
      <trkpt lat="43.60888" lon="3.78881">
        <ele>78.7</ele>
        <time>2021-01-23T14:08:36Z</time>
      </trkpt>
      <trkpt lat="43.60888" lon="3.78888">
        <ele>79</ele>
        <time>2021-01-23T14:08:37Z</time>
      </trkpt>
      <trkpt lat="43.60888" lon="3.78891">
        <ele>79</ele>
        <time>2021-01-23T14:08:39Z</time>
      </trkpt>
      <trkpt lat="43.60888" lon="3.78895">
        <ele>79</ele>
        <time>2021-01-23T14:08:40Z</time>
      </trkpt>
      <trkpt lat="43.60888" lon="3.78898">
        <ele>79</ele>
        <time>2021-01-23T14:08:41Z</time>
      </trkpt>
      <trkpt lat="43.60888" lon="3.78902">
        <ele>79</ele>
        <time>2021-01-23T14:08:42Z</time>
      </trkpt>
      <trkpt lat="43.60888" lon="3.78905">
        <ele>79</ele>
        <time>2021-01-23T14:08:43Z</time>
      </trkpt>
      <trkpt lat="43.60888" lon="3.78909">
        <ele>79</ele>
        <time>2021-01-23T14:08:44Z</time>
      </trkpt>
      <trkpt lat="43.60888" lon="3.78912">
        <ele>79</ele>
        <time>2021-01-23T14:08:45Z</time>
      </trkpt>
      <trkpt lat="43.60888" lon="3.78916">
        <ele>79</ele>
        <time>2021-01-23T14:08:46Z</time>
      </trkpt>
      <trkpt lat="43.60888" lon="3.7892">
        <ele>81</ele>
        <time>2021-01-23T14:08:47Z</time>
      </trkpt>
      <trkpt lat="43.60888" lon="3.78923">
        <ele>79.2</ele>
        <time>2021-01-23T14:08:48Z</time>
      </trkpt>
      <trkpt lat="43.60888" lon="3.78927">
        <ele>79.4</ele>
        <time>2021-01-23T14:08:49Z</time>
      </trkpt>
      <trkpt lat="43.60887" lon="3.7893">
        <ele>79.4</ele>
        <time>2021-01-23T14:08:50Z</time>
      </trkpt>
      <trkpt lat="43.60886" lon="3.78934">
        <ele>79.6</ele>
        <time>2021-01-23T14:08:51Z</time>
      </trkpt>
      <trkpt lat="43.60884" lon="3.78937">
        <ele>79.6</ele>
        <time>2021-01-23T14:08:52Z</time>
      </trkpt>
      <trkpt lat="43.60881" lon="3.7894">
        <ele>79.6</ele>
        <time>2021-01-23T14:08:53Z</time>
      </trkpt>
      <trkpt lat="43.60879" lon="3.78943">
        <ele>79.6</ele>
        <time>2021-01-23T14:08:54Z</time>
      </trkpt>
      <trkpt lat="43.60877" lon="3.78947">
        <ele>79.7</ele>
        <time>2021-01-23T14:08:55Z</time>
      </trkpt>
      <trkpt lat="43.60877" lon="3.78951">
        <ele>79.8</ele>
        <time>2021-01-23T14:08:56Z</time>
      </trkpt>
      <trkpt lat="43.60877" lon="3.7896">
        <ele>81</ele>
        <time>2021-01-23T14:08:57Z</time>
      </trkpt>
      <trkpt lat="43.60877" lon="3.78964">
        <ele>80.3</ele>
        <time>2021-01-23T14:08:59Z</time>
      </trkpt>
      <trkpt lat="43.60876" lon="3.78969">
        <ele>80.4</ele>
        <time>2021-01-23T14:09:00Z</time>
      </trkpt>
      <trkpt lat="43.60876" lon="3.78973">
        <ele>80.5</ele>
        <time>2021-01-23T14:09:01Z</time>
      </trkpt>
      <trkpt lat="43.60875" lon="3.78977">
        <ele>80.5</ele>
        <time>2021-01-23T14:09:02Z</time>
      </trkpt>
      <trkpt lat="43.60874" lon="3.78982">
        <ele>80.5</ele>
        <time>2021-01-23T14:09:03Z</time>
      </trkpt>
      <trkpt lat="43.60873" lon="3.78986">
        <ele>80.4</ele>
        <time>2021-01-23T14:09:04Z</time>
      </trkpt>
      <trkpt lat="43.60872" lon="3.78991">
        <ele>80.4</ele>
        <time>2021-01-23T14:09:05Z</time>
      </trkpt>
      <trkpt lat="43.60871" lon="3.78995">
        <ele>80.4</ele>
        <time>2021-01-23T14:09:06Z</time>
      </trkpt>
      <trkpt lat="43.6087" lon="3.79">
        <ele>82</ele>
        <time>2021-01-23T14:09:07Z</time>
      </trkpt>
      <trkpt lat="43.60869" lon="3.79005">
        <ele>80.1</ele>
        <time>2021-01-23T14:09:08Z</time>
      </trkpt>
      <trkpt lat="43.60868" lon="3.7901">
        <ele>79.9</ele>
        <time>2021-01-23T14:09:09Z</time>
      </trkpt>
      <trkpt lat="43.60867" lon="3.79016">
        <ele>79.6</ele>
        <time>2021-01-23T14:09:10Z</time>
      </trkpt>
      <trkpt lat="43.60865" lon="3.79022">
        <ele>79.3</ele>
        <time>2021-01-23T14:09:11Z</time>
      </trkpt>
      <trkpt lat="43.60864" lon="3.79029">
        <ele>79.1</ele>
        <time>2021-01-23T14:09:12Z</time>
      </trkpt>
      <trkpt lat="43.60863" lon="3.79035">
        <ele>78.8</ele>
        <time>2021-01-23T14:09:13Z</time>
      </trkpt>
      <trkpt lat="43.60861" lon="3.79042">
        <ele>78.5</ele>
        <time>2021-01-23T14:09:14Z</time>
      </trkpt>
      <trkpt lat="43.6086" lon="3.79049">
        <ele>78.3</ele>
        <time>2021-01-23T14:09:15Z</time>
      </trkpt>
      <trkpt lat="43.60859" lon="3.79057">
        <ele>78</ele>
        <time>2021-01-23T14:09:16Z</time>
      </trkpt>
      <trkpt lat="43.60857" lon="3.79064">
        <ele>77.6</ele>
        <time>2021-01-23T14:09:17Z</time>
      </trkpt>
      <trkpt lat="43.60856" lon="3.79072">
        <ele>81</ele>
        <time>2021-01-23T14:09:18Z</time>
      </trkpt>
      <trkpt lat="43.60855" lon="3.7908">
        <ele>76.8</ele>
        <time>2021-01-23T14:09:19Z</time>
      </trkpt>
      <trkpt lat="43.60853" lon="3.79089">
        <ele>76.8</ele>
        <time>2021-01-23T14:09:20Z</time>
      </trkpt>
      <trkpt lat="43.60852" lon="3.79097">
        <ele>76.8</ele>
        <time>2021-01-23T14:09:21Z</time>
      </trkpt>
      <trkpt lat="43.60851" lon="3.79106">
        <ele>76.8</ele>
        <time>2021-01-23T14:09:22Z</time>
      </trkpt>
      <trkpt lat="43.6085" lon="3.79115">
        <ele>76.7</ele>
        <time>2021-01-23T14:09:23Z</time>
      </trkpt>
      <trkpt lat="43.60848" lon="3.79125">
        <ele>76.4</ele>
        <time>2021-01-23T14:09:24Z</time>
      </trkpt>
      <trkpt lat="43.60847" lon="3.79134">
        <ele>76.2</ele>
        <time>2021-01-23T14:09:25Z</time>
      </trkpt>
      <trkpt lat="43.60846" lon="3.79144">
        <ele>75.8</ele>
        <time>2021-01-23T14:09:26Z</time>
      </trkpt>
      <trkpt lat="43.60845" lon="3.79154">
        <ele>78</ele>
        <time>2021-01-23T14:09:27Z</time>
      </trkpt>
      <trkpt lat="43.60844" lon="3.79164">
        <ele>74.8</ele>
        <time>2021-01-23T14:09:28Z</time>
      </trkpt>
      <trkpt lat="43.60843" lon="3.79174">
        <ele>74.1</ele>
        <time>2021-01-23T14:09:29Z</time>
      </trkpt>
      <trkpt lat="43.60842" lon="3.79185">
        <ele>73.4</ele>
        <time>2021-01-23T14:09:30Z</time>
      </trkpt>
      <trkpt lat="43.60841" lon="3.79196">
        <ele>72.6</ele>
        <time>2021-01-23T14:09:31Z</time>
      </trkpt>
      <trkpt lat="43.6084" lon="3.79207">
        <ele>71.5</ele>
        <time>2021-01-23T14:09:32Z</time>
      </trkpt>
      <trkpt lat="43.6084" lon="3.79218">
        <ele>70.4</ele>
        <time>2021-01-23T14:09:33Z</time>
      </trkpt>
      <trkpt lat="43.60839" lon="3.7923">
        <ele>69.8</ele>
        <time>2021-01-23T14:09:34Z</time>
      </trkpt>
      <trkpt lat="43.60839" lon="3.79241">
        <ele>69.5</ele>
        <time>2021-01-23T14:09:35Z</time>
      </trkpt>
      <trkpt lat="43.60838" lon="3.79253">
        <ele>69.1</ele>
        <time>2021-01-23T14:09:36Z</time>
      </trkpt>
      <trkpt lat="43.60838" lon="3.79265">
        <ele>73</ele>
        <time>2021-01-23T14:09:37Z</time>
      </trkpt>
      <trkpt lat="43.60838" lon="3.79278">
        <ele>68.2</ele>
        <time>2021-01-23T14:09:38Z</time>
      </trkpt>
      <trkpt lat="43.60838" lon="3.7929">
        <ele>67.8</ele>
        <time>2021-01-23T14:09:39Z</time>
      </trkpt>
      <trkpt lat="43.60838" lon="3.79303">
        <ele>67.4</ele>
        <time>2021-01-23T14:09:40Z</time>
      </trkpt>
      <trkpt lat="43.60838" lon="3.79316">
        <ele>67.3</ele>
        <time>2021-01-23T14:09:41Z</time>
      </trkpt>
      <trkpt lat="43.60838" lon="3.79328">
        <ele>67.2</ele>
        <time>2021-01-23T14:09:42Z</time>
      </trkpt>
      <trkpt lat="43.60839" lon="3.79341">
        <ele>66.9</ele>
        <time>2021-01-23T14:09:43Z</time>
      </trkpt>
      <trkpt lat="43.60839" lon="3.79353">
        <ele>66.5</ele>
        <time>2021-01-23T14:09:44Z</time>
      </trkpt>
      <trkpt lat="43.6084" lon="3.79366">
        <ele>65.9</ele>
        <time>2021-01-23T14:09:45Z</time>
      </trkpt>
      <trkpt lat="43.60841" lon="3.79378">
        <ele>65.2</ele>
        <time>2021-01-23T14:09:46Z</time>
      </trkpt>
      <trkpt lat="43.60842" lon="3.79391">
        <ele>68</ele>
        <time>2021-01-23T14:09:47Z</time>
      </trkpt>
      <trkpt lat="43.60843" lon="3.79404">
        <ele>64.2</ele>
        <time>2021-01-23T14:09:48Z</time>
      </trkpt>
      <trkpt lat="43.60844" lon="3.79417">
        <ele>63.8</ele>
        <time>2021-01-23T14:09:49Z</time>
      </trkpt>
      <trkpt lat="43.60845" lon="3.7943">
        <ele>63.4</ele>
        <time>2021-01-23T14:09:50Z</time>
      </trkpt>
      <trkpt lat="43.60847" lon="3.79443">
        <ele>63.1</ele>
        <time>2021-01-23T14:09:51Z</time>
      </trkpt>
      <trkpt lat="43.60848" lon="3.79456">
        <ele>62.6</ele>
        <time>2021-01-23T14:09:52Z</time>
      </trkpt>
      <trkpt lat="43.6085" lon="3.79469">
        <ele>62.1</ele>
        <time>2021-01-23T14:09:53Z</time>
      </trkpt>
      <trkpt lat="43.60851" lon="3.79481">
        <ele>61.5</ele>
        <time>2021-01-23T14:09:54Z</time>
      </trkpt>
      <trkpt lat="43.60853" lon="3.79494">
        <ele>60.7</ele>
        <time>2021-01-23T14:09:55Z</time>
      </trkpt>
      <trkpt lat="43.60855" lon="3.79507">
        <ele>60.2</ele>
        <time>2021-01-23T14:09:56Z</time>
      </trkpt>
      <trkpt lat="43.60857" lon="3.79519">
        <ele>64</ele>
        <time>2021-01-23T14:09:57Z</time>
      </trkpt>
      <trkpt lat="43.60859" lon="3.79531">
        <ele>59.9</ele>
        <time>2021-01-23T14:09:58Z</time>
      </trkpt>
      <trkpt lat="43.60861" lon="3.79543">
        <ele>59.5</ele>
        <time>2021-01-23T14:09:59Z</time>
      </trkpt>
      <trkpt lat="43.60863" lon="3.79555">
        <ele>59.2</ele>
        <time>2021-01-23T14:10:00Z</time>
      </trkpt>
      <trkpt lat="43.60865" lon="3.79567">
        <ele>58.8</ele>
        <time>2021-01-23T14:10:01Z</time>
      </trkpt>
      <trkpt lat="43.60867" lon="3.79578">
        <ele>58.4</ele>
        <time>2021-01-23T14:10:02Z</time>
      </trkpt>
      <trkpt lat="43.6087" lon="3.7959">
        <ele>58</ele>
        <time>2021-01-23T14:10:03Z</time>
      </trkpt>
      <trkpt lat="43.60872" lon="3.79602">
        <ele>57.5</ele>
        <time>2021-01-23T14:10:04Z</time>
      </trkpt>
      <trkpt lat="43.60874" lon="3.79613">
        <ele>56.9</ele>
        <time>2021-01-23T14:10:05Z</time>
      </trkpt>
      <trkpt lat="43.60877" lon="3.79625">
        <ele>56.5</ele>
        <time>2021-01-23T14:10:06Z</time>
      </trkpt>
      <trkpt lat="43.60879" lon="3.79637">
        <ele>60</ele>
        <time>2021-01-23T14:10:07Z</time>
      </trkpt>
      <trkpt lat="43.60882" lon="3.79649">
        <ele>55.6</ele>
        <time>2021-01-23T14:10:08Z</time>
      </trkpt>
      <trkpt lat="43.60885" lon="3.79661">
        <ele>55.2</ele>
        <time>2021-01-23T14:10:09Z</time>
      </trkpt>
      <trkpt lat="43.60887" lon="3.79673">
        <ele>54.8</ele>
        <time>2021-01-23T14:10:10Z</time>
      </trkpt>
      <trkpt lat="43.6089" lon="3.79685">
        <ele>54.4</ele>
        <time>2021-01-23T14:10:11Z</time>
      </trkpt>
      <trkpt lat="43.60892" lon="3.79698">
        <ele>54.1</ele>
        <time>2021-01-23T14:10:12Z</time>
      </trkpt>
      <trkpt lat="43.60894" lon="3.79711">
        <ele>54.1</ele>
        <time>2021-01-23T14:10:13Z</time>
      </trkpt>
      <trkpt lat="43.60896" lon="3.79723">
        <ele>54</ele>
        <time>2021-01-23T14:10:14Z</time>
      </trkpt>
      <trkpt lat="43.609" lon="3.79736">
        <ele>53.2</ele>
        <time>2021-01-23T14:10:15Z</time>
      </trkpt>
      <trkpt lat="43.60904" lon="3.79748">
        <ele>52.6</ele>
        <time>2021-01-23T14:10:16Z</time>
      </trkpt>
      <trkpt lat="43.60907" lon="3.7976">
        <ele>56</ele>
        <time>2021-01-23T14:10:17Z</time>
      </trkpt>
      <trkpt lat="43.60909" lon="3.79773">
        <ele>52.1</ele>
        <time>2021-01-23T14:10:18Z</time>
      </trkpt>
      <trkpt lat="43.60912" lon="3.79785">
        <ele>52</ele>
        <time>2021-01-23T14:10:19Z</time>
      </trkpt>
      <trkpt lat="43.60915" lon="3.79798">
        <ele>52</ele>
        <time>2021-01-23T14:10:20Z</time>
      </trkpt>
      <trkpt lat="43.60917" lon="3.7981">
        <ele>51.8</ele>
        <time>2021-01-23T14:10:21Z</time>
      </trkpt>
      <trkpt lat="43.60919" lon="3.79822">
        <ele>51.3</ele>
        <time>2021-01-23T14:10:22Z</time>
      </trkpt>
      <trkpt lat="43.60922" lon="3.79834">
        <ele>50.8</ele>
        <time>2021-01-23T14:10:23Z</time>
      </trkpt>
      <trkpt lat="43.60924" lon="3.79845">
        <ele>50.4</ele>
        <time>2021-01-23T14:10:24Z</time>
      </trkpt>
      <trkpt lat="43.60926" lon="3.79856">
        <ele>50.1</ele>
        <time>2021-01-23T14:10:25Z</time>
      </trkpt>
      <trkpt lat="43.60929" lon="3.79867">
        <ele>49.9</ele>
        <time>2021-01-23T14:10:26Z</time>
      </trkpt>
      <trkpt lat="43.60931" lon="3.79879">
        <ele>53</ele>
        <time>2021-01-23T14:10:27Z</time>
      </trkpt>
      <trkpt lat="43.60934" lon="3.79889">
        <ele>49.6</ele>
        <time>2021-01-23T14:10:28Z</time>
      </trkpt>
      <trkpt lat="43.60938" lon="3.799">
        <ele>49.4</ele>
        <time>2021-01-23T14:10:29Z</time>
      </trkpt>
      <trkpt lat="43.60942" lon="3.7991">
        <ele>49.2</ele>
        <time>2021-01-23T14:10:30Z</time>
      </trkpt>
      <trkpt lat="43.60945" lon="3.7992">
        <ele>48.8</ele>
        <time>2021-01-23T14:10:31Z</time>
      </trkpt>
      <trkpt lat="43.60947" lon="3.79931">
        <ele>48</ele>
        <time>2021-01-23T14:10:32Z</time>
      </trkpt>
      <trkpt lat="43.60949" lon="3.79941">
        <ele>47.2</ele>
        <time>2021-01-23T14:10:33Z</time>
      </trkpt>
      <trkpt lat="43.60951" lon="3.79952">
        <ele>45.5</ele>
        <time>2021-01-23T14:10:34Z</time>
      </trkpt>
      <trkpt lat="43.60954" lon="3.79962">
        <ele>44.1</ele>
        <time>2021-01-23T14:10:35Z</time>
      </trkpt>
      <trkpt lat="43.60956" lon="3.79972">
        <ele>43.3</ele>
        <time>2021-01-23T14:10:36Z</time>
      </trkpt>
      <trkpt lat="43.60958" lon="3.79982">
        <ele>44.4</ele>
        <time>2021-01-23T14:10:37Z</time>
      </trkpt>
      <trkpt lat="43.6096" lon="3.79992">
        <ele>51</ele>
        <time>2021-01-23T14:10:38Z</time>
      </trkpt>
      <trkpt lat="43.60961" lon="3.80002">
        <ele>45.9</ele>
        <time>2021-01-23T14:10:39Z</time>
      </trkpt>
      <trkpt lat="43.60963" lon="3.80012">
        <ele>46.2</ele>
        <time>2021-01-23T14:10:40Z</time>
      </trkpt>
      <trkpt lat="43.60964" lon="3.80022">
        <ele>46.7</ele>
        <time>2021-01-23T14:10:41Z</time>
      </trkpt>
      <trkpt lat="43.60966" lon="3.80031">
        <ele>47</ele>
        <time>2021-01-23T14:10:42Z</time>
      </trkpt>
      <trkpt lat="43.60968" lon="3.80041">
        <ele>47</ele>
        <time>2021-01-23T14:10:43Z</time>
      </trkpt>
      <trkpt lat="43.60969" lon="3.8005">
        <ele>47</ele>
        <time>2021-01-23T14:10:44Z</time>
      </trkpt>
      <trkpt lat="43.6097" lon="3.80058">
        <ele>47</ele>
        <time>2021-01-23T14:10:45Z</time>
      </trkpt>
      <trkpt lat="43.60972" lon="3.80066">
        <ele>47</ele>
        <time>2021-01-23T14:10:46Z</time>
      </trkpt>
      <trkpt lat="43.60974" lon="3.80073">
        <ele>50</ele>
        <time>2021-01-23T14:10:47Z</time>
      </trkpt>
      <trkpt lat="43.60976" lon="3.80081">
        <ele>47.1</ele>
        <time>2021-01-23T14:10:48Z</time>
      </trkpt>
      <trkpt lat="43.60978" lon="3.80088">
        <ele>47.2</ele>
        <time>2021-01-23T14:10:49Z</time>
      </trkpt>
      <trkpt lat="43.6098" lon="3.80095">
        <ele>47.4</ele>
        <time>2021-01-23T14:10:50Z</time>
      </trkpt>
      <trkpt lat="43.60982" lon="3.80103">
        <ele>47.6</ele>
        <time>2021-01-23T14:10:51Z</time>
      </trkpt>
      <trkpt lat="43.60983" lon="3.8011">
        <ele>47.8</ele>
        <time>2021-01-23T14:10:52Z</time>
      </trkpt>
      <trkpt lat="43.60985" lon="3.80118">
        <ele>47.7</ele>
        <time>2021-01-23T14:10:53Z</time>
      </trkpt>
      <trkpt lat="43.60987" lon="3.80126">
        <ele>47.5</ele>
        <time>2021-01-23T14:10:54Z</time>
      </trkpt>
      <trkpt lat="43.60988" lon="3.80134">
        <ele>47.3</ele>
        <time>2021-01-23T14:10:55Z</time>
      </trkpt>
      <trkpt lat="43.6099" lon="3.80141">
        <ele>47.3</ele>
        <time>2021-01-23T14:10:56Z</time>
      </trkpt>
      <trkpt lat="43.60992" lon="3.80149">
        <ele>51</ele>
        <time>2021-01-23T14:10:57Z</time>
      </trkpt>
      <trkpt lat="43.60993" lon="3.80157">
        <ele>47.5</ele>
        <time>2021-01-23T14:10:58Z</time>
      </trkpt>
      <trkpt lat="43.60995" lon="3.80164">
        <ele>47.6</ele>
        <time>2021-01-23T14:10:59Z</time>
      </trkpt>
      <trkpt lat="43.60997" lon="3.80171">
        <ele>47.8</ele>
        <time>2021-01-23T14:11:00Z</time>
      </trkpt>
      <trkpt lat="43.60998" lon="3.80179">
        <ele>47.9</ele>
        <time>2021-01-23T14:11:01Z</time>
      </trkpt>
      <trkpt lat="43.61" lon="3.80186">
        <ele>48</ele>
        <time>2021-01-23T14:11:02Z</time>
      </trkpt>
      <trkpt lat="43.61001" lon="3.80193">
        <ele>48.1</ele>
        <time>2021-01-23T14:11:03Z</time>
      </trkpt>
      <trkpt lat="43.61003" lon="3.80201">
        <ele>48.4</ele>
        <time>2021-01-23T14:11:04Z</time>
      </trkpt>
      <trkpt lat="43.61004" lon="3.80208">
        <ele>48.7</ele>
        <time>2021-01-23T14:11:05Z</time>
      </trkpt>
      <trkpt lat="43.61006" lon="3.80215">
        <ele>49</ele>
        <time>2021-01-23T14:11:06Z</time>
      </trkpt>
      <trkpt lat="43.61007" lon="3.80222">
        <ele>51</ele>
        <time>2021-01-23T14:11:07Z</time>
      </trkpt>
      <trkpt lat="43.61009" lon="3.8023">
        <ele>49.1</ele>
        <time>2021-01-23T14:11:08Z</time>
      </trkpt>
      <trkpt lat="43.6101" lon="3.80237">
        <ele>49</ele>
        <time>2021-01-23T14:11:09Z</time>
      </trkpt>
      <trkpt lat="43.61012" lon="3.80245">
        <ele>49</ele>
        <time>2021-01-23T14:11:10Z</time>
      </trkpt>
      <trkpt lat="43.61013" lon="3.80252">
        <ele>48.9</ele>
        <time>2021-01-23T14:11:11Z</time>
      </trkpt>
      <trkpt lat="43.61015" lon="3.80259">
        <ele>49.1</ele>
        <time>2021-01-23T14:11:12Z</time>
      </trkpt>
      <trkpt lat="43.61017" lon="3.80265">
        <ele>49.2</ele>
        <time>2021-01-23T14:11:13Z</time>
      </trkpt>
      <trkpt lat="43.61018" lon="3.80272">
        <ele>49.3</ele>
        <time>2021-01-23T14:11:14Z</time>
      </trkpt>
      <trkpt lat="43.6102" lon="3.80278">
        <ele>49.4</ele>
        <time>2021-01-23T14:11:15Z</time>
      </trkpt>
      <trkpt lat="43.61021" lon="3.80285">
        <ele>49.7</ele>
        <time>2021-01-23T14:11:16Z</time>
      </trkpt>
      <trkpt lat="43.61022" lon="3.80291">
        <ele>52</ele>
        <time>2021-01-23T14:11:17Z</time>
      </trkpt>
      <trkpt lat="43.61023" lon="3.80297">
        <ele>50.2</ele>
        <time>2021-01-23T14:11:18Z</time>
      </trkpt>
      <trkpt lat="43.61024" lon="3.80303">
        <ele>50.5</ele>
        <time>2021-01-23T14:11:19Z</time>
      </trkpt>
      <trkpt lat="43.61025" lon="3.80309">
        <ele>50.3</ele>
        <time>2021-01-23T14:11:20Z</time>
      </trkpt>
      <trkpt lat="43.61026" lon="3.80315">
        <ele>49.5</ele>
        <time>2021-01-23T14:11:21Z</time>
      </trkpt>
      <trkpt lat="43.61028" lon="3.8032">
        <ele>48.9</ele>
        <time>2021-01-23T14:11:22Z</time>
      </trkpt>
      <trkpt lat="43.61029" lon="3.80324">
        <ele>48.3</ele>
        <time>2021-01-23T14:11:23Z</time>
      </trkpt>
      <trkpt lat="43.61031" lon="3.8033">
        <ele>47.3</ele>
        <time>2021-01-23T14:11:24Z</time>
      </trkpt>
      <trkpt lat="43.61033" lon="3.80335">
        <ele>46.7</ele>
        <time>2021-01-23T14:11:25Z</time>
      </trkpt>
      <trkpt lat="43.61034" lon="3.8034">
        <ele>46.5</ele>
        <time>2021-01-23T14:11:26Z</time>
      </trkpt>
      <trkpt lat="43.61036" lon="3.80346">
        <ele>53</ele>
        <time>2021-01-23T14:11:27Z</time>
      </trkpt>
      <trkpt lat="43.61038" lon="3.80351">
        <ele>46.3</ele>
        <time>2021-01-23T14:11:28Z</time>
      </trkpt>
      <trkpt lat="43.6104" lon="3.80357">
        <ele>46.4</ele>
        <time>2021-01-23T14:11:29Z</time>
      </trkpt>
      <trkpt lat="43.61042" lon="3.80362">
        <ele>46.6</ele>
        <time>2021-01-23T14:11:30Z</time>
      </trkpt>
      <trkpt lat="43.61044" lon="3.80368">
        <ele>47.2</ele>
        <time>2021-01-23T14:11:31Z</time>
      </trkpt>
      <trkpt lat="43.61046" lon="3.80374">
        <ele>47.9</ele>
        <time>2021-01-23T14:11:32Z</time>
      </trkpt>
      <trkpt lat="43.61048" lon="3.80379">
        <ele>48.6</ele>
        <time>2021-01-23T14:11:33Z</time>
      </trkpt>
      <trkpt lat="43.6105" lon="3.80385">
        <ele>49.5</ele>
        <time>2021-01-23T14:11:34Z</time>
      </trkpt>
      <trkpt lat="43.61052" lon="3.80391">
        <ele>50.3</ele>
        <time>2021-01-23T14:11:35Z</time>
      </trkpt>
      <trkpt lat="43.61054" lon="3.80397">
        <ele>50.7</ele>
        <time>2021-01-23T14:11:36Z</time>
      </trkpt>
      <trkpt lat="43.61057" lon="3.80403">
        <ele>52</ele>
        <time>2021-01-23T14:11:37Z</time>
      </trkpt>
      <trkpt lat="43.61059" lon="3.80409">
        <ele>51.1</ele>
        <time>2021-01-23T14:11:38Z</time>
      </trkpt>
      <trkpt lat="43.61062" lon="3.80415">
        <ele>51.2</ele>
        <time>2021-01-23T14:11:39Z</time>
      </trkpt>
      <trkpt lat="43.61064" lon="3.80421">
        <ele>51</ele>
        <time>2021-01-23T14:11:40Z</time>
      </trkpt>
      <trkpt lat="43.61067" lon="3.80427">
        <ele>50.8</ele>
        <time>2021-01-23T14:11:41Z</time>
      </trkpt>
      <trkpt lat="43.6107" lon="3.80433">
        <ele>50.6</ele>
        <time>2021-01-23T14:11:42Z</time>
      </trkpt>
      <trkpt lat="43.61073" lon="3.80439">
        <ele>50.5</ele>
        <time>2021-01-23T14:11:43Z</time>
      </trkpt>
      <trkpt lat="43.61075" lon="3.80445">
        <ele>50.4</ele>
        <time>2021-01-23T14:11:44Z</time>
      </trkpt>
      <trkpt lat="43.61078" lon="3.80451">
        <ele>50.4</ele>
        <time>2021-01-23T14:11:45Z</time>
      </trkpt>
      <trkpt lat="43.61081" lon="3.80456">
        <ele>50.5</ele>
        <time>2021-01-23T14:11:46Z</time>
      </trkpt>
      <trkpt lat="43.61083" lon="3.80462">
        <ele>52</ele>
        <time>2021-01-23T14:11:47Z</time>
      </trkpt>
      <trkpt lat="43.61086" lon="3.80468">
        <ele>50.2</ele>
        <time>2021-01-23T14:11:48Z</time>
      </trkpt>
      <trkpt lat="43.61089" lon="3.80473">
        <ele>50.2</ele>
        <time>2021-01-23T14:11:49Z</time>
      </trkpt>
      <trkpt lat="43.61091" lon="3.80479">
        <ele>50.1</ele>
        <time>2021-01-23T14:11:50Z</time>
      </trkpt>
      <trkpt lat="43.61093" lon="3.80485">
        <ele>50</ele>
        <time>2021-01-23T14:11:51Z</time>
      </trkpt>
      <trkpt lat="43.61096" lon="3.80491">
        <ele>50.1</ele>
        <time>2021-01-23T14:11:52Z</time>
      </trkpt>
      <trkpt lat="43.61099" lon="3.80496">
        <ele>50.2</ele>
        <time>2021-01-23T14:11:53Z</time>
      </trkpt>
      <trkpt lat="43.61102" lon="3.80502">
        <ele>50.3</ele>
        <time>2021-01-23T14:11:54Z</time>
      </trkpt>
      <trkpt lat="43.61105" lon="3.80508">
        <ele>50.3</ele>
        <time>2021-01-23T14:11:55Z</time>
      </trkpt>
      <trkpt lat="43.61108" lon="3.80514">
        <ele>50.3</ele>
        <time>2021-01-23T14:11:56Z</time>
      </trkpt>
      <trkpt lat="43.61111" lon="3.8052">
        <ele>52</ele>
        <time>2021-01-23T14:11:57Z</time>
      </trkpt>
      <trkpt lat="43.61114" lon="3.80526">
        <ele>50.2</ele>
        <time>2021-01-23T14:11:58Z</time>
      </trkpt>
      <trkpt lat="43.61117" lon="3.80533">
        <ele>50</ele>
        <time>2021-01-23T14:11:59Z</time>
      </trkpt>
      <trkpt lat="43.6112" lon="3.8054">
        <ele>49.9</ele>
        <time>2021-01-23T14:12:00Z</time>
      </trkpt>
      <trkpt lat="43.61123" lon="3.80546">
        <ele>49.8</ele>
        <time>2021-01-23T14:12:01Z</time>
      </trkpt>
      <trkpt lat="43.61126" lon="3.80553">
        <ele>49.6</ele>
        <time>2021-01-23T14:12:02Z</time>
      </trkpt>
      <trkpt lat="43.6113" lon="3.8056">
        <ele>49.7</ele>
        <time>2021-01-23T14:12:03Z</time>
      </trkpt>
      <trkpt lat="43.61133" lon="3.80567">
        <ele>49.8</ele>
        <time>2021-01-23T14:12:04Z</time>
      </trkpt>
      <trkpt lat="43.61136" lon="3.80574">
        <ele>49.9</ele>
        <time>2021-01-23T14:12:05Z</time>
      </trkpt>
      <trkpt lat="43.61139" lon="3.8058">
        <ele>50</ele>
        <time>2021-01-23T14:12:06Z</time>
      </trkpt>
      <trkpt lat="43.61142" lon="3.80586">
        <ele>52</ele>
        <time>2021-01-23T14:12:07Z</time>
      </trkpt>
      <trkpt lat="43.61146" lon="3.80592">
        <ele>50.2</ele>
        <time>2021-01-23T14:12:08Z</time>
      </trkpt>
      <trkpt lat="43.61149" lon="3.80599">
        <ele>50.2</ele>
        <time>2021-01-23T14:12:09Z</time>
      </trkpt>
      <trkpt lat="43.61156" lon="3.80609">
        <ele>50</ele>
        <time>2021-01-23T14:12:10Z</time>
      </trkpt>
      <trkpt lat="43.61159" lon="3.80615">
        <ele>49.9</ele>
        <time>2021-01-23T14:12:11Z</time>
      </trkpt>
      <trkpt lat="43.61163" lon="3.8062">
        <ele>49.7</ele>
        <time>2021-01-23T14:12:13Z</time>
      </trkpt>
      <trkpt lat="43.61167" lon="3.80626">
        <ele>49.5</ele>
        <time>2021-01-23T14:12:14Z</time>
      </trkpt>
      <trkpt lat="43.61169" lon="3.80632">
        <ele>49.3</ele>
        <time>2021-01-23T14:12:15Z</time>
      </trkpt>
      <trkpt lat="43.61171" lon="3.80639">
        <ele>49.2</ele>
        <time>2021-01-23T14:12:16Z</time>
      </trkpt>
      <trkpt lat="43.61173" lon="3.80645">
        <ele>52</ele>
        <time>2021-01-23T14:12:17Z</time>
      </trkpt>
      <trkpt lat="43.61176" lon="3.80651">
        <ele>49.3</ele>
        <time>2021-01-23T14:12:18Z</time>
      </trkpt>
      <trkpt lat="43.61179" lon="3.80658">
        <ele>49.4</ele>
        <time>2021-01-23T14:12:19Z</time>
      </trkpt>
      <trkpt lat="43.61182" lon="3.80664">
        <ele>49.6</ele>
        <time>2021-01-23T14:12:20Z</time>
      </trkpt>
      <trkpt lat="43.61185" lon="3.8067">
        <ele>49.6</ele>
        <time>2021-01-23T14:12:21Z</time>
      </trkpt>
      <trkpt lat="43.61188" lon="3.80677">
        <ele>49.5</ele>
        <time>2021-01-23T14:12:22Z</time>
      </trkpt>
      <trkpt lat="43.6119" lon="3.80683">
        <ele>49.3</ele>
        <time>2021-01-23T14:12:23Z</time>
      </trkpt>
      <trkpt lat="43.61192" lon="3.80689">
        <ele>49.2</ele>
        <time>2021-01-23T14:12:24Z</time>
      </trkpt>
      <trkpt lat="43.61195" lon="3.80695">
        <ele>49</ele>
        <time>2021-01-23T14:12:25Z</time>
      </trkpt>
      <trkpt lat="43.61198" lon="3.807">
        <ele>49.1</ele>
        <time>2021-01-23T14:12:26Z</time>
      </trkpt>
      <trkpt lat="43.612" lon="3.80705">
        <ele>52</ele>
        <time>2021-01-23T14:12:27Z</time>
      </trkpt>
      <trkpt lat="43.61203" lon="3.8071">
        <ele>49.3</ele>
        <time>2021-01-23T14:12:28Z</time>
      </trkpt>
      <trkpt lat="43.61205" lon="3.80715">
        <ele>49.4</ele>
        <time>2021-01-23T14:12:29Z</time>
      </trkpt>
      <trkpt lat="43.61207" lon="3.8072">
        <ele>49.5</ele>
        <time>2021-01-23T14:12:30Z</time>
      </trkpt>
      <trkpt lat="43.6121" lon="3.80725">
        <ele>49.5</ele>
        <time>2021-01-23T14:12:31Z</time>
      </trkpt>
      <trkpt lat="43.61212" lon="3.8073">
        <ele>49.4</ele>
        <time>2021-01-23T14:12:32Z</time>
      </trkpt>
      <trkpt lat="43.61214" lon="3.80735">
        <ele>49.2</ele>
        <time>2021-01-23T14:12:33Z</time>
      </trkpt>
      <trkpt lat="43.61216" lon="3.80739">
        <ele>49.2</ele>
        <time>2021-01-23T14:12:34Z</time>
      </trkpt>
      <trkpt lat="43.61218" lon="3.80744">
        <ele>49.1</ele>
        <time>2021-01-23T14:12:35Z</time>
      </trkpt>
      <trkpt lat="43.6122" lon="3.80748">
        <ele>49</ele>
        <time>2021-01-23T14:12:36Z</time>
      </trkpt>
      <trkpt lat="43.61222" lon="3.80753">
        <ele>52</ele>
        <time>2021-01-23T14:12:37Z</time>
      </trkpt>
      <trkpt lat="43.61223" lon="3.80757">
        <ele>49</ele>
        <time>2021-01-23T14:12:38Z</time>
      </trkpt>
      <trkpt lat="43.61225" lon="3.80761">
        <ele>49.2</ele>
        <time>2021-01-23T14:12:39Z</time>
      </trkpt>
      <trkpt lat="43.61227" lon="3.80766">
        <ele>49.2</ele>
        <time>2021-01-23T14:12:40Z</time>
      </trkpt>
      <trkpt lat="43.61229" lon="3.80771">
        <ele>49.3</ele>
        <time>2021-01-23T14:12:41Z</time>
      </trkpt>
      <trkpt lat="43.61231" lon="3.80776">
        <ele>49.3</ele>
        <time>2021-01-23T14:12:42Z</time>
      </trkpt>
      <trkpt lat="43.61233" lon="3.8078">
        <ele>49.3</ele>
        <time>2021-01-23T14:12:43Z</time>
      </trkpt>
      <trkpt lat="43.61233" lon="3.80784">
        <ele>49.3</ele>
        <time>2021-01-23T14:12:44Z</time>
      </trkpt>
      <trkpt lat="43.61232" lon="3.80787">
        <ele>49.1</ele>
        <time>2021-01-23T14:12:45Z</time>
      </trkpt>
      <trkpt lat="43.6123" lon="3.80792">
        <ele>48.9</ele>
        <time>2021-01-23T14:12:46Z</time>
      </trkpt>
      <trkpt lat="43.61227" lon="3.80797">
        <ele>52</ele>
        <time>2021-01-23T14:12:47Z</time>
      </trkpt>
      <trkpt lat="43.61224" lon="3.80801">
        <ele>48.3</ele>
        <time>2021-01-23T14:12:48Z</time>
      </trkpt>
      <trkpt lat="43.61223" lon="3.80805">
        <ele>48.1</ele>
        <time>2021-01-23T14:12:49Z</time>
      </trkpt>
      <trkpt lat="43.61225" lon="3.80809">
        <ele>48.2</ele>
        <time>2021-01-23T14:12:50Z</time>
      </trkpt>
      <trkpt lat="43.61228" lon="3.8081">
        <ele>48.4</ele>
        <time>2021-01-23T14:12:51Z</time>
      </trkpt>
      <trkpt lat="43.61231" lon="3.80809">
        <ele>48.6</ele>
        <time>2021-01-23T14:12:52Z</time>
      </trkpt>
      <trkpt lat="43.61235" lon="3.80808">
        <ele>48.9</ele>
        <time>2021-01-23T14:12:53Z</time>
      </trkpt>
      <trkpt lat="43.61239" lon="3.8081">
        <ele>49.1</ele>
        <time>2021-01-23T14:12:54Z</time>
      </trkpt>
      <trkpt lat="43.61242" lon="3.80814">
        <ele>49.2</ele>
        <time>2021-01-23T14:12:55Z</time>
      </trkpt>
      <trkpt lat="43.61244" lon="3.80818">
        <ele>49.2</ele>
        <time>2021-01-23T14:12:56Z</time>
      </trkpt>
      <trkpt lat="43.61248" lon="3.80823">
        <ele>52</ele>
        <time>2021-01-23T14:12:57Z</time>
      </trkpt>
      <trkpt lat="43.61251" lon="3.80828">
        <ele>49.3</ele>
        <time>2021-01-23T14:12:58Z</time>
      </trkpt>
      <trkpt lat="43.61253" lon="3.80834">
        <ele>49.2</ele>
        <time>2021-01-23T14:12:59Z</time>
      </trkpt>
      <trkpt lat="43.61255" lon="3.8084">
        <ele>49.3</ele>
        <time>2021-01-23T14:13:00Z</time>
      </trkpt>
      <trkpt lat="43.61258" lon="3.80847">
        <ele>49.4</ele>
        <time>2021-01-23T14:13:01Z</time>
      </trkpt>
      <trkpt lat="43.61261" lon="3.80854">
        <ele>49.5</ele>
        <time>2021-01-23T14:13:02Z</time>
      </trkpt>
      <trkpt lat="43.61263" lon="3.80861">
        <ele>49.5</ele>
        <time>2021-01-23T14:13:03Z</time>
      </trkpt>
      <trkpt lat="43.61266" lon="3.80866">
        <ele>49.5</ele>
        <time>2021-01-23T14:13:04Z</time>
      </trkpt>
      <trkpt lat="43.6127" lon="3.80872">
        <ele>49.4</ele>
        <time>2021-01-23T14:13:05Z</time>
      </trkpt>
      <trkpt lat="43.61272" lon="3.80878">
        <ele>49.3</ele>
        <time>2021-01-23T14:13:06Z</time>
      </trkpt>
      <trkpt lat="43.61275" lon="3.80885">
        <ele>52</ele>
        <time>2021-01-23T14:13:07Z</time>
      </trkpt>
      <trkpt lat="43.61277" lon="3.80892">
        <ele>49</ele>
        <time>2021-01-23T14:13:08Z</time>
      </trkpt>
      <trkpt lat="43.6128" lon="3.80899">
        <ele>49.1</ele>
        <time>2021-01-23T14:13:09Z</time>
      </trkpt>
      <trkpt lat="43.61282" lon="3.80906">
        <ele>49.2</ele>
        <time>2021-01-23T14:13:10Z</time>
      </trkpt>
      <trkpt lat="43.61284" lon="3.80914">
        <ele>49.2</ele>
        <time>2021-01-23T14:13:11Z</time>
      </trkpt>
      <trkpt lat="43.61285" lon="3.80922">
        <ele>49.1</ele>
        <time>2021-01-23T14:13:12Z</time>
      </trkpt>
      <trkpt lat="43.61287" lon="3.8093">
        <ele>49</ele>
        <time>2021-01-23T14:13:13Z</time>
      </trkpt>
      <trkpt lat="43.61289" lon="3.80938">
        <ele>48.9</ele>
        <time>2021-01-23T14:13:14Z</time>
      </trkpt>
      <trkpt lat="43.61291" lon="3.80946">
        <ele>48.9</ele>
        <time>2021-01-23T14:13:15Z</time>
      </trkpt>
      <trkpt lat="43.61293" lon="3.80954">
        <ele>48.9</ele>
        <time>2021-01-23T14:13:16Z</time>
      </trkpt>
      <trkpt lat="43.61294" lon="3.80963">
        <ele>52</ele>
        <time>2021-01-23T14:13:17Z</time>
      </trkpt>
      <trkpt lat="43.61296" lon="3.80971">
        <ele>48.7</ele>
        <time>2021-01-23T14:13:18Z</time>
      </trkpt>
      <trkpt lat="43.61298" lon="3.80979">
        <ele>48.6</ele>
        <time>2021-01-23T14:13:19Z</time>
      </trkpt>
      <trkpt lat="43.613" lon="3.80988">
        <ele>48.3</ele>
        <time>2021-01-23T14:13:20Z</time>
      </trkpt>
      <trkpt lat="43.61301" lon="3.80996">
        <ele>48.1</ele>
        <time>2021-01-23T14:13:21Z</time>
      </trkpt>
      <trkpt lat="43.61303" lon="3.81004">
        <ele>47.9</ele>
        <time>2021-01-23T14:13:22Z</time>
      </trkpt>
      <trkpt lat="43.61304" lon="3.81012">
        <ele>47.6</ele>
        <time>2021-01-23T14:13:23Z</time>
      </trkpt>
      <trkpt lat="43.61306" lon="3.8102">
        <ele>47.3</ele>
        <time>2021-01-23T14:13:24Z</time>
      </trkpt>
      <trkpt lat="43.61309" lon="3.81028">
        <ele>47</ele>
        <time>2021-01-23T14:13:25Z</time>
      </trkpt>
      <trkpt lat="43.6131" lon="3.81036">
        <ele>47</ele>
        <time>2021-01-23T14:13:26Z</time>
      </trkpt>
      <trkpt lat="43.61312" lon="3.81042">
        <ele>51</ele>
        <time>2021-01-23T14:13:27Z</time>
      </trkpt>
      <trkpt lat="43.61313" lon="3.81048">
        <ele>47.2</ele>
        <time>2021-01-23T14:13:28Z</time>
      </trkpt>
      <trkpt lat="43.61314" lon="3.81053">
        <ele>47.3</ele>
        <time>2021-01-23T14:13:29Z</time>
      </trkpt>
      <trkpt lat="43.61316" lon="3.81058">
        <ele>47.3</ele>
        <time>2021-01-23T14:13:30Z</time>
      </trkpt>
      <trkpt lat="43.61318" lon="3.81064">
        <ele>47.3</ele>
        <time>2021-01-23T14:13:31Z</time>
      </trkpt>
      <trkpt lat="43.61319" lon="3.8107">
        <ele>47.2</ele>
        <time>2021-01-23T14:13:32Z</time>
      </trkpt>
      <trkpt lat="43.6132" lon="3.81076">
        <ele>47.2</ele>
        <time>2021-01-23T14:13:33Z</time>
      </trkpt>
      <trkpt lat="43.61322" lon="3.81083">
        <ele>47.2</ele>
        <time>2021-01-23T14:13:34Z</time>
      </trkpt>
      <trkpt lat="43.61323" lon="3.81089">
        <ele>47</ele>
        <time>2021-01-23T14:13:35Z</time>
      </trkpt>
      <trkpt lat="43.61325" lon="3.81096">
        <ele>46.8</ele>
        <time>2021-01-23T14:13:36Z</time>
      </trkpt>
      <trkpt lat="43.61326" lon="3.81102">
        <ele>51</ele>
        <time>2021-01-23T14:13:37Z</time>
      </trkpt>
      <trkpt lat="43.61328" lon="3.81108">
        <ele>46.2</ele>
        <time>2021-01-23T14:13:38Z</time>
      </trkpt>
      <trkpt lat="43.6133" lon="3.81114">
        <ele>46</ele>
        <time>2021-01-23T14:13:39Z</time>
      </trkpt>
      <trkpt lat="43.61333" lon="3.81119">
        <ele>46</ele>
        <time>2021-01-23T14:13:40Z</time>
      </trkpt>
      <trkpt lat="43.61335" lon="3.81124">
        <ele>46.1</ele>
        <time>2021-01-23T14:13:41Z</time>
      </trkpt>
      <trkpt lat="43.61337" lon="3.8113">
        <ele>46.1</ele>
        <time>2021-01-23T14:13:42Z</time>
      </trkpt>
      <trkpt lat="43.61339" lon="3.81136">
        <ele>46.2</ele>
        <time>2021-01-23T14:13:43Z</time>
      </trkpt>
      <trkpt lat="43.61341" lon="3.81143">
        <ele>46.1</ele>
        <time>2021-01-23T14:13:44Z</time>
      </trkpt>
      <trkpt lat="43.61343" lon="3.8115">
        <ele>45.9</ele>
        <time>2021-01-23T14:13:45Z</time>
      </trkpt>
      <trkpt lat="43.61345" lon="3.81156">
        <ele>45.8</ele>
        <time>2021-01-23T14:13:46Z</time>
      </trkpt>
      <trkpt lat="43.61347" lon="3.81161">
        <ele>51</ele>
        <time>2021-01-23T14:13:47Z</time>
      </trkpt>
      <trkpt lat="43.61349" lon="3.81167">
        <ele>45.6</ele>
        <time>2021-01-23T14:13:48Z</time>
      </trkpt>
      <trkpt lat="43.61352" lon="3.81172">
        <ele>45.6</ele>
        <time>2021-01-23T14:13:49Z</time>
      </trkpt>
      <trkpt lat="43.61354" lon="3.81178">
        <ele>45.6</ele>
        <time>2021-01-23T14:13:50Z</time>
      </trkpt>
      <trkpt lat="43.61357" lon="3.81184">
        <ele>45.8</ele>
        <time>2021-01-23T14:13:51Z</time>
      </trkpt>
      <trkpt lat="43.61359" lon="3.8119">
        <ele>45.9</ele>
        <time>2021-01-23T14:13:52Z</time>
      </trkpt>
      <trkpt lat="43.61362" lon="3.81196">
        <ele>46</ele>
        <time>2021-01-23T14:13:53Z</time>
      </trkpt>
      <trkpt lat="43.61364" lon="3.81202">
        <ele>45.8</ele>
        <time>2021-01-23T14:13:54Z</time>
      </trkpt>
      <trkpt lat="43.61366" lon="3.81208">
        <ele>45.7</ele>
        <time>2021-01-23T14:13:55Z</time>
      </trkpt>
      <trkpt lat="43.61369" lon="3.81215">
        <ele>45.5</ele>
        <time>2021-01-23T14:13:56Z</time>
      </trkpt>
      <trkpt lat="43.61371" lon="3.81221">
        <ele>50</ele>
        <time>2021-01-23T14:13:57Z</time>
      </trkpt>
      <trkpt lat="43.61373" lon="3.81228">
        <ele>45.3</ele>
        <time>2021-01-23T14:13:58Z</time>
      </trkpt>
      <trkpt lat="43.61375" lon="3.81234">
        <ele>45.3</ele>
        <time>2021-01-23T14:13:59Z</time>
      </trkpt>
      <trkpt lat="43.61377" lon="3.8124">
        <ele>45.3</ele>
        <time>2021-01-23T14:14:00Z</time>
      </trkpt>
      <trkpt lat="43.6138" lon="3.81247">
        <ele>45.4</ele>
        <time>2021-01-23T14:14:01Z</time>
      </trkpt>
      <trkpt lat="43.61382" lon="3.81253">
        <ele>45.4</ele>
        <time>2021-01-23T14:14:02Z</time>
      </trkpt>
      <trkpt lat="43.61384" lon="3.81259">
        <ele>45.3</ele>
        <time>2021-01-23T14:14:03Z</time>
      </trkpt>
      <trkpt lat="43.61387" lon="3.81265">
        <ele>45.3</ele>
        <time>2021-01-23T14:14:04Z</time>
      </trkpt>
      <trkpt lat="43.61389" lon="3.81272">
        <ele>45.2</ele>
        <time>2021-01-23T14:14:05Z</time>
      </trkpt>
      <trkpt lat="43.61391" lon="3.81278">
        <ele>45.1</ele>
        <time>2021-01-23T14:14:06Z</time>
      </trkpt>
      <trkpt lat="43.61394" lon="3.81284">
        <ele>45</ele>
        <time>2021-01-23T14:14:07Z</time>
      </trkpt>
      <trkpt lat="43.61396" lon="3.81291">
        <ele>49</ele>
        <time>2021-01-23T14:14:08Z</time>
      </trkpt>
      <trkpt lat="43.61398" lon="3.81297">
        <ele>44.6</ele>
        <time>2021-01-23T14:14:09Z</time>
      </trkpt>
      <trkpt lat="43.614" lon="3.81304">
        <ele>44.5</ele>
        <time>2021-01-23T14:14:10Z</time>
      </trkpt>
      <trkpt lat="43.61402" lon="3.81311">
        <ele>44.3</ele>
        <time>2021-01-23T14:14:11Z</time>
      </trkpt>
      <trkpt lat="43.61404" lon="3.81318">
        <ele>44.1</ele>
        <time>2021-01-23T14:14:12Z</time>
      </trkpt>
      <trkpt lat="43.61404" lon="3.81325">
        <ele>43.8</ele>
        <time>2021-01-23T14:14:13Z</time>
      </trkpt>
      <trkpt lat="43.61405" lon="3.81333">
        <ele>43.6</ele>
        <time>2021-01-23T14:14:14Z</time>
      </trkpt>
      <trkpt lat="43.61406" lon="3.81341">
        <ele>43.4</ele>
        <time>2021-01-23T14:14:15Z</time>
      </trkpt>
      <trkpt lat="43.61406" lon="3.81349">
        <ele>43.3</ele>
        <time>2021-01-23T14:14:16Z</time>
      </trkpt>
      <trkpt lat="43.61407" lon="3.81357">
        <ele>48</ele>
        <time>2021-01-23T14:14:17Z</time>
      </trkpt>
      <trkpt lat="43.61407" lon="3.81366">
        <ele>42.8</ele>
        <time>2021-01-23T14:14:18Z</time>
      </trkpt>
      <trkpt lat="43.61408" lon="3.81374">
        <ele>42.5</ele>
        <time>2021-01-23T14:14:19Z</time>
      </trkpt>
      <trkpt lat="43.61409" lon="3.81383">
        <ele>42.2</ele>
        <time>2021-01-23T14:14:20Z</time>
      </trkpt>
      <trkpt lat="43.61409" lon="3.81391">
        <ele>41.9</ele>
        <time>2021-01-23T14:14:21Z</time>
      </trkpt>
      <trkpt lat="43.6141" lon="3.814">
        <ele>41.6</ele>
        <time>2021-01-23T14:14:22Z</time>
      </trkpt>
      <trkpt lat="43.6141" lon="3.81409">
        <ele>41.3</ele>
        <time>2021-01-23T14:14:23Z</time>
      </trkpt>
      <trkpt lat="43.61411" lon="3.81418">
        <ele>41</ele>
        <time>2021-01-23T14:14:24Z</time>
      </trkpt>
      <trkpt lat="43.61412" lon="3.81426">
        <ele>41</ele>
        <time>2021-01-23T14:14:25Z</time>
      </trkpt>
      <trkpt lat="43.61412" lon="3.81435">
        <ele>41</ele>
        <time>2021-01-23T14:14:26Z</time>
      </trkpt>
      <trkpt lat="43.61413" lon="3.81444">
        <ele>46</ele>
        <time>2021-01-23T14:14:27Z</time>
      </trkpt>
      <trkpt lat="43.61413" lon="3.81453">
        <ele>40.7</ele>
        <time>2021-01-23T14:14:28Z</time>
      </trkpt>
      <trkpt lat="43.61413" lon="3.81462">
        <ele>40.4</ele>
        <time>2021-01-23T14:14:29Z</time>
      </trkpt>
      <trkpt lat="43.61413" lon="3.81472">
        <ele>40</ele>
        <time>2021-01-23T14:14:30Z</time>
      </trkpt>
      <trkpt lat="43.61414" lon="3.81481">
        <ele>40</ele>
        <time>2021-01-23T14:14:31Z</time>
      </trkpt>
      <trkpt lat="43.61414" lon="3.8149">
        <ele>39.9</ele>
        <time>2021-01-23T14:14:32Z</time>
      </trkpt>
      <trkpt lat="43.61414" lon="3.815">
        <ele>39.9</ele>
        <time>2021-01-23T14:14:33Z</time>
      </trkpt>
      <trkpt lat="43.61415" lon="3.81509">
        <ele>39.3</ele>
        <time>2021-01-23T14:14:34Z</time>
      </trkpt>
      <trkpt lat="43.61415" lon="3.81518">
        <ele>38.7</ele>
        <time>2021-01-23T14:14:35Z</time>
      </trkpt>
      <trkpt lat="43.61416" lon="3.81527">
        <ele>38.1</ele>
        <time>2021-01-23T14:14:36Z</time>
      </trkpt>
      <trkpt lat="43.61416" lon="3.81536">
        <ele>44</ele>
        <time>2021-01-23T14:14:37Z</time>
      </trkpt>
      <trkpt lat="43.61416" lon="3.81544">
        <ele>38</ele>
        <time>2021-01-23T14:14:38Z</time>
      </trkpt>
      <trkpt lat="43.61417" lon="3.8155">
        <ele>38</ele>
        <time>2021-01-23T14:14:39Z</time>
      </trkpt>
      <trkpt lat="43.61417" lon="3.81555">
        <ele>38</ele>
        <time>2021-01-23T14:14:40Z</time>
      </trkpt>
      <trkpt lat="43.61417" lon="3.81559">
        <ele>37.8</ele>
        <time>2021-01-23T14:14:41Z</time>
      </trkpt>
      <trkpt lat="43.61418" lon="3.81562">
        <ele>37.5</ele>
        <time>2021-01-23T14:14:42Z</time>
      </trkpt>
      <trkpt lat="43.6142" lon="3.81563">
        <ele>37.5</ele>
        <time>2021-01-23T14:14:43Z</time>
      </trkpt>
      <trkpt lat="43.61423" lon="3.81563">
        <ele>37.5</ele>
        <time>2021-01-23T14:14:44Z</time>
      </trkpt>
      <trkpt lat="43.61427" lon="3.81562">
        <ele>37.5</ele>
        <time>2021-01-23T14:14:45Z</time>
      </trkpt>
      <trkpt lat="43.61431" lon="3.81561">
        <ele>37.6</ele>
        <time>2021-01-23T14:14:46Z</time>
      </trkpt>
      <trkpt lat="43.61435" lon="3.81559">
        <ele>43</ele>
        <time>2021-01-23T14:14:47Z</time>
      </trkpt>
      <trkpt lat="43.61439" lon="3.81557">
        <ele>37.9</ele>
        <time>2021-01-23T14:14:48Z</time>
      </trkpt>
      <trkpt lat="43.61442" lon="3.81555">
        <ele>38</ele>
        <time>2021-01-23T14:14:49Z</time>
      </trkpt>
      <trkpt lat="43.61446" lon="3.81554">
        <ele>38.1</ele>
        <time>2021-01-23T14:14:50Z</time>
      </trkpt>
      <trkpt lat="43.6145" lon="3.81552">
        <ele>38.1</ele>
        <time>2021-01-23T14:14:51Z</time>
      </trkpt>
      <trkpt lat="43.61453" lon="3.81551">
        <ele>38.2</ele>
        <time>2021-01-23T14:14:52Z</time>
      </trkpt>
      <trkpt lat="43.61457" lon="3.8155">
        <ele>38.2</ele>
        <time>2021-01-23T14:14:53Z</time>
      </trkpt>
      <trkpt lat="43.61461" lon="3.81549">
        <ele>38.2</ele>
        <time>2021-01-23T14:14:54Z</time>
      </trkpt>
      <trkpt lat="43.61464" lon="3.8155">
        <ele>38.2</ele>
        <time>2021-01-23T14:14:55Z</time>
      </trkpt>
      <trkpt lat="43.61467" lon="3.81552">
        <ele>38.1</ele>
        <time>2021-01-23T14:14:56Z</time>
      </trkpt>
      <trkpt lat="43.6147" lon="3.81556">
        <ele>44</ele>
        <time>2021-01-23T14:14:57Z</time>
      </trkpt>
      <trkpt lat="43.61473" lon="3.81561">
        <ele>38</ele>
        <time>2021-01-23T14:14:58Z</time>
      </trkpt>
      <trkpt lat="43.61475" lon="3.81566">
        <ele>38.1</ele>
        <time>2021-01-23T14:14:59Z</time>
      </trkpt>
      <trkpt lat="43.61477" lon="3.81572">
        <ele>38.1</ele>
        <time>2021-01-23T14:15:00Z</time>
      </trkpt>
      <trkpt lat="43.61478" lon="3.81577">
        <ele>38.1</ele>
        <time>2021-01-23T14:15:01Z</time>
      </trkpt>
      <trkpt lat="43.6148" lon="3.81584">
        <ele>38</ele>
        <time>2021-01-23T14:15:02Z</time>
      </trkpt>
      <trkpt lat="43.61481" lon="3.8159">
        <ele>37.7</ele>
        <time>2021-01-23T14:15:03Z</time>
      </trkpt>
      <trkpt lat="43.61483" lon="3.81597">
        <ele>37.4</ele>
        <time>2021-01-23T14:15:04Z</time>
      </trkpt>
      <trkpt lat="43.61485" lon="3.81604">
        <ele>37.2</ele>
        <time>2021-01-23T14:15:05Z</time>
      </trkpt>
      <trkpt lat="43.61487" lon="3.81611">
        <ele>37.1</ele>
        <time>2021-01-23T14:15:06Z</time>
      </trkpt>
      <trkpt lat="43.61488" lon="3.81618">
        <ele>43</ele>
        <time>2021-01-23T14:15:07Z</time>
      </trkpt>
      <trkpt lat="43.6149" lon="3.81625">
        <ele>36.9</ele>
        <time>2021-01-23T14:15:08Z</time>
      </trkpt>
      <trkpt lat="43.61492" lon="3.81632">
        <ele>37</ele>
        <time>2021-01-23T14:15:09Z</time>
      </trkpt>
      <trkpt lat="43.61495" lon="3.81639">
        <ele>37.3</ele>
        <time>2021-01-23T14:15:10Z</time>
      </trkpt>
      <trkpt lat="43.61497" lon="3.81645">
        <ele>37.5</ele>
        <time>2021-01-23T14:15:11Z</time>
      </trkpt>
      <trkpt lat="43.61499" lon="3.81652">
        <ele>37.8</ele>
        <time>2021-01-23T14:15:12Z</time>
      </trkpt>
      <trkpt lat="43.61501" lon="3.81658">
        <ele>37.9</ele>
        <time>2021-01-23T14:15:13Z</time>
      </trkpt>
      <trkpt lat="43.61503" lon="3.81665">
        <ele>37.6</ele>
        <time>2021-01-23T14:15:14Z</time>
      </trkpt>
      <trkpt lat="43.61504" lon="3.8167">
        <ele>36.9</ele>
        <time>2021-01-23T14:15:15Z</time>
      </trkpt>
      <trkpt lat="43.61505" lon="3.81675">
        <ele>36</ele>
        <time>2021-01-23T14:15:16Z</time>
      </trkpt>
      <trkpt lat="43.61507" lon="3.81681">
        <ele>44</ele>
        <time>2021-01-23T14:15:17Z</time>
      </trkpt>
      <trkpt lat="43.6151" lon="3.81687">
        <ele>34</ele>
        <time>2021-01-23T14:15:18Z</time>
      </trkpt>
      <trkpt lat="43.61512" lon="3.81693">
        <ele>33.2</ele>
        <time>2021-01-23T14:15:19Z</time>
      </trkpt>
      <trkpt lat="43.61514" lon="3.81699">
        <ele>32.8</ele>
        <time>2021-01-23T14:15:20Z</time>
      </trkpt>
      <trkpt lat="43.61515" lon="3.81706">
        <ele>32.4</ele>
        <time>2021-01-23T14:15:21Z</time>
      </trkpt>
      <trkpt lat="43.61517" lon="3.81712">
        <ele>32.1</ele>
        <time>2021-01-23T14:15:22Z</time>
      </trkpt>
      <trkpt lat="43.61518" lon="3.81718">
        <ele>31.9</ele>
        <time>2021-01-23T14:15:23Z</time>
      </trkpt>
      <trkpt lat="43.6152" lon="3.81725">
        <ele>32.2</ele>
        <time>2021-01-23T14:15:24Z</time>
      </trkpt>
      <trkpt lat="43.61522" lon="3.81731">
        <ele>33.4</ele>
        <time>2021-01-23T14:15:25Z</time>
      </trkpt>
      <trkpt lat="43.61524" lon="3.81738">
        <ele>34.9</ele>
        <time>2021-01-23T14:15:26Z</time>
      </trkpt>
      <trkpt lat="43.61526" lon="3.81745">
        <ele>43</ele>
        <time>2021-01-23T14:15:27Z</time>
      </trkpt>
      <trkpt lat="43.61528" lon="3.81752">
        <ele>38</ele>
        <time>2021-01-23T14:15:28Z</time>
      </trkpt>
      <trkpt lat="43.61529" lon="3.81759">
        <ele>37.8</ele>
        <time>2021-01-23T14:15:29Z</time>
      </trkpt>
      <trkpt lat="43.61531" lon="3.81766">
        <ele>37.6</ele>
        <time>2021-01-23T14:15:30Z</time>
      </trkpt>
      <trkpt lat="43.61533" lon="3.81773">
        <ele>37.4</ele>
        <time>2021-01-23T14:15:31Z</time>
      </trkpt>
      <trkpt lat="43.61534" lon="3.8178">
        <ele>37.3</ele>
        <time>2021-01-23T14:15:32Z</time>
      </trkpt>
      <trkpt lat="43.61536" lon="3.81787">
        <ele>37.1</ele>
        <time>2021-01-23T14:15:33Z</time>
      </trkpt>
      <trkpt lat="43.61538" lon="3.81794">
        <ele>37</ele>
        <time>2021-01-23T14:15:34Z</time>
      </trkpt>
      <trkpt lat="43.6154" lon="3.81801">
        <ele>36.9</ele>
        <time>2021-01-23T14:15:35Z</time>
      </trkpt>
      <trkpt lat="43.61542" lon="3.81808">
        <ele>37</ele>
        <time>2021-01-23T14:15:36Z</time>
      </trkpt>
      <trkpt lat="43.61544" lon="3.81815">
        <ele>42</ele>
        <time>2021-01-23T14:15:37Z</time>
      </trkpt>
      <trkpt lat="43.61546" lon="3.81822">
        <ele>37</ele>
        <time>2021-01-23T14:15:38Z</time>
      </trkpt>
      <trkpt lat="43.61547" lon="3.81829">
        <ele>37.1</ele>
        <time>2021-01-23T14:15:39Z</time>
      </trkpt>
      <trkpt lat="43.61549" lon="3.81836">
        <ele>37.2</ele>
        <time>2021-01-23T14:15:40Z</time>
      </trkpt>
      <trkpt lat="43.61551" lon="3.81842">
        <ele>37.2</ele>
        <time>2021-01-23T14:15:41Z</time>
      </trkpt>
      <trkpt lat="43.61552" lon="3.81849">
        <ele>37.1</ele>
        <time>2021-01-23T14:15:42Z</time>
      </trkpt>
      <trkpt lat="43.61554" lon="3.81855">
        <ele>37.1</ele>
        <time>2021-01-23T14:15:43Z</time>
      </trkpt>
      <trkpt lat="43.61555" lon="3.81861">
        <ele>36.9</ele>
        <time>2021-01-23T14:15:44Z</time>
      </trkpt>
      <trkpt lat="43.61556" lon="3.81867">
        <ele>37.2</ele>
        <time>2021-01-23T14:15:45Z</time>
      </trkpt>
      <trkpt lat="43.61557" lon="3.81873">
        <ele>37.5</ele>
        <time>2021-01-23T14:15:46Z</time>
      </trkpt>
      <trkpt lat="43.61557" lon="3.81879">
        <ele>42</ele>
        <time>2021-01-23T14:15:47Z</time>
      </trkpt>
      <trkpt lat="43.61556" lon="3.81886">
        <ele>37.9</ele>
        <time>2021-01-23T14:15:48Z</time>
      </trkpt>
      <trkpt lat="43.61554" lon="3.81893">
        <ele>37.8</ele>
        <time>2021-01-23T14:15:49Z</time>
      </trkpt>
      <trkpt lat="43.61553" lon="3.81899">
        <ele>37.7</ele>
        <time>2021-01-23T14:15:50Z</time>
      </trkpt>
      <trkpt lat="43.61552" lon="3.81906">
        <ele>37.6</ele>
        <time>2021-01-23T14:15:51Z</time>
      </trkpt>
      <trkpt lat="43.61551" lon="3.81913">
        <ele>37.5</ele>
        <time>2021-01-23T14:15:52Z</time>
      </trkpt>
      <trkpt lat="43.61551" lon="3.8192">
        <ele>37.5</ele>
        <time>2021-01-23T14:15:53Z</time>
      </trkpt>
      <trkpt lat="43.6155" lon="3.81926">
        <ele>37.4</ele>
        <time>2021-01-23T14:15:54Z</time>
      </trkpt>
      <trkpt lat="43.61549" lon="3.81933">
        <ele>37.3</ele>
        <time>2021-01-23T14:15:55Z</time>
      </trkpt>
      <trkpt lat="43.61549" lon="3.81939">
        <ele>37.3</ele>
        <time>2021-01-23T14:15:56Z</time>
      </trkpt>
      <trkpt lat="43.61547" lon="3.81945">
        <ele>42</ele>
        <time>2021-01-23T14:15:57Z</time>
      </trkpt>
      <trkpt lat="43.61546" lon="3.81951">
        <ele>37.3</ele>
        <time>2021-01-23T14:15:58Z</time>
      </trkpt>
      <trkpt lat="43.61545" lon="3.81957">
        <ele>37.5</ele>
        <time>2021-01-23T14:15:59Z</time>
      </trkpt>
      <trkpt lat="43.61543" lon="3.81962">
        <ele>37.6</ele>
        <time>2021-01-23T14:16:00Z</time>
      </trkpt>
      <trkpt lat="43.61542" lon="3.81968">
        <ele>37.8</ele>
        <time>2021-01-23T14:16:01Z</time>
      </trkpt>
      <trkpt lat="43.61539" lon="3.81973">
        <ele>42</ele>
        <time>2021-01-23T14:16:02Z</time>
      </trkpt>
      <trkpt lat="43.61537" lon="3.81979">
        <ele>38</ele>
        <time>2021-01-23T14:16:03Z</time>
      </trkpt>
      <trkpt lat="43.61536" lon="3.81984">
        <ele>38.2</ele>
        <time>2021-01-23T14:16:04Z</time>
      </trkpt>
      <trkpt lat="43.61534" lon="3.81989">
        <ele>38.4</ele>
        <time>2021-01-23T14:16:05Z</time>
      </trkpt>
      <trkpt lat="43.61533" lon="3.81995">
        <ele>38.7</ele>
        <time>2021-01-23T14:16:06Z</time>
      </trkpt>
      <trkpt lat="43.61532" lon="3.82">
        <ele>42</ele>
        <time>2021-01-23T14:16:07Z</time>
      </trkpt>
      <trkpt lat="43.61531" lon="3.82007">
        <ele>39.3</ele>
        <time>2021-01-23T14:16:08Z</time>
      </trkpt>
      <trkpt lat="43.61531" lon="3.82013">
        <ele>39.5</ele>
        <time>2021-01-23T14:16:09Z</time>
      </trkpt>
      <trkpt lat="43.61531" lon="3.82019">
        <ele>39.7</ele>
        <time>2021-01-23T14:16:10Z</time>
      </trkpt>
      <trkpt lat="43.61531" lon="3.82025">
        <ele>39.9</ele>
        <time>2021-01-23T14:16:11Z</time>
      </trkpt>
      <trkpt lat="43.61533" lon="3.82031">
        <ele>40.1</ele>
        <time>2021-01-23T14:16:12Z</time>
      </trkpt>
      <trkpt lat="43.61533" lon="3.82037">
        <ele>40.4</ele>
        <time>2021-01-23T14:16:13Z</time>
      </trkpt>
      <trkpt lat="43.61533" lon="3.82043">
        <ele>40.7</ele>
        <time>2021-01-23T14:16:14Z</time>
      </trkpt>
      <trkpt lat="43.61532" lon="3.82049">
        <ele>40.9</ele>
        <time>2021-01-23T14:16:15Z</time>
      </trkpt>
      <trkpt lat="43.61532" lon="3.82055">
        <ele>41.1</ele>
        <time>2021-01-23T14:16:16Z</time>
      </trkpt>
      <trkpt lat="43.61531" lon="3.8206">
        <ele>43</ele>
        <time>2021-01-23T14:16:17Z</time>
      </trkpt>
      <trkpt lat="43.61531" lon="3.82066">
        <ele>41.6</ele>
        <time>2021-01-23T14:16:18Z</time>
      </trkpt>
      <trkpt lat="43.6153" lon="3.82072">
        <ele>41.8</ele>
        <time>2021-01-23T14:16:19Z</time>
      </trkpt>
      <trkpt lat="43.61529" lon="3.82077">
        <ele>41.9</ele>
        <time>2021-01-23T14:16:20Z</time>
      </trkpt>
      <trkpt lat="43.61528" lon="3.82082">
        <ele>42</ele>
        <time>2021-01-23T14:16:21Z</time>
      </trkpt>
      <trkpt lat="43.61527" lon="3.82088">
        <ele>42.1</ele>
        <time>2021-01-23T14:16:22Z</time>
      </trkpt>
      <trkpt lat="43.61526" lon="3.82093">
        <ele>42.3</ele>
        <time>2021-01-23T14:16:23Z</time>
      </trkpt>
      <trkpt lat="43.61525" lon="3.82098">
        <ele>42.5</ele>
        <time>2021-01-23T14:16:24Z</time>
      </trkpt>
      <trkpt lat="43.61524" lon="3.82103">
        <ele>42.7</ele>
        <time>2021-01-23T14:16:25Z</time>
      </trkpt>
      <trkpt lat="43.61523" lon="3.82108">
        <ele>43</ele>
        <time>2021-01-23T14:16:26Z</time>
      </trkpt>
      <trkpt lat="43.61523" lon="3.82114">
        <ele>43</ele>
        <time>2021-01-23T14:16:27Z</time>
      </trkpt>
      <trkpt lat="43.61522" lon="3.82119">
        <ele>43.1</ele>
        <time>2021-01-23T14:16:28Z</time>
      </trkpt>
      <trkpt lat="43.61522" lon="3.82124">
        <ele>43</ele>
        <time>2021-01-23T14:16:29Z</time>
      </trkpt>
      <trkpt lat="43.61522" lon="3.82129">
        <ele>42.8</ele>
        <time>2021-01-23T14:16:30Z</time>
      </trkpt>
      <trkpt lat="43.61521" lon="3.82134">
        <ele>42.9</ele>
        <time>2021-01-23T14:16:31Z</time>
      </trkpt>
      <trkpt lat="43.61521" lon="3.82139">
        <ele>42.7</ele>
        <time>2021-01-23T14:16:32Z</time>
      </trkpt>
      <trkpt lat="43.6152" lon="3.82144">
        <ele>42.9</ele>
        <time>2021-01-23T14:16:33Z</time>
      </trkpt>
      <trkpt lat="43.6152" lon="3.82149">
        <ele>42.9</ele>
        <time>2021-01-23T14:16:34Z</time>
      </trkpt>
      <trkpt lat="43.61519" lon="3.82154">
        <ele>43</ele>
        <time>2021-01-23T14:16:35Z</time>
      </trkpt>
      <trkpt lat="43.61519" lon="3.82159">
        <ele>43</ele>
        <time>2021-01-23T14:16:36Z</time>
      </trkpt>
      <trkpt lat="43.61518" lon="3.82165">
        <ele>44</ele>
        <time>2021-01-23T14:16:37Z</time>
      </trkpt>
      <trkpt lat="43.61517" lon="3.8217">
        <ele>43.1</ele>
        <time>2021-01-23T14:16:38Z</time>
      </trkpt>
      <trkpt lat="43.61517" lon="3.82175">
        <ele>43.3</ele>
        <time>2021-01-23T14:16:39Z</time>
      </trkpt>
      <trkpt lat="43.61516" lon="3.8218">
        <ele>43.5</ele>
        <time>2021-01-23T14:16:40Z</time>
      </trkpt>
      <trkpt lat="43.61516" lon="3.82184">
        <ele>43.6</ele>
        <time>2021-01-23T14:16:41Z</time>
      </trkpt>
      <trkpt lat="43.61515" lon="3.82189">
        <ele>43.8</ele>
        <time>2021-01-23T14:16:42Z</time>
      </trkpt>
      <trkpt lat="43.61515" lon="3.82193">
        <ele>43.9</ele>
        <time>2021-01-23T14:16:43Z</time>
      </trkpt>
      <trkpt lat="43.61514" lon="3.82198">
        <ele>44.1</ele>
        <time>2021-01-23T14:16:44Z</time>
      </trkpt>
      <trkpt lat="43.61513" lon="3.82202">
        <ele>44.1</ele>
        <time>2021-01-23T14:16:45Z</time>
      </trkpt>
      <trkpt lat="43.61511" lon="3.82205">
        <ele>44.2</ele>
        <time>2021-01-23T14:16:46Z</time>
      </trkpt>
      <trkpt lat="43.61509" lon="3.82208">
        <ele>45</ele>
        <time>2021-01-23T14:16:47Z</time>
      </trkpt>
      <trkpt lat="43.61507" lon="3.8221">
        <ele>44.1</ele>
        <time>2021-01-23T14:16:48Z</time>
      </trkpt>
      <trkpt lat="43.61504" lon="3.82211">
        <ele>44.1</ele>
        <time>2021-01-23T14:16:49Z</time>
      </trkpt>
      <trkpt lat="43.61501" lon="3.82211">
        <ele>44</ele>
        <time>2021-01-23T14:16:50Z</time>
      </trkpt>
      <trkpt lat="43.61498" lon="3.82211">
        <ele>44</ele>
        <time>2021-01-23T14:16:51Z</time>
      </trkpt>
      <trkpt lat="43.61495" lon="3.8221">
        <ele>43.9</ele>
        <time>2021-01-23T14:16:52Z</time>
      </trkpt>
      <trkpt lat="43.61491" lon="3.8221">
        <ele>43.9</ele>
        <time>2021-01-23T14:16:53Z</time>
      </trkpt>
      <trkpt lat="43.61488" lon="3.82209">
        <ele>43.8</ele>
        <time>2021-01-23T14:16:54Z</time>
      </trkpt>
      <trkpt lat="43.61485" lon="3.82209">
        <ele>43.7</ele>
        <time>2021-01-23T14:16:55Z</time>
      </trkpt>
      <trkpt lat="43.61481" lon="3.82209">
        <ele>43.7</ele>
        <time>2021-01-23T14:16:56Z</time>
      </trkpt>
      <trkpt lat="43.61477" lon="3.82209">
        <ele>45</ele>
        <time>2021-01-23T14:16:57Z</time>
      </trkpt>
      <trkpt lat="43.61474" lon="3.8221">
        <ele>43.6</ele>
        <time>2021-01-23T14:16:58Z</time>
      </trkpt>
      <trkpt lat="43.61471" lon="3.82211">
        <ele>43.6</ele>
        <time>2021-01-23T14:16:59Z</time>
      </trkpt>
      <trkpt lat="43.61468" lon="3.82212">
        <ele>43.5</ele>
        <time>2021-01-23T14:17:00Z</time>
      </trkpt>
      <trkpt lat="43.61465" lon="3.82213">
        <ele>43.5</ele>
        <time>2021-01-23T14:17:01Z</time>
      </trkpt>
      <trkpt lat="43.61462" lon="3.82213">
        <ele>43.4</ele>
        <time>2021-01-23T14:17:02Z</time>
      </trkpt>
      <trkpt lat="43.61459" lon="3.82213">
        <ele>43.4</ele>
        <time>2021-01-23T14:17:03Z</time>
      </trkpt>
      <trkpt lat="43.61456" lon="3.82215">
        <ele>43.3</ele>
        <time>2021-01-23T14:17:04Z</time>
      </trkpt>
      <trkpt lat="43.61454" lon="3.82216">
        <ele>43.3</ele>
        <time>2021-01-23T14:17:05Z</time>
      </trkpt>
      <trkpt lat="43.61451" lon="3.82218">
        <ele>43.2</ele>
        <time>2021-01-23T14:17:06Z</time>
      </trkpt>
      <trkpt lat="43.61447" lon="3.8222">
        <ele>47</ele>
        <time>2021-01-23T14:17:07Z</time>
      </trkpt>
      <trkpt lat="43.61444" lon="3.82222">
        <ele>43</ele>
        <time>2021-01-23T14:17:08Z</time>
      </trkpt>
      <trkpt lat="43.61441" lon="3.82224">
        <ele>43.1</ele>
        <time>2021-01-23T14:17:09Z</time>
      </trkpt>
      <trkpt lat="43.61438" lon="3.82226">
        <ele>43.3</ele>
        <time>2021-01-23T14:17:10Z</time>
      </trkpt>
      <trkpt lat="43.61435" lon="3.82227">
        <ele>43.3</ele>
        <time>2021-01-23T14:17:11Z</time>
      </trkpt>
      <trkpt lat="43.61432" lon="3.82229">
        <ele>43.5</ele>
        <time>2021-01-23T14:17:12Z</time>
      </trkpt>
      <trkpt lat="43.6143" lon="3.82231">
        <ele>43.6</ele>
        <time>2021-01-23T14:17:13Z</time>
      </trkpt>
      <trkpt lat="43.61427" lon="3.82232">
        <ele>43.7</ele>
        <time>2021-01-23T14:17:14Z</time>
      </trkpt>
      <trkpt lat="43.61426" lon="3.82233">
        <ele>43.8</ele>
        <time>2021-01-23T14:17:15Z</time>
      </trkpt>
      <trkpt lat="43.61423" lon="3.82235">
        <ele>43.9</ele>
        <time>2021-01-23T14:17:16Z</time>
      </trkpt>
      <trkpt lat="43.61421" lon="3.82236">
        <ele>48</ele>
        <time>2021-01-23T14:17:17Z</time>
      </trkpt>
      <trkpt lat="43.61418" lon="3.82238">
        <ele>44.1</ele>
        <time>2021-01-23T14:17:20Z</time>
      </trkpt>
      <trkpt lat="43.61415" lon="3.8224">
        <ele>44.3</ele>
        <time>2021-01-23T14:17:21Z</time>
      </trkpt>
      <trkpt lat="43.61412" lon="3.82242">
        <ele>44.4</ele>
        <time>2021-01-23T14:17:22Z</time>
      </trkpt>
      <trkpt lat="43.61409" lon="3.82244">
        <ele>44.6</ele>
        <time>2021-01-23T14:17:23Z</time>
      </trkpt>
      <trkpt lat="43.61406" lon="3.82246">
        <ele>44.7</ele>
        <time>2021-01-23T14:17:24Z</time>
      </trkpt>
      <trkpt lat="43.61404" lon="3.82249">
        <ele>44.9</ele>
        <time>2021-01-23T14:17:25Z</time>
      </trkpt>
      <trkpt lat="43.61401" lon="3.82252">
        <ele>45.1</ele>
        <time>2021-01-23T14:17:26Z</time>
      </trkpt>
      <trkpt lat="43.61398" lon="3.82255">
        <ele>50</ele>
        <time>2021-01-23T14:17:27Z</time>
      </trkpt>
      <trkpt lat="43.61395" lon="3.82258">
        <ele>45.5</ele>
        <time>2021-01-23T14:17:28Z</time>
      </trkpt>
      <trkpt lat="43.61393" lon="3.8226">
        <ele>45.7</ele>
        <time>2021-01-23T14:17:29Z</time>
      </trkpt>
      <trkpt lat="43.61391" lon="3.82263">
        <ele>45.9</ele>
        <time>2021-01-23T14:17:30Z</time>
      </trkpt>
      <trkpt lat="43.6139" lon="3.82265">
        <ele>46.1</ele>
        <time>2021-01-23T14:17:31Z</time>
      </trkpt>
      <trkpt lat="43.61389" lon="3.82267">
        <ele>46.2</ele>
        <time>2021-01-23T14:17:32Z</time>
      </trkpt>
      <trkpt lat="43.61388" lon="3.8227">
        <ele>46.5</ele>
        <time>2021-01-23T14:17:33Z</time>
      </trkpt>
      <trkpt lat="43.61386" lon="3.82272">
        <ele>46.7</ele>
        <time>2021-01-23T14:17:34Z</time>
      </trkpt>
      <trkpt lat="43.61385" lon="3.82274">
        <ele>46.9</ele>
        <time>2021-01-23T14:17:35Z</time>
      </trkpt>
      <trkpt lat="43.61384" lon="3.82276">
        <ele>47.2</ele>
        <time>2021-01-23T14:17:36Z</time>
      </trkpt>
      <trkpt lat="43.61383" lon="3.82278">
        <ele>53</ele>
        <time>2021-01-23T14:17:37Z</time>
      </trkpt>
      <trkpt lat="43.61381" lon="3.82282">
        <ele>47.8</ele>
        <time>2021-01-23T14:17:39Z</time>
      </trkpt>
      <trkpt lat="43.61379" lon="3.82285">
        <ele>48.2</ele>
        <time>2021-01-23T14:17:41Z</time>
      </trkpt>
      <trkpt lat="43.61377" lon="3.82288">
        <ele>48.5</ele>
        <time>2021-01-23T14:17:43Z</time>
      </trkpt>
      <trkpt lat="43.61375" lon="3.82291">
        <ele>49</ele>
        <time>2021-01-23T14:17:45Z</time>
      </trkpt>
      <trkpt lat="43.61372" lon="3.82293">
        <ele>54</ele>
        <time>2021-01-23T14:17:47Z</time>
      </trkpt>
      <trkpt lat="43.6137" lon="3.82294">
        <ele>49.7</ele>
        <time>2021-01-23T14:17:48Z</time>
      </trkpt>
      <trkpt lat="43.61368" lon="3.82295">
        <ele>50.1</ele>
        <time>2021-01-23T14:17:49Z</time>
      </trkpt>
      <trkpt lat="43.61365" lon="3.82295">
        <ele>50.4</ele>
        <time>2021-01-23T14:17:51Z</time>
      </trkpt>
      <trkpt lat="43.61361" lon="3.82296">
        <ele>51</ele>
        <time>2021-01-23T14:17:53Z</time>
      </trkpt>
      <trkpt lat="43.61358" lon="3.82296">
        <ele>51</ele>
        <time>2021-01-23T14:17:55Z</time>
      </trkpt>
      <trkpt lat="43.61354" lon="3.82297">
        <ele>56</ele>
        <time>2021-01-23T14:17:57Z</time>
      </trkpt>
      <trkpt lat="43.61351" lon="3.82297">
        <ele>51.4</ele>
        <time>2021-01-23T14:17:59Z</time>
      </trkpt>
      <trkpt lat="43.61348" lon="3.82299">
        <ele>51.8</ele>
        <time>2021-01-23T14:18:01Z</time>
      </trkpt>
      <trkpt lat="43.61345" lon="3.823">
        <ele>52.1</ele>
        <time>2021-01-23T14:18:03Z</time>
      </trkpt>
      <trkpt lat="43.61342" lon="3.82302">
        <ele>52.6</ele>
        <time>2021-01-23T14:18:05Z</time>
      </trkpt>
      <trkpt lat="43.61339" lon="3.82305">
        <ele>57</ele>
        <time>2021-01-23T14:18:07Z</time>
      </trkpt>
      <trkpt lat="43.61337" lon="3.82307">
        <ele>53.7</ele>
        <time>2021-01-23T14:18:08Z</time>
      </trkpt>
      <trkpt lat="43.61336" lon="3.82309">
        <ele>53.8</ele>
        <time>2021-01-23T14:18:09Z</time>
      </trkpt>
      <trkpt lat="43.61334" lon="3.82311">
        <ele>54</ele>
        <time>2021-01-23T14:18:10Z</time>
      </trkpt>
      <trkpt lat="43.61333" lon="3.82313">
        <ele>53.9</ele>
        <time>2021-01-23T14:18:11Z</time>
      </trkpt>
      <trkpt lat="43.61331" lon="3.82315">
        <ele>53.6</ele>
        <time>2021-01-23T14:18:12Z</time>
      </trkpt>
      <trkpt lat="43.61329" lon="3.82317">
        <ele>53.3</ele>
        <time>2021-01-23T14:18:13Z</time>
      </trkpt>
      <trkpt lat="43.61327" lon="3.82319">
        <ele>53</ele>
        <time>2021-01-23T14:18:14Z</time>
      </trkpt>
      <trkpt lat="43.61324" lon="3.82322">
        <ele>52.6</ele>
        <time>2021-01-23T14:18:15Z</time>
      </trkpt>
      <trkpt lat="43.61322" lon="3.82325">
        <ele>52.4</ele>
        <time>2021-01-23T14:18:16Z</time>
      </trkpt>
      <trkpt lat="43.61317" lon="3.82333">
        <ele>57</ele>
        <time>2021-01-23T14:18:17Z</time>
      </trkpt>
      <trkpt lat="43.61314" lon="3.82337">
        <ele>51.9</ele>
        <time>2021-01-23T14:18:19Z</time>
      </trkpt>
      <trkpt lat="43.61311" lon="3.8234">
        <ele>51.5</ele>
        <time>2021-01-23T14:18:20Z</time>
      </trkpt>
      <trkpt lat="43.61309" lon="3.82344">
        <ele>51.3</ele>
        <time>2021-01-23T14:18:21Z</time>
      </trkpt>
      <trkpt lat="43.61307" lon="3.82348">
        <ele>51.1</ele>
        <time>2021-01-23T14:18:22Z</time>
      </trkpt>
      <trkpt lat="43.61306" lon="3.82352">
        <ele>51</ele>
        <time>2021-01-23T14:18:23Z</time>
      </trkpt>
      <trkpt lat="43.61306" lon="3.82357">
        <ele>51</ele>
        <time>2021-01-23T14:18:24Z</time>
      </trkpt>
      <trkpt lat="43.61307" lon="3.82363">
        <ele>51</ele>
        <time>2021-01-23T14:18:25Z</time>
      </trkpt>
      <trkpt lat="43.61308" lon="3.8237">
        <ele>50.5</ele>
        <time>2021-01-23T14:18:26Z</time>
      </trkpt>
      <trkpt lat="43.61309" lon="3.82376">
        <ele>56</ele>
        <time>2021-01-23T14:18:27Z</time>
      </trkpt>
      <trkpt lat="43.6131" lon="3.82381">
        <ele>49.8</ele>
        <time>2021-01-23T14:18:28Z</time>
      </trkpt>
      <trkpt lat="43.61312" lon="3.82386">
        <ele>49.5</ele>
        <time>2021-01-23T14:18:29Z</time>
      </trkpt>
      <trkpt lat="43.61313" lon="3.8239">
        <ele>49.3</ele>
        <time>2021-01-23T14:18:30Z</time>
      </trkpt>
      <trkpt lat="43.61313" lon="3.82395">
        <ele>49.3</ele>
        <time>2021-01-23T14:18:31Z</time>
      </trkpt>
      <trkpt lat="43.61313" lon="3.824">
        <ele>49.4</ele>
        <time>2021-01-23T14:18:32Z</time>
      </trkpt>
      <trkpt lat="43.61313" lon="3.82409">
        <ele>49.5</ele>
        <time>2021-01-23T14:18:33Z</time>
      </trkpt>
      <trkpt lat="43.61313" lon="3.82414">
        <ele>49.5</ele>
        <time>2021-01-23T14:18:35Z</time>
      </trkpt>
      <trkpt lat="43.61312" lon="3.82419">
        <ele>49.6</ele>
        <time>2021-01-23T14:18:36Z</time>
      </trkpt>
      <trkpt lat="43.61311" lon="3.82425">
        <ele>55</ele>
        <time>2021-01-23T14:18:37Z</time>
      </trkpt>
      <trkpt lat="43.61311" lon="3.8243">
        <ele>50.1</ele>
        <time>2021-01-23T14:18:38Z</time>
      </trkpt>
      <trkpt lat="43.6131" lon="3.82435">
        <ele>50.3</ele>
        <time>2021-01-23T14:18:39Z</time>
      </trkpt>
      <trkpt lat="43.61309" lon="3.8244">
        <ele>50.6</ele>
        <time>2021-01-23T14:18:40Z</time>
      </trkpt>
      <trkpt lat="43.61307" lon="3.82445">
        <ele>50.9</ele>
        <time>2021-01-23T14:18:41Z</time>
      </trkpt>
      <trkpt lat="43.61306" lon="3.8245">
        <ele>51</ele>
        <time>2021-01-23T14:18:42Z</time>
      </trkpt>
      <trkpt lat="43.61304" lon="3.82455">
        <ele>50.7</ele>
        <time>2021-01-23T14:18:43Z</time>
      </trkpt>
      <trkpt lat="43.61302" lon="3.8246">
        <ele>50.2</ele>
        <time>2021-01-23T14:18:44Z</time>
      </trkpt>
      <trkpt lat="43.613" lon="3.82465">
        <ele>49.9</ele>
        <time>2021-01-23T14:18:45Z</time>
      </trkpt>
      <trkpt lat="43.61298" lon="3.82469">
        <ele>49.6</ele>
        <time>2021-01-23T14:18:46Z</time>
      </trkpt>
      <trkpt lat="43.61296" lon="3.82473">
        <ele>56</ele>
        <time>2021-01-23T14:18:47Z</time>
      </trkpt>
      <trkpt lat="43.61294" lon="3.82478">
        <ele>49.4</ele>
        <time>2021-01-23T14:18:48Z</time>
      </trkpt>
      <trkpt lat="43.61292" lon="3.82481">
        <ele>49.5</ele>
        <time>2021-01-23T14:18:49Z</time>
      </trkpt>
      <trkpt lat="43.6129" lon="3.82484">
        <ele>49.6</ele>
        <time>2021-01-23T14:18:50Z</time>
      </trkpt>
      <trkpt lat="43.61288" lon="3.82487">
        <ele>49.9</ele>
        <time>2021-01-23T14:18:51Z</time>
      </trkpt>
      <trkpt lat="43.61286" lon="3.8249">
        <ele>50.2</ele>
        <time>2021-01-23T14:18:52Z</time>
      </trkpt>
      <trkpt lat="43.61283" lon="3.82493">
        <ele>50.6</ele>
        <time>2021-01-23T14:18:53Z</time>
      </trkpt>
      <trkpt lat="43.6128" lon="3.82496">
        <ele>51.1</ele>
        <time>2021-01-23T14:18:54Z</time>
      </trkpt>
      <trkpt lat="43.61277" lon="3.82499">
        <ele>51.7</ele>
        <time>2021-01-23T14:18:55Z</time>
      </trkpt>
      <trkpt lat="43.61274" lon="3.82502">
        <ele>51.7</ele>
        <time>2021-01-23T14:18:56Z</time>
      </trkpt>
      <trkpt lat="43.61271" lon="3.82505">
        <ele>56</ele>
        <time>2021-01-23T14:18:57Z</time>
      </trkpt>
      <trkpt lat="43.61268" lon="3.82507">
        <ele>51.5</ele>
        <time>2021-01-23T14:18:58Z</time>
      </trkpt>
      <trkpt lat="43.61265" lon="3.82509">
        <ele>51.4</ele>
        <time>2021-01-23T14:18:59Z</time>
      </trkpt>
      <trkpt lat="43.61261" lon="3.82511">
        <ele>51.3</ele>
        <time>2021-01-23T14:19:00Z</time>
      </trkpt>
      <trkpt lat="43.61257" lon="3.82513">
        <ele>51.3</ele>
        <time>2021-01-23T14:19:01Z</time>
      </trkpt>
      <trkpt lat="43.61253" lon="3.82514">
        <ele>51.2</ele>
        <time>2021-01-23T14:19:02Z</time>
      </trkpt>
      <trkpt lat="43.61249" lon="3.82516">
        <ele>51.3</ele>
        <time>2021-01-23T14:19:03Z</time>
      </trkpt>
      <trkpt lat="43.61246" lon="3.82518">
        <ele>51.6</ele>
        <time>2021-01-23T14:19:04Z</time>
      </trkpt>
      <trkpt lat="43.61244" lon="3.8252">
        <ele>51.9</ele>
        <time>2021-01-23T14:19:05Z</time>
      </trkpt>
      <trkpt lat="43.61242" lon="3.82522">
        <ele>52.2</ele>
        <time>2021-01-23T14:19:06Z</time>
      </trkpt>
      <trkpt lat="43.61239" lon="3.82523">
        <ele>56</ele>
        <time>2021-01-23T14:19:07Z</time>
      </trkpt>
      <trkpt lat="43.61236" lon="3.82525">
        <ele>52.6</ele>
        <time>2021-01-23T14:19:08Z</time>
      </trkpt>
      <trkpt lat="43.61233" lon="3.82527">
        <ele>52.9</ele>
        <time>2021-01-23T14:19:09Z</time>
      </trkpt>
      <trkpt lat="43.61229" lon="3.8253">
        <ele>53.2</ele>
        <time>2021-01-23T14:19:10Z</time>
      </trkpt>
      <trkpt lat="43.61225" lon="3.82532">
        <ele>53.4</ele>
        <time>2021-01-23T14:19:11Z</time>
      </trkpt>
      <trkpt lat="43.61222" lon="3.82534">
        <ele>53.7</ele>
        <time>2021-01-23T14:19:12Z</time>
      </trkpt>
      <trkpt lat="43.6122" lon="3.82536">
        <ele>53.7</ele>
        <time>2021-01-23T14:19:13Z</time>
      </trkpt>
      <trkpt lat="43.61217" lon="3.82538">
        <ele>53.7</ele>
        <time>2021-01-23T14:19:14Z</time>
      </trkpt>
      <trkpt lat="43.61215" lon="3.8254">
        <ele>53.7</ele>
        <time>2021-01-23T14:19:15Z</time>
      </trkpt>
      <trkpt lat="43.61213" lon="3.82542">
        <ele>53.7</ele>
        <time>2021-01-23T14:19:16Z</time>
      </trkpt>
      <trkpt lat="43.61211" lon="3.82543">
        <ele>58</ele>
        <time>2021-01-23T14:19:17Z</time>
      </trkpt>
      <trkpt lat="43.61208" lon="3.82546">
        <ele>53.6</ele>
        <time>2021-01-23T14:19:19Z</time>
      </trkpt>
      <trkpt lat="43.61206" lon="3.82548">
        <ele>53.6</ele>
        <time>2021-01-23T14:19:21Z</time>
      </trkpt>
      <trkpt lat="43.61204" lon="3.82549">
        <ele>53.5</ele>
        <time>2021-01-23T14:19:23Z</time>
      </trkpt>
      <trkpt lat="43.61203" lon="3.82552">
        <ele>53.6</ele>
        <time>2021-01-23T14:19:26Z</time>
      </trkpt>
      <trkpt lat="43.61199" lon="3.82565">
        <ele>59</ele>
        <time>2021-01-23T14:20:04Z</time>
      </trkpt>
      <trkpt lat="43.61198" lon="3.82569">
        <ele>53.8</ele>
        <time>2021-01-23T14:20:05Z</time>
      </trkpt>
      <trkpt lat="43.61197" lon="3.82573">
        <ele>53.8</ele>
        <time>2021-01-23T14:20:06Z</time>
      </trkpt>
      <trkpt lat="43.61196" lon="3.82577">
        <ele>53.9</ele>
        <time>2021-01-23T14:20:07Z</time>
      </trkpt>
      <trkpt lat="43.61195" lon="3.82582">
        <ele>54</ele>
        <time>2021-01-23T14:20:08Z</time>
      </trkpt>
      <trkpt lat="43.61194" lon="3.82586">
        <ele>54.1</ele>
        <time>2021-01-23T14:20:09Z</time>
      </trkpt>
      <trkpt lat="43.61194" lon="3.82591">
        <ele>54.3</ele>
        <time>2021-01-23T14:20:10Z</time>
      </trkpt>
      <trkpt lat="43.61193" lon="3.82596">
        <ele>54.4</ele>
        <time>2021-01-23T14:20:11Z</time>
      </trkpt>
      <trkpt lat="43.61192" lon="3.82601">
        <ele>54.5</ele>
        <time>2021-01-23T14:20:12Z</time>
      </trkpt>
      <trkpt lat="43.61192" lon="3.82605">
        <ele>60</ele>
        <time>2021-01-23T14:20:13Z</time>
      </trkpt>
      <trkpt lat="43.61191" lon="3.8261">
        <ele>54.8</ele>
        <time>2021-01-23T14:20:14Z</time>
      </trkpt>
      <trkpt lat="43.6119" lon="3.82614">
        <ele>54.8</ele>
        <time>2021-01-23T14:20:15Z</time>
      </trkpt>
      <trkpt lat="43.61189" lon="3.82618">
        <ele>54.8</ele>
        <time>2021-01-23T14:20:16Z</time>
      </trkpt>
      <trkpt lat="43.61189" lon="3.82623">
        <ele>54.8</ele>
        <time>2021-01-23T14:20:17Z</time>
      </trkpt>
      <trkpt lat="43.61188" lon="3.82627">
        <ele>54.8</ele>
        <time>2021-01-23T14:20:18Z</time>
      </trkpt>
      <trkpt lat="43.61188" lon="3.82631">
        <ele>54.8</ele>
        <time>2021-01-23T14:20:19Z</time>
      </trkpt>
      <trkpt lat="43.61187" lon="3.82636">
        <ele>54.7</ele>
        <time>2021-01-23T14:20:20Z</time>
      </trkpt>
      <trkpt lat="43.61186" lon="3.82641">
        <ele>54.7</ele>
        <time>2021-01-23T14:20:21Z</time>
      </trkpt>
      <trkpt lat="43.61185" lon="3.82646">
        <ele>54.7</ele>
        <time>2021-01-23T14:20:22Z</time>
      </trkpt>
      <trkpt lat="43.61184" lon="3.82655">
        <ele>61</ele>
        <time>2021-01-23T14:20:23Z</time>
      </trkpt>
      <trkpt lat="43.61183" lon="3.8266">
        <ele>54.6</ele>
        <time>2021-01-23T14:20:24Z</time>
      </trkpt>
      <trkpt lat="43.61182" lon="3.82665">
        <ele>54.6</ele>
        <time>2021-01-23T14:20:25Z</time>
      </trkpt>
      <trkpt lat="43.61181" lon="3.8267">
        <ele>54.6</ele>
        <time>2021-01-23T14:20:26Z</time>
      </trkpt>
      <trkpt lat="43.6118" lon="3.82674">
        <ele>54.6</ele>
        <time>2021-01-23T14:20:27Z</time>
      </trkpt>
      <trkpt lat="43.61179" lon="3.82679">
        <ele>54.7</ele>
        <time>2021-01-23T14:20:28Z</time>
      </trkpt>
      <trkpt lat="43.61178" lon="3.82684">
        <ele>54.8</ele>
        <time>2021-01-23T14:20:29Z</time>
      </trkpt>
      <trkpt lat="43.61177" lon="3.82695">
        <ele>55</ele>
        <time>2021-01-23T14:20:31Z</time>
      </trkpt>
      <trkpt lat="43.61176" lon="3.827">
        <ele>54.9</ele>
        <time>2021-01-23T14:20:32Z</time>
      </trkpt>
      <trkpt lat="43.61175" lon="3.82706">
        <ele>54.9</ele>
        <time>2021-01-23T14:20:34Z</time>
      </trkpt>
      <trkpt lat="43.61174" lon="3.82711">
        <ele>54.8</ele>
        <time>2021-01-23T14:20:35Z</time>
      </trkpt>
      <trkpt lat="43.61173" lon="3.82716">
        <ele>54.8</ele>
        <time>2021-01-23T14:20:36Z</time>
      </trkpt>
      <trkpt lat="43.61172" lon="3.8272">
        <ele>54.8</ele>
        <time>2021-01-23T14:20:37Z</time>
      </trkpt>
      <trkpt lat="43.61171" lon="3.82725">
        <ele>54.9</ele>
        <time>2021-01-23T14:20:38Z</time>
      </trkpt>
      <trkpt lat="43.6117" lon="3.82729">
        <ele>55.1</ele>
        <time>2021-01-23T14:20:39Z</time>
      </trkpt>
      <trkpt lat="43.6117" lon="3.82733">
        <ele>55.3</ele>
        <time>2021-01-23T14:20:40Z</time>
      </trkpt>
      <trkpt lat="43.6117" lon="3.82737">
        <ele>55.4</ele>
        <time>2021-01-23T14:20:41Z</time>
      </trkpt>
      <trkpt lat="43.6117" lon="3.82741">
        <ele>55.6</ele>
        <time>2021-01-23T14:20:42Z</time>
      </trkpt>
      <trkpt lat="43.6117" lon="3.82745">
        <ele>63</ele>
        <time>2021-01-23T14:20:43Z</time>
      </trkpt>
      <trkpt lat="43.6117" lon="3.82749">
        <ele>55.8</ele>
        <time>2021-01-23T14:20:44Z</time>
      </trkpt>
      <trkpt lat="43.6117" lon="3.82752">
        <ele>55.8</ele>
        <time>2021-01-23T14:20:45Z</time>
      </trkpt>
      <trkpt lat="43.61171" lon="3.82755">
        <ele>55.7</ele>
        <time>2021-01-23T14:20:46Z</time>
      </trkpt>
      <trkpt lat="43.61171" lon="3.82759">
        <ele>55.6</ele>
        <time>2021-01-23T14:20:47Z</time>
      </trkpt>
      <trkpt lat="43.6117" lon="3.82762">
        <ele>55.5</ele>
        <time>2021-01-23T14:20:48Z</time>
      </trkpt>
      <trkpt lat="43.6117" lon="3.82766">
        <ele>55.4</ele>
        <time>2021-01-23T14:20:49Z</time>
      </trkpt>
      <trkpt lat="43.6117" lon="3.8277">
        <ele>55.2</ele>
        <time>2021-01-23T14:20:50Z</time>
      </trkpt>
      <trkpt lat="43.61169" lon="3.82774">
        <ele>55.1</ele>
        <time>2021-01-23T14:20:51Z</time>
      </trkpt>
      <trkpt lat="43.61168" lon="3.82779">
        <ele>55</ele>
        <time>2021-01-23T14:20:52Z</time>
      </trkpt>
      <trkpt lat="43.61167" lon="3.82784">
        <ele>62</ele>
        <time>2021-01-23T14:20:53Z</time>
      </trkpt>
      <trkpt lat="43.61165" lon="3.82789">
        <ele>55.5</ele>
        <time>2021-01-23T14:20:54Z</time>
      </trkpt>
      <trkpt lat="43.61164" lon="3.82794">
        <ele>55.7</ele>
        <time>2021-01-23T14:20:55Z</time>
      </trkpt>
      <trkpt lat="43.61163" lon="3.82799">
        <ele>55.9</ele>
        <time>2021-01-23T14:20:56Z</time>
      </trkpt>
      <trkpt lat="43.61162" lon="3.82804">
        <ele>56.1</ele>
        <time>2021-01-23T14:20:57Z</time>
      </trkpt>
      <trkpt lat="43.61162" lon="3.82809">
        <ele>56.2</ele>
        <time>2021-01-23T14:20:58Z</time>
      </trkpt>
      <trkpt lat="43.61162" lon="3.82814">
        <ele>56.2</ele>
        <time>2021-01-23T14:20:59Z</time>
      </trkpt>
      <trkpt lat="43.61162" lon="3.82819">
        <ele>56.2</ele>
        <time>2021-01-23T14:21:00Z</time>
      </trkpt>
      <trkpt lat="43.61163" lon="3.82824">
        <ele>56.1</ele>
        <time>2021-01-23T14:21:01Z</time>
      </trkpt>
      <trkpt lat="43.61163" lon="3.82828">
        <ele>56.1</ele>
        <time>2021-01-23T14:21:02Z</time>
      </trkpt>
      <trkpt lat="43.61165" lon="3.82833">
        <ele>61</ele>
        <time>2021-01-23T14:21:03Z</time>
      </trkpt>
      <trkpt lat="43.61166" lon="3.82837">
        <ele>56.2</ele>
        <time>2021-01-23T14:21:04Z</time>
      </trkpt>
      <trkpt lat="43.61166" lon="3.82842">
        <ele>56.3</ele>
        <time>2021-01-23T14:21:05Z</time>
      </trkpt>
      <trkpt lat="43.61167" lon="3.82846">
        <ele>56.4</ele>
        <time>2021-01-23T14:21:06Z</time>
      </trkpt>
      <trkpt lat="43.61168" lon="3.8285">
        <ele>56.6</ele>
        <time>2021-01-23T14:21:07Z</time>
      </trkpt>
      <trkpt lat="43.6117" lon="3.82854">
        <ele>56.6</ele>
        <time>2021-01-23T14:21:08Z</time>
      </trkpt>
      <trkpt lat="43.61171" lon="3.82857">
        <ele>56.7</ele>
        <time>2021-01-23T14:21:09Z</time>
      </trkpt>
      <trkpt lat="43.61172" lon="3.82861">
        <ele>56.8</ele>
        <time>2021-01-23T14:21:10Z</time>
      </trkpt>
      <trkpt lat="43.61174" lon="3.82865">
        <ele>56.7</ele>
        <time>2021-01-23T14:21:11Z</time>
      </trkpt>
      <trkpt lat="43.61175" lon="3.82868">
        <ele>56.7</ele>
        <time>2021-01-23T14:21:12Z</time>
      </trkpt>
      <trkpt lat="43.61176" lon="3.82871">
        <ele>61</ele>
        <time>2021-01-23T14:21:13Z</time>
      </trkpt>
      <trkpt lat="43.61176" lon="3.82875">
        <ele>56.7</ele>
        <time>2021-01-23T14:21:14Z</time>
      </trkpt>
      <trkpt lat="43.61176" lon="3.82879">
        <ele>56.7</ele>
        <time>2021-01-23T14:21:15Z</time>
      </trkpt>
      <trkpt lat="43.61176" lon="3.82882">
        <ele>56.7</ele>
        <time>2021-01-23T14:21:16Z</time>
      </trkpt>
      <trkpt lat="43.61176" lon="3.82886">
        <ele>56.7</ele>
        <time>2021-01-23T14:21:18Z</time>
      </trkpt>
      <trkpt lat="43.61175" lon="3.82887">
        <ele>56.7</ele>
        <time>2021-01-23T14:21:20Z</time>
      </trkpt>
      <trkpt lat="43.61175" lon="3.82887">
        <ele>62</ele>
        <time>2021-01-23T14:21:25Z</time>
      </trkpt>
      <trkpt lat="43.61174" lon="3.82895">
        <ele>63</ele>
        <time>2021-01-23T14:22:31Z</time>
      </trkpt>
      <trkpt lat="43.61175" lon="3.82898">
        <ele>56.8</ele>
        <time>2021-01-23T14:22:32Z</time>
      </trkpt>
      <trkpt lat="43.61177" lon="3.82901">
        <ele>56.8</ele>
        <time>2021-01-23T14:22:33Z</time>
      </trkpt>
      <trkpt lat="43.61179" lon="3.82904">
        <ele>56.8</ele>
        <time>2021-01-23T14:22:34Z</time>
      </trkpt>
      <trkpt lat="43.61181" lon="3.82907">
        <ele>56.8</ele>
        <time>2021-01-23T14:22:35Z</time>
      </trkpt>
      <trkpt lat="43.61183" lon="3.8291">
        <ele>56.9</ele>
        <time>2021-01-23T14:22:36Z</time>
      </trkpt>
      <trkpt lat="43.61185" lon="3.82914">
        <ele>56.9</ele>
        <time>2021-01-23T14:22:37Z</time>
      </trkpt>
      <trkpt lat="43.61186" lon="3.82919">
        <ele>57</ele>
        <time>2021-01-23T14:22:38Z</time>
      </trkpt>
      <trkpt lat="43.61186" lon="3.82924">
        <ele>57</ele>
        <time>2021-01-23T14:22:39Z</time>
      </trkpt>
      <trkpt lat="43.61187" lon="3.82929">
        <ele>57</ele>
        <time>2021-01-23T14:22:40Z</time>
      </trkpt>
      <trkpt lat="43.61188" lon="3.82933">
        <ele>63</ele>
        <time>2021-01-23T14:22:41Z</time>
      </trkpt>
      <trkpt lat="43.61189" lon="3.82939">
        <ele>57</ele>
        <time>2021-01-23T14:22:42Z</time>
      </trkpt>
      <trkpt lat="43.61189" lon="3.82944">
        <ele>57</ele>
        <time>2021-01-23T14:22:43Z</time>
      </trkpt>
      <trkpt lat="43.6119" lon="3.82949">
        <ele>57</ele>
        <time>2021-01-23T14:22:44Z</time>
      </trkpt>
      <trkpt lat="43.61191" lon="3.82955">
        <ele>57</ele>
        <time>2021-01-23T14:22:45Z</time>
      </trkpt>
      <trkpt lat="43.6119" lon="3.82961">
        <ele>57</ele>
        <time>2021-01-23T14:22:46Z</time>
      </trkpt>
      <trkpt lat="43.61189" lon="3.82967">
        <ele>57</ele>
        <time>2021-01-23T14:22:47Z</time>
      </trkpt>
      <trkpt lat="43.61188" lon="3.82973">
        <ele>57</ele>
        <time>2021-01-23T14:22:48Z</time>
      </trkpt>
      <trkpt lat="43.61188" lon="3.82978">
        <ele>57</ele>
        <time>2021-01-23T14:22:49Z</time>
      </trkpt>
      <trkpt lat="43.61186" lon="3.82983">
        <ele>57.1</ele>
        <time>2021-01-23T14:22:50Z</time>
      </trkpt>
      <trkpt lat="43.61184" lon="3.82988">
        <ele>63</ele>
        <time>2021-01-23T14:22:51Z</time>
      </trkpt>
      <trkpt lat="43.61182" lon="3.82993">
        <ele>57.3</ele>
        <time>2021-01-23T14:22:52Z</time>
      </trkpt>
      <trkpt lat="43.6118" lon="3.82999">
        <ele>57.5</ele>
        <time>2021-01-23T14:22:53Z</time>
      </trkpt>
      <trkpt lat="43.61178" lon="3.83003">
        <ele>57.6</ele>
        <time>2021-01-23T14:22:54Z</time>
      </trkpt>
      <trkpt lat="43.61176" lon="3.83009">
        <ele>57.6</ele>
        <time>2021-01-23T14:22:55Z</time>
      </trkpt>
      <trkpt lat="43.61175" lon="3.83014">
        <ele>57.5</ele>
        <time>2021-01-23T14:22:56Z</time>
      </trkpt>
      <trkpt lat="43.61173" lon="3.83019">
        <ele>57.4</ele>
        <time>2021-01-23T14:22:57Z</time>
      </trkpt>
      <trkpt lat="43.61171" lon="3.83024">
        <ele>57.2</ele>
        <time>2021-01-23T14:22:58Z</time>
      </trkpt>
      <trkpt lat="43.61171" lon="3.83029">
        <ele>57.2</ele>
        <time>2021-01-23T14:22:59Z</time>
      </trkpt>
      <trkpt lat="43.61169" lon="3.83032">
        <ele>57.2</ele>
        <time>2021-01-23T14:23:00Z</time>
      </trkpt>
      <trkpt lat="43.61168" lon="3.83036">
        <ele>65</ele>
        <time>2021-01-23T14:23:01Z</time>
      </trkpt>
      <trkpt lat="43.61167" lon="3.83041">
        <ele>57.5</ele>
        <time>2021-01-23T14:23:02Z</time>
      </trkpt>
      <trkpt lat="43.61165" lon="3.83046">
        <ele>57.7</ele>
        <time>2021-01-23T14:23:03Z</time>
      </trkpt>
      <trkpt lat="43.61164" lon="3.83051">
        <ele>57.9</ele>
        <time>2021-01-23T14:23:04Z</time>
      </trkpt>
      <trkpt lat="43.61163" lon="3.83056">
        <ele>58.1</ele>
        <time>2021-01-23T14:23:05Z</time>
      </trkpt>
      <trkpt lat="43.61161" lon="3.83062">
        <ele>58.4</ele>
        <time>2021-01-23T14:23:06Z</time>
      </trkpt>
      <trkpt lat="43.6116" lon="3.83066">
        <ele>58.5</ele>
        <time>2021-01-23T14:23:07Z</time>
      </trkpt>
      <trkpt lat="43.61159" lon="3.83071">
        <ele>58.7</ele>
        <time>2021-01-23T14:23:08Z</time>
      </trkpt>
      <trkpt lat="43.61158" lon="3.83076">
        <ele>58.8</ele>
        <time>2021-01-23T14:23:09Z</time>
      </trkpt>
      <trkpt lat="43.61157" lon="3.83081">
        <ele>58.9</ele>
        <time>2021-01-23T14:23:10Z</time>
      </trkpt>
      <trkpt lat="43.61155" lon="3.83086">
        <ele>67</ele>
        <time>2021-01-23T14:23:11Z</time>
      </trkpt>
      <trkpt lat="43.61154" lon="3.8309">
        <ele>59</ele>
        <time>2021-01-23T14:23:12Z</time>
      </trkpt>
      <trkpt lat="43.61153" lon="3.83095">
        <ele>59</ele>
        <time>2021-01-23T14:23:13Z</time>
      </trkpt>
      <trkpt lat="43.61151" lon="3.831">
        <ele>59</ele>
        <time>2021-01-23T14:23:14Z</time>
      </trkpt>
      <trkpt lat="43.6115" lon="3.83105">
        <ele>59</ele>
        <time>2021-01-23T14:23:15Z</time>
      </trkpt>
      <trkpt lat="43.61149" lon="3.8311">
        <ele>59</ele>
        <time>2021-01-23T14:23:16Z</time>
      </trkpt>
      <trkpt lat="43.61148" lon="3.83115">
        <ele>59</ele>
        <time>2021-01-23T14:23:17Z</time>
      </trkpt>
      <trkpt lat="43.61146" lon="3.8312">
        <ele>59.1</ele>
        <time>2021-01-23T14:23:18Z</time>
      </trkpt>
      <trkpt lat="43.61144" lon="3.83125">
        <ele>59.1</ele>
        <time>2021-01-23T14:23:19Z</time>
      </trkpt>
      <trkpt lat="43.61141" lon="3.8313">
        <ele>59.1</ele>
        <time>2021-01-23T14:23:20Z</time>
      </trkpt>
      <trkpt lat="43.6114" lon="3.83136">
        <ele>68</ele>
        <time>2021-01-23T14:23:21Z</time>
      </trkpt>
      <trkpt lat="43.61138" lon="3.83141">
        <ele>59</ele>
        <time>2021-01-23T14:23:22Z</time>
      </trkpt>
      <trkpt lat="43.61137" lon="3.83147">
        <ele>59.1</ele>
        <time>2021-01-23T14:23:23Z</time>
      </trkpt>
      <trkpt lat="43.61137" lon="3.83152">
        <ele>59.1</ele>
        <time>2021-01-23T14:23:24Z</time>
      </trkpt>
      <trkpt lat="43.61135" lon="3.83157">
        <ele>59.2</ele>
        <time>2021-01-23T14:23:25Z</time>
      </trkpt>
      <trkpt lat="43.61134" lon="3.83163">
        <ele>59.3</ele>
        <time>2021-01-23T14:23:26Z</time>
      </trkpt>
      <trkpt lat="43.61133" lon="3.83168">
        <ele>59.5</ele>
        <time>2021-01-23T14:23:27Z</time>
      </trkpt>
      <trkpt lat="43.61132" lon="3.83173">
        <ele>59.8</ele>
        <time>2021-01-23T14:23:28Z</time>
      </trkpt>
      <trkpt lat="43.6113" lon="3.83178">
        <ele>60.1</ele>
        <time>2021-01-23T14:23:29Z</time>
      </trkpt>
      <trkpt lat="43.61129" lon="3.83183">
        <ele>60.3</ele>
        <time>2021-01-23T14:23:30Z</time>
      </trkpt>
      <trkpt lat="43.61128" lon="3.83189">
        <ele>69</ele>
        <time>2021-01-23T14:23:31Z</time>
      </trkpt>
      <trkpt lat="43.61126" lon="3.83194">
        <ele>60.5</ele>
        <time>2021-01-23T14:23:32Z</time>
      </trkpt>
      <trkpt lat="43.61124" lon="3.83199">
        <ele>60.5</ele>
        <time>2021-01-23T14:23:33Z</time>
      </trkpt>
      <trkpt lat="43.61123" lon="3.83204">
        <ele>60.4</ele>
        <time>2021-01-23T14:23:34Z</time>
      </trkpt>
      <trkpt lat="43.61123" lon="3.83209">
        <ele>60.4</ele>
        <time>2021-01-23T14:23:35Z</time>
      </trkpt>
      <trkpt lat="43.61122" lon="3.83214">
        <ele>60.4</ele>
        <time>2021-01-23T14:23:36Z</time>
      </trkpt>
      <trkpt lat="43.61122" lon="3.83219">
        <ele>60.4</ele>
        <time>2021-01-23T14:23:37Z</time>
      </trkpt>
      <trkpt lat="43.61122" lon="3.83224">
        <ele>60.5</ele>
        <time>2021-01-23T14:23:38Z</time>
      </trkpt>
      <trkpt lat="43.61122" lon="3.83228">
        <ele>60.6</ele>
        <time>2021-01-23T14:23:39Z</time>
      </trkpt>
      <trkpt lat="43.6112" lon="3.83233">
        <ele>60.7</ele>
        <time>2021-01-23T14:23:40Z</time>
      </trkpt>
      <trkpt lat="43.61119" lon="3.83238">
        <ele>71</ele>
        <time>2021-01-23T14:23:41Z</time>
      </trkpt>
      <trkpt lat="43.61117" lon="3.83243">
        <ele>61</ele>
        <time>2021-01-23T14:23:42Z</time>
      </trkpt>
      <trkpt lat="43.61115" lon="3.83248">
        <ele>61.1</ele>
        <time>2021-01-23T14:23:43Z</time>
      </trkpt>
      <trkpt lat="43.61112" lon="3.83254">
        <ele>61</ele>
        <time>2021-01-23T14:23:44Z</time>
      </trkpt>
      <trkpt lat="43.61109" lon="3.83259">
        <ele>60.9</ele>
        <time>2021-01-23T14:23:45Z</time>
      </trkpt>
      <trkpt lat="43.61107" lon="3.83264">
        <ele>60.9</ele>
        <time>2021-01-23T14:23:46Z</time>
      </trkpt>
      <trkpt lat="43.61105" lon="3.83269">
        <ele>60.8</ele>
        <time>2021-01-23T14:23:47Z</time>
      </trkpt>
      <trkpt lat="43.61104" lon="3.83275">
        <ele>60.7</ele>
        <time>2021-01-23T14:23:48Z</time>
      </trkpt>
      <trkpt lat="43.61102" lon="3.8328">
        <ele>60.8</ele>
        <time>2021-01-23T14:23:49Z</time>
      </trkpt>
      <trkpt lat="43.61102" lon="3.83285">
        <ele>61.1</ele>
        <time>2021-01-23T14:23:50Z</time>
      </trkpt>
      <trkpt lat="43.611" lon="3.8329">
        <ele>71</ele>
        <time>2021-01-23T14:23:51Z</time>
      </trkpt>
      <trkpt lat="43.61099" lon="3.83296">
        <ele>61.6</ele>
        <time>2021-01-23T14:23:52Z</time>
      </trkpt>
      <trkpt lat="43.61097" lon="3.83301">
        <ele>61.7</ele>
        <time>2021-01-23T14:23:53Z</time>
      </trkpt>
      <trkpt lat="43.61095" lon="3.83307">
        <ele>61.8</ele>
        <time>2021-01-23T14:23:54Z</time>
      </trkpt>
      <trkpt lat="43.61093" lon="3.83312">
        <ele>61.6</ele>
        <time>2021-01-23T14:23:55Z</time>
      </trkpt>
      <trkpt lat="43.61092" lon="3.83317">
        <ele>61.5</ele>
        <time>2021-01-23T14:23:56Z</time>
      </trkpt>
      <trkpt lat="43.6109" lon="3.83323">
        <ele>61.3</ele>
        <time>2021-01-23T14:23:57Z</time>
      </trkpt>
      <trkpt lat="43.61089" lon="3.83328">
        <ele>61.2</ele>
        <time>2021-01-23T14:23:58Z</time>
      </trkpt>
      <trkpt lat="43.61087" lon="3.83333">
        <ele>61.1</ele>
        <time>2021-01-23T14:23:59Z</time>
      </trkpt>
      <trkpt lat="43.61085" lon="3.83337">
        <ele>61.1</ele>
        <time>2021-01-23T14:24:00Z</time>
      </trkpt>
      <trkpt lat="43.61083" lon="3.83341">
        <ele>70</ele>
        <time>2021-01-23T14:24:01Z</time>
      </trkpt>
      <trkpt lat="43.61082" lon="3.83345">
        <ele>61</ele>
        <time>2021-01-23T14:24:02Z</time>
      </trkpt>
      <trkpt lat="43.6108" lon="3.8335">
        <ele>60.9</ele>
        <time>2021-01-23T14:24:03Z</time>
      </trkpt>
      <trkpt lat="43.61078" lon="3.83355">
        <ele>60.8</ele>
        <time>2021-01-23T14:24:04Z</time>
      </trkpt>
      <trkpt lat="43.61077" lon="3.8336">
        <ele>60.8</ele>
        <time>2021-01-23T14:24:05Z</time>
      </trkpt>
      <trkpt lat="43.61075" lon="3.83366">
        <ele>60.7</ele>
        <time>2021-01-23T14:24:06Z</time>
      </trkpt>
      <trkpt lat="43.61073" lon="3.83371">
        <ele>60.6</ele>
        <time>2021-01-23T14:24:07Z</time>
      </trkpt>
      <trkpt lat="43.61071" lon="3.83377">
        <ele>60.6</ele>
        <time>2021-01-23T14:24:08Z</time>
      </trkpt>
      <trkpt lat="43.6107" lon="3.83383">
        <ele>60.5</ele>
        <time>2021-01-23T14:24:09Z</time>
      </trkpt>
      <trkpt lat="43.61069" lon="3.83389">
        <ele>60.5</ele>
        <time>2021-01-23T14:24:10Z</time>
      </trkpt>
      <trkpt lat="43.61068" lon="3.83396">
        <ele>70</ele>
        <time>2021-01-23T14:24:11Z</time>
      </trkpt>
      <trkpt lat="43.61066" lon="3.83402">
        <ele>60.4</ele>
        <time>2021-01-23T14:24:12Z</time>
      </trkpt>
      <trkpt lat="43.61065" lon="3.83408">
        <ele>60.3</ele>
        <time>2021-01-23T14:24:13Z</time>
      </trkpt>
      <trkpt lat="43.61063" lon="3.83413">
        <ele>60.3</ele>
        <time>2021-01-23T14:24:14Z</time>
      </trkpt>
      <trkpt lat="43.61062" lon="3.83419">
        <ele>60.2</ele>
        <time>2021-01-23T14:24:15Z</time>
      </trkpt>
      <trkpt lat="43.61061" lon="3.83425">
        <ele>60.2</ele>
        <time>2021-01-23T14:24:16Z</time>
      </trkpt>
      <trkpt lat="43.61059" lon="3.83432">
        <ele>60.1</ele>
        <time>2021-01-23T14:24:17Z</time>
      </trkpt>
      <trkpt lat="43.61058" lon="3.83438">
        <ele>60.1</ele>
        <time>2021-01-23T14:24:18Z</time>
      </trkpt>
      <trkpt lat="43.61056" lon="3.83445">
        <ele>60</ele>
        <time>2021-01-23T14:24:19Z</time>
      </trkpt>
      <trkpt lat="43.61053" lon="3.8345">
        <ele>60</ele>
        <time>2021-01-23T14:24:20Z</time>
      </trkpt>
      <trkpt lat="43.61049" lon="3.83453">
        <ele>69</ele>
        <time>2021-01-23T14:24:21Z</time>
      </trkpt>
      <trkpt lat="43.61044" lon="3.83455">
        <ele>60</ele>
        <time>2021-01-23T14:24:22Z</time>
      </trkpt>
      <trkpt lat="43.61041" lon="3.83458">
        <ele>60</ele>
        <time>2021-01-23T14:24:23Z</time>
      </trkpt>
      <trkpt lat="43.61038" lon="3.83462">
        <ele>60</ele>
        <time>2021-01-23T14:24:24Z</time>
      </trkpt>
      <trkpt lat="43.61038" lon="3.83468">
        <ele>60</ele>
        <time>2021-01-23T14:24:25Z</time>
      </trkpt>
      <trkpt lat="43.61036" lon="3.83475">
        <ele>60</ele>
        <time>2021-01-23T14:24:26Z</time>
      </trkpt>
      <trkpt lat="43.61035" lon="3.83482">
        <ele>60</ele>
        <time>2021-01-23T14:24:27Z</time>
      </trkpt>
      <trkpt lat="43.61034" lon="3.83488">
        <ele>60</ele>
        <time>2021-01-23T14:24:28Z</time>
      </trkpt>
      <trkpt lat="43.61032" lon="3.83495">
        <ele>60</ele>
        <time>2021-01-23T14:24:29Z</time>
      </trkpt>
      <trkpt lat="43.61031" lon="3.83502">
        <ele>60</ele>
        <time>2021-01-23T14:24:30Z</time>
      </trkpt>
      <trkpt lat="43.6103" lon="3.83509">
        <ele>67</ele>
        <time>2021-01-23T14:24:31Z</time>
      </trkpt>
      <trkpt lat="43.61029" lon="3.83516">
        <ele>60</ele>
        <time>2021-01-23T14:24:32Z</time>
      </trkpt>
      <trkpt lat="43.61027" lon="3.83523">
        <ele>60</ele>
        <time>2021-01-23T14:24:33Z</time>
      </trkpt>
      <trkpt lat="43.61026" lon="3.8353">
        <ele>60.1</ele>
        <time>2021-01-23T14:24:34Z</time>
      </trkpt>
      <trkpt lat="43.61024" lon="3.83536">
        <ele>60.1</ele>
        <time>2021-01-23T14:24:35Z</time>
      </trkpt>
      <trkpt lat="43.61023" lon="3.83543">
        <ele>60.1</ele>
        <time>2021-01-23T14:24:36Z</time>
      </trkpt>
      <trkpt lat="43.61022" lon="3.8355">
        <ele>60</ele>
        <time>2021-01-23T14:24:37Z</time>
      </trkpt>
      <trkpt lat="43.6102" lon="3.83557">
        <ele>60</ele>
        <time>2021-01-23T14:24:38Z</time>
      </trkpt>
      <trkpt lat="43.61019" lon="3.83563">
        <ele>60</ele>
        <time>2021-01-23T14:24:39Z</time>
      </trkpt>
      <trkpt lat="43.61018" lon="3.8357">
        <ele>60</ele>
        <time>2021-01-23T14:24:40Z</time>
      </trkpt>
      <trkpt lat="43.61017" lon="3.83576">
        <ele>65</ele>
        <time>2021-01-23T14:24:41Z</time>
      </trkpt>
      <trkpt lat="43.61015" lon="3.83583">
        <ele>60</ele>
        <time>2021-01-23T14:24:42Z</time>
      </trkpt>
      <trkpt lat="43.61014" lon="3.83589">
        <ele>60</ele>
        <time>2021-01-23T14:24:43Z</time>
      </trkpt>
      <trkpt lat="43.61013" lon="3.83596">
        <ele>60</ele>
        <time>2021-01-23T14:24:44Z</time>
      </trkpt>
      <trkpt lat="43.61011" lon="3.83603">
        <ele>60</ele>
        <time>2021-01-23T14:24:45Z</time>
      </trkpt>
      <trkpt lat="43.6101" lon="3.83609">
        <ele>60</ele>
        <time>2021-01-23T14:24:46Z</time>
      </trkpt>
      <trkpt lat="43.61009" lon="3.83616">
        <ele>60</ele>
        <time>2021-01-23T14:24:47Z</time>
      </trkpt>
      <trkpt lat="43.61008" lon="3.83622">
        <ele>60</ele>
        <time>2021-01-23T14:24:48Z</time>
      </trkpt>
      <trkpt lat="43.61006" lon="3.83628">
        <ele>60</ele>
        <time>2021-01-23T14:24:49Z</time>
      </trkpt>
      <trkpt lat="43.61005" lon="3.83635">
        <ele>60</ele>
        <time>2021-01-23T14:24:50Z</time>
      </trkpt>
      <trkpt lat="43.61004" lon="3.83642">
        <ele>64</ele>
        <time>2021-01-23T14:24:51Z</time>
      </trkpt>
      <trkpt lat="43.61002" lon="3.83648">
        <ele>60</ele>
        <time>2021-01-23T14:24:52Z</time>
      </trkpt>
      <trkpt lat="43.61" lon="3.83655">
        <ele>60</ele>
        <time>2021-01-23T14:24:53Z</time>
      </trkpt>
      <trkpt lat="43.60999" lon="3.83662">
        <ele>60</ele>
        <time>2021-01-23T14:24:54Z</time>
      </trkpt>
      <trkpt lat="43.60997" lon="3.83669">
        <ele>60</ele>
        <time>2021-01-23T14:24:55Z</time>
      </trkpt>
      <trkpt lat="43.60996" lon="3.83676">
        <ele>60</ele>
        <time>2021-01-23T14:24:56Z</time>
      </trkpt>
      <trkpt lat="43.60995" lon="3.83683">
        <ele>60</ele>
        <time>2021-01-23T14:24:57Z</time>
      </trkpt>
      <trkpt lat="43.60994" lon="3.8369">
        <ele>60</ele>
        <time>2021-01-23T14:24:58Z</time>
      </trkpt>
      <trkpt lat="43.60992" lon="3.83696">
        <ele>60</ele>
        <time>2021-01-23T14:24:59Z</time>
      </trkpt>
      <trkpt lat="43.6099" lon="3.83702">
        <ele>60</ele>
        <time>2021-01-23T14:25:00Z</time>
      </trkpt>
      <trkpt lat="43.60989" lon="3.83708">
        <ele>60</ele>
        <time>2021-01-23T14:25:01Z</time>
      </trkpt>
      <trkpt lat="43.60987" lon="3.83714">
        <ele>64</ele>
        <time>2021-01-23T14:25:02Z</time>
      </trkpt>
      <trkpt lat="43.60986" lon="3.83719">
        <ele>60</ele>
        <time>2021-01-23T14:25:03Z</time>
      </trkpt>
      <trkpt lat="43.60984" lon="3.83725">
        <ele>60</ele>
        <time>2021-01-23T14:25:04Z</time>
      </trkpt>
      <trkpt lat="43.60983" lon="3.8373">
        <ele>60</ele>
        <time>2021-01-23T14:25:05Z</time>
      </trkpt>
      <trkpt lat="43.60982" lon="3.83735">
        <ele>60</ele>
        <time>2021-01-23T14:25:06Z</time>
      </trkpt>
      <trkpt lat="43.60981" lon="3.8374">
        <ele>60</ele>
        <time>2021-01-23T14:25:07Z</time>
      </trkpt>
      <trkpt lat="43.60979" lon="3.83746">
        <ele>60</ele>
        <time>2021-01-23T14:25:08Z</time>
      </trkpt>
      <trkpt lat="43.60978" lon="3.8375">
        <ele>60</ele>
        <time>2021-01-23T14:25:09Z</time>
      </trkpt>
      <trkpt lat="43.60977" lon="3.83755">
        <ele>59.9</ele>
        <time>2021-01-23T14:25:10Z</time>
      </trkpt>
      <trkpt lat="43.60976" lon="3.8376">
        <ele>64</ele>
        <time>2021-01-23T14:25:11Z</time>
      </trkpt>
      <trkpt lat="43.60976" lon="3.83764">
        <ele>59.6</ele>
        <time>2021-01-23T14:25:12Z</time>
      </trkpt>
      <trkpt lat="43.60976" lon="3.8377">
        <ele>59.4</ele>
        <time>2021-01-23T14:25:13Z</time>
      </trkpt>
      <trkpt lat="43.60976" lon="3.83775">
        <ele>59.2</ele>
        <time>2021-01-23T14:25:14Z</time>
      </trkpt>
      <trkpt lat="43.60975" lon="3.8378">
        <ele>59.2</ele>
        <time>2021-01-23T14:25:15Z</time>
      </trkpt>
      <trkpt lat="43.60974" lon="3.83786">
        <ele>59.3</ele>
        <time>2021-01-23T14:25:16Z</time>
      </trkpt>
      <trkpt lat="43.60973" lon="3.83792">
        <ele>59.5</ele>
        <time>2021-01-23T14:25:17Z</time>
      </trkpt>
      <trkpt lat="43.60972" lon="3.83798">
        <ele>59.7</ele>
        <time>2021-01-23T14:25:18Z</time>
      </trkpt>
      <trkpt lat="43.6097" lon="3.83804">
        <ele>59.9</ele>
        <time>2021-01-23T14:25:19Z</time>
      </trkpt>
      <trkpt lat="43.60969" lon="3.8381">
        <ele>60</ele>
        <time>2021-01-23T14:25:20Z</time>
      </trkpt>
      <trkpt lat="43.60968" lon="3.83816">
        <ele>63</ele>
        <time>2021-01-23T14:25:21Z</time>
      </trkpt>
      <trkpt lat="43.60967" lon="3.83822">
        <ele>60</ele>
        <time>2021-01-23T14:25:22Z</time>
      </trkpt>
      <trkpt lat="43.60966" lon="3.83828">
        <ele>60</ele>
        <time>2021-01-23T14:25:23Z</time>
      </trkpt>
      <trkpt lat="43.60965" lon="3.83834">
        <ele>60.1</ele>
        <time>2021-01-23T14:25:24Z</time>
      </trkpt>
      <trkpt lat="43.60963" lon="3.8384">
        <ele>60.8</ele>
        <time>2021-01-23T14:25:25Z</time>
      </trkpt>
      <trkpt lat="43.60962" lon="3.83847">
        <ele>61.6</ele>
        <time>2021-01-23T14:25:26Z</time>
      </trkpt>
      <trkpt lat="43.60961" lon="3.83853">
        <ele>62.1</ele>
        <time>2021-01-23T14:25:27Z</time>
      </trkpt>
      <trkpt lat="43.6096" lon="3.83859">
        <ele>62.6</ele>
        <time>2021-01-23T14:25:28Z</time>
      </trkpt>
      <trkpt lat="43.60958" lon="3.83865">
        <ele>62.4</ele>
        <time>2021-01-23T14:25:29Z</time>
      </trkpt>
      <trkpt lat="43.60957" lon="3.83871">
        <ele>62.1</ele>
        <time>2021-01-23T14:25:30Z</time>
      </trkpt>
      <trkpt lat="43.60956" lon="3.83878">
        <ele>63</ele>
        <time>2021-01-23T14:25:31Z</time>
      </trkpt>
      <trkpt lat="43.60955" lon="3.83883">
        <ele>61.6</ele>
        <time>2021-01-23T14:25:32Z</time>
      </trkpt>
      <trkpt lat="43.60954" lon="3.83889">
        <ele>61.4</ele>
        <time>2021-01-23T14:25:33Z</time>
      </trkpt>
      <trkpt lat="43.60952" lon="3.83895">
        <ele>60.8</ele>
        <time>2021-01-23T14:25:34Z</time>
      </trkpt>
      <trkpt lat="43.60951" lon="3.83901">
        <ele>60.4</ele>
        <time>2021-01-23T14:25:35Z</time>
      </trkpt>
      <trkpt lat="43.60949" lon="3.83908">
        <ele>59.9</ele>
        <time>2021-01-23T14:25:36Z</time>
      </trkpt>
      <trkpt lat="43.60948" lon="3.83915">
        <ele>59.5</ele>
        <time>2021-01-23T14:25:37Z</time>
      </trkpt>
      <trkpt lat="43.60947" lon="3.83922">
        <ele>59.2</ele>
        <time>2021-01-23T14:25:38Z</time>
      </trkpt>
      <trkpt lat="43.60945" lon="3.83929">
        <ele>59</ele>
        <time>2021-01-23T14:25:39Z</time>
      </trkpt>
      <trkpt lat="43.60944" lon="3.83935">
        <ele>59</ele>
        <time>2021-01-23T14:25:40Z</time>
      </trkpt>
      <trkpt lat="43.60943" lon="3.83942">
        <ele>63</ele>
        <time>2021-01-23T14:25:41Z</time>
      </trkpt>
      <trkpt lat="43.60942" lon="3.83949">
        <ele>59.1</ele>
        <time>2021-01-23T14:25:42Z</time>
      </trkpt>
      <trkpt lat="43.6094" lon="3.83956">
        <ele>59.2</ele>
        <time>2021-01-23T14:25:43Z</time>
      </trkpt>
      <trkpt lat="43.60939" lon="3.83963">
        <ele>59.2</ele>
        <time>2021-01-23T14:25:44Z</time>
      </trkpt>
      <trkpt lat="43.60938" lon="3.8397">
        <ele>59.2</ele>
        <time>2021-01-23T14:25:45Z</time>
      </trkpt>
      <trkpt lat="43.60937" lon="3.83977">
        <ele>59.3</ele>
        <time>2021-01-23T14:25:46Z</time>
      </trkpt>
      <trkpt lat="43.60936" lon="3.83984">
        <ele>59.3</ele>
        <time>2021-01-23T14:25:47Z</time>
      </trkpt>
      <trkpt lat="43.60935" lon="3.83991">
        <ele>59.3</ele>
        <time>2021-01-23T14:25:48Z</time>
      </trkpt>
      <trkpt lat="43.60934" lon="3.83998">
        <ele>59.4</ele>
        <time>2021-01-23T14:25:49Z</time>
      </trkpt>
      <trkpt lat="43.60935" lon="3.84006">
        <ele>59.3</ele>
        <time>2021-01-23T14:25:50Z</time>
      </trkpt>
      <trkpt lat="43.60935" lon="3.84013">
        <ele>62</ele>
        <time>2021-01-23T14:25:51Z</time>
      </trkpt>
      <trkpt lat="43.60936" lon="3.8402">
        <ele>59.1</ele>
        <time>2021-01-23T14:25:52Z</time>
      </trkpt>
      <trkpt lat="43.60935" lon="3.84026">
        <ele>59</ele>
        <time>2021-01-23T14:25:53Z</time>
      </trkpt>
      <trkpt lat="43.60933" lon="3.84033">
        <ele>58.9</ele>
        <time>2021-01-23T14:25:54Z</time>
      </trkpt>
      <trkpt lat="43.6093" lon="3.84039">
        <ele>58.8</ele>
        <time>2021-01-23T14:25:55Z</time>
      </trkpt>
      <trkpt lat="43.60928" lon="3.84045">
        <ele>58.7</ele>
        <time>2021-01-23T14:25:56Z</time>
      </trkpt>
      <trkpt lat="43.60925" lon="3.84051">
        <ele>58.7</ele>
        <time>2021-01-23T14:25:57Z</time>
      </trkpt>
      <trkpt lat="43.60923" lon="3.84058">
        <ele>58.8</ele>
        <time>2021-01-23T14:25:58Z</time>
      </trkpt>
      <trkpt lat="43.60921" lon="3.84065">
        <ele>58.9</ele>
        <time>2021-01-23T14:25:59Z</time>
      </trkpt>
      <trkpt lat="43.6092" lon="3.84072">
        <ele>59</ele>
        <time>2021-01-23T14:26:00Z</time>
      </trkpt>
      <trkpt lat="43.60918" lon="3.84079">
        <ele>59</ele>
        <time>2021-01-23T14:26:01Z</time>
      </trkpt>
      <trkpt lat="43.60917" lon="3.84086">
        <ele>62</ele>
        <time>2021-01-23T14:26:02Z</time>
      </trkpt>
      <trkpt lat="43.60916" lon="3.84093">
        <ele>59</ele>
        <time>2021-01-23T14:26:03Z</time>
      </trkpt>
      <trkpt lat="43.60914" lon="3.84101">
        <ele>59</ele>
        <time>2021-01-23T14:26:04Z</time>
      </trkpt>
      <trkpt lat="43.60913" lon="3.84107">
        <ele>59</ele>
        <time>2021-01-23T14:26:05Z</time>
      </trkpt>
      <trkpt lat="43.60911" lon="3.84114">
        <ele>59</ele>
        <time>2021-01-23T14:26:06Z</time>
      </trkpt>
      <trkpt lat="43.6091" lon="3.8412">
        <ele>59</ele>
        <time>2021-01-23T14:26:07Z</time>
      </trkpt>
      <trkpt lat="43.60909" lon="3.84127">
        <ele>59</ele>
        <time>2021-01-23T14:26:08Z</time>
      </trkpt>
      <trkpt lat="43.60907" lon="3.84133">
        <ele>59</ele>
        <time>2021-01-23T14:26:09Z</time>
      </trkpt>
      <trkpt lat="43.60906" lon="3.8414">
        <ele>59</ele>
        <time>2021-01-23T14:26:10Z</time>
      </trkpt>
      <trkpt lat="43.60904" lon="3.84148">
        <ele>62</ele>
        <time>2021-01-23T14:26:11Z</time>
      </trkpt>
      <trkpt lat="43.60903" lon="3.84155">
        <ele>59.6</ele>
        <time>2021-01-23T14:26:12Z</time>
      </trkpt>
      <trkpt lat="43.60901" lon="3.84164">
        <ele>59.9</ele>
        <time>2021-01-23T14:26:13Z</time>
      </trkpt>
      <trkpt lat="43.609" lon="3.84172">
        <ele>60</ele>
        <time>2021-01-23T14:26:14Z</time>
      </trkpt>
      <trkpt lat="43.609" lon="3.8418">
        <ele>60</ele>
        <time>2021-01-23T14:26:15Z</time>
      </trkpt>
      <trkpt lat="43.609" lon="3.84188">
        <ele>60</ele>
        <time>2021-01-23T14:26:16Z</time>
      </trkpt>
      <trkpt lat="43.609" lon="3.84196">
        <ele>60</ele>
        <time>2021-01-23T14:26:17Z</time>
      </trkpt>
      <trkpt lat="43.609" lon="3.84204">
        <ele>59.9</ele>
        <time>2021-01-23T14:26:18Z</time>
      </trkpt>
      <trkpt lat="43.609" lon="3.84212">
        <ele>59.7</ele>
        <time>2021-01-23T14:26:19Z</time>
      </trkpt>
      <trkpt lat="43.609" lon="3.8422">
        <ele>59.6</ele>
        <time>2021-01-23T14:26:20Z</time>
      </trkpt>
      <trkpt lat="43.609" lon="3.84228">
        <ele>61</ele>
        <time>2021-01-23T14:26:21Z</time>
      </trkpt>
      <trkpt lat="43.60901" lon="3.84235">
        <ele>59.8</ele>
        <time>2021-01-23T14:26:22Z</time>
      </trkpt>
      <trkpt lat="43.60902" lon="3.84243">
        <ele>59.9</ele>
        <time>2021-01-23T14:26:23Z</time>
      </trkpt>
      <trkpt lat="43.60903" lon="3.84251">
        <ele>60</ele>
        <time>2021-01-23T14:26:24Z</time>
      </trkpt>
      <trkpt lat="43.60903" lon="3.84259">
        <ele>60.2</ele>
        <time>2021-01-23T14:26:25Z</time>
      </trkpt>
      <trkpt lat="43.60904" lon="3.84266">
        <ele>60.3</ele>
        <time>2021-01-23T14:26:26Z</time>
      </trkpt>
      <trkpt lat="43.60903" lon="3.84274">
        <ele>60.4</ele>
        <time>2021-01-23T14:26:27Z</time>
      </trkpt>
      <trkpt lat="43.60903" lon="3.84282">
        <ele>60.6</ele>
        <time>2021-01-23T14:26:28Z</time>
      </trkpt>
      <trkpt lat="43.60903" lon="3.84289">
        <ele>60.7</ele>
        <time>2021-01-23T14:26:29Z</time>
      </trkpt>
      <trkpt lat="43.60902" lon="3.84296">
        <ele>60.8</ele>
        <time>2021-01-23T14:26:30Z</time>
      </trkpt>
      <trkpt lat="43.60902" lon="3.84303">
        <ele>62</ele>
        <time>2021-01-23T14:26:31Z</time>
      </trkpt>
      <trkpt lat="43.60902" lon="3.8431">
        <ele>61</ele>
        <time>2021-01-23T14:26:32Z</time>
      </trkpt>
      <trkpt lat="43.60901" lon="3.84317">
        <ele>61</ele>
        <time>2021-01-23T14:26:33Z</time>
      </trkpt>
      <trkpt lat="43.60901" lon="3.84324">
        <ele>61</ele>
        <time>2021-01-23T14:26:34Z</time>
      </trkpt>
      <trkpt lat="43.609" lon="3.84332">
        <ele>61</ele>
        <time>2021-01-23T14:26:35Z</time>
      </trkpt>
      <trkpt lat="43.60899" lon="3.84339">
        <ele>61</ele>
        <time>2021-01-23T14:26:36Z</time>
      </trkpt>
      <trkpt lat="43.60898" lon="3.84346">
        <ele>61</ele>
        <time>2021-01-23T14:26:37Z</time>
      </trkpt>
      <trkpt lat="43.60897" lon="3.84353">
        <ele>61</ele>
        <time>2021-01-23T14:26:38Z</time>
      </trkpt>
      <trkpt lat="43.60897" lon="3.84361">
        <ele>61</ele>
        <time>2021-01-23T14:26:39Z</time>
      </trkpt>
      <trkpt lat="43.60897" lon="3.84368">
        <ele>61.2</ele>
        <time>2021-01-23T14:26:40Z</time>
      </trkpt>
      <trkpt lat="43.60897" lon="3.84376">
        <ele>63</ele>
        <time>2021-01-23T14:26:41Z</time>
      </trkpt>
      <trkpt lat="43.60897" lon="3.84383">
        <ele>61.8</ele>
        <time>2021-01-23T14:26:42Z</time>
      </trkpt>
      <trkpt lat="43.60898" lon="3.8439">
        <ele>62</ele>
        <time>2021-01-23T14:26:43Z</time>
      </trkpt>
      <trkpt lat="43.60898" lon="3.84397">
        <ele>62</ele>
        <time>2021-01-23T14:26:44Z</time>
      </trkpt>
      <trkpt lat="43.60899" lon="3.84404">
        <ele>62</ele>
        <time>2021-01-23T14:26:45Z</time>
      </trkpt>
      <trkpt lat="43.609" lon="3.8441">
        <ele>62</ele>
        <time>2021-01-23T14:26:46Z</time>
      </trkpt>
      <trkpt lat="43.609" lon="3.84417">
        <ele>62</ele>
        <time>2021-01-23T14:26:47Z</time>
      </trkpt>
      <trkpt lat="43.60899" lon="3.84424">
        <ele>62.1</ele>
        <time>2021-01-23T14:26:48Z</time>
      </trkpt>
      <trkpt lat="43.60899" lon="3.84431">
        <ele>62.2</ele>
        <time>2021-01-23T14:26:49Z</time>
      </trkpt>
      <trkpt lat="43.60898" lon="3.84437">
        <ele>62.2</ele>
        <time>2021-01-23T14:26:50Z</time>
      </trkpt>
      <trkpt lat="43.60897" lon="3.84443">
        <ele>64</ele>
        <time>2021-01-23T14:26:51Z</time>
      </trkpt>
      <trkpt lat="43.60897" lon="3.8445">
        <ele>62.4</ele>
        <time>2021-01-23T14:26:52Z</time>
      </trkpt>
      <trkpt lat="43.60896" lon="3.84456">
        <ele>62.6</ele>
        <time>2021-01-23T14:26:53Z</time>
      </trkpt>
      <trkpt lat="43.60895" lon="3.84462">
        <ele>62.7</ele>
        <time>2021-01-23T14:26:54Z</time>
      </trkpt>
      <trkpt lat="43.60895" lon="3.84469">
        <ele>62.9</ele>
        <time>2021-01-23T14:26:55Z</time>
      </trkpt>
      <trkpt lat="43.60894" lon="3.84475">
        <ele>63</ele>
        <time>2021-01-23T14:26:56Z</time>
      </trkpt>
      <trkpt lat="43.60894" lon="3.84481">
        <ele>63.1</ele>
        <time>2021-01-23T14:26:57Z</time>
      </trkpt>
      <trkpt lat="43.60894" lon="3.84487">
        <ele>63.1</ele>
        <time>2021-01-23T14:26:58Z</time>
      </trkpt>
      <trkpt lat="43.60894" lon="3.84493">
        <ele>63.1</ele>
        <time>2021-01-23T14:26:59Z</time>
      </trkpt>
      <trkpt lat="43.60894" lon="3.845">
        <ele>63.2</ele>
        <time>2021-01-23T14:27:00Z</time>
      </trkpt>
      <trkpt lat="43.60895" lon="3.84506">
        <ele>65</ele>
        <time>2021-01-23T14:27:01Z</time>
      </trkpt>
      <trkpt lat="43.60895" lon="3.84512">
        <ele>63.3</ele>
        <time>2021-01-23T14:27:02Z</time>
      </trkpt>
      <trkpt lat="43.60896" lon="3.84518">
        <ele>63.4</ele>
        <time>2021-01-23T14:27:03Z</time>
      </trkpt>
      <trkpt lat="43.60896" lon="3.84524">
        <ele>63.5</ele>
        <time>2021-01-23T14:27:04Z</time>
      </trkpt>
      <trkpt lat="43.60897" lon="3.8453">
        <ele>63.6</ele>
        <time>2021-01-23T14:27:05Z</time>
      </trkpt>
      <trkpt lat="43.60897" lon="3.84536">
        <ele>63.8</ele>
        <time>2021-01-23T14:27:06Z</time>
      </trkpt>
      <trkpt lat="43.60897" lon="3.84541">
        <ele>63.9</ele>
        <time>2021-01-23T14:27:07Z</time>
      </trkpt>
      <trkpt lat="43.60897" lon="3.84547">
        <ele>64.1</ele>
        <time>2021-01-23T14:27:08Z</time>
      </trkpt>
      <trkpt lat="43.60898" lon="3.84553">
        <ele>64.3</ele>
        <time>2021-01-23T14:27:09Z</time>
      </trkpt>
      <trkpt lat="43.60898" lon="3.84559">
        <ele>64.3</ele>
        <time>2021-01-23T14:27:10Z</time>
      </trkpt>
      <trkpt lat="43.60898" lon="3.84565">
        <ele>64.3</ele>
        <time>2021-01-23T14:27:11Z</time>
      </trkpt>
      <trkpt lat="43.60898" lon="3.84571">
        <ele>66</ele>
        <time>2021-01-23T14:27:12Z</time>
      </trkpt>
      <trkpt lat="43.60898" lon="3.84577">
        <ele>64.3</ele>
        <time>2021-01-23T14:27:13Z</time>
      </trkpt>
      <trkpt lat="43.60898" lon="3.84583">
        <ele>64.3</ele>
        <time>2021-01-23T14:27:14Z</time>
      </trkpt>
      <trkpt lat="43.60898" lon="3.84589">
        <ele>64.5</ele>
        <time>2021-01-23T14:27:15Z</time>
      </trkpt>
      <trkpt lat="43.60898" lon="3.84594">
        <ele>64.7</ele>
        <time>2021-01-23T14:27:16Z</time>
      </trkpt>
      <trkpt lat="43.60897" lon="3.846">
        <ele>64.9</ele>
        <time>2021-01-23T14:27:17Z</time>
      </trkpt>
      <trkpt lat="43.60896" lon="3.84606">
        <ele>65.1</ele>
        <time>2021-01-23T14:27:18Z</time>
      </trkpt>
      <trkpt lat="43.60894" lon="3.84612">
        <ele>65.2</ele>
        <time>2021-01-23T14:27:19Z</time>
      </trkpt>
      <trkpt lat="43.60893" lon="3.84618">
        <ele>65.4</ele>
        <time>2021-01-23T14:27:20Z</time>
      </trkpt>
      <trkpt lat="43.60892" lon="3.84624">
        <ele>67</ele>
        <time>2021-01-23T14:27:21Z</time>
      </trkpt>
      <trkpt lat="43.60891" lon="3.8463">
        <ele>65.7</ele>
        <time>2021-01-23T14:27:22Z</time>
      </trkpt>
      <trkpt lat="43.60891" lon="3.84636">
        <ele>65.9</ele>
        <time>2021-01-23T14:27:23Z</time>
      </trkpt>
      <trkpt lat="43.60891" lon="3.84643">
        <ele>66</ele>
        <time>2021-01-23T14:27:24Z</time>
      </trkpt>
      <trkpt lat="43.6089" lon="3.84649">
        <ele>66</ele>
        <time>2021-01-23T14:27:25Z</time>
      </trkpt>
      <trkpt lat="43.6089" lon="3.84655">
        <ele>66</ele>
        <time>2021-01-23T14:27:26Z</time>
      </trkpt>
      <trkpt lat="43.6089" lon="3.84661">
        <ele>66</ele>
        <time>2021-01-23T14:27:27Z</time>
      </trkpt>
      <trkpt lat="43.6089" lon="3.84667">
        <ele>66</ele>
        <time>2021-01-23T14:27:28Z</time>
      </trkpt>
      <trkpt lat="43.6089" lon="3.84673">
        <ele>66</ele>
        <time>2021-01-23T14:27:29Z</time>
      </trkpt>
      <trkpt lat="43.6089" lon="3.84679">
        <ele>66.1</ele>
        <time>2021-01-23T14:27:30Z</time>
      </trkpt>
      <trkpt lat="43.6089" lon="3.84686">
        <ele>67</ele>
        <time>2021-01-23T14:27:31Z</time>
      </trkpt>
      <trkpt lat="43.60889" lon="3.84692">
        <ele>66</ele>
        <time>2021-01-23T14:27:32Z</time>
      </trkpt>
      <trkpt lat="43.60889" lon="3.84698">
        <ele>66.1</ele>
        <time>2021-01-23T14:27:33Z</time>
      </trkpt>
      <trkpt lat="43.60889" lon="3.84704">
        <ele>66.4</ele>
        <time>2021-01-23T14:27:34Z</time>
      </trkpt>
      <trkpt lat="43.60889" lon="3.84711">
        <ele>66.6</ele>
        <time>2021-01-23T14:27:35Z</time>
      </trkpt>
      <trkpt lat="43.60889" lon="3.84717">
        <ele>66.8</ele>
        <time>2021-01-23T14:27:36Z</time>
      </trkpt>
      <trkpt lat="43.60888" lon="3.84723">
        <ele>67</ele>
        <time>2021-01-23T14:27:37Z</time>
      </trkpt>
      <trkpt lat="43.60888" lon="3.84729">
        <ele>67</ele>
        <time>2021-01-23T14:27:38Z</time>
      </trkpt>
      <trkpt lat="43.60888" lon="3.84735">
        <ele>67</ele>
        <time>2021-01-23T14:27:39Z</time>
      </trkpt>
      <trkpt lat="43.60888" lon="3.84741">
        <ele>67</ele>
        <time>2021-01-23T14:27:40Z</time>
      </trkpt>
      <trkpt lat="43.60888" lon="3.84746">
        <ele>68</ele>
        <time>2021-01-23T14:27:41Z</time>
      </trkpt>
      <trkpt lat="43.60888" lon="3.84751">
        <ele>67</ele>
        <time>2021-01-23T14:27:42Z</time>
      </trkpt>
      <trkpt lat="43.60889" lon="3.84754">
        <ele>67</ele>
        <time>2021-01-23T14:27:43Z</time>
      </trkpt>
      <trkpt lat="43.60891" lon="3.84756">
        <ele>67.1</ele>
        <time>2021-01-23T14:27:44Z</time>
      </trkpt>
      <trkpt lat="43.60892" lon="3.84758">
        <ele>67.1</ele>
        <time>2021-01-23T14:27:45Z</time>
      </trkpt>
      <trkpt lat="43.60894" lon="3.84761">
        <ele>67.2</ele>
        <time>2021-01-23T14:27:47Z</time>
      </trkpt>
      <trkpt lat="43.60896" lon="3.84764">
        <ele>67.3</ele>
        <time>2021-01-23T14:27:48Z</time>
      </trkpt>
      <trkpt lat="43.60897" lon="3.84768">
        <ele>67.3</ele>
        <time>2021-01-23T14:27:49Z</time>
      </trkpt>
      <trkpt lat="43.60897" lon="3.84772">
        <ele>67.3</ele>
        <time>2021-01-23T14:27:50Z</time>
      </trkpt>
      <trkpt lat="43.60898" lon="3.84777">
        <ele>68</ele>
        <time>2021-01-23T14:27:51Z</time>
      </trkpt>
      <trkpt lat="43.60898" lon="3.84783">
        <ele>67.4</ele>
        <time>2021-01-23T14:27:52Z</time>
      </trkpt>
      <trkpt lat="43.60898" lon="3.84788">
        <ele>67.5</ele>
        <time>2021-01-23T14:27:53Z</time>
      </trkpt>
      <trkpt lat="43.60899" lon="3.84794">
        <ele>67.5</ele>
        <time>2021-01-23T14:27:54Z</time>
      </trkpt>
      <trkpt lat="43.60901" lon="3.848">
        <ele>67.5</ele>
        <time>2021-01-23T14:27:55Z</time>
      </trkpt>
      <trkpt lat="43.60903" lon="3.84805">
        <ele>67.5</ele>
        <time>2021-01-23T14:27:56Z</time>
      </trkpt>
      <trkpt lat="43.60906" lon="3.8481">
        <ele>67.5</ele>
        <time>2021-01-23T14:27:57Z</time>
      </trkpt>
      <trkpt lat="43.60909" lon="3.84814">
        <ele>67.5</ele>
        <time>2021-01-23T14:27:58Z</time>
      </trkpt>
      <trkpt lat="43.60913" lon="3.84819">
        <ele>67.6</ele>
        <time>2021-01-23T14:27:59Z</time>
      </trkpt>
      <trkpt lat="43.60916" lon="3.84823">
        <ele>67.6</ele>
        <time>2021-01-23T14:28:00Z</time>
      </trkpt>
      <trkpt lat="43.60919" lon="3.84828">
        <ele>68</ele>
        <time>2021-01-23T14:28:01Z</time>
      </trkpt>
      <trkpt lat="43.60922" lon="3.84832">
        <ele>67.8</ele>
        <time>2021-01-23T14:28:02Z</time>
      </trkpt>
      <trkpt lat="43.60925" lon="3.84837">
        <ele>67.6</ele>
        <time>2021-01-23T14:28:03Z</time>
      </trkpt>
      <trkpt lat="43.60928" lon="3.84841">
        <ele>67.4</ele>
        <time>2021-01-23T14:28:04Z</time>
      </trkpt>
      <trkpt lat="43.60931" lon="3.84846">
        <ele>67.3</ele>
        <time>2021-01-23T14:28:05Z</time>
      </trkpt>
      <trkpt lat="43.60934" lon="3.84851">
        <ele>67.1</ele>
        <time>2021-01-23T14:28:06Z</time>
      </trkpt>
      <trkpt lat="43.60936" lon="3.84856">
        <ele>67.1</ele>
        <time>2021-01-23T14:28:07Z</time>
      </trkpt>
      <trkpt lat="43.60939" lon="3.84861">
        <ele>67</ele>
        <time>2021-01-23T14:28:08Z</time>
      </trkpt>
      <trkpt lat="43.60942" lon="3.84867">
        <ele>67.2</ele>
        <time>2021-01-23T14:28:09Z</time>
      </trkpt>
      <trkpt lat="43.60944" lon="3.84872">
        <ele>67.4</ele>
        <time>2021-01-23T14:28:10Z</time>
      </trkpt>
      <trkpt lat="43.60946" lon="3.84878">
        <ele>68</ele>
        <time>2021-01-23T14:28:11Z</time>
      </trkpt>
      <trkpt lat="43.60949" lon="3.84884">
        <ele>67.9</ele>
        <time>2021-01-23T14:28:12Z</time>
      </trkpt>
      <trkpt lat="43.60951" lon="3.8489">
        <ele>68</ele>
        <time>2021-01-23T14:28:13Z</time>
      </trkpt>
      <trkpt lat="43.60954" lon="3.84895">
        <ele>67.9</ele>
        <time>2021-01-23T14:28:14Z</time>
      </trkpt>
      <trkpt lat="43.60957" lon="3.84901">
        <ele>67.8</ele>
        <time>2021-01-23T14:28:15Z</time>
      </trkpt>
      <trkpt lat="43.60959" lon="3.84906">
        <ele>67.7</ele>
        <time>2021-01-23T14:28:16Z</time>
      </trkpt>
      <trkpt lat="43.60962" lon="3.84911">
        <ele>67.5</ele>
        <time>2021-01-23T14:28:17Z</time>
      </trkpt>
      <trkpt lat="43.60965" lon="3.84916">
        <ele>67.3</ele>
        <time>2021-01-23T14:28:18Z</time>
      </trkpt>
      <trkpt lat="43.60968" lon="3.84921">
        <ele>67.3</ele>
        <time>2021-01-23T14:28:19Z</time>
      </trkpt>
      <trkpt lat="43.60972" lon="3.84925">
        <ele>67.3</ele>
        <time>2021-01-23T14:28:20Z</time>
      </trkpt>
      <trkpt lat="43.60975" lon="3.84929">
        <ele>68</ele>
        <time>2021-01-23T14:28:21Z</time>
      </trkpt>
      <trkpt lat="43.6098" lon="3.84932">
        <ele>67.2</ele>
        <time>2021-01-23T14:28:22Z</time>
      </trkpt>
      <trkpt lat="43.60984" lon="3.84935">
        <ele>67.1</ele>
        <time>2021-01-23T14:28:23Z</time>
      </trkpt>
      <trkpt lat="43.60989" lon="3.84937">
        <ele>66.8</ele>
        <time>2021-01-23T14:28:24Z</time>
      </trkpt>
      <trkpt lat="43.60993" lon="3.8494">
        <ele>66.6</ele>
        <time>2021-01-23T14:28:25Z</time>
      </trkpt>
      <trkpt lat="43.60997" lon="3.84944">
        <ele>66.2</ele>
        <time>2021-01-23T14:28:26Z</time>
      </trkpt>
      <trkpt lat="43.61001" lon="3.84948">
        <ele>66.1</ele>
        <time>2021-01-23T14:28:27Z</time>
      </trkpt>
      <trkpt lat="43.61005" lon="3.84951">
        <ele>66.2</ele>
        <time>2021-01-23T14:28:28Z</time>
      </trkpt>
      <trkpt lat="43.6101" lon="3.84955">
        <ele>66.2</ele>
        <time>2021-01-23T14:28:29Z</time>
      </trkpt>
      <trkpt lat="43.61015" lon="3.84958">
        <ele>66.2</ele>
        <time>2021-01-23T14:28:30Z</time>
      </trkpt>
      <trkpt lat="43.6102" lon="3.84962">
        <ele>70</ele>
        <time>2021-01-23T14:28:31Z</time>
      </trkpt>
      <trkpt lat="43.61026" lon="3.84965">
        <ele>66</ele>
        <time>2021-01-23T14:28:32Z</time>
      </trkpt>
      <trkpt lat="43.61031" lon="3.84968">
        <ele>66</ele>
        <time>2021-01-23T14:28:33Z</time>
      </trkpt>
      <trkpt lat="43.61036" lon="3.8497">
        <ele>66</ele>
        <time>2021-01-23T14:28:34Z</time>
      </trkpt>
      <trkpt lat="43.6104" lon="3.84974">
        <ele>66</ele>
        <time>2021-01-23T14:28:35Z</time>
      </trkpt>
      <trkpt lat="43.61043" lon="3.84978">
        <ele>66</ele>
        <time>2021-01-23T14:28:36Z</time>
      </trkpt>
      <trkpt lat="43.61044" lon="3.84983">
        <ele>65.9</ele>
        <time>2021-01-23T14:28:37Z</time>
      </trkpt>
      <trkpt lat="43.61044" lon="3.84989">
        <ele>65.9</ele>
        <time>2021-01-23T14:28:38Z</time>
      </trkpt>
      <trkpt lat="43.61043" lon="3.84994">
        <ele>65.9</ele>
        <time>2021-01-23T14:28:39Z</time>
      </trkpt>
      <trkpt lat="43.61042" lon="3.85001">
        <ele>66</ele>
        <time>2021-01-23T14:28:40Z</time>
      </trkpt>
      <trkpt lat="43.61041" lon="3.85007">
        <ele>72</ele>
        <time>2021-01-23T14:28:41Z</time>
      </trkpt>
      <trkpt lat="43.61041" lon="3.85014">
        <ele>65.8</ele>
        <time>2021-01-23T14:28:42Z</time>
      </trkpt>
      <trkpt lat="43.6104" lon="3.85021">
        <ele>65.7</ele>
        <time>2021-01-23T14:28:43Z</time>
      </trkpt>
      <trkpt lat="43.61039" lon="3.85028">
        <ele>65.6</ele>
        <time>2021-01-23T14:28:44Z</time>
      </trkpt>
      <trkpt lat="43.61038" lon="3.85035">
        <ele>65.6</ele>
        <time>2021-01-23T14:28:45Z</time>
      </trkpt>
      <trkpt lat="43.61038" lon="3.85042">
        <ele>65.6</ele>
        <time>2021-01-23T14:28:46Z</time>
      </trkpt>
      <trkpt lat="43.61037" lon="3.85049">
        <ele>65.7</ele>
        <time>2021-01-23T14:28:47Z</time>
      </trkpt>
      <trkpt lat="43.61037" lon="3.85055">
        <ele>65.7</ele>
        <time>2021-01-23T14:28:48Z</time>
      </trkpt>
      <trkpt lat="43.61036" lon="3.85062">
        <ele>65.6</ele>
        <time>2021-01-23T14:28:49Z</time>
      </trkpt>
      <trkpt lat="43.61035" lon="3.85068">
        <ele>65.5</ele>
        <time>2021-01-23T14:28:50Z</time>
      </trkpt>
      <trkpt lat="43.61034" lon="3.85075">
        <ele>71</ele>
        <time>2021-01-23T14:28:51Z</time>
      </trkpt>
      <trkpt lat="43.61032" lon="3.85081">
        <ele>65.2</ele>
        <time>2021-01-23T14:28:52Z</time>
      </trkpt>
      <trkpt lat="43.6103" lon="3.85087">
        <ele>64.9</ele>
        <time>2021-01-23T14:28:53Z</time>
      </trkpt>
      <trkpt lat="43.61028" lon="3.85092">
        <ele>64.7</ele>
        <time>2021-01-23T14:28:54Z</time>
      </trkpt>
      <trkpt lat="43.61028" lon="3.85096">
        <ele>64.6</ele>
        <time>2021-01-23T14:28:55Z</time>
      </trkpt>
      <trkpt lat="43.61028" lon="3.85099">
        <ele>64.4</ele>
        <time>2021-01-23T14:28:56Z</time>
      </trkpt>
      <trkpt lat="43.61029" lon="3.85102">
        <ele>64.4</ele>
        <time>2021-01-23T14:28:57Z</time>
      </trkpt>
      <trkpt lat="43.61028" lon="3.85106">
        <ele>64.2</ele>
        <time>2021-01-23T14:28:58Z</time>
      </trkpt>
      <trkpt lat="43.61026" lon="3.85111">
        <ele>64.1</ele>
        <time>2021-01-23T14:28:59Z</time>
      </trkpt>
      <trkpt lat="43.61025" lon="3.85116">
        <ele>64.1</ele>
        <time>2021-01-23T14:29:00Z</time>
      </trkpt>
      <trkpt lat="43.61024" lon="3.85122">
        <ele>70</ele>
        <time>2021-01-23T14:29:01Z</time>
      </trkpt>
      <trkpt lat="43.61024" lon="3.85128">
        <ele>64.1</ele>
        <time>2021-01-23T14:29:02Z</time>
      </trkpt>
      <trkpt lat="43.61023" lon="3.85134">
        <ele>64.2</ele>
        <time>2021-01-23T14:29:03Z</time>
      </trkpt>
      <trkpt lat="43.61023" lon="3.85141">
        <ele>64.2</ele>
        <time>2021-01-23T14:29:04Z</time>
      </trkpt>
      <trkpt lat="43.61022" lon="3.85147">
        <ele>64.3</ele>
        <time>2021-01-23T14:29:05Z</time>
      </trkpt>
      <trkpt lat="43.61022" lon="3.85154">
        <ele>64.3</ele>
        <time>2021-01-23T14:29:06Z</time>
      </trkpt>
      <trkpt lat="43.61021" lon="3.85161">
        <ele>64.4</ele>
        <time>2021-01-23T14:29:07Z</time>
      </trkpt>
      <trkpt lat="43.6102" lon="3.85168">
        <ele>64.6</ele>
        <time>2021-01-23T14:29:08Z</time>
      </trkpt>
      <trkpt lat="43.6102" lon="3.85175">
        <ele>64.6</ele>
        <time>2021-01-23T14:29:09Z</time>
      </trkpt>
      <trkpt lat="43.61019" lon="3.85182">
        <ele>64.6</ele>
        <time>2021-01-23T14:29:10Z</time>
      </trkpt>
      <trkpt lat="43.61019" lon="3.8519">
        <ele>70</ele>
        <time>2021-01-23T14:29:11Z</time>
      </trkpt>
      <trkpt lat="43.61018" lon="3.85198">
        <ele>64.6</ele>
        <time>2021-01-23T14:29:12Z</time>
      </trkpt>
      <trkpt lat="43.61017" lon="3.85205">
        <ele>64.5</ele>
        <time>2021-01-23T14:29:13Z</time>
      </trkpt>
      <trkpt lat="43.61016" lon="3.85212">
        <ele>64.3</ele>
        <time>2021-01-23T14:29:14Z</time>
      </trkpt>
      <trkpt lat="43.61015" lon="3.85219">
        <ele>64.1</ele>
        <time>2021-01-23T14:29:15Z</time>
      </trkpt>
      <trkpt lat="43.61015" lon="3.85227">
        <ele>64</ele>
        <time>2021-01-23T14:29:16Z</time>
      </trkpt>
      <trkpt lat="43.61015" lon="3.85234">
        <ele>64</ele>
        <time>2021-01-23T14:29:17Z</time>
      </trkpt>
      <trkpt lat="43.61015" lon="3.85242">
        <ele>63.9</ele>
        <time>2021-01-23T14:29:18Z</time>
      </trkpt>
      <trkpt lat="43.61014" lon="3.8525">
        <ele>64</ele>
        <time>2021-01-23T14:29:19Z</time>
      </trkpt>
      <trkpt lat="43.61014" lon="3.85257">
        <ele>63.9</ele>
        <time>2021-01-23T14:29:20Z</time>
      </trkpt>
      <trkpt lat="43.61014" lon="3.85265">
        <ele>69</ele>
        <time>2021-01-23T14:29:21Z</time>
      </trkpt>
      <trkpt lat="43.61014" lon="3.85273">
        <ele>63.6</ele>
        <time>2021-01-23T14:29:22Z</time>
      </trkpt>
      <trkpt lat="43.61014" lon="3.85281">
        <ele>63.5</ele>
        <time>2021-01-23T14:29:23Z</time>
      </trkpt>
      <trkpt lat="43.61014" lon="3.85289">
        <ele>63.5</ele>
        <time>2021-01-23T14:29:24Z</time>
      </trkpt>
      <trkpt lat="43.61014" lon="3.85297">
        <ele>63.5</ele>
        <time>2021-01-23T14:29:25Z</time>
      </trkpt>
      <trkpt lat="43.61014" lon="3.85305">
        <ele>63.5</ele>
        <time>2021-01-23T14:29:26Z</time>
      </trkpt>
      <trkpt lat="43.61014" lon="3.85312">
        <ele>63.4</ele>
        <time>2021-01-23T14:29:27Z</time>
      </trkpt>
      <trkpt lat="43.61014" lon="3.8532">
        <ele>63.2</ele>
        <time>2021-01-23T14:29:28Z</time>
      </trkpt>
      <trkpt lat="43.61013" lon="3.85328">
        <ele>63.2</ele>
        <time>2021-01-23T14:29:29Z</time>
      </trkpt>
      <trkpt lat="43.61013" lon="3.85336">
        <ele>63</ele>
        <time>2021-01-23T14:29:30Z</time>
      </trkpt>
      <trkpt lat="43.61013" lon="3.85345">
        <ele>68</ele>
        <time>2021-01-23T14:29:31Z</time>
      </trkpt>
      <trkpt lat="43.61012" lon="3.85354">
        <ele>62.7</ele>
        <time>2021-01-23T14:29:32Z</time>
      </trkpt>
      <trkpt lat="43.61012" lon="3.85363">
        <ele>62.6</ele>
        <time>2021-01-23T14:29:33Z</time>
      </trkpt>
      <trkpt lat="43.61012" lon="3.85372">
        <ele>62.8</ele>
        <time>2021-01-23T14:29:34Z</time>
      </trkpt>
      <trkpt lat="43.61012" lon="3.85381">
        <ele>63</ele>
        <time>2021-01-23T14:29:35Z</time>
      </trkpt>
      <trkpt lat="43.61012" lon="3.8539">
        <ele>63.1</ele>
        <time>2021-01-23T14:29:36Z</time>
      </trkpt>
      <trkpt lat="43.61012" lon="3.85398">
        <ele>63</ele>
        <time>2021-01-23T14:29:37Z</time>
      </trkpt>
      <trkpt lat="43.61013" lon="3.85407">
        <ele>62.8</ele>
        <time>2021-01-23T14:29:38Z</time>
      </trkpt>
      <trkpt lat="43.61013" lon="3.85416">
        <ele>62.6</ele>
        <time>2021-01-23T14:29:39Z</time>
      </trkpt>
      <trkpt lat="43.61014" lon="3.85426">
        <ele>62.5</ele>
        <time>2021-01-23T14:29:40Z</time>
      </trkpt>
      <trkpt lat="43.61015" lon="3.85435">
        <ele>66</ele>
        <time>2021-01-23T14:29:41Z</time>
      </trkpt>
      <trkpt lat="43.61016" lon="3.85444">
        <ele>62.3</ele>
        <time>2021-01-23T14:29:42Z</time>
      </trkpt>
      <trkpt lat="43.61017" lon="3.85453">
        <ele>62.2</ele>
        <time>2021-01-23T14:29:43Z</time>
      </trkpt>
      <trkpt lat="43.61018" lon="3.85462">
        <ele>62.1</ele>
        <time>2021-01-23T14:29:44Z</time>
      </trkpt>
      <trkpt lat="43.61019" lon="3.85471">
        <ele>61.9</ele>
        <time>2021-01-23T14:29:45Z</time>
      </trkpt>
      <trkpt lat="43.6102" lon="3.85479">
        <ele>61.7</ele>
        <time>2021-01-23T14:29:46Z</time>
      </trkpt>
      <trkpt lat="43.61021" lon="3.85488">
        <ele>61.3</ele>
        <time>2021-01-23T14:29:47Z</time>
      </trkpt>
      <trkpt lat="43.61023" lon="3.85497">
        <ele>60.8</ele>
        <time>2021-01-23T14:29:48Z</time>
      </trkpt>
      <trkpt lat="43.61024" lon="3.85506">
        <ele>60.5</ele>
        <time>2021-01-23T14:29:49Z</time>
      </trkpt>
      <trkpt lat="43.61025" lon="3.85514">
        <ele>60.3</ele>
        <time>2021-01-23T14:29:50Z</time>
      </trkpt>
      <trkpt lat="43.61026" lon="3.85523">
        <ele>66</ele>
        <time>2021-01-23T14:29:51Z</time>
      </trkpt>
      <trkpt lat="43.61027" lon="3.85532">
        <ele>60.1</ele>
        <time>2021-01-23T14:29:52Z</time>
      </trkpt>
      <trkpt lat="43.61028" lon="3.85541">
        <ele>60</ele>
        <time>2021-01-23T14:29:53Z</time>
      </trkpt>
      <trkpt lat="43.61029" lon="3.8555">
        <ele>59.8</ele>
        <time>2021-01-23T14:29:54Z</time>
      </trkpt>
      <trkpt lat="43.6103" lon="3.85559">
        <ele>59.7</ele>
        <time>2021-01-23T14:29:55Z</time>
      </trkpt>
      <trkpt lat="43.61031" lon="3.85568">
        <ele>59.6</ele>
        <time>2021-01-23T14:29:56Z</time>
      </trkpt>
      <trkpt lat="43.61032" lon="3.85577">
        <ele>59.6</ele>
        <time>2021-01-23T14:29:57Z</time>
      </trkpt>
      <trkpt lat="43.61033" lon="3.85586">
        <ele>59.6</ele>
        <time>2021-01-23T14:29:58Z</time>
      </trkpt>
      <trkpt lat="43.61034" lon="3.85595">
        <ele>59.6</ele>
        <time>2021-01-23T14:29:59Z</time>
      </trkpt>
      <trkpt lat="43.61035" lon="3.85603">
        <ele>59.5</ele>
        <time>2021-01-23T14:30:00Z</time>
      </trkpt>
      <trkpt lat="43.61036" lon="3.85612">
        <ele>65</ele>
        <time>2021-01-23T14:30:01Z</time>
      </trkpt>
      <trkpt lat="43.61037" lon="3.8562">
        <ele>59.8</ele>
        <time>2021-01-23T14:30:02Z</time>
      </trkpt>
      <trkpt lat="43.61037" lon="3.85627">
        <ele>60.1</ele>
        <time>2021-01-23T14:30:03Z</time>
      </trkpt>
      <trkpt lat="43.61038" lon="3.85635">
        <ele>60.4</ele>
        <time>2021-01-23T14:30:04Z</time>
      </trkpt>
      <trkpt lat="43.61039" lon="3.85643">
        <ele>60.4</ele>
        <time>2021-01-23T14:30:05Z</time>
      </trkpt>
      <trkpt lat="43.6104" lon="3.8565">
        <ele>60.4</ele>
        <time>2021-01-23T14:30:06Z</time>
      </trkpt>
      <trkpt lat="43.61042" lon="3.85656">
        <ele>60.3</ele>
        <time>2021-01-23T14:30:07Z</time>
      </trkpt>
      <trkpt lat="43.61045" lon="3.8566">
        <ele>60</ele>
        <time>2021-01-23T14:30:08Z</time>
      </trkpt>
      <trkpt lat="43.61048" lon="3.85661">
        <ele>59.7</ele>
        <time>2021-01-23T14:30:09Z</time>
      </trkpt>
      <trkpt lat="43.61051" lon="3.85661">
        <ele>59.3</ele>
        <time>2021-01-23T14:30:10Z</time>
      </trkpt>
      <trkpt lat="43.61053" lon="3.85659">
        <ele>63</ele>
        <time>2021-01-23T14:30:11Z</time>
      </trkpt>
      <trkpt lat="43.61056" lon="3.85658">
        <ele>58.6</ele>
        <time>2021-01-23T14:30:12Z</time>
      </trkpt>
      <trkpt lat="43.6106" lon="3.85659">
        <ele>57.9</ele>
        <time>2021-01-23T14:30:13Z</time>
      </trkpt>
      <trkpt lat="43.61063" lon="3.85663">
        <ele>57.3</ele>
        <time>2021-01-23T14:30:14Z</time>
      </trkpt>
      <trkpt lat="43.61067" lon="3.85668">
        <ele>56.7</ele>
        <time>2021-01-23T14:30:15Z</time>
      </trkpt>
      <trkpt lat="43.61071" lon="3.85673">
        <ele>56.3</ele>
        <time>2021-01-23T14:30:16Z</time>
      </trkpt>
      <trkpt lat="43.61075" lon="3.85679">
        <ele>56.1</ele>
        <time>2021-01-23T14:30:17Z</time>
      </trkpt>
      <trkpt lat="43.6108" lon="3.85685">
        <ele>55.7</ele>
        <time>2021-01-23T14:30:18Z</time>
      </trkpt>
      <trkpt lat="43.61084" lon="3.85691">
        <ele>55.6</ele>
        <time>2021-01-23T14:30:19Z</time>
      </trkpt>
      <trkpt lat="43.6109" lon="3.85697">
        <ele>55.7</ele>
        <time>2021-01-23T14:30:20Z</time>
      </trkpt>
      <trkpt lat="43.61095" lon="3.85703">
        <ele>63</ele>
        <time>2021-01-23T14:30:21Z</time>
      </trkpt>
      <trkpt lat="43.61101" lon="3.8571">
        <ele>55</ele>
        <time>2021-01-23T14:30:22Z</time>
      </trkpt>
      <trkpt lat="43.61107" lon="3.85717">
        <ele>54</ele>
        <time>2021-01-23T14:30:23Z</time>
      </trkpt>
      <trkpt lat="43.61112" lon="3.85726">
        <ele>53.1</ele>
        <time>2021-01-23T14:30:24Z</time>
      </trkpt>
      <trkpt lat="43.61117" lon="3.85735">
        <ele>53.1</ele>
        <time>2021-01-23T14:30:25Z</time>
      </trkpt>
      <trkpt lat="43.61122" lon="3.85744">
        <ele>53</ele>
        <time>2021-01-23T14:30:26Z</time>
      </trkpt>
      <trkpt lat="43.61126" lon="3.85754">
        <ele>53</ele>
        <time>2021-01-23T14:30:27Z</time>
      </trkpt>
      <trkpt lat="43.61128" lon="3.85766">
        <ele>53.1</ele>
        <time>2021-01-23T14:30:28Z</time>
      </trkpt>
      <trkpt lat="43.6113" lon="3.85778">
        <ele>53.3</ele>
        <time>2021-01-23T14:30:29Z</time>
      </trkpt>
      <trkpt lat="43.61132" lon="3.85789">
        <ele>52.7</ele>
        <time>2021-01-23T14:30:30Z</time>
      </trkpt>
      <trkpt lat="43.61134" lon="3.85801">
        <ele>61</ele>
        <time>2021-01-23T14:30:31Z</time>
      </trkpt>
      <trkpt lat="43.61135" lon="3.85813">
        <ele>51.5</ele>
        <time>2021-01-23T14:30:32Z</time>
      </trkpt>
      <trkpt lat="43.61136" lon="3.85825">
        <ele>50.9</ele>
        <time>2021-01-23T14:30:33Z</time>
      </trkpt>
      <trkpt lat="43.61138" lon="3.85837">
        <ele>50.1</ele>
        <time>2021-01-23T14:30:34Z</time>
      </trkpt>
      <trkpt lat="43.61139" lon="3.85849">
        <ele>49.4</ele>
        <time>2021-01-23T14:30:35Z</time>
      </trkpt>
      <trkpt lat="43.61141" lon="3.85861">
        <ele>49</ele>
        <time>2021-01-23T14:30:36Z</time>
      </trkpt>
      <trkpt lat="43.61143" lon="3.85873">
        <ele>48.5</ele>
        <time>2021-01-23T14:30:37Z</time>
      </trkpt>
      <trkpt lat="43.61144" lon="3.85885">
        <ele>48</ele>
        <time>2021-01-23T14:30:38Z</time>
      </trkpt>
      <trkpt lat="43.61146" lon="3.85897">
        <ele>47.7</ele>
        <time>2021-01-23T14:30:39Z</time>
      </trkpt>
      <trkpt lat="43.61148" lon="3.85909">
        <ele>47.7</ele>
        <time>2021-01-23T14:30:40Z</time>
      </trkpt>
      <trkpt lat="43.61149" lon="3.85921">
        <ele>55</ele>
        <time>2021-01-23T14:30:41Z</time>
      </trkpt>
      <trkpt lat="43.61151" lon="3.85933">
        <ele>47.1</ele>
        <time>2021-01-23T14:30:42Z</time>
      </trkpt>
      <trkpt lat="43.61152" lon="3.85945">
        <ele>46.6</ele>
        <time>2021-01-23T14:30:43Z</time>
      </trkpt>
      <trkpt lat="43.61154" lon="3.85957">
        <ele>46.2</ele>
        <time>2021-01-23T14:30:44Z</time>
      </trkpt>
      <trkpt lat="43.61156" lon="3.85969">
        <ele>45.8</ele>
        <time>2021-01-23T14:30:45Z</time>
      </trkpt>
      <trkpt lat="43.61157" lon="3.85981">
        <ele>45.5</ele>
        <time>2021-01-23T14:30:46Z</time>
      </trkpt>
      <trkpt lat="43.61159" lon="3.85992">
        <ele>45</ele>
        <time>2021-01-23T14:30:47Z</time>
      </trkpt>
      <trkpt lat="43.61161" lon="3.86004">
        <ele>44.6</ele>
        <time>2021-01-23T14:30:48Z</time>
      </trkpt>
      <trkpt lat="43.61163" lon="3.86016">
        <ele>44.5</ele>
        <time>2021-01-23T14:30:49Z</time>
      </trkpt>
      <trkpt lat="43.61164" lon="3.86027">
        <ele>44.4</ele>
        <time>2021-01-23T14:30:50Z</time>
      </trkpt>
      <trkpt lat="43.61166" lon="3.86039">
        <ele>50</ele>
        <time>2021-01-23T14:30:51Z</time>
      </trkpt>
      <trkpt lat="43.61167" lon="3.86051">
        <ele>43.2</ele>
        <time>2021-01-23T14:30:52Z</time>
      </trkpt>
      <trkpt lat="43.61168" lon="3.86063">
        <ele>42.7</ele>
        <time>2021-01-23T14:30:53Z</time>
      </trkpt>
      <trkpt lat="43.6117" lon="3.86075">
        <ele>42.3</ele>
        <time>2021-01-23T14:30:54Z</time>
      </trkpt>
      <trkpt lat="43.61171" lon="3.86087">
        <ele>42</ele>
        <time>2021-01-23T14:30:55Z</time>
      </trkpt>
      <trkpt lat="43.61174" lon="3.86098">
        <ele>41.9</ele>
        <time>2021-01-23T14:30:56Z</time>
      </trkpt>
      <trkpt lat="43.61177" lon="3.86109">
        <ele>41.7</ele>
        <time>2021-01-23T14:30:57Z</time>
      </trkpt>
      <trkpt lat="43.6118" lon="3.8612">
        <ele>41.4</ele>
        <time>2021-01-23T14:30:58Z</time>
      </trkpt>
      <trkpt lat="43.61183" lon="3.8613">
        <ele>41.1</ele>
        <time>2021-01-23T14:30:59Z</time>
      </trkpt>
      <trkpt lat="43.61187" lon="3.8614">
        <ele>41</ele>
        <time>2021-01-23T14:31:00Z</time>
      </trkpt>
      <trkpt lat="43.61191" lon="3.86151">
        <ele>49</ele>
        <time>2021-01-23T14:31:01Z</time>
      </trkpt>
      <trkpt lat="43.61194" lon="3.86161">
        <ele>40.2</ele>
        <time>2021-01-23T14:31:02Z</time>
      </trkpt>
      <trkpt lat="43.61197" lon="3.86171">
        <ele>40</ele>
        <time>2021-01-23T14:31:03Z</time>
      </trkpt>
      <trkpt lat="43.612" lon="3.86181">
        <ele>39.9</ele>
        <time>2021-01-23T14:31:04Z</time>
      </trkpt>
      <trkpt lat="43.61202" lon="3.86191">
        <ele>39.8</ele>
        <time>2021-01-23T14:31:05Z</time>
      </trkpt>
      <trkpt lat="43.61205" lon="3.862">
        <ele>39.5</ele>
        <time>2021-01-23T14:31:06Z</time>
      </trkpt>
      <trkpt lat="43.61207" lon="3.8621">
        <ele>39.2</ele>
        <time>2021-01-23T14:31:07Z</time>
      </trkpt>
      <trkpt lat="43.61206" lon="3.86221">
        <ele>39</ele>
        <time>2021-01-23T14:31:08Z</time>
      </trkpt>
      <trkpt lat="43.61205" lon="3.86231">
        <ele>38.8</ele>
        <time>2021-01-23T14:31:09Z</time>
      </trkpt>
      <trkpt lat="43.61204" lon="3.86241">
        <ele>38.5</ele>
        <time>2021-01-23T14:31:10Z</time>
      </trkpt>
      <trkpt lat="43.61203" lon="3.86251">
        <ele>47</ele>
        <time>2021-01-23T14:31:11Z</time>
      </trkpt>
      <trkpt lat="43.61202" lon="3.86261">
        <ele>38.6</ele>
        <time>2021-01-23T14:31:12Z</time>
      </trkpt>
      <trkpt lat="43.61201" lon="3.86271">
        <ele>38.7</ele>
        <time>2021-01-23T14:31:13Z</time>
      </trkpt>
      <trkpt lat="43.612" lon="3.8628">
        <ele>38.7</ele>
        <time>2021-01-23T14:31:14Z</time>
      </trkpt>
      <trkpt lat="43.61199" lon="3.86289">
        <ele>38.5</ele>
        <time>2021-01-23T14:31:15Z</time>
      </trkpt>
      <trkpt lat="43.61198" lon="3.86298">
        <ele>38.2</ele>
        <time>2021-01-23T14:31:16Z</time>
      </trkpt>
      <trkpt lat="43.61197" lon="3.86308">
        <ele>38</ele>
        <time>2021-01-23T14:31:17Z</time>
      </trkpt>
      <trkpt lat="43.61196" lon="3.86317">
        <ele>38</ele>
        <time>2021-01-23T14:31:18Z</time>
      </trkpt>
      <trkpt lat="43.61196" lon="3.86326">
        <ele>38</ele>
        <time>2021-01-23T14:31:19Z</time>
      </trkpt>
      <trkpt lat="43.61195" lon="3.86335">
        <ele>38</ele>
        <time>2021-01-23T14:31:20Z</time>
      </trkpt>
      <trkpt lat="43.61194" lon="3.86344">
        <ele>46</ele>
        <time>2021-01-23T14:31:21Z</time>
      </trkpt>
      <trkpt lat="43.61193" lon="3.86353">
        <ele>38</ele>
        <time>2021-01-23T14:31:22Z</time>
      </trkpt>
      <trkpt lat="43.61192" lon="3.86362">
        <ele>38</ele>
        <time>2021-01-23T14:31:23Z</time>
      </trkpt>
      <trkpt lat="43.61192" lon="3.86371">
        <ele>38</ele>
        <time>2021-01-23T14:31:24Z</time>
      </trkpt>
      <trkpt lat="43.61191" lon="3.8638">
        <ele>38</ele>
        <time>2021-01-23T14:31:25Z</time>
      </trkpt>
      <trkpt lat="43.6119" lon="3.86389">
        <ele>38</ele>
        <time>2021-01-23T14:31:26Z</time>
      </trkpt>
      <trkpt lat="43.61189" lon="3.86398">
        <ele>37.7</ele>
        <time>2021-01-23T14:31:27Z</time>
      </trkpt>
      <trkpt lat="43.61188" lon="3.86406">
        <ele>37.4</ele>
        <time>2021-01-23T14:31:28Z</time>
      </trkpt>
      <trkpt lat="43.61187" lon="3.86415">
        <ele>37.1</ele>
        <time>2021-01-23T14:31:29Z</time>
      </trkpt>
      <trkpt lat="43.61187" lon="3.86424">
        <ele>37</ele>
        <time>2021-01-23T14:31:30Z</time>
      </trkpt>
      <trkpt lat="43.61186" lon="3.86433">
        <ele>46</ele>
        <time>2021-01-23T14:31:31Z</time>
      </trkpt>
      <trkpt lat="43.61185" lon="3.86442">
        <ele>37</ele>
        <time>2021-01-23T14:31:32Z</time>
      </trkpt>
      <trkpt lat="43.61185" lon="3.8645">
        <ele>37</ele>
        <time>2021-01-23T14:31:33Z</time>
      </trkpt>
      <trkpt lat="43.61184" lon="3.86459">
        <ele>37</ele>
        <time>2021-01-23T14:31:34Z</time>
      </trkpt>
      <trkpt lat="43.61183" lon="3.86468">
        <ele>37</ele>
        <time>2021-01-23T14:31:35Z</time>
      </trkpt>
      <trkpt lat="43.61182" lon="3.86477">
        <ele>36.9</ele>
        <time>2021-01-23T14:31:36Z</time>
      </trkpt>
      <trkpt lat="43.61181" lon="3.86486">
        <ele>36.7</ele>
        <time>2021-01-23T14:31:37Z</time>
      </trkpt>
      <trkpt lat="43.6118" lon="3.86495">
        <ele>36.6</ele>
        <time>2021-01-23T14:31:38Z</time>
      </trkpt>
      <trkpt lat="43.61179" lon="3.86503">
        <ele>36.5</ele>
        <time>2021-01-23T14:31:39Z</time>
      </trkpt>
      <trkpt lat="43.61179" lon="3.86512">
        <ele>36.3</ele>
        <time>2021-01-23T14:31:40Z</time>
      </trkpt>
      <trkpt lat="43.61178" lon="3.86521">
        <ele>45</ele>
        <time>2021-01-23T14:31:41Z</time>
      </trkpt>
      <trkpt lat="43.61178" lon="3.8653">
        <ele>36</ele>
        <time>2021-01-23T14:31:42Z</time>
      </trkpt>
      <trkpt lat="43.61177" lon="3.86539">
        <ele>36</ele>
        <time>2021-01-23T14:31:43Z</time>
      </trkpt>
      <trkpt lat="43.61177" lon="3.86548">
        <ele>36</ele>
        <time>2021-01-23T14:31:44Z</time>
      </trkpt>
      <trkpt lat="43.61177" lon="3.86557">
        <ele>35.9</ele>
        <time>2021-01-23T14:31:45Z</time>
      </trkpt>
      <trkpt lat="43.61176" lon="3.86565">
        <ele>35.7</ele>
        <time>2021-01-23T14:31:46Z</time>
      </trkpt>
      <trkpt lat="43.61175" lon="3.86574">
        <ele>35.3</ele>
        <time>2021-01-23T14:31:47Z</time>
      </trkpt>
      <trkpt lat="43.61175" lon="3.86582">
        <ele>35</ele>
        <time>2021-01-23T14:31:48Z</time>
      </trkpt>
      <trkpt lat="43.61175" lon="3.86591">
        <ele>35</ele>
        <time>2021-01-23T14:31:49Z</time>
      </trkpt>
      <trkpt lat="43.61174" lon="3.866">
        <ele>35</ele>
        <time>2021-01-23T14:31:50Z</time>
      </trkpt>
      <trkpt lat="43.61174" lon="3.86608">
        <ele>45</ele>
        <time>2021-01-23T14:31:51Z</time>
      </trkpt>
      <trkpt lat="43.61174" lon="3.86617">
        <ele>34.9</ele>
        <time>2021-01-23T14:31:52Z</time>
      </trkpt>
      <trkpt lat="43.61174" lon="3.86625">
        <ele>34.9</ele>
        <time>2021-01-23T14:31:53Z</time>
      </trkpt>
      <trkpt lat="43.61174" lon="3.86633">
        <ele>34.8</ele>
        <time>2021-01-23T14:31:54Z</time>
      </trkpt>
      <trkpt lat="43.61173" lon="3.8664">
        <ele>34.8</ele>
        <time>2021-01-23T14:31:55Z</time>
      </trkpt>
      <trkpt lat="43.61172" lon="3.86646">
        <ele>34.9</ele>
        <time>2021-01-23T14:31:56Z</time>
      </trkpt>
      <trkpt lat="43.61172" lon="3.8665">
        <ele>34.9</ele>
        <time>2021-01-23T14:31:57Z</time>
      </trkpt>
      <trkpt lat="43.61172" lon="3.86654">
        <ele>34.9</ele>
        <time>2021-01-23T14:31:58Z</time>
      </trkpt>
      <trkpt lat="43.61173" lon="3.86658">
        <ele>34.9</ele>
        <time>2021-01-23T14:31:59Z</time>
      </trkpt>
      <trkpt lat="43.61176" lon="3.86661">
        <ele>34.9</ele>
        <time>2021-01-23T14:32:00Z</time>
      </trkpt>
      <trkpt lat="43.61179" lon="3.86664">
        <ele>43</ele>
        <time>2021-01-23T14:32:01Z</time>
      </trkpt>
      <trkpt lat="43.61183" lon="3.86666">
        <ele>35</ele>
        <time>2021-01-23T14:32:02Z</time>
      </trkpt>
      <trkpt lat="43.61187" lon="3.86667">
        <ele>35</ele>
        <time>2021-01-23T14:32:03Z</time>
      </trkpt>
      <trkpt lat="43.61192" lon="3.86667">
        <ele>35</ele>
        <time>2021-01-23T14:32:04Z</time>
      </trkpt>
      <trkpt lat="43.61196" lon="3.86668">
        <ele>34.9</ele>
        <time>2021-01-23T14:32:05Z</time>
      </trkpt>
      <trkpt lat="43.61201" lon="3.8667">
        <ele>34.8</ele>
        <time>2021-01-23T14:32:06Z</time>
      </trkpt>
      <trkpt lat="43.61204" lon="3.86673">
        <ele>34.7</ele>
        <time>2021-01-23T14:32:07Z</time>
      </trkpt>
      <trkpt lat="43.61207" lon="3.86678">
        <ele>34.5</ele>
        <time>2021-01-23T14:32:08Z</time>
      </trkpt>
      <trkpt lat="43.61209" lon="3.86684">
        <ele>34.5</ele>
        <time>2021-01-23T14:32:09Z</time>
      </trkpt>
      <trkpt lat="43.6121" lon="3.8669">
        <ele>34.4</ele>
        <time>2021-01-23T14:32:10Z</time>
      </trkpt>
      <trkpt lat="43.61209" lon="3.86697">
        <ele>41</ele>
        <time>2021-01-23T14:32:11Z</time>
      </trkpt>
      <trkpt lat="43.61208" lon="3.86703">
        <ele>35</ele>
        <time>2021-01-23T14:32:12Z</time>
      </trkpt>
      <trkpt lat="43.61208" lon="3.86709">
        <ele>35.3</ele>
        <time>2021-01-23T14:32:13Z</time>
      </trkpt>
      <trkpt lat="43.61207" lon="3.86715">
        <ele>35.6</ele>
        <time>2021-01-23T14:32:14Z</time>
      </trkpt>
      <trkpt lat="43.61207" lon="3.86721">
        <ele>35.9</ele>
        <time>2021-01-23T14:32:15Z</time>
      </trkpt>
      <trkpt lat="43.61207" lon="3.86727">
        <ele>36.1</ele>
        <time>2021-01-23T14:32:16Z</time>
      </trkpt>
      <trkpt lat="43.61206" lon="3.86733">
        <ele>36.2</ele>
        <time>2021-01-23T14:32:17Z</time>
      </trkpt>
      <trkpt lat="43.61206" lon="3.86739">
        <ele>36.3</ele>
        <time>2021-01-23T14:32:18Z</time>
      </trkpt>
      <trkpt lat="43.61206" lon="3.86744">
        <ele>36.3</ele>
        <time>2021-01-23T14:32:19Z</time>
      </trkpt>
      <trkpt lat="43.61206" lon="3.8675">
        <ele>36.4</ele>
        <time>2021-01-23T14:32:20Z</time>
      </trkpt>
      <trkpt lat="43.61205" lon="3.86755">
        <ele>41</ele>
        <time>2021-01-23T14:32:21Z</time>
      </trkpt>
      <trkpt lat="43.61205" lon="3.8676">
        <ele>36.6</ele>
        <time>2021-01-23T14:32:22Z</time>
      </trkpt>
      <trkpt lat="43.61205" lon="3.86765">
        <ele>36.7</ele>
        <time>2021-01-23T14:32:23Z</time>
      </trkpt>
      <trkpt lat="43.61205" lon="3.8677">
        <ele>36.8</ele>
        <time>2021-01-23T14:32:24Z</time>
      </trkpt>
      <trkpt lat="43.61205" lon="3.86775">
        <ele>36.9</ele>
        <time>2021-01-23T14:32:25Z</time>
      </trkpt>
      <trkpt lat="43.61205" lon="3.86779">
        <ele>37</ele>
        <time>2021-01-23T14:32:26Z</time>
      </trkpt>
      <trkpt lat="43.61205" lon="3.86783">
        <ele>37.2</ele>
        <time>2021-01-23T14:32:27Z</time>
      </trkpt>
      <trkpt lat="43.61206" lon="3.86788">
        <ele>37.4</ele>
        <time>2021-01-23T14:32:28Z</time>
      </trkpt>
      <trkpt lat="43.61207" lon="3.86792">
        <ele>37.5</ele>
        <time>2021-01-23T14:32:29Z</time>
      </trkpt>
      <trkpt lat="43.61208" lon="3.86796">
        <ele>37.7</ele>
        <time>2021-01-23T14:32:30Z</time>
      </trkpt>
      <trkpt lat="43.61209" lon="3.868">
        <ele>42</ele>
        <time>2021-01-23T14:32:31Z</time>
      </trkpt>
      <trkpt lat="43.6121" lon="3.86804">
        <ele>37.9</ele>
        <time>2021-01-23T14:32:32Z</time>
      </trkpt>
      <trkpt lat="43.61212" lon="3.86808">
        <ele>38.3</ele>
        <time>2021-01-23T14:32:33Z</time>
      </trkpt>
      <trkpt lat="43.61213" lon="3.86811">
        <ele>38.7</ele>
        <time>2021-01-23T14:32:34Z</time>
      </trkpt>
      <trkpt lat="43.61215" lon="3.86815">
        <ele>39.1</ele>
        <time>2021-01-23T14:32:35Z</time>
      </trkpt>
      <trkpt lat="43.61216" lon="3.86818">
        <ele>39.4</ele>
        <time>2021-01-23T14:32:36Z</time>
      </trkpt>
      <trkpt lat="43.61218" lon="3.86822">
        <ele>39.6</ele>
        <time>2021-01-23T14:32:37Z</time>
      </trkpt>
      <trkpt lat="43.61218" lon="3.86826">
        <ele>40</ele>
        <time>2021-01-23T14:32:38Z</time>
      </trkpt>
      <trkpt lat="43.61219" lon="3.8683">
        <ele>40.3</ele>
        <time>2021-01-23T14:32:39Z</time>
      </trkpt>
      <trkpt lat="43.61219" lon="3.86834">
        <ele>40.6</ele>
        <time>2021-01-23T14:32:40Z</time>
      </trkpt>
      <trkpt lat="43.61219" lon="3.86838">
        <ele>40.8</ele>
        <time>2021-01-23T14:32:41Z</time>
      </trkpt>
      <trkpt lat="43.61218" lon="3.86842">
        <ele>43</ele>
        <time>2021-01-23T14:32:42Z</time>
      </trkpt>
      <trkpt lat="43.61218" lon="3.86846">
        <ele>41.4</ele>
        <time>2021-01-23T14:32:43Z</time>
      </trkpt>
      <trkpt lat="43.61218" lon="3.8685">
        <ele>41.6</ele>
        <time>2021-01-23T14:32:44Z</time>
      </trkpt>
      <trkpt lat="43.61218" lon="3.86855">
        <ele>41.9</ele>
        <time>2021-01-23T14:32:45Z</time>
      </trkpt>
      <trkpt lat="43.61217" lon="3.86859">
        <ele>42.4</ele>
        <time>2021-01-23T14:32:46Z</time>
      </trkpt>
      <trkpt lat="43.61217" lon="3.86863">
        <ele>42.5</ele>
        <time>2021-01-23T14:32:47Z</time>
      </trkpt>
      <trkpt lat="43.61218" lon="3.86868">
        <ele>42.2</ele>
        <time>2021-01-23T14:32:48Z</time>
      </trkpt>
      <trkpt lat="43.61219" lon="3.86872">
        <ele>41.9</ele>
        <time>2021-01-23T14:32:49Z</time>
      </trkpt>
      <trkpt lat="43.61218" lon="3.86877">
        <ele>42.1</ele>
        <time>2021-01-23T14:32:50Z</time>
      </trkpt>
      <trkpt lat="43.61218" lon="3.86881">
        <ele>46</ele>
        <time>2021-01-23T14:32:51Z</time>
      </trkpt>
      <trkpt lat="43.61219" lon="3.86886">
        <ele>41.8</ele>
        <time>2021-01-23T14:32:52Z</time>
      </trkpt>
      <trkpt lat="43.61218" lon="3.8689">
        <ele>42.1</ele>
        <time>2021-01-23T14:32:53Z</time>
      </trkpt>
      <trkpt lat="43.61218" lon="3.86895">
        <ele>42.1</ele>
        <time>2021-01-23T14:32:54Z</time>
      </trkpt>
      <trkpt lat="43.61218" lon="3.86899">
        <ele>42.1</ele>
        <time>2021-01-23T14:32:55Z</time>
      </trkpt>
      <trkpt lat="43.61217" lon="3.86904">
        <ele>42.4</ele>
        <time>2021-01-23T14:32:56Z</time>
      </trkpt>
      <trkpt lat="43.61216" lon="3.86909">
        <ele>42.7</ele>
        <time>2021-01-23T14:32:57Z</time>
      </trkpt>
      <trkpt lat="43.61216" lon="3.86913">
        <ele>42.8</ele>
        <time>2021-01-23T14:32:58Z</time>
      </trkpt>
      <trkpt lat="43.61216" lon="3.86918">
        <ele>42.8</ele>
        <time>2021-01-23T14:32:59Z</time>
      </trkpt>
      <trkpt lat="43.61215" lon="3.86922">
        <ele>43.1</ele>
        <time>2021-01-23T14:33:00Z</time>
      </trkpt>
      <trkpt lat="43.61216" lon="3.86927">
        <ele>47</ele>
        <time>2021-01-23T14:33:01Z</time>
      </trkpt>
      <trkpt lat="43.61216" lon="3.86932">
        <ele>42.8</ele>
        <time>2021-01-23T14:33:02Z</time>
      </trkpt>
      <trkpt lat="43.61215" lon="3.86936">
        <ele>43.1</ele>
        <time>2021-01-23T14:33:03Z</time>
      </trkpt>
      <trkpt lat="43.61215" lon="3.86941">
        <ele>43.1</ele>
        <time>2021-01-23T14:33:04Z</time>
      </trkpt>
      <trkpt lat="43.61215" lon="3.86946">
        <ele>43.1</ele>
        <time>2021-01-23T14:33:05Z</time>
      </trkpt>
      <trkpt lat="43.61214" lon="3.8695">
        <ele>43.4</ele>
        <time>2021-01-23T14:33:06Z</time>
      </trkpt>
      <trkpt lat="43.61214" lon="3.86955">
        <ele>43.4</ele>
        <time>2021-01-23T14:33:07Z</time>
      </trkpt>
      <trkpt lat="43.61214" lon="3.8696">
        <ele>43.4</ele>
        <time>2021-01-23T14:33:08Z</time>
      </trkpt>
      <trkpt lat="43.61214" lon="3.86965">
        <ele>43.4</ele>
        <time>2021-01-23T14:33:09Z</time>
      </trkpt>
      <trkpt lat="43.61215" lon="3.8697">
        <ele>43.1</ele>
        <time>2021-01-23T14:33:10Z</time>
      </trkpt>
      <trkpt lat="43.61215" lon="3.86975">
        <ele>50</ele>
        <time>2021-01-23T14:33:11Z</time>
      </trkpt>
      <trkpt lat="43.61215" lon="3.86981">
        <ele>43.1</ele>
        <time>2021-01-23T14:33:12Z</time>
      </trkpt>
      <trkpt lat="43.61215" lon="3.86986">
        <ele>43.1</ele>
        <time>2021-01-23T14:33:13Z</time>
      </trkpt>
      <trkpt lat="43.61214" lon="3.86991">
        <ele>43.4</ele>
        <time>2021-01-23T14:33:14Z</time>
      </trkpt>
      <trkpt lat="43.61214" lon="3.86996">
        <ele>43.4</ele>
        <time>2021-01-23T14:33:15Z</time>
      </trkpt>
      <trkpt lat="43.61213" lon="3.87001">
        <ele>43.6</ele>
        <time>2021-01-23T14:33:16Z</time>
      </trkpt>
      <trkpt lat="43.61213" lon="3.87006">
        <ele>43.5</ele>
        <time>2021-01-23T14:33:17Z</time>
      </trkpt>
      <trkpt lat="43.61213" lon="3.87012">
        <ele>43.4</ele>
        <time>2021-01-23T14:33:18Z</time>
      </trkpt>
      <trkpt lat="43.61212" lon="3.87017">
        <ele>43.6</ele>
        <time>2021-01-23T14:33:19Z</time>
      </trkpt>
      <trkpt lat="43.61212" lon="3.87022">
        <ele>43.4</ele>
        <time>2021-01-23T14:33:20Z</time>
      </trkpt>
      <trkpt lat="43.61211" lon="3.87028">
        <ele>50</ele>
        <time>2021-01-23T14:33:21Z</time>
      </trkpt>
      <trkpt lat="43.61211" lon="3.87033">
        <ele>43.6</ele>
        <time>2021-01-23T14:33:22Z</time>
      </trkpt>
      <trkpt lat="43.6121" lon="3.87039">
        <ele>44</ele>
        <time>2021-01-23T14:33:23Z</time>
      </trkpt>
      <trkpt lat="43.61209" lon="3.87044">
        <ele>44.3</ele>
        <time>2021-01-23T14:33:24Z</time>
      </trkpt>
      <trkpt lat="43.61209" lon="3.87049">
        <ele>44.3</ele>
        <time>2021-01-23T14:33:25Z</time>
      </trkpt>
      <trkpt lat="43.61208" lon="3.87055">
        <ele>44.6</ele>
        <time>2021-01-23T14:33:26Z</time>
      </trkpt>
      <trkpt lat="43.61207" lon="3.8706">
        <ele>44.8</ele>
        <time>2021-01-23T14:33:27Z</time>
      </trkpt>
      <trkpt lat="43.61207" lon="3.87066">
        <ele>44.6</ele>
        <time>2021-01-23T14:33:28Z</time>
      </trkpt>
      <trkpt lat="43.61206" lon="3.87071">
        <ele>44.7</ele>
        <time>2021-01-23T14:33:29Z</time>
      </trkpt>
      <trkpt lat="43.61205" lon="3.87077">
        <ele>44.8</ele>
        <time>2021-01-23T14:33:30Z</time>
      </trkpt>
      <trkpt lat="43.61205" lon="3.87082">
        <ele>50</ele>
        <time>2021-01-23T14:33:31Z</time>
      </trkpt>
      <trkpt lat="43.61204" lon="3.87087">
        <ele>44.8</ele>
        <time>2021-01-23T14:33:32Z</time>
      </trkpt>
      <trkpt lat="43.61203" lon="3.87092">
        <ele>44.9</ele>
        <time>2021-01-23T14:33:33Z</time>
      </trkpt>
      <trkpt lat="43.61203" lon="3.87098">
        <ele>44.6</ele>
        <time>2021-01-23T14:33:34Z</time>
      </trkpt>
      <trkpt lat="43.61202" lon="3.87103">
        <ele>44.6</ele>
        <time>2021-01-23T14:33:35Z</time>
      </trkpt>
      <trkpt lat="43.61201" lon="3.87109">
        <ele>44.4</ele>
        <time>2021-01-23T14:33:36Z</time>
      </trkpt>
      <trkpt lat="43.61201" lon="3.87114">
        <ele>44.3</ele>
        <time>2021-01-23T14:33:37Z</time>
      </trkpt>
      <trkpt lat="43.612" lon="3.87119">
        <ele>44.3</ele>
        <time>2021-01-23T14:33:38Z</time>
      </trkpt>
      <trkpt lat="43.612" lon="3.87125">
        <ele>44.3</ele>
        <time>2021-01-23T14:33:39Z</time>
      </trkpt>
      <trkpt lat="43.612" lon="3.8713">
        <ele>44.3</ele>
        <time>2021-01-23T14:33:40Z</time>
      </trkpt>
      <trkpt lat="43.61199" lon="3.87136">
        <ele>49</ele>
        <time>2021-01-23T14:33:41Z</time>
      </trkpt>
      <trkpt lat="43.61199" lon="3.87141">
        <ele>44.3</ele>
        <time>2021-01-23T14:33:42Z</time>
      </trkpt>
      <trkpt lat="43.61199" lon="3.87147">
        <ele>44.3</ele>
        <time>2021-01-23T14:33:43Z</time>
      </trkpt>
      <trkpt lat="43.61198" lon="3.87152">
        <ele>44.5</ele>
        <time>2021-01-23T14:33:44Z</time>
      </trkpt>
      <trkpt lat="43.61198" lon="3.87157">
        <ele>44.5</ele>
        <time>2021-01-23T14:33:45Z</time>
      </trkpt>
      <trkpt lat="43.61198" lon="3.87162">
        <ele>44.5</ele>
        <time>2021-01-23T14:33:46Z</time>
      </trkpt>
      <trkpt lat="43.61197" lon="3.87167">
        <ele>44.6</ele>
        <time>2021-01-23T14:33:47Z</time>
      </trkpt>
      <trkpt lat="43.61197" lon="3.87172">
        <ele>44.8</ele>
        <time>2021-01-23T14:33:48Z</time>
      </trkpt>
      <trkpt lat="43.61197" lon="3.87177">
        <ele>45</ele>
        <time>2021-01-23T14:33:49Z</time>
      </trkpt>
      <trkpt lat="43.61197" lon="3.87181">
        <ele>45.2</ele>
        <time>2021-01-23T14:33:50Z</time>
      </trkpt>
      <trkpt lat="43.61198" lon="3.87186">
        <ele>50</ele>
        <time>2021-01-23T14:33:51Z</time>
      </trkpt>
      <trkpt lat="43.61198" lon="3.8719">
        <ele>45.4</ele>
        <time>2021-01-23T14:33:52Z</time>
      </trkpt>
      <trkpt lat="43.61199" lon="3.87195">
        <ele>45.5</ele>
        <time>2021-01-23T14:33:53Z</time>
      </trkpt>
      <trkpt lat="43.61199" lon="3.872">
        <ele>45.4</ele>
        <time>2021-01-23T14:33:54Z</time>
      </trkpt>
      <trkpt lat="43.61199" lon="3.87205">
        <ele>45.3</ele>
        <time>2021-01-23T14:33:55Z</time>
      </trkpt>
      <trkpt lat="43.61199" lon="3.8721">
        <ele>45.1</ele>
        <time>2021-01-23T14:33:56Z</time>
      </trkpt>
      <trkpt lat="43.612" lon="3.87214">
        <ele>45</ele>
        <time>2021-01-23T14:33:57Z</time>
      </trkpt>
      <trkpt lat="43.61201" lon="3.87218">
        <ele>44.8</ele>
        <time>2021-01-23T14:33:58Z</time>
      </trkpt>
      <trkpt lat="43.61204" lon="3.87222">
        <ele>44.7</ele>
        <time>2021-01-23T14:33:59Z</time>
      </trkpt>
      <trkpt lat="43.61207" lon="3.87226">
        <ele>45</ele>
        <time>2021-01-23T14:34:00Z</time>
      </trkpt>
      <trkpt lat="43.6121" lon="3.8723">
        <ele>49</ele>
        <time>2021-01-23T14:34:01Z</time>
      </trkpt>
      <trkpt lat="43.61214" lon="3.87234">
        <ele>45.4</ele>
        <time>2021-01-23T14:34:02Z</time>
      </trkpt>
      <trkpt lat="43.61218" lon="3.87237">
        <ele>45.4</ele>
        <time>2021-01-23T14:34:03Z</time>
      </trkpt>
      <trkpt lat="43.61222" lon="3.8724">
        <ele>45.3</ele>
        <time>2021-01-23T14:34:04Z</time>
      </trkpt>
      <trkpt lat="43.61225" lon="3.87243">
        <ele>45.1</ele>
        <time>2021-01-23T14:34:05Z</time>
      </trkpt>
      <trkpt lat="43.6123" lon="3.87247">
        <ele>44.7</ele>
        <time>2021-01-23T14:34:06Z</time>
      </trkpt>
      <trkpt lat="43.61235" lon="3.87251">
        <ele>44.2</ele>
        <time>2021-01-23T14:34:07Z</time>
      </trkpt>
      <trkpt lat="43.6124" lon="3.87254">
        <ele>43.7</ele>
        <time>2021-01-23T14:34:08Z</time>
      </trkpt>
      <trkpt lat="43.61245" lon="3.87256">
        <ele>43</ele>
        <time>2021-01-23T14:34:09Z</time>
      </trkpt>
      <trkpt lat="43.61249" lon="3.87258">
        <ele>42.5</ele>
        <time>2021-01-23T14:34:10Z</time>
      </trkpt>
      <trkpt lat="43.61252" lon="3.87261">
        <ele>50</ele>
        <time>2021-01-23T14:34:11Z</time>
      </trkpt>
      <trkpt lat="43.61254" lon="3.87264">
        <ele>42.1</ele>
        <time>2021-01-23T14:34:12Z</time>
      </trkpt>
      <trkpt lat="43.61255" lon="3.87267">
        <ele>42.1</ele>
        <time>2021-01-23T14:34:13Z</time>
      </trkpt>
      <trkpt lat="43.61254" lon="3.8727">
        <ele>42.3</ele>
        <time>2021-01-23T14:34:14Z</time>
      </trkpt>
      <trkpt lat="43.61252" lon="3.87273">
        <ele>42.6</ele>
        <time>2021-01-23T14:34:15Z</time>
      </trkpt>
      <trkpt lat="43.61251" lon="3.87276">
        <ele>42.8</ele>
        <time>2021-01-23T14:34:16Z</time>
      </trkpt>
      <trkpt lat="43.61249" lon="3.87278">
        <ele>43.2</ele>
        <time>2021-01-23T14:34:17Z</time>
      </trkpt>
      <trkpt lat="43.61248" lon="3.8728">
        <ele>43.4</ele>
        <time>2021-01-23T14:34:18Z</time>
      </trkpt>
      <trkpt lat="43.61247" lon="3.87283">
        <ele>43.6</ele>
        <time>2021-01-23T14:34:19Z</time>
      </trkpt>
      <trkpt lat="43.61245" lon="3.87285">
        <ele>44</ele>
        <time>2021-01-23T14:34:20Z</time>
      </trkpt>
      <trkpt lat="43.61243" lon="3.87286">
        <ele>53</ele>
        <time>2021-01-23T14:34:21Z</time>
      </trkpt>
      <trkpt lat="43.6124" lon="3.8729">
        <ele>44.8</ele>
        <time>2021-01-23T14:34:23Z</time>
      </trkpt>
      <trkpt lat="43.61238" lon="3.87292">
        <ele>45.1</ele>
        <time>2021-01-23T14:34:25Z</time>
      </trkpt>
      <trkpt lat="43.61235" lon="3.87296">
        <ele>45.5</ele>
        <time>2021-01-23T14:34:27Z</time>
      </trkpt>
      <trkpt lat="43.61234" lon="3.87298">
        <ele>45.6</ele>
        <time>2021-01-23T14:34:28Z</time>
      </trkpt>
      <trkpt lat="43.61232" lon="3.873">
        <ele>45.9</ele>
        <time>2021-01-23T14:34:29Z</time>
      </trkpt>
      <trkpt lat="43.6123" lon="3.87302">
        <ele>46.1</ele>
        <time>2021-01-23T14:34:30Z</time>
      </trkpt>
      <trkpt lat="43.61228" lon="3.87305">
        <ele>54</ele>
        <time>2021-01-23T14:34:31Z</time>
      </trkpt>
      <trkpt lat="43.61226" lon="3.87308">
        <ele>46.4</ele>
        <time>2021-01-23T14:34:32Z</time>
      </trkpt>
      <trkpt lat="43.61224" lon="3.8731">
        <ele>46.7</ele>
        <time>2021-01-23T14:34:33Z</time>
      </trkpt>
      <trkpt lat="43.61223" lon="3.87313">
        <ele>46.9</ele>
        <time>2021-01-23T14:34:34Z</time>
      </trkpt>
      <trkpt lat="43.61222" lon="3.87317">
        <ele>47</ele>
        <time>2021-01-23T14:34:35Z</time>
      </trkpt>
      <trkpt lat="43.61221" lon="3.8732">
        <ele>47.2</ele>
        <time>2021-01-23T14:34:36Z</time>
      </trkpt>
      <trkpt lat="43.61219" lon="3.87323">
        <ele>47.5</ele>
        <time>2021-01-23T14:34:37Z</time>
      </trkpt>
      <trkpt lat="43.61217" lon="3.87327">
        <ele>47.8</ele>
        <time>2021-01-23T14:34:38Z</time>
      </trkpt>
      <trkpt lat="43.61215" lon="3.8733">
        <ele>48.1</ele>
        <time>2021-01-23T14:34:39Z</time>
      </trkpt>
      <trkpt lat="43.61213" lon="3.87333">
        <ele>48.3</ele>
        <time>2021-01-23T14:34:40Z</time>
      </trkpt>
      <trkpt lat="43.61211" lon="3.87336">
        <ele>54</ele>
        <time>2021-01-23T14:34:41Z</time>
      </trkpt>
      <trkpt lat="43.61205" lon="3.87347">
        <ele>48.7</ele>
        <time>2021-01-23T14:34:45Z</time>
      </trkpt>
      <trkpt lat="43.612" lon="3.87358">
        <ele>48.6</ele>
        <time>2021-01-23T14:34:49Z</time>
      </trkpt>
      <trkpt lat="43.61192" lon="3.8737">
        <ele>49.1</ele>
        <time>2021-01-23T14:34:53Z</time>
      </trkpt>
      <trkpt lat="43.61187" lon="3.87381">
        <ele>49.3</ele>
        <time>2021-01-23T14:34:56Z</time>
      </trkpt>
      <trkpt lat="43.61186" lon="3.87388">
        <ele>49.3</ele>
        <time>2021-01-23T14:34:58Z</time>
      </trkpt>
      <trkpt lat="43.61184" lon="3.87391">
        <ele>49.4</ele>
        <time>2021-01-23T14:34:59Z</time>
      </trkpt>
      <trkpt lat="43.61183" lon="3.87394">
        <ele>49.4</ele>
        <time>2021-01-23T14:35:00Z</time>
      </trkpt>
      <trkpt lat="43.61181" lon="3.87401">
        <ele>49.5</ele>
        <time>2021-01-23T14:35:02Z</time>
      </trkpt>
      <trkpt lat="43.61178" lon="3.87413">
        <ele>49.6</ele>
        <time>2021-01-23T14:35:05Z</time>
      </trkpt>
      <trkpt lat="43.61176" lon="3.87428">
        <ele>49.5</ele>
        <time>2021-01-23T14:35:08Z</time>
      </trkpt>
      <trkpt lat="43.61178" lon="3.87432">
        <ele>49.4</ele>
        <time>2021-01-23T14:35:09Z</time>
      </trkpt>
      <trkpt lat="43.61181" lon="3.87435">
        <ele>49.1</ele>
        <time>2021-01-23T14:35:10Z</time>
      </trkpt>
      <trkpt lat="43.61183" lon="3.87436">
        <ele>58</ele>
        <time>2021-01-23T14:35:11Z</time>
      </trkpt>
      <trkpt lat="43.61186" lon="3.87438">
        <ele>48.8</ele>
        <time>2021-01-23T14:35:12Z</time>
      </trkpt>
      <trkpt lat="43.61188" lon="3.8744">
        <ele>48.6</ele>
        <time>2021-01-23T14:35:13Z</time>
      </trkpt>
      <trkpt lat="43.6119" lon="3.87442">
        <ele>48.4</ele>
        <time>2021-01-23T14:35:15Z</time>
      </trkpt>
      <trkpt lat="43.61189" lon="3.87444">
        <ele>48.4</ele>
        <time>2021-01-23T14:35:17Z</time>
      </trkpt>
      <trkpt lat="43.61188" lon="3.87447">
        <ele>48.5</ele>
        <time>2021-01-23T14:35:19Z</time>
      </trkpt>
      <trkpt lat="43.61191" lon="3.8745">
        <ele>59</ele>
        <time>2021-01-23T14:35:21Z</time>
      </trkpt>
      <trkpt lat="43.61194" lon="3.87452">
        <ele>48.3</ele>
        <time>2021-01-23T14:35:22Z</time>
      </trkpt>
      <trkpt lat="43.61197" lon="3.87454">
        <ele>47.8</ele>
        <time>2021-01-23T14:35:23Z</time>
      </trkpt>
      <trkpt lat="43.612" lon="3.87456">
        <ele>47.2</ele>
        <time>2021-01-23T14:35:24Z</time>
      </trkpt>
      <trkpt lat="43.61203" lon="3.87459">
        <ele>46.7</ele>
        <time>2021-01-23T14:35:25Z</time>
      </trkpt>
      <trkpt lat="43.61206" lon="3.87461">
        <ele>46</ele>
        <time>2021-01-23T14:35:26Z</time>
      </trkpt>
      <trkpt lat="43.61209" lon="3.87464">
        <ele>45.3</ele>
        <time>2021-01-23T14:35:27Z</time>
      </trkpt>
      <trkpt lat="43.61211" lon="3.87468">
        <ele>44.9</ele>
        <time>2021-01-23T14:35:28Z</time>
      </trkpt>
      <trkpt lat="43.61214" lon="3.87471">
        <ele>44.1</ele>
        <time>2021-01-23T14:35:29Z</time>
      </trkpt>
      <trkpt lat="43.61215" lon="3.87476">
        <ele>43.7</ele>
        <time>2021-01-23T14:35:30Z</time>
      </trkpt>
      <trkpt lat="43.61217" lon="3.87479">
        <ele>60</ele>
        <time>2021-01-23T14:35:31Z</time>
      </trkpt>
      <trkpt lat="43.61218" lon="3.87483">
        <ele>42.7</ele>
        <time>2021-01-23T14:35:32Z</time>
      </trkpt>
      <trkpt lat="43.61217" lon="3.87487">
        <ele>42.8</ele>
        <time>2021-01-23T14:35:33Z</time>
      </trkpt>
      <trkpt lat="43.61215" lon="3.87491">
        <ele>43.1</ele>
        <time>2021-01-23T14:35:34Z</time>
      </trkpt>
      <trkpt lat="43.61214" lon="3.87495">
        <ele>43.3</ele>
        <time>2021-01-23T14:35:35Z</time>
      </trkpt>
      <trkpt lat="43.61213" lon="3.875">
        <ele>43.3</ele>
        <time>2021-01-23T14:35:36Z</time>
      </trkpt>
      <trkpt lat="43.61211" lon="3.87505">
        <ele>44.1</ele>
        <time>2021-01-23T14:35:37Z</time>
      </trkpt>
      <trkpt lat="43.61209" lon="3.8751">
        <ele>44.7</ele>
        <time>2021-01-23T14:35:38Z</time>
      </trkpt>
      <trkpt lat="43.61207" lon="3.87515">
        <ele>45.3</ele>
        <time>2021-01-23T14:35:39Z</time>
      </trkpt>
      <trkpt lat="43.61203" lon="3.8752">
        <ele>46</ele>
        <time>2021-01-23T14:35:40Z</time>
      </trkpt>
      <trkpt lat="43.61201" lon="3.87525">
        <ele>60</ele>
        <time>2021-01-23T14:35:41Z</time>
      </trkpt>
      <trkpt lat="43.61199" lon="3.87531">
        <ele>46.5</ele>
        <time>2021-01-23T14:35:42Z</time>
      </trkpt>
      <trkpt lat="43.61199" lon="3.87537">
        <ele>46.6</ele>
        <time>2021-01-23T14:35:43Z</time>
      </trkpt>
      <trkpt lat="43.61198" lon="3.87543">
        <ele>46.7</ele>
        <time>2021-01-23T14:35:44Z</time>
      </trkpt>
      <trkpt lat="43.61197" lon="3.87549">
        <ele>46.8</ele>
        <time>2021-01-23T14:35:45Z</time>
      </trkpt>
      <trkpt lat="43.61196" lon="3.87554">
        <ele>46.9</ele>
        <time>2021-01-23T14:35:46Z</time>
      </trkpt>
      <trkpt lat="43.61195" lon="3.8756">
        <ele>47</ele>
        <time>2021-01-23T14:35:47Z</time>
      </trkpt>
      <trkpt lat="43.61194" lon="3.87565">
        <ele>47</ele>
        <time>2021-01-23T14:35:48Z</time>
      </trkpt>
      <trkpt lat="43.61192" lon="3.87572">
        <ele>47.1</ele>
        <time>2021-01-23T14:35:49Z</time>
      </trkpt>
      <trkpt lat="43.61193" lon="3.87578">
        <ele>47.1</ele>
        <time>2021-01-23T14:35:50Z</time>
      </trkpt>
      <trkpt lat="43.61196" lon="3.87592">
        <ele>46.2</ele>
        <time>2021-01-23T14:35:53Z</time>
      </trkpt>
      <trkpt lat="43.61195" lon="3.87607">
        <ele>45.2</ele>
        <time>2021-01-23T14:35:58Z</time>
      </trkpt>
      <trkpt lat="43.61193" lon="3.87621">
        <ele>44.4</ele>
        <time>2021-01-23T14:36:00Z</time>
      </trkpt>
      <trkpt lat="43.61189" lon="3.87635">
        <ele>43.8</ele>
        <time>2021-01-23T14:36:03Z</time>
      </trkpt>
      <trkpt lat="43.61195" lon="3.87649">
        <ele>43.3</ele>
        <time>2021-01-23T14:36:06Z</time>
      </trkpt>
      <trkpt lat="43.61195" lon="3.87661">
        <ele>43.7</ele>
        <time>2021-01-23T14:36:08Z</time>
      </trkpt>
      <trkpt lat="43.61196" lon="3.87666">
        <ele>43.7</ele>
        <time>2021-01-23T14:36:09Z</time>
      </trkpt>
      <trkpt lat="43.61197" lon="3.87672">
        <ele>43.7</ele>
        <time>2021-01-23T14:36:10Z</time>
      </trkpt>
      <trkpt lat="43.61196" lon="3.87677">
        <ele>62</ele>
        <time>2021-01-23T14:36:11Z</time>
      </trkpt>
      <trkpt lat="43.61196" lon="3.87683">
        <ele>44.3</ele>
        <time>2021-01-23T14:36:12Z</time>
      </trkpt>
      <trkpt lat="43.61195" lon="3.87694">
        <ele>44.9</ele>
        <time>2021-01-23T14:36:14Z</time>
      </trkpt>
      <trkpt lat="43.61194" lon="3.87699">
        <ele>45</ele>
        <time>2021-01-23T14:36:15Z</time>
      </trkpt>
      <trkpt lat="43.61194" lon="3.87703">
        <ele>45</ele>
        <time>2021-01-23T14:36:16Z</time>
      </trkpt>
      <trkpt lat="43.61193" lon="3.87707">
        <ele>45.1</ele>
        <time>2021-01-23T14:36:17Z</time>
      </trkpt>
      <trkpt lat="43.61192" lon="3.8771">
        <ele>45.2</ele>
        <time>2021-01-23T14:36:18Z</time>
      </trkpt>
      <trkpt lat="43.61191" lon="3.87714">
        <ele>45.2</ele>
        <time>2021-01-23T14:36:19Z</time>
      </trkpt>
      <trkpt lat="43.61191" lon="3.87719">
        <ele>45.2</ele>
        <time>2021-01-23T14:36:20Z</time>
      </trkpt>
      <trkpt lat="43.61191" lon="3.87724">
        <ele>61</ele>
        <time>2021-01-23T14:36:21Z</time>
      </trkpt>
      <trkpt lat="43.61194" lon="3.87741">
        <ele>45</ele>
        <time>2021-01-23T14:36:24Z</time>
      </trkpt>
      <trkpt lat="43.61195" lon="3.87755">
        <ele>45</ele>
        <time>2021-01-23T14:36:26Z</time>
      </trkpt>
      <trkpt lat="43.61192" lon="3.87767">
        <ele>45.2</ele>
        <time>2021-01-23T14:36:28Z</time>
      </trkpt>
      <trkpt lat="43.61185" lon="3.87778">
        <ele>60</ele>
        <time>2021-01-23T14:36:31Z</time>
      </trkpt>
      <trkpt lat="43.6118" lon="3.8779">
        <ele>46</ele>
        <time>2021-01-23T14:36:34Z</time>
      </trkpt>
      <trkpt lat="43.61178" lon="3.87804">
        <ele>46</ele>
        <time>2021-01-23T14:36:37Z</time>
      </trkpt>
      <trkpt lat="43.61175" lon="3.87818">
        <ele>45.7</ele>
        <time>2021-01-23T14:36:41Z</time>
      </trkpt>
      <trkpt lat="43.61167" lon="3.87828">
        <ele>45.2</ele>
        <time>2021-01-23T14:36:44Z</time>
      </trkpt>
      <trkpt lat="43.61163" lon="3.8784">
        <ele>44.6</ele>
        <time>2021-01-23T14:36:47Z</time>
      </trkpt>
      <trkpt lat="43.61159" lon="3.87853">
        <ele>58</ele>
        <time>2021-01-23T14:36:51Z</time>
      </trkpt>
      <trkpt lat="43.61153" lon="3.87865">
        <ele>43.5</ele>
        <time>2021-01-23T14:36:54Z</time>
      </trkpt>
      <trkpt lat="43.61156" lon="3.8788">
        <ele>43.6</ele>
        <time>2021-01-23T14:36:58Z</time>
      </trkpt>
      <trkpt lat="43.61161" lon="3.87891">
        <ele>43.7</ele>
        <time>2021-01-23T14:37:02Z</time>
      </trkpt>
      <trkpt lat="43.61169" lon="3.87898">
        <ele>43.6</ele>
        <time>2021-01-23T14:37:05Z</time>
      </trkpt>
      <trkpt lat="43.61178" lon="3.87902">
        <ele>43.3</ele>
        <time>2021-01-23T14:37:09Z</time>
      </trkpt>
      <trkpt lat="43.6119" lon="3.87909">
        <ele>43</ele>
        <time>2021-01-23T14:37:13Z</time>
      </trkpt>
      <trkpt lat="43.61197" lon="3.87922">
        <ele>42.8</ele>
        <time>2021-01-23T14:37:16Z</time>
      </trkpt>
      <trkpt lat="43.61194" lon="3.87929">
        <ele>59</ele>
        <time>2021-01-23T14:37:21Z</time>
      </trkpt>
      <trkpt lat="43.61189" lon="3.87931">
        <ele>43</ele>
        <time>2021-01-23T14:37:23Z</time>
      </trkpt>
      <trkpt lat="43.61186" lon="3.87933">
        <ele>43</ele>
        <time>2021-01-23T14:37:24Z</time>
      </trkpt>
      <trkpt lat="43.61182" lon="3.87934">
        <ele>43</ele>
        <time>2021-01-23T14:37:25Z</time>
      </trkpt>
      <trkpt lat="43.61178" lon="3.87935">
        <ele>43</ele>
        <time>2021-01-23T14:37:26Z</time>
      </trkpt>
      <trkpt lat="43.61174" lon="3.87936">
        <ele>43</ele>
        <time>2021-01-23T14:37:27Z</time>
      </trkpt>
      <trkpt lat="43.6117" lon="3.87937">
        <ele>43</ele>
        <time>2021-01-23T14:37:28Z</time>
      </trkpt>
      <trkpt lat="43.61166" lon="3.87939">
        <ele>42.9</ele>
        <time>2021-01-23T14:37:29Z</time>
      </trkpt>
      <trkpt lat="43.61155" lon="3.8794">
        <ele>41.5</ele>
        <time>2021-01-23T14:37:32Z</time>
      </trkpt>
      <trkpt lat="43.61142" lon="3.87936">
        <ele>40</ele>
        <time>2021-01-23T14:37:35Z</time>
      </trkpt>
      <trkpt lat="43.61128" lon="3.87936">
        <ele>39.1</ele>
        <time>2021-01-23T14:37:37Z</time>
      </trkpt>
      <trkpt lat="43.61121" lon="3.87936">
        <ele>38.8</ele>
        <time>2021-01-23T14:37:38Z</time>
      </trkpt>
      <trkpt lat="43.61116" lon="3.87935">
        <ele>38.6</ele>
        <time>2021-01-23T14:37:39Z</time>
      </trkpt>
      <trkpt lat="43.61111" lon="3.87933">
        <ele>38.4</ele>
        <time>2021-01-23T14:37:40Z</time>
      </trkpt>
      <trkpt lat="43.61107" lon="3.87929">
        <ele>54</ele>
        <time>2021-01-23T14:37:41Z</time>
      </trkpt>
      <trkpt lat="43.61106" lon="3.87924">
        <ele>38.7</ele>
        <time>2021-01-23T14:37:42Z</time>
      </trkpt>
      <trkpt lat="43.61106" lon="3.87918">
        <ele>39</ele>
        <time>2021-01-23T14:37:43Z</time>
      </trkpt>
      <trkpt lat="43.61108" lon="3.87911">
        <ele>39.2</ele>
        <time>2021-01-23T14:37:44Z</time>
      </trkpt>
      <trkpt lat="43.6111" lon="3.87906">
        <ele>39.4</ele>
        <time>2021-01-23T14:37:45Z</time>
      </trkpt>
      <trkpt lat="43.61112" lon="3.87902">
        <ele>39.6</ele>
        <time>2021-01-23T14:37:46Z</time>
      </trkpt>
      <trkpt lat="43.61114" lon="3.87899">
        <ele>39.9</ele>
        <time>2021-01-23T14:37:47Z</time>
      </trkpt>
      <trkpt lat="43.61116" lon="3.87896">
        <ele>40.2</ele>
        <time>2021-01-23T14:37:48Z</time>
      </trkpt>
      <trkpt lat="43.61117" lon="3.87894">
        <ele>40.4</ele>
        <time>2021-01-23T14:37:49Z</time>
      </trkpt>
      <trkpt lat="43.61119" lon="3.87893">
        <ele>40.7</ele>
        <time>2021-01-23T14:37:50Z</time>
      </trkpt>
      <trkpt lat="43.61123" lon="3.87881">
        <ele>41.6</ele>
        <time>2021-01-23T14:37:56Z</time>
      </trkpt>
      <trkpt lat="43.61128" lon="3.8787">
        <ele>42.4</ele>
        <time>2021-01-23T14:38:03Z</time>
      </trkpt>
      <trkpt lat="43.61125" lon="3.87862">
        <ele>42.5</ele>
        <time>2021-01-23T14:38:09Z</time>
      </trkpt>
      <trkpt lat="43.61118" lon="3.8785">
        <ele>42.9</ele>
        <time>2021-01-23T14:38:14Z</time>
      </trkpt>
      <trkpt lat="43.61108" lon="3.87843">
        <ele>43.2</ele>
        <time>2021-01-23T14:38:18Z</time>
      </trkpt>
      <trkpt lat="43.61099" lon="3.87834">
        <ele>43.5</ele>
        <time>2021-01-23T14:38:23Z</time>
      </trkpt>
      <trkpt lat="43.61093" lon="3.87824">
        <ele>43.3</ele>
        <time>2021-01-23T14:38:27Z</time>
      </trkpt>
      <trkpt lat="43.61086" lon="3.87813">
        <ele>43.1</ele>
        <time>2021-01-23T14:38:30Z</time>
      </trkpt>
      <trkpt lat="43.61083" lon="3.87806">
        <ele>43</ele>
        <time>2021-01-23T14:38:32Z</time>
      </trkpt>
      <trkpt lat="43.61083" lon="3.87804">
        <ele>43.1</ele>
        <time>2021-01-23T14:38:33Z</time>
      </trkpt>
      <trkpt lat="43.61082" lon="3.878">
        <ele>43.2</ele>
        <time>2021-01-23T14:38:35Z</time>
      </trkpt>
      <trkpt lat="43.6108" lon="3.87798">
        <ele>43.2</ele>
        <time>2021-01-23T14:38:38Z</time>
      </trkpt>
      <trkpt lat="43.61078" lon="3.87796">
        <ele>43.3</ele>
        <time>2021-01-23T14:38:41Z</time>
      </trkpt>
      <trkpt lat="43.61077" lon="3.87791">
        <ele>43.4</ele>
        <time>2021-01-23T14:38:43Z</time>
      </trkpt>
      <trkpt lat="43.61077" lon="3.87787">
        <ele>43.5</ele>
        <time>2021-01-23T14:38:44Z</time>
      </trkpt>
      <trkpt lat="43.61077" lon="3.87783">
        <ele>43.6</ele>
        <time>2021-01-23T14:38:45Z</time>
      </trkpt>
      <trkpt lat="43.61075" lon="3.87766">
        <ele>44.1</ele>
        <time>2021-01-23T14:38:49Z</time>
      </trkpt>
      <trkpt lat="43.61071" lon="3.87755">
        <ele>44.4</ele>
        <time>2021-01-23T14:38:52Z</time>
      </trkpt>
      <trkpt lat="43.61083" lon="3.8775">
        <ele>45</ele>
        <time>2021-01-23T14:39:03Z</time>
      </trkpt>
      <trkpt lat="43.61086" lon="3.87748">
        <ele>45.3</ele>
        <time>2021-01-23T14:39:04Z</time>
      </trkpt>
      <trkpt lat="43.6109" lon="3.87747">
        <ele>45.6</ele>
        <time>2021-01-23T14:39:05Z</time>
      </trkpt>
      <trkpt lat="43.611" lon="3.87747">
        <ele>46.2</ele>
        <time>2021-01-23T14:39:08Z</time>
      </trkpt>
      <trkpt lat="43.61111" lon="3.87747">
        <ele>47</ele>
        <time>2021-01-23T14:39:10Z</time>
      </trkpt>
      <trkpt lat="43.61117" lon="3.87747">
        <ele>56</ele>
        <time>2021-01-23T14:39:11Z</time>
      </trkpt>
      <trkpt lat="43.61123" lon="3.87747">
        <ele>47</ele>
        <time>2021-01-23T14:39:12Z</time>
      </trkpt>
      <trkpt lat="43.61128" lon="3.87748">
        <ele>47</ele>
        <time>2021-01-23T14:39:13Z</time>
      </trkpt>
      <trkpt lat="43.61133" lon="3.87749">
        <ele>47</ele>
        <time>2021-01-23T14:39:14Z</time>
      </trkpt>
      <trkpt lat="43.61136" lon="3.87748">
        <ele>47</ele>
        <time>2021-01-23T14:39:15Z</time>
      </trkpt>
      <trkpt lat="43.61139" lon="3.87746">
        <ele>47</ele>
        <time>2021-01-23T14:39:16Z</time>
      </trkpt>
      <trkpt lat="43.61141" lon="3.87743">
        <ele>47</ele>
        <time>2021-01-23T14:39:17Z</time>
      </trkpt>
      <trkpt lat="43.61143" lon="3.87741">
        <ele>47</ele>
        <time>2021-01-23T14:39:18Z</time>
      </trkpt>
      <trkpt lat="43.61147" lon="3.8774">
        <ele>47</ele>
        <time>2021-01-23T14:39:19Z</time>
      </trkpt>
      <trkpt lat="43.61149" lon="3.8774">
        <ele>47</ele>
        <time>2021-01-23T14:39:20Z</time>
      </trkpt>
      <trkpt lat="43.61152" lon="3.8774">
        <ele>59</ele>
        <time>2021-01-23T14:39:21Z</time>
      </trkpt>
      <trkpt lat="43.61154" lon="3.87741">
        <ele>47</ele>
        <time>2021-01-23T14:39:22Z</time>
      </trkpt>
      <trkpt lat="43.61156" lon="3.87741">
        <ele>47</ele>
        <time>2021-01-23T14:39:24Z</time>
      </trkpt>
      <trkpt lat="43.61157" lon="3.87741">
        <ele>60</ele>
        <time>2021-01-23T14:39:28Z</time>
      </trkpt>
    </trkseg>
  </trk>
</gpx>